<?xml version='1.0' encoding='UTF-8'?><gpx version="1.1" creator="JPX - https://github.com/jenetics/jpx" xmlns="http://www.topografix.com/GPX/1/1"><trk><trkseg><trkpt lat="42.52256242231658" lon="11.286210130442232"><ele>11.0</ele><time>2026-04-30T08:21:24.999Z</time></trkpt><trkpt lat="42.522616369806684" lon="11.286438981278215"><ele>10.0</ele><time>2026-04-30T08:21:25.999Z</time></trkpt><trkpt lat="42.522675890824864" lon="11.286666260474975"><ele>9.0</ele><time>2026-04-30T08:21:26.999Z</time></trkpt><trkpt lat="42.522735555106316" lon="11.28690296018706"><ele>9.0</ele><time>2026-04-30T08:21:27.999Z</time></trkpt><trkpt lat="42.522797851066656" lon="11.287133566145183"><ele>9.0</ele><time>2026-04-30T08:21:28.999Z</time></trkpt><trkpt lat="42.52285766130467" lon="11.287372543644747"><ele>9.0</ele><time>2026-04-30T08:21:29.999Z</time></trkpt><trkpt lat="42.5229166841594" lon="11.287613741562854"><ele>10.0</ele><time>2026-04-30T08:21:30.999Z</time></trkpt><trkpt lat="42.522975349639694" lon="11.287852678364914"><ele>11.0</ele><time>2026-04-30T08:21:31.999Z</time></trkpt><trkpt lat="42.52302961980744" lon="11.288090140964844"><ele>12.0</ele><time>2026-04-30T08:21:32.999Z</time></trkpt><trkpt lat="42.52309090378797" lon="11.28832187126963"><ele>12.0</ele><time>2026-04-30T08:21:33.999Z</time></trkpt><trkpt lat="42.52313743423547" lon="11.288568262160902"><ele>12.0</ele><time>2026-04-30T08:21:34.999Z</time></trkpt><trkpt lat="42.52319001168375" lon="11.288785443746168"><ele>12.0</ele><time>2026-04-30T08:21:35.999Z</time></trkpt><trkpt lat="42.523241162292486" lon="11.288997102926892"><ele>12.0</ele><time>2026-04-30T08:21:36.999Z</time></trkpt><trkpt lat="42.52329010975929" lon="11.289199354448385"><ele>12.0</ele><time>2026-04-30T08:21:37.999Z</time></trkpt><trkpt lat="42.523334989689175" lon="11.289383933202705"><ele>12.0</ele><time>2026-04-30T08:21:38.999Z</time></trkpt><trkpt lat="42.52338206751797" lon="11.289577551283951"><ele>12.666666666666668</ele><time>2026-04-30T08:21:39.999Z</time></trkpt><trkpt lat="42.52344015762784" lon="11.289765008878934"><ele>13.333333333333334</ele><time>2026-04-30T08:21:40.999Z</time></trkpt><trkpt lat="42.52348539842861" lon="11.289967980755748"><ele>14.0</ele><time>2026-04-30T08:21:41.999Z</time></trkpt><trkpt lat="42.52353560479837" lon="11.290161353832433"><ele>14.0</ele><time>2026-04-30T08:21:43Z</time></trkpt><trkpt lat="42.523584443192235" lon="11.290352435932888"><ele>14.0</ele><time>2026-04-30T08:21:44Z</time></trkpt><trkpt lat="42.523628457729515" lon="11.290542600028061"><ele>14.0</ele><time>2026-04-30T08:21:45Z</time></trkpt><trkpt lat="42.52367843645348" lon="11.290743057826164"><ele>13.666666666666668</ele><time>2026-04-30T08:21:46Z</time></trkpt><trkpt lat="42.52372422226559" lon="11.290936194310756"><ele>13.333333333333332</ele><time>2026-04-30T08:21:47Z</time></trkpt><trkpt lat="42.52377305295027" lon="11.291136293970244"><ele>13.0</ele><time>2026-04-30T08:21:48Z</time></trkpt><trkpt lat="42.523824433382956" lon="11.29133362018944"><ele>14.0</ele><time>2026-04-30T08:21:49Z</time></trkpt><trkpt lat="42.523877677709926" lon="11.291543785517362"><ele>15.0</ele><time>2026-04-30T08:21:50Z</time></trkpt><trkpt lat="42.52391263758751" lon="11.291757568959248"><ele>16.0</ele><time>2026-04-30T08:21:51Z</time></trkpt><trkpt lat="42.52397441337132" lon="11.291951762629246"><ele>16.0</ele><time>2026-04-30T08:21:52Z</time></trkpt><trkpt lat="42.524011390220075" lon="11.292146948072423"><ele>16.0</ele><time>2026-04-30T08:21:53Z</time></trkpt><trkpt lat="42.5240552443925" lon="11.29234175839721"><ele>16.0</ele><time>2026-04-30T08:21:54Z</time></trkpt><trkpt lat="42.52410791627618" lon="11.292545446748539"><ele>16.0</ele><time>2026-04-30T08:21:55Z</time></trkpt><trkpt lat="42.524160643918066" lon="11.292755549293663"><ele>16.0</ele><time>2026-04-30T08:21:56Z</time></trkpt><trkpt lat="42.52420969737363" lon="11.292955095291893"><ele>16.0</ele><time>2026-04-30T08:21:57Z</time></trkpt><trkpt lat="42.52425458324201" lon="11.29313969089806"><ele>16.0</ele><time>2026-04-30T08:21:58Z</time></trkpt><trkpt lat="42.52429842917323" lon="11.293315247480184"><ele>16.0</ele><time>2026-04-30T08:21:59Z</time></trkpt><trkpt lat="42.524341726643236" lon="11.293477355662793"><ele>16.0</ele><time>2026-04-30T08:22:00Z</time></trkpt><trkpt lat="42.52437504416634" lon="11.293618537638727"><ele>16.0</ele><time>2026-04-30T08:22:01Z</time></trkpt><trkpt lat="42.52440624160552" lon="11.293746159458923"><ele>16.0</ele><time>2026-04-30T08:22:02Z</time></trkpt><trkpt lat="42.52443610108723" lon="11.293870729199279"><ele>16.0</ele><time>2026-04-30T08:22:03Z</time></trkpt><trkpt lat="42.52446510161295" lon="11.293988031863476"><ele>16.0</ele><time>2026-04-30T08:22:04Z</time></trkpt><trkpt lat="42.524476996976894" lon="11.294091626026745"><ele>16.0</ele><time>2026-04-30T08:22:05Z</time></trkpt><trkpt lat="42.52446935758983" lon="11.294179195735769"><ele>16.0</ele><time>2026-04-30T08:22:06Z</time></trkpt><trkpt lat="42.524326938212475" lon="11.294187293025736"><ele>16.25</ele><time>2026-04-30T08:22:08Z</time></trkpt><trkpt lat="42.52423868080246" lon="11.294249033658698"><ele>16.5</ele><time>2026-04-30T08:22:09Z</time></trkpt><trkpt lat="42.524128236343834" lon="11.294328877302414"><ele>16.75</ele><time>2026-04-30T08:22:10Z</time></trkpt><trkpt lat="42.523968098545616" lon="11.294443878189465"><ele>17.0</ele><time>2026-04-30T08:22:11Z</time></trkpt><trkpt lat="42.52379751654281" lon="11.294582041842135"><ele>17.0</ele><time>2026-04-30T08:22:12Z</time></trkpt><trkpt lat="42.52362076956914" lon="11.29468283629955"><ele>17.0</ele><time>2026-04-30T08:22:13Z</time></trkpt><trkpt lat="42.52345286480158" lon="11.294806792593615"><ele>17.0</ele><time>2026-04-30T08:22:14Z</time></trkpt><trkpt lat="42.523295702169094" lon="11.294921653622845"><ele>17.0</ele><time>2026-04-30T08:22:15Z</time></trkpt><trkpt lat="42.523150278008366" lon="11.295024757408392"><ele>17.0</ele><time>2026-04-30T08:22:16Z</time></trkpt><trkpt lat="42.52301138137958" lon="11.295134518286803"><ele>17.0</ele><time>2026-04-30T08:22:17Z</time></trkpt><trkpt lat="42.52287634549605" lon="11.29526479452799"><ele>16.666666666666668</ele><time>2026-04-30T08:22:18Z</time></trkpt><trkpt lat="42.5227582140995" lon="11.29541331505453"><ele>16.333333333333332</ele><time>2026-04-30T08:22:19Z</time></trkpt><trkpt lat="42.522654091842405" lon="11.295580639622804"><ele>16.0</ele><time>2026-04-30T08:22:20Z</time></trkpt><trkpt lat="42.52256011883982" lon="11.295756764544088"><ele>16.666666666666664</ele><time>2026-04-30T08:22:21Z</time></trkpt><trkpt lat="42.52246121360361" lon="11.295950054919508"><ele>17.333333333333332</ele><time>2026-04-30T08:22:22Z</time></trkpt><trkpt lat="42.52235686453418" lon="11.296129977692596"><ele>18.0</ele><time>2026-04-30T08:22:23Z</time></trkpt><trkpt lat="42.522253648035985" lon="11.296324060495888"><ele>18.0</ele><time>2026-04-30T08:22:24Z</time></trkpt><trkpt lat="42.522128686596936" lon="11.296491424914215"><ele>18.0</ele><time>2026-04-30T08:22:25Z</time></trkpt><trkpt lat="42.52202619650326" lon="11.296671208590276"><ele>18.0</ele><time>2026-04-30T08:22:26Z</time></trkpt><trkpt lat="42.52191985579884" lon="11.296849495807578"><ele>17.666666666666668</ele><time>2026-04-30T08:22:27Z</time></trkpt><trkpt lat="42.52181092313835" lon="11.297026766020968"><ele>17.333333333333336</ele><time>2026-04-30T08:22:28Z</time></trkpt><trkpt lat="42.521704349499124" lon="11.297204785719273"><ele>17.0</ele><time>2026-04-30T08:22:29Z</time></trkpt><trkpt lat="42.521608352611764" lon="11.297373384305468"><ele>17.0</ele><time>2026-04-30T08:22:30Z</time></trkpt><trkpt lat="42.521513340014764" lon="11.297537561165697"><ele>17.0</ele><time>2026-04-30T08:22:31Z</time></trkpt><trkpt lat="42.5214110315724" lon="11.297707871679389"><ele>17.0</ele><time>2026-04-30T08:22:32Z</time></trkpt><trkpt lat="42.521301779563295" lon="11.297879611579557"><ele>17.333333333333336</ele><time>2026-04-30T08:22:33Z</time></trkpt><trkpt lat="42.52117871476358" lon="11.298055344274431"><ele>17.666666666666668</ele><time>2026-04-30T08:22:34Z</time></trkpt><trkpt lat="42.521034605704486" lon="11.298193544571957"><ele>18.0</ele><time>2026-04-30T08:22:35Z</time></trkpt><trkpt lat="42.52088504748289" lon="11.298348966914569"><ele>17.0</ele><time>2026-04-30T08:22:36Z</time></trkpt><trkpt lat="42.52074491085749" lon="11.298489662990576"><ele>16.0</ele><time>2026-04-30T08:22:37Z</time></trkpt><trkpt lat="42.52060763903277" lon="11.298627641238792"><ele>15.0</ele><time>2026-04-30T08:22:38Z</time></trkpt><trkpt lat="42.520483720258284" lon="11.298776539473703"><ele>15.666666666666668</ele><time>2026-04-30T08:22:39Z</time></trkpt><trkpt lat="42.52035395072571" lon="11.298905319223813"><ele>16.333333333333336</ele><time>2026-04-30T08:22:40Z</time></trkpt><trkpt lat="42.520214528547314" lon="11.299023074945499"><ele>17.0</ele><time>2026-04-30T08:22:41Z</time></trkpt><trkpt lat="42.52008540272669" lon="11.299152963774175"><ele>17.0</ele><time>2026-04-30T08:22:42Z</time></trkpt><trkpt lat="42.51996012201808" lon="11.299306078928307"><ele>17.0</ele><time>2026-04-30T08:22:43Z</time></trkpt><trkpt lat="42.51982960477407" lon="11.299438772284738"><ele>17.0</ele><time>2026-04-30T08:22:44Z</time></trkpt><trkpt lat="42.519694074957606" lon="11.299572673386661"><ele>17.0</ele><time>2026-04-30T08:22:45Z</time></trkpt><trkpt lat="42.51956229778085" lon="11.29970824285516"><ele>17.0</ele><time>2026-04-30T08:22:46Z</time></trkpt><trkpt lat="42.51943072711492" lon="11.29984024359022"><ele>17.0</ele><time>2026-04-30T08:22:47Z</time></trkpt><trkpt lat="42.51929832382791" lon="11.299972528102035"><ele>17.0</ele><time>2026-04-30T08:22:48Z</time></trkpt><trkpt lat="42.51917119821568" lon="11.300102310953179"><ele>17.0</ele><time>2026-04-30T08:22:49Z</time></trkpt><trkpt lat="42.51904169006624" lon="11.300241320848299"><ele>17.0</ele><time>2026-04-30T08:22:50Z</time></trkpt><trkpt lat="42.51891895791831" lon="11.300380410825042"><ele>17.0</ele><time>2026-04-30T08:22:51Z</time></trkpt><trkpt lat="42.51880153072643" lon="11.300520036969804"><ele>17.0</ele><time>2026-04-30T08:22:52Z</time></trkpt><trkpt lat="42.51867049218853" lon="11.300641426793227"><ele>17.0</ele><time>2026-04-30T08:22:53Z</time></trkpt><trkpt lat="42.518554823952364" lon="11.300793533210163"><ele>17.333333333333336</ele><time>2026-04-30T08:22:54Z</time></trkpt><trkpt lat="42.51844675483101" lon="11.300950261660523"><ele>17.666666666666668</ele><time>2026-04-30T08:22:55Z</time></trkpt><trkpt lat="42.51834303787692" lon="11.301101616087879"><ele>18.0</ele><time>2026-04-30T08:22:56Z</time></trkpt><trkpt lat="42.518245059731015" lon="11.301250794233754"><ele>18.0</ele><time>2026-04-30T08:22:57Z</time></trkpt><trkpt lat="42.51814922318003" lon="11.301403756349735"><ele>18.0</ele><time>2026-04-30T08:22:58Z</time></trkpt><trkpt lat="42.51804874489937" lon="11.30155231259883"><ele>18.0</ele><time>2026-04-30T08:22:59Z</time></trkpt><trkpt lat="42.517946901928156" lon="11.301712371745058"><ele>17.666666666666668</ele><time>2026-04-30T08:23:00Z</time></trkpt><trkpt lat="42.51784602748964" lon="11.30188374309593"><ele>17.333333333333336</ele><time>2026-04-30T08:23:01Z</time></trkpt><trkpt lat="42.51773586497099" lon="11.302059213253276"><ele>17.0</ele><time>2026-04-30T08:23:02Z</time></trkpt><trkpt lat="42.517627378766015" lon="11.302231276147506"><ele>16.333333333333336</ele><time>2026-04-30T08:23:03Z</time></trkpt><trkpt lat="42.51751987737603" lon="11.302395098199305"><ele>15.666666666666668</ele><time>2026-04-30T08:23:04Z</time></trkpt><trkpt lat="42.51741763005164" lon="11.302560579048864"><ele>15.0</ele><time>2026-04-30T08:23:05Z</time></trkpt><trkpt lat="42.51731555166415" lon="11.302723999541218"><ele>15.0</ele><time>2026-04-30T08:23:06Z</time></trkpt><trkpt lat="42.51721323258556" lon="11.302887052917189"><ele>15.0</ele><time>2026-04-30T08:23:07Z</time></trkpt><trkpt lat="42.51710980611867" lon="11.303048384235282"><ele>15.0</ele><time>2026-04-30T08:23:08Z</time></trkpt><trkpt lat="42.51700182076379" lon="11.303218632660208"><ele>15.666666666666668</ele><time>2026-04-30T08:23:09Z</time></trkpt><trkpt lat="42.516893533112324" lon="11.303385466145622"><ele>16.333333333333336</ele><time>2026-04-30T08:23:10Z</time></trkpt><trkpt lat="42.51678453201744" lon="11.303554043114815"><ele>17.0</ele><time>2026-04-30T08:23:11Z</time></trkpt><trkpt lat="42.516679931489364" lon="11.303727229207627"><ele>17.0</ele><time>2026-04-30T08:23:12Z</time></trkpt><trkpt lat="42.51657019290084" lon="11.30389993339201"><ele>17.0</ele><time>2026-04-30T08:23:13Z</time></trkpt><trkpt lat="42.51645871200547" lon="11.304075000171853"><ele>17.0</ele><time>2026-04-30T08:23:14Z</time></trkpt><trkpt lat="42.516351292995246" lon="11.304246173355313"><ele>17.0</ele><time>2026-04-30T08:23:15Z</time></trkpt><trkpt lat="42.51624120515022" lon="11.304422361884997"><ele>17.0</ele><time>2026-04-30T08:23:16Z</time></trkpt><trkpt lat="42.51612905257726" lon="11.304592133088105"><ele>17.0</ele><time>2026-04-30T08:23:17.001Z</time></trkpt><trkpt lat="42.5160198425023" lon="11.304757715423483"><ele>15.666666666666668</ele><time>2026-04-30T08:23:18.001Z</time></trkpt><trkpt lat="42.51591333020196" lon="11.304913856438697"><ele>14.333333333333332</ele><time>2026-04-30T08:23:19.001Z</time></trkpt><trkpt lat="42.51581121199856" lon="11.305063213558556"><ele>13.0</ele><time>2026-04-30T08:23:20.001Z</time></trkpt><trkpt lat="42.51570431757662" lon="11.305205318734815"><ele>13.0</ele><time>2026-04-30T08:23:21.001Z</time></trkpt><trkpt lat="42.51558969588844" lon="11.305348476311575"><ele>13.0</ele><time>2026-04-30T08:23:22.001Z</time></trkpt><trkpt lat="42.5154872003958" lon="11.305491876650995"><ele>13.0</ele><time>2026-04-30T08:23:23.001Z</time></trkpt><trkpt lat="42.515376632792915" lon="11.3056371136303"><ele>11.666666666666666</ele><time>2026-04-30T08:23:24.001Z</time></trkpt><trkpt lat="42.51527056444749" lon="11.305784341279903"><ele>10.333333333333332</ele><time>2026-04-30T08:23:25.001Z</time></trkpt><trkpt lat="42.51516442296706" lon="11.305929285260504"><ele>9.0</ele><time>2026-04-30T08:23:26.001Z</time></trkpt><trkpt lat="42.515056823009246" lon="11.306077784908659"><ele>9.0</ele><time>2026-04-30T08:23:27.001Z</time></trkpt><trkpt lat="42.51495000900372" lon="11.306225570566951"><ele>9.0</ele><time>2026-04-30T08:23:28.001Z</time></trkpt><trkpt lat="42.51484242414242" lon="11.306376018696918"><ele>9.0</ele><time>2026-04-30T08:23:29.001Z</time></trkpt><trkpt lat="42.514724931410115" lon="11.306507571519106"><ele>9.0</ele><time>2026-04-30T08:23:30.001Z</time></trkpt><trkpt lat="42.51462119024813" lon="11.306654515608672"><ele>9.0</ele><time>2026-04-30T08:23:31.001Z</time></trkpt><trkpt lat="42.51451955830768" lon="11.306801413051495"><ele>9.0</ele><time>2026-04-30T08:23:32.001Z</time></trkpt><trkpt lat="42.51442038585739" lon="11.306948840219128"><ele>9.0</ele><time>2026-04-30T08:23:33.001Z</time></trkpt><trkpt lat="42.51431781053605" lon="11.307101325973541"><ele>8.666666666666666</ele><time>2026-04-30T08:23:34.001Z</time></trkpt><trkpt lat="42.51422759859008" lon="11.307268597251705"><ele>8.333333333333332</ele><time>2026-04-30T08:23:35.001Z</time></trkpt><trkpt lat="42.514122891652775" lon="11.307424075183096"><ele>8.0</ele><time>2026-04-30T08:23:36.001Z</time></trkpt><trkpt lat="42.51400613461268" lon="11.30756709156392"><ele>8.0</ele><time>2026-04-30T08:23:37.001Z</time></trkpt><trkpt lat="42.51390405226268" lon="11.307730177164162"><ele>8.0</ele><time>2026-04-30T08:23:38.001Z</time></trkpt><trkpt lat="42.51379884375591" lon="11.307890645663413"><ele>8.0</ele><time>2026-04-30T08:23:39.001Z</time></trkpt><trkpt lat="42.51368972529438" lon="11.308046055429863"><ele>8.0</ele><time>2026-04-30T08:23:40.001Z</time></trkpt><trkpt lat="42.51357574243271" lon="11.308216018566943"><ele>8.0</ele><time>2026-04-30T08:23:41.001Z</time></trkpt><trkpt lat="42.51346088854142" lon="11.308393398352944"><ele>8.0</ele><time>2026-04-30T08:23:42.001Z</time></trkpt><trkpt lat="42.513348395460966" lon="11.308566974413615"><ele>8.0</ele><time>2026-04-30T08:23:43.001Z</time></trkpt><trkpt lat="42.513232838918" lon="11.308738240224242"><ele>8.0</ele><time>2026-04-30T08:23:44.001Z</time></trkpt><trkpt lat="42.513123888517" lon="11.308898805511664"><ele>8.0</ele><time>2026-04-30T08:23:45.001Z</time></trkpt><trkpt lat="42.513017051520094" lon="11.309058645766578"><ele>8.333333333333332</ele><time>2026-04-30T08:23:46.001Z</time></trkpt><trkpt lat="42.51290858547411" lon="11.309221554702633"><ele>8.666666666666666</ele><time>2026-04-30T08:23:47.001Z</time></trkpt><trkpt lat="42.512807405612605" lon="11.309375071908566"><ele>9.0</ele><time>2026-04-30T08:23:48.001Z</time></trkpt><trkpt lat="42.51270706632332" lon="11.30953064887316"><ele>8.5</ele><time>2026-04-30T08:23:49.001Z</time></trkpt><trkpt lat="42.512596488701035" lon="11.309666073643616"><ele>8.0</ele><time>2026-04-30T08:23:50.001Z</time></trkpt><trkpt lat="42.512503839545836" lon="11.309809361416873"><ele>7.5</ele><time>2026-04-30T08:23:51.001Z</time></trkpt><trkpt lat="42.512428885440286" lon="11.309966399273794"><ele>7.0</ele><time>2026-04-30T08:23:52.001Z</time></trkpt><trkpt lat="42.512352847341454" lon="11.310117034641465"><ele>7.0</ele><time>2026-04-30T08:23:53.001Z</time></trkpt><trkpt lat="42.51229170970121" lon="11.31029128851512"><ele>7.0</ele><time>2026-04-30T08:23:54.001Z</time></trkpt><trkpt lat="42.512247546290205" lon="11.310492906229513"><ele>7.0</ele><time>2026-04-30T08:23:55.001Z</time></trkpt><trkpt lat="42.51222543322502" lon="11.310709389225906"><ele>7.0</ele><time>2026-04-30T08:23:56.001Z</time></trkpt><trkpt lat="42.512183539590474" lon="11.31091418929006"><ele>7.0</ele><time>2026-04-30T08:23:57.001Z</time></trkpt><trkpt lat="42.51216294469523" lon="11.31111636059162"><ele>7.0</ele><time>2026-04-30T08:23:58.001Z</time></trkpt><trkpt lat="42.512107881582814" lon="11.311315867798829"><ele>8.333333333333334</ele><time>2026-04-30T08:23:59.001Z</time></trkpt><trkpt lat="42.51206622633043" lon="11.31153394565768"><ele>9.666666666666666</ele><time>2026-04-30T08:24:00.001Z</time></trkpt><trkpt lat="42.51202717800129" lon="11.311748799828166"><ele>11.0</ele><time>2026-04-30T08:24:01.001Z</time></trkpt><trkpt lat="42.511990303543946" lon="11.311951691617944"><ele>11.0</ele><time>2026-04-30T08:24:02.001Z</time></trkpt><trkpt lat="42.511952201507434" lon="11.312150166888696"><ele>11.0</ele><time>2026-04-30T08:24:03.001Z</time></trkpt><trkpt lat="42.51191298090261" lon="11.312353612811433"><ele>11.0</ele><time>2026-04-30T08:24:04.001Z</time></trkpt><trkpt lat="42.51187700403033" lon="11.312556398082698"><ele>11.0</ele><time>2026-04-30T08:24:05.001Z</time></trkpt><trkpt lat="42.51184139832477" lon="11.312753929050919"><ele>11.0</ele><time>2026-04-30T08:24:06.001Z</time></trkpt><trkpt lat="42.51180862378436" lon="11.312955109588621"><ele>11.0</ele><time>2026-04-30T08:24:07.001Z</time></trkpt><trkpt lat="42.51177291685059" lon="11.313151905090177"><ele>10.75</ele><time>2026-04-30T08:24:08.001Z</time></trkpt><trkpt lat="42.51173744552571" lon="11.313338047709308"><ele>10.5</ele><time>2026-04-30T08:24:09.001Z</time></trkpt><trkpt lat="42.5117046053211" lon="11.313522432267478"><ele>10.25</ele><time>2026-04-30T08:24:10.001Z</time></trkpt><trkpt lat="42.511663486973845" lon="11.313702064880593"><ele>10.0</ele><time>2026-04-30T08:24:11.001Z</time></trkpt><trkpt lat="42.51161564273039" lon="11.313892717877884"><ele>10.333333333333334</ele><time>2026-04-30T08:24:12.001Z</time></trkpt><trkpt lat="42.511543686270066" lon="11.314066075709075"><ele>10.666666666666666</ele><time>2026-04-30T08:24:13.001Z</time></trkpt><trkpt lat="42.51148025093761" lon="11.31424028685967"><ele>11.0</ele><time>2026-04-30T08:24:14.001Z</time></trkpt><trkpt lat="42.51140828713884" lon="11.314433763407658"><ele>11.0</ele><time>2026-04-30T08:24:15.001Z</time></trkpt><trkpt lat="42.51133234058871" lon="11.314637948566482"><ele>11.0</ele><time>2026-04-30T08:24:16.001Z</time></trkpt><trkpt lat="42.511254362656885" lon="11.314847594740256"><ele>11.0</ele><time>2026-04-30T08:24:17.001Z</time></trkpt><trkpt lat="42.51117609313627" lon="11.315058024508405"><ele>11.0</ele><time>2026-04-30T08:24:18.001Z</time></trkpt><trkpt lat="42.51111925174486" lon="11.315259686604502"><ele>11.0</ele><time>2026-04-30T08:24:19.001Z</time></trkpt><trkpt lat="42.511034825932" lon="11.315437825821572"><ele>11.0</ele><time>2026-04-30T08:24:20.001Z</time></trkpt><trkpt lat="42.510966721294835" lon="11.315621837797678"><ele>10.75</ele><time>2026-04-30T08:24:21.001Z</time></trkpt><trkpt lat="42.510906426929026" lon="11.315791678719268"><ele>10.5</ele><time>2026-04-30T08:24:22.001Z</time></trkpt><trkpt lat="42.510863830219364" lon="11.315963544873759"><ele>10.25</ele><time>2026-04-30T08:24:23.001Z</time></trkpt><trkpt lat="42.51079145257225" lon="11.316112701843604"><ele>10.0</ele><time>2026-04-30T08:24:24.001Z</time></trkpt><trkpt lat="42.51072853682927" lon="11.316275610222812"><ele>10.25</ele><time>2026-04-30T08:24:25.001Z</time></trkpt><trkpt lat="42.51066082134926" lon="11.316434668000861"><ele>10.5</ele><time>2026-04-30T08:24:26.001Z</time></trkpt><trkpt lat="42.51058407629417" lon="11.316589080253364"><ele>10.75</ele><time>2026-04-30T08:24:27.001Z</time></trkpt><trkpt lat="42.51050178244246" lon="11.316740596975928"><ele>11.0</ele><time>2026-04-30T08:24:28.001Z</time></trkpt><trkpt lat="42.510404380305516" lon="11.316899299036281"><ele>11.0</ele><time>2026-04-30T08:24:29.001Z</time></trkpt><trkpt lat="42.510305168366436" lon="11.317060484774327"><ele>11.0</ele><time>2026-04-30T08:24:30.001Z</time></trkpt><trkpt lat="42.51020983366343" lon="11.317215033132921"><ele>11.0</ele><time>2026-04-30T08:24:31.001Z</time></trkpt><trkpt lat="42.510109072597565" lon="11.317380023317737"><ele>10.333333333333332</ele><time>2026-04-30T08:24:32.001Z</time></trkpt><trkpt lat="42.510011008736655" lon="11.317540596558876"><ele>9.666666666666666</ele><time>2026-04-30T08:24:33.001Z</time></trkpt><trkpt lat="42.5099098733056" lon="11.317705007853995"><ele>9.0</ele><time>2026-04-30T08:24:34.001Z</time></trkpt><trkpt lat="42.50981359114736" lon="11.31786265656059"><ele>9.0</ele><time>2026-04-30T08:24:35.001Z</time></trkpt><trkpt lat="42.50971114370316" lon="11.318031350178675"><ele>9.0</ele><time>2026-04-30T08:24:36.001Z</time></trkpt><trkpt lat="42.50960712575312" lon="11.318204091845583"><ele>9.0</ele><time>2026-04-30T08:24:37.001Z</time></trkpt><trkpt lat="42.50950705613018" lon="11.318367771642745"><ele>9.333333333333334</ele><time>2026-04-30T08:24:38.001Z</time></trkpt><trkpt lat="42.509399867036315" lon="11.318527600081568"><ele>9.666666666666668</ele><time>2026-04-30T08:24:39.001Z</time></trkpt><trkpt lat="42.509274999226555" lon="11.31868688017114"><ele>10.0</ele><time>2026-04-30T08:24:40.001Z</time></trkpt><trkpt lat="42.50913632077764" lon="11.318836746328573"><ele>10.0</ele><time>2026-04-30T08:24:41.001Z</time></trkpt><trkpt lat="42.50899610129073" lon="11.318981660292144"><ele>10.0</ele><time>2026-04-30T08:24:42.001Z</time></trkpt><trkpt lat="42.508862443030345" lon="11.319118564789514"><ele>10.0</ele><time>2026-04-30T08:24:43.001Z</time></trkpt><trkpt lat="42.50873086757723" lon="11.319253335918026"><ele>10.0</ele><time>2026-04-30T08:24:44.001Z</time></trkpt><trkpt lat="42.5086026845696" lon="11.31938429486679"><ele>10.0</ele><time>2026-04-30T08:24:45.001Z</time></trkpt><trkpt lat="42.50848078883789" lon="11.319508569368738"><ele>10.0</ele><time>2026-04-30T08:24:46.001Z</time></trkpt><trkpt lat="42.5083613035416" lon="11.319630386385429"><ele>10.25</ele><time>2026-04-30T08:24:47.001Z</time></trkpt><trkpt lat="42.50825876368509" lon="11.319734927240415"><ele>10.5</ele><time>2026-04-30T08:24:48.001Z</time></trkpt><trkpt lat="42.508153753233906" lon="11.319841986967171"><ele>10.75</ele><time>2026-04-30T08:24:49.001Z</time></trkpt><trkpt lat="42.50804779705851" lon="11.31995001041443"><ele>11.0</ele><time>2026-04-30T08:24:50.001Z</time></trkpt><trkpt lat="42.50795117144125" lon="11.32007758005436"><ele>11.0</ele><time>2026-04-30T08:24:51.001Z</time></trkpt><trkpt lat="42.50783824971135" lon="11.320166277119235"><ele>11.0</ele><time>2026-04-30T08:24:52.001Z</time></trkpt><trkpt lat="42.507726994826506" lon="11.320279533930114"><ele>11.0</ele><time>2026-04-30T08:24:53.001Z</time></trkpt><trkpt lat="42.50762537008177" lon="11.32038306559263"><ele>11.0</ele><time>2026-04-30T08:24:54.001Z</time></trkpt><trkpt lat="42.507516662221015" lon="11.320490406737788"><ele>11.25</ele><time>2026-04-30T08:24:55.002Z</time></trkpt><trkpt lat="42.50740801150871" lon="11.320596436800603"><ele>11.5</ele><time>2026-04-30T08:24:56.002Z</time></trkpt><trkpt lat="42.50730487172624" lon="11.320715309217261"><ele>11.75</ele><time>2026-04-30T08:24:57.002Z</time></trkpt><trkpt lat="42.50722951300952" lon="11.320869207364044"><ele>12.0</ele><time>2026-04-30T08:24:58.002Z</time></trkpt><trkpt lat="42.50715304433292" lon="11.321011278000382"><ele>12.0</ele><time>2026-04-30T08:24:59.002Z</time></trkpt><trkpt lat="42.50707237053883" lon="11.32115639479288"><ele>12.0</ele><time>2026-04-30T08:25:00.002Z</time></trkpt><trkpt lat="42.506998015883624" lon="11.32132356136406"><ele>12.0</ele><time>2026-04-30T08:25:01.002Z</time></trkpt><trkpt lat="42.506926496014444" lon="11.32149733434404"><ele>12.0</ele><time>2026-04-30T08:25:02.002Z</time></trkpt><trkpt lat="42.50684857458212" lon="11.321663745108253"><ele>11.75</ele><time>2026-04-30T08:25:03.002Z</time></trkpt><trkpt lat="42.5067447671783" lon="11.321798301187034"><ele>11.5</ele><time>2026-04-30T08:25:04.002Z</time></trkpt><trkpt lat="42.506641493290275" lon="11.321943149472894"><ele>11.25</ele><time>2026-04-30T08:25:05.002Z</time></trkpt><trkpt lat="42.50653953454195" lon="11.322087209103115"><ele>11.0</ele><time>2026-04-30T08:25:06.002Z</time></trkpt><trkpt lat="42.50644485185498" lon="11.322240401668461"><ele>10.666666666666666</ele><time>2026-04-30T08:25:07.002Z</time></trkpt><trkpt lat="42.506335626822576" lon="11.32237465300816"><ele>10.333333333333334</ele><time>2026-04-30T08:25:08.002Z</time></trkpt><trkpt lat="42.506215428576546" lon="11.322509494833232"><ele>10.0</ele><time>2026-04-30T08:25:09.002Z</time></trkpt><trkpt lat="42.506086124189515" lon="11.322648294288907"><ele>10.0</ele><time>2026-04-30T08:25:10.002Z</time></trkpt><trkpt lat="42.50595310221847" lon="11.32278063193828"><ele>10.0</ele><time>2026-04-30T08:25:11.002Z</time></trkpt><trkpt lat="42.50580991758645" lon="11.322885788712412"><ele>10.0</ele><time>2026-04-30T08:25:12.002Z</time></trkpt><trkpt lat="42.50568458960381" lon="11.322998650758445"><ele>10.0</ele><time>2026-04-30T08:25:13.002Z</time></trkpt><trkpt lat="42.50557165230278" lon="11.323111644245781"><ele>10.0</ele><time>2026-04-30T08:25:14.002Z</time></trkpt><trkpt lat="42.50546040288491" lon="11.32323572646094"><ele>10.0</ele><time>2026-04-30T08:25:15.002Z</time></trkpt><trkpt lat="42.50534844482469" lon="11.32336101036063"><ele>10.0</ele><time>2026-04-30T08:25:16.002Z</time></trkpt><trkpt lat="42.50522755400629" lon="11.323482184288252"><ele>10.5</ele><time>2026-04-30T08:25:17.002Z</time></trkpt><trkpt lat="42.505100105579416" lon="11.32360440338487"><ele>11.0</ele><time>2026-04-30T08:25:18.002Z</time></trkpt><trkpt lat="42.50498387232251" lon="11.323711803155577"><ele>11.5</ele><time>2026-04-30T08:25:19.002Z</time></trkpt><trkpt lat="42.50489578691729" lon="11.323789803034687"><ele>12.0</ele><time>2026-04-30T08:25:20.002Z</time></trkpt><trkpt lat="42.504798731525405" lon="11.323843501772126"><ele>12.0</ele><time>2026-04-30T08:25:21.002Z</time></trkpt><trkpt lat="42.504674694661745" lon="11.32386292477275"><ele>12.0</ele><time>2026-04-30T08:25:22.002Z</time></trkpt><trkpt lat="42.50454234470295" lon="11.323878754624362"><ele>12.0</ele><time>2026-04-30T08:25:23.002Z</time></trkpt><trkpt lat="42.50440357611838" lon="11.323885275883336"><ele>12.0</ele><time>2026-04-30T08:25:24.002Z</time></trkpt><trkpt lat="42.50427019034292" lon="11.323890988874313"><ele>12.0</ele><time>2026-04-30T08:25:25.002Z</time></trkpt><trkpt lat="42.50413832285743" lon="11.323894720970358"><ele>12.0</ele><time>2026-04-30T08:25:26.002Z</time></trkpt><trkpt lat="42.50400765600555" lon="11.32390485522483"><ele>12.0</ele><time>2026-04-30T08:25:27.002Z</time></trkpt><trkpt lat="42.50390067184867" lon="11.323940189735387"><ele>12.0</ele><time>2026-04-30T08:25:28.002Z</time></trkpt><trkpt lat="42.50381136408651" lon="11.323972239317781"><ele>11.833333333333334</ele><time>2026-04-30T08:25:29.002Z</time></trkpt><trkpt lat="42.503729922034" lon="11.324027720314392"><ele>11.666666666666666</ele><time>2026-04-30T08:25:30.002Z</time></trkpt><trkpt lat="42.50365349792538" lon="11.324110640392261"><ele>11.5</ele><time>2026-04-30T08:25:31.002Z</time></trkpt><trkpt lat="42.50358222706699" lon="11.324197357548574"><ele>11.333333333333332</ele><time>2026-04-30T08:25:32.002Z</time></trkpt><trkpt lat="42.50351004625971" lon="11.32424212211603"><ele>11.166666666666666</ele><time>2026-04-30T08:25:33.002Z</time></trkpt><trkpt lat="42.5034536435917" lon="11.32428065340253"><ele>11.0</ele><time>2026-04-30T08:25:34.002Z</time></trkpt><trkpt lat="42.50337852254548" lon="11.324284545376434"><ele>11.0</ele><time>2026-04-30T08:25:36.002Z</time></trkpt><trkpt lat="42.50330522072144" lon="11.324204506065712"><ele>11.0</ele><time>2026-04-30T08:25:39.002Z</time></trkpt><trkpt lat="42.503254129091395" lon="11.32415231978785"><ele>11.0</ele><time>2026-04-30T08:25:40.002Z</time></trkpt><trkpt lat="42.503152724741305" lon="11.324066918039875"><ele>11.0</ele><time>2026-04-30T08:25:42.002Z</time></trkpt><trkpt lat="42.50310088428371" lon="11.324188027558506"><ele>11.0</ele><time>2026-04-30T08:25:44.002Z</time></trkpt><trkpt lat="42.50309467210141" lon="11.324287335741445"><ele>11.0</ele><time>2026-04-30T08:25:45.002Z</time></trkpt><trkpt lat="42.50306101323208" lon="11.324386522417724"><ele>11.0</ele><time>2026-04-30T08:25:46.002Z</time></trkpt><trkpt lat="42.503015634486644" lon="11.324501468679538"><ele>11.0</ele><time>2026-04-30T08:25:47.002Z</time></trkpt><trkpt lat="42.50295129079228" lon="11.32458878041845"><ele>11.0</ele><time>2026-04-30T08:25:48.002Z</time></trkpt><trkpt lat="42.502865965693644" lon="11.324668777556248"><ele>11.0</ele><time>2026-04-30T08:25:49.002Z</time></trkpt><trkpt lat="42.50276598180921" lon="11.324767022635903"><ele>11.0</ele><time>2026-04-30T08:25:50.002Z</time></trkpt><trkpt lat="42.50264683763533" lon="11.324869791495061"><ele>11.0</ele><time>2026-04-30T08:25:51.002Z</time></trkpt><trkpt lat="42.5025308657057" lon="11.324974846975234"><ele>11.0</ele><time>2026-04-30T08:25:52.002Z</time></trkpt><trkpt lat="42.50241523408269" lon="11.325090570242702"><ele>11.0</ele><time>2026-04-30T08:25:53.002Z</time></trkpt><trkpt lat="42.502295511001336" lon="11.32517443763432"><ele>11.0</ele><time>2026-04-30T08:25:54.002Z</time></trkpt><trkpt lat="42.50219261907009" lon="11.325292896858475"><ele>11.0</ele><time>2026-04-30T08:25:55.002Z</time></trkpt><trkpt lat="42.50211058443928" lon="11.325425108183488"><ele>11.0</ele><time>2026-04-30T08:25:56.002Z</time></trkpt><trkpt lat="42.5020361707719" lon="11.325553332909866"><ele>11.0</ele><time>2026-04-30T08:25:57.002Z</time></trkpt><trkpt lat="42.5019590784336" lon="11.325691971154745"><ele>11.5</ele><time>2026-04-30T08:25:58.002Z</time></trkpt><trkpt lat="42.501857600637344" lon="11.325816547365372"><ele>12.0</ele><time>2026-04-30T08:25:59.002Z</time></trkpt><trkpt lat="42.501759943101696" lon="11.325940408315422"><ele>12.5</ele><time>2026-04-30T08:26:00.002Z</time></trkpt><trkpt lat="42.5016704067513" lon="11.326081089883344"><ele>13.0</ele><time>2026-04-30T08:26:01.002Z</time></trkpt><trkpt lat="42.501582920630405" lon="11.326226760506858"><ele>13.0</ele><time>2026-04-30T08:26:02.002Z</time></trkpt><trkpt lat="42.501496871487475" lon="11.326369405625826"><ele>13.0</ele><time>2026-04-30T08:26:03.002Z</time></trkpt><trkpt lat="42.501420454231216" lon="11.326495309385848"><ele>13.0</ele><time>2026-04-30T08:26:04.002Z</time></trkpt><trkpt lat="42.501353669452726" lon="11.326595178541364"><ele>13.0</ele><time>2026-04-30T08:26:05.002Z</time></trkpt><trkpt lat="42.50130026631005" lon="11.326672605507538"><ele>13.0</ele><time>2026-04-30T08:26:06.002Z</time></trkpt><trkpt lat="42.50125120982117" lon="11.326727219384892"><ele>12.999999999999998</ele><time>2026-04-30T08:26:07.002Z</time></trkpt><trkpt lat="42.50118784543881" lon="11.326769958446686"><ele>13.0</ele><time>2026-04-30T08:26:08.002Z</time></trkpt><trkpt lat="42.50110784633665" lon="11.326761034417228"><ele>13.0</ele><time>2026-04-30T08:26:09.002Z</time></trkpt><trkpt lat="42.5010299272151" lon="11.326794724267385"><ele>13.0</ele><time>2026-04-30T08:26:10.002Z</time></trkpt><trkpt lat="42.500935583564726" lon="11.326810325729111"><ele>12.999999999999998</ele><time>2026-04-30T08:26:11.002Z</time></trkpt><trkpt lat="42.50082816337727" lon="11.326836634356672"><ele>13.0</ele><time>2026-04-30T08:26:12.002Z</time></trkpt><trkpt lat="42.50071833803201" lon="11.326839336842223"><ele>13.0</ele><time>2026-04-30T08:26:13.002Z</time></trkpt><trkpt lat="42.50058668569249" lon="11.32687485615215"><ele>13.0</ele><time>2026-04-30T08:26:14.002Z</time></trkpt><trkpt lat="42.50044825104929" lon="11.326915688944792"><ele>13.0</ele><time>2026-04-30T08:26:15.002Z</time></trkpt><trkpt lat="42.500317511370085" lon="11.326956215336898"><ele>13.0</ele><time>2026-04-30T08:26:16.002Z</time></trkpt><trkpt lat="42.50018951837143" lon="11.326991095906244"><ele>12.600000000000001</ele><time>2026-04-30T08:26:17.002Z</time></trkpt><trkpt lat="42.50007529073081" lon="11.327021955856221"><ele>12.200000000000001</ele><time>2026-04-30T08:26:18.002Z</time></trkpt><trkpt lat="42.4999663078219" lon="11.327055321085757"><ele>11.8</ele><time>2026-04-30T08:26:19.002Z</time></trkpt><trkpt lat="42.49986583158184" lon="11.327086091816271"><ele>11.4</ele><time>2026-04-30T08:26:20.002Z</time></trkpt><trkpt lat="42.49976370434663" lon="11.327107546379507"><ele>11.0</ele><time>2026-04-30T08:26:21.002Z</time></trkpt><trkpt lat="42.49966299500252" lon="11.32712310076066"><ele>12.25</ele><time>2026-04-30T08:26:22.002Z</time></trkpt><trkpt lat="42.499547986789565" lon="11.327150176490722"><ele>13.5</ele><time>2026-04-30T08:26:23.002Z</time></trkpt><trkpt lat="42.49942171276758" lon="11.327183762736212"><ele>14.75</ele><time>2026-04-30T08:26:24.002Z</time></trkpt><trkpt lat="42.499309354156765" lon="11.327214722368442"><ele>16.0</ele><time>2026-04-30T08:26:25.002Z</time></trkpt><trkpt lat="42.49919710167027" lon="11.327233184156718"><ele>16.0</ele><time>2026-04-30T08:26:26.002Z</time></trkpt><trkpt lat="42.499087420759906" lon="11.327244191934794"><ele>16.0</ele><time>2026-04-30T08:26:27.002Z</time></trkpt><trkpt lat="42.49896908720328" lon="11.327272886977822"><ele>16.0</ele><time>2026-04-30T08:26:28.002Z</time></trkpt><trkpt lat="42.498838799286936" lon="11.327305455578406"><ele>16.0</ele><time>2026-04-30T08:26:29.002Z</time></trkpt><trkpt lat="42.49870645682291" lon="11.32733783383618"><ele>16.25</ele><time>2026-04-30T08:26:30.002Z</time></trkpt><trkpt lat="42.49857802068" lon="11.32737170733613"><ele>16.5</ele><time>2026-04-30T08:26:31.002Z</time></trkpt><trkpt lat="42.498448245203825" lon="11.3274080104445"><ele>16.75</ele><time>2026-04-30T08:26:32.003Z</time></trkpt><trkpt lat="42.498330771953675" lon="11.32744577770231"><ele>17.0</ele><time>2026-04-30T08:26:33.003Z</time></trkpt><trkpt lat="42.49823885476101" lon="11.327471960244324"><ele>17.0</ele><time>2026-04-30T08:26:34.003Z</time></trkpt><trkpt lat="42.49816908064378" lon="11.32749707347991"><ele>17.0</ele><time>2026-04-30T08:26:35.003Z</time></trkpt><trkpt lat="42.498097932982674" lon="11.327546225400086"><ele>17.0</ele><time>2026-04-30T08:26:36.003Z</time></trkpt><trkpt lat="42.49801337095709" lon="11.327552913509846"><ele>17.0</ele><time>2026-04-30T08:26:37.003Z</time></trkpt><trkpt lat="42.49791783661533" lon="11.327577174625354"><ele>17.0</ele><time>2026-04-30T08:26:38.003Z</time></trkpt><trkpt lat="42.497805454593255" lon="11.327603053788131"><ele>17.0</ele><time>2026-04-30T08:26:39.003Z</time></trkpt><trkpt lat="42.49767219914964" lon="11.327639206232336"><ele>16.75</ele><time>2026-04-30T08:26:40.003Z</time></trkpt><trkpt lat="42.49754200873874" lon="11.327676788835937"><ele>16.5</ele><time>2026-04-30T08:26:41.003Z</time></trkpt><trkpt lat="42.49741628060934" lon="11.327708422450431"><ele>16.25</ele><time>2026-04-30T08:26:42.003Z</time></trkpt><trkpt lat="42.49728392403062" lon="11.327740472161679"><ele>16.0</ele><time>2026-04-30T08:26:43.003Z</time></trkpt><trkpt lat="42.49715368571824" lon="11.327775444303027"><ele>16.0</ele><time>2026-04-30T08:26:44.003Z</time></trkpt><trkpt lat="42.497030611156944" lon="11.327807732966646"><ele>16.0</ele><time>2026-04-30T08:26:45.003Z</time></trkpt><trkpt lat="42.49691566352849" lon="11.32784075250563"><ele>16.0</ele><time>2026-04-30T08:26:46.003Z</time></trkpt><trkpt lat="42.49681643770497" lon="11.327838925924718"><ele>16.0</ele><time>2026-04-30T08:26:47.003Z</time></trkpt><trkpt lat="42.4967361085001" lon="11.327856929151462"><ele>16.0</ele><time>2026-04-30T08:26:48.003Z</time></trkpt><trkpt lat="42.496663412992206" lon="11.327880725688834"><ele>16.0</ele><time>2026-04-30T08:26:49.003Z</time></trkpt><trkpt lat="42.49659586983155" lon="11.32790160740143"><ele>16.0</ele><time>2026-04-30T08:26:50.003Z</time></trkpt><trkpt lat="42.49650971464677" lon="11.327923437526026"><ele>16.0</ele><time>2026-04-30T08:26:51.003Z</time></trkpt><trkpt lat="42.496395883197295" lon="11.32794152766693"><ele>16.0</ele><time>2026-04-30T08:26:52.003Z</time></trkpt><trkpt lat="42.4962792772341" lon="11.327961315719415"><ele>16.0</ele><time>2026-04-30T08:26:53.003Z</time></trkpt><trkpt lat="42.49615353223534" lon="11.328001120474454"><ele>16.25</ele><time>2026-04-30T08:26:54.003Z</time></trkpt><trkpt lat="42.49602458775361" lon="11.328043988952704"><ele>16.5</ele><time>2026-04-30T08:26:55.003Z</time></trkpt><trkpt lat="42.49591310319224" lon="11.328075078407977"><ele>16.75</ele><time>2026-04-30T08:26:56.003Z</time></trkpt><trkpt lat="42.49580539235848" lon="11.328108675108659"><ele>17.0</ele><time>2026-04-30T08:26:57.003Z</time></trkpt><trkpt lat="42.49571143401443" lon="11.328133330374806"><ele>17.0</ele><time>2026-04-30T08:26:58.003Z</time></trkpt><trkpt lat="42.49564281693143" lon="11.328155472250122"><ele>17.0</ele><time>2026-04-30T08:26:59.003Z</time></trkpt><trkpt lat="42.49556884771018" lon="11.328174551636646"><ele>17.0</ele><time>2026-04-30T08:27:01.003Z</time></trkpt><trkpt lat="42.49547220111992" lon="11.328201815187159"><ele>17.0</ele><time>2026-04-30T08:27:03.003Z</time></trkpt><trkpt lat="42.49537103105825" lon="11.328233927065451"><ele>17.0</ele><time>2026-04-30T08:27:04.003Z</time></trkpt><trkpt lat="42.49526684400088" lon="11.328264922641434"><ele>16.8</ele><time>2026-04-30T08:27:05.003Z</time></trkpt><trkpt lat="42.4951593873715" lon="11.328292237446536"><ele>16.6</ele><time>2026-04-30T08:27:06.003Z</time></trkpt><trkpt lat="42.495070689061514" lon="11.328321077080467"><ele>16.400000000000002</ele><time>2026-04-30T08:27:07.003Z</time></trkpt><trkpt lat="42.495004738443974" lon="11.328346796620291"><ele>16.2</ele><time>2026-04-30T08:27:08.003Z</time></trkpt><trkpt lat="42.494869921801694" lon="11.32837898643008"><ele>16.0</ele><time>2026-04-30T08:27:10.003Z</time></trkpt><trkpt lat="42.49478358342462" lon="11.328380448322209"><ele>16.0</ele><time>2026-04-30T08:27:11.003Z</time></trkpt><trkpt lat="42.494690352382136" lon="11.32840410559018"><ele>16.0</ele><time>2026-04-30T08:27:12.003Z</time></trkpt><trkpt lat="42.49457917467778" lon="11.328437635488152"><ele>16.0</ele><time>2026-04-30T08:27:13.003Z</time></trkpt><trkpt lat="42.49444787417131" lon="11.328468345748577"><ele>16.0</ele><time>2026-04-30T08:27:14.003Z</time></trkpt><trkpt lat="42.49430946659234" lon="11.328503557935658"><ele>17.25</ele><time>2026-04-30T08:27:15.003Z</time></trkpt><trkpt lat="42.494175603907834" lon="11.328547008180587"><ele>18.5</ele><time>2026-04-30T08:27:16.003Z</time></trkpt><trkpt lat="42.49404568267434" lon="11.32859581902318"><ele>19.75</ele><time>2026-04-30T08:27:17.003Z</time></trkpt><trkpt lat="42.49391585130404" lon="11.328664404502382"><ele>21.0</ele><time>2026-04-30T08:27:18.003Z</time></trkpt><trkpt lat="42.493798122172095" lon="11.328746992427147"><ele>21.25</ele><time>2026-04-30T08:27:19.003Z</time></trkpt><trkpt lat="42.493680568308534" lon="11.328781114444253"><ele>21.5</ele><time>2026-04-30T08:27:20.003Z</time></trkpt><trkpt lat="42.493555329998124" lon="11.328834736429144"><ele>21.75</ele><time>2026-04-30T08:27:21.003Z</time></trkpt><trkpt lat="42.493410834496224" lon="11.328896603575801"><ele>22.0</ele><time>2026-04-30T08:27:22.003Z</time></trkpt><trkpt lat="42.493257310038146" lon="11.328966021140353"><ele>22.0</ele><time>2026-04-30T08:27:23.003Z</time></trkpt><trkpt lat="42.49310829590798" lon="11.329054522663473"><ele>22.0</ele><time>2026-04-30T08:27:24.003Z</time></trkpt><trkpt lat="42.49295487066725" lon="11.329124366190712"><ele>22.0</ele><time>2026-04-30T08:27:25.003Z</time></trkpt><trkpt lat="42.49280359381988" lon="11.32918729001943"><ele>22.0</ele><time>2026-04-30T08:27:26.003Z</time></trkpt><trkpt lat="42.49266582787472" lon="11.329251347296486"><ele>22.0</ele><time>2026-04-30T08:27:27.003Z</time></trkpt><trkpt lat="42.49253413130187" lon="11.329313961650959"><ele>22.0</ele><time>2026-04-30T08:27:28.003Z</time></trkpt><trkpt lat="42.492416374050144" lon="11.329360914974373"><ele>22.0</ele><time>2026-04-30T08:27:29.003Z</time></trkpt><trkpt lat="42.4922910532148" lon="11.329398991949533"><ele>22.0</ele><time>2026-04-30T08:27:30.003Z</time></trkpt><trkpt lat="42.49216046873422" lon="11.329437305191167"><ele>22.0</ele><time>2026-04-30T08:27:31.003Z</time></trkpt><trkpt lat="42.492035962424" lon="11.329491585055505"><ele>22.0</ele><time>2026-04-30T08:27:32.003Z</time></trkpt><trkpt lat="42.49191184185445" lon="11.329568415434506"><ele>22.0</ele><time>2026-04-30T08:27:33.003Z</time></trkpt><trkpt lat="42.49177807180827" lon="11.329655187451877"><ele>22.25</ele><time>2026-04-30T08:27:34.003Z</time></trkpt><trkpt lat="42.49164395322012" lon="11.329728462471738"><ele>22.5</ele><time>2026-04-30T08:27:35.003Z</time></trkpt><trkpt lat="42.491505919571125" lon="11.329798122374097"><ele>22.75</ele><time>2026-04-30T08:27:36.003Z</time></trkpt><trkpt lat="42.49136582928954" lon="11.32986707191183"><ele>23.0</ele><time>2026-04-30T08:27:37.003Z</time></trkpt><trkpt lat="42.491224258561175" lon="11.329938230107583"><ele>23.0</ele><time>2026-04-30T08:27:38.003Z</time></trkpt><trkpt lat="42.491085474140554" lon="11.330010232703893"><ele>23.0</ele><time>2026-04-30T08:27:39.003Z</time></trkpt><trkpt lat="42.490947200105225" lon="11.330057055042872"><ele>23.0</ele><time>2026-04-30T08:27:40.003Z</time></trkpt><trkpt lat="42.490842339509626" lon="11.330129194249725"><ele>23.0</ele><time>2026-04-30T08:27:41.003Z</time></trkpt><trkpt lat="42.49072390689618" lon="11.330161971793942"><ele>23.0</ele><time>2026-04-30T08:27:42.003Z</time></trkpt><trkpt lat="42.490615069839606" lon="11.330213110070233"><ele>23.0</ele><time>2026-04-30T08:27:43.003Z</time></trkpt><trkpt lat="42.49050428333187" lon="11.330265164324324"><ele>23.0</ele><time>2026-04-30T08:27:44.003Z</time></trkpt><trkpt lat="42.49039031917247" lon="11.330318412025953"><ele>23.0</ele><time>2026-04-30T08:27:45.003Z</time></trkpt><trkpt lat="42.49026938758426" lon="11.330372452683832"><ele>23.4</ele><time>2026-04-30T08:27:46.003Z</time></trkpt><trkpt lat="42.49014686972144" lon="11.330426765900564"><ele>23.799999999999997</ele><time>2026-04-30T08:27:47.003Z</time></trkpt><trkpt lat="42.490038591264124" lon="11.330474579857448"><ele>24.2</ele><time>2026-04-30T08:27:48.003Z</time></trkpt><trkpt lat="42.489945373015075" lon="11.330514837256718"><ele>24.6</ele><time>2026-04-30T08:27:49.003Z</time></trkpt><trkpt lat="42.48987891266363" lon="11.330543375719673"><ele>25.0</ele><time>2026-04-30T08:27:50.003Z</time></trkpt><trkpt lat="42.48979714001046" lon="11.330578489377078"><ele>25.000000000000004</ele><time>2026-04-30T08:27:52.003Z</time></trkpt><trkpt lat="42.489734674008815" lon="11.330605312632963"><ele>25.0</ele><time>2026-04-30T08:27:54.003Z</time></trkpt><trkpt lat="42.48962567135065" lon="11.330652119001686"><ele>25.0</ele><time>2026-04-30T08:27:56.003Z</time></trkpt><trkpt lat="42.48955548971141" lon="11.330682255411768"><ele>25.0</ele><time>2026-04-30T08:27:57.003Z</time></trkpt><trkpt lat="42.489471731807605" lon="11.330719872495562"><ele>25.000000000000004</ele><time>2026-04-30T08:27:58.003Z</time></trkpt><trkpt lat="42.4893848626022" lon="11.330759962017513"><ele>25.0</ele><time>2026-04-30T08:27:59.003Z</time></trkpt><trkpt lat="42.48928893591203" lon="11.33080423145829"><ele>25.0</ele><time>2026-04-30T08:28:00.003Z</time></trkpt><trkpt lat="42.489228912038044" lon="11.330832895492476"><ele>25.0</ele><time>2026-04-30T08:28:01.003Z</time></trkpt><trkpt lat="42.48947640842929" lon="11.331956053313808"><ele>25.0</ele><time>2026-04-30T08:28:03.003Z</time></trkpt><trkpt lat="42.489549819715734" lon="11.332245272322043"><ele>25.0</ele><time>2026-04-30T08:28:04.003Z</time></trkpt><trkpt lat="42.48959052497607" lon="11.332514805529005"><ele>25.0</ele><time>2026-04-30T08:28:05.003Z</time></trkpt><trkpt lat="42.48967190319165" lon="11.33282826984666"><ele>23.5</ele><time>2026-04-30T08:28:06.003Z</time></trkpt><trkpt lat="42.48974491417108" lon="11.3331363430823"><ele>22.0</ele><time>2026-04-30T08:28:07.003Z</time></trkpt><trkpt lat="42.48981559597883" lon="11.333449853428144"><ele>22.0</ele><time>2026-04-30T08:28:08.004Z</time></trkpt><trkpt lat="42.48989132760498" lon="11.333756370234168"><ele>22.0</ele><time>2026-04-30T08:28:09.004Z</time></trkpt><trkpt lat="42.48996429660166" lon="11.334056668680283"><ele>21.5</ele><time>2026-04-30T08:28:10.004Z</time></trkpt><trkpt lat="42.49005100634118" lon="11.334362899405575"><ele>21.0</ele><time>2026-04-30T08:28:11.004Z</time></trkpt><trkpt lat="42.49012915751389" lon="11.334645089171303"><ele>20.0</ele><time>2026-04-30T08:28:12.004Z</time></trkpt><trkpt lat="42.4902282445214" lon="11.334937361319158"><ele>19.0</ele><time>2026-04-30T08:28:13.004Z</time></trkpt><trkpt lat="42.49033539980927" lon="11.335213739396686"><ele>19.0</ele><time>2026-04-30T08:28:14.004Z</time></trkpt><trkpt lat="42.4904447730296" lon="11.335493066382677"><ele>19.0</ele><time>2026-04-30T08:28:15.004Z</time></trkpt><trkpt lat="42.490534385350074" lon="11.33576109799855"><ele>19.0</ele><time>2026-04-30T08:28:16.004Z</time></trkpt><trkpt lat="42.49060301287701" lon="11.33600777549299"><ele>19.0</ele><time>2026-04-30T08:28:17.004Z</time></trkpt><trkpt lat="42.490660007532426" lon="11.336250787790096"><ele>19.0</ele><time>2026-04-30T08:28:18.004Z</time></trkpt><trkpt lat="42.490714011694" lon="11.336489833655689"><ele>19.0</ele><time>2026-04-30T08:28:19.004Z</time></trkpt><trkpt lat="42.490757715369135" lon="11.33672356865998"><ele>19.0</ele><time>2026-04-30T08:28:20.004Z</time></trkpt><trkpt lat="42.49079937863043" lon="11.336973464396493"><ele>19.0</ele><time>2026-04-30T08:28:21.004Z</time></trkpt><trkpt lat="42.49083937985065" lon="11.33724209984379"><ele>19.666666666666664</ele><time>2026-04-30T08:28:22.004Z</time></trkpt><trkpt lat="42.49088405870535" lon="11.337509786251951"><ele>20.333333333333332</ele><time>2026-04-30T08:28:23.004Z</time></trkpt><trkpt lat="42.490921996960324" lon="11.337758722994714"><ele>21.0</ele><time>2026-04-30T08:28:24.004Z</time></trkpt><trkpt lat="42.49095984305458" lon="11.33798697843914"><ele>21.0</ele><time>2026-04-30T08:28:25.004Z</time></trkpt><trkpt lat="42.490993916475865" lon="11.33820363139267"><ele>21.0</ele><time>2026-04-30T08:28:26.004Z</time></trkpt><trkpt lat="42.49102967786665" lon="11.338431508772464"><ele>21.0</ele><time>2026-04-30T08:28:27.004Z</time></trkpt><trkpt lat="42.49106073446641" lon="11.338669394404578"><ele>20.5</ele><time>2026-04-30T08:28:28.004Z</time></trkpt><trkpt lat="42.49109421060754" lon="11.338889291084898"><ele>20.0</ele><time>2026-04-30T08:28:29.004Z</time></trkpt><trkpt lat="42.49112079583121" lon="11.339071441842135"><ele>19.5</ele><time>2026-04-30T08:28:30.004Z</time></trkpt><trkpt lat="42.491136812962765" lon="11.339242891183426"><ele>19.0</ele><time>2026-04-30T08:28:31.004Z</time></trkpt><trkpt lat="42.49114316596073" lon="11.339414718765875"><ele>19.0</ele><time>2026-04-30T08:28:32.004Z</time></trkpt><trkpt lat="42.49115095611435" lon="11.33956758585545"><ele>19.0</ele><time>2026-04-30T08:28:33.004Z</time></trkpt><trkpt lat="42.49115552342679" lon="11.339714831610056"><ele>19.0</ele><time>2026-04-30T08:28:34.004Z</time></trkpt><trkpt lat="42.49115474247107" lon="11.339853602395245"><ele>19.0</ele><time>2026-04-30T08:28:35.004Z</time></trkpt><trkpt lat="42.4911330877522" lon="11.33999350718481"><ele>19.0</ele><time>2026-04-30T08:28:36.004Z</time></trkpt><trkpt lat="42.491092155796" lon="11.340111716175535"><ele>18.75</ele><time>2026-04-30T08:28:37.004Z</time></trkpt><trkpt lat="42.491030277539615" lon="11.340194195208232"><ele>18.5</ele><time>2026-04-30T08:28:38.004Z</time></trkpt><trkpt lat="42.49094914767574" lon="11.340273887312062"><ele>18.25</ele><time>2026-04-30T08:28:39.004Z</time></trkpt><trkpt lat="42.49085592010295" lon="11.340367523211485"><ele>18.0</ele><time>2026-04-30T08:28:40.004Z</time></trkpt><trkpt lat="42.490733004202895" lon="11.340506199156067"><ele>18.333333333333332</ele><time>2026-04-30T08:28:41.004Z</time></trkpt><trkpt lat="42.490603215552255" lon="11.340660043339946"><ele>18.666666666666664</ele><time>2026-04-30T08:28:42.004Z</time></trkpt><trkpt lat="42.49046553004018" lon="11.340829341147716"><ele>19.0</ele><time>2026-04-30T08:28:43.004Z</time></trkpt><trkpt lat="42.490353228123794" lon="11.340966137534334"><ele>19.0</ele><time>2026-04-30T08:28:44.004Z</time></trkpt><trkpt lat="42.490261575617595" lon="11.341076419717965"><ele>19.0</ele><time>2026-04-30T08:28:45.004Z</time></trkpt><trkpt lat="42.490188662434264" lon="11.341168802696057"><ele>19.0</ele><time>2026-04-30T08:28:46.004Z</time></trkpt><trkpt lat="42.490109827959394" lon="11.341240340569593"><ele>19.0</ele><time>2026-04-30T08:28:47.004Z</time></trkpt><trkpt lat="42.49002379295122" lon="11.341279955467092"><ele>19.0</ele><time>2026-04-30T08:28:48.004Z</time></trkpt><trkpt lat="42.48991084813414" lon="11.34133694733599"><ele>19.333333333333332</ele><time>2026-04-30T08:28:49.004Z</time></trkpt><trkpt lat="42.489788203079804" lon="11.341430576235425"><ele>19.666666666666668</ele><time>2026-04-30T08:28:50.004Z</time></trkpt><trkpt lat="42.48966002892696" lon="11.34157278608848"><ele>20.0</ele><time>2026-04-30T08:28:51.004Z</time></trkpt><trkpt lat="42.489540332448655" lon="11.341730148942567"><ele>20.666666666666668</ele><time>2026-04-30T08:28:52.004Z</time></trkpt><trkpt lat="42.48942279145818" lon="11.341895502984585"><ele>21.333333333333332</ele><time>2026-04-30T08:28:53.004Z</time></trkpt><trkpt lat="42.489319877093834" lon="11.342054833907513"><ele>22.0</ele><time>2026-04-30T08:28:54.004Z</time></trkpt><trkpt lat="42.48920676889511" lon="11.342202645256174"><ele>22.666666666666664</ele><time>2026-04-30T08:28:55.004Z</time></trkpt><trkpt lat="42.48909638676802" lon="11.342337162605324"><ele>23.333333333333332</ele><time>2026-04-30T08:28:56.004Z</time></trkpt><trkpt lat="42.48897334076079" lon="11.34248388999306"><ele>24.0</ele><time>2026-04-30T08:28:57.004Z</time></trkpt><trkpt lat="42.48884760759535" lon="11.342642598431176"><ele>24.333333333333336</ele><time>2026-04-30T08:28:58.004Z</time></trkpt><trkpt lat="42.48872460154697" lon="11.342795262471478"><ele>24.666666666666668</ele><time>2026-04-30T08:28:59.004Z</time></trkpt><trkpt lat="42.48861143749664" lon="11.3429432975829"><ele>25.0</ele><time>2026-04-30T08:29:00.004Z</time></trkpt><trkpt lat="42.48848518700817" lon="11.343114063118632"><ele>25.0</ele><time>2026-04-30T08:29:01.004Z</time></trkpt><trkpt lat="42.488359107043976" lon="11.343276281419168"><ele>25.0</ele><time>2026-04-30T08:29:02.004Z</time></trkpt><trkpt lat="42.488238428560805" lon="11.343423661753093"><ele>25.0</ele><time>2026-04-30T08:29:03.004Z</time></trkpt><trkpt lat="42.488132793699755" lon="11.343554673216525"><ele>25.0</ele><time>2026-04-30T08:29:04.004Z</time></trkpt><trkpt lat="42.48804192453596" lon="11.34368575529426"><ele>25.0</ele><time>2026-04-30T08:29:05.004Z</time></trkpt><trkpt lat="42.487975542180806" lon="11.343810126309931"><ele>25.0</ele><time>2026-04-30T08:29:06.004Z</time></trkpt><trkpt lat="42.48792757297724" lon="11.343933399498376"><ele>25.0</ele><time>2026-04-30T08:29:07.004Z</time></trkpt><trkpt lat="42.487908350136934" lon="11.344062505895526"><ele>25.0</ele><time>2026-04-30T08:29:08.004Z</time></trkpt><trkpt lat="42.48790067265894" lon="11.344213947524231"><ele>25.0</ele><time>2026-04-30T08:29:09.004Z</time></trkpt><trkpt lat="42.48788645248573" lon="11.3444054758067"><ele>25.0</ele><time>2026-04-30T08:29:10.004Z</time></trkpt><trkpt lat="42.487856348928354" lon="11.34460880721565"><ele>25.0</ele><time>2026-04-30T08:29:11.004Z</time></trkpt><trkpt lat="42.48782660597917" lon="11.344831808876089"><ele>25.0</ele><time>2026-04-30T08:29:12.004Z</time></trkpt><trkpt lat="42.48781621185818" lon="11.3450453956639"><ele>25.0</ele><time>2026-04-30T08:29:13.004Z</time></trkpt><trkpt lat="42.48782512467804" lon="11.345250019268263"><ele>25.0</ele><time>2026-04-30T08:29:14.004Z</time></trkpt><trkpt lat="42.48785529065577" lon="11.34546290311372"><ele>25.75</ele><time>2026-04-30T08:29:15.004Z</time></trkpt><trkpt lat="42.48787467289455" lon="11.34567187908772"><ele>26.5</ele><time>2026-04-30T08:29:16.004Z</time></trkpt><trkpt lat="42.48788742564411" lon="11.34587728196702"><ele>27.25</ele><time>2026-04-30T08:29:17.004Z</time></trkpt><trkpt lat="42.48788423312422" lon="11.346063513699377"><ele>28.0</ele><time>2026-04-30T08:29:18.004Z</time></trkpt><trkpt lat="42.48786771404158" lon="11.346230757561301"><ele>28.599999999999998</ele><time>2026-04-30T08:29:19.004Z</time></trkpt><trkpt lat="42.4878449321522" lon="11.346395854304514"><ele>29.199999999999996</ele><time>2026-04-30T08:29:20.004Z</time></trkpt><trkpt lat="42.487823327266696" lon="11.346539729712564"><ele>29.8</ele><time>2026-04-30T08:29:21.004Z</time></trkpt><trkpt lat="42.48780375606445" lon="11.346668925960826"><ele>30.4</ele><time>2026-04-30T08:29:22.004Z</time></trkpt><trkpt lat="42.48780757206358" lon="11.346787678065494"><ele>31.0</ele><time>2026-04-30T08:29:23.004Z</time></trkpt><trkpt lat="42.487823843211274" lon="11.34689306776463"><ele>31.000000000000004</ele><time>2026-04-30T08:29:24.004Z</time></trkpt><trkpt lat="42.48784541651234" lon="11.346999923086587"><ele>31.0</ele><time>2026-04-30T08:29:25.004Z</time></trkpt><trkpt lat="42.48787218920181" lon="11.34710654348777"><ele>31.0</ele><time>2026-04-30T08:29:26.004Z</time></trkpt><trkpt lat="42.487898174432786" lon="11.347221039554757"><ele>31.0</ele><time>2026-04-30T08:29:27.004Z</time></trkpt><trkpt lat="42.48791040580119" lon="11.347334318306702"><ele>31.000000000000004</ele><time>2026-04-30T08:29:28.004Z</time></trkpt><trkpt lat="42.48791232642071" lon="11.347455694075284"><ele>31.0</ele><time>2026-04-30T08:29:29.004Z</time></trkpt><trkpt lat="42.4879053349783" lon="11.34757406527299"><ele>31.4</ele><time>2026-04-30T08:29:30.004Z</time></trkpt><trkpt lat="42.487897426745974" lon="11.34769892253869"><ele>31.8</ele><time>2026-04-30T08:29:31.004Z</time></trkpt><trkpt lat="42.487893557676664" lon="11.347834758001413"><ele>32.199999999999996</ele><time>2026-04-30T08:29:32.004Z</time></trkpt><trkpt lat="42.48789858482029" lon="11.347961936432421"><ele>32.6</ele><time>2026-04-30T08:29:33.004Z</time></trkpt><trkpt lat="42.487916639541126" lon="11.348080454583895"><ele>33.0</ele><time>2026-04-30T08:29:34.004Z</time></trkpt><trkpt lat="42.48793760995334" lon="11.348204201009326"><ele>33.199999999999996</ele><time>2026-04-30T08:29:35.004Z</time></trkpt><trkpt lat="42.48795677039503" lon="11.348330889846837"><ele>33.4</ele><time>2026-04-30T08:29:36.004Z</time></trkpt><trkpt lat="42.48796744058794" lon="11.348466957113438"><ele>33.599999999999994</ele><time>2026-04-30T08:29:37.004Z</time></trkpt><trkpt lat="42.48797218023756" lon="11.348607993796678"><ele>33.8</ele><time>2026-04-30T08:29:38.004Z</time></trkpt><trkpt lat="42.4879799406085" lon="11.348752235853103"><ele>34.0</ele><time>2026-04-30T08:29:39.004Z</time></trkpt><trkpt lat="42.48800304919858" lon="11.348891922791642"><ele>34.0</ele><time>2026-04-30T08:29:40.004Z</time></trkpt><trkpt lat="42.488045037958436" lon="11.34900455773684"><ele>34.0</ele><time>2026-04-30T08:29:41.004Z</time></trkpt><trkpt lat="42.488095378793815" lon="11.349104659044883"><ele>34.0</ele><time>2026-04-30T08:29:42.004Z</time></trkpt><trkpt lat="42.488121684265565" lon="11.34923686530477"><ele>34.0</ele><time>2026-04-30T08:29:43.004Z</time></trkpt><trkpt lat="42.488153345550465" lon="11.349339066767133"><ele>34.0</ele><time>2026-04-30T08:29:44.004Z</time></trkpt><trkpt lat="42.48815952933789" lon="11.349469550690399"><ele>34.0</ele><time>2026-04-30T08:29:45.005Z</time></trkpt><trkpt lat="42.48819048744616" lon="11.349553711048047"><ele>34.0</ele><time>2026-04-30T08:29:46.005Z</time></trkpt><trkpt lat="42.48821087871461" lon="11.349643578396387"><ele>34.0</ele><time>2026-04-30T08:29:47.005Z</time></trkpt><trkpt lat="42.48825078949196" lon="11.349720243084933"><ele>34.0</ele><time>2026-04-30T08:29:48.005Z</time></trkpt><trkpt lat="42.48830767099612" lon="11.349795456131643"><ele>34.0</ele><time>2026-04-30T08:29:49.005Z</time></trkpt><trkpt lat="42.48839539019748" lon="11.349844362520518"><ele>34.0</ele><time>2026-04-30T08:29:50.005Z</time></trkpt><trkpt lat="42.48849848236248" lon="11.349920195263113"><ele>33.0</ele><time>2026-04-30T08:29:51.005Z</time></trkpt><trkpt lat="42.48862126652513" lon="11.350025891833528"><ele>32.0</ele><time>2026-04-30T08:29:52.005Z</time></trkpt><trkpt lat="42.48876694762251" lon="11.35014654953434"><ele>31.0</ele><time>2026-04-30T08:29:53.005Z</time></trkpt><trkpt lat="42.48892498145172" lon="11.350260382332248"><ele>30.666666666666668</ele><time>2026-04-30T08:29:54.005Z</time></trkpt><trkpt lat="42.4890863050919" lon="11.350381734365884"><ele>30.333333333333336</ele><time>2026-04-30T08:29:55.005Z</time></trkpt><trkpt lat="42.48923267950854" lon="11.350503883815403"><ele>30.0</ele><time>2026-04-30T08:29:56.005Z</time></trkpt><trkpt lat="42.489372724157974" lon="11.350611027279099"><ele>29.75</ele><time>2026-04-30T08:29:57.005Z</time></trkpt><trkpt lat="42.48950779087534" lon="11.350677820264176"><ele>29.5</ele><time>2026-04-30T08:29:58.005Z</time></trkpt><trkpt lat="42.489631726088035" lon="11.350760443735734"><ele>29.25</ele><time>2026-04-30T08:29:59.005Z</time></trkpt><trkpt lat="42.48975101685302" lon="11.350846833348555"><ele>29.0</ele><time>2026-04-30T08:30:00.005Z</time></trkpt><trkpt lat="42.48984735529977" lon="11.350936349102048"><ele>28.75</ele><time>2026-04-30T08:30:01.005Z</time></trkpt><trkpt lat="42.48990014149026" lon="11.351064569944358"><ele>28.5</ele><time>2026-04-30T08:30:02.005Z</time></trkpt><trkpt lat="42.489974053779044" lon="11.351216314429566"><ele>28.25</ele><time>2026-04-30T08:30:03.005Z</time></trkpt><trkpt lat="42.49007332597397" lon="11.351372687185874"><ele>28.0</ele><time>2026-04-30T08:30:04.005Z</time></trkpt><trkpt lat="42.49018569118862" lon="11.35149448639412"><ele>29.0</ele><time>2026-04-30T08:30:05.005Z</time></trkpt><trkpt lat="42.49028384990351" lon="11.351651079552918"><ele>30.0</ele><time>2026-04-30T08:30:06.005Z</time></trkpt><trkpt lat="42.49039083585252" lon="11.351809415557454"><ele>31.0</ele><time>2026-04-30T08:30:07.005Z</time></trkpt><trkpt lat="42.49050520325482" lon="11.351950054964407"><ele>29.75</ele><time>2026-04-30T08:30:08.005Z</time></trkpt><trkpt lat="42.49059939190249" lon="11.352074576411093"><ele>28.5</ele><time>2026-04-30T08:30:09.005Z</time></trkpt><trkpt lat="42.490673562295186" lon="11.352211661483414"><ele>27.25</ele><time>2026-04-30T08:30:10.005Z</time></trkpt><trkpt lat="42.49072969143855" lon="11.352356864439233"><ele>26.0</ele><time>2026-04-30T08:30:11.005Z</time></trkpt><trkpt lat="42.49073890117107" lon="11.352534563507948"><ele>26.0</ele><time>2026-04-30T08:30:12.005Z</time></trkpt><trkpt lat="42.49078586724868" lon="11.352703824335887"><ele>26.0</ele><time>2026-04-30T08:30:13.005Z</time></trkpt><trkpt lat="42.4908347824816" lon="11.352879602485082"><ele>26.0</ele><time>2026-04-30T08:30:14.005Z</time></trkpt><trkpt lat="42.490878655260126" lon="11.35306413515149"><ele>26.0</ele><time>2026-04-30T08:30:15.005Z</time></trkpt><trkpt lat="42.49090581687183" lon="11.353262814540656"><ele>26.0</ele><time>2026-04-30T08:30:16.005Z</time></trkpt><trkpt lat="42.490942515533405" lon="11.353472504402458"><ele>26.0</ele><time>2026-04-30T08:30:17.005Z</time></trkpt><trkpt lat="42.490971745079676" lon="11.353627933546788"><ele>26.0</ele><time>2026-04-30T08:30:18.005Z</time></trkpt><trkpt lat="42.490995152390816" lon="11.35376746318798"><ele>26.0</ele><time>2026-04-30T08:30:19.005Z</time></trkpt><trkpt lat="42.49101423251128" lon="11.353887863078528"><ele>25.999999999999996</ele><time>2026-04-30T08:30:20.005Z</time></trkpt><trkpt lat="42.491049712576306" lon="11.3540053567522"><ele>26.0</ele><time>2026-04-30T08:30:21.005Z</time></trkpt><trkpt lat="42.49106040666083" lon="11.354112892673944"><ele>26.0</ele><time>2026-04-30T08:30:22.005Z</time></trkpt><trkpt lat="42.491077094821044" lon="11.354210681098378"><ele>26.0</ele><time>2026-04-30T08:30:23.005Z</time></trkpt><trkpt lat="42.491095098091364" lon="11.354292761549875"><ele>25.999999999999996</ele><time>2026-04-30T08:30:24.005Z</time></trkpt><trkpt lat="42.491116363833505" lon="11.354393026498165"><ele>26.0</ele><time>2026-04-30T08:30:26.005Z</time></trkpt><trkpt lat="42.49114565506374" lon="11.354489979255316"><ele>26.0</ele><time>2026-04-30T08:30:47.005Z</time></trkpt><trkpt lat="42.491167231665244" lon="11.354614968788352"><ele>26.0</ele><time>2026-04-30T08:30:49.005Z</time></trkpt><trkpt lat="42.49118983258881" lon="11.35480842678297"><ele>26.0</ele><time>2026-04-30T08:30:51.005Z</time></trkpt><trkpt lat="42.49121088852142" lon="11.354959578558976"><ele>26.0</ele><time>2026-04-30T08:30:52.005Z</time></trkpt><trkpt lat="42.49124529353047" lon="11.35513069350244"><ele>25.5</ele><time>2026-04-30T08:30:53.005Z</time></trkpt><trkpt lat="42.491283285445675" lon="11.35530649885472"><ele>25.0</ele><time>2026-04-30T08:30:54.005Z</time></trkpt><trkpt lat="42.4913170049453" lon="11.355498192410986"><ele>24.5</ele><time>2026-04-30T08:30:55.005Z</time></trkpt><trkpt lat="42.49135252730301" lon="11.355704506820567"><ele>24.0</ele><time>2026-04-30T08:30:56.005Z</time></trkpt><trkpt lat="42.491385082908266" lon="11.35590917799507"><ele>24.0</ele><time>2026-04-30T08:30:57.005Z</time></trkpt><trkpt lat="42.491419784340515" lon="11.356106314016618"><ele>24.0</ele><time>2026-04-30T08:30:58.005Z</time></trkpt><trkpt lat="42.491432108315315" lon="11.356291661557346"><ele>24.0</ele><time>2026-04-30T08:30:59.005Z</time></trkpt><trkpt lat="42.49145701298202" lon="11.35644757180117"><ele>24.0</ele><time>2026-04-30T08:31:00.005Z</time></trkpt><trkpt lat="42.49149121387692" lon="11.35658071156393"><ele>23.799999999999997</ele><time>2026-04-30T08:31:01.005Z</time></trkpt><trkpt lat="42.491513681851764" lon="11.356715701893988"><ele>23.599999999999998</ele><time>2026-04-30T08:31:02.005Z</time></trkpt><trkpt lat="42.49154331719156" lon="11.356855594653506"><ele>23.4</ele><time>2026-04-30T08:31:03.005Z</time></trkpt><trkpt lat="42.491571708799505" lon="11.35700785159794"><ele>23.2</ele><time>2026-04-30T08:31:04.005Z</time></trkpt><trkpt lat="42.491601640735496" lon="11.35716233797616"><ele>23.0</ele><time>2026-04-30T08:31:05.005Z</time></trkpt><trkpt lat="42.49164005134866" lon="11.357350733014451"><ele>23.0</ele><time>2026-04-30T08:31:06.005Z</time></trkpt><trkpt lat="42.4916905901853" lon="11.357520740239485"><ele>23.0</ele><time>2026-04-30T08:31:07.005Z</time></trkpt><trkpt lat="42.49170307294652" lon="11.357703961006292"><ele>23.0</ele><time>2026-04-30T08:31:08.005Z</time></trkpt><trkpt lat="42.49174253448111" lon="11.357891977688924"><ele>23.0</ele><time>2026-04-30T08:31:09.005Z</time></trkpt><trkpt lat="42.49177386533274" lon="11.358086677146312"><ele>23.666666666666668</ele><time>2026-04-30T08:31:10.005Z</time></trkpt><trkpt lat="42.49180510211356" lon="11.35830134178141"><ele>24.333333333333336</ele><time>2026-04-30T08:31:11.005Z</time></trkpt><trkpt lat="42.49183354333214" lon="11.358519980945147"><ele>25.0</ele><time>2026-04-30T08:31:12.005Z</time></trkpt><trkpt lat="42.491868616383385" lon="11.358746881552287"><ele>25.333333333333336</ele><time>2026-04-30T08:31:13.005Z</time></trkpt><trkpt lat="42.49190539723485" lon="11.358962981355425"><ele>25.666666666666664</ele><time>2026-04-30T08:31:14.005Z</time></trkpt><trkpt lat="42.491949254471756" lon="11.35917503900405"><ele>26.0</ele><time>2026-04-30T08:31:15.005Z</time></trkpt><trkpt lat="42.49198798027301" lon="11.359371528247976"><ele>26.0</ele><time>2026-04-30T08:31:16.005Z</time></trkpt><trkpt lat="42.49202497168111" lon="11.35957124291635"><ele>26.0</ele><time>2026-04-30T08:31:17.005Z</time></trkpt><trkpt lat="42.49205025145899" lon="11.359751686873528"><ele>26.0</ele><time>2026-04-30T08:31:18.005Z</time></trkpt><trkpt lat="42.492081130154965" lon="11.359933984701353"><ele>26.0</ele><time>2026-04-30T08:31:19.005Z</time></trkpt><trkpt lat="42.492107734832246" lon="11.360115411955901"><ele>25.5</ele><time>2026-04-30T08:31:20.005Z</time></trkpt><trkpt lat="42.492134999906014" lon="11.360295592176655"><ele>25.0</ele><time>2026-04-30T08:31:21.005Z</time></trkpt><trkpt lat="42.49216378695083" lon="11.360479899630084"><ele>24.5</ele><time>2026-04-30T08:31:22.006Z</time></trkpt><trkpt lat="42.49219914054796" lon="11.36065944729203"><ele>24.0</ele><time>2026-04-30T08:31:23.006Z</time></trkpt><trkpt lat="42.49223750118515" lon="11.360835985884355"><ele>23.75</ele><time>2026-04-30T08:31:24.006Z</time></trkpt><trkpt lat="42.49227682270478" lon="11.361003733328523"><ele>23.5</ele><time>2026-04-30T08:31:25.006Z</time></trkpt><trkpt lat="42.49231195210934" lon="11.361164978191615"><ele>23.25</ele><time>2026-04-30T08:31:26.006Z</time></trkpt><trkpt lat="42.49233666916321" lon="11.36130620546264"><ele>23.0</ele><time>2026-04-30T08:31:27.006Z</time></trkpt><trkpt lat="42.49235152191793" lon="11.361441488847966"><ele>23.0</ele><time>2026-04-30T08:31:28.006Z</time></trkpt><trkpt lat="42.49235979611491" lon="11.361585087062046"><ele>23.0</ele><time>2026-04-30T08:31:29.006Z</time></trkpt><trkpt lat="42.492351683266875" lon="11.361716810689911"><ele>23.0</ele><time>2026-04-30T08:31:30.006Z</time></trkpt><trkpt lat="42.49231236753354" lon="11.361849843199993"><ele>23.0</ele><time>2026-04-30T08:31:31.006Z</time></trkpt><trkpt lat="42.49229348845861" lon="11.36199775950564"><ele>23.0</ele><time>2026-04-30T08:31:32.006Z</time></trkpt><trkpt lat="42.49230485390494" lon="11.362130201831896"><ele>23.4</ele><time>2026-04-30T08:31:33.006Z</time></trkpt><trkpt lat="42.492312594793646" lon="11.362243478615229"><ele>23.799999999999997</ele><time>2026-04-30T08:31:34.006Z</time></trkpt><trkpt lat="42.49231575198748" lon="11.36234576048486"><ele>24.2</ele><time>2026-04-30T08:31:35.006Z</time></trkpt><trkpt lat="42.492395133703525" lon="11.362436741653013"><ele>24.6</ele><time>2026-04-30T08:31:36.006Z</time></trkpt><trkpt lat="42.49247325742744" lon="11.362529703153335"><ele>25.0</ele><time>2026-04-30T08:31:37.006Z</time></trkpt><trkpt lat="42.492515633163094" lon="11.36265586718229"><ele>25.0</ele><time>2026-04-30T08:31:38.006Z</time></trkpt><trkpt lat="42.492516433620246" lon="11.362812985540055"><ele>25.0</ele><time>2026-04-30T08:31:39.006Z</time></trkpt><trkpt lat="42.49254226847686" lon="11.36297180959182"><ele>25.0</ele><time>2026-04-30T08:31:40.006Z</time></trkpt><trkpt lat="42.49257969644305" lon="11.363159443925563"><ele>25.0</ele><time>2026-04-30T08:31:41.006Z</time></trkpt><trkpt lat="42.49263825953357" lon="11.363345015046715"><ele>26.0</ele><time>2026-04-30T08:31:42.006Z</time></trkpt><trkpt lat="42.49269093032223" lon="11.363495264873336"><ele>27.0</ele><time>2026-04-30T08:31:43.006Z</time></trkpt><trkpt lat="42.49276750076629" lon="11.363689283240015"><ele>28.0</ele><time>2026-04-30T08:31:44.006Z</time></trkpt><trkpt lat="42.49281831957813" lon="11.363891316698068"><ele>29.0</ele><time>2026-04-30T08:31:45.006Z</time></trkpt><trkpt lat="42.492877267067065" lon="11.364077625199833"><ele>31.0</ele><time>2026-04-30T08:31:46.006Z</time></trkpt><trkpt lat="42.49295102939961" lon="11.364227659879223"><ele>33.0</ele><time>2026-04-30T08:31:47.006Z</time></trkpt><trkpt lat="42.49298526323969" lon="11.364388069220867"><ele>35.0</ele><time>2026-04-30T08:31:48.006Z</time></trkpt><trkpt lat="42.493005487075415" lon="11.364559765974889"><ele>37.0</ele><time>2026-04-30T08:31:49.006Z</time></trkpt><trkpt lat="42.493015910351644" lon="11.364731423040405"><ele>37.0</ele><time>2026-04-30T08:31:50.006Z</time></trkpt><trkpt lat="42.493028268239456" lon="11.36491324845189"><ele>37.0</ele><time>2026-04-30T08:31:51.006Z</time></trkpt><trkpt lat="42.493049551574885" lon="11.365066678436259"><ele>37.0</ele><time>2026-04-30T08:31:52.006Z</time></trkpt><trkpt lat="42.49308479371371" lon="11.365218736980587"><ele>37.0</ele><time>2026-04-30T08:31:53.006Z</time></trkpt><trkpt lat="42.49313623605093" lon="11.365374266874992"><ele>37.0</ele><time>2026-04-30T08:31:54.006Z</time></trkpt><trkpt lat="42.49320458766651" lon="11.365519673116198"><ele>37.0</ele><time>2026-04-30T08:31:55.006Z</time></trkpt><trkpt lat="42.49328190574635" lon="11.365659439391493"><ele>37.0</ele><time>2026-04-30T08:31:56.006Z</time></trkpt><trkpt lat="42.49337244484549" lon="11.365771660779746"><ele>37.0</ele><time>2026-04-30T08:31:57.006Z</time></trkpt><trkpt lat="42.49342295535632" lon="11.365915689050144"><ele>36.75</ele><time>2026-04-30T08:31:58.006Z</time></trkpt><trkpt lat="42.49348031267035" lon="11.366073178017524"><ele>36.5</ele><time>2026-04-30T08:31:59.006Z</time></trkpt><trkpt lat="42.493520070704456" lon="11.366248968393062"><ele>36.25</ele><time>2026-04-30T08:32:00.006Z</time></trkpt><trkpt lat="42.49356037677476" lon="11.366441472512808"><ele>36.0</ele><time>2026-04-30T08:32:01.006Z</time></trkpt><trkpt lat="42.49360486272859" lon="11.366653940022173"><ele>35.666666666666664</ele><time>2026-04-30T08:32:02.006Z</time></trkpt><trkpt lat="42.49365463066135" lon="11.366884712271224"><ele>35.33333333333333</ele><time>2026-04-30T08:32:03.006Z</time></trkpt><trkpt lat="42.49370982010924" lon="11.367121640308763"><ele>35.0</ele><time>2026-04-30T08:32:04.006Z</time></trkpt><trkpt lat="42.49375815597251" lon="11.367324283393007"><ele>35.75</ele><time>2026-04-30T08:32:05.006Z</time></trkpt><trkpt lat="42.49380290956379" lon="11.36751402414721"><ele>36.5</ele><time>2026-04-30T08:32:06.006Z</time></trkpt><trkpt lat="42.49384343302242" lon="11.367712306835383"><ele>37.25</ele><time>2026-04-30T08:32:07.006Z</time></trkpt><trkpt lat="42.49387943393278" lon="11.367910212463931"><ele>38.0</ele><time>2026-04-30T08:32:08.006Z</time></trkpt><trkpt lat="42.49391109692912" lon="11.368111424555515"><ele>38.0</ele><time>2026-04-30T08:32:09.006Z</time></trkpt><trkpt lat="42.49393769493308" lon="11.3683222100356"><ele>38.0</ele><time>2026-04-30T08:32:10.006Z</time></trkpt><trkpt lat="42.49397510673242" lon="11.3685468041185"><ele>38.0</ele><time>2026-04-30T08:32:11.006Z</time></trkpt><trkpt lat="42.49403193945554" lon="11.368748811541531"><ele>37.33333333333333</ele><time>2026-04-30T08:32:12.006Z</time></trkpt><trkpt lat="42.494103792757784" lon="11.368940215888639"><ele>36.666666666666664</ele><time>2026-04-30T08:32:13.006Z</time></trkpt><trkpt lat="42.49418062844897" lon="11.36913647998881"><ele>36.0</ele><time>2026-04-30T08:32:14.006Z</time></trkpt><trkpt lat="42.49426793590407" lon="11.369353252095237"><ele>36.0</ele><time>2026-04-30T08:32:15.006Z</time></trkpt><trkpt lat="42.49435880463086" lon="11.369581159887915"><ele>36.0</ele><time>2026-04-30T08:32:16.006Z</time></trkpt><trkpt lat="42.494446648879865" lon="11.369815252772641"><ele>36.0</ele><time>2026-04-30T08:32:17.006Z</time></trkpt><trkpt lat="42.494529321205746" lon="11.370040954999878"><ele>37.0</ele><time>2026-04-30T08:32:18.006Z</time></trkpt><trkpt lat="42.49460533998584" lon="11.370257706344024"><ele>38.0</ele><time>2026-04-30T08:32:19.006Z</time></trkpt><trkpt lat="42.494688031983706" lon="11.370481591655546"><ele>39.0</ele><time>2026-04-30T08:32:20.006Z</time></trkpt><trkpt lat="42.49477239041785" lon="11.370697002908907"><ele>39.666666666666664</ele><time>2026-04-30T08:32:21.006Z</time></trkpt><trkpt lat="42.494867514245044" lon="11.37091324224033"><ele>40.33333333333333</ele><time>2026-04-30T08:32:22.006Z</time></trkpt><trkpt lat="42.49496505139889" lon="11.371129269724042"><ele>41.0</ele><time>2026-04-30T08:32:23.006Z</time></trkpt><trkpt lat="42.49504907175998" lon="11.371337953652025"><ele>41.0</ele><time>2026-04-30T08:32:24.006Z</time></trkpt><trkpt lat="42.495127075391395" lon="11.371527112929453"><ele>41.0</ele><time>2026-04-30T08:32:25.006Z</time></trkpt><trkpt lat="42.49520180612179" lon="11.371704488409708"><ele>41.0</ele><time>2026-04-30T08:32:26.006Z</time></trkpt><trkpt lat="42.49527729946582" lon="11.37187501570294"><ele>41.0</ele><time>2026-04-30T08:32:27.006Z</time></trkpt><trkpt lat="42.49535146639743" lon="11.37205404345324"><ele>41.0</ele><time>2026-04-30T08:32:28.006Z</time></trkpt><trkpt lat="42.49541569416081" lon="11.372229852829063"><ele>41.0</ele><time>2026-04-30T08:32:29.006Z</time></trkpt><trkpt lat="42.49546244181873" lon="11.372408376198225"><ele>41.0</ele><time>2026-04-30T08:32:30.006Z</time></trkpt><trkpt lat="42.4955018790011" lon="11.372609361981485"><ele>42.33333333333333</ele><time>2026-04-30T08:32:31.006Z</time></trkpt><trkpt lat="42.49554742220909" lon="11.372829423245676"><ele>43.666666666666664</ele><time>2026-04-30T08:32:32.006Z</time></trkpt><trkpt lat="42.4955969331974" lon="11.373047787049149"><ele>45.0</ele><time>2026-04-30T08:32:33.006Z</time></trkpt><trkpt lat="42.495645590214146" lon="11.373253604566017"><ele>45.0</ele><time>2026-04-30T08:32:34.006Z</time></trkpt><trkpt lat="42.49569759634214" lon="11.373457431285711"><ele>45.0</ele><time>2026-04-30T08:32:35.006Z</time></trkpt><trkpt lat="42.49575338438289" lon="11.37364722602056"><ele>45.0</ele><time>2026-04-30T08:32:36.006Z</time></trkpt><trkpt lat="42.49580496258949" lon="11.373829635217607"><ele>44.75</ele><time>2026-04-30T08:32:37.006Z</time></trkpt><trkpt lat="42.495852672677714" lon="11.374005664863626"><ele>44.5</ele><time>2026-04-30T08:32:38.006Z</time></trkpt><trkpt lat="42.49588992491546" lon="11.374174782634489"><ele>44.25</ele><time>2026-04-30T08:32:39.006Z</time></trkpt><trkpt lat="42.495913993274435" lon="11.374341947874344"><ele>44.0</ele><time>2026-04-30T08:32:40.006Z</time></trkpt><trkpt lat="42.49592360472797" lon="11.374513938025592"><ele>44.33333333333333</ele><time>2026-04-30T08:32:41.006Z</time></trkpt><trkpt lat="42.4959400082789" lon="11.374744632392293"><ele>44.666666666666664</ele><time>2026-04-30T08:32:42.006Z</time></trkpt><trkpt lat="42.49595444452246" lon="11.374943885448033"><ele>45.0</ele><time>2026-04-30T08:32:43.006Z</time></trkpt><trkpt lat="42.49596858247937" lon="11.37512693489008"><ele>45.0</ele><time>2026-04-30T08:32:44.006Z</time></trkpt><trkpt lat="42.49598784974768" lon="11.375299419114345"><ele>45.0</ele><time>2026-04-30T08:32:45.006Z</time></trkpt><trkpt lat="42.49601733012901" lon="11.375438093949251"><ele>45.0</ele><time>2026-04-30T08:32:46.006Z</time></trkpt><trkpt lat="42.49607801401427" lon="11.37557237189615"><ele>45.0</ele><time>2026-04-30T08:32:47.006Z</time></trkpt><trkpt lat="42.496131573440735" lon="11.375710474692093"><ele>45.25</ele><time>2026-04-30T08:32:48.006Z</time></trkpt><trkpt lat="42.49619423548849" lon="11.375841652008528"><ele>45.5</ele><time>2026-04-30T08:32:49.006Z</time></trkpt><trkpt lat="42.49627611377506" lon="11.375963597258462"><ele>45.75</ele><time>2026-04-30T08:32:50.006Z</time></trkpt><trkpt lat="42.49636762649349" lon="11.376070757051256"><ele>46.0</ele><time>2026-04-30T08:32:51.006Z</time></trkpt><trkpt lat="42.4964797486839" lon="11.376185707103945"><ele>46.0</ele><time>2026-04-30T08:32:52.006Z</time></trkpt><trkpt lat="42.49660524714999" lon="11.376302236521354"><ele>46.0</ele><time>2026-04-30T08:32:53.006Z</time></trkpt><trkpt lat="42.4967487928754" lon="11.376481431896366"><ele>46.0</ele><time>2026-04-30T08:32:54.006Z</time></trkpt><trkpt lat="42.49688259855031" lon="11.376644263326536"><ele>47.0</ele><time>2026-04-30T08:32:55.006Z</time></trkpt><trkpt lat="42.49700694002642" lon="11.376802355676196"><ele>48.0</ele><time>2026-04-30T08:32:56.006Z</time></trkpt><trkpt lat="42.49711566251813" lon="11.376947550111282"><ele>49.0</ele><time>2026-04-30T08:32:57.006Z</time></trkpt><trkpt lat="42.49722490185321" lon="11.377073013106195"><ele>50.75</ele><time>2026-04-30T08:32:58.006Z</time></trkpt><trkpt lat="42.49732769189659" lon="11.377188575502922"><ele>52.5</ele><time>2026-04-30T08:32:59.007Z</time></trkpt><trkpt lat="42.49743042514471" lon="11.377298940630553"><ele>54.25</ele><time>2026-04-30T08:33:00.007Z</time></trkpt><trkpt lat="42.49753216083131" lon="11.377408025202012"><ele>56.0</ele><time>2026-04-30T08:33:01.007Z</time></trkpt><trkpt lat="42.49763325521791" lon="11.37750205096822"><ele>56.0</ele><time>2026-04-30T08:33:02.007Z</time></trkpt><trkpt lat="42.497778325063884" lon="11.377682531299305"><ele>56.0</ele><time>2026-04-30T08:33:03.007Z</time></trkpt><trkpt lat="42.49787117976106" lon="11.377800128471861"><ele>56.0</ele><time>2026-04-30T08:33:04.007Z</time></trkpt><trkpt lat="42.49795150395895" lon="11.377901755612923"><ele>56.0</ele><time>2026-04-30T08:33:05.007Z</time></trkpt><trkpt lat="42.498014232632194" lon="11.377963255758901"><ele>57.0</ele><time>2026-04-30T08:33:06.007Z</time></trkpt><trkpt lat="42.498072769984894" lon="11.37803310890864"><ele>57.99999999999999</ele><time>2026-04-30T08:33:07.007Z</time></trkpt><trkpt lat="42.49813187067399" lon="11.378132611044157"><ele>58.99999999999999</ele><time>2026-04-30T08:33:08.007Z</time></trkpt><trkpt lat="42.49821435003126" lon="11.378244103912406"><ele>60.0</ele><time>2026-04-30T08:33:09.007Z</time></trkpt><trkpt lat="42.498291653777024" lon="11.378348600572583"><ele>61.0</ele><time>2026-04-30T08:33:10.007Z</time></trkpt><trkpt lat="42.49838495342631" lon="11.37847471994433"><ele>61.0</ele><time>2026-04-30T08:33:11.007Z</time></trkpt><trkpt lat="42.49849385368094" lon="11.378605191239815"><ele>61.0</ele><time>2026-04-30T08:33:12.007Z</time></trkpt><trkpt lat="42.49858807312187" lon="11.378733186589686"><ele>61.0</ele><time>2026-04-30T08:33:13.007Z</time></trkpt><trkpt lat="42.49865448771798" lon="11.378868039512096"><ele>61.0</ele><time>2026-04-30T08:33:14.007Z</time></trkpt><trkpt lat="42.498715870376515" lon="11.379010595629186"><ele>61.75</ele><time>2026-04-30T08:33:15.007Z</time></trkpt><trkpt lat="42.49876171560713" lon="11.379152387694615"><ele>62.5</ele><time>2026-04-30T08:33:16.007Z</time></trkpt><trkpt lat="42.49880783137729" lon="11.379301480425983"><ele>63.25</ele><time>2026-04-30T08:33:17.007Z</time></trkpt><trkpt lat="42.49886988636425" lon="11.37945226119823"><ele>64.0</ele><time>2026-04-30T08:33:18.007Z</time></trkpt><trkpt lat="42.498923762181725" lon="11.379650373173641"><ele>66.0</ele><time>2026-04-30T08:33:19.007Z</time></trkpt><trkpt lat="42.498988894132715" lon="11.379856579064198"><ele>68.0</ele><time>2026-04-30T08:33:20.007Z</time></trkpt><trkpt lat="42.499028819342" lon="11.380054689415969"><ele>70.0</ele><time>2026-04-30T08:33:21.007Z</time></trkpt><trkpt lat="42.49903960560131" lon="11.380196073057634"><ele>72.0</ele><time>2026-04-30T08:33:22.007Z</time></trkpt><trkpt lat="42.49904250033499" lon="11.38033974063121"><ele>72.0</ele><time>2026-04-30T08:33:23.007Z</time></trkpt><trkpt lat="42.499050542859244" lon="11.380460420047037"><ele>72.0</ele><time>2026-04-30T08:33:24.007Z</time></trkpt><trkpt lat="42.49907187067617" lon="11.38060257758883"><ele>72.0</ele><time>2026-04-30T08:33:25.007Z</time></trkpt><trkpt lat="42.499105251419486" lon="11.380735179830355"><ele>72.0</ele><time>2026-04-30T08:33:26.007Z</time></trkpt><trkpt lat="42.49914031487604" lon="11.380835297756127"><ele>72.0</ele><time>2026-04-30T08:33:27.007Z</time></trkpt><trkpt lat="42.49915846374211" lon="11.380978720575678"><ele>71.8</ele><time>2026-04-30T08:33:29.007Z</time></trkpt><trkpt lat="42.49918889290332" lon="11.381101420187674"><ele>71.6</ele><time>2026-04-30T08:33:31.007Z</time></trkpt><trkpt lat="42.499218203289445" lon="11.381219426867002"><ele>71.39999999999999</ele><time>2026-04-30T08:33:32.007Z</time></trkpt><trkpt lat="42.49925592469488" lon="11.381370742351162"><ele>71.2</ele><time>2026-04-30T08:33:33.007Z</time></trkpt><trkpt lat="42.499293954609996" lon="11.381523295571823"><ele>71.0</ele><time>2026-04-30T08:33:34.007Z</time></trkpt><trkpt lat="42.49931541949457" lon="11.381645582747574"><ele>71.0</ele><time>2026-04-30T08:33:35.007Z</time></trkpt><trkpt lat="42.49933864380879" lon="11.381762173894884"><ele>71.0</ele><time>2026-04-30T08:33:36.007Z</time></trkpt><trkpt lat="42.49934218573795" lon="11.381855188699666"><ele>71.0</ele><time>2026-04-30T08:33:37.007Z</time></trkpt><trkpt lat="42.49940200206581" lon="11.381930537054131"><ele>71.0</ele><time>2026-04-30T08:33:38.007Z</time></trkpt><trkpt lat="42.49980857887641" lon="11.381823567666364"><ele>73.33333333333334</ele><time>2026-04-30T08:33:39.007Z</time></trkpt><trkpt lat="42.49997315565999" lon="11.38179979192156"><ele>75.66666666666667</ele><time>2026-04-30T08:33:40.007Z</time></trkpt><trkpt lat="42.50012014767649" lon="11.381824151547736"><ele>78.0</ele><time>2026-04-30T08:33:41.007Z</time></trkpt><trkpt lat="42.500260557384756" lon="11.381849975510995"><ele>78.0</ele><time>2026-04-30T08:33:42.007Z</time></trkpt><trkpt lat="42.50039338713981" lon="11.381873353358957"><ele>78.0</ele><time>2026-04-30T08:33:43.007Z</time></trkpt><trkpt lat="42.50053608432566" lon="11.381888872183003"><ele>78.0</ele><time>2026-04-30T08:33:44.007Z</time></trkpt><trkpt lat="42.500702381881474" lon="11.381902809292983"><ele>78.0</ele><time>2026-04-30T08:33:45.007Z</time></trkpt><trkpt lat="42.50085501597627" lon="11.38192146818526"><ele>79.5</ele><time>2026-04-30T08:33:46.007Z</time></trkpt><trkpt lat="42.501011483265664" lon="11.381930999684787"><ele>81.0</ele><time>2026-04-30T08:33:47.007Z</time></trkpt><trkpt lat="42.501159317877196" lon="11.381944285266297"><ele>82.5</ele><time>2026-04-30T08:33:48.007Z</time></trkpt><trkpt lat="42.50127019603201" lon="11.3819475885213"><ele>84.0</ele><time>2026-04-30T08:33:49.007Z</time></trkpt><trkpt lat="42.50138133330237" lon="11.3819414401749"><ele>85.25</ele><time>2026-04-30T08:33:50.007Z</time></trkpt><trkpt lat="42.501502736425394" lon="11.381919919333047"><ele>86.5</ele><time>2026-04-30T08:33:51.007Z</time></trkpt><trkpt lat="42.50162352967632" lon="11.381900280927239"><ele>87.75</ele><time>2026-04-30T08:33:52.007Z</time></trkpt><trkpt lat="42.50175253076213" lon="11.38190446931991"><ele>89.0</ele><time>2026-04-30T08:33:53.007Z</time></trkpt><trkpt lat="42.50189144102086" lon="11.381926990419599"><ele>89.0</ele><time>2026-04-30T08:33:54.007Z</time></trkpt><trkpt lat="42.50202535877718" lon="11.38196249976044"><ele>89.0</ele><time>2026-04-30T08:33:55.007Z</time></trkpt><trkpt lat="42.50218445327144" lon="11.381981453302068"><ele>89.0</ele><time>2026-04-30T08:33:56.007Z</time></trkpt><trkpt lat="42.50231599297018" lon="11.381977477725915"><ele>89.0</ele><time>2026-04-30T08:33:57.007Z</time></trkpt><trkpt lat="42.50243009371211" lon="11.381972809243512"><ele>89.0</ele><time>2026-04-30T08:33:58.007Z</time></trkpt><trkpt lat="42.50253884665356" lon="11.381960739382384"><ele>89.0</ele><time>2026-04-30T08:33:59.007Z</time></trkpt><trkpt lat="42.50265811737025" lon="11.381933047382018"><ele>89.0</ele><time>2026-04-30T08:34:00.007Z</time></trkpt><trkpt lat="42.502782296421195" lon="11.381903936112936"><ele>89.0</ele><time>2026-04-30T08:34:01.007Z</time></trkpt><trkpt lat="42.502895139036426" lon="11.381880445007619"><ele>89.80000000000001</ele><time>2026-04-30T08:34:02.007Z</time></trkpt><trkpt lat="42.503005119000356" lon="11.381872618963484"><ele>90.60000000000001</ele><time>2026-04-30T08:34:03.007Z</time></trkpt><trkpt lat="42.50310692594371" lon="11.38189203946206"><ele>91.4</ele><time>2026-04-30T08:34:04.007Z</time></trkpt><trkpt lat="42.50320469782371" lon="11.381939728062918"><ele>92.2</ele><time>2026-04-30T08:34:05.007Z</time></trkpt><trkpt lat="42.50329716302238" lon="11.382008422876298"><ele>93.0</ele><time>2026-04-30T08:34:06.007Z</time></trkpt><trkpt lat="42.50338607841913" lon="11.382087320695732"><ele>93.0</ele><time>2026-04-30T08:34:07.007Z</time></trkpt><trkpt lat="42.503475998549085" lon="11.382167800343495"><ele>93.0</ele><time>2026-04-30T08:34:08.007Z</time></trkpt><trkpt lat="42.503564236036034" lon="11.382246770054863"><ele>93.0</ele><time>2026-04-30T08:34:09.007Z</time></trkpt><trkpt lat="42.50366282791654" lon="11.382322264632338"><ele>93.0</ele><time>2026-04-30T08:34:10.007Z</time></trkpt><trkpt lat="42.503789073387296" lon="11.382406196284755"><ele>96.33333333333334</ele><time>2026-04-30T08:34:11.007Z</time></trkpt><trkpt lat="42.503936233758026" lon="11.382510621918746"><ele>99.66666666666667</ele><time>2026-04-30T08:34:12.007Z</time></trkpt><trkpt lat="42.50407235152961" lon="11.382603334848271"><ele>103.0</ele><time>2026-04-30T08:34:13.007Z</time></trkpt><trkpt lat="42.504195338334554" lon="11.382666300756712"><ele>103.0</ele><time>2026-04-30T08:34:14.007Z</time></trkpt><trkpt lat="42.50431551567076" lon="11.382739422559924"><ele>103.0</ele><time>2026-04-30T08:34:15.007Z</time></trkpt><trkpt lat="42.50443275271216" lon="11.382806049206186"><ele>103.0</ele><time>2026-04-30T08:34:16.007Z</time></trkpt><trkpt lat="42.50455581413486" lon="11.382856046965722"><ele>103.0</ele><time>2026-04-30T08:34:17.007Z</time></trkpt><trkpt lat="42.50465807511357" lon="11.382905172372068"><ele>103.80000000000001</ele><time>2026-04-30T08:34:18.007Z</time></trkpt><trkpt lat="42.50476426260325" lon="11.382948475301712"><ele>104.6</ele><time>2026-04-30T08:34:19.007Z</time></trkpt><trkpt lat="42.50486597031092" lon="11.382988568551907"><ele>105.39999999999999</ele><time>2026-04-30T08:34:20.007Z</time></trkpt><trkpt lat="42.504956550940626" lon="11.383033907347954"><ele>106.19999999999999</ele><time>2026-04-30T08:34:21.007Z</time></trkpt><trkpt lat="42.50502479207691" lon="11.383092214835385"><ele>107.0</ele><time>2026-04-30T08:34:22.007Z</time></trkpt><trkpt lat="42.5050817198391" lon="11.383168810457546"><ele>109.0</ele><time>2026-04-30T08:34:23.007Z</time></trkpt><trkpt lat="42.505150638679346" lon="11.383298295980156"><ele>110.99999999999999</ele><time>2026-04-30T08:34:25.007Z</time></trkpt><trkpt lat="42.50518700793539" lon="11.383397170907353"><ele>112.99999999999999</ele><time>2026-04-30T08:34:26.007Z</time></trkpt><trkpt lat="42.50524151270744" lon="11.383509318307416"><ele>115.0</ele><time>2026-04-30T08:34:27.007Z</time></trkpt><trkpt lat="42.50530807828138" lon="11.383638924598163"><ele>117.0</ele><time>2026-04-30T08:34:28.007Z</time></trkpt><trkpt lat="42.505380385666555" lon="11.383790555708678"><ele>118.75</ele><time>2026-04-30T08:34:29.007Z</time></trkpt><trkpt lat="42.50545178906631" lon="11.383911020002907"><ele>120.5</ele><time>2026-04-30T08:34:30.007Z</time></trkpt><trkpt lat="42.505524949858156" lon="11.384043077277813"><ele>122.25</ele><time>2026-04-30T08:34:31.007Z</time></trkpt><trkpt lat="42.50559737062489" lon="11.384164855701089"><ele>124.0</ele><time>2026-04-30T08:34:32.007Z</time></trkpt><trkpt lat="42.50565350055714" lon="11.384290996668676"><ele>124.0</ele><time>2026-04-30T08:34:33.007Z</time></trkpt><trkpt lat="42.50570240372548" lon="11.384390013513404"><ele>124.0</ele><time>2026-04-30T08:34:34.007Z</time></trkpt><trkpt lat="42.50573871842737" lon="11.384484498085888"><ele>124.0</ele><time>2026-04-30T08:34:35.007Z</time></trkpt><trkpt lat="42.50575251651065" lon="11.384667927094306"><ele>124.0</ele><time>2026-04-30T08:34:37.008Z</time></trkpt><trkpt lat="42.50574106766269" lon="11.384788273837534"><ele>124.0</ele><time>2026-04-30T08:34:38.008Z</time></trkpt><trkpt lat="42.50573290153491" lon="11.384920953900513"><ele>125.0</ele><time>2026-04-30T08:34:39.008Z</time></trkpt><trkpt lat="42.5057289497567" lon="11.385092441063708"><ele>126.0</ele><time>2026-04-30T08:34:40.008Z</time></trkpt><trkpt lat="42.50572235445014" lon="11.38528459086132"><ele>127.0</ele><time>2026-04-30T08:34:41.008Z</time></trkpt><trkpt lat="42.50572315184272" lon="11.385473970978136"><ele>128.0</ele><time>2026-04-30T08:34:42.008Z</time></trkpt><trkpt lat="42.505732608461095" lon="11.385635198046824"><ele>129.20000000000002</ele><time>2026-04-30T08:34:43.008Z</time></trkpt><trkpt lat="42.50572897746114" lon="11.385765046159598"><ele>130.4</ele><time>2026-04-30T08:34:44.008Z</time></trkpt><trkpt lat="42.5057348007199" lon="11.385916035473251"><ele>131.60000000000002</ele><time>2026-04-30T08:34:45.008Z</time></trkpt><trkpt lat="42.50574360108277" lon="11.38606046335045"><ele>132.8</ele><time>2026-04-30T08:34:46.008Z</time></trkpt><trkpt lat="42.505754816211414" lon="11.386198516702537"><ele>134.0</ele><time>2026-04-30T08:34:47.008Z</time></trkpt><trkpt lat="42.50577617521463" lon="11.38634354394602"><ele>134.4</ele><time>2026-04-30T08:34:48.008Z</time></trkpt><trkpt lat="42.50580813271423" lon="11.386477472920637"><ele>134.8</ele><time>2026-04-30T08:34:49.008Z</time></trkpt><trkpt lat="42.50586784150783" lon="11.386600755321956"><ele>135.2</ele><time>2026-04-30T08:34:50.008Z</time></trkpt><trkpt lat="42.50594623413144" lon="11.386680896514331"><ele>135.6</ele><time>2026-04-30T08:34:51.008Z</time></trkpt><trkpt lat="42.50601028876227" lon="11.386754157202626"><ele>136.0</ele><time>2026-04-30T08:34:52.008Z</time></trkpt><trkpt lat="42.50607575924637" lon="11.38681907889328"><ele>136.0</ele><time>2026-04-30T08:34:53.008Z</time></trkpt><trkpt lat="42.506161225976044" lon="11.386855894452454"><ele>136.0</ele><time>2026-04-30T08:34:54.008Z</time></trkpt><trkpt lat="42.50622123330557" lon="11.38690853855423"><ele>136.0</ele><time>2026-04-30T08:34:55.008Z</time></trkpt><trkpt lat="42.506234815375656" lon="11.386993377642707"><ele>136.0</ele><time>2026-04-30T08:34:56.008Z</time></trkpt><trkpt lat="42.50622504469755" lon="11.387176182443712"><ele>136.0</ele><time>2026-04-30T08:34:58.008Z</time></trkpt><trkpt lat="42.50622051424936" lon="11.387300054498374"><ele>136.8</ele><time>2026-04-30T08:34:59.008Z</time></trkpt><trkpt lat="42.50621209799217" lon="11.387439803452217"><ele>137.6</ele><time>2026-04-30T08:35:00.008Z</time></trkpt><trkpt lat="42.50620137987143" lon="11.387591337754479"><ele>138.4</ele><time>2026-04-30T08:35:01.008Z</time></trkpt><trkpt lat="42.50619155892925" lon="11.387740786386512"><ele>139.2</ele><time>2026-04-30T08:35:02.008Z</time></trkpt><trkpt lat="42.50616731225315" lon="11.387860505972762"><ele>140.0</ele><time>2026-04-30T08:35:03.008Z</time></trkpt><trkpt lat="42.50612112963901" lon="11.38795599521396"><ele>141.5</ele><time>2026-04-30T08:35:04.008Z</time></trkpt><trkpt lat="42.506054415099" lon="11.3880478296603"><ele>143.0</ele><time>2026-04-30T08:35:05.008Z</time></trkpt><trkpt lat="42.50598876157719" lon="11.388117480341412"><ele>144.5</ele><time>2026-04-30T08:35:06.008Z</time></trkpt><trkpt lat="42.50592598366165" lon="11.388175196234243"><ele>146.0</ele><time>2026-04-30T08:35:07.008Z</time></trkpt><trkpt lat="42.505850856953316" lon="11.388239040237798"><ele>147.5</ele><time>2026-04-30T08:35:08.008Z</time></trkpt><trkpt lat="42.50576528766917" lon="11.38828843419164"><ele>149.0</ele><time>2026-04-30T08:35:09.008Z</time></trkpt><trkpt lat="42.50568768442935" lon="11.388344716180422"><ele>149.0</ele><time>2026-04-30T08:35:10.008Z</time></trkpt><trkpt lat="42.50563087736093" lon="11.38842455376815"><ele>149.0</ele><time>2026-04-30T08:35:11.008Z</time></trkpt><trkpt lat="42.50557830215228" lon="11.388524707452817"><ele>149.0</ele><time>2026-04-30T08:35:12.008Z</time></trkpt><trkpt lat="42.50554003017046" lon="11.388634581650226"><ele>149.0</ele><time>2026-04-30T08:35:13.008Z</time></trkpt><trkpt lat="42.505530723839684" lon="11.388794932236593"><ele>149.0</ele><time>2026-04-30T08:35:14.008Z</time></trkpt><trkpt lat="42.505532351019106" lon="11.388949391056409"><ele>149.83333333333331</ele><time>2026-04-30T08:35:15.008Z</time></trkpt><trkpt lat="42.50553839575824" lon="11.389084461208387"><ele>150.66666666666666</ele><time>2026-04-30T08:35:16.008Z</time></trkpt><trkpt lat="42.505575576734046" lon="11.389210155795768"><ele>151.5</ele><time>2026-04-30T08:35:17.008Z</time></trkpt><trkpt lat="42.50562131137442" lon="11.389302216192425"><ele>152.33333333333334</ele><time>2026-04-30T08:35:18.008Z</time></trkpt><trkpt lat="42.50566468976676" lon="11.389364187591164"><ele>153.16666666666669</ele><time>2026-04-30T08:35:19.008Z</time></trkpt><trkpt lat="42.50572209226851" lon="11.389441857333058"><ele>154.0</ele><time>2026-04-30T08:35:20.008Z</time></trkpt><trkpt lat="42.5057887115429" lon="11.389537615845589"><ele>154.0</ele><time>2026-04-30T08:35:21.008Z</time></trkpt><trkpt lat="42.505851724786005" lon="11.389622818841142"><ele>154.0</ele><time>2026-04-30T08:35:22.008Z</time></trkpt><trkpt lat="42.50592016688325" lon="11.38970805429371"><ele>154.0</ele><time>2026-04-30T08:35:23.008Z</time></trkpt><trkpt lat="42.505995674110245" lon="11.389812961499349"><ele>154.0</ele><time>2026-04-30T08:35:24.008Z</time></trkpt><trkpt lat="42.50608493064291" lon="11.389885334397926"><ele>154.0</ele><time>2026-04-30T08:35:25.008Z</time></trkpt><trkpt lat="42.50618448300591" lon="11.389943330218161"><ele>156.5</ele><time>2026-04-30T08:35:26.008Z</time></trkpt><trkpt lat="42.50630001572001" lon="11.390007144529182"><ele>159.0</ele><time>2026-04-30T08:35:27.008Z</time></trkpt><trkpt lat="42.50639776947673" lon="11.390086046070289"><ele>161.5</ele><time>2026-04-30T08:35:28.008Z</time></trkpt><trkpt lat="42.50651474395099" lon="11.390186802874856"><ele>164.0</ele><time>2026-04-30T08:35:29.008Z</time></trkpt><trkpt lat="42.50662499028505" lon="11.390274119548529"><ele>164.0</ele><time>2026-04-30T08:35:30.008Z</time></trkpt><trkpt lat="42.50674134760243" lon="11.390350413088644"><ele>164.0</ele><time>2026-04-30T08:35:31.008Z</time></trkpt><trkpt lat="42.50684268546668" lon="11.39044294689646"><ele>164.0</ele><time>2026-04-30T08:35:32.008Z</time></trkpt><trkpt lat="42.506923029354375" lon="11.390557906323838"><ele>164.0</ele><time>2026-04-30T08:35:33.008Z</time></trkpt><trkpt lat="42.50701524038323" lon="11.390686378681334"><ele>166.0</ele><time>2026-04-30T08:35:34.008Z</time></trkpt><trkpt lat="42.5071085055095" lon="11.390791425356614"><ele>168.0</ele><time>2026-04-30T08:35:35.008Z</time></trkpt><trkpt lat="42.5072048907668" lon="11.390886069496302"><ele>170.0</ele><time>2026-04-30T08:35:36.008Z</time></trkpt><trkpt lat="42.50729892055934" lon="11.390966818528653"><ele>172.0</ele><time>2026-04-30T08:35:37.008Z</time></trkpt><trkpt lat="42.50739131675087" lon="11.391033610451425"><ele>172.0</ele><time>2026-04-30T08:35:38.008Z</time></trkpt><trkpt lat="42.50751455387661" lon="11.391106274377915"><ele>172.0</ele><time>2026-04-30T08:35:39.008Z</time></trkpt><trkpt lat="42.507631305742535" lon="11.39121905534232"><ele>172.0</ele><time>2026-04-30T08:35:40.008Z</time></trkpt><trkpt lat="42.50776230065224" lon="11.391344130022137"><ele>172.0</ele><time>2026-04-30T08:35:41.008Z</time></trkpt><trkpt lat="42.50789889513542" lon="11.391455794821837"><ele>171.2</ele><time>2026-04-30T08:35:42.008Z</time></trkpt><trkpt lat="42.50802522894018" lon="11.391571069441952"><ele>170.39999999999998</ele><time>2026-04-30T08:35:43.008Z</time></trkpt><trkpt lat="42.50810808905094" lon="11.3916850193316"><ele>169.60000000000002</ele><time>2026-04-30T08:35:44.008Z</time></trkpt><trkpt lat="42.508167919961515" lon="11.391790888494395"><ele>168.8</ele><time>2026-04-30T08:35:45.008Z</time></trkpt><trkpt lat="42.508205703093076" lon="11.39186504703048"><ele>168.0</ele><time>2026-04-30T08:35:46.008Z</time></trkpt><trkpt lat="42.50826304640625" lon="11.391920460520105"><ele>168.0</ele><time>2026-04-30T08:36:03.008Z</time></trkpt><trkpt lat="42.50840138486057" lon="11.391966545692082"><ele>168.0</ele><time>2026-04-30T08:36:05.008Z</time></trkpt><trkpt lat="42.50849582342929" lon="11.391995848294476"><ele>168.0</ele><time>2026-04-30T08:36:06.008Z</time></trkpt><trkpt lat="42.5085844101144" lon="11.39202617975499"><ele>168.0</ele><time>2026-04-30T08:36:07.008Z</time></trkpt><trkpt lat="42.508668419336374" lon="11.392074565611614"><ele>168.0</ele><time>2026-04-30T08:36:08.008Z</time></trkpt><trkpt lat="42.508746159503495" lon="11.392151755445187"><ele>167.2</ele><time>2026-04-30T08:36:09.008Z</time></trkpt><trkpt lat="42.508846882663924" lon="11.39222864586839"><ele>166.4</ele><time>2026-04-30T08:36:10.008Z</time></trkpt><trkpt lat="42.50894376951944" lon="11.392294158469722"><ele>165.6</ele><time>2026-04-30T08:36:11.008Z</time></trkpt><trkpt lat="42.50904396465204" lon="11.392327272607977"><ele>164.79999999999998</ele><time>2026-04-30T08:36:12.008Z</time></trkpt><trkpt lat="42.5091586633073" lon="11.392364159645362"><ele>164.0</ele><time>2026-04-30T08:36:13.009Z</time></trkpt><trkpt lat="42.50927143998911" lon="11.392403566913273"><ele>164.0</ele><time>2026-04-30T08:36:14.009Z</time></trkpt><trkpt lat="42.50938453880748" lon="11.392446424116338"><ele>164.0</ele><time>2026-04-30T08:36:15.009Z</time></trkpt><trkpt lat="42.509478811682115" lon="11.392507972049689"><ele>164.0</ele><time>2026-04-30T08:36:16.009Z</time></trkpt><trkpt lat="42.50955676852146" lon="11.392547033492"><ele>164.0</ele><time>2026-04-30T08:36:17.009Z</time></trkpt><trkpt lat="42.50962487168792" lon="11.392523873256007"><ele>164.0</ele><time>2026-04-30T08:36:18.009Z</time></trkpt><trkpt lat="42.50970517060582" lon="11.39247403522305"><ele>164.6</ele><time>2026-04-30T08:36:19.009Z</time></trkpt><trkpt lat="42.5097696337583" lon="11.392406241136847"><ele>165.2</ele><time>2026-04-30T08:36:20.009Z</time></trkpt><trkpt lat="42.50987161821221" lon="11.39234278789922"><ele>165.79999999999998</ele><time>2026-04-30T08:36:21.009Z</time></trkpt><trkpt lat="42.50997471324476" lon="11.392299267771765"><ele>166.39999999999998</ele><time>2026-04-30T08:36:22.009Z</time></trkpt><trkpt lat="42.510072195438426" lon="11.39225218618164"><ele>167.0</ele><time>2026-04-30T08:36:23.009Z</time></trkpt><trkpt lat="42.51016334550534" lon="11.392217829131111"><ele>167.0</ele><time>2026-04-30T08:36:24.009Z</time></trkpt><trkpt lat="42.510233987361765" lon="11.39221195002481"><ele>167.0</ele><time>2026-04-30T08:36:25.009Z</time></trkpt><trkpt lat="42.51029021190036" lon="11.39225517302816"><ele>167.0</ele><time>2026-04-30T08:36:26.009Z</time></trkpt><trkpt lat="42.51032866236088" lon="11.39232791150956"><ele>167.0</ele><time>2026-04-30T08:36:27.009Z</time></trkpt><trkpt lat="42.510372234525455" lon="11.392422058853114"><ele>167.0</ele><time>2026-04-30T08:36:28.009Z</time></trkpt><trkpt lat="42.51039449791481" lon="11.392525205543466"><ele>167.0</ele><time>2026-04-30T08:36:29.009Z</time></trkpt><trkpt lat="42.510414380382294" lon="11.392653830842589"><ele>165.75</ele><time>2026-04-30T08:36:30.009Z</time></trkpt><trkpt lat="42.51041988009456" lon="11.39279189118511"><ele>164.5</ele><time>2026-04-30T08:36:31.009Z</time></trkpt><trkpt lat="42.51041093262457" lon="11.392945877824307"><ele>163.25</ele><time>2026-04-30T08:36:32.009Z</time></trkpt><trkpt lat="42.51039380945356" lon="11.393142941499633"><ele>162.0</ele><time>2026-04-30T08:36:33.009Z</time></trkpt><trkpt lat="42.51036932675533" lon="11.393312050059114"><ele>162.0</ele><time>2026-04-30T08:36:34.009Z</time></trkpt><trkpt lat="42.510322308573386" lon="11.393465038109722"><ele>162.0</ele><time>2026-04-30T08:36:35.009Z</time></trkpt><trkpt lat="42.51026404826143" lon="11.39363249747386"><ele>162.0</ele><time>2026-04-30T08:36:36.009Z</time></trkpt><trkpt lat="42.51021228064646" lon="11.393817012648112"><ele>162.0</ele><time>2026-04-30T08:36:37.009Z</time></trkpt><trkpt lat="42.51016815400864" lon="11.393988834382137"><ele>162.2</ele><time>2026-04-30T08:36:38.009Z</time></trkpt><trkpt lat="42.51012829827498" lon="11.394150272593166"><ele>162.39999999999998</ele><time>2026-04-30T08:36:39.009Z</time></trkpt><trkpt lat="42.51010558182545" lon="11.394289787316636"><ele>162.60000000000002</ele><time>2026-04-30T08:36:40.009Z</time></trkpt><trkpt lat="42.510115290865926" lon="11.394387087552564"><ele>162.8</ele><time>2026-04-30T08:36:41.009Z</time></trkpt><trkpt lat="42.51014306382689" lon="11.394480159307724"><ele>163.0</ele><time>2026-04-30T08:36:42.009Z</time></trkpt><trkpt lat="42.510164543832154" lon="11.39463120932919"><ele>163.25</ele><time>2026-04-30T08:36:43.009Z</time></trkpt><trkpt lat="42.51020162700772" lon="11.394807055159227"><ele>163.5</ele><time>2026-04-30T08:36:44.009Z</time></trkpt><trkpt lat="42.51022603062229" lon="11.394973461375226"><ele>163.75</ele><time>2026-04-30T08:36:45.009Z</time></trkpt><trkpt lat="42.51024917583686" lon="11.395140599522168"><ele>164.0</ele><time>2026-04-30T08:36:46.009Z</time></trkpt><trkpt lat="42.51026805956009" lon="11.395311917783044"><ele>164.0</ele><time>2026-04-30T08:36:47.009Z</time></trkpt><trkpt lat="42.51028108021401" lon="11.395447564388352"><ele>164.0</ele><time>2026-04-30T08:36:48.009Z</time></trkpt><trkpt lat="42.51030329058029" lon="11.395538748183064"><ele>164.0</ele><time>2026-04-30T08:36:49.009Z</time></trkpt><trkpt lat="42.51033351473479" lon="11.395655106623172"><ele>164.0</ele><time>2026-04-30T08:36:50.009Z</time></trkpt><trkpt lat="42.51037260538211" lon="11.395788236508025"><ele>164.0</ele><time>2026-04-30T08:36:51.009Z</time></trkpt><trkpt lat="42.510423793862394" lon="11.395935334167088"><ele>163.0</ele><time>2026-04-30T08:36:52.009Z</time></trkpt><trkpt lat="42.510472095761386" lon="11.396077841105894"><ele>162.0</ele><time>2026-04-30T08:36:53.009Z</time></trkpt><trkpt lat="42.51049644895509" lon="11.396180175347057"><ele>161.0</ele><time>2026-04-30T08:36:54.009Z</time></trkpt><trkpt lat="42.51051387992106" lon="11.396312930351282"><ele>160.0</ele><time>2026-04-30T08:36:55.009Z</time></trkpt><trkpt lat="42.510529498788095" lon="11.396447721864469"><ele>159.0</ele><time>2026-04-30T08:36:56.009Z</time></trkpt><trkpt lat="42.510527548599065" lon="11.3966075017021"><ele>159.0</ele><time>2026-04-30T08:36:57.009Z</time></trkpt><trkpt lat="42.510525532692256" lon="11.396785475444576"><ele>159.0</ele><time>2026-04-30T08:36:58.009Z</time></trkpt><trkpt lat="42.51052158014249" lon="11.397002557536673"><ele>159.0</ele><time>2026-04-30T08:36:59.009Z</time></trkpt><trkpt lat="42.51053138314376" lon="11.397208523008661"><ele>159.0</ele><time>2026-04-30T08:37:00.009Z</time></trkpt><trkpt lat="42.51054101794897" lon="11.397388600890988"><ele>158.75</ele><time>2026-04-30T08:37:01.009Z</time></trkpt><trkpt lat="42.51054874832907" lon="11.397549061154852"><ele>158.5</ele><time>2026-04-30T08:37:02.009Z</time></trkpt><trkpt lat="42.510556142851165" lon="11.397698923845876"><ele>158.25</ele><time>2026-04-30T08:37:03.009Z</time></trkpt><trkpt lat="42.51054840669882" lon="11.397862608766193"><ele>158.0</ele><time>2026-04-30T08:37:04.009Z</time></trkpt><trkpt lat="42.51054331426808" lon="11.398037585425353"><ele>157.6</ele><time>2026-04-30T08:37:05.009Z</time></trkpt><trkpt lat="42.51054470190724" lon="11.398196350142378"><ele>157.20000000000002</ele><time>2026-04-30T08:37:06.009Z</time></trkpt><trkpt lat="42.51055553360804" lon="11.39833985142034"><ele>156.8</ele><time>2026-04-30T08:37:07.009Z</time></trkpt><trkpt lat="42.51057657528191" lon="11.398458028762294"><ele>156.4</ele><time>2026-04-30T08:37:08.009Z</time></trkpt><trkpt lat="42.51059660108438" lon="11.398570105952777"><ele>156.0</ele><time>2026-04-30T08:37:09.009Z</time></trkpt><trkpt lat="42.51062151164799" lon="11.398690682254683"><ele>155.75</ele><time>2026-04-30T08:37:10.009Z</time></trkpt><trkpt lat="42.51067203685907" lon="11.398834641448241"><ele>155.5</ele><time>2026-04-30T08:37:11.009Z</time></trkpt><trkpt lat="42.51071945045902" lon="11.399002267942397"><ele>155.25</ele><time>2026-04-30T08:37:12.009Z</time></trkpt><trkpt lat="42.510767638704735" lon="11.399165217108479"><ele>155.0</ele><time>2026-04-30T08:37:13.009Z</time></trkpt><trkpt lat="42.510821952007674" lon="11.399330502841146"><ele>155.0</ele><time>2026-04-30T08:37:14.009Z</time></trkpt><trkpt lat="42.51086118304333" lon="11.399443382657873"><ele>155.0</ele><time>2026-04-30T08:37:15.009Z</time></trkpt><trkpt lat="42.510875493094595" lon="11.399535454676712"><ele>155.0</ele><time>2026-04-30T08:37:16.009Z</time></trkpt><trkpt lat="42.510885501699946" lon="11.399655169828822"><ele>155.0</ele><time>2026-04-30T08:37:18.009Z</time></trkpt><trkpt lat="42.510870765527805" lon="11.399761724967924"><ele>155.0</ele><time>2026-04-30T08:37:20.009Z</time></trkpt><trkpt lat="42.51088753371676" lon="11.3999169724546"><ele>155.0</ele><time>2026-04-30T08:37:22.009Z</time></trkpt><trkpt lat="42.51093388408135" lon="11.400009541960804"><ele>153.8</ele><time>2026-04-30T08:37:23.009Z</time></trkpt><trkpt lat="42.51099992951611" lon="11.400116433769153"><ele>152.6</ele><time>2026-04-30T08:37:24.009Z</time></trkpt><trkpt lat="42.51108091754062" lon="11.400248375611307"><ele>151.4</ele><time>2026-04-30T08:37:25.009Z</time></trkpt><trkpt lat="42.5111463895873" lon="11.400376612526658"><ele>150.2</ele><time>2026-04-30T08:37:26.009Z</time></trkpt><trkpt lat="42.511199247503036" lon="11.400471681170202"><ele>149.0</ele><time>2026-04-30T08:37:27.009Z</time></trkpt><trkpt lat="42.5112534051169" lon="11.400559585861808"><ele>147.2</ele><time>2026-04-30T08:37:28.009Z</time></trkpt><trkpt lat="42.511312895991665" lon="11.400637853825398"><ele>145.4</ele><time>2026-04-30T08:37:29.009Z</time></trkpt><trkpt lat="42.511391063817754" lon="11.400714145979663"><ele>143.6</ele><time>2026-04-30T08:37:30.009Z</time></trkpt><trkpt lat="42.51144985102449" lon="11.400777369413811"><ele>141.8</ele><time>2026-04-30T08:37:31.009Z</time></trkpt><trkpt lat="42.511538580203855" lon="11.400837176987586"><ele>140.0</ele><time>2026-04-30T08:37:32.009Z</time></trkpt><trkpt lat="42.51164955791825" lon="11.400869956483293"><ele>140.0</ele><time>2026-04-30T08:37:33.009Z</time></trkpt><trkpt lat="42.51175282200823" lon="11.400873815348005"><ele>140.0</ele><time>2026-04-30T08:37:34.009Z</time></trkpt><trkpt lat="42.511837793058895" lon="11.400896456247247"><ele>140.0</ele><time>2026-04-30T08:37:35.009Z</time></trkpt><trkpt lat="42.511923400498944" lon="11.400931255502293"><ele>140.0</ele><time>2026-04-30T08:37:36.009Z</time></trkpt><trkpt lat="42.51201204242332" lon="11.400980803297035"><ele>140.0</ele><time>2026-04-30T08:37:37.009Z</time></trkpt><trkpt lat="42.51210435937888" lon="11.401037413366662"><ele>139.2</ele><time>2026-04-30T08:37:38.009Z</time></trkpt><trkpt lat="42.512212302686734" lon="11.401098701250957"><ele>138.4</ele><time>2026-04-30T08:37:39.009Z</time></trkpt><trkpt lat="42.51231597136258" lon="11.401134830701903"><ele>137.6</ele><time>2026-04-30T08:37:40.009Z</time></trkpt><trkpt lat="42.51241892648866" lon="11.40114904409023"><ele>136.8</ele><time>2026-04-30T08:37:41.009Z</time></trkpt><trkpt lat="42.51250840710297" lon="11.40115273234726"><ele>136.0</ele><time>2026-04-30T08:37:42.009Z</time></trkpt><trkpt lat="42.51258692131055" lon="11.401145185815487"><ele>136.0</ele><time>2026-04-30T08:37:43.009Z</time></trkpt><trkpt lat="42.512654422802946" lon="11.40113156651715"><ele>136.0</ele><time>2026-04-30T08:37:44.009Z</time></trkpt><trkpt lat="42.512723584163744" lon="11.401089237150742"><ele>136.0</ele><time>2026-04-30T08:37:45.009Z</time></trkpt><trkpt lat="42.512813652112584" lon="11.40106131925917"><ele>136.0</ele><time>2026-04-30T08:37:46.009Z</time></trkpt><trkpt lat="42.51291030355673" lon="11.401033479987857"><ele>136.0</ele><time>2026-04-30T08:37:47.009Z</time></trkpt><trkpt lat="42.51299787593439" lon="11.401016419832544"><ele>136.0</ele><time>2026-04-30T08:37:48.009Z</time></trkpt><trkpt lat="42.513109942495" lon="11.401030325146506"><ele>136.2</ele><time>2026-04-30T08:37:50.01Z</time></trkpt><trkpt lat="42.513183547623825" lon="11.401127623211265"><ele>136.39999999999998</ele><time>2026-04-30T08:37:52.01Z</time></trkpt><trkpt lat="42.51323225875157" lon="11.401241680026214"><ele>136.6</ele><time>2026-04-30T08:37:55.01Z</time></trkpt><trkpt lat="42.51329172563659" lon="11.401300328050368"><ele>136.79999999999998</ele><time>2026-04-30T08:37:56.01Z</time></trkpt><trkpt lat="42.513367484804654" lon="11.40135011014029"><ele>137.0</ele><time>2026-04-30T08:37:57.01Z</time></trkpt><trkpt lat="42.513464326436015" lon="11.401392917384792"><ele>137.0</ele><time>2026-04-30T08:37:58.01Z</time></trkpt><trkpt lat="42.513572534823915" lon="11.401440445731433"><ele>137.0</ele><time>2026-04-30T08:37:59.01Z</time></trkpt><trkpt lat="42.51368193552731" lon="11.401478449036095"><ele>137.0</ele><time>2026-04-30T08:38:00.01Z</time></trkpt><trkpt lat="42.51377180072362" lon="11.401507607824708"><ele>137.0</ele><time>2026-04-30T08:38:01.01Z</time></trkpt><trkpt lat="42.51386283468878" lon="11.401529768292734"><ele>137.0</ele><time>2026-04-30T08:38:02.01Z</time></trkpt><trkpt lat="42.51395254556108" lon="11.401546792287268"><ele>135.0</ele><time>2026-04-30T08:38:03.01Z</time></trkpt><trkpt lat="42.514053994842385" lon="11.401574786866083"><ele>133.0</ele><time>2026-04-30T08:38:05.01Z</time></trkpt><trkpt lat="42.514165192714536" lon="11.401600207356015"><ele>131.0</ele><time>2026-04-30T08:38:07.01Z</time></trkpt><trkpt lat="42.5142469977341" lon="11.401635267675294"><ele>129.0</ele><time>2026-04-30T08:38:08.01Z</time></trkpt><trkpt lat="42.51431768057183" lon="11.401667236892388"><ele>127.0</ele><time>2026-04-30T08:38:09.01Z</time></trkpt><trkpt lat="42.51439380382618" lon="11.401716653266037"><ele>127.0</ele><time>2026-04-30T08:38:10.01Z</time></trkpt><trkpt lat="42.51446610655508" lon="11.40180777066318"><ele>126.99999999999999</ele><time>2026-04-30T08:38:11.01Z</time></trkpt><trkpt lat="42.51450303826762" lon="11.401883740251494"><ele>126.99999999999999</ele><time>2026-04-30T08:38:12.01Z</time></trkpt><trkpt lat="42.514527648848" lon="11.402007452891947"><ele>127.0</ele><time>2026-04-30T08:38:14.01Z</time></trkpt><trkpt lat="42.51456219222035" lon="11.402166745007621"><ele>127.0</ele><time>2026-04-30T08:38:16.01Z</time></trkpt><trkpt lat="42.51459718409187" lon="11.402328453984298"><ele>124.8</ele><time>2026-04-30T08:38:18.01Z</time></trkpt><trkpt lat="42.51464729725478" lon="11.40246249576044"><ele>122.6</ele><time>2026-04-30T08:38:20.01Z</time></trkpt><trkpt lat="42.51468532419801" lon="11.402575557922729"><ele>120.39999999999999</ele><time>2026-04-30T08:38:22.01Z</time></trkpt><trkpt lat="42.51469466148672" lon="11.402708964619345"><ele>118.19999999999999</ele><time>2026-04-30T08:38:24.01Z</time></trkpt><trkpt lat="42.514710804809944" lon="11.402846391188174"><ele>116.0</ele><time>2026-04-30T08:38:26.01Z</time></trkpt><trkpt lat="42.51468891370897" lon="11.40303253582358"><ele>115.99999999999999</ele><time>2026-04-30T08:38:28.01Z</time></trkpt><trkpt lat="42.51468509009308" lon="11.403119335831414"><ele>116.0</ele><time>2026-04-30T08:38:29.01Z</time></trkpt><trkpt lat="42.51469419443211" lon="11.403227099045296"><ele>116.0</ele><time>2026-04-30T08:38:31.01Z</time></trkpt><trkpt lat="42.51471096521555" lon="11.403332768909038"><ele>116.0</ele><time>2026-04-30T08:38:33.01Z</time></trkpt><trkpt lat="42.51478096158157" lon="11.403409369850783"><ele>115.99999999999999</ele><time>2026-04-30T08:38:35.01Z</time></trkpt><trkpt lat="42.51485158931957" lon="11.403437347197382"><ele>116.0</ele><time>2026-04-30T08:38:37.01Z</time></trkpt><trkpt lat="42.51493082097037" lon="11.403461672713012"><ele>115.99999999999999</ele><time>2026-04-30T08:38:38.01Z</time></trkpt><trkpt lat="42.51502033814746" lon="11.403480457844996"><ele>116.0</ele><time>2026-04-30T08:38:39.01Z</time></trkpt><trkpt lat="42.51511005515174" lon="11.403490609364335"><ele>116.0</ele><time>2026-04-30T08:38:40.01Z</time></trkpt><trkpt lat="42.51520319930598" lon="11.403520683430543"><ele>116.0</ele><time>2026-04-30T08:38:41.01Z</time></trkpt><trkpt lat="42.515270129499456" lon="11.403533402890238"><ele>115.99999999999999</ele><time>2026-04-30T08:38:42.01Z</time></trkpt><trkpt lat="42.51533299202193" lon="11.403556271851704"><ele>116.0</ele><time>2026-04-30T08:38:43.01Z</time></trkpt><trkpt lat="42.515410781653216" lon="11.40358283467084"><ele>115.4</ele><time>2026-04-30T08:38:44.01Z</time></trkpt><trkpt lat="42.51549760252576" lon="11.403575995023571"><ele>114.8</ele><time>2026-04-30T08:38:45.01Z</time></trkpt><trkpt lat="42.515587472921744" lon="11.403570504206352"><ele>114.20000000000002</ele><time>2026-04-30T08:38:46.01Z</time></trkpt><trkpt lat="42.51569082602272" lon="11.403577298627019"><ele>113.60000000000001</ele><time>2026-04-30T08:38:47.01Z</time></trkpt><trkpt lat="42.515785058569755" lon="11.403579399379256"><ele>113.0</ele><time>2026-04-30T08:38:48.01Z</time></trkpt><trkpt lat="42.51587627405918" lon="11.403589875019227"><ele>113.0</ele><time>2026-04-30T08:38:49.01Z</time></trkpt><trkpt lat="42.515974130104865" lon="11.403612430449366"><ele>113.00000000000001</ele><time>2026-04-30T08:38:50.01Z</time></trkpt><trkpt lat="42.51608476193298" lon="11.403629234107097"><ele>113.00000000000001</ele><time>2026-04-30T08:38:51.01Z</time></trkpt><trkpt lat="42.51619006949052" lon="11.403659206650675"><ele>113.0</ele><time>2026-04-30T08:38:52.01Z</time></trkpt><trkpt lat="42.51630739826896" lon="11.403691648287035"><ele>113.0</ele><time>2026-04-30T08:38:53.01Z</time></trkpt><trkpt lat="42.51640937600681" lon="11.403723662224703"><ele>112.16666666666666</ele><time>2026-04-30T08:38:54.01Z</time></trkpt><trkpt lat="42.51649544640761" lon="11.40374829498314"><ele>111.33333333333333</ele><time>2026-04-30T08:38:55.01Z</time></trkpt><trkpt lat="42.51655942746477" lon="11.403766669283906"><ele>110.5</ele><time>2026-04-30T08:38:56.01Z</time></trkpt><trkpt lat="42.51664706471655" lon="11.403794272222598"><ele>109.66666666666666</ele><time>2026-04-30T08:38:58.01Z</time></trkpt><trkpt lat="42.516739442042514" lon="11.403825805895716"><ele>108.83333333333333</ele><time>2026-04-30T08:39:00.01Z</time></trkpt><trkpt lat="42.51681176097377" lon="11.403842155615433"><ele>108.0</ele><time>2026-04-30T08:39:01.01Z</time></trkpt><trkpt lat="42.516884016843555" lon="11.403851018936532"><ele>108.0</ele><time>2026-04-30T08:39:02.01Z</time></trkpt><trkpt lat="42.516950775651836" lon="11.403846728588436"><ele>108.0</ele><time>2026-04-30T08:39:03.01Z</time></trkpt><trkpt lat="42.51703268837008" lon="11.403836979977346"><ele>108.0</ele><time>2026-04-30T08:39:04.01Z</time></trkpt><trkpt lat="42.51710883497227" lon="11.403821889108452"><ele>108.0</ele><time>2026-04-30T08:39:05.01Z</time></trkpt><trkpt lat="42.51717232946852" lon="11.403840185972976"><ele>108.0</ele><time>2026-04-30T08:39:06.01Z</time></trkpt><trkpt lat="42.51724917857939" lon="11.403874067090216"><ele>108.0</ele><time>2026-04-30T08:39:07.01Z</time></trkpt><trkpt lat="42.517314726612696" lon="11.403894712187785"><ele>108.0</ele><time>2026-04-30T08:39:08.01Z</time></trkpt><trkpt lat="42.51738776279358" lon="11.403896912157776"><ele>108.2</ele><time>2026-04-30T08:39:09.01Z</time></trkpt><trkpt lat="42.51749424585913" lon="11.403911689508432"><ele>108.4</ele><time>2026-04-30T08:39:11.01Z</time></trkpt><trkpt lat="42.51756088802494" lon="11.403939590672842"><ele>108.60000000000001</ele><time>2026-04-30T08:39:13.01Z</time></trkpt><trkpt lat="42.517597388000944" lon="11.404092006793476"><ele>108.80000000000001</ele><time>2026-04-30T08:39:38.011Z</time></trkpt><trkpt lat="42.517590649504974" lon="11.40418729082339"><ele>109.0</ele><time>2026-04-30T08:39:39.011Z</time></trkpt><trkpt lat="42.51760153341409" lon="11.404308563450348"><ele>109.0</ele><time>2026-04-30T08:39:40.011Z</time></trkpt><trkpt lat="42.51759793591808" lon="11.404459957736496"><ele>109.0</ele><time>2026-04-30T08:39:41.011Z</time></trkpt><trkpt lat="42.51763885864566" lon="11.404610153702244"><ele>109.0</ele><time>2026-04-30T08:39:42.011Z</time></trkpt><trkpt lat="42.51766857429571" lon="11.404763844852956"><ele>109.0</ele><time>2026-04-30T08:39:43.011Z</time></trkpt><trkpt lat="42.51770476925548" lon="11.404929356329543"><ele>108.4</ele><time>2026-04-30T08:39:44.011Z</time></trkpt><trkpt lat="42.51774110815005" lon="11.405057573362772"><ele>107.80000000000001</ele><time>2026-04-30T08:39:45.011Z</time></trkpt><trkpt lat="42.517781548997164" lon="11.405187091059874"><ele>107.19999999999999</ele><time>2026-04-30T08:39:46.011Z</time></trkpt><trkpt lat="42.51782881401298" lon="11.405339427020241"><ele>106.6</ele><time>2026-04-30T08:39:47.011Z</time></trkpt><trkpt lat="42.517872187069734" lon="11.405485669986621"><ele>106.0</ele><time>2026-04-30T08:39:48.011Z</time></trkpt><trkpt lat="42.51791466843239" lon="11.405626735344853"><ele>104.4</ele><time>2026-04-30T08:39:49.011Z</time></trkpt><trkpt lat="42.517951215198956" lon="11.405774441571685"><ele>102.8</ele><time>2026-04-30T08:39:50.011Z</time></trkpt><trkpt lat="42.51798570894127" lon="11.405907922167408"><ele>101.2</ele><time>2026-04-30T08:39:51.011Z</time></trkpt><trkpt lat="42.518001933044054" lon="11.406031328232734"><ele>99.60000000000001</ele><time>2026-04-30T08:39:52.011Z</time></trkpt><trkpt lat="42.51802979032186" lon="11.406131276519165"><ele>98.0</ele><time>2026-04-30T08:39:53.011Z</time></trkpt><trkpt lat="42.51804973771623" lon="11.406223868545542"><ele>96.2</ele><time>2026-04-30T08:39:54.011Z</time></trkpt><trkpt lat="42.518027612527334" lon="11.4063792975254"><ele>94.4</ele><time>2026-04-30T08:39:56.011Z</time></trkpt><trkpt lat="42.518025513094905" lon="11.406485648240343"><ele>92.60000000000001</ele><time>2026-04-30T08:39:57.011Z</time></trkpt><trkpt lat="42.51794406819854" lon="11.40658307417765"><ele>90.80000000000001</ele><time>2026-04-30T08:39:58.011Z</time></trkpt><trkpt lat="42.51790449558574" lon="11.40669952637594"><ele>89.0</ele><time>2026-04-30T08:39:59.011Z</time></trkpt><trkpt lat="42.5178677991232" lon="11.406801220438755"><ele>89.0</ele><time>2026-04-30T08:40:00.011Z</time></trkpt><trkpt lat="42.517833418869586" lon="11.406932600967203"><ele>89.0</ele><time>2026-04-30T08:40:01.011Z</time></trkpt><trkpt lat="42.51778625344047" lon="11.40704192404386"><ele>89.0</ele><time>2026-04-30T08:40:02.011Z</time></trkpt><trkpt lat="42.51772845684045" lon="11.407135257151673"><ele>89.0</ele><time>2026-04-30T08:40:03.011Z</time></trkpt><trkpt lat="42.51768788570814" lon="11.407256956451253"><ele>89.0</ele><time>2026-04-30T08:40:04.011Z</time></trkpt><trkpt lat="42.51767611024866" lon="11.407364935058972"><ele>88.4</ele><time>2026-04-30T08:40:05.011Z</time></trkpt><trkpt lat="42.51769784052402" lon="11.40749215846784"><ele>87.80000000000001</ele><time>2026-04-30T08:40:07.011Z</time></trkpt><trkpt lat="42.517755348747805" lon="11.407547764427804"><ele>87.19999999999999</ele><time>2026-04-30T08:40:08.011Z</time></trkpt><trkpt lat="42.51781960595901" lon="11.40763587936278"><ele>86.6</ele><time>2026-04-30T08:40:09.011Z</time></trkpt><trkpt lat="42.51792354493623" lon="11.407719685391553"><ele>86.0</ele><time>2026-04-30T08:40:10.011Z</time></trkpt><trkpt lat="42.51806228262222" lon="11.407850304311394"><ele>84.33333333333334</ele><time>2026-04-30T08:40:11.011Z</time></trkpt><trkpt lat="42.518202932587386" lon="11.40795603063136"><ele>82.66666666666667</ele><time>2026-04-30T08:40:12.011Z</time></trkpt><trkpt lat="42.51833651435508" lon="11.408074398780302"><ele>81.0</ele><time>2026-04-30T08:40:13.011Z</time></trkpt><trkpt lat="42.5184487822401" lon="11.40820361521818"><ele>81.0</ele><time>2026-04-30T08:40:14.011Z</time></trkpt><trkpt lat="42.518547166892205" lon="11.408294346284961"><ele>81.0</ele><time>2026-04-30T08:40:15.011Z</time></trkpt><trkpt lat="42.51868889897999" lon="11.408405324924608"><ele>81.0</ele><time>2026-04-30T08:40:16.011Z</time></trkpt><trkpt lat="42.51879192687112" lon="11.408487924460708"><ele>81.0</ele><time>2026-04-30T08:40:17.011Z</time></trkpt><trkpt lat="42.51888765562903" lon="11.408561405950921"><ele>80.39999999999999</ele><time>2026-04-30T08:40:18.011Z</time></trkpt><trkpt lat="42.51896600039443" lon="11.408662792856644"><ele>79.8</ele><time>2026-04-30T08:40:19.011Z</time></trkpt><trkpt lat="42.51903625711372" lon="11.408746712668242"><ele>79.19999999999999</ele><time>2026-04-30T08:40:20.011Z</time></trkpt><trkpt lat="42.51910784912543" lon="11.408841637951197"><ele>78.6</ele><time>2026-04-30T08:40:21.011Z</time></trkpt><trkpt lat="42.51915338958675" lon="11.408988301975706"><ele>78.0</ele><time>2026-04-30T08:40:22.011Z</time></trkpt><trkpt lat="42.51924312728837" lon="11.409099172208853"><ele>77.75</ele><time>2026-04-30T08:40:23.011Z</time></trkpt><trkpt lat="42.51935650591071" lon="11.409193679566233"><ele>77.5</ele><time>2026-04-30T08:40:24.011Z</time></trkpt><trkpt lat="42.51947606596832" lon="11.409309032668869"><ele>77.25</ele><time>2026-04-30T08:40:25.011Z</time></trkpt><trkpt lat="42.51959867884727" lon="11.409366946832602"><ele>77.0</ele><time>2026-04-30T08:40:26.011Z</time></trkpt><trkpt lat="42.51974001623553" lon="11.409474814785401"><ele>76.0</ele><time>2026-04-30T08:40:27.011Z</time></trkpt><trkpt lat="42.51986772404975" lon="11.40960325074003"><ele>75.0</ele><time>2026-04-30T08:40:28.011Z</time></trkpt><trkpt lat="42.520019571620125" lon="11.409701662431818"><ele>74.0</ele><time>2026-04-30T08:40:29.011Z</time></trkpt><trkpt lat="42.520143270756776" lon="11.409803615774772"><ele>74.0</ele><time>2026-04-30T08:40:30.011Z</time></trkpt><trkpt lat="42.52027311744704" lon="11.409905062475685"><ele>74.0</ele><time>2026-04-30T08:40:31.011Z</time></trkpt><trkpt lat="42.52040862255972" lon="11.41001301191417"><ele>74.0</ele><time>2026-04-30T08:40:32.011Z</time></trkpt><trkpt lat="42.52054719870383" lon="11.410116310032297"><ele>73.5</ele><time>2026-04-30T08:40:33.011Z</time></trkpt><trkpt lat="42.520688864174325" lon="11.410224781441665"><ele>73.0</ele><time>2026-04-30T08:40:34.011Z</time></trkpt><trkpt lat="42.520825525057795" lon="11.4103250056063"><ele>72.5</ele><time>2026-04-30T08:40:35.011Z</time></trkpt><trkpt lat="42.52094101301483" lon="11.410405857799487"><ele>72.0</ele><time>2026-04-30T08:40:36.011Z</time></trkpt><trkpt lat="42.52104105021591" lon="11.410489114367595"><ele>71.5</ele><time>2026-04-30T08:40:37.011Z</time></trkpt><trkpt lat="42.52115775512243" lon="11.410576580487477"><ele>71.0</ele><time>2026-04-30T08:40:38.011Z</time></trkpt><trkpt lat="42.521278261709526" lon="11.4106958086733"><ele>70.5</ele><time>2026-04-30T08:40:39.011Z</time></trkpt><trkpt lat="42.52139348697364" lon="11.410793810995125"><ele>70.0</ele><time>2026-04-30T08:40:40.011Z</time></trkpt><trkpt lat="42.521513148057196" lon="11.410894454018539"><ele>70.0</ele><time>2026-04-30T08:40:41.011Z</time></trkpt><trkpt lat="42.521629706508065" lon="11.41098212866393"><ele>70.0</ele><time>2026-04-30T08:40:42.011Z</time></trkpt><trkpt lat="42.52179466454258" lon="11.411086302078179"><ele>70.0</ele><time>2026-04-30T08:40:43.011Z</time></trkpt><trkpt lat="42.52191481365198" lon="11.411174853452067"><ele>70.0</ele><time>2026-04-30T08:40:44.011Z</time></trkpt><trkpt lat="42.522003839023895" lon="11.411253720526839"><ele>70.0</ele><time>2026-04-30T08:40:45.011Z</time></trkpt><trkpt lat="42.52207231087252" lon="11.411280266060068"><ele>70.0</ele><time>2026-04-30T08:40:46.011Z</time></trkpt><trkpt lat="42.52215746663584" lon="11.411374475774407"><ele>70.0</ele><time>2026-04-30T08:40:47.986Z</time></trkpt><trkpt lat="42.522200025581455" lon="11.41144223614711"><ele>70.0</ele><time>2026-04-30T08:40:49.986Z</time></trkpt><trkpt lat="42.522132726343465" lon="11.411490482953612"><ele>70.0</ele><time>2026-04-30T08:40:52.986Z</time></trkpt><trkpt lat="42.5219866018977" lon="11.411569412015858"><ele>69.75</ele><time>2026-04-30T08:40:54.986Z</time></trkpt><trkpt lat="42.52187240526897" lon="11.41168944442601"><ele>69.5</ele><time>2026-04-30T08:40:55.986Z</time></trkpt><trkpt lat="42.52175506535458" lon="11.411771401367757"><ele>69.25</ele><time>2026-04-30T08:40:56.986Z</time></trkpt><trkpt lat="42.52164880504748" lon="11.411897937813485"><ele>69.0</ele><time>2026-04-30T08:40:57.986Z</time></trkpt><trkpt lat="42.52152042420702" lon="11.412018095118038"><ele>69.0</ele><time>2026-04-30T08:40:58.986Z</time></trkpt><trkpt lat="42.52139930046639" lon="11.41214366536258"><ele>69.0</ele><time>2026-04-30T08:40:59.986Z</time></trkpt><trkpt lat="42.521272678465586" lon="11.41229101963916"><ele>69.0</ele><time>2026-04-30T08:41:00.986Z</time></trkpt><trkpt lat="42.52115238410034" lon="11.412450194892262"><ele>69.0</ele><time>2026-04-30T08:41:01.986Z</time></trkpt><trkpt lat="42.52103345153807" lon="11.412619233117464"><ele>69.0</ele><time>2026-04-30T08:41:02.986Z</time></trkpt><trkpt lat="42.52092001026783" lon="11.41279549574846"><ele>69.0</ele><time>2026-04-30T08:41:03.986Z</time></trkpt><trkpt lat="42.520803005341925" lon="11.412969658756706"><ele>70.0</ele><time>2026-04-30T08:41:04.986Z</time></trkpt><trkpt lat="42.5206697767649" lon="11.4131463389118"><ele>71.0</ele><time>2026-04-30T08:41:05.986Z</time></trkpt><trkpt lat="42.52054023947345" lon="11.413322013213136"><ele>72.0</ele><time>2026-04-30T08:41:06.986Z</time></trkpt><trkpt lat="42.520406108842245" lon="11.413495591170733"><ele>72.66666666666667</ele><time>2026-04-30T08:41:07.986Z</time></trkpt><trkpt lat="42.52026557165347" lon="11.413673684117352"><ele>73.33333333333334</ele><time>2026-04-30T08:41:08.986Z</time></trkpt><trkpt lat="42.52013957263931" lon="11.413840356079435"><ele>74.0</ele><time>2026-04-30T08:41:09.986Z</time></trkpt><trkpt lat="42.52001778100899" lon="11.414000051544825"><ele>74.33333333333334</ele><time>2026-04-30T08:41:10.986Z</time></trkpt><trkpt lat="42.51989532469023" lon="11.414153880695588"><ele>74.66666666666667</ele><time>2026-04-30T08:41:11.986Z</time></trkpt><trkpt lat="42.519773449099894" lon="11.414298726171824"><ele>75.0</ele><time>2026-04-30T08:41:12.986Z</time></trkpt><trkpt lat="42.5196615253929" lon="11.414441299082315"><ele>75.33333333333333</ele><time>2026-04-30T08:41:13.986Z</time></trkpt><trkpt lat="42.51954813070971" lon="11.414591597237516"><ele>75.66666666666666</ele><time>2026-04-30T08:41:14.986Z</time></trkpt><trkpt lat="42.51943795322731" lon="11.41474089187942"><ele>76.0</ele><time>2026-04-30T08:41:15.986Z</time></trkpt><trkpt lat="42.51933118498221" lon="11.41488059640867"><ele>75.5</ele><time>2026-04-30T08:41:16.986Z</time></trkpt><trkpt lat="42.519221085096646" lon="11.41501852277122"><ele>75.0</ele><time>2026-04-30T08:41:17.986Z</time></trkpt><trkpt lat="42.519120903936845" lon="11.415151919795022"><ele>74.5</ele><time>2026-04-30T08:41:18.986Z</time></trkpt><trkpt lat="42.51902566965585" lon="11.41528078236177"><ele>74.0</ele><time>2026-04-30T08:41:19.986Z</time></trkpt><trkpt lat="42.51892343215015" lon="11.415418522593212"><ele>74.0</ele><time>2026-04-30T08:41:20.986Z</time></trkpt><trkpt lat="42.51882634021654" lon="11.415550964607727"><ele>74.0</ele><time>2026-04-30T08:41:21.986Z</time></trkpt><trkpt lat="42.51870994545628" lon="11.415661625301365"><ele>74.0</ele><time>2026-04-30T08:41:22.986Z</time></trkpt><trkpt lat="42.51859361450953" lon="11.415799186010794"><ele>74.0</ele><time>2026-04-30T08:41:23.986Z</time></trkpt><trkpt lat="42.51846922886611" lon="11.415942408751636"><ele>73.66666666666667</ele><time>2026-04-30T08:41:24.986Z</time></trkpt><trkpt lat="42.51833941170482" lon="11.416091885521872"><ele>73.33333333333333</ele><time>2026-04-30T08:41:25.986Z</time></trkpt><trkpt lat="42.51820260811761" lon="11.416251678922954"><ele>73.0</ele><time>2026-04-30T08:41:26.986Z</time></trkpt><trkpt lat="42.51807279250238" lon="11.416404027870186"><ele>73.0</ele><time>2026-04-30T08:41:27.986Z</time></trkpt><trkpt lat="42.51795320034171" lon="11.416544378410892"><ele>73.0</ele><time>2026-04-30T08:41:28.986Z</time></trkpt><trkpt lat="42.51783362606418" lon="11.416681775034624"><ele>73.0</ele><time>2026-04-30T08:41:29.986Z</time></trkpt><trkpt lat="42.517710697455875" lon="11.416815732238112"><ele>74.0</ele><time>2026-04-30T08:41:30.986Z</time></trkpt><trkpt lat="42.51758173069299" lon="11.416952189798323"><ele>75.0</ele><time>2026-04-30T08:41:31.986Z</time></trkpt><trkpt lat="42.51745351631946" lon="11.417085506109798"><ele>76.0</ele><time>2026-04-30T08:41:32.986Z</time></trkpt><trkpt lat="42.51731993413456" lon="11.417223254591956"><ele>76.5</ele><time>2026-04-30T08:41:33.984Z</time></trkpt><trkpt lat="42.51720534203273" lon="11.41734142072808"><ele>77.0</ele><time>2026-04-30T08:41:34.984Z</time></trkpt><trkpt lat="42.517098509774605" lon="11.417451584980174"><ele>77.5</ele><time>2026-04-30T08:41:35.984Z</time></trkpt><trkpt lat="42.51700112076123" lon="11.417565580236674"><ele>78.0</ele><time>2026-04-30T08:41:36.984Z</time></trkpt><trkpt lat="42.516905464945665" lon="11.417698671625113"><ele>78.25</ele><time>2026-04-30T08:41:37.984Z</time></trkpt><trkpt lat="42.51683170555435" lon="11.417860193186613"><ele>78.5</ele><time>2026-04-30T08:41:38.984Z</time></trkpt><trkpt lat="42.516754861352126" lon="11.418014006135742"><ele>78.75</ele><time>2026-04-30T08:41:39.985Z</time></trkpt><trkpt lat="42.51669084653108" lon="11.418190371787952"><ele>79.0</ele><time>2026-04-30T08:41:40.984Z</time></trkpt><trkpt lat="42.51662524996283" lon="11.418373421628033"><ele>80.25</ele><time>2026-04-30T08:41:41.984Z</time></trkpt><trkpt lat="42.516543375630434" lon="11.418524440806198"><ele>81.5</ele><time>2026-04-30T08:41:42.984Z</time></trkpt><trkpt lat="42.51648237298637" lon="11.418666740419875"><ele>82.75</ele><time>2026-04-30T08:41:43.985Z</time></trkpt><trkpt lat="42.51644166176286" lon="11.418789634027569"><ele>84.0</ele><time>2026-04-30T08:41:44.985Z</time></trkpt><trkpt lat="42.51642246460579" lon="11.418919463894834"><ele>84.0</ele><time>2026-04-30T08:41:45.984Z</time></trkpt><trkpt lat="42.51638291870327" lon="11.419052129760335"><ele>84.0</ele><time>2026-04-30T08:41:46.985Z</time></trkpt><trkpt lat="42.51636397594134" lon="11.419144956838549"><ele>84.0</ele><time>2026-04-30T08:41:47.985Z</time></trkpt><trkpt lat="42.51635401575122" lon="11.419257255920634"><ele>84.0</ele><time>2026-04-30T08:41:48.985Z</time></trkpt><trkpt lat="42.51633966449667" lon="11.419343152671944"><ele>84.0</ele><time>2026-04-30T08:41:49.985Z</time></trkpt><trkpt lat="42.5163240327822" lon="11.419502373322814"><ele>84.0</ele><time>2026-04-30T08:41:51.985Z</time></trkpt><trkpt lat="42.51632219841176" lon="11.41960964347435"><ele>83.75</ele><time>2026-04-30T08:41:52.985Z</time></trkpt><trkpt lat="42.51631217974641" lon="11.419749319923946"><ele>83.5</ele><time>2026-04-30T08:41:53.985Z</time></trkpt><trkpt lat="42.51628581213826" lon="11.41991464261807"><ele>83.25</ele><time>2026-04-30T08:41:54.985Z</time></trkpt><trkpt lat="42.51624619246384" lon="11.420069365364485"><ele>83.0</ele><time>2026-04-30T08:41:55.985Z</time></trkpt><trkpt lat="42.516196757161204" lon="11.42022823075457"><ele>82.25</ele><time>2026-04-30T08:41:56.985Z</time></trkpt><trkpt lat="42.51615469694365" lon="11.420405642831778"><ele>81.5</ele><time>2026-04-30T08:41:57.985Z</time></trkpt><trkpt lat="42.51612606011275" lon="11.420579444645409"><ele>80.75</ele><time>2026-04-30T08:41:58.985Z</time></trkpt><trkpt lat="42.51610514262913" lon="11.42073633814077"><ele>80.0</ele><time>2026-04-30T08:41:59.985Z</time></trkpt><trkpt lat="42.51609085918768" lon="11.420857316249155"><ele>79.33333333333334</ele><time>2026-04-30T08:42:00.985Z</time></trkpt><trkpt lat="42.516073696654594" lon="11.420963903333622"><ele>78.66666666666667</ele><time>2026-04-30T08:42:01.985Z</time></trkpt><trkpt lat="42.51606353060887" lon="11.421052504366452"><ele>78.0</ele><time>2026-04-30T08:42:02.985Z</time></trkpt><trkpt lat="42.51606423826142" lon="11.421184251667055"><ele>77.33333333333333</ele><time>2026-04-30T08:42:04.985Z</time></trkpt><trkpt lat="42.516034551797226" lon="11.42126458089096"><ele>76.66666666666666</ele><time>2026-04-30T08:42:05.985Z</time></trkpt><trkpt lat="42.515958649152616" lon="11.421318573826817"><ele>76.0</ele><time>2026-04-30T08:42:06.985Z</time></trkpt><trkpt lat="42.51590275722848" lon="11.421397890094308"><ele>76.0</ele><time>2026-04-30T08:42:07.985Z</time></trkpt><trkpt lat="42.51583574823586" lon="11.421494585927054"><ele>76.0</ele><time>2026-04-30T08:42:08.985Z</time></trkpt><trkpt lat="42.51575213076441" lon="11.421615806664619"><ele>76.0</ele><time>2026-04-30T08:42:09.985Z</time></trkpt><trkpt lat="42.51566824498906" lon="11.42173571808112"><ele>76.0</ele><time>2026-04-30T08:42:10.985Z</time></trkpt><trkpt lat="42.515589801529245" lon="11.421855219759966"><ele>76.0</ele><time>2026-04-30T08:42:11.985Z</time></trkpt><trkpt lat="42.5155071317498" lon="11.421977060775276"><ele>76.0</ele><time>2026-04-30T08:42:12.985Z</time></trkpt><trkpt lat="42.51543254857947" lon="11.422085758611876"><ele>76.0</ele><time>2026-04-30T08:42:13.985Z</time></trkpt><trkpt lat="42.51536294227614" lon="11.422186360450883"><ele>76.0</ele><time>2026-04-30T08:42:14.985Z</time></trkpt><trkpt lat="42.515293672314506" lon="11.422281529377624"><ele>76.0</ele><time>2026-04-30T08:42:15.985Z</time></trkpt><trkpt lat="42.51522955174238" lon="11.422384228981551"><ele>75.0</ele><time>2026-04-30T08:42:16.985Z</time></trkpt><trkpt lat="42.51517855579409" lon="11.42248112817077"><ele>74.0</ele><time>2026-04-30T08:42:17.985Z</time></trkpt><trkpt lat="42.51513531494776" lon="11.422585591966412"><ele>73.0</ele><time>2026-04-30T08:42:18.985Z</time></trkpt><trkpt lat="42.51508544937023" lon="11.422699683006211"><ele>72.0</ele><time>2026-04-30T08:42:19.985Z</time></trkpt><trkpt lat="42.515048299443826" lon="11.422826843136432"><ele>71.0</ele><time>2026-04-30T08:42:20.985Z</time></trkpt><trkpt lat="42.514995311844" lon="11.422945795900924"><ele>71.2</ele><time>2026-04-30T08:42:21.985Z</time></trkpt><trkpt lat="42.51494286781106" lon="11.423086077654668"><ele>71.39999999999999</ele><time>2026-04-30T08:42:22.985Z</time></trkpt><trkpt lat="42.514892539201284" lon="11.423233101173114"><ele>71.6</ele><time>2026-04-30T08:42:23.985Z</time></trkpt><trkpt lat="42.51485882269535" lon="11.423368623868228"><ele>71.8</ele><time>2026-04-30T08:42:24.985Z</time></trkpt><trkpt lat="42.514820931447595" lon="11.423490341561239"><ele>72.0</ele><time>2026-04-30T08:42:25.985Z</time></trkpt><trkpt lat="42.514785341542726" lon="11.423610209971727"><ele>72.0</ele><time>2026-04-30T08:42:26.985Z</time></trkpt><trkpt lat="42.51473530593873" lon="11.423732318022742"><ele>72.0</ele><time>2026-04-30T08:42:27.985Z</time></trkpt><trkpt lat="42.51468281934004" lon="11.423837181494783"><ele>72.0</ele><time>2026-04-30T08:42:28.985Z</time></trkpt><trkpt lat="42.51462747559445" lon="11.423958571075383"><ele>72.0</ele><time>2026-04-30T08:42:29.985Z</time></trkpt><trkpt lat="42.51457567546739" lon="11.424080681307226"><ele>72.0</ele><time>2026-04-30T08:42:30.985Z</time></trkpt><trkpt lat="42.514520448173805" lon="11.42420252418651"><ele>70.25</ele><time>2026-04-30T08:42:31.985Z</time></trkpt><trkpt lat="42.51445858941099" lon="11.424309328341348"><ele>68.5</ele><time>2026-04-30T08:42:32.985Z</time></trkpt><trkpt lat="42.514377793595905" lon="11.424411835189106"><ele>66.75</ele><time>2026-04-30T08:42:33.985Z</time></trkpt><trkpt lat="42.51426790524697" lon="11.424485863169032"><ele>65.0</ele><time>2026-04-30T08:42:34.985Z</time></trkpt><trkpt lat="42.514161600190306" lon="11.42457370194792"><ele>64.5</ele><time>2026-04-30T08:42:35.985Z</time></trkpt><trkpt lat="42.51404642687386" lon="11.424677354822904"><ele>64.0</ele><time>2026-04-30T08:42:36.985Z</time></trkpt><trkpt lat="42.51394803079078" lon="11.424809175123835"><ele>63.5</ele><time>2026-04-30T08:42:37.985Z</time></trkpt><trkpt lat="42.51384388134776" lon="11.4249289011774"><ele>63.0</ele><time>2026-04-30T08:42:38.985Z</time></trkpt><trkpt lat="42.51374345337098" lon="11.425054368113651"><ele>63.0</ele><time>2026-04-30T08:42:39.985Z</time></trkpt><trkpt lat="42.513654264355374" lon="11.42518128543852"><ele>63.0</ele><time>2026-04-30T08:42:40.985Z</time></trkpt><trkpt lat="42.51357033784191" lon="11.425314800975821"><ele>63.0</ele><time>2026-04-30T08:42:41.985Z</time></trkpt><trkpt lat="42.51348763933834" lon="11.425453200595802"><ele>63.0</ele><time>2026-04-30T08:42:42.985Z</time></trkpt><trkpt lat="42.5134118598565" lon="11.425581690114427"><ele>63.0</ele><time>2026-04-30T08:42:43.985Z</time></trkpt><trkpt lat="42.513340777907395" lon="11.425706960808125"><ele>63.0</ele><time>2026-04-30T08:42:44.985Z</time></trkpt><trkpt lat="42.513281854239644" lon="11.425820946031115"><ele>63.0</ele><time>2026-04-30T08:42:45.985Z</time></trkpt><trkpt lat="42.51319241310883" lon="11.425937235190608"><ele>63.0</ele><time>2026-04-30T08:42:46.985Z</time></trkpt><trkpt lat="42.51311635798381" lon="11.426084795516202"><ele>63.0</ele><time>2026-04-30T08:42:47.985Z</time></trkpt><trkpt lat="42.513047072846746" lon="11.426243354378025"><ele>63.0</ele><time>2026-04-30T08:42:48.985Z</time></trkpt><trkpt lat="42.512985239788755" lon="11.426409493227007"><ele>63.0</ele><time>2026-04-30T08:42:49.985Z</time></trkpt><trkpt lat="42.512916527515294" lon="11.426575996633453"><ele>63.0</ele><time>2026-04-30T08:42:50.986Z</time></trkpt><trkpt lat="42.51285030650175" lon="11.426735413839545"><ele>63.5</ele><time>2026-04-30T08:42:51.986Z</time></trkpt><trkpt lat="42.51277827744686" lon="11.426876749450098"><ele>64.0</ele><time>2026-04-30T08:42:52.986Z</time></trkpt><trkpt lat="42.51270704131658" lon="11.426980069689884"><ele>64.5</ele><time>2026-04-30T08:42:53.986Z</time></trkpt><trkpt lat="42.512630505466966" lon="11.427075043650769"><ele>65.0</ele><time>2026-04-30T08:42:54.986Z</time></trkpt><trkpt lat="42.51250978303844" lon="11.427171136485002"><ele>65.0</ele><time>2026-04-30T08:42:55.986Z</time></trkpt><trkpt lat="42.512377695633695" lon="11.42727126296869"><ele>65.0</ele><time>2026-04-30T08:42:56.986Z</time></trkpt><trkpt lat="42.5122829044595" lon="11.427391532775157"><ele>65.0</ele><time>2026-04-30T08:42:57.986Z</time></trkpt><trkpt lat="42.51220000478829" lon="11.427506302154635"><ele>65.0</ele><time>2026-04-30T08:42:58.986Z</time></trkpt><trkpt lat="42.51214120213918" lon="11.427622495025501"><ele>65.0</ele><time>2026-04-30T08:42:59.986Z</time></trkpt><trkpt lat="42.51216468240975" lon="11.427744960818842"><ele>65.0</ele><time>2026-04-30T08:43:00.986Z</time></trkpt><trkpt lat="42.512180325162525" lon="11.427870254762784"><ele>65.0</ele><time>2026-04-30T08:43:01.986Z</time></trkpt><trkpt lat="42.51224866813295" lon="11.42797548925702"><ele>65.0</ele><time>2026-04-30T08:43:02.986Z</time></trkpt><trkpt lat="42.51232103853675" lon="11.428055347126298"><ele>65.0</ele><time>2026-04-30T08:43:03.986Z</time></trkpt><trkpt lat="42.51240349539165" lon="11.428166965452052"><ele>65.0</ele><time>2026-04-30T08:43:04.986Z</time></trkpt><trkpt lat="42.512498060794414" lon="11.428294661051444"><ele>65.0</ele><time>2026-04-30T08:43:05.986Z</time></trkpt><trkpt lat="42.5125824314682" lon="11.428412681655203"><ele>65.0</ele><time>2026-04-30T08:43:06.986Z</time></trkpt><trkpt lat="42.51264014812437" lon="11.428532634686327"><ele>65.0</ele><time>2026-04-30T08:43:07.986Z</time></trkpt><trkpt lat="42.51268590124475" lon="11.428649627998832"><ele>65.0</ele><time>2026-04-30T08:43:08.986Z</time></trkpt><trkpt lat="42.51270393330239" lon="11.428775392058546"><ele>65.0</ele><time>2026-04-30T08:43:09.986Z</time></trkpt><trkpt lat="42.51266864550181" lon="11.428904775051839"><ele>65.0</ele><time>2026-04-30T08:43:10.986Z</time></trkpt><trkpt lat="42.51263564930121" lon="11.429062112138066"><ele>65.0</ele><time>2026-04-30T08:43:11.986Z</time></trkpt><trkpt lat="42.512589300972266" lon="11.429237394420944"><ele>65.0</ele><time>2026-04-30T08:43:12.986Z</time></trkpt><trkpt lat="42.51254777230333" lon="11.429437062412731"><ele>65.0</ele><time>2026-04-30T08:43:13.986Z</time></trkpt><trkpt lat="42.51250269142149" lon="11.429662148442965"><ele>65.0</ele><time>2026-04-30T08:43:14.986Z</time></trkpt><trkpt lat="42.51245910784248" lon="11.429863335750806"><ele>65.75</ele><time>2026-04-30T08:43:15.986Z</time></trkpt><trkpt lat="42.512417773294025" lon="11.43006294142156"><ele>66.5</ele><time>2026-04-30T08:43:16.986Z</time></trkpt><trkpt lat="42.512389058981995" lon="11.430256480717864"><ele>67.25</ele><time>2026-04-30T08:43:17.986Z</time></trkpt><trkpt lat="42.512327424870556" lon="11.43043702108796"><ele>68.0</ele><time>2026-04-30T08:43:18.986Z</time></trkpt><trkpt lat="42.51229026143971" lon="11.430612761118741"><ele>68.75</ele><time>2026-04-30T08:43:19.986Z</time></trkpt><trkpt lat="42.51225786985479" lon="11.430778317453672"><ele>69.5</ele><time>2026-04-30T08:43:20.986Z</time></trkpt><trkpt lat="42.51222552623844" lon="11.430952398394318"><ele>70.25</ele><time>2026-04-30T08:43:21.986Z</time></trkpt><trkpt lat="42.51219560226754" lon="11.431118282317343"><ele>71.0</ele><time>2026-04-30T08:43:22.986Z</time></trkpt><trkpt lat="42.51216143179694" lon="11.431265494745581"><ele>71.6</ele><time>2026-04-30T08:43:23.986Z</time></trkpt><trkpt lat="42.51212555699277" lon="11.431403887855467"><ele>72.19999999999999</ele><time>2026-04-30T08:43:24.986Z</time></trkpt><trkpt lat="42.51209134400025" lon="11.431533594087039"><ele>72.80000000000001</ele><time>2026-04-30T08:43:25.986Z</time></trkpt><trkpt lat="42.51205515142976" lon="11.431664007742919"><ele>73.4</ele><time>2026-04-30T08:43:26.986Z</time></trkpt><trkpt lat="42.51202713188955" lon="11.431805884626574"><ele>74.0</ele><time>2026-04-30T08:43:27.986Z</time></trkpt><trkpt lat="42.511998683698984" lon="11.431970616490625"><ele>75.0</ele><time>2026-04-30T08:43:28.986Z</time></trkpt><trkpt lat="42.511966940392625" lon="11.432137127705971"><ele>76.0</ele><time>2026-04-30T08:43:29.986Z</time></trkpt><trkpt lat="42.5119333196612" lon="11.432318642565967"><ele>77.0</ele><time>2026-04-30T08:43:30.986Z</time></trkpt><trkpt lat="42.511896673881374" lon="11.432500107221841"><ele>78.0</ele><time>2026-04-30T08:43:31.986Z</time></trkpt><trkpt lat="42.511847566297895" lon="11.432684766335353"><ele>78.0</ele><time>2026-04-30T08:43:32.986Z</time></trkpt><trkpt lat="42.51179416520571" lon="11.43286558455688"><ele>78.0</ele><time>2026-04-30T08:43:33.986Z</time></trkpt><trkpt lat="42.51173910028436" lon="11.433043451933875"><ele>78.0</ele><time>2026-04-30T08:43:34.986Z</time></trkpt><trkpt lat="42.51168294797951" lon="11.433215270750567"><ele>78.0</ele><time>2026-04-30T08:43:35.986Z</time></trkpt><trkpt lat="42.511618717906174" lon="11.43339118568985"><ele>78.25</ele><time>2026-04-30T08:43:36.986Z</time></trkpt><trkpt lat="42.511555740948495" lon="11.433568773161964"><ele>78.5</ele><time>2026-04-30T08:43:37.986Z</time></trkpt><trkpt lat="42.51150401838111" lon="11.433735088630984"><ele>78.75</ele><time>2026-04-30T08:43:38.986Z</time></trkpt><trkpt lat="42.51143950828655" lon="11.43388068147347"><ele>79.0</ele><time>2026-04-30T08:43:39.984Z</time></trkpt><trkpt lat="42.5113996000377" lon="11.43404814442988"><ele>79.75</ele><time>2026-04-30T08:43:40.984Z</time></trkpt><trkpt lat="42.51133478065799" lon="11.434171735495974"><ele>80.5</ele><time>2026-04-30T08:43:41.984Z</time></trkpt><trkpt lat="42.51129013261777" lon="11.4342998601316"><ele>81.25</ele><time>2026-04-30T08:43:42.984Z</time></trkpt><trkpt lat="42.51124465832671" lon="11.434435606145552"><ele>82.0</ele><time>2026-04-30T08:43:43.984Z</time></trkpt><trkpt lat="42.51118404243062" lon="11.4345934527292"><ele>80.5</ele><time>2026-04-30T08:43:44.984Z</time></trkpt><trkpt lat="42.511120123086286" lon="11.43475823405752"><ele>79.0</ele><time>2026-04-30T08:43:45.984Z</time></trkpt><trkpt lat="42.51106071053931" lon="11.434918723372736"><ele>77.5</ele><time>2026-04-30T08:43:46.984Z</time></trkpt><trkpt lat="42.511004746262934" lon="11.435072222365795"><ele>76.0</ele><time>2026-04-30T08:43:47.984Z</time></trkpt><trkpt lat="42.510943832602855" lon="11.435231466413216"><ele>76.0</ele><time>2026-04-30T08:43:48.984Z</time></trkpt><trkpt lat="42.51087932922151" lon="11.435385224702427"><ele>76.0</ele><time>2026-04-30T08:43:49.983Z</time></trkpt><trkpt lat="42.51082016835767" lon="11.43552660698815"><ele>76.0</ele><time>2026-04-30T08:43:50.983Z</time></trkpt><trkpt lat="42.51076838118417" lon="11.43566911051208"><ele>76.0</ele><time>2026-04-30T08:43:51.984Z</time></trkpt><trkpt lat="42.51072380254506" lon="11.435788342403248"><ele>76.66666666666666</ele><time>2026-04-30T08:43:52.984Z</time></trkpt><trkpt lat="42.51068695635701" lon="11.435871019394122"><ele>77.33333333333333</ele><time>2026-04-30T08:43:53.984Z</time></trkpt><trkpt lat="42.51069472749417" lon="11.435978903216425"><ele>78.0</ele><time>2026-04-30T08:43:55.984Z</time></trkpt><trkpt lat="42.51077761811378" lon="11.435999795127186"><ele>78.66666666666667</ele><time>2026-04-30T08:43:57.984Z</time></trkpt><trkpt lat="42.51085601214261" lon="11.435976131644113"><ele>79.33333333333334</ele><time>2026-04-30T08:43:58.984Z</time></trkpt><trkpt lat="42.510965465018806" lon="11.435895861818155"><ele>80.0</ele><time>2026-04-30T08:43:59.984Z</time></trkpt><trkpt lat="42.51107357909861" lon="11.435803336391022"><ele>80.0</ele><time>2026-04-30T08:44:00.984Z</time></trkpt><trkpt lat="42.51121175081331" lon="11.435713797317687"><ele>80.0</ele><time>2026-04-30T08:44:01.984Z</time></trkpt><trkpt lat="42.51137881061936" lon="11.435612302426014"><ele>80.0</ele><time>2026-04-30T08:44:02.984Z</time></trkpt><trkpt lat="42.51154382508573" lon="11.435506766487302"><ele>79.33333333333334</ele><time>2026-04-30T08:44:03.984Z</time></trkpt><trkpt lat="42.51170731131882" lon="11.435395366782396"><ele>78.66666666666667</ele><time>2026-04-30T08:44:04.984Z</time></trkpt><trkpt lat="42.5118613894514" lon="11.435303658909206"><ele>78.0</ele><time>2026-04-30T08:44:05.984Z</time></trkpt><trkpt lat="42.51200498985739" lon="11.435252531296069"><ele>78.5</ele><time>2026-04-30T08:44:06.984Z</time></trkpt><trkpt lat="42.51214661863009" lon="11.435159191360604"><ele>79.0</ele><time>2026-04-30T08:44:07.984Z</time></trkpt><trkpt lat="42.512274575539706" lon="11.435077465698061"><ele>79.5</ele><time>2026-04-30T08:44:08.984Z</time></trkpt><trkpt lat="42.51239721681527" lon="11.434998766585982"><ele>80.0</ele><time>2026-04-30T08:44:09.984Z</time></trkpt><trkpt lat="42.512512241069025" lon="11.434929038705256"><ele>80.0</ele><time>2026-04-30T08:44:10.984Z</time></trkpt><trkpt lat="42.51263014674993" lon="11.434852198253692"><ele>80.0</ele><time>2026-04-30T08:44:11.984Z</time></trkpt><trkpt lat="42.512736669284955" lon="11.434785318436573"><ele>80.0</ele><time>2026-04-30T08:44:12.984Z</time></trkpt><trkpt lat="42.51283822912312" lon="11.43472208689555"><ele>80.0</ele><time>2026-04-30T08:44:13.984Z</time></trkpt><trkpt lat="42.51295636577714" lon="11.43465093604164"><ele>80.0</ele><time>2026-04-30T08:44:14.984Z</time></trkpt><trkpt lat="42.513107479540814" lon="11.434565214683046"><ele>80.0</ele><time>2026-04-30T08:44:15.984Z</time></trkpt><trkpt lat="42.51322902183718" lon="11.43448566135314"><ele>80.0</ele><time>2026-04-30T08:44:16.984Z</time></trkpt><trkpt lat="42.51335572065723" lon="11.434408315770563"><ele>80.0</ele><time>2026-04-30T08:44:17.984Z</time></trkpt><trkpt lat="42.513460483599054" lon="11.434341766734136"><ele>80.0</ele><time>2026-04-30T08:44:18.984Z</time></trkpt><trkpt lat="42.51355822264484" lon="11.434280636495995"><ele>80.0</ele><time>2026-04-30T08:44:19.984Z</time></trkpt><trkpt lat="42.513664999080135" lon="11.434215579205892"><ele>80.0</ele><time>2026-04-30T08:44:20.984Z</time></trkpt><trkpt lat="42.51377655604003" lon="11.434179251421753"><ele>80.0</ele><time>2026-04-30T08:44:21.984Z</time></trkpt><trkpt lat="42.5138895014605" lon="11.434120392442965"><ele>79.75</ele><time>2026-04-30T08:44:22.984Z</time></trkpt><trkpt lat="42.51402233810527" lon="11.434076302914965"><ele>79.5</ele><time>2026-04-30T08:44:23.984Z</time></trkpt><trkpt lat="42.51415357569371" lon="11.43404597373072"><ele>79.25</ele><time>2026-04-30T08:44:24.984Z</time></trkpt><trkpt lat="42.514294565735746" lon="11.434036696167796"><ele>79.0</ele><time>2026-04-30T08:44:25.984Z</time></trkpt><trkpt lat="42.51443697167013" lon="11.434068948881418"><ele>79.0</ele><time>2026-04-30T08:44:26.984Z</time></trkpt><trkpt lat="42.51457074095508" lon="11.434097714058614"><ele>79.0</ele><time>2026-04-30T08:44:27.984Z</time></trkpt><trkpt lat="42.514698658831826" lon="11.434128644690471"><ele>79.0</ele><time>2026-04-30T08:44:28.984Z</time></trkpt><trkpt lat="42.51483966966164" lon="11.434162271184166"><ele>79.0</ele><time>2026-04-30T08:44:29.984Z</time></trkpt><trkpt lat="42.514983672971155" lon="11.434186210798075"><ele>78.75</ele><time>2026-04-30T08:44:30.984Z</time></trkpt><trkpt lat="42.51513136478712" lon="11.43422167679568"><ele>78.5</ele><time>2026-04-30T08:44:31.984Z</time></trkpt><trkpt lat="42.51528423833946" lon="11.434251782451232"><ele>78.25</ele><time>2026-04-30T08:44:32.984Z</time></trkpt><trkpt lat="42.51542711788283" lon="11.43428438084185"><ele>78.0</ele><time>2026-04-30T08:44:33.984Z</time></trkpt><trkpt lat="42.515580994153005" lon="11.434334489326954"><ele>77.0</ele><time>2026-04-30T08:44:34.984Z</time></trkpt><trkpt lat="42.515727011642085" lon="11.434366716963881"><ele>76.0</ele><time>2026-04-30T08:44:35.984Z</time></trkpt><trkpt lat="42.51588583488664" lon="11.434401770974407"><ele>75.0</ele><time>2026-04-30T08:44:36.984Z</time></trkpt><trkpt lat="42.51599255306711" lon="11.434425642486298"><ele>74.0</ele><time>2026-04-30T08:44:37.984Z</time></trkpt><trkpt lat="42.51610852287058" lon="11.43445035367738"><ele>74.0</ele><time>2026-04-30T08:44:38.984Z</time></trkpt><trkpt lat="42.516223403878364" lon="11.43447430540035"><ele>74.0</ele><time>2026-04-30T08:44:39.984Z</time></trkpt><trkpt lat="42.516352342991915" lon="11.434479460483457"><ele>74.0</ele><time>2026-04-30T08:44:40.984Z</time></trkpt><trkpt lat="42.5164768048243" lon="11.434537125163152"><ele>74.0</ele><time>2026-04-30T08:44:41.984Z</time></trkpt><trkpt lat="42.516610458725815" lon="11.43455721900084"><ele>75.25</ele><time>2026-04-30T08:44:42.984Z</time></trkpt><trkpt lat="42.51672913956204" lon="11.43458406661869"><ele>76.5</ele><time>2026-04-30T08:44:43.984Z</time></trkpt><trkpt lat="42.51685004691541" lon="11.434609122255074"><ele>77.75</ele><time>2026-04-30T08:44:44.984Z</time></trkpt><trkpt lat="42.516964302652866" lon="11.434644222608913"><ele>79.0</ele><time>2026-04-30T08:44:45.984Z</time></trkpt><trkpt lat="42.51707629227796" lon="11.434665624284314"><ele>80.4</ele><time>2026-04-30T08:44:46.984Z</time></trkpt><trkpt lat="42.517190530527515" lon="11.43467624160471"><ele>81.80000000000001</ele><time>2026-04-30T08:44:47.984Z</time></trkpt><trkpt lat="42.517304677572895" lon="11.43469582704436"><ele>83.19999999999999</ele><time>2026-04-30T08:44:48.984Z</time></trkpt><trkpt lat="42.51740173089554" lon="11.43472442122886"><ele>84.6</ele><time>2026-04-30T08:44:49.984Z</time></trkpt><trkpt lat="42.51748720460389" lon="11.434739571396234"><ele>86.0</ele><time>2026-04-30T08:44:50.984Z</time></trkpt><trkpt lat="42.5175556054371" lon="11.434763739115601"><ele>86.0</ele><time>2026-04-30T08:44:51.984Z</time></trkpt><trkpt lat="42.51761616120084" lon="11.434791510300517"><ele>86.0</ele><time>2026-04-30T08:44:53.984Z</time></trkpt><trkpt lat="42.517542850858085" lon="11.435085573018563"><ele>86.0</ele><time>2026-04-30T08:44:56.984Z</time></trkpt><trkpt lat="42.51765728884736" lon="11.435213715382785"><ele>86.0</ele><time>2026-04-30T08:44:57.984Z</time></trkpt><trkpt lat="42.51770257597078" lon="11.435382210389758"><ele>86.75</ele><time>2026-04-30T08:44:58.984Z</time></trkpt><trkpt lat="42.51774184325552" lon="11.43557007856173"><ele>87.5</ele><time>2026-04-30T08:44:59.984Z</time></trkpt><trkpt lat="42.51778425883476" lon="11.435733925592768"><ele>88.25</ele><time>2026-04-30T08:45:00.984Z</time></trkpt><trkpt lat="42.517827420714916" lon="11.435912532725593"><ele>89.0</ele><time>2026-04-30T08:45:01.984Z</time></trkpt><trkpt lat="42.517868880445995" lon="11.436084289462249"><ele>88.80000000000001</ele><time>2026-04-30T08:45:02.984Z</time></trkpt><trkpt lat="42.51790745457679" lon="11.436236379724965"><ele>88.60000000000001</ele><time>2026-04-30T08:45:03.984Z</time></trkpt><trkpt lat="42.51794237599562" lon="11.436378729293725"><ele>88.4</ele><time>2026-04-30T08:45:04.984Z</time></trkpt><trkpt lat="42.517978190143374" lon="11.436515095165232"><ele>88.2</ele><time>2026-04-30T08:45:05.984Z</time></trkpt><trkpt lat="42.518011722702006" lon="11.436647826553173"><ele>88.0</ele><time>2026-04-30T08:45:06.984Z</time></trkpt><trkpt lat="42.51804493791544" lon="11.436781660692919"><ele>88.60000000000001</ele><time>2026-04-30T08:45:07.984Z</time></trkpt><trkpt lat="42.51807082682786" lon="11.436906708738633"><ele>89.2</ele><time>2026-04-30T08:45:08.984Z</time></trkpt><trkpt lat="42.51808509717741" lon="11.43703581008533"><ele>89.8</ele><time>2026-04-30T08:45:09.984Z</time></trkpt><trkpt lat="42.51807887366372" lon="11.43716735245364"><ele>90.4</ele><time>2026-04-30T08:45:10.984Z</time></trkpt><trkpt lat="42.5180182584011" lon="11.43729007418288"><ele>91.0</ele><time>2026-04-30T08:45:11.984Z</time></trkpt><trkpt lat="42.5179443971721" lon="11.437421385903315"><ele>91.5</ele><time>2026-04-30T08:45:12.984Z</time></trkpt><trkpt lat="42.517865423002" lon="11.43755313842892"><ele>92.0</ele><time>2026-04-30T08:45:13.984Z</time></trkpt><trkpt lat="42.51777871730369" lon="11.4376942105459"><ele>92.5</ele><time>2026-04-30T08:45:14.984Z</time></trkpt><trkpt lat="42.51768117565404" lon="11.437851854068304"><ele>93.0</ele><time>2026-04-30T08:45:15.984Z</time></trkpt><trkpt lat="42.51759243701604" lon="11.437995269927544"><ele>93.0</ele><time>2026-04-30T08:45:16.984Z</time></trkpt><trkpt lat="42.51754203679517" lon="11.438120205262779"><ele>93.0</ele><time>2026-04-30T08:45:17.984Z</time></trkpt><trkpt lat="42.517466962847806" lon="11.43823769546833"><ele>93.0</ele><time>2026-04-30T08:45:18.984Z</time></trkpt><trkpt lat="42.51739308574915" lon="11.438377246970118"><ele>93.0</ele><time>2026-04-30T08:45:19.984Z</time></trkpt><trkpt lat="42.51732662082999" lon="11.438530618704242"><ele>93.0</ele><time>2026-04-30T08:45:20.985Z</time></trkpt><trkpt lat="42.51728590619733" lon="11.438701927118615"><ele>93.0</ele><time>2026-04-30T08:45:21.985Z</time></trkpt><trkpt lat="42.517252025950334" lon="11.438878142057566"><ele>93.0</ele><time>2026-04-30T08:45:22.985Z</time></trkpt><trkpt lat="42.51722019160575" lon="11.439025730478921"><ele>93.0</ele><time>2026-04-30T08:45:23.985Z</time></trkpt><trkpt lat="42.517190929410326" lon="11.439158371694106"><ele>93.25</ele><time>2026-04-30T08:45:24.985Z</time></trkpt><trkpt lat="42.517163865349275" lon="11.439277004538889"><ele>93.5</ele><time>2026-04-30T08:45:25.985Z</time></trkpt><trkpt lat="42.517119725239915" lon="11.439420143030425"><ele>93.75</ele><time>2026-04-30T08:45:26.985Z</time></trkpt><trkpt lat="42.517084111609954" lon="11.439574748924734"><ele>94.0</ele><time>2026-04-30T08:45:27.985Z</time></trkpt><trkpt lat="42.51704853812365" lon="11.439740130122141"><ele>93.75</ele><time>2026-04-30T08:45:28.985Z</time></trkpt><trkpt lat="42.51700445220474" lon="11.439916888327476"><ele>93.5</ele><time>2026-04-30T08:45:29.985Z</time></trkpt><trkpt lat="42.51695521652811" lon="11.440114258497747"><ele>93.25</ele><time>2026-04-30T08:45:30.985Z</time></trkpt><trkpt lat="42.51691049179347" lon="11.440301168002641"><ele>93.0</ele><time>2026-04-30T08:45:31.985Z</time></trkpt><trkpt lat="42.516856469541466" lon="11.440492537299983"><ele>93.0</ele><time>2026-04-30T08:45:32.985Z</time></trkpt><trkpt lat="42.51680441702243" lon="11.440693537007965"><ele>93.0</ele><time>2026-04-30T08:45:33.985Z</time></trkpt><trkpt lat="42.51676018523566" lon="11.440870861387472"><ele>93.0</ele><time>2026-04-30T08:45:34.985Z</time></trkpt><trkpt lat="42.51671302954235" lon="11.441025631382152"><ele>93.0</ele><time>2026-04-30T08:45:35.985Z</time></trkpt><trkpt lat="42.516651654354334" lon="11.441174331902575"><ele>93.0</ele><time>2026-04-30T08:45:36.985Z</time></trkpt><trkpt lat="42.51660674910641" lon="11.441347904701543"><ele>93.0</ele><time>2026-04-30T08:45:37.985Z</time></trkpt><trkpt lat="42.5165610903046" lon="11.441524007778986"><ele>93.0</ele><time>2026-04-30T08:45:38.985Z</time></trkpt><trkpt lat="42.51651417075966" lon="11.44170447751002"><ele>93.0</ele><time>2026-04-30T08:45:39.985Z</time></trkpt><trkpt lat="42.51646195304931" lon="11.44189895898143"><ele>93.0</ele><time>2026-04-30T08:45:40.985Z</time></trkpt><trkpt lat="42.516412603592926" lon="11.442084222942185"><ele>93.0</ele><time>2026-04-30T08:45:41.985Z</time></trkpt><trkpt lat="42.51636971709968" lon="11.442249012593782"><ele>93.0</ele><time>2026-04-30T08:45:42.985Z</time></trkpt><trkpt lat="42.51632905422454" lon="11.442405258068087"><ele>93.0</ele><time>2026-04-30T08:45:43.985Z</time></trkpt><trkpt lat="42.51628740023234" lon="11.442558274947455"><ele>93.5</ele><time>2026-04-30T08:45:44.985Z</time></trkpt><trkpt lat="42.51625624203949" lon="11.442722717367896"><ele>94.0</ele><time>2026-04-30T08:45:45.982Z</time></trkpt><trkpt lat="42.51618791064007" lon="11.442872251745218"><ele>94.5</ele><time>2026-04-30T08:45:46.982Z</time></trkpt><trkpt lat="42.51614013194126" lon="11.443040711076371"><ele>95.0</ele><time>2026-04-30T08:45:47.982Z</time></trkpt><trkpt lat="42.51608143276255" lon="11.443214426677795"><ele>95.0</ele><time>2026-04-30T08:45:48.982Z</time></trkpt><trkpt lat="42.516009586936576" lon="11.44339876087349"><ele>95.0</ele><time>2026-04-30T08:45:49.982Z</time></trkpt><trkpt lat="42.51594181626498" lon="11.443578845551968"><ele>95.0</ele><time>2026-04-30T08:45:50.982Z</time></trkpt><trkpt lat="42.51587715833936" lon="11.443754539202402"><ele>95.0</ele><time>2026-04-30T08:45:51.982Z</time></trkpt><trkpt lat="42.51580530384285" lon="11.44392283819373"><ele>94.25</ele><time>2026-04-30T08:45:52.983Z</time></trkpt><trkpt lat="42.51573199371108" lon="11.444095242368935"><ele>93.5</ele><time>2026-04-30T08:45:53.983Z</time></trkpt><trkpt lat="42.51567248813066" lon="11.444263133504531"><ele>92.75</ele><time>2026-04-30T08:45:54.982Z</time></trkpt><trkpt lat="42.515604480685035" lon="11.444424543056764"><ele>92.0</ele><time>2026-04-30T08:45:55.982Z</time></trkpt><trkpt lat="42.51554219185159" lon="11.444586692654466"><ele>93.0</ele><time>2026-04-30T08:45:56.982Z</time></trkpt><trkpt lat="42.51545189646835" lon="11.44473322076255"><ele>94.0</ele><time>2026-04-30T08:45:57.983Z</time></trkpt><trkpt lat="42.51538887688897" lon="11.444891999769412"><ele>95.0</ele><time>2026-04-30T08:45:58.982Z</time></trkpt><trkpt lat="42.51533073641664" lon="11.445058855156775"><ele>96.0</ele><time>2026-04-30T08:45:59.982Z</time></trkpt><trkpt lat="42.51526952523062" lon="11.445227453096097"><ele>96.0</ele><time>2026-04-30T08:46:00.982Z</time></trkpt><trkpt lat="42.51520741963803" lon="11.445400842181476"><ele>96.0</ele><time>2026-04-30T08:46:01.982Z</time></trkpt><trkpt lat="42.51514270135633" lon="11.445569909866165"><ele>96.0</ele><time>2026-04-30T08:46:02.982Z</time></trkpt><trkpt lat="42.515081201284985" lon="11.445730542482648"><ele>96.0</ele><time>2026-04-30T08:46:03.982Z</time></trkpt><trkpt lat="42.51502613804047" lon="11.445877150004048"><ele>95.5</ele><time>2026-04-30T08:46:04.982Z</time></trkpt><trkpt lat="42.51497135921102" lon="11.446020997935566"><ele>95.0</ele><time>2026-04-30T08:46:05.982Z</time></trkpt><trkpt lat="42.51491573411041" lon="11.446170039649024"><ele>94.5</ele><time>2026-04-30T08:46:06.982Z</time></trkpt><trkpt lat="42.51485484806393" lon="11.446319554825811"><ele>94.0</ele><time>2026-04-30T08:46:07.982Z</time></trkpt><trkpt lat="42.51479135167405" lon="11.446471214094434"><ele>94.75</ele><time>2026-04-30T08:46:08.982Z</time></trkpt><trkpt lat="42.51472861210371" lon="11.446609069435603"><ele>95.5</ele><time>2026-04-30T08:46:09.982Z</time></trkpt><trkpt lat="42.51466048429248" lon="11.446762970400703"><ele>96.25</ele><time>2026-04-30T08:46:10.982Z</time></trkpt><trkpt lat="42.514583006748644" lon="11.446929025128005"><ele>97.0</ele><time>2026-04-30T08:46:11.982Z</time></trkpt><trkpt lat="42.51450093504329" lon="11.447093968681708"><ele>96.0</ele><time>2026-04-30T08:46:12.982Z</time></trkpt><trkpt lat="42.51441467536777" lon="11.447241857047675"><ele>95.0</ele><time>2026-04-30T08:46:13.982Z</time></trkpt><trkpt lat="42.514329530328084" lon="11.447387453673747"><ele>94.0</ele><time>2026-04-30T08:46:14.982Z</time></trkpt><trkpt lat="42.51424205998614" lon="11.4475320264697"><ele>93.0</ele><time>2026-04-30T08:46:15.982Z</time></trkpt><trkpt lat="42.51415718241016" lon="11.447671514020739"><ele>93.0</ele><time>2026-04-30T08:46:16.982Z</time></trkpt><trkpt lat="42.514075265188644" lon="11.447803764914196"><ele>93.0</ele><time>2026-04-30T08:46:17.982Z</time></trkpt><trkpt lat="42.513996581616716" lon="11.44793427176735"><ele>93.0</ele><time>2026-04-30T08:46:18.982Z</time></trkpt><trkpt lat="42.51391429861751" lon="11.448083329547131"><ele>93.0</ele><time>2026-04-30T08:46:19.982Z</time></trkpt><trkpt lat="42.51384868990042" lon="11.448201427919882"><ele>93.25</ele><time>2026-04-30T08:46:20.982Z</time></trkpt><trkpt lat="42.51376568718648" lon="11.448284581465863"><ele>93.5</ele><time>2026-04-30T08:46:21.982Z</time></trkpt><trkpt lat="42.513692448784134" lon="11.448398945396656"><ele>93.75</ele><time>2026-04-30T08:46:22.982Z</time></trkpt><trkpt lat="42.513618317007676" lon="11.448528086696886"><ele>94.0</ele><time>2026-04-30T08:46:23.982Z</time></trkpt><trkpt lat="42.513542321432666" lon="11.448662997964625"><ele>94.5</ele><time>2026-04-30T08:46:24.982Z</time></trkpt><trkpt lat="42.51347088556559" lon="11.448805857765038"><ele>95.0</ele><time>2026-04-30T08:46:25.982Z</time></trkpt><trkpt lat="42.51338911435123" lon="11.44895035828139"><ele>95.5</ele><time>2026-04-30T08:46:26.982Z</time></trkpt><trkpt lat="42.51330652306507" lon="11.44909006600039"><ele>96.0</ele><time>2026-04-30T08:46:27.982Z</time></trkpt><trkpt lat="42.513220145267596" lon="11.4492386497122"><ele>96.0</ele><time>2026-04-30T08:46:28.982Z</time></trkpt><trkpt lat="42.51313751363693" lon="11.449387492721268"><ele>96.0</ele><time>2026-04-30T08:46:29.982Z</time></trkpt><trkpt lat="42.51305844009018" lon="11.449532062325014"><ele>96.0</ele><time>2026-04-30T08:46:30.982Z</time></trkpt><trkpt lat="42.51297439607649" lon="11.449675370785886"><ele>96.0</ele><time>2026-04-30T08:46:31.982Z</time></trkpt><trkpt lat="42.512879380089444" lon="11.449834417464"><ele>96.75</ele><time>2026-04-30T08:46:32.983Z</time></trkpt><trkpt lat="42.51276541257034" lon="11.449967091078125"><ele>97.5</ele><time>2026-04-30T08:46:33.983Z</time></trkpt><trkpt lat="42.512672054730565" lon="11.450126570448"><ele>98.25</ele><time>2026-04-30T08:46:34.983Z</time></trkpt><trkpt lat="42.51258814152562" lon="11.450277222731815"><ele>99.0</ele><time>2026-04-30T08:46:35.983Z</time></trkpt><trkpt lat="42.5125071615423" lon="11.450414381074921"><ele>98.75</ele><time>2026-04-30T08:46:36.983Z</time></trkpt><trkpt lat="42.512423396363374" lon="11.450547672064236"><ele>98.5</ele><time>2026-04-30T08:46:37.983Z</time></trkpt><trkpt lat="42.51234090147074" lon="11.450689231194575"><ele>98.25</ele><time>2026-04-30T08:46:38.983Z</time></trkpt><trkpt lat="42.512255570244406" lon="11.450835089753273"><ele>98.0</ele><time>2026-04-30T08:46:39.983Z</time></trkpt><trkpt lat="42.512174108203716" lon="11.450988667279614"><ele>98.0</ele><time>2026-04-30T08:46:40.983Z</time></trkpt><trkpt lat="42.51208123545454" lon="11.451146616194524"><ele>98.0</ele><time>2026-04-30T08:46:41.983Z</time></trkpt><trkpt lat="42.511994003835596" lon="11.451302663171711"><ele>98.0</ele><time>2026-04-30T08:46:42.983Z</time></trkpt><trkpt lat="42.51190858588791" lon="11.451453108041544"><ele>98.0</ele><time>2026-04-30T08:46:43.983Z</time></trkpt><trkpt lat="42.51182485570963" lon="11.451593464047736"><ele>98.5</ele><time>2026-04-30T08:46:44.983Z</time></trkpt><trkpt lat="42.51175163453492" lon="11.451718965143845"><ele>99.0</ele><time>2026-04-30T08:46:45.983Z</time></trkpt><trkpt lat="42.511683581575085" lon="11.451838987547458"><ele>99.5</ele><time>2026-04-30T08:46:46.983Z</time></trkpt><trkpt lat="42.51160502552497" lon="11.451972479314092"><ele>100.0</ele><time>2026-04-30T08:46:47.983Z</time></trkpt><trkpt lat="42.51153299486973" lon="11.452079825156096"><ele>99.75</ele><time>2026-04-30T08:46:48.983Z</time></trkpt><trkpt lat="42.51144306243548" lon="11.452203280697882"><ele>99.5</ele><time>2026-04-30T08:46:49.983Z</time></trkpt><trkpt lat="42.51135783812554" lon="11.452344820727921"><ele>99.25</ele><time>2026-04-30T08:46:50.983Z</time></trkpt><trkpt lat="42.5112747858565" lon="11.452466075102498"><ele>99.0</ele><time>2026-04-30T08:46:51.983Z</time></trkpt><trkpt lat="42.511198442026505" lon="11.452600340772834"><ele>99.75</ele><time>2026-04-30T08:46:52.983Z</time></trkpt><trkpt lat="42.51111805344611" lon="11.452726409254446"><ele>100.5</ele><time>2026-04-30T08:46:53.983Z</time></trkpt><trkpt lat="42.51103659168151" lon="11.45286950790687"><ele>101.25</ele><time>2026-04-30T08:46:54.983Z</time></trkpt><trkpt lat="42.51095497156905" lon="11.453006542456603"><ele>102.0</ele><time>2026-04-30T08:46:55.983Z</time></trkpt><trkpt lat="42.51086824457643" lon="11.453125298649285"><ele>102.25</ele><time>2026-04-30T08:46:56.983Z</time></trkpt><trkpt lat="42.510774561165825" lon="11.453237057866987"><ele>102.5</ele><time>2026-04-30T08:46:57.983Z</time></trkpt><trkpt lat="42.51067512864476" lon="11.453337320066096"><ele>102.75</ele><time>2026-04-30T08:46:58.983Z</time></trkpt><trkpt lat="42.510558455788676" lon="11.453426922416723"><ele>103.0</ele><time>2026-04-30T08:46:59.983Z</time></trkpt><trkpt lat="42.51043386174023" lon="11.453521704253934"><ele>102.75</ele><time>2026-04-30T08:47:00.983Z</time></trkpt><trkpt lat="42.51031096111868" lon="11.453604547369164"><ele>102.5</ele><time>2026-04-30T08:47:01.983Z</time></trkpt><trkpt lat="42.510200455581604" lon="11.453677243415237"><ele>102.25</ele><time>2026-04-30T08:47:02.983Z</time></trkpt><trkpt lat="42.5100883143528" lon="11.453751324909645"><ele>102.0</ele><time>2026-04-30T08:47:03.983Z</time></trkpt><trkpt lat="42.509978671219336" lon="11.453822470971735"><ele>102.0</ele><time>2026-04-30T08:47:04.983Z</time></trkpt><trkpt lat="42.509869317698566" lon="11.453894807171412"><ele>102.0</ele><time>2026-04-30T08:47:05.983Z</time></trkpt><trkpt lat="42.50976435108106" lon="11.453973650057089"><ele>102.0</ele><time>2026-04-30T08:47:06.983Z</time></trkpt><trkpt lat="42.50964605770646" lon="11.454052703070138"><ele>102.0</ele><time>2026-04-30T08:47:07.983Z</time></trkpt><trkpt lat="42.5095172851281" lon="11.454133688791705"><ele>102.75</ele><time>2026-04-30T08:47:08.983Z</time></trkpt><trkpt lat="42.50934564161694" lon="11.454230552350143"><ele>103.5</ele><time>2026-04-30T08:47:09.983Z</time></trkpt><trkpt lat="42.5092081622601" lon="11.454320603458326"><ele>104.25</ele><time>2026-04-30T08:47:10.983Z</time></trkpt><trkpt lat="42.509115850072604" lon="11.454399824148473"><ele>105.0</ele><time>2026-04-30T08:47:11.983Z</time></trkpt><trkpt lat="42.50900381087539" lon="11.454492841241668"><ele>105.0</ele><time>2026-04-30T08:47:13.983Z</time></trkpt><trkpt lat="42.508918973828436" lon="11.454547920907412"><ele>105.0</ele><time>2026-04-30T08:47:14.983Z</time></trkpt><trkpt lat="42.50882330414266" lon="11.454612358122068"><ele>105.0</ele><time>2026-04-30T08:47:15.983Z</time></trkpt><trkpt lat="42.5087273381126" lon="11.454678608196248"><ele>105.0</ele><time>2026-04-30T08:47:16.983Z</time></trkpt><trkpt lat="42.508603295487575" lon="11.454722834482395"><ele>105.0</ele><time>2026-04-30T08:47:17.983Z</time></trkpt><trkpt lat="42.508476550179104" lon="11.454798068923534"><ele>105.75</ele><time>2026-04-30T08:47:18.983Z</time></trkpt><trkpt lat="42.50836269709558" lon="11.454875891654178"><ele>106.5</ele><time>2026-04-30T08:47:19.983Z</time></trkpt><trkpt lat="42.50825128756838" lon="11.454953664645803"><ele>107.25</ele><time>2026-04-30T08:47:20.983Z</time></trkpt><trkpt lat="42.508157262699974" lon="11.45502305851309"><ele>108.0</ele><time>2026-04-30T08:47:21.983Z</time></trkpt><trkpt lat="42.50806871293222" lon="11.455089516789744"><ele>108.0</ele><time>2026-04-30T08:47:22.983Z</time></trkpt><trkpt lat="42.50798455824673" lon="11.455145044363741"><ele>108.00000000000001</ele><time>2026-04-30T08:47:23.983Z</time></trkpt><trkpt lat="42.50791317850706" lon="11.45519707636791"><ele>108.00000000000001</ele><time>2026-04-30T08:47:24.983Z</time></trkpt><trkpt lat="42.50781095571741" lon="11.455241462231324"><ele>108.0</ele><time>2026-04-30T08:47:26.983Z</time></trkpt><trkpt lat="42.50772063690029" lon="11.455248889154594"><ele>108.0</ele><time>2026-04-30T08:47:28.983Z</time></trkpt><trkpt lat="42.50768155121631" lon="11.45538317179865"><ele>108.4</ele><time>2026-04-30T08:47:31.983Z</time></trkpt><trkpt lat="42.50767468085676" lon="11.455520899418007"><ele>108.80000000000001</ele><time>2026-04-30T08:47:33.983Z</time></trkpt><trkpt lat="42.50765491116776" lon="11.455604726468886"><ele>109.2</ele><time>2026-04-30T08:47:34.983Z</time></trkpt><trkpt lat="42.50763706475089" lon="11.455730460369248"><ele>109.6</ele><time>2026-04-30T08:47:35.983Z</time></trkpt><trkpt lat="42.50761213779001" lon="11.4558870169603"><ele>110.0</ele><time>2026-04-30T08:47:36.983Z</time></trkpt><trkpt lat="42.507615710407705" lon="11.456076703237805"><ele>110.0</ele><time>2026-04-30T08:47:37.983Z</time></trkpt><trkpt lat="42.50760991666177" lon="11.45628040684966"><ele>110.0</ele><time>2026-04-30T08:47:38.983Z</time></trkpt><trkpt lat="42.50760836790234" lon="11.45646570040839"><ele>110.0</ele><time>2026-04-30T08:47:39.983Z</time></trkpt><trkpt lat="42.50760907962265" lon="11.45663324753682"><ele>110.0</ele><time>2026-04-30T08:47:40.983Z</time></trkpt><trkpt lat="42.50760637412868" lon="11.456788637094256"><ele>110.0</ele><time>2026-04-30T08:47:41.983Z</time></trkpt><trkpt lat="42.50759882026474" lon="11.456948281668556"><ele>110.0</ele><time>2026-04-30T08:47:42.983Z</time></trkpt><trkpt lat="42.5075831745206" lon="11.45712070460714"><ele>110.0</ele><time>2026-04-30T08:47:43.983Z</time></trkpt><trkpt lat="42.507575839867926" lon="11.457298694346528"><ele>110.0</ele><time>2026-04-30T08:47:44.983Z</time></trkpt><trkpt lat="42.50757508337085" lon="11.457472699089923"><ele>110.6</ele><time>2026-04-30T08:47:45.983Z</time></trkpt><trkpt lat="42.50757506862085" lon="11.457630561255378"><ele>111.2</ele><time>2026-04-30T08:47:46.983Z</time></trkpt><trkpt lat="42.50756973686313" lon="11.457786616994087"><ele>111.80000000000001</ele><time>2026-04-30T08:47:47.983Z</time></trkpt><trkpt lat="42.50756223933333" lon="11.457923851658638"><ele>112.4</ele><time>2026-04-30T08:47:48.983Z</time></trkpt><trkpt lat="42.50756660084188" lon="11.458059260568202"><ele>113.0</ele><time>2026-04-30T08:47:49.983Z</time></trkpt><trkpt lat="42.5075476307807" lon="11.458177229443526"><ele>113.4</ele><time>2026-04-30T08:47:50.983Z</time></trkpt><trkpt lat="42.507530993491635" lon="11.458283093086784"><ele>113.80000000000001</ele><time>2026-04-30T08:47:51.982Z</time></trkpt><trkpt lat="42.50750175689456" lon="11.458381666688629"><ele>114.2</ele><time>2026-04-30T08:47:52.982Z</time></trkpt><trkpt lat="42.507456871222075" lon="11.458490626639245"><ele>114.6</ele><time>2026-04-30T08:47:53.982Z</time></trkpt><trkpt lat="42.507394394975655" lon="11.4586023369791"><ele>115.0</ele><time>2026-04-30T08:47:54.982Z</time></trkpt><trkpt lat="42.50734383678802" lon="11.458721387046102"><ele>115.8</ele><time>2026-04-30T08:47:55.982Z</time></trkpt><trkpt lat="42.50731146417825" lon="11.458865797179913"><ele>116.6</ele><time>2026-04-30T08:47:56.982Z</time></trkpt><trkpt lat="42.50726515010912" lon="11.458978903380848"><ele>117.4</ele><time>2026-04-30T08:47:57.981Z</time></trkpt><trkpt lat="42.50724272249734" lon="11.459088745726211"><ele>118.2</ele><time>2026-04-30T08:47:58.982Z</time></trkpt><trkpt lat="42.50725247799427" lon="11.459219707419681"><ele>119.0</ele><time>2026-04-30T08:47:59.982Z</time></trkpt><trkpt lat="42.507290201221636" lon="11.459361521260451"><ele>119.0</ele><time>2026-04-30T08:48:00.981Z</time></trkpt><trkpt lat="42.50732471136203" lon="11.459522881355138"><ele>119.0</ele><time>2026-04-30T08:48:01.982Z</time></trkpt><trkpt lat="42.507359000042825" lon="11.459680048884524"><ele>119.0</ele><time>2026-04-30T08:48:02.982Z</time></trkpt><trkpt lat="42.50739983468848" lon="11.459845578785245"><ele>119.0</ele><time>2026-04-30T08:48:03.981Z</time></trkpt><trkpt lat="42.507440606484806" lon="11.46000290020769"><ele>119.4</ele><time>2026-04-30T08:48:04.982Z</time></trkpt><trkpt lat="42.50748985636705" lon="11.46013364022938"><ele>119.80000000000001</ele><time>2026-04-30T08:48:05.982Z</time></trkpt><trkpt lat="42.50755152142581" lon="11.460248025168033"><ele>120.19999999999999</ele><time>2026-04-30T08:48:06.982Z</time></trkpt><trkpt lat="42.50762682340313" lon="11.460356328248514"><ele>120.6</ele><time>2026-04-30T08:48:07.982Z</time></trkpt><trkpt lat="42.50771996628894" lon="11.46046737715483"><ele>121.0</ele><time>2026-04-30T08:48:08.982Z</time></trkpt><trkpt lat="42.50782251582435" lon="11.46058462477033"><ele>124.75</ele><time>2026-04-30T08:48:09.982Z</time></trkpt><trkpt lat="42.507929559349826" lon="11.46070488010593"><ele>128.5</ele><time>2026-04-30T08:48:10.982Z</time></trkpt><trkpt lat="42.50803258748339" lon="11.460834630481596"><ele>132.25</ele><time>2026-04-30T08:48:11.982Z</time></trkpt><trkpt lat="42.508124772999224" lon="11.460958908780908"><ele>136.0</ele><time>2026-04-30T08:48:12.982Z</time></trkpt><trkpt lat="42.50819797539063" lon="11.461078181783208"><ele>136.0</ele><time>2026-04-30T08:48:13.982Z</time></trkpt><trkpt lat="42.50825549414116" lon="11.461206374876484"><ele>136.0</ele><time>2026-04-30T08:48:14.982Z</time></trkpt><trkpt lat="42.50829999018495" lon="11.461336494936598"><ele>136.0</ele><time>2026-04-30T08:48:15.982Z</time></trkpt><trkpt lat="42.50833955183177" lon="11.461503818268572"><ele>136.0</ele><time>2026-04-30T08:48:16.982Z</time></trkpt><trkpt lat="42.50838593770844" lon="11.461656450832338"><ele>135.25</ele><time>2026-04-30T08:48:17.982Z</time></trkpt><trkpt lat="42.5084303096177" lon="11.461784360090686"><ele>134.5</ele><time>2026-04-30T08:48:18.982Z</time></trkpt><trkpt lat="42.50849660283931" lon="11.461937265748595"><ele>133.75</ele><time>2026-04-30T08:48:19.982Z</time></trkpt><trkpt lat="42.50856650297462" lon="11.462075983738469"><ele>133.0</ele><time>2026-04-30T08:48:20.982Z</time></trkpt><trkpt lat="42.50863347543688" lon="11.46219179174558"><ele>133.0</ele><time>2026-04-30T08:48:21.982Z</time></trkpt><trkpt lat="42.50869896817513" lon="11.462306116877956"><ele>133.0</ele><time>2026-04-30T08:48:22.982Z</time></trkpt><trkpt lat="42.50874425514758" lon="11.462410549738683"><ele>133.0</ele><time>2026-04-30T08:48:23.982Z</time></trkpt><trkpt lat="42.50877752486529" lon="11.462527175963155"><ele>133.0</ele><time>2026-04-30T08:48:24.982Z</time></trkpt><trkpt lat="42.50881782238609" lon="11.462673820459187"><ele>133.0</ele><time>2026-04-30T08:48:25.982Z</time></trkpt><trkpt lat="42.50885146149245" lon="11.462825475116496"><ele>132.75</ele><time>2026-04-30T08:48:26.982Z</time></trkpt><trkpt lat="42.50889340717108" lon="11.462968505373928"><ele>132.5</ele><time>2026-04-30T08:48:27.982Z</time></trkpt><trkpt lat="42.50894711338286" lon="11.463101603082075"><ele>132.25</ele><time>2026-04-30T08:48:28.982Z</time></trkpt><trkpt lat="42.50902796492675" lon="11.463221503587077"><ele>132.0</ele><time>2026-04-30T08:48:29.982Z</time></trkpt><trkpt lat="42.50911050843552" lon="11.46335795771173"><ele>132.0</ele><time>2026-04-30T08:48:30.982Z</time></trkpt><trkpt lat="42.50919710955025" lon="11.463498469078948"><ele>132.0</ele><time>2026-04-30T08:48:31.982Z</time></trkpt><trkpt lat="42.50927582956767" lon="11.463627882235318"><ele>132.0</ele><time>2026-04-30T08:48:32.982Z</time></trkpt><trkpt lat="42.50935631039571" lon="11.463763981882417"><ele>132.0</ele><time>2026-04-30T08:48:33.982Z</time></trkpt><trkpt lat="42.5094256121084" lon="11.463879533916668"><ele>132.16666666666666</ele><time>2026-04-30T08:48:34.982Z</time></trkpt><trkpt lat="42.50949587568733" lon="11.463989064807205"><ele>132.33333333333334</ele><time>2026-04-30T08:48:35.982Z</time></trkpt><trkpt lat="42.50955665070605" lon="11.464088725062819"><ele>132.5</ele><time>2026-04-30T08:48:36.982Z</time></trkpt><trkpt lat="42.50960706755289" lon="11.464184105920449"><ele>132.66666666666669</ele><time>2026-04-30T08:48:37.982Z</time></trkpt><trkpt lat="42.50968105663375" lon="11.464233063099977"><ele>132.83333333333334</ele><time>2026-04-30T08:48:38.983Z</time></trkpt><trkpt lat="42.50974361245477" lon="11.464292724952266"><ele>133.0</ele><time>2026-04-30T08:48:39.983Z</time></trkpt><trkpt lat="42.50983348504108" lon="11.464407627234962"><ele>133.20000000000002</ele><time>2026-04-30T08:48:41.983Z</time></trkpt><trkpt lat="42.50987323001539" lon="11.464480724496905"><ele>133.4</ele><time>2026-04-30T08:48:42.983Z</time></trkpt><trkpt lat="42.50990934727974" lon="11.464579725628523"><ele>133.60000000000002</ele><time>2026-04-30T08:48:43.983Z</time></trkpt><trkpt lat="42.509940690684424" lon="11.464695628686327"><ele>133.8</ele><time>2026-04-30T08:48:44.983Z</time></trkpt><trkpt lat="42.509985563630565" lon="11.46482044403648"><ele>134.0</ele><time>2026-04-30T08:48:45.983Z</time></trkpt><trkpt lat="42.510036298558" lon="11.464949563961712"><ele>134.5</ele><time>2026-04-30T08:48:46.983Z</time></trkpt><trkpt lat="42.510084675514726" lon="11.465082951212862"><ele>135.0</ele><time>2026-04-30T08:48:47.983Z</time></trkpt><trkpt lat="42.51013464726686" lon="11.465230209808855"><ele>135.5</ele><time>2026-04-30T08:48:48.983Z</time></trkpt><trkpt lat="42.510207935132094" lon="11.465332199766785"><ele>136.0</ele><time>2026-04-30T08:48:49.983Z</time></trkpt><trkpt lat="42.51030156096289" lon="11.465488379373815"><ele>137.75</ele><time>2026-04-30T08:48:50.983Z</time></trkpt><trkpt lat="42.510402686237725" lon="11.465636978587163"><ele>139.5</ele><time>2026-04-30T08:48:51.983Z</time></trkpt><trkpt lat="42.51049671675271" lon="11.465770367499688"><ele>141.25</ele><time>2026-04-30T08:48:52.983Z</time></trkpt><trkpt lat="42.51058523281864" lon="11.465915600894947"><ele>143.0</ele><time>2026-04-30T08:48:53.983Z</time></trkpt><trkpt lat="42.510665798594076" lon="11.46607501138232"><ele>140.4</ele><time>2026-04-30T08:48:54.983Z</time></trkpt><trkpt lat="42.51073017355291" lon="11.46624867757481"><ele>137.8</ele><time>2026-04-30T08:48:55.983Z</time></trkpt><trkpt lat="42.51080346706571" lon="11.466366786406882"><ele>135.2</ele><time>2026-04-30T08:48:56.983Z</time></trkpt><trkpt lat="42.51086978143061" lon="11.466455239413525"><ele>132.6</ele><time>2026-04-30T08:48:57.983Z</time></trkpt><trkpt lat="42.51094696409041" lon="11.466519301915891"><ele>130.0</ele><time>2026-04-30T08:48:58.983Z</time></trkpt><trkpt lat="42.511023284801546" lon="11.466541022725634"><ele>130.0</ele><time>2026-04-30T08:48:59.983Z</time></trkpt><trkpt lat="42.511105144746985" lon="11.466503202952486"><ele>130.0</ele><time>2026-04-30T08:49:00.983Z</time></trkpt><trkpt lat="42.511208018616244" lon="11.4664820020077"><ele>130.0</ele><time>2026-04-30T08:49:01.983Z</time></trkpt><trkpt lat="42.51132290843919" lon="11.466432648734587"><ele>130.0</ele><time>2026-04-30T08:49:02.983Z</time></trkpt><trkpt lat="42.51141049735758" lon="11.46638597386628"><ele>130.0</ele><time>2026-04-30T08:49:03.983Z</time></trkpt><trkpt lat="42.51147556888971" lon="11.46635394188542"><ele>128.4</ele><time>2026-04-30T08:49:04.983Z</time></trkpt><trkpt lat="42.511542069973586" lon="11.466357063091937"><ele>126.8</ele><time>2026-04-30T08:49:05.983Z</time></trkpt><trkpt lat="42.51165524464981" lon="11.466348540157036"><ele>125.19999999999999</ele><time>2026-04-30T08:49:07.983Z</time></trkpt><trkpt lat="42.51178197380484" lon="11.466401734664855"><ele>123.6</ele><time>2026-04-30T08:49:09.983Z</time></trkpt><trkpt lat="42.51184094331616" lon="11.466482421838082"><ele>122.0</ele><time>2026-04-30T08:49:10.983Z</time></trkpt><trkpt lat="42.5118936392392" lon="11.46656397020726"><ele>122.0</ele><time>2026-04-30T08:49:11.983Z</time></trkpt><trkpt lat="42.51194175899311" lon="11.466664023130441"><ele>121.99999999999999</ele><time>2026-04-30T08:49:12.983Z</time></trkpt><trkpt lat="42.51198724390009" lon="11.466784475466719"><ele>121.99999999999999</ele><time>2026-04-30T08:49:13.983Z</time></trkpt><trkpt lat="42.512034753092614" lon="11.466940519317118"><ele>122.0</ele><time>2026-04-30T08:49:14.983Z</time></trkpt><trkpt lat="42.51208477752303" lon="11.46709999230752"><ele>122.0</ele><time>2026-04-30T08:49:15.983Z</time></trkpt><trkpt lat="42.51214333709192" lon="11.467257627777304"><ele>120.19999999999999</ele><time>2026-04-30T08:49:16.983Z</time></trkpt><trkpt lat="42.512210782203276" lon="11.46738142343758"><ele>118.39999999999999</ele><time>2026-04-30T08:49:17.983Z</time></trkpt><trkpt lat="42.51227539491683" lon="11.467482076139547"><ele>116.60000000000001</ele><time>2026-04-30T08:49:18.983Z</time></trkpt><trkpt lat="42.51233187810428" lon="11.467561675045909"><ele>114.80000000000001</ele><time>2026-04-30T08:49:19.983Z</time></trkpt><trkpt lat="42.512377437075294" lon="11.46765568234996"><ele>113.0</ele><time>2026-04-30T08:49:20.983Z</time></trkpt><trkpt lat="42.51241351647198" lon="11.467764294998197"><ele>113.0</ele><time>2026-04-30T08:49:21.983Z</time></trkpt><trkpt lat="42.5124446439509" lon="11.467894047179824"><ele>113.00000000000001</ele><time>2026-04-30T08:49:22.983Z</time></trkpt><trkpt lat="42.51248696232673" lon="11.468016108328213"><ele>113.00000000000001</ele><time>2026-04-30T08:49:23.983Z</time></trkpt><trkpt lat="42.512506200899544" lon="11.468157176474795"><ele>113.0</ele><time>2026-04-30T08:49:24.983Z</time></trkpt><trkpt lat="42.51250997352707" lon="11.46829862264524"><ele>113.0</ele><time>2026-04-30T08:49:25.983Z</time></trkpt><trkpt lat="42.51252368449086" lon="11.468429088121107"><ele>113.0</ele><time>2026-04-30T08:49:26.983Z</time></trkpt><trkpt lat="42.51253380667261" lon="11.468559468094972"><ele>113.00000000000001</ele><time>2026-04-30T08:49:27.983Z</time></trkpt><trkpt lat="42.51254338128892" lon="11.468690432877219"><ele>113.00000000000001</ele><time>2026-04-30T08:49:28.983Z</time></trkpt><trkpt lat="42.51255382277507" lon="11.46882889390265"><ele>113.0</ele><time>2026-04-30T08:49:29.983Z</time></trkpt><trkpt lat="42.51255984920252" lon="11.468952702330203"><ele>113.0</ele><time>2026-04-30T08:49:30.983Z</time></trkpt><trkpt lat="42.51255877737742" lon="11.469070690459494"><ele>112.49999999999999</ele><time>2026-04-30T08:49:31.983Z</time></trkpt><trkpt lat="42.512553086294446" lon="11.469186105836469"><ele>112.0</ele><time>2026-04-30T08:49:32.983Z</time></trkpt><trkpt lat="42.512532999245394" lon="11.469310696298939"><ele>111.5</ele><time>2026-04-30T08:49:33.983Z</time></trkpt><trkpt lat="42.51252507272629" lon="11.469421733107481"><ele>111.0</ele><time>2026-04-30T08:49:34.983Z</time></trkpt><trkpt lat="42.51252954590782" lon="11.469514700120529"><ele>110.49999999999999</ele><time>2026-04-30T08:49:35.983Z</time></trkpt><trkpt lat="42.512556171061725" lon="11.469597201984508"><ele>110.0</ele><time>2026-04-30T08:49:36.983Z</time></trkpt><trkpt lat="42.51260978216227" lon="11.469663929195399"><ele>110.0</ele><time>2026-04-30T08:49:37.983Z</time></trkpt><trkpt lat="42.512646568785634" lon="11.469771816963885"><ele>110.0</ele><time>2026-04-30T08:49:38.983Z</time></trkpt><trkpt lat="42.512699932700066" lon="11.469862986005818"><ele>110.0</ele><time>2026-04-30T08:49:39.983Z</time></trkpt><trkpt lat="42.512750809239925" lon="11.4699845664971"><ele>110.0</ele><time>2026-04-30T08:49:40.983Z</time></trkpt><trkpt lat="42.51279638019179" lon="11.470131717715756"><ele>110.0</ele><time>2026-04-30T08:49:41.983Z</time></trkpt><trkpt lat="42.51284630282304" lon="11.470276214838883"><ele>110.0</ele><time>2026-04-30T08:49:42.983Z</time></trkpt><trkpt lat="42.51289556927137" lon="11.470417985931292"><ele>110.0</ele><time>2026-04-30T08:49:43.983Z</time></trkpt><trkpt lat="42.512946663869855" lon="11.470521916995397"><ele>110.0</ele><time>2026-04-30T08:49:44.983Z</time></trkpt><trkpt lat="42.512999904769515" lon="11.47062190320829"><ele>110.0</ele><time>2026-04-30T08:49:45.983Z</time></trkpt><trkpt lat="42.51306308722776" lon="11.470716262210358"><ele>110.0</ele><time>2026-04-30T08:49:46.983Z</time></trkpt><trkpt lat="42.513103937380414" lon="11.47080193756191"><ele>100.0</ele><time>2026-04-30T08:49:47.983Z</time></trkpt><trkpt lat="42.51312141076921" lon="11.470897377934394"><ele>100.0</ele><time>2026-04-30T08:49:48.983Z</time></trkpt><trkpt lat="42.51316505948507" lon="11.470996377384305"><ele>100.0</ele><time>2026-04-30T08:49:50.983Z</time></trkpt><trkpt lat="42.51316357499878" lon="11.47108180113647"><ele>100.0</ele><time>2026-04-30T08:49:54.983Z</time></trkpt></trkseg><trkseg><trkpt lat="42.51321270996018" lon="11.4711303715032"><ele>100.0</ele><time>2026-04-30T09:02:08.975Z</time></trkpt><trkpt lat="42.51318211469311" lon="11.471251896149715"><ele>100.0</ele><time>2026-04-30T09:02:10.975Z</time></trkpt><trkpt lat="42.513180658666805" lon="11.471402891021791"><ele>100.0</ele><time>2026-04-30T09:02:12.975Z</time></trkpt><trkpt lat="42.51322165484879" lon="11.471526508606106"><ele>100.0</ele><time>2026-04-30T09:02:14.975Z</time></trkpt><trkpt lat="42.51330050940571" lon="11.47169006854906"><ele>100.16666666666667</ele><time>2026-04-30T09:02:16.975Z</time></trkpt><trkpt lat="42.513350724486024" lon="11.471798293165657"><ele>100.33333333333334</ele><time>2026-04-30T09:02:17.975Z</time></trkpt><trkpt lat="42.513401127305755" lon="11.471883109435963"><ele>100.5</ele><time>2026-04-30T09:02:18.975Z</time></trkpt><trkpt lat="42.51342880194849" lon="11.471961996824511"><ele>100.66666666666666</ele><time>2026-04-30T09:02:19.975Z</time></trkpt><trkpt lat="42.51337974542846" lon="11.472063118872658"><ele>100.83333333333333</ele><time>2026-04-30T09:02:20.975Z</time></trkpt><trkpt lat="42.5133405534532" lon="11.47216708341093"><ele>101.0</ele><time>2026-04-30T09:02:21.975Z</time></trkpt><trkpt lat="42.51330118057817" lon="11.472289715193638"><ele>101.8</ele><time>2026-04-30T09:02:22.975Z</time></trkpt><trkpt lat="42.51326862370446" lon="11.472428917956345"><ele>102.6</ele><time>2026-04-30T09:02:23.975Z</time></trkpt><trkpt lat="42.51323314814192" lon="11.47255982178292"><ele>103.4</ele><time>2026-04-30T09:02:24.975Z</time></trkpt><trkpt lat="42.51321548326267" lon="11.47264366158523"><ele>104.2</ele><time>2026-04-30T09:02:25.975Z</time></trkpt><trkpt lat="42.513148342046435" lon="11.47274676393145"><ele>105.0</ele><time>2026-04-30T09:02:27.975Z</time></trkpt><trkpt lat="42.51309079117366" lon="11.472827391344792"><ele>104.6</ele><time>2026-04-30T09:02:28.975Z</time></trkpt><trkpt lat="42.513028313953455" lon="11.472939957783407"><ele>104.2</ele><time>2026-04-30T09:02:29.975Z</time></trkpt><trkpt lat="42.51297869943276" lon="11.473042114348607"><ele>103.80000000000001</ele><time>2026-04-30T09:02:30.975Z</time></trkpt><trkpt lat="42.512937294105605" lon="11.473136840391158"><ele>103.4</ele><time>2026-04-30T09:02:31.975Z</time></trkpt><trkpt lat="42.512882450166366" lon="11.473295953856054"><ele>103.0</ele><time>2026-04-30T09:02:33.975Z</time></trkpt><trkpt lat="42.51283528211716" lon="11.47335678536833"><ele>102.99999999999999</ele><time>2026-04-30T09:02:34.975Z</time></trkpt><trkpt lat="42.5127731061079" lon="11.473410909598217"><ele>103.0</ele><time>2026-04-30T09:02:35.975Z</time></trkpt><trkpt lat="42.51270024431757" lon="11.473471229930015"><ele>103.0</ele><time>2026-04-30T09:02:36.974Z</time></trkpt><trkpt lat="42.51263613576689" lon="11.473518349839892"><ele>103.0</ele><time>2026-04-30T09:02:37.974Z</time></trkpt><trkpt lat="42.5125740602702" lon="11.473537868781937"><ele>103.0</ele><time>2026-04-30T09:02:38.974Z</time></trkpt><trkpt lat="42.512510972693846" lon="11.473544037525746"><ele>102.99999999999999</ele><time>2026-04-30T09:02:39.974Z</time></trkpt><trkpt lat="42.512439913755784" lon="11.47357142545053"><ele>103.0</ele><time>2026-04-30T09:02:40.974Z</time></trkpt><trkpt lat="42.512354741424055" lon="11.473624435329866"><ele>102.99999999999999</ele><time>2026-04-30T09:02:41.974Z</time></trkpt><trkpt lat="42.512274812541484" lon="11.473659408156115"><ele>103.0</ele><time>2026-04-30T09:02:42.974Z</time></trkpt><trkpt lat="42.51220907939853" lon="11.473667499080483"><ele>103.0</ele><time>2026-04-30T09:02:43.974Z</time></trkpt><trkpt lat="42.51213904777703" lon="11.473711806832338"><ele>103.0</ele><time>2026-04-30T09:02:45.974Z</time></trkpt><trkpt lat="42.51208706411135" lon="11.473765214161377"><ele>103.0</ele><time>2026-04-30T09:02:47.974Z</time></trkpt><trkpt lat="42.5120386451517" lon="11.473850542840113"><ele>102.99999999999999</ele><time>2026-04-30T09:02:49.974Z</time></trkpt><trkpt lat="42.51199940054251" lon="11.47391920774047"><ele>103.0</ele><time>2026-04-30T09:02:52.974Z</time></trkpt><trkpt lat="42.51196151722042" lon="11.47398834848712"><ele>104.00000000000001</ele><time>2026-04-30T09:02:54.974Z</time></trkpt><trkpt lat="42.511909950149864" lon="11.474065431980852"><ele>105.0</ele><time>2026-04-30T09:02:56.974Z</time></trkpt><trkpt lat="42.51188723615419" lon="11.474168838186445"><ele>106.0</ele><time>2026-04-30T09:02:58.974Z</time></trkpt><trkpt lat="42.51183929623846" lon="11.474294146668152"><ele>107.0</ele><time>2026-04-30T09:03:00.974Z</time></trkpt><trkpt lat="42.51178629089583" lon="11.474403282220043"><ele>108.00000000000001</ele><time>2026-04-30T09:03:02.974Z</time></trkpt><trkpt lat="42.5117687064133" lon="11.474486158281737"><ele>109.0</ele><time>2026-04-30T09:03:03.974Z</time></trkpt><trkpt lat="42.51174260276317" lon="11.474583639027793"><ele>108.00000000000001</ele><time>2026-04-30T09:03:04.974Z</time></trkpt><trkpt lat="42.51171824677783" lon="11.474700541547541"><ele>107.0</ele><time>2026-04-30T09:03:05.974Z</time></trkpt><trkpt lat="42.51169234429312" lon="11.474837001434123"><ele>106.0</ele><time>2026-04-30T09:03:07.974Z</time></trkpt><trkpt lat="42.51167470490707" lon="11.474942558849648"><ele>105.0</ele><time>2026-04-30T09:03:12.974Z</time></trkpt><trkpt lat="42.511676666495134" lon="11.475031907222238"><ele>104.00000000000001</ele><time>2026-04-30T09:03:14.975Z</time></trkpt><trkpt lat="42.51165252067559" lon="11.475147500698611"><ele>103.0</ele><time>2026-04-30T09:03:16.975Z</time></trkpt><trkpt lat="42.51160885829176" lon="11.475264272968206"><ele>103.0</ele><time>2026-04-30T09:03:18.975Z</time></trkpt><trkpt lat="42.51158545689468" lon="11.475365242360358"><ele>103.0</ele><time>2026-04-30T09:03:20.975Z</time></trkpt><trkpt lat="42.511563814915" lon="11.475453629604788"><ele>103.0</ele><time>2026-04-30T09:03:21.975Z</time></trkpt><trkpt lat="42.511503030528544" lon="11.475548810813276"><ele>103.0</ele><time>2026-04-30T09:03:22.975Z</time></trkpt><trkpt lat="42.5114443269047" lon="11.47560894254333"><ele>103.0</ele><time>2026-04-30T09:03:23.975Z</time></trkpt><trkpt lat="42.511335925048705" lon="11.475898024956225"><ele>103.80000000000001</ele><time>2026-04-30T09:03:28.975Z</time></trkpt><trkpt lat="42.511269679975335" lon="11.475973764491034"><ele>104.6</ele><time>2026-04-30T09:03:29.975Z</time></trkpt><trkpt lat="42.511188370044145" lon="11.476058788329885"><ele>105.39999999999999</ele><time>2026-04-30T09:03:30.975Z</time></trkpt><trkpt lat="42.511122773156124" lon="11.476139343979389"><ele>106.19999999999999</ele><time>2026-04-30T09:03:31.975Z</time></trkpt><trkpt lat="42.511048039145045" lon="11.476215632025964"><ele>107.0</ele><time>2026-04-30T09:03:32.975Z</time></trkpt><trkpt lat="42.510965760500376" lon="11.476322344821707"><ele>107.0</ele><time>2026-04-30T09:03:33.975Z</time></trkpt><trkpt lat="42.51090621758058" lon="11.476415322447403"><ele>107.0</ele><time>2026-04-30T09:03:34.975Z</time></trkpt><trkpt lat="42.510858936364556" lon="11.476490328153636"><ele>107.0</ele><time>2026-04-30T09:03:35.975Z</time></trkpt><trkpt lat="42.51077902221286" lon="11.47659282404652"><ele>107.0</ele><time>2026-04-30T09:03:37.975Z</time></trkpt><trkpt lat="42.51055844077537" lon="11.476827695707582"><ele>106.99999999999999</ele><time>2026-04-30T09:03:47.975Z</time></trkpt><trkpt lat="42.510491615497685" lon="11.476864969402412"><ele>107.0</ele><time>2026-04-30T09:03:49.975Z</time></trkpt><trkpt lat="42.51043098472392" lon="11.476907417536673"><ele>107.0</ele><time>2026-04-30T09:03:51.975Z</time></trkpt><trkpt lat="42.5103578640303" lon="11.476968289463699"><ele>107.0</ele><time>2026-04-30T09:03:54.975Z</time></trkpt><trkpt lat="42.5102786383777" lon="11.477027383920262"><ele>106.99999999999999</ele><time>2026-04-30T09:03:56.975Z</time></trkpt><trkpt lat="42.51019167591081" lon="11.47711363984827"><ele>107.0</ele><time>2026-04-30T09:03:59.975Z</time></trkpt><trkpt lat="42.51015767419966" lon="11.477252774860611"><ele>107.66666666666666</ele><time>2026-04-30T09:04:01.975Z</time></trkpt><trkpt lat="42.51016670561393" lon="11.47735149457071"><ele>108.33333333333333</ele><time>2026-04-30T09:04:02.975Z</time></trkpt><trkpt lat="42.510170260317324" lon="11.477447809434189"><ele>109.0</ele><time>2026-04-30T09:04:03.975Z</time></trkpt><trkpt lat="42.51018924178531" lon="11.477603804303538"><ele>109.66666666666666</ele><time>2026-04-30T09:04:05.975Z</time></trkpt><trkpt lat="42.51017758533476" lon="11.477695487451337"><ele>110.33333333333333</ele><time>2026-04-30T09:04:06.975Z</time></trkpt><trkpt lat="42.5101474539682" lon="11.47782421391405"><ele>111.0</ele><time>2026-04-30T09:04:07.975Z</time></trkpt><trkpt lat="42.51011241484822" lon="11.477932215979608"><ele>111.83333333333333</ele><time>2026-04-30T09:04:08.975Z</time></trkpt><trkpt lat="42.51008129165727" lon="11.478046992929519"><ele>112.66666666666666</ele><time>2026-04-30T09:04:09.975Z</time></trkpt><trkpt lat="42.51004084139323" lon="11.478171092090552"><ele>113.5</ele><time>2026-04-30T09:04:10.975Z</time></trkpt><trkpt lat="42.51001523157968" lon="11.478265628417926"><ele>114.33333333333333</ele><time>2026-04-30T09:04:11.975Z</time></trkpt><trkpt lat="42.51000051381947" lon="11.47840414965569"><ele>115.16666666666666</ele><time>2026-04-30T09:04:13.975Z</time></trkpt><trkpt lat="42.50997738172609" lon="11.478489551417981"><ele>116.0</ele><time>2026-04-30T09:04:15.975Z</time></trkpt><trkpt lat="42.50998043901607" lon="11.47859191115482"><ele>116.0</ele><time>2026-04-30T09:04:17.975Z</time></trkpt><trkpt lat="42.509950789368126" lon="11.478752831568865"><ele>116.0</ele><time>2026-04-30T09:04:19.975Z</time></trkpt><trkpt lat="42.50992520433269" lon="11.47890604256422"><ele>116.0</ele><time>2026-04-30T09:04:21.975Z</time></trkpt><trkpt lat="42.50987934025184" lon="11.479077916152175"><ele>116.0</ele><time>2026-04-30T09:04:23.975Z</time></trkpt><trkpt lat="42.509832052278455" lon="11.479176710203486"><ele>116.4</ele><time>2026-04-30T09:04:24.975Z</time></trkpt><trkpt lat="42.509780315123436" lon="11.479307533178535"><ele>116.8</ele><time>2026-04-30T09:04:25.975Z</time></trkpt><trkpt lat="42.509720882369834" lon="11.47943981122154"><ele>117.20000000000002</ele><time>2026-04-30T09:04:26.975Z</time></trkpt><trkpt lat="42.50966536389163" lon="11.47956940082238"><ele>117.60000000000001</ele><time>2026-04-30T09:04:27.975Z</time></trkpt><trkpt lat="42.50962252383459" lon="11.479668604528442"><ele>118.0</ele><time>2026-04-30T09:04:28.975Z</time></trkpt><trkpt lat="42.50958347152045" lon="11.479760518441207"><ele>118.60000000000001</ele><time>2026-04-30T09:04:29.975Z</time></trkpt><trkpt lat="42.509547666311" lon="11.47985269512925"><ele>119.20000000000002</ele><time>2026-04-30T09:04:30.975Z</time></trkpt><trkpt lat="42.50951463828742" lon="11.479956911349678"><ele>119.8</ele><time>2026-04-30T09:04:31.975Z</time></trkpt><trkpt lat="42.509437229870976" lon="11.480098127632287"><ele>120.4</ele><time>2026-04-30T09:04:33.975Z</time></trkpt><trkpt lat="42.50935783655177" lon="11.480204912688448"><ele>121.0</ele><time>2026-04-30T09:04:34.975Z</time></trkpt><trkpt lat="42.50928336547398" lon="11.48027873402209"><ele>121.0</ele><time>2026-04-30T09:04:35.975Z</time></trkpt><trkpt lat="42.50921412298815" lon="11.48033872830902"><ele>121.0</ele><time>2026-04-30T09:04:36.975Z</time></trkpt><trkpt lat="42.50912438032999" lon="11.480442992860544"><ele>121.0</ele><time>2026-04-30T09:04:37.975Z</time></trkpt><trkpt lat="42.50902613942614" lon="11.480555149343692"><ele>121.0</ele><time>2026-04-30T09:04:38.975Z</time></trkpt><trkpt lat="42.50890364284727" lon="11.480656278822007"><ele>120.4</ele><time>2026-04-30T09:04:39.971Z</time></trkpt><trkpt lat="42.508795717805974" lon="11.480745921858164"><ele>119.8</ele><time>2026-04-30T09:04:40.971Z</time></trkpt><trkpt lat="42.50872174015515" lon="11.480814901558386"><ele>119.20000000000002</ele><time>2026-04-30T09:04:41.971Z</time></trkpt><trkpt lat="42.508648770202505" lon="11.480950440410345"><ele>118.60000000000001</ele><time>2026-04-30T09:04:43.971Z</time></trkpt><trkpt lat="42.508579091812344" lon="11.481062131478332"><ele>118.0</ele><time>2026-04-30T09:04:45.971Z</time></trkpt><trkpt lat="42.50852404242923" lon="11.481143925116228"><ele>118.0</ele><time>2026-04-30T09:04:46.971Z</time></trkpt><trkpt lat="42.5084645230708" lon="11.481204129102236"><ele>118.00000000000001</ele><time>2026-04-30T09:04:47.971Z</time></trkpt><trkpt lat="42.50840750658688" lon="11.481277569905261"><ele>118.00000000000001</ele><time>2026-04-30T09:04:48.971Z</time></trkpt><trkpt lat="42.508345205883195" lon="11.481342648793662"><ele>118.0</ele><time>2026-04-30T09:04:49.971Z</time></trkpt><trkpt lat="42.50826275199464" lon="11.481449888463176"><ele>118.0</ele><time>2026-04-30T09:04:51.971Z</time></trkpt><trkpt lat="42.50819955392747" lon="11.48157722273174"><ele>118.00000000000001</ele><time>2026-04-30T09:04:53.97Z</time></trkpt><trkpt lat="42.50815345889218" lon="11.481686847776587"><ele>118.0</ele><time>2026-04-30T09:04:55.97Z</time></trkpt><trkpt lat="42.50808061983407" lon="11.481750290965245"><ele>118.0</ele><time>2026-04-30T09:04:57.97Z</time></trkpt><trkpt lat="42.50806241637429" lon="11.481859874275601"><ele>118.0</ele><time>2026-04-30T09:04:59.97Z</time></trkpt><trkpt lat="42.50807698712482" lon="11.481944649043124"><ele>118.00000000000001</ele><time>2026-04-30T09:05:00.97Z</time></trkpt><trkpt lat="42.50807726591997" lon="11.482036667718669"><ele>118.0</ele><time>2026-04-30T09:05:01.97Z</time></trkpt><trkpt lat="42.50806556069795" lon="11.482120840901338"><ele>118.50000000000001</ele><time>2026-04-30T09:05:02.97Z</time></trkpt><trkpt lat="42.508071185715345" lon="11.482208671986848"><ele>119.0</ele><time>2026-04-30T09:05:03.97Z</time></trkpt><trkpt lat="42.50808462452905" lon="11.482295053799913"><ele>119.5</ele><time>2026-04-30T09:05:04.97Z</time></trkpt><trkpt lat="42.50808077093695" lon="11.482395216035668"><ele>120.0</ele><time>2026-04-30T09:05:05.97Z</time></trkpt><trkpt lat="42.50809610476195" lon="11.482506934719499"><ele>120.50000000000001</ele><time>2026-04-30T09:05:06.97Z</time></trkpt><trkpt lat="42.50814389831528" lon="11.482612954487436"><ele>121.0</ele><time>2026-04-30T09:05:07.97Z</time></trkpt><trkpt lat="42.508171096361664" lon="11.482713511594334"><ele>121.00000000000001</ele><time>2026-04-30T09:05:08.97Z</time></trkpt><trkpt lat="42.50818539131834" lon="11.482831056194623"><ele>121.0</ele><time>2026-04-30T09:05:09.97Z</time></trkpt><trkpt lat="42.50819003174718" lon="11.482919213927227"><ele>121.0</ele><time>2026-04-30T09:05:10.97Z</time></trkpt><trkpt lat="42.50819454947844" lon="11.483014563648045"><ele>121.0</ele><time>2026-04-30T09:05:11.97Z</time></trkpt><trkpt lat="42.50818890144165" lon="11.48312253066947"><ele>121.00000000000001</ele><time>2026-04-30T09:05:13.97Z</time></trkpt><trkpt lat="42.50818788612552" lon="11.483265508477942"><ele>121.0</ele><time>2026-04-30T09:05:15.97Z</time></trkpt><trkpt lat="42.50818397676575" lon="11.483352388464223"><ele>120.8</ele><time>2026-04-30T09:05:16.97Z</time></trkpt><trkpt lat="42.50817250200229" lon="11.48352590240699"><ele>120.6</ele><time>2026-04-30T09:05:18.97Z</time></trkpt><trkpt lat="42.50814321956356" lon="11.483673727709432"><ele>120.4</ele><time>2026-04-30T09:05:20.97Z</time></trkpt><trkpt lat="42.50814250723194" lon="11.483781979945023"><ele>120.2</ele><time>2026-04-30T09:05:23.97Z</time></trkpt><trkpt lat="42.50813130776795" lon="11.483939923571699"><ele>120.0</ele><time>2026-04-30T09:05:25.97Z</time></trkpt><trkpt lat="42.50813180857008" lon="11.484035139808915"><ele>120.0</ele><time>2026-04-30T09:05:26.97Z</time></trkpt><trkpt lat="42.50816261400413" lon="11.48411963204985"><ele>120.0</ele><time>2026-04-30T09:05:27.97Z</time></trkpt><trkpt lat="42.508170747964186" lon="11.484210887955234"><ele>120.0</ele><time>2026-04-30T09:05:28.97Z</time></trkpt><trkpt lat="42.50816893076872" lon="11.48434538801749"><ele>120.0</ele><time>2026-04-30T09:05:30.97Z</time></trkpt><trkpt lat="42.50815294389382" lon="11.484470904008841"><ele>120.0</ele><time>2026-04-30T09:05:33.97Z</time></trkpt><trkpt lat="42.50814130019702" lon="11.484593368595494"><ele>120.0</ele><time>2026-04-30T09:05:35.97Z</time></trkpt><trkpt lat="42.50812252347153" lon="11.484677127713661"><ele>120.8</ele><time>2026-04-30T09:05:36.971Z</time></trkpt><trkpt lat="42.50809965976439" lon="11.484763952978668"><ele>121.6</ele><time>2026-04-30T09:05:37.971Z</time></trkpt><trkpt lat="42.508086202888926" lon="11.484944713241052"><ele>122.4</ele><time>2026-04-30T09:05:39.971Z</time></trkpt><trkpt lat="42.508110730689985" lon="11.485060561417285"><ele>123.2</ele><time>2026-04-30T09:05:40.971Z</time></trkpt><trkpt lat="42.50814778241118" lon="11.485130501674083"><ele>124.0</ele><time>2026-04-30T09:05:41.971Z</time></trkpt><trkpt lat="42.50820395550762" lon="11.485236419235353"><ele>124.0</ele><time>2026-04-30T09:05:43.971Z</time></trkpt><trkpt lat="42.50822307319554" lon="11.4853396302329"><ele>124.0</ele><time>2026-04-30T09:05:44.971Z</time></trkpt><trkpt lat="42.50823004221158" lon="11.485447506556138"><ele>124.0</ele><time>2026-04-30T09:05:45.971Z</time></trkpt><trkpt lat="42.50824869689771" lon="11.485620311955609"><ele>124.0</ele><time>2026-04-30T09:05:47.971Z</time></trkpt><trkpt lat="42.5082444270266" lon="11.48571493988879"><ele>124.0</ele><time>2026-04-30T09:05:48.971Z</time></trkpt><trkpt lat="42.508233269992786" lon="11.485844586356771"><ele>124.2</ele><time>2026-04-30T09:05:49.971Z</time></trkpt><trkpt lat="42.50821805474319" lon="11.485973132327555"><ele>124.4</ele><time>2026-04-30T09:05:50.971Z</time></trkpt><trkpt lat="42.50819152330278" lon="11.486088857538974"><ele>124.6</ele><time>2026-04-30T09:05:51.971Z</time></trkpt><trkpt lat="42.50816785686369" lon="11.486203326146693"><ele>124.8</ele><time>2026-04-30T09:05:52.971Z</time></trkpt><trkpt lat="42.50812970282772" lon="11.486319175807282"><ele>125.0</ele><time>2026-04-30T09:05:53.971Z</time></trkpt><trkpt lat="42.50809663362062" lon="11.486447653789348"><ele>125.49999999999999</ele><time>2026-04-30T09:05:54.971Z</time></trkpt><trkpt lat="42.508073715113305" lon="11.486557273894762"><ele>126.0</ele><time>2026-04-30T09:05:55.971Z</time></trkpt><trkpt lat="42.50805579158879" lon="11.48666037886095"><ele>126.5</ele><time>2026-04-30T09:05:56.971Z</time></trkpt><trkpt lat="42.508012314426104" lon="11.48678085618635"><ele>127.0</ele><time>2026-04-30T09:05:57.971Z</time></trkpt><trkpt lat="42.507967075025235" lon="11.486893365409928"><ele>127.49999999999999</ele><time>2026-04-30T09:05:58.971Z</time></trkpt><trkpt lat="42.50793023350551" lon="11.486976174131158"><ele>128.0</ele><time>2026-04-30T09:05:59.971Z</time></trkpt><trkpt lat="42.50783994272043" lon="11.48718317766897"><ele>126.0</ele><time>2026-04-30T09:06:01.971Z</time></trkpt><trkpt lat="42.50780311537541" lon="11.487302489122131"><ele>124.0</ele><time>2026-04-30T09:06:02.971Z</time></trkpt><trkpt lat="42.50779907503014" lon="11.487479628228682"><ele>122.0</ele><time>2026-04-30T09:06:03.971Z</time></trkpt><trkpt lat="42.5077808688098" lon="11.487638361611712"><ele>120.0</ele><time>2026-04-30T09:06:04.971Z</time></trkpt><trkpt lat="42.50774692379221" lon="11.487788951476885"><ele>120.0</ele><time>2026-04-30T09:06:05.971Z</time></trkpt><trkpt lat="42.50772831413568" lon="11.487924909680563"><ele>120.0</ele><time>2026-04-30T09:06:06.971Z</time></trkpt><trkpt lat="42.50771004347115" lon="11.488050984931158"><ele>120.0</ele><time>2026-04-30T09:06:07.971Z</time></trkpt><trkpt lat="42.50770295096856" lon="11.4881597077159"><ele>120.0</ele><time>2026-04-30T09:06:08.971Z</time></trkpt><trkpt lat="42.5076831318419" lon="11.488245266322153"><ele>120.0</ele><time>2026-04-30T09:06:09.971Z</time></trkpt><trkpt lat="42.50763654102698" lon="11.488409746814273"><ele>120.16666666666667</ele><time>2026-04-30T09:06:11.971Z</time></trkpt><trkpt lat="42.50762560610425" lon="11.48850949932481"><ele>120.33333333333334</ele><time>2026-04-30T09:06:12.971Z</time></trkpt><trkpt lat="42.50762633647652" lon="11.488605574585222"><ele>120.5</ele><time>2026-04-30T09:06:13.971Z</time></trkpt><trkpt lat="42.507624584288344" lon="11.488706620750293"><ele>120.66666666666667</ele><time>2026-04-30T09:06:14.971Z</time></trkpt><trkpt lat="42.50761530366253" lon="11.488804052994269"><ele>120.83333333333334</ele><time>2026-04-30T09:06:15.971Z</time></trkpt><trkpt lat="42.50760069437758" lon="11.488904690311106"><ele>121.0</ele><time>2026-04-30T09:06:16.971Z</time></trkpt><trkpt lat="42.50758207173304" lon="11.489025848742964"><ele>122.25</ele><time>2026-04-30T09:06:17.971Z</time></trkpt><trkpt lat="42.5075514146753" lon="11.489170581997064"><ele>123.5</ele><time>2026-04-30T09:06:18.971Z</time></trkpt><trkpt lat="42.507523680200656" lon="11.489334590450031"><ele>124.75</ele><time>2026-04-30T09:06:19.971Z</time></trkpt><trkpt lat="42.507501162169234" lon="11.489492344630325"><ele>126.0</ele><time>2026-04-30T09:06:20.971Z</time></trkpt><trkpt lat="42.50747661856608" lon="11.489633025522586"><ele>126.19999999999999</ele><time>2026-04-30T09:06:21.971Z</time></trkpt><trkpt lat="42.50747306091017" lon="11.489775727714486"><ele>126.39999999999999</ele><time>2026-04-30T09:06:22.971Z</time></trkpt><trkpt lat="42.507487929534626" lon="11.489932240637053"><ele>126.6</ele><time>2026-04-30T09:06:23.971Z</time></trkpt><trkpt lat="42.507488551624704" lon="11.4900927082273"><ele>126.8</ele><time>2026-04-30T09:06:24.971Z</time></trkpt><trkpt lat="42.50746167124018" lon="11.490218582228993"><ele>127.0</ele><time>2026-04-30T09:06:25.971Z</time></trkpt><trkpt lat="42.50742725479498" lon="11.490325417999996"><ele>127.8</ele><time>2026-04-30T09:06:26.971Z</time></trkpt><trkpt lat="42.507391745226876" lon="11.49045417813808"><ele>128.6</ele><time>2026-04-30T09:06:27.971Z</time></trkpt><trkpt lat="42.50737503134982" lon="11.490563468064895"><ele>129.39999999999998</ele><time>2026-04-30T09:06:28.971Z</time></trkpt><trkpt lat="42.50738521437742" lon="11.490648006272952"><ele>130.2</ele><time>2026-04-30T09:06:29.971Z</time></trkpt><trkpt lat="42.50736984438595" lon="11.490775294731824"><ele>131.0</ele><time>2026-04-30T09:06:30.971Z</time></trkpt><trkpt lat="42.50735233122337" lon="11.49092926486696"><ele>131.0</ele><time>2026-04-30T09:06:31.971Z</time></trkpt><trkpt lat="42.50733214750542" lon="11.491121993879593"><ele>131.0</ele><time>2026-04-30T09:06:32.971Z</time></trkpt><trkpt lat="42.50730426623491" lon="11.491324603243653"><ele>131.0</ele><time>2026-04-30T09:06:33.971Z</time></trkpt><trkpt lat="42.50727533454996" lon="11.491512248074931"><ele>131.0</ele><time>2026-04-30T09:06:34.971Z</time></trkpt><trkpt lat="42.50724667903734" lon="11.491674218469834"><ele>131.0</ele><time>2026-04-30T09:06:35.971Z</time></trkpt><trkpt lat="42.50721236611587" lon="11.49182539564173"><ele>131.0</ele><time>2026-04-30T09:06:36.971Z</time></trkpt><trkpt lat="42.5071664023661" lon="11.49196963652257"><ele>131.0</ele><time>2026-04-30T09:06:37.971Z</time></trkpt><trkpt lat="42.50711252706516" lon="11.492106737038194"><ele>131.0</ele><time>2026-04-30T09:06:38.971Z</time></trkpt><trkpt lat="42.50706376612964" lon="11.492234045842412"><ele>130.6</ele><time>2026-04-30T09:06:39.971Z</time></trkpt><trkpt lat="42.50703485124244" lon="11.492385866448737"><ele>130.2</ele><time>2026-04-30T09:06:40.971Z</time></trkpt><trkpt lat="42.50703011571" lon="11.492526082138998"><ele>129.8</ele><time>2026-04-30T09:06:41.971Z</time></trkpt><trkpt lat="42.50708142908634" lon="11.492673361116898"><ele>129.4</ele><time>2026-04-30T09:06:42.971Z</time></trkpt><trkpt lat="42.50710447890502" lon="11.49280970820887"><ele>129.0</ele><time>2026-04-30T09:06:43.971Z</time></trkpt><trkpt lat="42.507137484050546" lon="11.492939866338686"><ele>129.0</ele><time>2026-04-30T09:06:44.971Z</time></trkpt><trkpt lat="42.507175925901876" lon="11.49307032079156"><ele>129.0</ele><time>2026-04-30T09:06:45.969Z</time></trkpt><trkpt lat="42.507211324114905" lon="11.49321278330987"><ele>129.0</ele><time>2026-04-30T09:06:46.968Z</time></trkpt><trkpt lat="42.50721876816637" lon="11.493335211028283"><ele>129.0</ele><time>2026-04-30T09:06:47.968Z</time></trkpt><trkpt lat="42.50723368282524" lon="11.493455392392459"><ele>129.0</ele><time>2026-04-30T09:06:48.969Z</time></trkpt><trkpt lat="42.50722806943556" lon="11.493590579787266"><ele>129.25</ele><time>2026-04-30T09:06:50.968Z</time></trkpt><trkpt lat="42.50724165419723" lon="11.493833386843564"><ele>129.5</ele><time>2026-04-30T09:07:02.969Z</time></trkpt><trkpt lat="42.50726463427561" lon="11.493955041811388"><ele>129.75</ele><time>2026-04-30T09:07:03.969Z</time></trkpt><trkpt lat="42.50730421822932" lon="11.49410984430682"><ele>130.0</ele><time>2026-04-30T09:07:04.969Z</time></trkpt><trkpt lat="42.50734829138704" lon="11.494316915549582"><ele>130.0</ele><time>2026-04-30T09:07:05.969Z</time></trkpt><trkpt lat="42.50740278334048" lon="11.494541415404743"><ele>130.0</ele><time>2026-04-30T09:07:06.969Z</time></trkpt><trkpt lat="42.50745578600493" lon="11.494746695117687"><ele>130.0</ele><time>2026-04-30T09:07:07.969Z</time></trkpt><trkpt lat="42.50750150794483" lon="11.494941955670983"><ele>130.0</ele><time>2026-04-30T09:07:08.969Z</time></trkpt><trkpt lat="42.50754276957372" lon="11.495125159714895"><ele>130.0</ele><time>2026-04-30T09:07:09.969Z</time></trkpt><trkpt lat="42.507577755984734" lon="11.495304655820567"><ele>130.0</ele><time>2026-04-30T09:07:10.969Z</time></trkpt><trkpt lat="42.50762684247068" lon="11.495486026194458"><ele>130.0</ele><time>2026-04-30T09:07:11.969Z</time></trkpt><trkpt lat="42.507676156702495" lon="11.495683845031301"><ele>130.33333333333334</ele><time>2026-04-30T09:07:12.969Z</time></trkpt><trkpt lat="42.50772476738229" lon="11.495881791672462"><ele>130.66666666666666</ele><time>2026-04-30T09:07:13.969Z</time></trkpt><trkpt lat="42.50774734124495" lon="11.496075391831338"><ele>131.0</ele><time>2026-04-30T09:07:14.969Z</time></trkpt><trkpt lat="42.50779239085726" lon="11.496274606528484"><ele>131.25</ele><time>2026-04-30T09:07:15.969Z</time></trkpt><trkpt lat="42.50783821855681" lon="11.496436704919692"><ele>131.5</ele><time>2026-04-30T09:07:16.969Z</time></trkpt><trkpt lat="42.507873961746874" lon="11.496591024580436"><ele>131.75</ele><time>2026-04-30T09:07:17.969Z</time></trkpt><trkpt lat="42.507894451109095" lon="11.496750035988356"><ele>132.0</ele><time>2026-04-30T09:07:18.969Z</time></trkpt><trkpt lat="42.50790915933922" lon="11.496904318590838"><ele>132.79999999999998</ele><time>2026-04-30T09:07:19.969Z</time></trkpt><trkpt lat="42.50791375857815" lon="11.497045908240567"><ele>133.6</ele><time>2026-04-30T09:07:20.969Z</time></trkpt><trkpt lat="42.507910145746266" lon="11.49716061619467"><ele>134.39999999999998</ele><time>2026-04-30T09:07:21.969Z</time></trkpt><trkpt lat="42.507886681303106" lon="11.49725723942158"><ele>135.2</ele><time>2026-04-30T09:07:22.969Z</time></trkpt><trkpt lat="42.507858185234845" lon="11.497368517454111"><ele>136.0</ele><time>2026-04-30T09:07:23.969Z</time></trkpt><trkpt lat="42.50782462343231" lon="11.497501568139807"><ele>136.0</ele><time>2026-04-30T09:07:24.969Z</time></trkpt><trkpt lat="42.50781314855296" lon="11.497625820457513"><ele>136.0</ele><time>2026-04-30T09:07:25.969Z</time></trkpt><trkpt lat="42.507818285928884" lon="11.497741332744024"><ele>136.0</ele><time>2026-04-30T09:07:26.969Z</time></trkpt><trkpt lat="42.50783999628169" lon="11.4978731168004"><ele>136.0</ele><time>2026-04-30T09:07:27.969Z</time></trkpt><trkpt lat="42.50788679526204" lon="11.498001905899088"><ele>136.0</ele><time>2026-04-30T09:07:28.969Z</time></trkpt><trkpt lat="42.50795139416862" lon="11.498108476799487"><ele>135.0</ele><time>2026-04-30T09:07:29.969Z</time></trkpt><trkpt lat="42.50802380432107" lon="11.4982265525572"><ele>134.0</ele><time>2026-04-30T09:07:30.969Z</time></trkpt><trkpt lat="42.50810610943398" lon="11.498350871647341"><ele>133.0</ele><time>2026-04-30T09:07:31.969Z</time></trkpt><trkpt lat="42.508204071062934" lon="11.498467280092845"><ele>132.0</ele><time>2026-04-30T09:07:32.969Z</time></trkpt><trkpt lat="42.508294962355556" lon="11.498569425054026"><ele>132.0</ele><time>2026-04-30T09:07:33.969Z</time></trkpt><trkpt lat="42.50838331431259" lon="11.49865952436918"><ele>132.0</ele><time>2026-04-30T09:07:34.969Z</time></trkpt><trkpt lat="42.50847784364189" lon="11.498748252611811"><ele>132.0</ele><time>2026-04-30T09:07:35.969Z</time></trkpt><trkpt lat="42.508564595265696" lon="11.49884237040941"><ele>132.0</ele><time>2026-04-30T09:07:36.969Z</time></trkpt><trkpt lat="42.50865309631217" lon="11.498916034774558"><ele>132.0</ele><time>2026-04-30T09:07:37.969Z</time></trkpt><trkpt lat="42.50874113936968" lon="11.498991716386929"><ele>132.4</ele><time>2026-04-30T09:07:38.969Z</time></trkpt><trkpt lat="42.50882651622076" lon="11.499062608396455"><ele>132.79999999999998</ele><time>2026-04-30T09:07:39.969Z</time></trkpt><trkpt lat="42.508910331437946" lon="11.499153026708584"><ele>133.2</ele><time>2026-04-30T09:07:40.969Z</time></trkpt><trkpt lat="42.50897681253329" lon="11.499233718863003"><ele>133.6</ele><time>2026-04-30T09:07:41.969Z</time></trkpt><trkpt lat="42.50904748984419" lon="11.499310045816868"><ele>134.0</ele><time>2026-04-30T09:07:42.969Z</time></trkpt><trkpt lat="42.50911301978884" lon="11.499365056890529"><ele>134.0</ele><time>2026-04-30T09:07:43.969Z</time></trkpt><trkpt lat="42.509182430983984" lon="11.499401701777094"><ele>134.0</ele><time>2026-04-30T09:07:44.969Z</time></trkpt><trkpt lat="42.50924707015645" lon="11.499414661577818"><ele>134.0</ele><time>2026-04-30T09:07:45.969Z</time></trkpt><trkpt lat="42.50932132232544" lon="11.499416858066525"><ele>134.0</ele><time>2026-04-30T09:07:46.969Z</time></trkpt><trkpt lat="42.50941595558414" lon="11.49940564616451"><ele>134.0</ele><time>2026-04-30T09:07:47.969Z</time></trkpt><trkpt lat="42.50954401241481" lon="11.499379388188537"><ele>134.0</ele><time>2026-04-30T09:07:48.969Z</time></trkpt><trkpt lat="42.5097043799445" lon="11.499367037680306"><ele>134.5</ele><time>2026-04-30T09:07:49.969Z</time></trkpt><trkpt lat="42.50988540090532" lon="11.499351619583612"><ele>135.0</ele><time>2026-04-30T09:07:50.969Z</time></trkpt><trkpt lat="42.51003601457484" lon="11.499368365586077"><ele>135.5</ele><time>2026-04-30T09:07:51.969Z</time></trkpt><trkpt lat="42.510142885061676" lon="11.499394767547313"><ele>136.0</ele><time>2026-04-30T09:07:52.969Z</time></trkpt><trkpt lat="42.510245668561275" lon="11.499425579186143"><ele>136.0</ele><time>2026-04-30T09:07:53.969Z</time></trkpt><trkpt lat="42.510340519998856" lon="11.499477781971969"><ele>136.0</ele><time>2026-04-30T09:07:54.969Z</time></trkpt><trkpt lat="42.51043272788223" lon="11.499522152555896"><ele>136.0</ele><time>2026-04-30T09:07:55.969Z</time></trkpt><trkpt lat="42.51051064793461" lon="11.499584986314435"><ele>136.0</ele><time>2026-04-30T09:07:56.969Z</time></trkpt><trkpt lat="42.51058698114423" lon="11.499670646768045"><ele>136.0</ele><time>2026-04-30T09:07:57.969Z</time></trkpt><trkpt lat="42.51064498777336" lon="11.49977861643187"><ele>135.5</ele><time>2026-04-30T09:07:58.969Z</time></trkpt><trkpt lat="42.510726403252505" lon="11.499901680360038"><ele>135.0</ele><time>2026-04-30T09:07:59.969Z</time></trkpt><trkpt lat="42.51080921680806" lon="11.500034664768775"><ele>134.5</ele><time>2026-04-30T09:08:00.969Z</time></trkpt><trkpt lat="42.510881892517595" lon="11.500163850522688"><ele>134.0</ele><time>2026-04-30T09:08:01.969Z</time></trkpt><trkpt lat="42.510926836362756" lon="11.50028851408897"><ele>134.0</ele><time>2026-04-30T09:08:02.969Z</time></trkpt><trkpt lat="42.51095092365676" lon="11.500401035547373"><ele>134.0</ele><time>2026-04-30T09:08:03.969Z</time></trkpt><trkpt lat="42.510969137552074" lon="11.500507595587862"><ele>134.0</ele><time>2026-04-30T09:08:04.969Z</time></trkpt><trkpt lat="42.51098110769351" lon="11.500625444582331"><ele>134.0</ele><time>2026-04-30T09:08:05.969Z</time></trkpt><trkpt lat="42.510994131188504" lon="11.500773356472012"><ele>134.0</ele><time>2026-04-30T09:08:06.969Z</time></trkpt><trkpt lat="42.51100480899227" lon="11.500944570365567"><ele>134.5</ele><time>2026-04-30T09:08:07.969Z</time></trkpt><trkpt lat="42.511005838811556" lon="11.501110512330685"><ele>135.0</ele><time>2026-04-30T09:08:08.969Z</time></trkpt><trkpt lat="42.5110015743202" lon="11.501277663349438"><ele>135.5</ele><time>2026-04-30T09:08:09.969Z</time></trkpt><trkpt lat="42.511012006914285" lon="11.501426176767628"><ele>136.0</ele><time>2026-04-30T09:08:10.969Z</time></trkpt><trkpt lat="42.51100447910846" lon="11.501567642486295"><ele>136.5</ele><time>2026-04-30T09:08:11.969Z</time></trkpt><trkpt lat="42.51101224272068" lon="11.50170952560694"><ele>137.0</ele><time>2026-04-30T09:08:12.969Z</time></trkpt><trkpt lat="42.511020466133786" lon="11.501867358326221"><ele>137.5</ele><time>2026-04-30T09:08:13.969Z</time></trkpt><trkpt lat="42.51104756832265" lon="11.502051416272856"><ele>138.0</ele><time>2026-04-30T09:08:14.969Z</time></trkpt><trkpt lat="42.511088533665436" lon="11.502231673500477"><ele>138.5</ele><time>2026-04-30T09:08:15.969Z</time></trkpt><trkpt lat="42.511149510307696" lon="11.502417560922416"><ele>139.0</ele><time>2026-04-30T09:08:16.969Z</time></trkpt><trkpt lat="42.511189245158384" lon="11.502566453842643"><ele>139.5</ele><time>2026-04-30T09:08:17.969Z</time></trkpt><trkpt lat="42.51124790272658" lon="11.50268285805624"><ele>140.0</ele><time>2026-04-30T09:08:18.969Z</time></trkpt><trkpt lat="42.51130498105054" lon="11.502810523219063"><ele>141.25</ele><time>2026-04-30T09:08:19.969Z</time></trkpt><trkpt lat="42.511387612798124" lon="11.502957445335694"><ele>142.5</ele><time>2026-04-30T09:08:20.969Z</time></trkpt><trkpt lat="42.51147055276267" lon="11.503104647839882"><ele>143.75</ele><time>2026-04-30T09:08:21.969Z</time></trkpt><trkpt lat="42.5115601924568" lon="11.503250247681535"><ele>145.0</ele><time>2026-04-30T09:08:22.969Z</time></trkpt><trkpt lat="42.51164266865016" lon="11.503380168657609"><ele>145.0</ele><time>2026-04-30T09:08:23.969Z</time></trkpt><trkpt lat="42.511719061130734" lon="11.503488383048074"><ele>145.0</ele><time>2026-04-30T09:08:24.969Z</time></trkpt><trkpt lat="42.51178668555388" lon="11.503576853692428"><ele>145.0</ele><time>2026-04-30T09:08:25.969Z</time></trkpt><trkpt lat="42.51183648923665" lon="11.503696480116037"><ele>145.0</ele><time>2026-04-30T09:08:26.969Z</time></trkpt><trkpt lat="42.51189864497417" lon="11.503779649638627"><ele>145.0</ele><time>2026-04-30T09:08:27.969Z</time></trkpt><trkpt lat="42.51197425852044" lon="11.503876213356074"><ele>145.5</ele><time>2026-04-30T09:08:28.969Z</time></trkpt><trkpt lat="42.512075240672246" lon="11.503979359198656"><ele>146.0</ele><time>2026-04-30T09:08:29.969Z</time></trkpt><trkpt lat="42.51214002677236" lon="11.504107620538548"><ele>146.5</ele><time>2026-04-30T09:08:30.969Z</time></trkpt><trkpt lat="42.512232416987125" lon="11.504221546496986"><ele>147.0</ele><time>2026-04-30T09:08:31.969Z</time></trkpt><trkpt lat="42.51232763353881" lon="11.504341935175106"><ele>147.0</ele><time>2026-04-30T09:08:32.969Z</time></trkpt><trkpt lat="42.51242729078959" lon="11.504472623294639"><ele>147.0</ele><time>2026-04-30T09:08:33.969Z</time></trkpt><trkpt lat="42.51253654908623" lon="11.50462104523783"><ele>147.0</ele><time>2026-04-30T09:08:34.969Z</time></trkpt><trkpt lat="42.512632349723255" lon="11.504741239516463"><ele>147.0</ele><time>2026-04-30T09:08:35.969Z</time></trkpt><trkpt lat="42.512733072703355" lon="11.504869116425654"><ele>147.75</ele><time>2026-04-30T09:08:36.969Z</time></trkpt><trkpt lat="42.512833822190565" lon="11.504992350672106"><ele>148.5</ele><time>2026-04-30T09:08:37.969Z</time></trkpt><trkpt lat="42.512937910164354" lon="11.505115326499"><ele>149.25</ele><time>2026-04-30T09:08:38.969Z</time></trkpt><trkpt lat="42.51304441636162" lon="11.50524881602946"><ele>150.0</ele><time>2026-04-30T09:08:39.969Z</time></trkpt><trkpt lat="42.51314790331888" lon="11.505374233840936"><ele>151.25</ele><time>2026-04-30T09:08:40.969Z</time></trkpt><trkpt lat="42.513245821520805" lon="11.505504468220384"><ele>152.5</ele><time>2026-04-30T09:08:41.969Z</time></trkpt><trkpt lat="42.513338451105206" lon="11.50562436556728"><ele>153.75</ele><time>2026-04-30T09:08:42.969Z</time></trkpt><trkpt lat="42.513438137445405" lon="11.505750621727895"><ele>155.0</ele><time>2026-04-30T09:08:43.969Z</time></trkpt><trkpt lat="42.51354163540868" lon="11.505872708845693"><ele>155.0</ele><time>2026-04-30T09:08:44.969Z</time></trkpt><trkpt lat="42.51363757039609" lon="11.505990412993327"><ele>155.0</ele><time>2026-04-30T09:08:45.969Z</time></trkpt><trkpt lat="42.51373257404226" lon="11.506124242176192"><ele>155.0</ele><time>2026-04-30T09:08:46.969Z</time></trkpt><trkpt lat="42.51382637806114" lon="11.506253323728785"><ele>155.0</ele><time>2026-04-30T09:08:47.969Z</time></trkpt><trkpt lat="42.51391473588031" lon="11.506378194623096"><ele>156.25</ele><time>2026-04-30T09:08:48.969Z</time></trkpt><trkpt lat="42.51401020667481" lon="11.506487822448994"><ele>157.5</ele><time>2026-04-30T09:08:49.969Z</time></trkpt><trkpt lat="42.51409152296228" lon="11.506622149640318"><ele>158.75</ele><time>2026-04-30T09:08:50.969Z</time></trkpt><trkpt lat="42.514173262689695" lon="11.506726016145997"><ele>160.0</ele><time>2026-04-30T09:08:51.967Z</time></trkpt><trkpt lat="42.51424297382414" lon="11.506831066057288"><ele>160.0</ele><time>2026-04-30T09:08:52.967Z</time></trkpt><trkpt lat="42.51434438255259" lon="11.506966926127937"><ele>160.0</ele><time>2026-04-30T09:08:53.967Z</time></trkpt><trkpt lat="42.51442306253988" lon="11.507072743048834"><ele>160.0</ele><time>2026-04-30T09:08:54.967Z</time></trkpt><trkpt lat="42.514511399646" lon="11.50718570552468"><ele>160.0</ele><time>2026-04-30T09:08:55.967Z</time></trkpt><trkpt lat="42.514609070097414" lon="11.507306633175766"><ele>160.5</ele><time>2026-04-30T09:08:56.967Z</time></trkpt><trkpt lat="42.5146985381799" lon="11.50742984356311"><ele>161.0</ele><time>2026-04-30T09:08:57.966Z</time></trkpt><trkpt lat="42.514798657530164" lon="11.50755315948682"><ele>161.5</ele><time>2026-04-30T09:08:58.966Z</time></trkpt><trkpt lat="42.514884265638095" lon="11.507665534106222"><ele>162.0</ele><time>2026-04-30T09:08:59.966Z</time></trkpt><trkpt lat="42.51496288585379" lon="11.507747448307647"><ele>162.0</ele><time>2026-04-30T09:09:00.967Z</time></trkpt><trkpt lat="42.51504156926385" lon="11.507838913331701"><ele>162.0</ele><time>2026-04-30T09:09:01.966Z</time></trkpt><trkpt lat="42.515113391171084" lon="11.507923813763798"><ele>162.0</ele><time>2026-04-30T09:09:02.966Z</time></trkpt><trkpt lat="42.51516132184068" lon="11.508017946337594"><ele>162.0</ele><time>2026-04-30T09:09:03.967Z</time></trkpt><trkpt lat="42.515216295392776" lon="11.508118042556983"><ele>162.0</ele><time>2026-04-30T09:09:04.967Z</time></trkpt><trkpt lat="42.515269511362675" lon="11.508227983772422"><ele>161.83333333333334</ele><time>2026-04-30T09:09:05.967Z</time></trkpt><trkpt lat="42.515314081885855" lon="11.50833183254264"><ele>161.66666666666666</ele><time>2026-04-30T09:09:06.967Z</time></trkpt><trkpt lat="42.51535885674367" lon="11.508440715231728"><ele>161.5</ele><time>2026-04-30T09:09:07.967Z</time></trkpt><trkpt lat="42.51540361261628" lon="11.508524945528375"><ele>161.33333333333331</ele><time>2026-04-30T09:09:08.967Z</time></trkpt><trkpt lat="42.51542864609628" lon="11.508632796009747"><ele>161.16666666666666</ele><time>2026-04-30T09:09:09.967Z</time></trkpt><trkpt lat="42.51545842507587" lon="11.508728493733575"><ele>161.0</ele><time>2026-04-30T09:09:10.967Z</time></trkpt><trkpt lat="42.51546869461338" lon="11.508827225671608"><ele>161.33333333333331</ele><time>2026-04-30T09:09:11.967Z</time></trkpt><trkpt lat="42.51548226219465" lon="11.508964280587255"><ele>161.66666666666666</ele><time>2026-04-30T09:09:13.967Z</time></trkpt><trkpt lat="42.51543314870093" lon="11.50907961204219"><ele>162.0</ele><time>2026-04-30T09:09:15.967Z</time></trkpt><trkpt lat="42.515369165298694" lon="11.50911535519062"><ele>162.33333333333334</ele><time>2026-04-30T09:09:16.967Z</time></trkpt><trkpt lat="42.51531472660391" lon="11.50917503548325"><ele>162.66666666666669</ele><time>2026-04-30T09:09:17.967Z</time></trkpt><trkpt lat="42.51523707746278" lon="11.509262312782766"><ele>163.0</ele><time>2026-04-30T09:09:19.967Z</time></trkpt><trkpt lat="42.51519164423471" lon="11.509331267793153"><ele>163.16666666666669</ele><time>2026-04-30T09:09:21.967Z</time></trkpt><trkpt lat="42.51514795349295" lon="11.50945314128727"><ele>163.33333333333334</ele><time>2026-04-30T09:09:47.967Z</time></trkpt><trkpt lat="42.51508349551085" lon="11.509510277646958"><ele>163.5</ele><time>2026-04-30T09:09:48.967Z</time></trkpt><trkpt lat="42.51502086005123" lon="11.509563938756067"><ele>163.66666666666666</ele><time>2026-04-30T09:09:49.967Z</time></trkpt><trkpt lat="42.514943070863275" lon="11.509635138994613"><ele>163.83333333333331</ele><time>2026-04-30T09:09:50.967Z</time></trkpt><trkpt lat="42.51485679233622" lon="11.509710190797202"><ele>164.0</ele><time>2026-04-30T09:09:51.967Z</time></trkpt><trkpt lat="42.51476035259462" lon="11.509796567086042"><ele>164.5</ele><time>2026-04-30T09:09:52.967Z</time></trkpt><trkpt lat="42.51464553841223" lon="11.509872392947443"><ele>165.0</ele><time>2026-04-30T09:09:53.967Z</time></trkpt><trkpt lat="42.51454298634163" lon="11.509959257302707"><ele>165.5</ele><time>2026-04-30T09:09:54.967Z</time></trkpt><trkpt lat="42.514433223058795" lon="11.51005222976105"><ele>166.0</ele><time>2026-04-30T09:09:55.967Z</time></trkpt><trkpt lat="42.514310494986596" lon="11.510156174830463"><ele>164.5</ele><time>2026-04-30T09:09:56.967Z</time></trkpt><trkpt lat="42.514190042214466" lon="11.510258169402755"><ele>163.0</ele><time>2026-04-30T09:09:57.967Z</time></trkpt><trkpt lat="42.514080689773934" lon="11.510350764655252"><ele>161.5</ele><time>2026-04-30T09:09:58.967Z</time></trkpt><trkpt lat="42.513965265407165" lon="11.510474503784025"><ele>160.0</ele><time>2026-04-30T09:09:59.967Z</time></trkpt><trkpt lat="42.513829051623546" lon="11.51055848432761"><ele>158.33333333333334</ele><time>2026-04-30T09:10:00.967Z</time></trkpt><trkpt lat="42.51370015904814" lon="11.510664864688538"><ele>156.66666666666666</ele><time>2026-04-30T09:10:01.967Z</time></trkpt><trkpt lat="42.513580711945075" lon="11.510776118046907"><ele>155.0</ele><time>2026-04-30T09:10:02.967Z</time></trkpt><trkpt lat="42.51344286807264" lon="11.510893797363481"><ele>155.0</ele><time>2026-04-30T09:10:03.967Z</time></trkpt><trkpt lat="42.513316410230445" lon="11.511006083059144"><ele>155.0</ele><time>2026-04-30T09:10:04.967Z</time></trkpt><trkpt lat="42.51317399426296" lon="11.511123019691404"><ele>155.0</ele><time>2026-04-30T09:10:05.967Z</time></trkpt><trkpt lat="42.51302980579344" lon="11.511242732746055"><ele>156.0</ele><time>2026-04-30T09:10:06.967Z</time></trkpt><trkpt lat="42.512881218940095" lon="11.511353244272996"><ele>157.0</ele><time>2026-04-30T09:10:07.967Z</time></trkpt><trkpt lat="42.512729776895284" lon="11.511457767411859"><ele>158.0</ele><time>2026-04-30T09:10:08.967Z</time></trkpt><trkpt lat="42.51257184273651" lon="11.51152583001729"><ele>158.0</ele><time>2026-04-30T09:10:09.967Z</time></trkpt><trkpt lat="42.51242157906007" lon="11.511609058405407"><ele>158.0</ele><time>2026-04-30T09:10:10.967Z</time></trkpt><trkpt lat="42.512272580153585" lon="11.51166434637353"><ele>158.0</ele><time>2026-04-30T09:10:11.967Z</time></trkpt><trkpt lat="42.512128984604495" lon="11.511708116938523"><ele>160.0</ele><time>2026-04-30T09:10:12.967Z</time></trkpt><trkpt lat="42.51198193965381" lon="11.51172136071563"><ele>162.0</ele><time>2026-04-30T09:10:13.967Z</time></trkpt><trkpt lat="42.51183875847221" lon="11.511773333812537"><ele>164.0</ele><time>2026-04-30T09:10:14.967Z</time></trkpt><trkpt lat="42.511695795675166" lon="11.511811958729206"><ele>166.0</ele><time>2026-04-30T09:10:15.967Z</time></trkpt><trkpt lat="42.511551066263095" lon="11.51184843428005"><ele>166.0</ele><time>2026-04-30T09:10:16.967Z</time></trkpt><trkpt lat="42.511406286595935" lon="11.511883440464926"><ele>166.0</ele><time>2026-04-30T09:10:17.967Z</time></trkpt><trkpt lat="42.51125864804346" lon="11.511924672638683"><ele>166.0</ele><time>2026-04-30T09:10:18.967Z</time></trkpt><trkpt lat="42.511107567930985" lon="11.5119440945817"><ele>169.33333333333334</ele><time>2026-04-30T09:10:19.967Z</time></trkpt><trkpt lat="42.51095382467042" lon="11.51199197501243"><ele>172.66666666666666</ele><time>2026-04-30T09:10:20.967Z</time></trkpt><trkpt lat="42.51080569645359" lon="11.512047589459938"><ele>176.0</ele><time>2026-04-30T09:10:21.967Z</time></trkpt><trkpt lat="42.51066194251862" lon="11.512124259687036"><ele>176.0</ele><time>2026-04-30T09:10:22.967Z</time></trkpt><trkpt lat="42.5105156999536" lon="11.512164776116416"><ele>176.0</ele><time>2026-04-30T09:10:23.967Z</time></trkpt><trkpt lat="42.51038329308009" lon="11.512254089928264"><ele>176.0</ele><time>2026-04-30T09:10:24.967Z</time></trkpt><trkpt lat="42.510259101081054" lon="11.512364169065739"><ele>176.0</ele><time>2026-04-30T09:10:25.967Z</time></trkpt><trkpt lat="42.510168328780374" lon="11.512526425498079"><ele>177.66666666666666</ele><time>2026-04-30T09:10:26.967Z</time></trkpt><trkpt lat="42.51008270154135" lon="11.51269093773872"><ele>179.33333333333334</ele><time>2026-04-30T09:10:27.967Z</time></trkpt><trkpt lat="42.51000841092517" lon="11.512879876680705"><ele>181.0</ele><time>2026-04-30T09:10:28.967Z</time></trkpt><trkpt lat="42.509925097009344" lon="11.513059661090065"><ele>181.0</ele><time>2026-04-30T09:10:29.967Z</time></trkpt><trkpt lat="42.50983895366745" lon="11.51323403138296"><ele>181.0</ele><time>2026-04-30T09:10:30.967Z</time></trkpt><trkpt lat="42.50975970894411" lon="11.51340052216982"><ele>181.0</ele><time>2026-04-30T09:10:31.967Z</time></trkpt><trkpt lat="42.50968162111551" lon="11.51354682641311"><ele>181.0</ele><time>2026-04-30T09:10:32.967Z</time></trkpt><trkpt lat="42.50960619266278" lon="11.513688359352267"><ele>180.25</ele><time>2026-04-30T09:10:33.967Z</time></trkpt><trkpt lat="42.50954090678466" lon="11.51383512546684"><ele>179.5</ele><time>2026-04-30T09:10:34.967Z</time></trkpt><trkpt lat="42.5094679250402" lon="11.513981315633309"><ele>178.75</ele><time>2026-04-30T09:10:35.967Z</time></trkpt><trkpt lat="42.50939072045133" lon="11.514123058584625"><ele>178.0</ele><time>2026-04-30T09:10:36.967Z</time></trkpt><trkpt lat="42.5093161846339" lon="11.514275527246165"><ele>178.0</ele><time>2026-04-30T09:10:37.967Z</time></trkpt><trkpt lat="42.5092381063523" lon="11.514426930682518"><ele>178.0</ele><time>2026-04-30T09:10:38.967Z</time></trkpt><trkpt lat="42.509155631370355" lon="11.51459291712655"><ele>178.0</ele><time>2026-04-30T09:10:39.967Z</time></trkpt><trkpt lat="42.50906610063942" lon="11.51475859336905"><ele>178.0</ele><time>2026-04-30T09:10:40.967Z</time></trkpt><trkpt lat="42.508967829462954" lon="11.514943180017235"><ele>178.5</ele><time>2026-04-30T09:10:41.967Z</time></trkpt><trkpt lat="42.50888166633756" lon="11.515109782566224"><ele>179.0</ele><time>2026-04-30T09:10:42.967Z</time></trkpt><trkpt lat="42.50880179752567" lon="11.515265738134328"><ele>179.5</ele><time>2026-04-30T09:10:43.967Z</time></trkpt><trkpt lat="42.508715076788185" lon="11.515431563657524"><ele>180.0</ele><time>2026-04-30T09:10:44.967Z</time></trkpt><trkpt lat="42.508628652940665" lon="11.515598376617012"><ele>177.66666666666666</ele><time>2026-04-30T09:10:45.967Z</time></trkpt><trkpt lat="42.50854786022284" lon="11.515770967722496"><ele>175.33333333333331</ele><time>2026-04-30T09:10:46.967Z</time></trkpt><trkpt lat="42.50845850929841" lon="11.515950984754737"><ele>173.0</ele><time>2026-04-30T09:10:47.967Z</time></trkpt><trkpt lat="42.5083381102516" lon="11.516107755078435"><ele>173.66666666666666</ele><time>2026-04-30T09:10:48.967Z</time></trkpt><trkpt lat="42.50824334533258" lon="11.516292496164201"><ele>174.33333333333334</ele><time>2026-04-30T09:10:49.967Z</time></trkpt><trkpt lat="42.5081393540171" lon="11.516482126164687"><ele>175.0</ele><time>2026-04-30T09:10:50.967Z</time></trkpt><trkpt lat="42.50804848491532" lon="11.516663119608191"><ele>175.0</ele><time>2026-04-30T09:10:51.967Z</time></trkpt><trkpt lat="42.507955088179344" lon="11.516844181265094"><ele>175.0</ele><time>2026-04-30T09:10:52.967Z</time></trkpt><trkpt lat="42.50785933760855" lon="11.51702921146795"><ele>175.0</ele><time>2026-04-30T09:10:53.967Z</time></trkpt><trkpt lat="42.50776591546907" lon="11.51720711312044"><ele>173.33333333333334</ele><time>2026-04-30T09:10:54.967Z</time></trkpt><trkpt lat="42.50767204865407" lon="11.517399196438264"><ele>171.66666666666666</ele><time>2026-04-30T09:10:55.967Z</time></trkpt><trkpt lat="42.5075793283738" lon="11.517584616507971"><ele>170.0</ele><time>2026-04-30T09:10:56.967Z</time></trkpt><trkpt lat="42.50748476364396" lon="11.517772678059716"><ele>170.33333333333331</ele><time>2026-04-30T09:10:57.965Z</time></trkpt><trkpt lat="42.50738761753836" lon="11.51796562677968"><ele>170.66666666666666</ele><time>2026-04-30T09:10:58.966Z</time></trkpt><trkpt lat="42.50728821968111" lon="11.518154004830508"><ele>171.0</ele><time>2026-04-30T09:10:59.966Z</time></trkpt><trkpt lat="42.507192163974665" lon="11.518335739946169"><ele>171.0</ele><time>2026-04-30T09:11:00.965Z</time></trkpt><trkpt lat="42.50710173753386" lon="11.518512451871949"><ele>171.0</ele><time>2026-04-30T09:11:01.965Z</time></trkpt><trkpt lat="42.507011744570896" lon="11.518690567210514"><ele>171.0</ele><time>2026-04-30T09:11:02.965Z</time></trkpt><trkpt lat="42.506918836420496" lon="11.518872431557623"><ele>170.66666666666666</ele><time>2026-04-30T09:11:03.965Z</time></trkpt><trkpt lat="42.50682243426984" lon="11.519042093567968"><ele>170.33333333333331</ele><time>2026-04-30T09:11:04.966Z</time></trkpt><trkpt lat="42.50671762332761" lon="11.519198217398415"><ele>170.0</ele><time>2026-04-30T09:11:05.966Z</time></trkpt><trkpt lat="42.506604004372214" lon="11.519349511287762"><ele>170.0</ele><time>2026-04-30T09:11:06.966Z</time></trkpt><trkpt lat="42.50649334504859" lon="11.51950177111669"><ele>170.0</ele><time>2026-04-30T09:11:07.966Z</time></trkpt><trkpt lat="42.50637192456827" lon="11.5196245611437"><ele>170.0</ele><time>2026-04-30T09:11:08.966Z</time></trkpt><trkpt lat="42.50627066408563" lon="11.51978002734432"><ele>170.33333333333331</ele><time>2026-04-30T09:11:09.965Z</time></trkpt><trkpt lat="42.50615425757179" lon="11.519926492680284"><ele>170.66666666666666</ele><time>2026-04-30T09:11:10.965Z</time></trkpt><trkpt lat="42.50603628115974" lon="11.520071487237567"><ele>171.0</ele><time>2026-04-30T09:11:11.965Z</time></trkpt><trkpt lat="42.505924527319465" lon="11.520215130874389"><ele>171.0</ele><time>2026-04-30T09:11:12.965Z</time></trkpt><trkpt lat="42.50582018329066" lon="11.520349668824805"><ele>171.0</ele><time>2026-04-30T09:11:13.965Z</time></trkpt><trkpt lat="42.50571153172751" lon="11.520485380025512"><ele>171.0</ele><time>2026-04-30T09:11:14.965Z</time></trkpt><trkpt lat="42.50560170569217" lon="11.520622892150948"><ele>171.0</ele><time>2026-04-30T09:11:15.965Z</time></trkpt><trkpt lat="42.50548424521175" lon="11.520740673957881"><ele>169.66666666666666</ele><time>2026-04-30T09:11:16.965Z</time></trkpt><trkpt lat="42.50537516214376" lon="11.520877456622877"><ele>168.33333333333331</ele><time>2026-04-30T09:11:17.965Z</time></trkpt><trkpt lat="42.505263665998214" lon="11.521017407713702"><ele>167.0</ele><time>2026-04-30T09:11:18.965Z</time></trkpt><trkpt lat="42.50514957119218" lon="11.521161204051708"><ele>168.66666666666666</ele><time>2026-04-30T09:11:19.965Z</time></trkpt><trkpt lat="42.50503277697349" lon="11.521308402498027"><ele>170.33333333333334</ele><time>2026-04-30T09:11:20.965Z</time></trkpt><trkpt lat="42.50491819424725" lon="11.521452813759378"><ele>172.0</ele><time>2026-04-30T09:11:21.965Z</time></trkpt><trkpt lat="42.50480190471052" lon="11.521599376147742"><ele>172.0</ele><time>2026-04-30T09:11:22.965Z</time></trkpt><trkpt lat="42.504682163074015" lon="11.521750289301488"><ele>172.0</ele><time>2026-04-30T09:11:23.965Z</time></trkpt><trkpt lat="42.50456113660218" lon="11.521904302140598"><ele>172.0</ele><time>2026-04-30T09:11:24.965Z</time></trkpt><trkpt lat="42.50444192212692" lon="11.522057398426783"><ele>170.66666666666669</ele><time>2026-04-30T09:11:25.965Z</time></trkpt><trkpt lat="42.50432650174128" lon="11.522204781008085"><ele>169.33333333333334</ele><time>2026-04-30T09:11:26.965Z</time></trkpt><trkpt lat="42.504212135055404" lon="11.5223508180967"><ele>168.0</ele><time>2026-04-30T09:11:27.965Z</time></trkpt><trkpt lat="42.50410124915387" lon="11.522492410499417"><ele>168.0</ele><time>2026-04-30T09:11:28.965Z</time></trkpt><trkpt lat="42.503993140565285" lon="11.522630456486551"><ele>168.0</ele><time>2026-04-30T09:11:29.965Z</time></trkpt><trkpt lat="42.503879625238724" lon="11.522775406451789"><ele>168.0</ele><time>2026-04-30T09:11:30.965Z</time></trkpt><trkpt lat="42.50376215912722" lon="11.522925401257066"><ele>166.66666666666666</ele><time>2026-04-30T09:11:31.965Z</time></trkpt><trkpt lat="42.50364871874036" lon="11.5230702555293"><ele>165.33333333333331</ele><time>2026-04-30T09:11:32.965Z</time></trkpt><trkpt lat="42.50353910223452" lon="11.52321021028658"><ele>164.0</ele><time>2026-04-30T09:11:33.965Z</time></trkpt><trkpt lat="42.50342509523807" lon="11.52335551479435"><ele>164.0</ele><time>2026-04-30T09:11:34.965Z</time></trkpt><trkpt lat="42.50331140392251" lon="11.523500416426229"><ele>164.0</ele><time>2026-04-30T09:11:35.965Z</time></trkpt><trkpt lat="42.50319558727181" lon="11.523648028460643"><ele>164.0</ele><time>2026-04-30T09:11:36.965Z</time></trkpt><trkpt lat="42.503079926332504" lon="11.523794416229084"><ele>164.0</ele><time>2026-04-30T09:11:37.965Z</time></trkpt><trkpt lat="42.50296256518843" lon="11.523942864011284"><ele>164.0</ele><time>2026-04-30T09:11:38.965Z</time></trkpt><trkpt lat="42.5028491593507" lon="11.524086308818436"><ele>164.0</ele><time>2026-04-30T09:11:39.965Z</time></trkpt><trkpt lat="42.502737430627924" lon="11.524227632268035"><ele>165.33333333333331</ele><time>2026-04-30T09:11:40.965Z</time></trkpt><trkpt lat="42.50263802307238" lon="11.524379754085125"><ele>166.66666666666666</ele><time>2026-04-30T09:11:41.965Z</time></trkpt><trkpt lat="42.502525060673534" lon="11.524525656161957"><ele>168.0</ele><time>2026-04-30T09:11:42.965Z</time></trkpt><trkpt lat="42.502402854947476" lon="11.524650859765655"><ele>168.0</ele><time>2026-04-30T09:11:43.965Z</time></trkpt><trkpt lat="42.50229866860713" lon="11.52480815995323"><ele>168.0</ele><time>2026-04-30T09:11:44.965Z</time></trkpt><trkpt lat="42.50218136098351" lon="11.524931931091643"><ele>168.0</ele><time>2026-04-30T09:11:45.965Z</time></trkpt><trkpt lat="42.502071622680766" lon="11.525071214628383"><ele>166.66666666666666</ele><time>2026-04-30T09:11:46.965Z</time></trkpt><trkpt lat="42.50196198602712" lon="11.525217161616835"><ele>165.33333333333331</ele><time>2026-04-30T09:11:47.965Z</time></trkpt><trkpt lat="42.50185750120914" lon="11.525370781204197"><ele>164.0</ele><time>2026-04-30T09:11:48.965Z</time></trkpt><trkpt lat="42.501749678709814" lon="11.5255226867296"><ele>164.0</ele><time>2026-04-30T09:11:49.965Z</time></trkpt><trkpt lat="42.50165664015225" lon="11.525683858765987"><ele>164.0</ele><time>2026-04-30T09:11:50.965Z</time></trkpt><trkpt lat="42.50156290805098" lon="11.525844507929095"><ele>164.0</ele><time>2026-04-30T09:11:51.965Z</time></trkpt><trkpt lat="42.50148417146676" lon="11.526021684137177"><ele>164.0</ele><time>2026-04-30T09:11:52.965Z</time></trkpt><trkpt lat="42.501393762128174" lon="11.526195748650686"><ele>164.0</ele><time>2026-04-30T09:11:53.965Z</time></trkpt><trkpt lat="42.50130615211237" lon="11.526370357135573"><ele>164.0</ele><time>2026-04-30T09:11:54.965Z</time></trkpt><trkpt lat="42.50121582307521" lon="11.526532793394194"><ele>163.33333333333331</ele><time>2026-04-30T09:11:55.965Z</time></trkpt><trkpt lat="42.5011582749653" lon="11.526723757839838"><ele>162.66666666666666</ele><time>2026-04-30T09:11:56.965Z</time></trkpt><trkpt lat="42.501090075008435" lon="11.526905919776468"><ele>162.0</ele><time>2026-04-30T09:11:57.965Z</time></trkpt><trkpt lat="42.501046849573996" lon="11.527096365058284"><ele>161.5</ele><time>2026-04-30T09:11:58.965Z</time></trkpt><trkpt lat="42.5010376209106" lon="11.527298899632633"><ele>161.0</ele><time>2026-04-30T09:11:59.965Z</time></trkpt><trkpt lat="42.50103886599533" lon="11.527502234237833"><ele>160.5</ele><time>2026-04-30T09:12:00.965Z</time></trkpt><trkpt lat="42.50103676851345" lon="11.527695584717156"><ele>160.0</ele><time>2026-04-30T09:12:01.965Z</time></trkpt><trkpt lat="42.501033293648234" lon="11.52789439421604"><ele>159.0</ele><time>2026-04-30T09:12:02.965Z</time></trkpt><trkpt lat="42.50102731347501" lon="11.52808941300617"><ele>158.0</ele><time>2026-04-30T09:12:03.965Z</time></trkpt><trkpt lat="42.50101481129268" lon="11.528286665274868"><ele>157.0</ele><time>2026-04-30T09:12:04.965Z</time></trkpt><trkpt lat="42.50100213311016" lon="11.528476596260365"><ele>156.0</ele><time>2026-04-30T09:12:05.965Z</time></trkpt><trkpt lat="42.50099676246728" lon="11.52863029065257"><ele>156.0</ele><time>2026-04-30T09:12:06.965Z</time></trkpt><trkpt lat="42.5009828137724" lon="11.528794252703406"><ele>156.0</ele><time>2026-04-30T09:12:07.965Z</time></trkpt><trkpt lat="42.500954366757774" lon="11.528961440896332"><ele>156.0</ele><time>2026-04-30T09:12:08.965Z</time></trkpt><trkpt lat="42.5009004524618" lon="11.529185685941846"><ele>156.0</ele><time>2026-04-30T09:12:09.965Z</time></trkpt><trkpt lat="42.500817443555405" lon="11.52936044237285"><ele>156.0</ele><time>2026-04-30T09:12:10.965Z</time></trkpt><trkpt lat="42.50074666560488" lon="11.529533162678671"><ele>156.0</ele><time>2026-04-30T09:12:11.965Z</time></trkpt><trkpt lat="42.500670523677805" lon="11.529713869185082"><ele>156.0</ele><time>2026-04-30T09:12:12.965Z</time></trkpt><trkpt lat="42.50059757326109" lon="11.529888719415787"><ele>156.0</ele><time>2026-04-30T09:12:13.965Z</time></trkpt><trkpt lat="42.50052685343324" lon="11.530059191801652"><ele>156.0</ele><time>2026-04-30T09:12:14.965Z</time></trkpt><trkpt lat="42.50045832486339" lon="11.530224382117456"><ele>156.0</ele><time>2026-04-30T09:12:15.965Z</time></trkpt><trkpt lat="42.50039096184415" lon="11.530386762792938"><ele>156.0</ele><time>2026-04-30T09:12:16.965Z</time></trkpt><trkpt lat="42.50031840053381" lon="11.530561674149425"><ele>156.0</ele><time>2026-04-30T09:12:17.965Z</time></trkpt><trkpt lat="42.500242169047574" lon="11.530745897001575"><ele>155.66666666666666</ele><time>2026-04-30T09:12:18.965Z</time></trkpt><trkpt lat="42.500169296718894" lon="11.530923268460961"><ele>155.33333333333331</ele><time>2026-04-30T09:12:19.965Z</time></trkpt><trkpt lat="42.500089316360004" lon="11.531116130295562"><ele>155.0</ele><time>2026-04-30T09:12:20.965Z</time></trkpt><trkpt lat="42.5000120671437" lon="11.531298824134112"><ele>155.66666666666666</ele><time>2026-04-30T09:12:21.965Z</time></trkpt><trkpt lat="42.49993077228838" lon="11.531487069653602"><ele>156.33333333333334</ele><time>2026-04-30T09:12:22.965Z</time></trkpt><trkpt lat="42.499853098636486" lon="11.531660455892037"><ele>157.0</ele><time>2026-04-30T09:12:23.965Z</time></trkpt><trkpt lat="42.499776076863114" lon="11.531818620303026"><ele>157.0</ele><time>2026-04-30T09:12:24.965Z</time></trkpt><trkpt lat="42.49968627238299" lon="11.531994509486053"><ele>157.0</ele><time>2026-04-30T09:12:25.965Z</time></trkpt><trkpt lat="42.49958649935657" lon="11.532180334952324"><ele>157.0</ele><time>2026-04-30T09:12:26.965Z</time></trkpt><trkpt lat="42.49951462115155" lon="11.532311607724322"><ele>157.0</ele><time>2026-04-30T09:12:27.965Z</time></trkpt><trkpt lat="42.49943670903885" lon="11.532451629034187"><ele>156.75</ele><time>2026-04-30T09:12:28.965Z</time></trkpt><trkpt lat="42.499357626995454" lon="11.532593316011647"><ele>156.5</ele><time>2026-04-30T09:12:29.965Z</time></trkpt><trkpt lat="42.49926480941858" lon="11.532740345721136"><ele>156.25</ele><time>2026-04-30T09:12:30.965Z</time></trkpt><trkpt lat="42.49917621081989" lon="11.532899514459771"><ele>156.0</ele><time>2026-04-30T09:12:31.965Z</time></trkpt><trkpt lat="42.499084916573544" lon="11.53307076350299"><ele>156.0</ele><time>2026-04-30T09:12:32.965Z</time></trkpt><trkpt lat="42.49900992079416" lon="11.533218998838546"><ele>156.0</ele><time>2026-04-30T09:12:33.965Z</time></trkpt><trkpt lat="42.49892083237372" lon="11.533366819905853"><ele>156.0</ele><time>2026-04-30T09:12:34.965Z</time></trkpt><trkpt lat="42.498833687065385" lon="11.533508456311047"><ele>156.0</ele><time>2026-04-30T09:12:35.965Z</time></trkpt><trkpt lat="42.49876789661568" lon="11.533670641189861"><ele>155.25</ele><time>2026-04-30T09:12:36.965Z</time></trkpt><trkpt lat="42.49870971923258" lon="11.53383236480219"><ele>154.5</ele><time>2026-04-30T09:12:37.965Z</time></trkpt><trkpt lat="42.49863157312251" lon="11.533978026648656"><ele>153.75</ele><time>2026-04-30T09:12:38.965Z</time></trkpt><trkpt lat="42.498562052393666" lon="11.53413984450252"><ele>153.0</ele><time>2026-04-30T09:12:39.965Z</time></trkpt><trkpt lat="42.49849438160955" lon="11.534305182995363"><ele>153.0</ele><time>2026-04-30T09:12:40.965Z</time></trkpt><trkpt lat="42.49842505783432" lon="11.53447140254212"><ele>153.0</ele><time>2026-04-30T09:12:41.965Z</time></trkpt><trkpt lat="42.498357786098836" lon="11.534628264037014"><ele>153.0</ele><time>2026-04-30T09:12:42.965Z</time></trkpt><trkpt lat="42.49829907304102" lon="11.534757330626583"><ele>153.0</ele><time>2026-04-30T09:12:43.965Z</time></trkpt><trkpt lat="42.498247052603766" lon="11.53487396501072"><ele>154.0</ele><time>2026-04-30T09:12:44.965Z</time></trkpt><trkpt lat="42.49819097876507" lon="11.535009595540165"><ele>155.0</ele><time>2026-04-30T09:12:45.966Z</time></trkpt><trkpt lat="42.49806025534893" lon="11.535333840305807"><ele>156.0</ele><time>2026-04-30T09:12:46.966Z</time></trkpt><trkpt lat="42.49800106655346" lon="11.53552077172022"><ele>157.33333333333334</ele><time>2026-04-30T09:12:47.966Z</time></trkpt><trkpt lat="42.49792404725792" lon="11.535705170344356"><ele>158.66666666666669</ele><time>2026-04-30T09:12:48.966Z</time></trkpt><trkpt lat="42.4978526237031" lon="11.535875248780878"><ele>160.0</ele><time>2026-04-30T09:12:49.966Z</time></trkpt><trkpt lat="42.49778104780204" lon="11.536053585548794"><ele>156.5</ele><time>2026-04-30T09:12:50.966Z</time></trkpt><trkpt lat="42.49771549693445" lon="11.536226430960413"><ele>153.0</ele><time>2026-04-30T09:12:51.966Z</time></trkpt><trkpt lat="42.497654452970046" lon="11.536390247188063"><ele>149.5</ele><time>2026-04-30T09:12:52.966Z</time></trkpt><trkpt lat="42.497598894812896" lon="11.536568413515257"><ele>146.0</ele><time>2026-04-30T09:12:53.966Z</time></trkpt><trkpt lat="42.49754714002879" lon="11.536744610400499"><ele>146.0</ele><time>2026-04-30T09:12:54.966Z</time></trkpt><trkpt lat="42.497503145579564" lon="11.536917909104007"><ele>146.0</ele><time>2026-04-30T09:12:55.966Z</time></trkpt><trkpt lat="42.4974557595904" lon="11.53708759814715"><ele>146.0</ele><time>2026-04-30T09:12:56.966Z</time></trkpt><trkpt lat="42.4974063335461" lon="11.537268806245413"><ele>146.0</ele><time>2026-04-30T09:12:57.966Z</time></trkpt><trkpt lat="42.49735762150075" lon="11.537443442497471"><ele>147.0</ele><time>2026-04-30T09:12:58.966Z</time></trkpt><trkpt lat="42.49731222165426" lon="11.53761465707342"><ele>148.0</ele><time>2026-04-30T09:12:59.966Z</time></trkpt><trkpt lat="42.49725115201228" lon="11.537765049240498"><ele>149.0</ele><time>2026-04-30T09:13:00.966Z</time></trkpt><trkpt lat="42.497205789040635" lon="11.537894541052415"><ele>150.0</ele><time>2026-04-30T09:13:01.966Z</time></trkpt><trkpt lat="42.49716324194666" lon="11.538015994717451"><ele>150.75</ele><time>2026-04-30T09:13:02.966Z</time></trkpt><trkpt lat="42.49711714176122" lon="11.538147590960316"><ele>151.5</ele><time>2026-04-30T09:13:03.965Z</time></trkpt><trkpt lat="42.49706628950264" lon="11.538292752319906"><ele>152.25</ele><time>2026-04-30T09:13:04.964Z</time></trkpt><trkpt lat="42.497017030945884" lon="11.538459785975041"><ele>153.0</ele><time>2026-04-30T09:13:05.964Z</time></trkpt><trkpt lat="42.49696214347072" lon="11.538620339338257"><ele>150.5</ele><time>2026-04-30T09:13:06.964Z</time></trkpt><trkpt lat="42.496901557376205" lon="11.538794028823558"><ele>148.0</ele><time>2026-04-30T09:13:07.965Z</time></trkpt><trkpt lat="42.49684532547519" lon="11.538954985119094"><ele>145.5</ele><time>2026-04-30T09:13:08.965Z</time></trkpt><trkpt lat="42.4967752553956" lon="11.539126042231919"><ele>143.0</ele><time>2026-04-30T09:13:09.964Z</time></trkpt><trkpt lat="42.49671837431913" lon="11.539294608715004"><ele>143.0</ele><time>2026-04-30T09:13:10.964Z</time></trkpt><trkpt lat="42.49665448542911" lon="11.539456748312586"><ele>143.0</ele><time>2026-04-30T09:13:11.964Z</time></trkpt><trkpt lat="42.49659697648383" lon="11.539627520513912"><ele>143.0</ele><time>2026-04-30T09:13:12.964Z</time></trkpt><trkpt lat="42.496545838130906" lon="11.539787766861984"><ele>143.0</ele><time>2026-04-30T09:13:13.965Z</time></trkpt><trkpt lat="42.49647275308494" lon="11.539932567273004"><ele>143.25</ele><time>2026-04-30T09:13:14.965Z</time></trkpt><trkpt lat="42.496387442458555" lon="11.540063932031781"><ele>143.5</ele><time>2026-04-30T09:13:15.964Z</time></trkpt><trkpt lat="42.49627708510051" lon="11.540170713502032"><ele>143.75</ele><time>2026-04-30T09:13:16.964Z</time></trkpt><trkpt lat="42.49617516814852" lon="11.54027495876129"><ele>144.0</ele><time>2026-04-30T09:13:17.964Z</time></trkpt><trkpt lat="42.49606081068426" lon="11.54038253337044"><ele>145.5</ele><time>2026-04-30T09:13:18.964Z</time></trkpt><trkpt lat="42.49595317999443" lon="11.540485082654572"><ele>147.0</ele><time>2026-04-30T09:13:19.964Z</time></trkpt><trkpt lat="42.495844343635504" lon="11.540603361508584"><ele>148.5</ele><time>2026-04-30T09:13:20.964Z</time></trkpt><trkpt lat="42.49573939611121" lon="11.540734442265764"><ele>150.0</ele><time>2026-04-30T09:13:21.964Z</time></trkpt><trkpt lat="42.495629332557996" lon="11.540851914159182"><ele>150.0</ele><time>2026-04-30T09:13:22.964Z</time></trkpt><trkpt lat="42.49550867795869" lon="11.540946033094869"><ele>150.0</ele><time>2026-04-30T09:13:23.964Z</time></trkpt><trkpt lat="42.495402188753616" lon="11.541075543486926"><ele>150.0</ele><time>2026-04-30T09:13:24.964Z</time></trkpt><trkpt lat="42.49526290805649" lon="11.541187896632172"><ele>150.0</ele><time>2026-04-30T09:13:25.964Z</time></trkpt><trkpt lat="42.49513139169826" lon="11.541339741176959"><ele>149.5</ele><time>2026-04-30T09:13:26.964Z</time></trkpt><trkpt lat="42.49499883460824" lon="11.541467166793172"><ele>149.0</ele><time>2026-04-30T09:13:27.964Z</time></trkpt><trkpt lat="42.49490343600144" lon="11.541555001750055"><ele>148.5</ele><time>2026-04-30T09:13:28.964Z</time></trkpt><trkpt lat="42.49479206047197" lon="11.541671449599635"><ele>148.0</ele><time>2026-04-30T09:13:29.964Z</time></trkpt><trkpt lat="42.49468166746694" lon="11.541805721090403"><ele>146.25</ele><time>2026-04-30T09:13:30.964Z</time></trkpt><trkpt lat="42.49457194704248" lon="11.541940133903951"><ele>144.5</ele><time>2026-04-30T09:13:31.964Z</time></trkpt><trkpt lat="42.494464508999144" lon="11.542072798408093"><ele>142.75</ele><time>2026-04-30T09:13:32.964Z</time></trkpt><trkpt lat="42.49436088712318" lon="11.542212219488869"><ele>141.0</ele><time>2026-04-30T09:13:33.964Z</time></trkpt><trkpt lat="42.49426024215571" lon="11.54238542641144"><ele>141.0</ele><time>2026-04-30T09:13:34.964Z</time></trkpt><trkpt lat="42.49412101290615" lon="11.542578996010809"><ele>141.0</ele><time>2026-04-30T09:13:35.964Z</time></trkpt><trkpt lat="42.49404097013465" lon="11.542704903932439"><ele>141.0</ele><time>2026-04-30T09:13:36.964Z</time></trkpt><trkpt lat="42.49396197944911" lon="11.542809918788935"><ele>141.0</ele><time>2026-04-30T09:13:37.964Z</time></trkpt><trkpt lat="42.49387524654344" lon="11.54293827084036"><ele>140.0</ele><time>2026-04-30T09:13:38.964Z</time></trkpt><trkpt lat="42.49379818051015" lon="11.543051502314688"><ele>139.0</ele><time>2026-04-30T09:13:39.964Z</time></trkpt><trkpt lat="42.493703651741704" lon="11.543194042883298"><ele>138.0</ele><time>2026-04-30T09:13:40.964Z</time></trkpt><trkpt lat="42.49358906215482" lon="11.543370918925717"><ele>137.0</ele><time>2026-04-30T09:13:41.964Z</time></trkpt><trkpt lat="42.49349040308097" lon="11.543513313333943"><ele>137.0</ele><time>2026-04-30T09:13:42.964Z</time></trkpt><trkpt lat="42.493398721597075" lon="11.54365188972753"><ele>137.0</ele><time>2026-04-30T09:13:43.964Z</time></trkpt><trkpt lat="42.493302338583455" lon="11.54379122182841"><ele>137.0</ele><time>2026-04-30T09:13:44.964Z</time></trkpt><trkpt lat="42.4932033075789" lon="11.543926179740335"><ele>137.0</ele><time>2026-04-30T09:13:45.964Z</time></trkpt><trkpt lat="42.49311304392127" lon="11.544066414846627"><ele>137.5</ele><time>2026-04-30T09:13:46.964Z</time></trkpt><trkpt lat="42.493005763086124" lon="11.544169358115537"><ele>138.0</ele><time>2026-04-30T09:13:47.964Z</time></trkpt><trkpt lat="42.492872525630276" lon="11.544220437953966"><ele>138.5</ele><time>2026-04-30T09:13:48.964Z</time></trkpt><trkpt lat="42.49274194298862" lon="11.54426470067122"><ele>139.0</ele><time>2026-04-30T09:13:49.964Z</time></trkpt><trkpt lat="42.492610229046804" lon="11.54430844746045"><ele>139.0</ele><time>2026-04-30T09:13:50.964Z</time></trkpt><trkpt lat="42.492483879218256" lon="11.544310853055169"><ele>139.0</ele><time>2026-04-30T09:13:51.964Z</time></trkpt><trkpt lat="42.4923552771206" lon="11.544360636521768"><ele>139.0</ele><time>2026-04-30T09:13:52.964Z</time></trkpt><trkpt lat="42.492224495480265" lon="11.544409820109298"><ele>139.0</ele><time>2026-04-30T09:13:53.964Z</time></trkpt><trkpt lat="42.49209736408826" lon="11.54445142467595"><ele>139.75</ele><time>2026-04-30T09:13:54.964Z</time></trkpt><trkpt lat="42.491964350536286" lon="11.544491149503168"><ele>140.5</ele><time>2026-04-30T09:13:55.964Z</time></trkpt><trkpt lat="42.49183750165073" lon="11.544541030934214"><ele>141.25</ele><time>2026-04-30T09:13:56.964Z</time></trkpt><trkpt lat="42.491706662890465" lon="11.544569810991328"><ele>142.0</ele><time>2026-04-30T09:13:57.964Z</time></trkpt><trkpt lat="42.491584386326764" lon="11.544641126501563"><ele>142.0</ele><time>2026-04-30T09:13:58.964Z</time></trkpt><trkpt lat="42.491484555777966" lon="11.5447627067256"><ele>142.0</ele><time>2026-04-30T09:13:59.964Z</time></trkpt><trkpt lat="42.49138808138098" lon="11.544903847820299"><ele>142.0</ele><time>2026-04-30T09:14:00.964Z</time></trkpt><trkpt lat="42.49129746731047" lon="11.545052814335579"><ele>142.0</ele><time>2026-04-30T09:14:01.964Z</time></trkpt><trkpt lat="42.491208081381956" lon="11.545198119669456"><ele>140.5</ele><time>2026-04-30T09:14:02.964Z</time></trkpt><trkpt lat="42.49110423964689" lon="11.545314980702528"><ele>139.0</ele><time>2026-04-30T09:14:03.964Z</time></trkpt><trkpt lat="42.49100767255777" lon="11.5454557334968"><ele>137.5</ele><time>2026-04-30T09:14:04.964Z</time></trkpt><trkpt lat="42.490906337273735" lon="11.54557019588578"><ele>136.0</ele><time>2026-04-30T09:14:05.964Z</time></trkpt><trkpt lat="42.49081733398824" lon="11.54565973943863"><ele>136.0</ele><time>2026-04-30T09:14:06.964Z</time></trkpt><trkpt lat="42.49074137826793" lon="11.54576887438358"><ele>136.0</ele><time>2026-04-30T09:14:07.964Z</time></trkpt><trkpt lat="42.490657420038076" lon="11.545899647476011"><ele>136.0</ele><time>2026-04-30T09:14:08.964Z</time></trkpt><trkpt lat="42.490561617786824" lon="11.546037420722056"><ele>136.0</ele><time>2026-04-30T09:14:09.964Z</time></trkpt><trkpt lat="42.490451293550024" lon="11.54616032840626"><ele>135.5</ele><time>2026-04-30T09:14:10.964Z</time></trkpt><trkpt lat="42.49034777624925" lon="11.546298075401479"><ele>135.0</ele><time>2026-04-30T09:14:11.964Z</time></trkpt><trkpt lat="42.49024400121901" lon="11.546423857319324"><ele>134.5</ele><time>2026-04-30T09:14:12.964Z</time></trkpt><trkpt lat="42.490149701300886" lon="11.546551300706245"><ele>134.0</ele><time>2026-04-30T09:14:13.964Z</time></trkpt><trkpt lat="42.49004894407137" lon="11.546678231182288"><ele>134.0</ele><time>2026-04-30T09:14:14.964Z</time></trkpt><trkpt lat="42.48995010445997" lon="11.546810006107837"><ele>134.0</ele><time>2026-04-30T09:14:15.964Z</time></trkpt><trkpt lat="42.48985423459594" lon="11.546943760356074"><ele>134.0</ele><time>2026-04-30T09:14:16.964Z</time></trkpt><trkpt lat="42.489759211141056" lon="11.547069451657741"><ele>134.0</ele><time>2026-04-30T09:14:17.964Z</time></trkpt><trkpt lat="42.48965182516865" lon="11.547185509487006"><ele>133.5</ele><time>2026-04-30T09:14:18.964Z</time></trkpt><trkpt lat="42.489562101291504" lon="11.547312594390416"><ele>133.0</ele><time>2026-04-30T09:14:19.964Z</time></trkpt><trkpt lat="42.48946737917603" lon="11.547436064281026"><ele>132.5</ele><time>2026-04-30T09:14:20.964Z</time></trkpt><trkpt lat="42.48937734128049" lon="11.54755777593993"><ele>132.0</ele><time>2026-04-30T09:14:21.964Z</time></trkpt><trkpt lat="42.4892822719469" lon="11.547675558822442"><ele>132.0</ele><time>2026-04-30T09:14:22.965Z</time></trkpt><trkpt lat="42.48918567354363" lon="11.54779803653498"><ele>132.0</ele><time>2026-04-30T09:14:23.965Z</time></trkpt><trkpt lat="42.48908490010803" lon="11.547922192785412"><ele>132.0</ele><time>2026-04-30T09:14:24.965Z</time></trkpt><trkpt lat="42.48898505443117" lon="11.548057994039349"><ele>132.0</ele><time>2026-04-30T09:14:25.965Z</time></trkpt><trkpt lat="42.488875660000765" lon="11.548179219268286"><ele>131.75</ele><time>2026-04-30T09:14:26.965Z</time></trkpt><trkpt lat="42.48877708524198" lon="11.548313321674776"><ele>131.5</ele><time>2026-04-30T09:14:27.965Z</time></trkpt><trkpt lat="42.48867206792574" lon="11.548447085025787"><ele>131.25</ele><time>2026-04-30T09:14:28.965Z</time></trkpt><trkpt lat="42.48857070638246" lon="11.548581975357026"><ele>131.0</ele><time>2026-04-30T09:14:29.965Z</time></trkpt><trkpt lat="42.4884628315093" lon="11.548717574493983"><ele>131.75</ele><time>2026-04-30T09:14:30.965Z</time></trkpt><trkpt lat="42.488359519961584" lon="11.548860486075004"><ele>132.5</ele><time>2026-04-30T09:14:31.965Z</time></trkpt><trkpt lat="42.48824426213265" lon="11.548994944590216"><ele>133.25</ele><time>2026-04-30T09:14:32.965Z</time></trkpt><trkpt lat="42.48812981005228" lon="11.549123277850049"><ele>134.0</ele><time>2026-04-30T09:14:33.965Z</time></trkpt><trkpt lat="42.488022409488664" lon="11.549257479321582"><ele>134.0</ele><time>2026-04-30T09:14:34.965Z</time></trkpt><trkpt lat="42.48792875562972" lon="11.549403692470058"><ele>134.0</ele><time>2026-04-30T09:14:35.965Z</time></trkpt><trkpt lat="42.487828123997026" lon="11.549553808511156"><ele>134.0</ele><time>2026-04-30T09:14:36.965Z</time></trkpt><trkpt lat="42.4877287434003" lon="11.549692830375774"><ele>134.0</ele><time>2026-04-30T09:14:37.965Z</time></trkpt><trkpt lat="42.487626569189615" lon="11.549824735529596"><ele>132.75</ele><time>2026-04-30T09:14:38.965Z</time></trkpt><trkpt lat="42.48751502916996" lon="11.54996090598648"><ele>131.5</ele><time>2026-04-30T09:14:39.965Z</time></trkpt><trkpt lat="42.4874036283316" lon="11.550090243295736"><ele>130.25</ele><time>2026-04-30T09:14:40.965Z</time></trkpt><trkpt lat="42.48728969473037" lon="11.5502102301619"><ele>129.0</ele><time>2026-04-30T09:14:41.965Z</time></trkpt><trkpt lat="42.48718277855521" lon="11.55031537386069"><ele>129.75</ele><time>2026-04-30T09:14:42.965Z</time></trkpt><trkpt lat="42.48707423484452" lon="11.550421934970009"><ele>130.5</ele><time>2026-04-30T09:14:43.965Z</time></trkpt><trkpt lat="42.48696720569758" lon="11.55053239122258"><ele>131.25</ele><time>2026-04-30T09:14:44.965Z</time></trkpt><trkpt lat="42.48685097476401" lon="11.550649125182082"><ele>132.0</ele><time>2026-04-30T09:14:45.965Z</time></trkpt><trkpt lat="42.48674094810594" lon="11.550764200166451"><ele>132.0</ele><time>2026-04-30T09:14:46.965Z</time></trkpt><trkpt lat="42.48662792913702" lon="11.5508769966519"><ele>132.0</ele><time>2026-04-30T09:14:47.965Z</time></trkpt><trkpt lat="42.48651885707974" lon="11.550980110481056"><ele>132.0</ele><time>2026-04-30T09:14:48.965Z</time></trkpt><trkpt lat="42.48640676678137" lon="11.551088090951357"><ele>132.0</ele><time>2026-04-30T09:14:49.965Z</time></trkpt><trkpt lat="42.4862937545489" lon="11.551204957835157"><ele>132.75</ele><time>2026-04-30T09:14:50.965Z</time></trkpt><trkpt lat="42.48617847101377" lon="11.551317763043981"><ele>133.5</ele><time>2026-04-30T09:14:51.965Z</time></trkpt><trkpt lat="42.48606062654715" lon="11.551419868352982"><ele>134.25</ele><time>2026-04-30T09:14:52.965Z</time></trkpt><trkpt lat="42.48595091267722" lon="11.551518808776231"><ele>135.0</ele><time>2026-04-30T09:14:53.965Z</time></trkpt><trkpt lat="42.485845886166715" lon="11.551628451770588"><ele>135.0</ele><time>2026-04-30T09:14:54.965Z</time></trkpt><trkpt lat="42.48573468731363" lon="11.551741874145698"><ele>135.0</ele><time>2026-04-30T09:14:55.965Z</time></trkpt><trkpt lat="42.485631855260166" lon="11.551867124742891"><ele>135.0</ele><time>2026-04-30T09:14:56.965Z</time></trkpt><trkpt lat="42.48553297302594" lon="11.552000109289121"><ele>135.0</ele><time>2026-04-30T09:14:57.965Z</time></trkpt><trkpt lat="42.485452104830195" lon="11.552142134267518"><ele>134.25</ele><time>2026-04-30T09:14:58.965Z</time></trkpt><trkpt lat="42.48538071330086" lon="11.552288144987646"><ele>133.5</ele><time>2026-04-30T09:14:59.965Z</time></trkpt><trkpt lat="42.485319449697236" lon="11.552456556686469"><ele>132.75</ele><time>2026-04-30T09:15:00.965Z</time></trkpt><trkpt lat="42.48527618171678" lon="11.55263125193835"><ele>132.0</ele><time>2026-04-30T09:15:01.965Z</time></trkpt><trkpt lat="42.48523831228574" lon="11.55280624904762"><ele>133.75</ele><time>2026-04-30T09:15:02.965Z</time></trkpt><trkpt lat="42.485195646743456" lon="11.552964300797743"><ele>135.5</ele><time>2026-04-30T09:15:03.965Z</time></trkpt><trkpt lat="42.48515948822085" lon="11.553122884698862"><ele>137.25</ele><time>2026-04-30T09:15:04.965Z</time></trkpt><trkpt lat="42.48512929927468" lon="11.553275591301103"><ele>139.0</ele><time>2026-04-30T09:15:05.965Z</time></trkpt><trkpt lat="42.4851028150128" lon="11.553411663878668"><ele>139.0</ele><time>2026-04-30T09:15:06.965Z</time></trkpt><trkpt lat="42.485065576083585" lon="11.55354666028612"><ele>139.0</ele><time>2026-04-30T09:15:07.965Z</time></trkpt><trkpt lat="42.485027108418265" lon="11.553694433013753"><ele>139.0</ele><time>2026-04-30T09:15:08.965Z</time></trkpt><trkpt lat="42.4849870901352" lon="11.553851865108621"><ele>139.0</ele><time>2026-04-30T09:15:09.964Z</time></trkpt><trkpt lat="42.48494633632663" lon="11.554008113303425"><ele>140.5</ele><time>2026-04-30T09:15:10.964Z</time></trkpt><trkpt lat="42.48489317380745" lon="11.554166234401231"><ele>142.0</ele><time>2026-04-30T09:15:11.964Z</time></trkpt><trkpt lat="42.48483281560673" lon="11.554314570007042"><ele>143.5</ele><time>2026-04-30T09:15:12.963Z</time></trkpt><trkpt lat="42.484768261574" lon="11.554468014624941"><ele>145.0</ele><time>2026-04-30T09:15:13.963Z</time></trkpt><trkpt lat="42.48470263313887" lon="11.554614155021776"><ele>145.0</ele><time>2026-04-30T09:15:14.963Z</time></trkpt><trkpt lat="42.48462927348889" lon="11.554759917056412"><ele>145.0</ele><time>2026-04-30T09:15:15.963Z</time></trkpt><trkpt lat="42.484551857394" lon="11.554894312672708"><ele>145.0</ele><time>2026-04-30T09:15:16.964Z</time></trkpt><trkpt lat="42.48447734628536" lon="11.555013015629209"><ele>145.0</ele><time>2026-04-30T09:15:17.964Z</time></trkpt><trkpt lat="42.48439582050925" lon="11.555124382649355"><ele>145.0</ele><time>2026-04-30T09:15:18.964Z</time></trkpt><trkpt lat="42.48430713137987" lon="11.555231830965777"><ele>145.0</ele><time>2026-04-30T09:15:19.964Z</time></trkpt><trkpt lat="42.48422356022891" lon="11.555326308242993"><ele>145.0</ele><time>2026-04-30T09:15:20.964Z</time></trkpt><trkpt lat="42.48414787886066" lon="11.555406871604772"><ele>145.0</ele><time>2026-04-30T09:15:21.964Z</time></trkpt><trkpt lat="42.4840725514082" lon="11.555467781960857"><ele>145.0</ele><time>2026-04-30T09:15:22.963Z</time></trkpt><trkpt lat="42.48401182941611" lon="11.555499278065843"><ele>145.0</ele><time>2026-04-30T09:15:23.963Z</time></trkpt><trkpt lat="42.483905908790746" lon="11.555475516781833"><ele>145.0</ele><time>2026-04-30T09:15:25.963Z</time></trkpt><trkpt lat="42.48381919433788" lon="11.555394527999487"><ele>145.0</ele><time>2026-04-30T09:15:27.963Z</time></trkpt><trkpt lat="42.48379094809825" lon="11.555315273218278"><ele>145.0</ele><time>2026-04-30T09:15:28.963Z</time></trkpt><trkpt lat="42.48375211649373" lon="11.55520265751118"><ele>145.0</ele><time>2026-04-30T09:15:29.963Z</time></trkpt><trkpt lat="42.48371417938506" lon="11.555090641648405"><ele>145.33333333333334</ele><time>2026-04-30T09:15:30.963Z</time></trkpt><trkpt lat="42.48366717261406" lon="11.554993121930888"><ele>145.66666666666669</ele><time>2026-04-30T09:15:31.963Z</time></trkpt><trkpt lat="42.48363648787378" lon="11.554907936754285"><ele>146.0</ele><time>2026-04-30T09:15:32.963Z</time></trkpt><trkpt lat="42.48356164471357" lon="11.554791921704124"><ele>146.33333333333334</ele><time>2026-04-30T09:15:34.963Z</time></trkpt><trkpt lat="42.48350999551803" lon="11.554736072893826"><ele>146.66666666666666</ele><time>2026-04-30T09:15:35.963Z</time></trkpt><trkpt lat="42.48342889498961" lon="11.554695199158006"><ele>147.0</ele><time>2026-04-30T09:15:36.963Z</time></trkpt><trkpt lat="42.483340994518244" lon="11.554664618781581"><ele>147.0</ele><time>2026-04-30T09:15:37.963Z</time></trkpt><trkpt lat="42.483238673457414" lon="11.554642060925836"><ele>147.0</ele><time>2026-04-30T09:15:38.963Z</time></trkpt><trkpt lat="42.483129349912865" lon="11.554616687845943"><ele>147.0</ele><time>2026-04-30T09:15:39.963Z</time></trkpt><trkpt lat="42.48300359883149" lon="11.554583436136836"><ele>147.0</ele><time>2026-04-30T09:15:40.963Z</time></trkpt><trkpt lat="42.48287968925095" lon="11.554546454457837"><ele>144.79999999999998</ele><time>2026-04-30T09:15:41.963Z</time></trkpt><trkpt lat="42.482771548410724" lon="11.554494139890508"><ele>142.6</ele><time>2026-04-30T09:15:42.963Z</time></trkpt><trkpt lat="42.482665764401794" lon="11.55444301926271"><ele>140.39999999999998</ele><time>2026-04-30T09:15:43.963Z</time></trkpt><trkpt lat="42.48257239920051" lon="11.55440295315777"><ele>138.2</ele><time>2026-04-30T09:15:44.963Z</time></trkpt><trkpt lat="42.482485565921" lon="11.554344165640902"><ele>136.0</ele><time>2026-04-30T09:15:45.963Z</time></trkpt><trkpt lat="42.48238928015385" lon="11.55430575827386"><ele>136.0</ele><time>2026-04-30T09:15:46.963Z</time></trkpt><trkpt lat="42.4822851044292" lon="11.554281527168829"><ele>136.0</ele><time>2026-04-30T09:15:47.963Z</time></trkpt><trkpt lat="42.4821794309036" lon="11.554279288492692"><ele>136.0</ele><time>2026-04-30T09:15:48.963Z</time></trkpt><trkpt lat="42.48207169105079" lon="11.55429939321776"><ele>136.0</ele><time>2026-04-30T09:15:49.963Z</time></trkpt><trkpt lat="42.48196302469136" lon="11.554329171370185"><ele>136.0</ele><time>2026-04-30T09:15:50.963Z</time></trkpt><trkpt lat="42.481851845723774" lon="11.554345291178413"><ele>134.5</ele><time>2026-04-30T09:15:51.963Z</time></trkpt><trkpt lat="42.48173100029161" lon="11.554352353004516"><ele>133.0</ele><time>2026-04-30T09:15:52.963Z</time></trkpt><trkpt lat="42.48161350635311" lon="11.554380902838409"><ele>131.5</ele><time>2026-04-30T09:15:53.963Z</time></trkpt><trkpt lat="42.48149262524814" lon="11.55441960486185"><ele>130.0</ele><time>2026-04-30T09:15:54.963Z</time></trkpt><trkpt lat="42.4813774295432" lon="11.554437191408596"><ele>129.0</ele><time>2026-04-30T09:15:55.963Z</time></trkpt><trkpt lat="42.48126091036286" lon="11.554452247532051"><ele>128.0</ele><time>2026-04-30T09:15:56.963Z</time></trkpt><trkpt lat="42.48115093743503" lon="11.554473325208175"><ele>127.0</ele><time>2026-04-30T09:15:57.963Z</time></trkpt><trkpt lat="42.481043179094264" lon="11.554481516156878"><ele>126.0</ele><time>2026-04-30T09:15:58.963Z</time></trkpt><trkpt lat="42.48094116308461" lon="11.554494014592152"><ele>125.0</ele><time>2026-04-30T09:15:59.963Z</time></trkpt><trkpt lat="42.48083717463775" lon="11.554508739737399"><ele>124.99999999999999</ele><time>2026-04-30T09:16:00.963Z</time></trkpt><trkpt lat="42.480753510552816" lon="11.554533364077486"><ele>125.0</ele><time>2026-04-30T09:16:01.963Z</time></trkpt><trkpt lat="42.480669923442164" lon="11.554532584935359"><ele>125.0</ele><time>2026-04-30T09:16:02.963Z</time></trkpt><trkpt lat="42.480577594808715" lon="11.554502420440366"><ele>125.0</ele><time>2026-04-30T09:16:03.963Z</time></trkpt><trkpt lat="42.48049175633302" lon="11.554473590424392"><ele>124.99999999999999</ele><time>2026-04-30T09:16:04.963Z</time></trkpt><trkpt lat="42.48040719924833" lon="11.55443566216"><ele>125.0</ele><time>2026-04-30T09:16:05.963Z</time></trkpt><trkpt lat="42.48032313902741" lon="11.554391911026382"><ele>124.66666666666666</ele><time>2026-04-30T09:16:06.963Z</time></trkpt><trkpt lat="42.48024305023999" lon="11.554360920454455"><ele>124.33333333333333</ele><time>2026-04-30T09:16:07.963Z</time></trkpt><trkpt lat="42.480165124677626" lon="11.554340007040114"><ele>124.0</ele><time>2026-04-30T09:16:08.963Z</time></trkpt><trkpt lat="42.48007887518609" lon="11.554329685376318"><ele>123.66666666666666</ele><time>2026-04-30T09:16:09.963Z</time></trkpt><trkpt lat="42.479999826222404" lon="11.554328513106887"><ele>123.33333333333333</ele><time>2026-04-30T09:16:10.963Z</time></trkpt><trkpt lat="42.47992099456384" lon="11.554365344569709"><ele>123.0</ele><time>2026-04-30T09:16:11.963Z</time></trkpt><trkpt lat="42.47982855227417" lon="11.55439649741512"><ele>123.0</ele><time>2026-04-30T09:16:12.963Z</time></trkpt><trkpt lat="42.479715663677915" lon="11.554397715991506"><ele>123.0</ele><time>2026-04-30T09:16:13.963Z</time></trkpt><trkpt lat="42.4795943628904" lon="11.554401781691663"><ele>123.0</ele><time>2026-04-30T09:16:14.963Z</time></trkpt><trkpt lat="42.47946756870482" lon="11.55438852172844"><ele>123.0</ele><time>2026-04-30T09:16:15.963Z</time></trkpt><trkpt lat="42.47936109254201" lon="11.554380414443044"><ele>122.2</ele><time>2026-04-30T09:16:16.963Z</time></trkpt><trkpt lat="42.47925921278033" lon="11.554378907952326"><ele>121.4</ele><time>2026-04-30T09:16:17.963Z</time></trkpt><trkpt lat="42.47916078168437" lon="11.554390026044079"><ele>120.60000000000001</ele><time>2026-04-30T09:16:18.963Z</time></trkpt><trkpt lat="42.479052793070984" lon="11.554415190447735"><ele>119.80000000000001</ele><time>2026-04-30T09:16:19.963Z</time></trkpt><trkpt lat="42.4789402814147" lon="11.554439806819747"><ele>119.0</ele><time>2026-04-30T09:16:20.963Z</time></trkpt><trkpt lat="42.47883901601194" lon="11.554466957281356"><ele>118.99999999999999</ele><time>2026-04-30T09:16:21.963Z</time></trkpt><trkpt lat="42.47875411548616" lon="11.554492027571929"><ele>119.0</ele><time>2026-04-30T09:16:22.963Z</time></trkpt><trkpt lat="42.47868312124498" lon="11.554516836168595"><ele>119.0</ele><time>2026-04-30T09:16:23.963Z</time></trkpt><trkpt lat="42.47859548260065" lon="11.554573168395795"><ele>119.0</ele><time>2026-04-30T09:16:25.964Z</time></trkpt><trkpt lat="42.47852537332092" lon="11.554614979491143"><ele>118.99999999999999</ele><time>2026-04-30T09:16:27.964Z</time></trkpt><trkpt lat="42.4784272647394" lon="11.554655882687088"><ele>119.0</ele><time>2026-04-30T09:16:29.964Z</time></trkpt><trkpt lat="42.47835189572371" lon="11.554674092966737"><ele>119.0</ele><time>2026-04-30T09:16:30.964Z</time></trkpt><trkpt lat="42.47827468557586" lon="11.554690989917905"><ele>119.0</ele><time>2026-04-30T09:16:31.964Z</time></trkpt><trkpt lat="42.47820516856013" lon="11.554700786116989"><ele>119.0</ele><time>2026-04-30T09:16:32.964Z</time></trkpt><trkpt lat="42.47812662487243" lon="11.554703800184457"><ele>119.0</ele><time>2026-04-30T09:16:33.964Z</time></trkpt><trkpt lat="42.478061307122246" lon="11.55469354685766"><ele>119.0</ele><time>2026-04-30T09:16:34.964Z</time></trkpt><trkpt lat="42.47799268562726" lon="11.554685904813383"><ele>119.0</ele><time>2026-04-30T09:16:35.964Z</time></trkpt><trkpt lat="42.47791806079955" lon="11.554677475610342"><ele>119.0</ele><time>2026-04-30T09:16:36.964Z</time></trkpt><trkpt lat="42.47783645295442" lon="11.554707008690658"><ele>118.99999999999999</ele><time>2026-04-30T09:16:37.964Z</time></trkpt><trkpt lat="42.47775269169247" lon="11.554730798378296"><ele>119.0</ele><time>2026-04-30T09:16:38.964Z</time></trkpt><trkpt lat="42.477663256132615" lon="11.554740765955449"><ele>119.0</ele><time>2026-04-30T09:16:39.964Z</time></trkpt><trkpt lat="42.47757896341539" lon="11.554743433684253"><ele>119.0</ele><time>2026-04-30T09:16:40.964Z</time></trkpt><trkpt lat="42.47749347191032" lon="11.554743897781806"><ele>118.99999999999999</ele><time>2026-04-30T09:16:41.964Z</time></trkpt><trkpt lat="42.47741199052314" lon="11.55473310628391"><ele>119.0</ele><time>2026-04-30T09:16:42.964Z</time></trkpt><trkpt lat="42.47729190681426" lon="11.554727547873462"><ele>119.0</ele><time>2026-04-30T09:16:44.964Z</time></trkpt><trkpt lat="42.4772170307092" lon="11.554726320501567"><ele>119.0</ele><time>2026-04-30T09:16:45.964Z</time></trkpt><trkpt lat="42.47714234878019" lon="11.554720837963322"><ele>119.0</ele><time>2026-04-30T09:16:46.964Z</time></trkpt><trkpt lat="42.47701895251828" lon="11.55471570288041"><ele>119.0</ele><time>2026-04-30T09:16:48.964Z</time></trkpt><trkpt lat="42.476950310105444" lon="11.55472165719006"><ele>119.0</ele><time>2026-04-30T09:16:49.964Z</time></trkpt><trkpt lat="42.47683623653343" lon="11.55468755843455"><ele>120.2</ele><time>2026-04-30T09:16:51.964Z</time></trkpt><trkpt lat="42.4767847094309" lon="11.554613728896685"><ele>121.4</ele><time>2026-04-30T09:16:53.964Z</time></trkpt><trkpt lat="42.476732136576395" lon="11.554523662615841"><ele>122.6</ele><time>2026-04-30T09:16:55.964Z</time></trkpt><trkpt lat="42.47670866014239" lon="11.554363413933018"><ele>123.8</ele><time>2026-04-30T09:16:57.964Z</time></trkpt><trkpt lat="42.47671176915062" lon="11.554266141437667"><ele>125.0</ele><time>2026-04-30T09:16:58.964Z</time></trkpt><trkpt lat="42.47673927758833" lon="11.554106072201154"><ele>127.0</ele><time>2026-04-30T09:17:00.964Z</time></trkpt><trkpt lat="42.476776764191364" lon="11.553953313768869"><ele>129.0</ele><time>2026-04-30T09:17:02.964Z</time></trkpt><trkpt lat="42.476793849678835" lon="11.553850794195844"><ele>131.0</ele><time>2026-04-30T09:17:03.964Z</time></trkpt><trkpt lat="42.476807997734134" lon="11.553676657981303"><ele>133.0</ele><time>2026-04-30T09:17:05.964Z</time></trkpt><trkpt lat="42.47684479074861" lon="11.55357276888825"><ele>135.0</ele><time>2026-04-30T09:17:06.964Z</time></trkpt><trkpt lat="42.4768959917068" lon="11.553494211088353"><ele>135.6</ele><time>2026-04-30T09:17:07.964Z</time></trkpt><trkpt lat="42.476957877907545" lon="11.553412555967267"><ele>136.2</ele><time>2026-04-30T09:17:08.964Z</time></trkpt><trkpt lat="42.47704449798159" lon="11.55330134496947"><ele>136.8</ele><time>2026-04-30T09:17:10.964Z</time></trkpt><trkpt lat="42.477128493212604" lon="11.553220640904827"><ele>137.4</ele><time>2026-04-30T09:17:12.964Z</time></trkpt><trkpt lat="42.47717890788259" lon="11.553084094314505"><ele>138.0</ele><time>2026-04-30T09:17:14.964Z</time></trkpt><trkpt lat="42.47718451718718" lon="11.552992554275024"><ele>139.5</ele><time>2026-04-30T09:17:15.963Z</time></trkpt><trkpt lat="42.477156639873506" lon="11.552832815089172"><ele>141.0</ele><time>2026-04-30T09:17:17.963Z</time></trkpt><trkpt lat="42.477096911442686" lon="11.552745398890082"><ele>142.5</ele><time>2026-04-30T09:17:18.963Z</time></trkpt><trkpt lat="42.477023592595934" lon="11.552680416286591"><ele>144.0</ele><time>2026-04-30T09:17:19.963Z</time></trkpt><trkpt lat="42.47696261093876" lon="11.552620137151003"><ele>145.5</ele><time>2026-04-30T09:17:20.963Z</time></trkpt><trkpt lat="42.476900076973195" lon="11.552570948212875"><ele>147.0</ele><time>2026-04-30T09:17:21.963Z</time></trkpt><trkpt lat="42.476845548112564" lon="11.552525502925805"><ele>148.79999999999998</ele><time>2026-04-30T09:17:22.963Z</time></trkpt><trkpt lat="42.476774619005376" lon="11.552472159399153"><ele>150.6</ele><time>2026-04-30T09:17:24.963Z</time></trkpt><trkpt lat="42.476720367090884" lon="11.552366915691103"><ele>152.39999999999998</ele><time>2026-04-30T09:17:26.963Z</time></trkpt><trkpt lat="42.47668718781979" lon="11.552228565281233"><ele>154.2</ele><time>2026-04-30T09:17:28.963Z</time></trkpt><trkpt lat="42.476598059295796" lon="11.55211083911872"><ele>156.0</ele><time>2026-04-30T09:17:30.963Z</time></trkpt><trkpt lat="42.47653143455117" lon="11.552037758334546"><ele>156.83333333333334</ele><time>2026-04-30T09:17:31.963Z</time></trkpt><trkpt lat="42.47646008572797" lon="11.551960911796026"><ele>157.66666666666666</ele><time>2026-04-30T09:17:32.963Z</time></trkpt><trkpt lat="42.47639500905591" lon="11.551919807093745"><ele>158.5</ele><time>2026-04-30T09:17:33.963Z</time></trkpt><trkpt lat="42.47634410517358" lon="11.55186955528293"><ele>159.33333333333331</ele><time>2026-04-30T09:17:34.963Z</time></trkpt><trkpt lat="42.47630086491037" lon="11.551793113224667"><ele>160.16666666666666</ele><time>2026-04-30T09:17:35.963Z</time></trkpt><trkpt lat="42.476262224920994" lon="11.55169115302155"><ele>161.0</ele><time>2026-04-30T09:17:36.963Z</time></trkpt><trkpt lat="42.47621514622544" lon="11.551597818271066"><ele>161.14285714285714</ele><time>2026-04-30T09:17:37.963Z</time></trkpt><trkpt lat="42.47617729137275" lon="11.551516370931385"><ele>161.28571428571428</ele><time>2026-04-30T09:17:38.963Z</time></trkpt><trkpt lat="42.47614659186059" lon="11.551437519345464"><ele>161.42857142857144</ele><time>2026-04-30T09:17:39.963Z</time></trkpt><trkpt lat="42.47612778849214" lon="11.551355018760873"><ele>161.57142857142856</ele><time>2026-04-30T09:17:40.963Z</time></trkpt><trkpt lat="42.47611318367862" lon="11.551270612742412"><ele>161.71428571428572</ele><time>2026-04-30T09:17:41.963Z</time></trkpt><trkpt lat="42.476105983996845" lon="11.551178556859936"><ele>161.85714285714286</ele><time>2026-04-30T09:17:42.963Z</time></trkpt><trkpt lat="42.47609128790592" lon="11.551073491182882"><ele>162.0</ele><time>2026-04-30T09:17:43.963Z</time></trkpt><trkpt lat="42.47608178917038" lon="11.550974930418066"><ele>163.83333333333334</ele><time>2026-04-30T09:17:44.963Z</time></trkpt><trkpt lat="42.47605378624533" lon="11.550803261379945"><ele>165.66666666666666</ele><time>2026-04-30T09:17:46.963Z</time></trkpt><trkpt lat="42.47602870998316" lon="11.550722858390591"><ele>167.5</ele><time>2026-04-30T09:17:47.963Z</time></trkpt><trkpt lat="42.476000842079536" lon="11.550615553280123"><ele>169.33333333333331</ele><time>2026-04-30T09:17:48.963Z</time></trkpt><trkpt lat="42.4759756624815" lon="11.550514498463123"><ele>171.16666666666666</ele><time>2026-04-30T09:17:49.963Z</time></trkpt><trkpt lat="42.47597052676402" lon="11.550421531329457"><ele>173.0</ele><time>2026-04-30T09:17:50.963Z</time></trkpt><trkpt lat="42.47595573114955" lon="11.55031781521169"><ele>175.33333333333331</ele><time>2026-04-30T09:17:51.963Z</time></trkpt><trkpt lat="42.47595957853682" lon="11.55021191094618"><ele>177.66666666666666</ele><time>2026-04-30T09:17:53.963Z</time></trkpt><trkpt lat="42.47594424330378" lon="11.550125329692232"><ele>180.0</ele><time>2026-04-30T09:17:54.963Z</time></trkpt><trkpt lat="42.47592461138054" lon="11.550030698900809"><ele>182.33333333333334</ele><time>2026-04-30T09:17:55.963Z</time></trkpt><trkpt lat="42.475876557621866" lon="11.549888998153662"><ele>184.66666666666669</ele><time>2026-04-30T09:17:57.963Z</time></trkpt><trkpt lat="42.475841229709495" lon="11.5497975641294"><ele>187.0</ele><time>2026-04-30T09:17:59.963Z</time></trkpt><trkpt lat="42.47580156400322" lon="11.549704343896622"><ele>187.0</ele><time>2026-04-30T09:18:01.963Z</time></trkpt><trkpt lat="42.4757448744794" lon="11.549592851807597"><ele>187.0</ele><time>2026-04-30T09:18:03.963Z</time></trkpt><trkpt lat="42.475693270575334" lon="11.54950683642021"><ele>187.0</ele><time>2026-04-30T09:18:04.963Z</time></trkpt><trkpt lat="42.47563723421595" lon="11.549434117462942"><ele>187.0</ele><time>2026-04-30T09:18:05.963Z</time></trkpt><trkpt lat="42.47559279190243" lon="11.549373223879783"><ele>187.0</ele><time>2026-04-30T09:18:06.963Z</time></trkpt><trkpt lat="42.47555987616189" lon="11.54927046107013"><ele>187.0</ele><time>2026-04-30T09:18:08.963Z</time></trkpt><trkpt lat="42.47550855433446" lon="11.549202822553982"><ele>188.83333333333334</ele><time>2026-04-30T09:18:10.963Z</time></trkpt><trkpt lat="42.475470087945844" lon="11.54907821802921"><ele>190.66666666666669</ele><time>2026-04-30T09:18:12.963Z</time></trkpt><trkpt lat="42.475475980777446" lon="11.548969561035054"><ele>192.5</ele><time>2026-04-30T09:18:14.963Z</time></trkpt><trkpt lat="42.47543437736822" lon="11.548886168977873"><ele>194.33333333333334</ele><time>2026-04-30T09:18:16.963Z</time></trkpt><trkpt lat="42.47543442335814" lon="11.548796358376384"><ele>196.16666666666666</ele><time>2026-04-30T09:18:19.963Z</time></trkpt><trkpt lat="42.475363323863775" lon="11.548719578107017"><ele>198.0</ele><time>2026-04-30T09:18:21.963Z</time></trkpt><trkpt lat="42.47531512985665" lon="11.548662292116363"><ele>200.16666666666666</ele><time>2026-04-30T09:18:23.963Z</time></trkpt><trkpt lat="42.47528622262892" lon="11.54857736704181"><ele>202.33333333333331</ele><time>2026-04-30T09:20:09.963Z</time></trkpt><trkpt lat="42.47522813428339" lon="11.548494247823667"><ele>204.5</ele><time>2026-04-30T09:20:19.963Z</time></trkpt><trkpt lat="42.4751801970693" lon="11.548433476318383"><ele>206.66666666666666</ele><time>2026-04-30T09:20:21.963Z</time></trkpt><trkpt lat="42.475135526361576" lon="11.548339247574807"><ele>208.83333333333331</ele><time>2026-04-30T09:20:24.963Z</time></trkpt><trkpt lat="42.47510222811089" lon="11.54823407397636"><ele>211.0</ele><time>2026-04-30T09:20:27.963Z</time></trkpt><trkpt lat="42.47506349008724" lon="11.54815194467416"><ele>210.99999999999997</ele><time>2026-04-30T09:20:46.963Z</time></trkpt><trkpt lat="42.47503880678016" lon="11.548066762700921"><ele>211.0</ele><time>2026-04-30T09:20:50.963Z</time></trkpt><trkpt lat="42.474997175685736" lon="11.547994448585278"><ele>211.0</ele><time>2026-04-30T09:22:30.963Z</time></trkpt><trkpt lat="42.474939872363436" lon="11.547908951469537"><ele>211.0</ele><time>2026-04-30T09:22:32.963Z</time></trkpt><trkpt lat="42.474895978819774" lon="11.54781754268252"><ele>210.99999999999997</ele><time>2026-04-30T09:22:34.963Z</time></trkpt><trkpt lat="42.4748452576243" lon="11.547752726079784"><ele>211.0</ele><time>2026-04-30T09:22:36.963Z</time></trkpt><trkpt lat="42.474777283931964" lon="11.547662932983384"><ele>213.0</ele><time>2026-04-30T09:22:39.963Z</time></trkpt><trkpt lat="42.47472225737771" lon="11.547579822681904"><ele>215.0</ele><time>2026-04-30T09:22:41.963Z</time></trkpt><trkpt lat="42.47461813137354" lon="11.547545019974658"><ele>217.00000000000003</ele><time>2026-04-30T09:22:43.963Z</time></trkpt><trkpt lat="42.47449709393938" lon="11.547539831744869"><ele>219.0</ele><time>2026-04-30T09:22:45.963Z</time></trkpt><trkpt lat="42.4744220560662" lon="11.547510540647892"><ele>221.0</ele><time>2026-04-30T09:22:47.963Z</time></trkpt><trkpt lat="42.47436163478838" lon="11.54748469446057"><ele>223.0</ele><time>2026-04-30T09:22:48.963Z</time></trkpt><trkpt lat="42.47425850590967" lon="11.547452897818378"><ele>225.00000000000003</ele><time>2026-04-30T09:22:50.963Z</time></trkpt><trkpt lat="42.474170435782355" lon="11.547441286597516"><ele>227.00000000000003</ele><time>2026-04-30T09:22:52.963Z</time></trkpt><trkpt lat="42.47410531182397" lon="11.547373247103796"><ele>229.0</ele><time>2026-04-30T09:22:54.963Z</time></trkpt><trkpt lat="42.4740210106306" lon="11.5473228838587"><ele>231.0</ele><time>2026-04-30T09:22:56.963Z</time></trkpt><trkpt lat="42.47394762822254" lon="11.547264804595422"><ele>231.0</ele><time>2026-04-30T09:22:58.963Z</time></trkpt><trkpt lat="42.47384833149044" lon="11.547197243532294"><ele>231.00000000000003</ele><time>2026-04-30T09:23:00.963Z</time></trkpt><trkpt lat="42.47377885441934" lon="11.547160480558182"><ele>231.00000000000003</ele><time>2026-04-30T09:23:01.963Z</time></trkpt><trkpt lat="42.47364643783706" lon="11.5472426791822"><ele>231.0</ele><time>2026-04-30T09:23:03.963Z</time></trkpt><trkpt lat="42.47357140318504" lon="11.547283337233235"><ele>231.0</ele><time>2026-04-30T09:23:04.963Z</time></trkpt><trkpt lat="42.473495365617566" lon="11.54730771368882"><ele>231.60000000000002</ele><time>2026-04-30T09:23:05.963Z</time></trkpt><trkpt lat="42.47342219967713" lon="11.54730250022784"><ele>232.20000000000002</ele><time>2026-04-30T09:23:06.963Z</time></trkpt><trkpt lat="42.47334956835951" lon="11.547278014742796"><ele>232.79999999999998</ele><time>2026-04-30T09:23:07.963Z</time></trkpt><trkpt lat="42.47327818260733" lon="11.547242991436569"><ele>233.39999999999998</ele><time>2026-04-30T09:23:08.963Z</time></trkpt><trkpt lat="42.473169540689184" lon="11.547207395504804"><ele>234.0</ele><time>2026-04-30T09:23:10.963Z</time></trkpt><trkpt lat="42.473051613511274" lon="11.54714701249937"><ele>234.0</ele><time>2026-04-30T09:23:12.963Z</time></trkpt><trkpt lat="42.47299803585497" lon="11.547087692591363"><ele>234.00000000000003</ele><time>2026-04-30T09:23:13.963Z</time></trkpt><trkpt lat="42.47293228070102" lon="11.547042780127278"><ele>234.0</ele><time>2026-04-30T09:23:14.963Z</time></trkpt><trkpt lat="42.472869257385575" lon="11.546997058607499"><ele>234.0</ele><time>2026-04-30T09:23:15.963Z</time></trkpt><trkpt lat="42.4728029166529" lon="11.546967712266907"><ele>234.00000000000003</ele><time>2026-04-30T09:23:16.963Z</time></trkpt><trkpt lat="42.472732385710984" lon="11.546953110341653"><ele>234.0</ele><time>2026-04-30T09:23:17.963Z</time></trkpt><trkpt lat="42.4726467340772" lon="11.546941293080533"><ele>234.0</ele><time>2026-04-30T09:23:18.963Z</time></trkpt><trkpt lat="42.47256185551329" lon="11.54693745650242"><ele>235.66666666666666</ele><time>2026-04-30T09:23:19.963Z</time></trkpt><trkpt lat="42.47249000415162" lon="11.54693058821271"><ele>237.33333333333331</ele><time>2026-04-30T09:23:20.963Z</time></trkpt><trkpt lat="42.472384741068254" lon="11.546900738124025"><ele>239.0</ele><time>2026-04-30T09:23:22.963Z</time></trkpt><trkpt lat="42.47228693049748" lon="11.54686715921815"><ele>240.66666666666666</ele><time>2026-04-30T09:23:24.963Z</time></trkpt><trkpt lat="42.47220314829342" lon="11.546806766838506"><ele>242.33333333333331</ele><time>2026-04-30T09:23:26.963Z</time></trkpt><trkpt lat="42.47213850391724" lon="11.54676340575692"><ele>244.0</ele><time>2026-04-30T09:23:27.963Z</time></trkpt><trkpt lat="42.47207258987063" lon="11.546748468812078"><ele>244.0</ele><time>2026-04-30T09:23:29.963Z</time></trkpt><trkpt lat="42.4719981551773" lon="11.546682798852052"><ele>243.99999999999997</ele><time>2026-04-30T09:23:34.962Z</time></trkpt><trkpt lat="42.47193018987255" lon="11.54657101144886"><ele>243.99999999999997</ele><time>2026-04-30T09:23:36.962Z</time></trkpt><trkpt lat="42.47192957027796" lon="11.546418330095168"><ele>244.0</ele><time>2026-04-30T09:23:38.962Z</time></trkpt><trkpt lat="42.47195214384369" lon="11.54633126448886"><ele>244.0</ele><time>2026-04-30T09:23:39.962Z</time></trkpt><trkpt lat="42.47200267757007" lon="11.546145631100941"><ele>243.83333333333331</ele><time>2026-04-30T09:23:41.962Z</time></trkpt><trkpt lat="42.472030569697225" lon="11.54602992202243"><ele>243.66666666666666</ele><time>2026-04-30T09:23:42.962Z</time></trkpt><trkpt lat="42.47204136266072" lon="11.545908051265549"><ele>243.5</ele><time>2026-04-30T09:23:43.962Z</time></trkpt><trkpt lat="42.472053492657004" lon="11.545781533349983"><ele>243.33333333333331</ele><time>2026-04-30T09:23:44.962Z</time></trkpt><trkpt lat="42.47204958069093" lon="11.54567846434094"><ele>243.16666666666666</ele><time>2026-04-30T09:23:45.962Z</time></trkpt><trkpt lat="42.47205113815694" lon="11.545582675224601"><ele>243.0</ele><time>2026-04-30T09:23:46.962Z</time></trkpt><trkpt lat="42.47209951031626" lon="11.545413271950366"><ele>243.5</ele><time>2026-04-30T09:23:48.962Z</time></trkpt><trkpt lat="42.47210081713877" lon="11.545311487680612"><ele>244.0</ele><time>2026-04-30T09:23:49.962Z</time></trkpt><trkpt lat="42.47207612590617" lon="11.545194833398153"><ele>244.5</ele><time>2026-04-30T09:23:50.962Z</time></trkpt><trkpt lat="42.472058746706324" lon="11.54506438314393"><ele>245.0</ele><time>2026-04-30T09:23:51.962Z</time></trkpt><trkpt lat="42.472049418558356" lon="11.544937747047216"><ele>245.5</ele><time>2026-04-30T09:23:52.962Z</time></trkpt><trkpt lat="42.47204179857256" lon="11.544834936403157"><ele>246.0</ele><time>2026-04-30T09:23:53.962Z</time></trkpt><trkpt lat="42.4720398042535" lon="11.544696784432098"><ele>246.0</ele><time>2026-04-30T09:23:54.962Z</time></trkpt><trkpt lat="42.47204613156688" lon="11.544581846187048"><ele>246.0</ele><time>2026-04-30T09:23:55.962Z</time></trkpt><trkpt lat="42.47204908173898" lon="11.544475149552738"><ele>246.0</ele><time>2026-04-30T09:23:56.962Z</time></trkpt><trkpt lat="42.47204247044606" lon="11.544370383207466"><ele>246.0</ele><time>2026-04-30T09:23:57.962Z</time></trkpt><trkpt lat="42.47202036989819" lon="11.544261583503364"><ele>246.0</ele><time>2026-04-30T09:23:58.962Z</time></trkpt><trkpt lat="42.472012086736136" lon="11.544149548683542"><ele>246.0</ele><time>2026-04-30T09:23:59.962Z</time></trkpt><trkpt lat="42.47201850893659" lon="11.544036519726463"><ele>246.4</ele><time>2026-04-30T09:24:00.962Z</time></trkpt><trkpt lat="42.47203535865354" lon="11.54393130252574"><ele>246.8</ele><time>2026-04-30T09:24:01.962Z</time></trkpt><trkpt lat="42.47205127632975" lon="11.543842726439983"><ele>247.20000000000002</ele><time>2026-04-30T09:24:02.962Z</time></trkpt><trkpt lat="42.47206267976103" lon="11.543689013509427"><ele>247.60000000000002</ele><time>2026-04-30T09:24:04.962Z</time></trkpt><trkpt lat="42.47207491286273" lon="11.543555029047164"><ele>248.0</ele><time>2026-04-30T09:24:06.962Z</time></trkpt><trkpt lat="42.472027759237626" lon="11.543412940871322"><ele>249.33333333333334</ele><time>2026-04-30T09:24:08.962Z</time></trkpt><trkpt lat="42.471966664511044" lon="11.543247126478915"><ele>250.66666666666669</ele><time>2026-04-30T09:24:10.962Z</time></trkpt><trkpt lat="42.4719606543322" lon="11.5431493912489"><ele>252.0</ele><time>2026-04-30T09:24:11.962Z</time></trkpt><trkpt lat="42.47195418353064" lon="11.543037106570694"><ele>253.33333333333331</ele><time>2026-04-30T09:24:12.962Z</time></trkpt><trkpt lat="42.47195341131681" lon="11.542941878320104"><ele>254.66666666666666</ele><time>2026-04-30T09:24:13.962Z</time></trkpt><trkpt lat="42.47196447060131" lon="11.542856640795048"><ele>256.0</ele><time>2026-04-30T09:24:14.962Z</time></trkpt><trkpt lat="42.471982735313595" lon="11.542770792915574"><ele>258.16666666666663</ele><time>2026-04-30T09:24:15.962Z</time></trkpt><trkpt lat="42.47199641032039" lon="11.542681381369924"><ele>260.3333333333333</ele><time>2026-04-30T09:24:16.962Z</time></trkpt><trkpt lat="42.47195474147729" lon="11.54254415438062"><ele>262.5</ele><time>2026-04-30T09:24:18.962Z</time></trkpt><trkpt lat="42.47190265922394" lon="11.54248147421603"><ele>264.6666666666667</ele><time>2026-04-30T09:24:19.962Z</time></trkpt><trkpt lat="42.47183490049313" lon="11.542390289875332"><ele>266.83333333333337</ele><time>2026-04-30T09:24:20.962Z</time></trkpt><trkpt lat="42.47177311227549" lon="11.542290955700814"><ele>269.0</ele><time>2026-04-30T09:24:21.962Z</time></trkpt><trkpt lat="42.47170146480162" lon="11.542203102137785"><ele>269.0</ele><time>2026-04-30T09:24:22.962Z</time></trkpt><trkpt lat="42.471635120505375" lon="11.542116108204759"><ele>269.0</ele><time>2026-04-30T09:24:23.962Z</time></trkpt><trkpt lat="42.47157980087088" lon="11.542036104810785"><ele>269.0</ele><time>2026-04-30T09:24:24.962Z</time></trkpt><trkpt lat="42.47153977266427" lon="11.541956251826491"><ele>269.0</ele><time>2026-04-30T09:24:25.962Z</time></trkpt><trkpt lat="42.471512281304626" lon="11.54181153079272"><ele>269.0</ele><time>2026-04-30T09:24:27.962Z</time></trkpt><trkpt lat="42.47151609676087" lon="11.541692724625705"><ele>269.0</ele><time>2026-04-30T09:24:28.962Z</time></trkpt><trkpt lat="42.4715166283346" lon="11.541565252357442"><ele>270.59999999999997</ele><time>2026-04-30T09:24:29.962Z</time></trkpt><trkpt lat="42.471515002984916" lon="11.541456629052231"><ele>272.2</ele><time>2026-04-30T09:24:30.962Z</time></trkpt><trkpt lat="42.471490577187595" lon="11.541366089035012"><ele>273.79999999999995</ele><time>2026-04-30T09:24:31.962Z</time></trkpt><trkpt lat="42.471410542298976" lon="11.541248579109558"><ele>275.4</ele><time>2026-04-30T09:24:33.962Z</time></trkpt><trkpt lat="42.47130819495941" lon="11.541155066415902"><ele>277.0</ele><time>2026-04-30T09:24:35.962Z</time></trkpt><trkpt lat="42.471235067030584" lon="11.54112124223988"><ele>277.0</ele><time>2026-04-30T09:24:36.962Z</time></trkpt><trkpt lat="42.47116827237724" lon="11.541099709429615"><ele>277.0</ele><time>2026-04-30T09:24:37.962Z</time></trkpt><trkpt lat="42.47110918385592" lon="11.541065524830513"><ele>277.0</ele><time>2026-04-30T09:24:38.962Z</time></trkpt><trkpt lat="42.47101414729639" lon="11.540989889553915"><ele>277.0</ele><time>2026-04-30T09:24:40.962Z</time></trkpt><trkpt lat="42.47096047787822" lon="11.54084531085988"><ele>277.0</ele><time>2026-04-30T09:24:42.962Z</time></trkpt><trkpt lat="42.47091661773008" lon="11.54075142752972"><ele>277.0</ele><time>2026-04-30T09:24:44.962Z</time></trkpt><trkpt lat="42.47088075122109" lon="11.54063254598374"><ele>277.0</ele><time>2026-04-30T09:24:53.962Z</time></trkpt><trkpt lat="42.47087831807428" lon="11.540527655364631"><ele>277.0</ele><time>2026-04-30T09:24:55.962Z</time></trkpt><trkpt lat="42.470877396797114" lon="11.540386750673655"><ele>277.0</ele><time>2026-04-30T09:24:57.962Z</time></trkpt><trkpt lat="42.47088712520806" lon="11.540298879021327"><ele>277.0</ele><time>2026-04-30T09:24:58.962Z</time></trkpt><trkpt lat="42.470901561518545" lon="11.540213547216835"><ele>277.0</ele><time>2026-04-30T09:24:59.962Z</time></trkpt><trkpt lat="42.470928356739186" lon="11.540129994767295"><ele>277.0</ele><time>2026-04-30T09:25:00.962Z</time></trkpt><trkpt lat="42.47100299707618" lon="11.539978713733122"><ele>276.5</ele><time>2026-04-30T09:25:02.962Z</time></trkpt><trkpt lat="42.47103735052845" lon="11.539888535530924"><ele>276.0</ele><time>2026-04-30T09:25:03.962Z</time></trkpt><trkpt lat="42.47108462814322" lon="11.539801292957314"><ele>275.5</ele><time>2026-04-30T09:25:04.962Z</time></trkpt><trkpt lat="42.4711235298808" lon="11.539715243761359"><ele>275.0</ele><time>2026-04-30T09:25:05.962Z</time></trkpt><trkpt lat="42.47116188071662" lon="11.539615513609041"><ele>274.5</ele><time>2026-04-30T09:25:06.962Z</time></trkpt><trkpt lat="42.4711902519564" lon="11.539505797422539"><ele>274.0</ele><time>2026-04-30T09:25:07.962Z</time></trkpt><trkpt lat="42.47120125589735" lon="11.539409370801886"><ele>273.66666666666663</ele><time>2026-04-30T09:25:08.962Z</time></trkpt><trkpt lat="42.471202011595246" lon="11.539315555034927"><ele>273.3333333333333</ele><time>2026-04-30T09:25:09.962Z</time></trkpt><trkpt lat="42.47125723225537" lon="11.539191157038205"><ele>273.0</ele><time>2026-04-30T09:25:11.962Z</time></trkpt><trkpt lat="42.47136807233596" lon="11.53914783461481"><ele>272.6666666666667</ele><time>2026-04-30T09:25:13.962Z</time></trkpt><trkpt lat="42.471443198707256" lon="11.539147019217673"><ele>272.33333333333337</ele><time>2026-04-30T09:25:14.962Z</time></trkpt><trkpt lat="42.47151026969591" lon="11.53912485905527"><ele>272.0</ele><time>2026-04-30T09:25:16.962Z</time></trkpt><trkpt lat="42.471525717478" lon="11.539001956805699"><ele>271.4285714285714</ele><time>2026-04-30T09:25:18.962Z</time></trkpt><trkpt lat="42.47152250812425" lon="11.53891041757248"><ele>270.85714285714283</ele><time>2026-04-30T09:25:19.962Z</time></trkpt><trkpt lat="42.47150437333224" lon="11.538813989226632"><ele>270.2857142857143</ele><time>2026-04-30T09:25:20.962Z</time></trkpt><trkpt lat="42.471481666823955" lon="11.53872373424572"><ele>269.71428571428567</ele><time>2026-04-30T09:25:21.962Z</time></trkpt><trkpt lat="42.47146589094495" lon="11.538628626063526"><ele>269.1428571428571</ele><time>2026-04-30T09:25:22.962Z</time></trkpt><trkpt lat="42.47146312464155" lon="11.538541736887023"><ele>268.57142857142856</ele><time>2026-04-30T09:25:23.962Z</time></trkpt><trkpt lat="42.47144742144329" lon="11.538439052107348"><ele>268.0</ele><time>2026-04-30T09:25:24.962Z</time></trkpt><trkpt lat="42.47140871935962" lon="11.538291923859722"><ele>268.0</ele><time>2026-04-30T09:25:26.962Z</time></trkpt><trkpt lat="42.47136451734754" lon="11.538169138859498"><ele>268.0</ele><time>2026-04-30T09:25:28.962Z</time></trkpt><trkpt lat="42.471289503679856" lon="11.538025845712268"><ele>268.0</ele><time>2026-04-30T09:25:30.962Z</time></trkpt><trkpt lat="42.47123892641395" lon="11.537953868450128"><ele>268.0</ele><time>2026-04-30T09:25:31.962Z</time></trkpt><trkpt lat="42.4711739442846" lon="11.53782103441356"><ele>268.0</ele><time>2026-04-30T09:25:33.962Z</time></trkpt><trkpt lat="42.47113348176627" lon="11.53773942037402"><ele>267.3333333333333</ele><time>2026-04-30T09:25:34.962Z</time></trkpt><trkpt lat="42.471084083496876" lon="11.53765406746912"><ele>266.66666666666663</ele><time>2026-04-30T09:25:35.962Z</time></trkpt><trkpt lat="42.471023707816826" lon="11.537569422265124"><ele>266.0</ele><time>2026-04-30T09:25:36.962Z</time></trkpt><trkpt lat="42.47097909404358" lon="11.537496913942347"><ele>265.3333333333333</ele><time>2026-04-30T09:25:37.962Z</time></trkpt><trkpt lat="42.47091345987632" lon="11.537362996169493"><ele>264.6666666666667</ele><time>2026-04-30T09:25:39.96Z</time></trkpt><trkpt lat="42.47087204321491" lon="11.53727831405474"><ele>264.0</ele><time>2026-04-30T09:25:40.961Z</time></trkpt><trkpt lat="42.4708296970656" lon="11.537208874084605"><ele>264.0</ele><time>2026-04-30T09:25:41.961Z</time></trkpt><trkpt lat="42.470787904342835" lon="11.537137987588418"><ele>264.0</ele><time>2026-04-30T09:25:42.961Z</time></trkpt><trkpt lat="42.47073265054756" lon="11.537062113944176"><ele>264.0</ele><time>2026-04-30T09:25:43.961Z</time></trkpt><trkpt lat="42.47068125843962" lon="11.536993620003276"><ele>264.0</ele><time>2026-04-30T09:25:44.961Z</time></trkpt><trkpt lat="42.47064241207366" lon="11.536922957421037"><ele>264.0</ele><time>2026-04-30T09:25:45.96Z</time></trkpt><trkpt lat="42.47060036116372" lon="11.536847838942647"><ele>264.0</ele><time>2026-04-30T09:25:46.961Z</time></trkpt><trkpt lat="42.47055016551028" lon="11.53677658036655"><ele>264.0</ele><time>2026-04-30T09:25:47.961Z</time></trkpt><trkpt lat="42.47049468824614" lon="11.536709356979053"><ele>260.0</ele><time>2026-04-30T09:25:48.96Z</time></trkpt><trkpt lat="42.47043859834543" lon="11.536653510437825"><ele>256.0</ele><time>2026-04-30T09:25:49.961Z</time></trkpt><trkpt lat="42.470344678032404" lon="11.536590655663309"><ele>252.0</ele><time>2026-04-30T09:25:51.961Z</time></trkpt><trkpt lat="42.47024021248124" lon="11.53656446807512"><ele>248.0</ele><time>2026-04-30T09:25:53.96Z</time></trkpt><trkpt lat="42.47017735416735" lon="11.536570760998925"><ele>244.0</ele><time>2026-04-30T09:25:54.96Z</time></trkpt><trkpt lat="42.470101355061985" lon="11.536571543327662"><ele>240.0</ele><time>2026-04-30T09:25:55.96Z</time></trkpt><trkpt lat="42.47003461261583" lon="11.536580127568696"><ele>240.0</ele><time>2026-04-30T09:25:56.96Z</time></trkpt><trkpt lat="42.46996520677505" lon="11.536590381430235"><ele>240.0</ele><time>2026-04-30T09:25:57.96Z</time></trkpt><trkpt lat="42.469849876919604" lon="11.536605759892304"><ele>240.0</ele><time>2026-04-30T09:25:59.96Z</time></trkpt><trkpt lat="42.46978681764075" lon="11.536614561247607"><ele>240.0</ele><time>2026-04-30T09:26:00.96Z</time></trkpt><trkpt lat="42.46967317028274" lon="11.536650746725583"><ele>240.0</ele><time>2026-04-30T09:26:02.96Z</time></trkpt><trkpt lat="42.46957239639878" lon="11.536693140403829"><ele>235.66666666666666</ele><time>2026-04-30T09:26:04.96Z</time></trkpt><trkpt lat="42.4694578015391" lon="11.536754450640684"><ele>231.33333333333331</ele><time>2026-04-30T09:26:06.96Z</time></trkpt><trkpt lat="42.469385557486795" lon="11.536786328164718"><ele>227.0</ele><time>2026-04-30T09:26:07.96Z</time></trkpt><trkpt lat="42.46926811512834" lon="11.536804615149478"><ele>222.66666666666666</ele><time>2026-04-30T09:26:09.96Z</time></trkpt><trkpt lat="42.469200922333066" lon="11.536798524101098"><ele>218.33333333333331</ele><time>2026-04-30T09:26:10.96Z</time></trkpt><trkpt lat="42.46913716349523" lon="11.536807874428892"><ele>214.0</ele><time>2026-04-30T09:26:11.96Z</time></trkpt><trkpt lat="42.469070066071716" lon="11.536824347616648"><ele>214.0</ele><time>2026-04-30T09:26:12.96Z</time></trkpt><trkpt lat="42.4689476168715" lon="11.536835013751814"><ele>213.99999999999997</ele><time>2026-04-30T09:26:14.96Z</time></trkpt><trkpt lat="42.468817190509014" lon="11.536853502611173"><ele>213.99999999999997</ele><time>2026-04-30T09:26:16.96Z</time></trkpt><trkpt lat="42.46874959860159" lon="11.536856954060921"><ele>214.0</ele><time>2026-04-30T09:26:17.96Z</time></trkpt><trkpt lat="42.468663615202956" lon="11.536891598134062"><ele>214.0</ele><time>2026-04-30T09:26:18.96Z</time></trkpt><trkpt lat="42.46859694173269" lon="11.536931202748159"><ele>210.85714285714286</ele><time>2026-04-30T09:26:19.96Z</time></trkpt><trkpt lat="42.46853060336725" lon="11.53696202051012"><ele>207.71428571428572</ele><time>2026-04-30T09:26:20.96Z</time></trkpt><trkpt lat="42.468455459433095" lon="11.536989147022478"><ele>204.57142857142856</ele><time>2026-04-30T09:26:21.96Z</time></trkpt><trkpt lat="42.46838379064366" lon="11.53700507447267"><ele>201.42857142857144</ele><time>2026-04-30T09:26:22.96Z</time></trkpt><trkpt lat="42.46831451828296" lon="11.537015482043364"><ele>198.28571428571428</ele><time>2026-04-30T09:26:23.96Z</time></trkpt><trkpt lat="42.4682377678746" lon="11.537005158532185"><ele>195.14285714285714</ele><time>2026-04-30T09:26:24.96Z</time></trkpt><trkpt lat="42.4681733121621" lon="11.536998739395322"><ele>192.0</ele><time>2026-04-30T09:26:25.96Z</time></trkpt><trkpt lat="42.46810812676741" lon="11.536983921585545"><ele>192.0</ele><time>2026-04-30T09:26:26.96Z</time></trkpt><trkpt lat="42.46804538325742" lon="11.53697403829626"><ele>192.0</ele><time>2026-04-30T09:26:27.96Z</time></trkpt><trkpt lat="42.46792974846798" lon="11.536939404493944"><ele>192.0</ele><time>2026-04-30T09:26:29.96Z</time></trkpt><trkpt lat="42.46782040328341" lon="11.536886421950609"><ele>192.0</ele><time>2026-04-30T09:26:31.96Z</time></trkpt><trkpt lat="42.46772596228471" lon="11.536884283795573"><ele>192.0</ele><time>2026-04-30T09:26:33.96Z</time></trkpt><trkpt lat="42.46762736527415" lon="11.53688103729265"><ele>189.66666666666666</ele><time>2026-04-30T09:26:35.96Z</time></trkpt><trkpt lat="42.4675307069775" lon="11.536923429969809"><ele>187.33333333333334</ele><time>2026-04-30T09:26:37.961Z</time></trkpt><trkpt lat="42.46746294221557" lon="11.536994029073112"><ele>185.0</ele><time>2026-04-30T09:26:39.961Z</time></trkpt><trkpt lat="42.46740565175822" lon="11.53714238340476"><ele>182.66666666666669</ele><time>2026-04-30T09:26:41.961Z</time></trkpt><trkpt lat="42.46738196016793" lon="11.537229949188323"><ele>180.33333333333334</ele><time>2026-04-30T09:26:42.961Z</time></trkpt><trkpt lat="42.46735941961228" lon="11.537317689504809"><ele>178.0</ele><time>2026-04-30T09:26:43.961Z</time></trkpt><trkpt lat="42.46728925954261" lon="11.537459768898266"><ele>178.0</ele><time>2026-04-30T09:26:45.961Z</time></trkpt><trkpt lat="42.467213849394966" lon="11.53759145572021"><ele>178.0</ele><time>2026-04-30T09:26:47.961Z</time></trkpt><trkpt lat="42.46711869235304" lon="11.537660572736899"><ele>178.0</ele><time>2026-04-30T09:26:49.961Z</time></trkpt><trkpt lat="42.46706487680232" lon="11.537716136843079"><ele>178.0</ele><time>2026-04-30T09:26:50.961Z</time></trkpt><trkpt lat="42.46700794229745" lon="11.537836225552837"><ele>178.0</ele><time>2026-04-30T09:26:52.961Z</time></trkpt><trkpt lat="42.466971942617135" lon="11.537986495610804"><ele>177.5</ele><time>2026-04-30T09:26:54.961Z</time></trkpt><trkpt lat="42.466927193673065" lon="11.538062397820443"><ele>177.0</ele><time>2026-04-30T09:26:55.961Z</time></trkpt><trkpt lat="42.46686485084642" lon="11.538174207586414"><ele>176.5</ele><time>2026-04-30T09:26:56.961Z</time></trkpt><trkpt lat="42.466799759948074" lon="11.538273427755826"><ele>176.0</ele><time>2026-04-30T09:26:57.961Z</time></trkpt><trkpt lat="42.46674960154345" lon="11.53836601058259"><ele>175.5</ele><time>2026-04-30T09:26:58.961Z</time></trkpt><trkpt lat="42.46670833467874" lon="11.538440213787277"><ele>175.0</ele><time>2026-04-30T09:26:59.961Z</time></trkpt><trkpt lat="42.46666726718222" lon="11.53851729982771"><ele>175.0</ele><time>2026-04-30T09:27:00.961Z</time></trkpt><trkpt lat="42.46661895075003" lon="11.538644451387508"><ele>175.0</ele><time>2026-04-30T09:27:02.961Z</time></trkpt><trkpt lat="42.46658388444241" lon="11.538719999025169"><ele>175.0</ele><time>2026-04-30T09:27:03.961Z</time></trkpt><trkpt lat="42.466510858070535" lon="11.538790631800243"><ele>175.0</ele><time>2026-04-30T09:27:05.961Z</time></trkpt><trkpt lat="42.46649360062812" lon="11.53889920698962"><ele>175.0</ele><time>2026-04-30T09:27:37.961Z</time></trkpt><trkpt lat="42.46646532516062" lon="11.539020417797907"><ele>175.0</ele><time>2026-04-30T09:27:39.961Z</time></trkpt><trkpt lat="42.46642621220171" lon="11.539104648782091"><ele>174.4</ele><time>2026-04-30T09:27:40.961Z</time></trkpt><trkpt lat="42.46637240494523" lon="11.539201444003712"><ele>173.8</ele><time>2026-04-30T09:27:41.961Z</time></trkpt><trkpt lat="42.46632999526373" lon="11.539285114872383"><ele>173.2</ele><time>2026-04-30T09:27:42.961Z</time></trkpt><trkpt lat="42.46628933302824" lon="11.539364754085481"><ele>172.6</ele><time>2026-04-30T09:27:43.961Z</time></trkpt><trkpt lat="42.46623597938424" lon="11.53947782628687"><ele>172.0</ele><time>2026-04-30T09:27:44.961Z</time></trkpt><trkpt lat="42.466174984744264" lon="11.53960994091114"><ele>172.0</ele><time>2026-04-30T09:27:45.959Z</time></trkpt><trkpt lat="42.466115782678145" lon="11.539758162801563"><ele>172.0</ele><time>2026-04-30T09:27:46.96Z</time></trkpt><trkpt lat="42.46605402480948" lon="11.539894986410562"><ele>172.0</ele><time>2026-04-30T09:27:47.96Z</time></trkpt><trkpt lat="42.46598377972288" lon="11.540001729988015"><ele>172.0</ele><time>2026-04-30T09:27:48.96Z</time></trkpt><trkpt lat="42.46591978509791" lon="11.5401145604402"><ele>172.0</ele><time>2026-04-30T09:27:49.96Z</time></trkpt><trkpt lat="42.465862008002546" lon="11.540222035248927"><ele>172.0</ele><time>2026-04-30T09:27:50.96Z</time></trkpt><trkpt lat="42.46581537000471" lon="11.540326365441237"><ele>172.0</ele><time>2026-04-30T09:27:51.959Z</time></trkpt><trkpt lat="42.46576994226529" lon="11.540412168281554"><ele>172.0</ele><time>2026-04-30T09:27:52.96Z</time></trkpt><trkpt lat="42.46571470475588" lon="11.540481024261968"><ele>172.0</ele><time>2026-04-30T09:27:53.96Z</time></trkpt><trkpt lat="42.46567673001567" lon="11.540565299382594"><ele>172.0</ele><time>2026-04-30T09:27:54.959Z</time></trkpt><trkpt lat="42.46562750216706" lon="11.540649293867132"><ele>173.6</ele><time>2026-04-30T09:27:55.96Z</time></trkpt><trkpt lat="42.46557370871217" lon="11.540740683656425"><ele>175.2</ele><time>2026-04-30T09:27:56.96Z</time></trkpt><trkpt lat="42.46550720926985" lon="11.54087727355327"><ele>176.8</ele><time>2026-04-30T09:27:58.96Z</time></trkpt><trkpt lat="42.46549218448112" lon="11.540982393364784"><ele>178.4</ele><time>2026-04-30T09:28:00.96Z</time></trkpt><trkpt lat="42.46554215640499" lon="11.541068001941232"><ele>180.0</ele><time>2026-04-30T09:28:02.96Z</time></trkpt><trkpt lat="42.465533463546635" lon="11.541196406801454"><ele>179.16666666666666</ele><time>2026-04-30T09:28:04.96Z</time></trkpt><trkpt lat="42.46549383002026" lon="11.541310537867762"><ele>178.33333333333334</ele><time>2026-04-30T09:28:06.96Z</time></trkpt><trkpt lat="42.46548921191347" lon="11.541402219863155"><ele>177.5</ele><time>2026-04-30T09:28:08.96Z</time></trkpt><trkpt lat="42.465556456776866" lon="11.541444137587701"><ele>176.66666666666669</ele><time>2026-04-30T09:28:10.96Z</time></trkpt><trkpt lat="42.46566156911283" lon="11.541458048115311"><ele>175.83333333333334</ele><time>2026-04-30T09:28:12.96Z</time></trkpt><trkpt lat="42.465738322103014" lon="11.54150741446872"><ele>175.0</ele><time>2026-04-30T09:28:14.96Z</time></trkpt><trkpt lat="42.46576659839788" lon="11.541586816917773"><ele>175.0</ele><time>2026-04-30T09:28:16.96Z</time></trkpt><trkpt lat="42.46574042617762" lon="11.541682107496303"><ele>175.0</ele><time>2026-04-30T09:28:18.96Z</time></trkpt><trkpt lat="42.46567669775784" lon="11.541771124292826"><ele>175.0</ele><time>2026-04-30T09:28:20.96Z</time></trkpt><trkpt lat="42.46561488763984" lon="11.541824130385756"><ele>175.0</ele><time>2026-04-30T09:28:21.96Z</time></trkpt><trkpt lat="42.46556078666561" lon="11.541891182947941"><ele>175.0</ele><time>2026-04-30T09:28:22.96Z</time></trkpt><trkpt lat="42.46550521917999" lon="11.541941377441612"><ele>175.0</ele><time>2026-04-30T09:28:23.96Z</time></trkpt><trkpt lat="42.46543963519924" lon="11.542090612042115"><ele>176.2</ele><time>2026-04-30T09:28:25.96Z</time></trkpt><trkpt lat="42.465412728092254" lon="11.542244305355757"><ele>177.4</ele><time>2026-04-30T09:28:27.96Z</time></trkpt><trkpt lat="42.4653973632008" lon="11.542340909977419"><ele>178.60000000000002</ele><time>2026-04-30T09:28:28.96Z</time></trkpt><trkpt lat="42.465419676011315" lon="11.542503917420246"><ele>179.8</ele><time>2026-04-30T09:28:30.96Z</time></trkpt><trkpt lat="42.46544692087283" lon="11.542596115416119"><ele>181.0</ele><time>2026-04-30T09:28:31.96Z</time></trkpt><trkpt lat="42.4654724025034" lon="11.54269388502937"><ele>181.0</ele><time>2026-04-30T09:28:32.96Z</time></trkpt><trkpt lat="42.465511931203416" lon="11.542781247935466"><ele>181.0</ele><time>2026-04-30T09:28:33.96Z</time></trkpt><trkpt lat="42.46555396127226" lon="11.542879969943346"><ele>181.0</ele><time>2026-04-30T09:28:34.96Z</time></trkpt><trkpt lat="42.4656082808652" lon="11.542938189030213"><ele>181.0</ele><time>2026-04-30T09:28:35.96Z</time></trkpt><trkpt lat="42.46565872234402" lon="11.543048709625328"><ele>181.0</ele><time>2026-04-30T09:28:37.96Z</time></trkpt><trkpt lat="42.46566812661182" lon="11.543134183582273"><ele>181.0</ele><time>2026-04-30T09:28:39.96Z</time></trkpt><trkpt lat="42.46558463969761" lon="11.54323266221552"><ele>181.83333333333334</ele><time>2026-04-30T09:28:41.96Z</time></trkpt><trkpt lat="42.46552067546576" lon="11.54327885350153"><ele>182.66666666666669</ele><time>2026-04-30T09:28:42.96Z</time></trkpt><trkpt lat="42.46545584590787" lon="11.543307898916378"><ele>183.5</ele><time>2026-04-30T09:28:43.96Z</time></trkpt><trkpt lat="42.46538875606557" lon="11.543325487599446"><ele>184.33333333333334</ele><time>2026-04-30T09:28:44.96Z</time></trkpt><trkpt lat="42.46532570018242" lon="11.543345276790893"><ele>185.16666666666666</ele><time>2026-04-30T09:28:45.96Z</time></trkpt><trkpt lat="42.465255685044205" lon="11.543457005249692"><ele>186.0</ele><time>2026-04-30T09:28:47.96Z</time></trkpt><trkpt lat="42.46521683213142" lon="11.543553598024626"><ele>183.33333333333334</ele><time>2026-04-30T09:28:48.96Z</time></trkpt><trkpt lat="42.465181715070365" lon="11.543641442428743"><ele>180.66666666666666</ele><time>2026-04-30T09:28:49.96Z</time></trkpt><trkpt lat="42.46512766514958" lon="11.54375088415857"><ele>178.0</ele><time>2026-04-30T09:28:51.96Z</time></trkpt><trkpt lat="42.46509057622357" lon="11.54382516732682"><ele>175.33333333333331</ele><time>2026-04-30T09:28:53.96Z</time></trkpt><trkpt lat="42.465043121873315" lon="11.543889398434276"><ele>172.66666666666666</ele><time>2026-04-30T09:28:56.96Z</time></trkpt><trkpt lat="42.46495569530661" lon="11.543884866446998"><ele>170.0</ele><time>2026-04-30T09:29:06.96Z</time></trkpt><trkpt lat="42.46488951009332" lon="11.54377810162447"><ele>170.0</ele><time>2026-04-30T09:29:09.96Z</time></trkpt><trkpt lat="42.46481261405476" lon="11.543736127406625"><ele>170.0</ele><time>2026-04-30T09:29:11.96Z</time></trkpt><trkpt lat="42.464715878529745" lon="11.543704727540186"><ele>170.0</ele><time>2026-04-30T09:29:13.96Z</time></trkpt><trkpt lat="42.464597556045234" lon="11.543694852138975"><ele>170.0</ele><time>2026-04-30T09:29:15.96Z</time></trkpt><trkpt lat="42.464469158143196" lon="11.543687032144888"><ele>170.0</ele><time>2026-04-30T09:29:17.96Z</time></trkpt><trkpt lat="42.464402770724135" lon="11.543666596610223"><ele>166.0</ele><time>2026-04-30T09:29:18.96Z</time></trkpt><trkpt lat="42.46429759913949" lon="11.543648872312163"><ele>162.0</ele><time>2026-04-30T09:29:20.96Z</time></trkpt><trkpt lat="42.464171418220666" lon="11.54363723263557"><ele>158.0</ele><time>2026-04-30T09:29:22.96Z</time></trkpt><trkpt lat="42.46405611254819" lon="11.543619060859417"><ele>154.0</ele><time>2026-04-30T09:29:24.96Z</time></trkpt><trkpt lat="42.46396290270765" lon="11.54356851211229"><ele>150.0</ele><time>2026-04-30T09:29:26.96Z</time></trkpt><trkpt lat="42.463864829678066" lon="11.543566845522633"><ele>148.4</ele><time>2026-04-30T09:29:28.96Z</time></trkpt><trkpt lat="42.46376523997092" lon="11.543590772772927"><ele>146.8</ele><time>2026-04-30T09:29:30.96Z</time></trkpt><trkpt lat="42.463664463016464" lon="11.54358632350796"><ele>145.2</ele><time>2026-04-30T09:29:32.96Z</time></trkpt><trkpt lat="42.46357328193274" lon="11.543605925371743"><ele>143.6</ele><time>2026-04-30T09:29:34.96Z</time></trkpt><trkpt lat="42.463452318733275" lon="11.543611947892762"><ele>142.0</ele><time>2026-04-30T09:29:36.96Z</time></trkpt><trkpt lat="42.463388039995145" lon="11.54362039733044"><ele>142.0</ele><time>2026-04-30T09:29:37.96Z</time></trkpt><trkpt lat="42.46326689224756" lon="11.54366097291688"><ele>142.0</ele><time>2026-04-30T09:29:39.96Z</time></trkpt><trkpt lat="42.46319282726999" lon="11.543688128299301"><ele>142.0</ele><time>2026-04-30T09:29:40.96Z</time></trkpt><trkpt lat="42.463126740740606" lon="11.543718031128412"><ele>142.0</ele><time>2026-04-30T09:29:41.96Z</time></trkpt><trkpt lat="42.463066178519" lon="11.543750920939267"><ele>142.0</ele><time>2026-04-30T09:29:42.96Z</time></trkpt><trkpt lat="42.46300077307554" lon="11.54378363419467"><ele>142.0</ele><time>2026-04-30T09:29:43.96Z</time></trkpt><trkpt lat="42.462939141021266" lon="11.543817726483997"><ele>140.79999999999998</ele><time>2026-04-30T09:29:44.96Z</time></trkpt><trkpt lat="42.462832043951046" lon="11.543920530421195"><ele>139.6</ele><time>2026-04-30T09:29:46.96Z</time></trkpt><trkpt lat="42.46277119400251" lon="11.543967059927503"><ele>138.39999999999998</ele><time>2026-04-30T09:29:47.96Z</time></trkpt><trkpt lat="42.462696312857496" lon="11.543981412529508"><ele>137.2</ele><time>2026-04-30T09:29:48.96Z</time></trkpt><trkpt lat="42.46259281807098" lon="11.543987575840864"><ele>136.0</ele><time>2026-04-30T09:29:49.96Z</time></trkpt><trkpt lat="42.46246574414324" lon="11.544002042354593"><ele>136.0</ele><time>2026-04-30T09:29:50.96Z</time></trkpt><trkpt lat="42.462348619950646" lon="11.544037822368583"><ele>136.0</ele><time>2026-04-30T09:29:51.958Z</time></trkpt><trkpt lat="42.46223141352503" lon="11.544058572036564"><ele>136.0</ele><time>2026-04-30T09:29:52.958Z</time></trkpt><trkpt lat="42.46212124429437" lon="11.544083118272589"><ele>136.0</ele><time>2026-04-30T09:29:53.958Z</time></trkpt><trkpt lat="42.4620106440065" lon="11.544116144069273"><ele>135.6</ele><time>2026-04-30T09:29:54.958Z</time></trkpt><trkpt lat="42.46190075004731" lon="11.544139233959582"><ele>135.2</ele><time>2026-04-30T09:29:55.958Z</time></trkpt><trkpt lat="42.46178468902595" lon="11.544173356201851"><ele>134.8</ele><time>2026-04-30T09:29:56.958Z</time></trkpt><trkpt lat="42.46168692000897" lon="11.544207654495652"><ele>134.4</ele><time>2026-04-30T09:29:57.958Z</time></trkpt><trkpt lat="42.46158964284562" lon="11.544235524503485"><ele>134.0</ele><time>2026-04-30T09:29:58.958Z</time></trkpt><trkpt lat="42.461473479797" lon="11.544250328911152"><ele>134.0</ele><time>2026-04-30T09:29:59.958Z</time></trkpt><trkpt lat="42.46133885800427" lon="11.544216541946195"><ele>134.0</ele><time>2026-04-30T09:30:00.958Z</time></trkpt><trkpt lat="42.461197567971745" lon="11.544242539451055"><ele>134.0</ele><time>2026-04-30T09:30:01.958Z</time></trkpt><trkpt lat="42.46107007640124" lon="11.544264212677467"><ele>134.0</ele><time>2026-04-30T09:30:02.958Z</time></trkpt><trkpt lat="42.46095620876661" lon="11.544276902801187"><ele>133.0</ele><time>2026-04-30T09:30:03.958Z</time></trkpt><trkpt lat="42.46084266409534" lon="11.544288050454112"><ele>132.0</ele><time>2026-04-30T09:30:04.958Z</time></trkpt><trkpt lat="42.460718719773844" lon="11.544300219125967"><ele>131.0</ele><time>2026-04-30T09:30:05.958Z</time></trkpt><trkpt lat="42.4605966738815" lon="11.544312201418439"><ele>130.0</ele><time>2026-04-30T09:30:06.958Z</time></trkpt><trkpt lat="42.46048765710596" lon="11.544346053212372"><ele>129.4</ele><time>2026-04-30T09:30:07.958Z</time></trkpt><trkpt lat="42.460386121314194" lon="11.544336832277429"><ele>128.8</ele><time>2026-04-30T09:30:08.958Z</time></trkpt><trkpt lat="42.46028528005277" lon="11.544371281237893"><ele>128.2</ele><time>2026-04-30T09:30:09.958Z</time></trkpt><trkpt lat="42.460190803228805" lon="11.544376876069302"><ele>127.6</ele><time>2026-04-30T09:30:10.958Z</time></trkpt><trkpt lat="42.460101565000805" lon="11.544390464225122"><ele>127.0</ele><time>2026-04-30T09:30:11.958Z</time></trkpt><trkpt lat="42.460006641502424" lon="11.544376950339492"><ele>127.0</ele><time>2026-04-30T09:30:12.958Z</time></trkpt><trkpt lat="42.45992178285616" lon="11.544384218469409"><ele>126.99999999999999</ele><time>2026-04-30T09:30:13.958Z</time></trkpt><trkpt lat="42.45983570139681" lon="11.544413497909789"><ele>126.99999999999999</ele><time>2026-04-30T09:30:14.958Z</time></trkpt><trkpt lat="42.45973517442215" lon="11.544423989145177"><ele>127.0</ele><time>2026-04-30T09:30:15.958Z</time></trkpt><trkpt lat="42.459639198119675" lon="11.544420093806345"><ele>127.0</ele><time>2026-04-30T09:30:16.958Z</time></trkpt><trkpt lat="42.45955278440561" lon="11.544455896866697"><ele>126.0</ele><time>2026-04-30T09:30:17.958Z</time></trkpt><trkpt lat="42.459455682132" lon="11.54446781580661"><ele>124.99999999999999</ele><time>2026-04-30T09:30:18.958Z</time></trkpt><trkpt lat="42.45935197730249" lon="11.544488483254806"><ele>123.99999999999999</ele><time>2026-04-30T09:30:19.958Z</time></trkpt><trkpt lat="42.459247065546485" lon="11.544509363718772"><ele>123.0</ele><time>2026-04-30T09:30:20.958Z</time></trkpt><trkpt lat="42.45914377584394" lon="11.544505661638981"><ele>122.0</ele><time>2026-04-30T09:30:21.958Z</time></trkpt><trkpt lat="42.459053041537096" lon="11.544507908529901"><ele>122.0</ele><time>2026-04-30T09:30:22.958Z</time></trkpt><trkpt lat="42.458967205444175" lon="11.544484145258165"><ele>121.99999999999999</ele><time>2026-04-30T09:30:23.958Z</time></trkpt><trkpt lat="42.45888116236291" lon="11.544449964509871"><ele>121.99999999999999</ele><time>2026-04-30T09:30:24.958Z</time></trkpt><trkpt lat="42.458799304726256" lon="11.54444196710427"><ele>122.0</ele><time>2026-04-30T09:30:25.958Z</time></trkpt><trkpt lat="42.458710051082" lon="11.544455547459542"><ele>122.0</ele><time>2026-04-30T09:30:26.958Z</time></trkpt><trkpt lat="42.458585647404675" lon="11.54447988849792"><ele>121.75</ele><time>2026-04-30T09:30:27.958Z</time></trkpt><trkpt lat="42.45844834356467" lon="11.544488322980769"><ele>121.5</ele><time>2026-04-30T09:30:28.958Z</time></trkpt><trkpt lat="42.45832397371797" lon="11.544498269728049"><ele>121.25</ele><time>2026-04-30T09:30:29.958Z</time></trkpt><trkpt lat="42.45820112796756" lon="11.544516283337423"><ele>121.0</ele><time>2026-04-30T09:30:30.958Z</time></trkpt><trkpt lat="42.45807738720262" lon="11.544543226048146"><ele>121.0</ele><time>2026-04-30T09:30:31.958Z</time></trkpt><trkpt lat="42.45794426738483" lon="11.544565831004299"><ele>121.0</ele><time>2026-04-30T09:30:32.958Z</time></trkpt><trkpt lat="42.45781204706102" lon="11.544584032440165"><ele>121.0</ele><time>2026-04-30T09:30:33.958Z</time></trkpt><trkpt lat="42.457696475723665" lon="11.544596128466168"><ele>121.0</ele><time>2026-04-30T09:30:34.958Z</time></trkpt><trkpt lat="42.45758463274761" lon="11.54461308387822"><ele>121.0</ele><time>2026-04-30T09:30:35.958Z</time></trkpt><trkpt lat="42.457471254438815" lon="11.544627278131513"><ele>121.0</ele><time>2026-04-30T09:30:36.958Z</time></trkpt><trkpt lat="42.45736457353901" lon="11.544635821300359"><ele>121.0</ele><time>2026-04-30T09:30:37.958Z</time></trkpt><trkpt lat="42.45725133692853" lon="11.544646989767292"><ele>121.0</ele><time>2026-04-30T09:30:38.958Z</time></trkpt><trkpt lat="42.45713894604064" lon="11.54466274890476"><ele>121.0</ele><time>2026-04-30T09:30:39.958Z</time></trkpt><trkpt lat="42.45701786504292" lon="11.544676788999999"><ele>120.5</ele><time>2026-04-30T09:30:40.958Z</time></trkpt><trkpt lat="42.456899203697915" lon="11.544671096564446"><ele>120.0</ele><time>2026-04-30T09:30:41.958Z</time></trkpt><trkpt lat="42.4567760380659" lon="11.544683413122767"><ele>119.5</ele><time>2026-04-30T09:30:42.958Z</time></trkpt><trkpt lat="42.456638059793185" lon="11.544697210952432"><ele>119.0</ele><time>2026-04-30T09:30:43.958Z</time></trkpt><trkpt lat="42.456493335464764" lon="11.544727109775229"><ele>119.0</ele><time>2026-04-30T09:30:44.958Z</time></trkpt><trkpt lat="42.456362954627366" lon="11.544749869467381"><ele>119.0</ele><time>2026-04-30T09:30:45.958Z</time></trkpt><trkpt lat="42.456264932408175" lon="11.544768444325925"><ele>119.0</ele><time>2026-04-30T09:30:46.958Z</time></trkpt><trkpt lat="42.45615924168355" lon="11.544780785110934"><ele>119.0</ele><time>2026-04-30T09:30:47.958Z</time></trkpt><trkpt lat="42.456071638583204" lon="11.544792906089091"><ele>119.0</ele><time>2026-04-30T09:30:48.958Z</time></trkpt><trkpt lat="42.45597821640929" lon="11.544806787048755"><ele>118.4</ele><time>2026-04-30T09:30:49.958Z</time></trkpt><trkpt lat="42.45588456032356" lon="11.54480065601918"><ele>117.80000000000001</ele><time>2026-04-30T09:30:50.958Z</time></trkpt><trkpt lat="42.4558019112464" lon="11.54483716182273"><ele>117.19999999999999</ele><time>2026-04-30T09:30:51.958Z</time></trkpt><trkpt lat="42.45569316350727" lon="11.544834943805789"><ele>116.6</ele><time>2026-04-30T09:30:52.958Z</time></trkpt><trkpt lat="42.45558503268609" lon="11.544854314919785"><ele>116.0</ele><time>2026-04-30T09:30:53.958Z</time></trkpt><trkpt lat="42.455483123716746" lon="11.544893157610234"><ele>114.8</ele><time>2026-04-30T09:30:54.958Z</time></trkpt><trkpt lat="42.45536950374487" lon="11.544912401162039"><ele>113.6</ele><time>2026-04-30T09:30:55.958Z</time></trkpt><trkpt lat="42.45525968393016" lon="11.544929960308135"><ele>112.4</ele><time>2026-04-30T09:30:56.958Z</time></trkpt><trkpt lat="42.45514706365543" lon="11.544927129621732"><ele>111.2</ele><time>2026-04-30T09:30:57.958Z</time></trkpt><trkpt lat="42.45504048572809" lon="11.544943647288113"><ele>110.0</ele><time>2026-04-30T09:30:58.958Z</time></trkpt><trkpt lat="42.454925700623576" lon="11.544976382233989"><ele>110.0</ele><time>2026-04-30T09:30:59.958Z</time></trkpt><trkpt lat="42.45481824805809" lon="11.544991877536553"><ele>110.0</ele><time>2026-04-30T09:31:00.958Z</time></trkpt><trkpt lat="42.454711566495014" lon="11.545009402322949"><ele>110.0</ele><time>2026-04-30T09:31:01.958Z</time></trkpt><trkpt lat="42.45459190904422" lon="11.545028172637322"><ele>110.0</ele><time>2026-04-30T09:31:02.958Z</time></trkpt><trkpt lat="42.45447230143506" lon="11.545047533546942"><ele>109.5</ele><time>2026-04-30T09:31:03.958Z</time></trkpt><trkpt lat="42.454343847599894" lon="11.545068664496679"><ele>109.0</ele><time>2026-04-30T09:31:04.958Z</time></trkpt><trkpt lat="42.45421280768807" lon="11.545091459603617"><ele>108.5</ele><time>2026-04-30T09:31:05.958Z</time></trkpt><trkpt lat="42.45406696887394" lon="11.545092124112298"><ele>108.0</ele><time>2026-04-30T09:31:06.958Z</time></trkpt><trkpt lat="42.45392585960408" lon="11.545113020086042"><ele>107.25</ele><time>2026-04-30T09:31:07.958Z</time></trkpt><trkpt lat="42.45378550306088" lon="11.545133804586843"><ele>106.5</ele><time>2026-04-30T09:31:08.958Z</time></trkpt><trkpt lat="42.45363879628861" lon="11.545178108147502"><ele>105.75</ele><time>2026-04-30T09:31:09.958Z</time></trkpt><trkpt lat="42.45349078225368" lon="11.545201322915563"><ele>105.0</ele><time>2026-04-30T09:31:10.958Z</time></trkpt><trkpt lat="42.453332988169315" lon="11.545223789906538"><ele>105.0</ele><time>2026-04-30T09:31:11.958Z</time></trkpt><trkpt lat="42.45317736910819" lon="11.545249389662535"><ele>105.0</ele><time>2026-04-30T09:31:12.958Z</time></trkpt><trkpt lat="42.45303591019508" lon="11.545252464297466"><ele>105.0</ele><time>2026-04-30T09:31:13.958Z</time></trkpt><trkpt lat="42.45292269191107" lon="11.545298575600532"><ele>105.0</ele><time>2026-04-30T09:31:14.958Z</time></trkpt><trkpt lat="42.452821472750955" lon="11.545320756070664"><ele>105.0</ele><time>2026-04-30T09:31:15.958Z</time></trkpt><trkpt lat="42.45272144548042" lon="11.545349456790115"><ele>105.0</ele><time>2026-04-30T09:31:16.958Z</time></trkpt><trkpt lat="42.45262261105373" lon="11.545396951217219"><ele>105.0</ele><time>2026-04-30T09:31:17.958Z</time></trkpt><trkpt lat="42.45249566426991" lon="11.545436879338576"><ele>105.0</ele><time>2026-04-30T09:31:18.958Z</time></trkpt><trkpt lat="42.452368912648886" lon="11.545453115202953"><ele>105.0</ele><time>2026-04-30T09:31:19.958Z</time></trkpt><trkpt lat="42.45227337747649" lon="11.54549898137442"><ele>105.0</ele><time>2026-04-30T09:31:20.958Z</time></trkpt><trkpt lat="42.452192290873995" lon="11.545503198259151"><ele>105.0</ele><time>2026-04-30T09:31:21.958Z</time></trkpt><trkpt lat="42.45211775230142" lon="11.545523149187506"><ele>105.0</ele><time>2026-04-30T09:31:22.958Z</time></trkpt><trkpt lat="42.45203867118258" lon="11.545544315954647"><ele>105.0</ele><time>2026-04-30T09:31:23.958Z</time></trkpt><trkpt lat="42.45193923032777" lon="11.545570932220006"><ele>105.0</ele><time>2026-04-30T09:31:24.958Z</time></trkpt><trkpt lat="42.45184638899066" lon="11.545618878170918"><ele>104.66666666666667</ele><time>2026-04-30T09:31:25.958Z</time></trkpt><trkpt lat="42.451760663290926" lon="11.545641658903676"><ele>104.33333333333334</ele><time>2026-04-30T09:31:26.958Z</time></trkpt><trkpt lat="42.45169296088559" lon="11.545670062121985"><ele>104.0</ele><time>2026-04-30T09:31:27.958Z</time></trkpt><trkpt lat="42.45161439188718" lon="11.545759028232139"><ele>103.66666666666667</ele><time>2026-04-30T09:31:29.958Z</time></trkpt><trkpt lat="42.45161871320268" lon="11.545854505773223"><ele>103.33333333333334</ele><time>2026-04-30T09:31:30.958Z</time></trkpt><trkpt lat="42.45162601100533" lon="11.545962168774883"><ele>103.0</ele><time>2026-04-30T09:31:31.958Z</time></trkpt><trkpt lat="42.45162494883194" lon="11.546121005059492"><ele>103.0</ele><time>2026-04-30T09:31:32.958Z</time></trkpt><trkpt lat="42.45162427569941" lon="11.546275460605996"><ele>103.0</ele><time>2026-04-30T09:31:33.958Z</time></trkpt><trkpt lat="42.451611165827266" lon="11.546428155181763"><ele>103.0</ele><time>2026-04-30T09:31:34.958Z</time></trkpt><trkpt lat="42.451623141185244" lon="11.54653738666308"><ele>103.0</ele><time>2026-04-30T09:31:35.958Z</time></trkpt><trkpt lat="42.451617568350585" lon="11.546638874700442"><ele>103.0</ele><time>2026-04-30T09:31:36.958Z</time></trkpt><trkpt lat="42.45161283830654" lon="11.546774627183927"><ele>103.0</ele><time>2026-04-30T09:31:37.958Z</time></trkpt><trkpt lat="42.45160454528238" lon="11.5469172073617"><ele>103.0</ele><time>2026-04-30T09:31:38.958Z</time></trkpt><trkpt lat="42.45160244976506" lon="11.54704436811618"><ele>103.0</ele><time>2026-04-30T09:31:39.958Z</time></trkpt><trkpt lat="42.45160966894726" lon="11.547192226588509"><ele>103.0</ele><time>2026-04-30T09:31:40.958Z</time></trkpt><trkpt lat="42.451617335260295" lon="11.547301189568547"><ele>103.0</ele><time>2026-04-30T09:31:41.958Z</time></trkpt><trkpt lat="42.45159706706216" lon="11.547448452191444"><ele>102.80000000000001</ele><time>2026-04-30T09:31:43.958Z</time></trkpt><trkpt lat="42.45156710162324" lon="11.547559222288623"><ele>102.6</ele><time>2026-04-30T09:31:45.958Z</time></trkpt><trkpt lat="42.45146175948338" lon="11.547575769960034"><ele>102.4</ele><time>2026-04-30T09:31:47.958Z</time></trkpt><trkpt lat="42.451381464804" lon="11.547608400361032"><ele>102.19999999999999</ele><time>2026-04-30T09:31:48.958Z</time></trkpt><trkpt lat="42.451271824513945" lon="11.547673383513324"><ele>102.0</ele><time>2026-04-30T09:31:49.958Z</time></trkpt><trkpt lat="42.45114815217338" lon="11.547696698113795"><ele>101.5</ele><time>2026-04-30T09:31:50.958Z</time></trkpt><trkpt lat="42.45101415358254" lon="11.547769981513982"><ele>101.0</ele><time>2026-04-30T09:31:51.958Z</time></trkpt><trkpt lat="42.45088239839757" lon="11.547816414519307"><ele>100.5</ele><time>2026-04-30T09:31:52.958Z</time></trkpt><trkpt lat="42.450771265537846" lon="11.54786065658084"><ele>100.0</ele><time>2026-04-30T09:31:53.958Z</time></trkpt><trkpt lat="42.45067040649337" lon="11.547913757749898"><ele>99.50000000000001</ele><time>2026-04-30T09:31:54.958Z</time></trkpt><trkpt lat="42.45058767848594" lon="11.547954036807136"><ele>99.0</ele><time>2026-04-30T09:31:55.958Z</time></trkpt><trkpt lat="42.45051253338441" lon="11.547993649729728"><ele>98.5</ele><time>2026-04-30T09:31:56.958Z</time></trkpt><trkpt lat="42.450424868388325" lon="11.548012252913944"><ele>98.0</ele><time>2026-04-30T09:31:57.957Z</time></trkpt><trkpt lat="42.45034981669381" lon="11.548043649315549"><ele>97.50000000000001</ele><time>2026-04-30T09:31:58.957Z</time></trkpt><trkpt lat="42.45027243479936" lon="11.548070899982315"><ele>97.0</ele><time>2026-04-30T09:31:59.957Z</time></trkpt><trkpt lat="42.45019045228962" lon="11.548091553755205"><ele>96.83333333333334</ele><time>2026-04-30T09:32:00.957Z</time></trkpt><trkpt lat="42.45010352141732" lon="11.548102982196818"><ele>96.66666666666667</ele><time>2026-04-30T09:32:01.957Z</time></trkpt><trkpt lat="42.45003690810548" lon="11.548103911923192"><ele>96.5</ele><time>2026-04-30T09:32:02.957Z</time></trkpt><trkpt lat="42.44995696485377" lon="11.548121301336948"><ele>96.33333333333334</ele><time>2026-04-30T09:32:04.957Z</time></trkpt><trkpt lat="42.44987727093452" lon="11.548112767246703"><ele>96.16666666666667</ele><time>2026-04-30T09:32:07.957Z</time></trkpt><trkpt lat="42.449743542015405" lon="11.548104163297586"><ele>96.0</ele><time>2026-04-30T09:32:09.957Z</time></trkpt><trkpt lat="42.449666016849974" lon="11.548092983939394"><ele>95.66666666666667</ele><time>2026-04-30T09:32:10.957Z</time></trkpt><trkpt lat="42.4496035116259" lon="11.548067898714828"><ele>95.33333333333333</ele><time>2026-04-30T09:32:11.957Z</time></trkpt><trkpt lat="42.44952942989686" lon="11.548059298333325"><ele>95.0</ele><time>2026-04-30T09:32:12.957Z</time></trkpt><trkpt lat="42.449440993312884" lon="11.548047680746217"><ele>94.66666666666666</ele><time>2026-04-30T09:32:13.957Z</time></trkpt><trkpt lat="42.44934411646027" lon="11.548048632490717"><ele>94.33333333333333</ele><time>2026-04-30T09:32:14.957Z</time></trkpt><trkpt lat="42.449256796360245" lon="11.548024401790867"><ele>94.0</ele><time>2026-04-30T09:32:15.957Z</time></trkpt><trkpt lat="42.44918779585055" lon="11.547981667157227"><ele>94.0</ele><time>2026-04-30T09:32:16.957Z</time></trkpt><trkpt lat="42.449106890387704" lon="11.547944813254432"><ele>94.0</ele><time>2026-04-30T09:32:18.957Z</time></trkpt><trkpt lat="42.44904585119175" lon="11.547973034001775"><ele>94.0</ele><time>2026-04-30T09:32:19.957Z</time></trkpt><trkpt lat="42.44898329525296" lon="11.547985850664812"><ele>94.0</ele><time>2026-04-30T09:32:22.957Z</time></trkpt><trkpt lat="42.44895281061163" lon="11.548096360833098"><ele>94.0</ele><time>2026-04-30T09:32:24.957Z</time></trkpt><trkpt lat="42.44890877458167" lon="11.54820829390265"><ele>94.0</ele><time>2026-04-30T09:32:26.957Z</time></trkpt><trkpt lat="42.4488857135367" lon="11.54833394574277"><ele>94.0</ele><time>2026-04-30T09:32:28.957Z</time></trkpt><trkpt lat="42.44882116469053" lon="11.548480248761422"><ele>94.0</ele><time>2026-04-30T09:32:30.957Z</time></trkpt><trkpt lat="42.44876939794666" lon="11.548571522075799"><ele>94.0</ele><time>2026-04-30T09:32:31.957Z</time></trkpt><trkpt lat="42.44870581474487" lon="11.54866097402521"><ele>94.0</ele><time>2026-04-30T09:32:32.957Z</time></trkpt><trkpt lat="42.44864109997753" lon="11.54873910193504"><ele>94.0</ele><time>2026-04-30T09:32:33.957Z</time></trkpt><trkpt lat="42.44859294931158" lon="11.548819437772286"><ele>93.2</ele><time>2026-04-30T09:32:34.957Z</time></trkpt><trkpt lat="42.4485194251569" lon="11.548863543196761"><ele>92.4</ele><time>2026-04-30T09:32:35.957Z</time></trkpt><trkpt lat="42.44843807583245" lon="11.548941625103955"><ele>91.6</ele><time>2026-04-30T09:32:36.957Z</time></trkpt><trkpt lat="42.44837504162701" lon="11.548986032260183"><ele>90.8</ele><time>2026-04-30T09:32:37.957Z</time></trkpt><trkpt lat="42.44829468945512" lon="11.549017609131914"><ele>90.0</ele><time>2026-04-30T09:32:38.957Z</time></trkpt><trkpt lat="42.44815728373954" lon="11.549094234349376"><ele>90.0</ele><time>2026-04-30T09:32:39.957Z</time></trkpt><trkpt lat="42.44802427443468" lon="11.549147072480464"><ele>90.0</ele><time>2026-04-30T09:32:40.957Z</time></trkpt><trkpt lat="42.447901950480386" lon="11.549198491879368"><ele>90.0</ele><time>2026-04-30T09:32:41.957Z</time></trkpt><trkpt lat="42.44779616856504" lon="11.549245295375258"><ele>90.0</ele><time>2026-04-30T09:32:42.957Z</time></trkpt><trkpt lat="42.447703686717574" lon="11.549285884920337"><ele>89.8</ele><time>2026-04-30T09:32:43.957Z</time></trkpt><trkpt lat="42.44760958712767" lon="11.549330611243676"><ele>89.6</ele><time>2026-04-30T09:32:44.957Z</time></trkpt><trkpt lat="42.447511626693036" lon="11.549372779088127"><ele>89.4</ele><time>2026-04-30T09:32:45.957Z</time></trkpt><trkpt lat="42.4474083339735" lon="11.549413947785773"><ele>89.2</ele><time>2026-04-30T09:32:46.957Z</time></trkpt><trkpt lat="42.447298483610936" lon="11.549456652066192"><ele>89.0</ele><time>2026-04-30T09:32:47.957Z</time></trkpt><trkpt lat="42.447185922381756" lon="11.549486773711033"><ele>89.2</ele><time>2026-04-30T09:32:48.957Z</time></trkpt><trkpt lat="42.44708490592596" lon="11.549545962510416"><ele>89.4</ele><time>2026-04-30T09:32:49.957Z</time></trkpt><trkpt lat="42.446976786997396" lon="11.549594183466484"><ele>89.6</ele><time>2026-04-30T09:32:50.957Z</time></trkpt><trkpt lat="42.44687222221284" lon="11.549641043756019"><ele>89.8</ele><time>2026-04-30T09:32:51.957Z</time></trkpt><trkpt lat="42.446772039235654" lon="11.549685663205077"><ele>90.0</ele><time>2026-04-30T09:32:52.957Z</time></trkpt><trkpt lat="42.4466765069989" lon="11.549731076347047"><ele>90.0</ele><time>2026-04-30T09:32:53.957Z</time></trkpt><trkpt lat="42.44657613244449" lon="11.54975314951059"><ele>90.0</ele><time>2026-04-30T09:32:54.957Z</time></trkpt><trkpt lat="42.44648852056887" lon="11.549790233316628"><ele>90.0</ele><time>2026-04-30T09:32:55.957Z</time></trkpt><trkpt lat="42.44641253640716" lon="11.549821068450166"><ele>90.0</ele><time>2026-04-30T09:32:56.957Z</time></trkpt><trkpt lat="42.4463398014787" lon="11.549865899775691"><ele>90.0</ele><time>2026-04-30T09:32:57.957Z</time></trkpt><trkpt lat="42.446260479502385" lon="11.549882089938706"><ele>90.0</ele><time>2026-04-30T09:32:58.957Z</time></trkpt><trkpt lat="42.446148028893056" lon="11.549881111906338"><ele>89.2</ele><time>2026-04-30T09:33:00.957Z</time></trkpt><trkpt lat="42.446043818211095" lon="11.549843069144416"><ele>88.4</ele><time>2026-04-30T09:33:02.957Z</time></trkpt><trkpt lat="42.445975876950804" lon="11.549798608369521"><ele>87.6</ele><time>2026-04-30T09:33:03.957Z</time></trkpt><trkpt lat="42.44588782631614" lon="11.549769724269606"><ele>86.8</ele><time>2026-04-30T09:33:04.957Z</time></trkpt><trkpt lat="42.44579161246946" lon="11.549720556514874"><ele>86.0</ele><time>2026-04-30T09:33:05.957Z</time></trkpt><trkpt lat="42.4456864092692" lon="11.549679622238756"><ele>86.0</ele><time>2026-04-30T09:33:06.957Z</time></trkpt><trkpt lat="42.44560065234105" lon="11.549637780275008"><ele>86.0</ele><time>2026-04-30T09:33:07.957Z</time></trkpt><trkpt lat="42.44551820387043" lon="11.549608111918415"><ele>86.0</ele><time>2026-04-30T09:33:08.957Z</time></trkpt><trkpt lat="42.44542614225817" lon="11.549600058017266"><ele>86.0</ele><time>2026-04-30T09:33:09.957Z</time></trkpt><trkpt lat="42.445326902215356" lon="11.549601121551186"><ele>86.0</ele><time>2026-04-30T09:33:10.957Z</time></trkpt><trkpt lat="42.44521586749382" lon="11.549610566088031"><ele>86.0</ele><time>2026-04-30T09:33:11.957Z</time></trkpt><trkpt lat="42.44509555557356" lon="11.54959401254484"><ele>86.0</ele><time>2026-04-30T09:33:12.957Z</time></trkpt><trkpt lat="42.44496289980357" lon="11.549615929625439"><ele>86.0</ele><time>2026-04-30T09:33:13.957Z</time></trkpt><trkpt lat="42.44482220419085" lon="11.549610108814967"><ele>86.0</ele><time>2026-04-30T09:33:14.957Z</time></trkpt><trkpt lat="42.444677157247625" lon="11.549610395300622"><ele>85.75</ele><time>2026-04-30T09:33:15.957Z</time></trkpt><trkpt lat="42.444529158075305" lon="11.549586535033935"><ele>85.5</ele><time>2026-04-30T09:33:16.957Z</time></trkpt><trkpt lat="42.44438506754003" lon="11.549579132419954"><ele>85.25</ele><time>2026-04-30T09:33:17.957Z</time></trkpt><trkpt lat="42.444244904036545" lon="11.549593194772624"><ele>85.0</ele><time>2026-04-30T09:33:18.957Z</time></trkpt><trkpt lat="42.44410678872977" lon="11.549563097923693"><ele>85.0</ele><time>2026-04-30T09:33:19.957Z</time></trkpt><trkpt lat="42.443968894874054" lon="11.549555154074255"><ele>85.0</ele><time>2026-04-30T09:33:20.957Z</time></trkpt><trkpt lat="42.443832280352325" lon="11.549547282312696"><ele>85.0</ele><time>2026-04-30T09:33:21.957Z</time></trkpt><trkpt lat="42.44369014610722" lon="11.54953909250286"><ele>85.0</ele><time>2026-04-30T09:33:22.957Z</time></trkpt><trkpt lat="42.44353925845008" lon="11.549530398318348"><ele>83.75</ele><time>2026-04-30T09:33:23.957Z</time></trkpt><trkpt lat="42.44338728377851" lon="11.549521641499785"><ele>82.5</ele><time>2026-04-30T09:33:24.957Z</time></trkpt><trkpt lat="42.443239054559605" lon="11.549513100493764"><ele>81.25</ele><time>2026-04-30T09:33:25.957Z</time></trkpt><trkpt lat="42.443095882964535" lon="11.549505602940114"><ele>80.0</ele><time>2026-04-30T09:33:26.957Z</time></trkpt><trkpt lat="42.44295555673308" lon="11.5495012323774"><ele>80.0</ele><time>2026-04-30T09:33:27.957Z</time></trkpt><trkpt lat="42.44281452566175" lon="11.549499680691477"><ele>80.0</ele><time>2026-04-30T09:33:28.957Z</time></trkpt><trkpt lat="42.442674849128416" lon="11.549496611339634"><ele>80.0</ele><time>2026-04-30T09:33:29.957Z</time></trkpt><trkpt lat="42.44253638575961" lon="11.549490638634872"><ele>80.0</ele><time>2026-04-30T09:33:30.957Z</time></trkpt><trkpt lat="42.442396041254405" lon="11.549479686412043"><ele>80.0</ele><time>2026-04-30T09:33:31.957Z</time></trkpt><trkpt lat="42.44224761573686" lon="11.54946584940412"><ele>80.0</ele><time>2026-04-30T09:33:32.957Z</time></trkpt><trkpt lat="42.44208801340851" lon="11.54945097043795"><ele>80.0</ele><time>2026-04-30T09:33:33.957Z</time></trkpt><trkpt lat="42.44192335509617" lon="11.549437698275538"><ele>79.0</ele><time>2026-04-30T09:33:34.957Z</time></trkpt><trkpt lat="42.44175947958423" lon="11.5494292360262"><ele>78.0</ele><time>2026-04-30T09:33:35.957Z</time></trkpt><trkpt lat="42.44160240234515" lon="11.549421124820435"><ele>77.0</ele><time>2026-04-30T09:33:36.957Z</time></trkpt><trkpt lat="42.44145721082216" lon="11.549413627375168"><ele>77.0</ele><time>2026-04-30T09:33:37.957Z</time></trkpt><trkpt lat="42.441310144480475" lon="11.549406033114238"><ele>77.0</ele><time>2026-04-30T09:33:38.957Z</time></trkpt><trkpt lat="42.44116702851311" lon="11.549398642855117"><ele>77.0</ele><time>2026-04-30T09:33:39.957Z</time></trkpt><trkpt lat="42.44103420981578" lon="11.549391784322903"><ele>77.0</ele><time>2026-04-30T09:33:40.957Z</time></trkpt><trkpt lat="42.440907124249264" lon="11.54938522184089"><ele>76.0</ele><time>2026-04-30T09:33:41.957Z</time></trkpt><trkpt lat="42.44078481590496" lon="11.549393092257304"><ele>75.0</ele><time>2026-04-30T09:33:42.957Z</time></trkpt><trkpt lat="42.44066344114073" lon="11.549387819348807"><ele>74.0</ele><time>2026-04-30T09:33:43.957Z</time></trkpt><trkpt lat="42.44055635140634" lon="11.549380379666918"><ele>73.0</ele><time>2026-04-30T09:33:44.957Z</time></trkpt><trkpt lat="42.44045982483707" lon="11.549377936811174"><ele>72.0</ele><time>2026-04-30T09:33:45.957Z</time></trkpt><trkpt lat="42.440377319620325" lon="11.549351989422673"><ele>71.6</ele><time>2026-04-30T09:33:46.957Z</time></trkpt><trkpt lat="42.440271308152866" lon="11.549343378905363"><ele>71.2</ele><time>2026-04-30T09:33:48.958Z</time></trkpt><trkpt lat="42.44020549518813" lon="11.549338033412445"><ele>70.8</ele><time>2026-04-30T09:33:50.958Z</time></trkpt><trkpt lat="42.44011738874767" lon="11.549341443387085"><ele>70.4</ele><time>2026-04-30T09:39:27.956Z</time></trkpt><trkpt lat="42.44003700404771" lon="11.549467923507613"><ele>70.0</ele><time>2026-04-30T09:39:30.956Z</time></trkpt><trkpt lat="42.44000877193087" lon="11.549574146927116"><ele>70.0</ele><time>2026-04-30T09:39:31.956Z</time></trkpt><trkpt lat="42.43997355574447" lon="11.549671182018336"><ele>70.0</ele><time>2026-04-30T09:39:32.956Z</time></trkpt><trkpt lat="42.43994312196194" lon="11.5497808530063"><ele>70.0</ele><time>2026-04-30T09:39:33.956Z</time></trkpt><trkpt lat="42.43991303827967" lon="11.549898223439081"><ele>70.0</ele><time>2026-04-30T09:39:34.956Z</time></trkpt><trkpt lat="42.439885403578984" lon="11.550008717591844"><ele>70.0</ele><time>2026-04-30T09:39:35.956Z</time></trkpt><trkpt lat="42.4398564200412" lon="11.550129837938144"><ele>70.0</ele><time>2026-04-30T09:39:36.956Z</time></trkpt><trkpt lat="42.43983327924456" lon="11.550235115020454"><ele>70.0</ele><time>2026-04-30T09:39:37.956Z</time></trkpt><trkpt lat="42.43981122366568" lon="11.55035404212369"><ele>70.0</ele><time>2026-04-30T09:39:38.956Z</time></trkpt><trkpt lat="42.439798252521854" lon="11.550465738188635"><ele>70.0</ele><time>2026-04-30T09:39:39.956Z</time></trkpt><trkpt lat="42.43977815011766" lon="11.55059737577943"><ele>70.0</ele><time>2026-04-30T09:39:40.956Z</time></trkpt><trkpt lat="42.4397490354679" lon="11.550738661043592"><ele>70.0</ele><time>2026-04-30T09:39:41.956Z</time></trkpt><trkpt lat="42.43972917647607" lon="11.550878676148086"><ele>70.0</ele><time>2026-04-30T09:39:42.956Z</time></trkpt><trkpt lat="42.43972442386996" lon="11.551008547106866"><ele>70.0</ele><time>2026-04-30T09:39:43.956Z</time></trkpt><trkpt lat="42.43969297518602" lon="11.551122329308877"><ele>70.0</ele><time>2026-04-30T09:39:44.956Z</time></trkpt><trkpt lat="42.43966943282103" lon="11.551232845214134"><ele>70.0</ele><time>2026-04-30T09:39:45.956Z</time></trkpt><trkpt lat="42.439641006812515" lon="11.551346139559474"><ele>70.0</ele><time>2026-04-30T09:39:46.956Z</time></trkpt><trkpt lat="42.439613020297855" lon="11.55148743027982"><ele>69.6</ele><time>2026-04-30T09:39:47.956Z</time></trkpt><trkpt lat="42.43956835343513" lon="11.551639742659859"><ele>69.2</ele><time>2026-04-30T09:39:48.956Z</time></trkpt><trkpt lat="42.439523560201785" lon="11.551779486123717"><ele>68.8</ele><time>2026-04-30T09:39:49.956Z</time></trkpt><trkpt lat="42.43948794511623" lon="11.551914729945274"><ele>68.4</ele><time>2026-04-30T09:39:50.956Z</time></trkpt><trkpt lat="42.439453454263514" lon="11.552050202597805"><ele>68.0</ele><time>2026-04-30T09:39:51.956Z</time></trkpt><trkpt lat="42.439417233216844" lon="11.552182936673821"><ele>68.0</ele><time>2026-04-30T09:39:52.956Z</time></trkpt><trkpt lat="42.43937900765015" lon="11.552314138783915"><ele>68.0</ele><time>2026-04-30T09:39:53.956Z</time></trkpt><trkpt lat="42.4393394370797" lon="11.55243775382078"><ele>68.0</ele><time>2026-04-30T09:39:54.956Z</time></trkpt><trkpt lat="42.43929719777803" lon="11.552567582329564"><ele>68.0</ele><time>2026-04-30T09:39:55.956Z</time></trkpt><trkpt lat="42.43925415980151" lon="11.552697565612373"><ele>68.0</ele><time>2026-04-30T09:39:56.956Z</time></trkpt><trkpt lat="42.43921811933927" lon="11.552830925026617"><ele>68.2</ele><time>2026-04-30T09:39:57.956Z</time></trkpt><trkpt lat="42.43918533846162" lon="11.552947985380268"><ele>68.4</ele><time>2026-04-30T09:39:58.956Z</time></trkpt><trkpt lat="42.43915362448852" lon="11.553061468191892"><ele>68.60000000000001</ele><time>2026-04-30T09:39:59.956Z</time></trkpt><trkpt lat="42.43911546117423" lon="11.553189129425949"><ele>68.8</ele><time>2026-04-30T09:40:00.956Z</time></trkpt><trkpt lat="42.4390702982073" lon="11.553325608992365"><ele>69.0</ele><time>2026-04-30T09:40:01.956Z</time></trkpt><trkpt lat="42.43900078789434" lon="11.55346329804243"><ele>69.0</ele><time>2026-04-30T09:40:02.956Z</time></trkpt><trkpt lat="42.43893531170284" lon="11.553631859040012"><ele>69.0</ele><time>2026-04-30T09:40:03.956Z</time></trkpt><trkpt lat="42.438869459640436" lon="11.55382018700695"><ele>69.0</ele><time>2026-04-30T09:40:04.956Z</time></trkpt><trkpt lat="42.438794458677606" lon="11.553996798562068"><ele>69.0</ele><time>2026-04-30T09:40:05.956Z</time></trkpt><trkpt lat="42.43873571450369" lon="11.554175835560363"><ele>69.2</ele><time>2026-04-30T09:40:06.956Z</time></trkpt><trkpt lat="42.43868915010821" lon="11.554329611672367"><ele>69.4</ele><time>2026-04-30T09:40:07.956Z</time></trkpt><trkpt lat="42.43865833880812" lon="11.554449913873803"><ele>69.6</ele><time>2026-04-30T09:40:08.956Z</time></trkpt><trkpt lat="42.43862623620117" lon="11.554582991597622"><ele>69.8</ele><time>2026-04-30T09:40:09.956Z</time></trkpt><trkpt lat="42.438603375064616" lon="11.554734948550715"><ele>70.0</ele><time>2026-04-30T09:40:10.956Z</time></trkpt><trkpt lat="42.43858397649725" lon="11.554897075937967"><ele>69.5</ele><time>2026-04-30T09:40:11.956Z</time></trkpt><trkpt lat="42.438577840110135" lon="11.555048362395986"><ele>69.0</ele><time>2026-04-30T09:40:12.956Z</time></trkpt><trkpt lat="42.438581026335065" lon="11.55519989493459"><ele>68.5</ele><time>2026-04-30T09:40:13.956Z</time></trkpt><trkpt lat="42.438604915810465" lon="11.55535698890937"><ele>68.0</ele><time>2026-04-30T09:40:14.956Z</time></trkpt><trkpt lat="42.43864939278919" lon="11.555512500576697"><ele>68.25</ele><time>2026-04-30T09:40:15.956Z</time></trkpt><trkpt lat="42.4386863668709" lon="11.555667563361713"><ele>68.5</ele><time>2026-04-30T09:40:16.956Z</time></trkpt><trkpt lat="42.438735909665624" lon="11.55581806839248"><ele>68.75</ele><time>2026-04-30T09:40:17.956Z</time></trkpt><trkpt lat="42.438792428768764" lon="11.555975721339443"><ele>69.0</ele><time>2026-04-30T09:40:18.956Z</time></trkpt><trkpt lat="42.43884060550124" lon="11.556142333510914"><ele>68.25</ele><time>2026-04-30T09:40:19.956Z</time></trkpt><trkpt lat="42.43887125684628" lon="11.556326844852608"><ele>67.5</ele><time>2026-04-30T09:40:20.956Z</time></trkpt><trkpt lat="42.43894535654522" lon="11.556501298030625"><ele>66.75</ele><time>2026-04-30T09:40:21.955Z</time></trkpt><trkpt lat="42.4389881461285" lon="11.55668533786699"><ele>66.0</ele><time>2026-04-30T09:40:22.954Z</time></trkpt><trkpt lat="42.43903363666384" lon="11.556858301159384"><ele>65.25</ele><time>2026-04-30T09:40:23.954Z</time></trkpt><trkpt lat="42.43906922043562" lon="11.55704080729593"><ele>64.5</ele><time>2026-04-30T09:40:24.955Z</time></trkpt><trkpt lat="42.4390996378083" lon="11.557229114901023"><ele>63.75</ele><time>2026-04-30T09:40:25.955Z</time></trkpt><trkpt lat="42.43912236704572" lon="11.557415034465441"><ele>63.0</ele><time>2026-04-30T09:40:26.955Z</time></trkpt><trkpt lat="42.4391482727429" lon="11.557584346137252"><ele>63.0</ele><time>2026-04-30T09:40:27.954Z</time></trkpt><trkpt lat="42.43916538121893" lon="11.55775763314491"><ele>63.0</ele><time>2026-04-30T09:40:28.955Z</time></trkpt><trkpt lat="42.43917070821698" lon="11.557922018970999"><ele>63.0</ele><time>2026-04-30T09:40:29.955Z</time></trkpt><trkpt lat="42.43915885595307" lon="11.558093857776411"><ele>63.0</ele><time>2026-04-30T09:40:30.955Z</time></trkpt><trkpt lat="42.439150384436985" lon="11.558227879076517"><ele>62.4</ele><time>2026-04-30T09:40:31.955Z</time></trkpt><trkpt lat="42.43913818450927" lon="11.558351160089186"><ele>61.8</ele><time>2026-04-30T09:40:32.955Z</time></trkpt><trkpt lat="42.43912441009979" lon="11.558475768288435"><ele>61.2</ele><time>2026-04-30T09:40:33.955Z</time></trkpt><trkpt lat="42.43910698925653" lon="11.558605117018761"><ele>60.6</ele><time>2026-04-30T09:40:34.955Z</time></trkpt><trkpt lat="42.43909216566541" lon="11.558721112435807"><ele>60.0</ele><time>2026-04-30T09:40:35.955Z</time></trkpt><trkpt lat="42.43907285004879" lon="11.558834215419726"><ele>59.6</ele><time>2026-04-30T09:40:36.955Z</time></trkpt><trkpt lat="42.439059564469275" lon="11.558941897513193"><ele>59.2</ele><time>2026-04-30T09:40:37.955Z</time></trkpt><trkpt lat="42.439048293024705" lon="11.559065179457379"><ele>58.8</ele><time>2026-04-30T09:40:38.955Z</time></trkpt><trkpt lat="42.439031468379625" lon="11.559194678376665"><ele>58.4</ele><time>2026-04-30T09:40:39.955Z</time></trkpt><trkpt lat="42.43900927607162" lon="11.559336763804115"><ele>58.0</ele><time>2026-04-30T09:40:40.955Z</time></trkpt><trkpt lat="42.43896153648732" lon="11.559468508828125"><ele>57.4</ele><time>2026-04-30T09:40:41.955Z</time></trkpt><trkpt lat="42.4389354078945" lon="11.55960878154997"><ele>56.8</ele><time>2026-04-30T09:40:42.955Z</time></trkpt><trkpt lat="42.438905985410805" lon="11.55974353038627"><ele>56.2</ele><time>2026-04-30T09:40:43.955Z</time></trkpt><trkpt lat="42.43887719530061" lon="11.559872023881459"><ele>55.6</ele><time>2026-04-30T09:40:44.955Z</time></trkpt><trkpt lat="42.43883561510097" lon="11.559989451373438"><ele>55.0</ele><time>2026-04-30T09:40:45.955Z</time></trkpt><trkpt lat="42.438800001317496" lon="11.560088535035655"><ele>54.83333333333333</ele><time>2026-04-30T09:40:46.955Z</time></trkpt><trkpt lat="42.43877097481832" lon="11.560168686741141"><ele>54.666666666666664</ele><time>2026-04-30T09:40:47.955Z</time></trkpt><trkpt lat="42.438752869259325" lon="11.560270509364347"><ele>54.5</ele><time>2026-04-30T09:40:49.955Z</time></trkpt><trkpt lat="42.43875867354845" lon="11.560378240568589"><ele>54.33333333333333</ele><time>2026-04-30T09:40:51.955Z</time></trkpt><trkpt lat="42.438777928401024" lon="11.560532705702883"><ele>54.166666666666664</ele><time>2026-04-30T09:40:53.955Z</time></trkpt><trkpt lat="42.438803148185876" lon="11.560644304405361"><ele>54.0</ele><time>2026-04-30T09:40:54.955Z</time></trkpt><trkpt lat="42.43882195096854" lon="11.560763045038357"><ele>54.333333333333336</ele><time>2026-04-30T09:40:55.955Z</time></trkpt><trkpt lat="42.4388351648964" lon="11.560847107816922"><ele>54.66666666666667</ele><time>2026-04-30T09:40:56.955Z</time></trkpt><trkpt lat="42.4388508965194" lon="11.561021829385343"><ele>55.0</ele><time>2026-04-30T09:40:58.955Z</time></trkpt><trkpt lat="42.43889301469459" lon="11.561109557620131"><ele>55.333333333333336</ele><time>2026-04-30T09:40:59.955Z</time></trkpt><trkpt lat="42.43894037091394" lon="11.561181018958422"><ele>55.66666666666667</ele><time>2026-04-30T09:41:00.955Z</time></trkpt><trkpt lat="42.43898896126703" lon="11.561245384344085"><ele>56.0</ele><time>2026-04-30T09:41:01.955Z</time></trkpt><trkpt lat="42.43901524256798" lon="11.5613300716359"><ele>56.0</ele><time>2026-04-30T09:41:02.955Z</time></trkpt><trkpt lat="42.439025437892994" lon="11.561507352715749"><ele>56.0</ele><time>2026-04-30T09:41:04.955Z</time></trkpt><trkpt lat="42.43894610660239" lon="11.561702738257386"><ele>56.0</ele><time>2026-04-30T09:41:06.955Z</time></trkpt><trkpt lat="42.43889240971157" lon="11.561880415311338"><ele>56.0</ele><time>2026-04-30T09:41:07.955Z</time></trkpt><trkpt lat="42.438856053823194" lon="11.562059325661224"><ele>57.25</ele><time>2026-04-30T09:41:08.955Z</time></trkpt><trkpt lat="42.43881573300823" lon="11.562230160894032"><ele>58.5</ele><time>2026-04-30T09:41:09.955Z</time></trkpt><trkpt lat="42.43881456660699" lon="11.562403355807188"><ele>59.75</ele><time>2026-04-30T09:41:10.955Z</time></trkpt><trkpt lat="42.4387937752866" lon="11.562552036645037"><ele>61.0</ele><time>2026-04-30T09:41:11.955Z</time></trkpt><trkpt lat="42.43877921749984" lon="11.562687136876024"><ele>60.99999999999999</ele><time>2026-04-30T09:41:12.955Z</time></trkpt><trkpt lat="42.43875620926461" lon="11.562799703988661"><ele>61.0</ele><time>2026-04-30T09:41:13.955Z</time></trkpt><trkpt lat="42.43872095305238" lon="11.562901104141709"><ele>61.0</ele><time>2026-04-30T09:41:14.955Z</time></trkpt><trkpt lat="42.43870921873385" lon="11.563020907255797"><ele>61.0</ele><time>2026-04-30T09:41:15.955Z</time></trkpt><trkpt lat="42.43874925152812" lon="11.563135142222283"><ele>60.99999999999999</ele><time>2026-04-30T09:41:16.955Z</time></trkpt><trkpt lat="42.4387489915608" lon="11.563244453312196"><ele>61.0</ele><time>2026-04-30T09:41:17.955Z</time></trkpt><trkpt lat="42.43875225387856" lon="11.563345010955999"><ele>61.49999999999999</ele><time>2026-04-30T09:41:18.955Z</time></trkpt><trkpt lat="42.438761438313584" lon="11.563453651662533"><ele>62.0</ele><time>2026-04-30T09:41:19.955Z</time></trkpt><trkpt lat="42.43877383818591" lon="11.56357067875264"><ele>62.5</ele><time>2026-04-30T09:41:20.955Z</time></trkpt><trkpt lat="42.43877589993377" lon="11.56370204114446"><ele>63.0</ele><time>2026-04-30T09:41:21.955Z</time></trkpt><trkpt lat="42.438817905643056" lon="11.563805843768716"><ele>63.49999999999999</ele><time>2026-04-30T09:41:22.955Z</time></trkpt><trkpt lat="42.43885464589974" lon="11.563908542996224"><ele>64.0</ele><time>2026-04-30T09:41:23.955Z</time></trkpt><trkpt lat="42.43886177561563" lon="11.563996643542854"><ele>64.4</ele><time>2026-04-30T09:41:24.955Z</time></trkpt><trkpt lat="42.43888225911476" lon="11.564093060816884"><ele>64.80000000000001</ele><time>2026-04-30T09:41:25.955Z</time></trkpt><trkpt lat="42.438896858375585" lon="11.564206229548226"><ele>65.19999999999999</ele><time>2026-04-30T09:41:26.955Z</time></trkpt><trkpt lat="42.438915915602216" lon="11.564333303601433"><ele>65.6</ele><time>2026-04-30T09:41:27.955Z</time></trkpt><trkpt lat="42.43894114283342" lon="11.564475202641024"><ele>66.0</ele><time>2026-04-30T09:41:28.955Z</time></trkpt><trkpt lat="42.43897364271097" lon="11.564643316904789"><ele>67.0</ele><time>2026-04-30T09:41:29.955Z</time></trkpt><trkpt lat="42.4389979910481" lon="11.564835145543165"><ele>68.0</ele><time>2026-04-30T09:41:30.955Z</time></trkpt><trkpt lat="42.439052975499976" lon="11.565005531367623"><ele>69.0</ele><time>2026-04-30T09:41:31.955Z</time></trkpt><trkpt lat="42.439104446880705" lon="11.56518649485558"><ele>70.0</ele><time>2026-04-30T09:41:32.955Z</time></trkpt><trkpt lat="42.43915226609339" lon="11.565351816503302"><ele>71.6</ele><time>2026-04-30T09:41:33.955Z</time></trkpt><trkpt lat="42.43920025173868" lon="11.565515077734"><ele>73.2</ele><time>2026-04-30T09:41:34.955Z</time></trkpt><trkpt lat="42.43923655044892" lon="11.565655438599087"><ele>74.8</ele><time>2026-04-30T09:41:35.955Z</time></trkpt><trkpt lat="42.439270122361094" lon="11.565790331656093"><ele>76.4</ele><time>2026-04-30T09:41:36.955Z</time></trkpt><trkpt lat="42.43931251976346" lon="11.565916626268702"><ele>78.0</ele><time>2026-04-30T09:41:37.955Z</time></trkpt><trkpt lat="42.43935086106928" lon="11.56602510959284"><ele>78.0</ele><time>2026-04-30T09:41:38.955Z</time></trkpt><trkpt lat="42.43938012981337" lon="11.56613441672793"><ele>78.0</ele><time>2026-04-30T09:41:39.955Z</time></trkpt><trkpt lat="42.43941309934874" lon="11.566239985954939"><ele>78.0</ele><time>2026-04-30T09:41:40.955Z</time></trkpt><trkpt lat="42.43943196041332" lon="11.56632201680332"><ele>78.0</ele><time>2026-04-30T09:41:41.955Z</time></trkpt><trkpt lat="42.439448335638865" lon="11.566485446662247"><ele>78.0</ele><time>2026-04-30T09:41:43.955Z</time></trkpt><trkpt lat="42.43944326274091" lon="11.566576316894478"><ele>78.0</ele><time>2026-04-30T09:41:44.955Z</time></trkpt><trkpt lat="42.439438803393024" lon="11.566687018131622"><ele>79.2</ele><time>2026-04-30T09:41:45.955Z</time></trkpt><trkpt lat="42.43943036044046" lon="11.566778876421086"><ele>80.4</ele><time>2026-04-30T09:41:46.955Z</time></trkpt><trkpt lat="42.43938596374033" lon="11.566908661626844"><ele>81.60000000000001</ele><time>2026-04-30T09:41:48.955Z</time></trkpt><trkpt lat="42.43932129421959" lon="11.567057757316336"><ele>82.8</ele><time>2026-04-30T09:41:50.955Z</time></trkpt><trkpt lat="42.439282518509536" lon="11.567145644959867"><ele>84.0</ele><time>2026-04-30T09:41:51.955Z</time></trkpt><trkpt lat="42.43925160457457" lon="11.56724662122483"><ele>84.25</ele><time>2026-04-30T09:41:52.955Z</time></trkpt><trkpt lat="42.439220401649344" lon="11.567372617172238"><ele>84.5</ele><time>2026-04-30T09:41:53.955Z</time></trkpt><trkpt lat="42.439167306615936" lon="11.567522749076357"><ele>84.75</ele><time>2026-04-30T09:41:54.955Z</time></trkpt><trkpt lat="42.4391619457233" lon="11.567680833993762"><ele>85.0</ele><time>2026-04-30T09:41:55.955Z</time></trkpt><trkpt lat="42.4390946036369" lon="11.567824732734696"><ele>85.25</ele><time>2026-04-30T09:41:56.955Z</time></trkpt><trkpt lat="42.439052828306515" lon="11.567982795901038"><ele>85.5</ele><time>2026-04-30T09:41:57.955Z</time></trkpt><trkpt lat="42.43901079886546" lon="11.568164641664072"><ele>85.75</ele><time>2026-04-30T09:41:58.955Z</time></trkpt><trkpt lat="42.43897211915638" lon="11.568334275078538"><ele>86.0</ele><time>2026-04-30T09:41:59.955Z</time></trkpt><trkpt lat="42.43892621824192" lon="11.568496264351012"><ele>86.0</ele><time>2026-04-30T09:42:00.955Z</time></trkpt><trkpt lat="42.4388693426351" lon="11.568684857556272"><ele>86.0</ele><time>2026-04-30T09:42:01.955Z</time></trkpt><trkpt lat="42.43881420383723" lon="11.568861504419885"><ele>86.0</ele><time>2026-04-30T09:42:02.955Z</time></trkpt><trkpt lat="42.438760380530695" lon="11.569043016152328"><ele>86.0</ele><time>2026-04-30T09:42:03.955Z</time></trkpt><trkpt lat="42.43872202329332" lon="11.569197156412548"><ele>86.5</ele><time>2026-04-30T09:42:04.955Z</time></trkpt><trkpt lat="42.4386840172834" lon="11.56935778502798"><ele>87.0</ele><time>2026-04-30T09:42:05.955Z</time></trkpt><trkpt lat="42.43863284091105" lon="11.569529181943432"><ele>87.5</ele><time>2026-04-30T09:42:06.955Z</time></trkpt><trkpt lat="42.43856131766742" lon="11.569688874068063"><ele>88.0</ele><time>2026-04-30T09:42:07.955Z</time></trkpt><trkpt lat="42.438514778509976" lon="11.569858583843825"><ele>88.0</ele><time>2026-04-30T09:42:08.955Z</time></trkpt><trkpt lat="42.43847034992396" lon="11.570020597230798"><ele>88.0</ele><time>2026-04-30T09:42:09.955Z</time></trkpt><trkpt lat="42.438420188911984" lon="11.5702138216277"><ele>88.0</ele><time>2026-04-30T09:42:10.955Z</time></trkpt><trkpt lat="42.43836932237027" lon="11.570416279183302"><ele>88.0</ele><time>2026-04-30T09:42:11.955Z</time></trkpt><trkpt lat="42.43833449864244" lon="11.57063380369513"><ele>87.5</ele><time>2026-04-30T09:42:12.955Z</time></trkpt><trkpt lat="42.438275636948305" lon="11.57081860205567"><ele>87.0</ele><time>2026-04-30T09:42:13.955Z</time></trkpt><trkpt lat="42.43823988139611" lon="11.570983991073083"><ele>86.5</ele><time>2026-04-30T09:42:14.955Z</time></trkpt><trkpt lat="42.43820971943045" lon="11.571139954463229"><ele>86.0</ele><time>2026-04-30T09:42:15.955Z</time></trkpt><trkpt lat="42.43818831861036" lon="11.571275193448457"><ele>85.0</ele><time>2026-04-30T09:42:16.955Z</time></trkpt><trkpt lat="42.43816807992309" lon="11.5714128748267"><ele>84.0</ele><time>2026-04-30T09:42:17.955Z</time></trkpt><trkpt lat="42.43814928010219" lon="11.571528609143371"><ele>83.0</ele><time>2026-04-30T09:42:18.955Z</time></trkpt><trkpt lat="42.438127218675284" lon="11.571635905537727"><ele>82.0</ele><time>2026-04-30T09:42:19.955Z</time></trkpt><trkpt lat="42.43809163025543" lon="11.571749174179883"><ele>81.0</ele><time>2026-04-30T09:42:20.955Z</time></trkpt><trkpt lat="42.43804130841924" lon="11.571854282413176"><ele>81.0</ele><time>2026-04-30T09:42:21.955Z</time></trkpt><trkpt lat="42.437983675466306" lon="11.571966514629407"><ele>81.0</ele><time>2026-04-30T09:42:22.955Z</time></trkpt><trkpt lat="42.437933041969" lon="11.572080643222533"><ele>81.0</ele><time>2026-04-30T09:42:23.955Z</time></trkpt><trkpt lat="42.43788144805599" lon="11.572196936562284"><ele>81.0</ele><time>2026-04-30T09:42:24.955Z</time></trkpt><trkpt lat="42.43785038016718" lon="11.572327853044683"><ele>81.0</ele><time>2026-04-30T09:42:25.955Z</time></trkpt><trkpt lat="42.43780757421407" lon="11.57245548987131"><ele>78.6</ele><time>2026-04-30T09:42:26.955Z</time></trkpt><trkpt lat="42.43778389230249" lon="11.572590801444695"><ele>76.19999999999999</ele><time>2026-04-30T09:42:27.953Z</time></trkpt><trkpt lat="42.437769746752636" lon="11.572738907692314"><ele>73.80000000000001</ele><time>2026-04-30T09:42:28.953Z</time></trkpt><trkpt lat="42.43773433065988" lon="11.572886812773254"><ele>71.4</ele><time>2026-04-30T09:42:29.953Z</time></trkpt><trkpt lat="42.43772047845961" lon="11.573033935155078"><ele>69.0</ele><time>2026-04-30T09:42:30.953Z</time></trkpt><trkpt lat="42.43770719917823" lon="11.573185256564194"><ele>67.8</ele><time>2026-04-30T09:42:31.953Z</time></trkpt><trkpt lat="42.43769433069137" lon="11.573334165759276"><ele>66.60000000000001</ele><time>2026-04-30T09:42:32.953Z</time></trkpt><trkpt lat="42.43769084615965" lon="11.57346801430853"><ele>65.4</ele><time>2026-04-30T09:42:33.953Z</time></trkpt><trkpt lat="42.43768800453195" lon="11.573595976644144"><ele>64.2</ele><time>2026-04-30T09:42:34.953Z</time></trkpt><trkpt lat="42.437691514119045" lon="11.573722744594543"><ele>63.0</ele><time>2026-04-30T09:42:35.953Z</time></trkpt><trkpt lat="42.437669671947425" lon="11.573834995404711"><ele>63.0</ele><time>2026-04-30T09:42:36.953Z</time></trkpt><trkpt lat="42.43763255378583" lon="11.573956917530131"><ele>63.0</ele><time>2026-04-30T09:42:37.953Z</time></trkpt><trkpt lat="42.43756660508759" lon="11.574049364331577"><ele>63.0</ele><time>2026-04-30T09:42:38.953Z</time></trkpt><trkpt lat="42.43749661269247" lon="11.574135571669034"><ele>63.0</ele><time>2026-04-30T09:42:39.953Z</time></trkpt><trkpt lat="42.43743586786761" lon="11.574251431634401"><ele>63.0</ele><time>2026-04-30T09:42:40.953Z</time></trkpt><trkpt lat="42.43737951672337" lon="11.574380882757021"><ele>63.0</ele><time>2026-04-30T09:42:41.953Z</time></trkpt><trkpt lat="42.43734709979192" lon="11.574508168192965"><ele>63.0</ele><time>2026-04-30T09:42:42.953Z</time></trkpt><trkpt lat="42.43729089490914" lon="11.574593012946629"><ele>63.0</ele><time>2026-04-30T09:42:43.953Z</time></trkpt><trkpt lat="42.43725518247933" lon="11.574675002688695"><ele>63.0</ele><time>2026-04-30T09:42:44.953Z</time></trkpt><trkpt lat="42.43723374065265" lon="11.574770877672668"><ele>63.0</ele><time>2026-04-30T09:42:47.953Z</time></trkpt><trkpt lat="42.43719891980966" lon="11.574885391015265"><ele>63.0</ele><time>2026-04-30T09:42:49.953Z</time></trkpt><trkpt lat="42.43716262006104" lon="11.574998263844833"><ele>63.166666666666664</ele><time>2026-04-30T09:42:50.953Z</time></trkpt><trkpt lat="42.43713266512399" lon="11.575082825121086"><ele>63.33333333333333</ele><time>2026-04-30T09:42:51.953Z</time></trkpt><trkpt lat="42.43711897662797" lon="11.575205225585044"><ele>63.5</ele><time>2026-04-30T09:42:53.953Z</time></trkpt><trkpt lat="42.43712384585277" lon="11.575377084665947"><ele>63.666666666666664</ele><time>2026-04-30T09:42:55.953Z</time></trkpt><trkpt lat="42.43713752411843" lon="11.575468907028586"><ele>63.83333333333333</ele><time>2026-04-30T09:42:56.953Z</time></trkpt><trkpt lat="42.43715135487903" lon="11.575566838008822"><ele>64.0</ele><time>2026-04-30T09:42:57.953Z</time></trkpt><trkpt lat="42.43716513110247" lon="11.575651373966029"><ele>64.66666666666666</ele><time>2026-04-30T09:42:58.953Z</time></trkpt><trkpt lat="42.43721763646431" lon="11.575784021246223"><ele>65.33333333333333</ele><time>2026-04-30T09:43:00.953Z</time></trkpt><trkpt lat="42.43723837727687" lon="11.575875641614045"><ele>66.0</ele><time>2026-04-30T09:43:01.953Z</time></trkpt><trkpt lat="42.4372582509553" lon="11.575975365853427"><ele>66.66666666666667</ele><time>2026-04-30T09:43:02.953Z</time></trkpt><trkpt lat="42.437263418816265" lon="11.576106477951521"><ele>67.33333333333334</ele><time>2026-04-30T09:43:03.953Z</time></trkpt><trkpt lat="42.43727500748765" lon="11.5762078835377"><ele>68.0</ele><time>2026-04-30T09:43:04.953Z</time></trkpt><trkpt lat="42.43728554358256" lon="11.576324397073863"><ele>69.0</ele><time>2026-04-30T09:43:05.953Z</time></trkpt><trkpt lat="42.4372955365744" lon="11.576416597902483"><ele>70.0</ele><time>2026-04-30T09:43:06.953Z</time></trkpt><trkpt lat="42.43731580584165" lon="11.576564894299057"><ele>71.0</ele><time>2026-04-30T09:43:08.953Z</time></trkpt><trkpt lat="42.437332186257926" lon="11.576669524513793"><ele>72.0</ele><time>2026-04-30T09:43:10.953Z</time></trkpt><trkpt lat="42.437356406534185" lon="11.576768371327386"><ele>73.0</ele><time>2026-04-30T09:43:19.953Z</time></trkpt><trkpt lat="42.437403251332746" lon="11.576953630835641"><ele>73.4</ele><time>2026-04-30T09:43:21.953Z</time></trkpt><trkpt lat="42.43740838846747" lon="11.577080763052622"><ele>73.8</ele><time>2026-04-30T09:43:22.953Z</time></trkpt><trkpt lat="42.43740476332068" lon="11.577200445705744"><ele>74.2</ele><time>2026-04-30T09:43:23.953Z</time></trkpt><trkpt lat="42.4373721795705" lon="11.577327237074762"><ele>74.6</ele><time>2026-04-30T09:43:24.953Z</time></trkpt><trkpt lat="42.43735604416912" lon="11.57747131943486"><ele>75.0</ele><time>2026-04-30T09:43:25.953Z</time></trkpt><trkpt lat="42.43734026841817" lon="11.577614529381828"><ele>75.0</ele><time>2026-04-30T09:43:26.953Z</time></trkpt><trkpt lat="42.43732500161904" lon="11.577753925275744"><ele>75.0</ele><time>2026-04-30T09:43:27.953Z</time></trkpt><trkpt lat="42.43730681124685" lon="11.577906963138057"><ele>75.0</ele><time>2026-04-30T09:43:28.953Z</time></trkpt><trkpt lat="42.4372881904478" lon="11.578058009894406"><ele>75.0</ele><time>2026-04-30T09:43:29.953Z</time></trkpt><trkpt lat="42.43727464365294" lon="11.57820141213837"><ele>75.0</ele><time>2026-04-30T09:43:30.953Z</time></trkpt><trkpt lat="42.43726802763375" lon="11.578357416861476"><ele>74.8</ele><time>2026-04-30T09:43:31.953Z</time></trkpt><trkpt lat="42.43725500912485" lon="11.578478038857805"><ele>74.6</ele><time>2026-04-30T09:43:32.953Z</time></trkpt><trkpt lat="42.437247488850296" lon="11.578596434596442"><ele>74.4</ele><time>2026-04-30T09:43:33.953Z</time></trkpt><trkpt lat="42.43723609075397" lon="11.57873552999191"><ele>74.2</ele><time>2026-04-30T09:43:34.953Z</time></trkpt><trkpt lat="42.43722236484492" lon="11.578902207033146"><ele>74.0</ele><time>2026-04-30T09:43:35.953Z</time></trkpt><trkpt lat="42.43721291470013" lon="11.579073901443833"><ele>74.0</ele><time>2026-04-30T09:43:36.953Z</time></trkpt><trkpt lat="42.43719736566389" lon="11.579211285667794"><ele>74.0</ele><time>2026-04-30T09:43:37.953Z</time></trkpt><trkpt lat="42.43718947327674" lon="11.579338395865928"><ele>74.0</ele><time>2026-04-30T09:43:38.953Z</time></trkpt><trkpt lat="42.43717383582919" lon="11.579474716591053"><ele>74.0</ele><time>2026-04-30T09:43:39.953Z</time></trkpt><trkpt lat="42.437158558966665" lon="11.579627365986184"><ele>74.0</ele><time>2026-04-30T09:43:40.953Z</time></trkpt><trkpt lat="42.43714279266116" lon="11.579778638358155"><ele>74.0</ele><time>2026-04-30T09:43:41.953Z</time></trkpt><trkpt lat="42.43712951696407" lon="11.579937969696187"><ele>74.0</ele><time>2026-04-30T09:43:42.953Z</time></trkpt><trkpt lat="42.43709730340455" lon="11.580103885426372"><ele>74.0</ele><time>2026-04-30T09:43:43.953Z</time></trkpt><trkpt lat="42.437085568480605" lon="11.580273642134122"><ele>74.0</ele><time>2026-04-30T09:43:44.953Z</time></trkpt><trkpt lat="42.437074517607755" lon="11.580450733217532"><ele>74.5</ele><time>2026-04-30T09:43:45.953Z</time></trkpt><trkpt lat="42.43706350249709" lon="11.580637461158517"><ele>75.0</ele><time>2026-04-30T09:43:46.953Z</time></trkpt><trkpt lat="42.4370535337365" lon="11.580821453616599"><ele>75.5</ele><time>2026-04-30T09:43:47.953Z</time></trkpt><trkpt lat="42.4370427704375" lon="11.581004183375565"><ele>76.0</ele><time>2026-04-30T09:43:48.953Z</time></trkpt><trkpt lat="42.4370313075429" lon="11.581175571330602"><ele>76.0</ele><time>2026-04-30T09:43:49.953Z</time></trkpt><trkpt lat="42.43702090496465" lon="11.581326501548448"><ele>76.0</ele><time>2026-04-30T09:43:50.953Z</time></trkpt><trkpt lat="42.43701054717027" lon="11.581468271902526"><ele>76.0</ele><time>2026-04-30T09:43:51.953Z</time></trkpt><trkpt lat="42.43699985821088" lon="11.581623275394316"><ele>76.0</ele><time>2026-04-30T09:43:52.953Z</time></trkpt><trkpt lat="42.43699291693665" lon="11.581794172991524"><ele>76.0</ele><time>2026-04-30T09:43:53.953Z</time></trkpt><trkpt lat="42.43698645564259" lon="11.581987924981902"><ele>76.0</ele><time>2026-04-30T09:43:54.953Z</time></trkpt><trkpt lat="42.436978549587025" lon="11.582198950676009"><ele>76.0</ele><time>2026-04-30T09:43:55.953Z</time></trkpt><trkpt lat="42.43697512797827" lon="11.582407770691686"><ele>75.75</ele><time>2026-04-30T09:43:56.953Z</time></trkpt><trkpt lat="42.43696663179227" lon="11.582592390575737"><ele>75.5</ele><time>2026-04-30T09:43:57.953Z</time></trkpt><trkpt lat="42.43696674115645" lon="11.582759626298357"><ele>75.25</ele><time>2026-04-30T09:43:58.953Z</time></trkpt><trkpt lat="42.43696471686237" lon="11.58293566156526"><ele>75.0</ele><time>2026-04-30T09:43:59.953Z</time></trkpt><trkpt lat="42.43696075788246" lon="11.583115930125173"><ele>74.75</ele><time>2026-04-30T09:44:00.953Z</time></trkpt><trkpt lat="42.436957273211206" lon="11.583272388511787"><ele>74.5</ele><time>2026-04-30T09:44:01.953Z</time></trkpt><trkpt lat="42.436954895203684" lon="11.583424270588036"><ele>74.25</ele><time>2026-04-30T09:44:02.953Z</time></trkpt><trkpt lat="42.43695181215873" lon="11.58358446918724"><ele>74.0</ele><time>2026-04-30T09:44:03.953Z</time></trkpt><trkpt lat="42.43694144744464" lon="11.583735331722055"><ele>73.4</ele><time>2026-04-30T09:44:04.953Z</time></trkpt><trkpt lat="42.43692883118477" lon="11.583869880640881"><ele>72.80000000000001</ele><time>2026-04-30T09:44:05.953Z</time></trkpt><trkpt lat="42.43691914187121" lon="11.583989127222628"><ele>72.19999999999999</ele><time>2026-04-30T09:44:06.953Z</time></trkpt><trkpt lat="42.436908605235985" lon="11.584122206649434"><ele>71.6</ele><time>2026-04-30T09:44:07.953Z</time></trkpt><trkpt lat="42.436898090269885" lon="11.584279234424177"><ele>71.0</ele><time>2026-04-30T09:44:08.953Z</time></trkpt><trkpt lat="42.43686634453216" lon="11.58442544302428"><ele>70.8</ele><time>2026-04-30T09:44:09.953Z</time></trkpt><trkpt lat="42.436847735601916" lon="11.584591111142773"><ele>70.6</ele><time>2026-04-30T09:44:10.953Z</time></trkpt><trkpt lat="42.43683553779446" lon="11.58473729278493"><ele>70.4</ele><time>2026-04-30T09:44:11.953Z</time></trkpt><trkpt lat="42.436821406067054" lon="11.584876197089756"><ele>70.2</ele><time>2026-04-30T09:44:12.953Z</time></trkpt><trkpt lat="42.4368194607872" lon="11.584999481824964"><ele>70.0</ele><time>2026-04-30T09:44:13.953Z</time></trkpt><trkpt lat="42.436832208251104" lon="11.585103020619623"><ele>70.0</ele><time>2026-04-30T09:44:14.953Z</time></trkpt><trkpt lat="42.4368409755444" lon="11.5852041674969"><ele>70.0</ele><time>2026-04-30T09:44:15.953Z</time></trkpt><trkpt lat="42.43683472132463" lon="11.585396706978692"><ele>70.0</ele><time>2026-04-30T09:44:17.953Z</time></trkpt><trkpt lat="42.43681865586518" lon="11.585517029547892"><ele>70.0</ele><time>2026-04-30T09:44:18.953Z</time></trkpt><trkpt lat="42.4368309371053" lon="11.58564332921985"><ele>70.0</ele><time>2026-04-30T09:44:19.953Z</time></trkpt><trkpt lat="42.43682311429242" lon="11.585788748533776"><ele>70.25</ele><time>2026-04-30T09:44:20.953Z</time></trkpt><trkpt lat="42.43681179920014" lon="11.585955036587423"><ele>70.5</ele><time>2026-04-30T09:44:21.953Z</time></trkpt><trkpt lat="42.43680712266949" lon="11.586100969067473"><ele>70.75</ele><time>2026-04-30T09:44:22.953Z</time></trkpt><trkpt lat="42.436788441890585" lon="11.586261176684886"><ele>71.0</ele><time>2026-04-30T09:44:23.953Z</time></trkpt><trkpt lat="42.43677042525489" lon="11.586439322191772"><ele>71.0</ele><time>2026-04-30T09:44:24.953Z</time></trkpt><trkpt lat="42.43675644721706" lon="11.586636509294413"><ele>71.0</ele><time>2026-04-30T09:44:25.953Z</time></trkpt><trkpt lat="42.4367585912558" lon="11.586807171516234"><ele>71.0</ele><time>2026-04-30T09:44:26.953Z</time></trkpt><trkpt lat="42.43675833811796" lon="11.586927973992221"><ele>71.0</ele><time>2026-04-30T09:44:27.953Z</time></trkpt><trkpt lat="42.436759660946265" lon="11.587014761770977"><ele>71.0</ele><time>2026-04-30T09:44:28.953Z</time></trkpt><trkpt lat="42.43678528976584" lon="11.587109563875186"><ele>71.0</ele><time>2026-04-30T09:44:31.953Z</time></trkpt><trkpt lat="42.43680920419018" lon="11.587265148785665"><ele>71.0</ele><time>2026-04-30T09:44:33.952Z</time></trkpt><trkpt lat="42.43683677000564" lon="11.587379672660719"><ele>71.0</ele><time>2026-04-30T09:44:34.951Z</time></trkpt><trkpt lat="42.43685340826629" lon="11.587500778711197"><ele>71.0</ele><time>2026-04-30T09:44:35.951Z</time></trkpt><trkpt lat="42.43687950322293" lon="11.587628656772337"><ele>71.0</ele><time>2026-04-30T09:44:36.951Z</time></trkpt><trkpt lat="42.436915943907515" lon="11.587751148028246"><ele>71.2</ele><time>2026-04-30T09:44:37.951Z</time></trkpt><trkpt lat="42.43693235929994" lon="11.587877596626145"><ele>71.39999999999999</ele><time>2026-04-30T09:44:38.951Z</time></trkpt><trkpt lat="42.436950955661814" lon="11.588006241510747"><ele>71.6</ele><time>2026-04-30T09:44:39.951Z</time></trkpt><trkpt lat="42.4369653475833" lon="11.58815123645685"><ele>71.8</ele><time>2026-04-30T09:44:40.952Z</time></trkpt><trkpt lat="42.43694221034112" lon="11.58829801459251"><ele>72.0</ele><time>2026-04-30T09:44:41.952Z</time></trkpt><trkpt lat="42.43695612314523" lon="11.588425756981616"><ele>72.0</ele><time>2026-04-30T09:44:42.951Z</time></trkpt><trkpt lat="42.43694403085303" lon="11.588570805187674"><ele>72.0</ele><time>2026-04-30T09:44:43.951Z</time></trkpt><trkpt lat="42.436944809894165" lon="11.588700388848663"><ele>72.0</ele><time>2026-04-30T09:44:44.951Z</time></trkpt><trkpt lat="42.436953719438755" lon="11.58884118935349"><ele>72.0</ele><time>2026-04-30T09:44:45.951Z</time></trkpt><trkpt lat="42.43697028086942" lon="11.58897322028774"><ele>72.0</ele><time>2026-04-30T09:44:46.951Z</time></trkpt><trkpt lat="42.43698495068101" lon="11.589132209743106"><ele>72.6</ele><time>2026-04-30T09:44:47.951Z</time></trkpt><trkpt lat="42.4369950642896" lon="11.589290028250275"><ele>73.2</ele><time>2026-04-30T09:44:48.951Z</time></trkpt><trkpt lat="42.43699977126434" lon="11.589434820893752"><ele>73.8</ele><time>2026-04-30T09:44:49.951Z</time></trkpt><trkpt lat="42.4370080030521" lon="11.589583209693075"><ele>74.4</ele><time>2026-04-30T09:44:50.951Z</time></trkpt><trkpt lat="42.43702154679322" lon="11.589730323277282"><ele>75.0</ele><time>2026-04-30T09:44:51.951Z</time></trkpt><trkpt lat="42.43704080518825" lon="11.589890113349485"><ele>75.5</ele><time>2026-04-30T09:44:52.951Z</time></trkpt><trkpt lat="42.43703822193809" lon="11.59006553793437"><ele>76.0</ele><time>2026-04-30T09:44:53.951Z</time></trkpt><trkpt lat="42.437056900706445" lon="11.590230121959786"><ele>76.5</ele><time>2026-04-30T09:44:54.951Z</time></trkpt><trkpt lat="42.437073409152816" lon="11.590400980459162"><ele>77.0</ele><time>2026-04-30T09:44:55.951Z</time></trkpt><trkpt lat="42.437084980898966" lon="11.590566844286766"><ele>77.4</ele><time>2026-04-30T09:44:56.951Z</time></trkpt><trkpt lat="42.43708757722071" lon="11.590702274466453"><ele>77.80000000000001</ele><time>2026-04-30T09:44:57.951Z</time></trkpt><trkpt lat="42.43710189603208" lon="11.590812986166647"><ele>78.2</ele><time>2026-04-30T09:44:58.951Z</time></trkpt><trkpt lat="42.437109824398846" lon="11.590913590641188"><ele>78.60000000000001</ele><time>2026-04-30T09:44:59.951Z</time></trkpt><trkpt lat="42.437109641011574" lon="11.591010786607873"><ele>79.0</ele><time>2026-04-30T09:45:00.951Z</time></trkpt><trkpt lat="42.43696008502755" lon="11.59102361272575"><ele>79.0</ele><time>2026-04-30T09:45:04.951Z</time></trkpt><trkpt lat="42.4368974716186" lon="11.591102979256961"><ele>79.0</ele><time>2026-04-30T09:45:06.951Z</time></trkpt><trkpt lat="42.43684304811361" lon="11.591173095361787"><ele>79.0</ele><time>2026-04-30T09:45:07.951Z</time></trkpt><trkpt lat="42.4367954989375" lon="11.591238784320051"><ele>79.0</ele><time>2026-04-30T09:45:08.951Z</time></trkpt><trkpt lat="42.43674213239789" lon="11.59130456025378"><ele>79.0</ele><time>2026-04-30T09:45:09.951Z</time></trkpt><trkpt lat="42.436685970321854" lon="11.5913760032897"><ele>79.0</ele><time>2026-04-30T09:45:10.951Z</time></trkpt><trkpt lat="42.43662661582283" lon="11.591451972413637"><ele>79.2</ele><time>2026-04-30T09:45:11.951Z</time></trkpt><trkpt lat="42.43655717503512" lon="11.591533909590787"><ele>79.4</ele><time>2026-04-30T09:45:12.951Z</time></trkpt><trkpt lat="42.43648873860161" lon="11.591617751421023"><ele>79.6</ele><time>2026-04-30T09:45:13.951Z</time></trkpt><trkpt lat="42.43641770353415" lon="11.591703798823659"><ele>79.8</ele><time>2026-04-30T09:45:14.951Z</time></trkpt><trkpt lat="42.43633921483661" lon="11.591795696829196"><ele>80.0</ele><time>2026-04-30T09:45:15.951Z</time></trkpt><trkpt lat="42.43625899100513" lon="11.591895345252821"><ele>80.33333333333334</ele><time>2026-04-30T09:45:16.951Z</time></trkpt><trkpt lat="42.436189249148676" lon="11.591992988628572"><ele>80.66666666666667</ele><time>2026-04-30T09:45:17.951Z</time></trkpt><trkpt lat="42.436125243048366" lon="11.592087615000057"><ele>81.0</ele><time>2026-04-30T09:45:18.951Z</time></trkpt><trkpt lat="42.43606302852835" lon="11.592162615356035"><ele>81.33333333333333</ele><time>2026-04-30T09:45:19.951Z</time></trkpt><trkpt lat="42.43601047457831" lon="11.592232961331087"><ele>81.66666666666666</ele><time>2026-04-30T09:45:20.951Z</time></trkpt><trkpt lat="42.43596889999669" lon="11.592297207567624"><ele>82.0</ele><time>2026-04-30T09:45:21.951Z</time></trkpt><trkpt lat="42.435910653087404" lon="11.59236636959895"><ele>82.19999999999999</ele><time>2026-04-30T09:45:23.951Z</time></trkpt><trkpt lat="42.43582265028436" lon="11.592470548699879"><ele>82.4</ele><time>2026-04-30T09:45:25.951Z</time></trkpt><trkpt lat="42.43576980027497" lon="11.592550784457448"><ele>82.6</ele><time>2026-04-30T09:45:26.951Z</time></trkpt><trkpt lat="42.43570397170842" lon="11.592637092945628"><ele>82.80000000000001</ele><time>2026-04-30T09:45:27.951Z</time></trkpt><trkpt lat="42.43564565677603" lon="11.592714109215978"><ele>83.0</ele><time>2026-04-30T09:45:28.951Z</time></trkpt><trkpt lat="42.435576278502104" lon="11.592769753687332"><ele>83.0</ele><time>2026-04-30T09:45:29.951Z</time></trkpt><trkpt lat="42.435516177287866" lon="11.592882366449967"><ele>83.0</ele><time>2026-04-30T09:45:31.951Z</time></trkpt><trkpt lat="42.43545978935308" lon="11.592926590127842"><ele>83.0</ele><time>2026-04-30T09:45:34.951Z</time></trkpt><trkpt lat="42.43540327017145" lon="11.592981964525844"><ele>83.0</ele><time>2026-04-30T09:45:45.951Z</time></trkpt><trkpt lat="42.43547755622627" lon="11.592926271378024"><ele>83.0</ele><time>2026-04-30T09:45:56.951Z</time></trkpt><trkpt lat="42.43552425676106" lon="11.592835319297096"><ele>83.0</ele><time>2026-04-30T09:45:57.951Z</time></trkpt><trkpt lat="42.43557650355665" lon="11.592737280523782"><ele>83.0</ele><time>2026-04-30T09:45:58.951Z</time></trkpt><trkpt lat="42.43563378804214" lon="11.592648575258604"><ele>83.0</ele><time>2026-04-30T09:45:59.951Z</time></trkpt><trkpt lat="42.43571705779452" lon="11.592570374115994"><ele>83.0</ele><time>2026-04-30T09:46:00.951Z</time></trkpt><trkpt lat="42.435798740702175" lon="11.592467871889877"><ele>83.0</ele><time>2026-04-30T09:46:01.951Z</time></trkpt><trkpt lat="42.43586137783677" lon="11.59236190788759"><ele>83.0</ele><time>2026-04-30T09:46:02.951Z</time></trkpt><trkpt lat="42.435933109638825" lon="11.592286046985912"><ele>83.0</ele><time>2026-04-30T09:46:03.951Z</time></trkpt><trkpt lat="42.43598869923504" lon="11.592219799737679"><ele>83.0</ele><time>2026-04-30T09:46:04.951Z</time></trkpt><trkpt lat="42.43603710246308" lon="11.59214921560228"><ele>83.0</ele><time>2026-04-30T09:46:05.951Z</time></trkpt><trkpt lat="42.43608637681713" lon="11.592084973917878"><ele>83.0</ele><time>2026-04-30T09:46:06.951Z</time></trkpt><trkpt lat="42.436161479279036" lon="11.591992354895703"><ele>83.0</ele><time>2026-04-30T09:46:07.951Z</time></trkpt><trkpt lat="42.43625323978373" lon="11.591908735696048"><ele>83.0</ele><time>2026-04-30T09:46:08.951Z</time></trkpt><trkpt lat="42.436321235089345" lon="11.591787099707327"><ele>82.4</ele><time>2026-04-30T09:46:09.951Z</time></trkpt><trkpt lat="42.43640145047662" lon="11.591690467406668"><ele>81.80000000000001</ele><time>2026-04-30T09:46:10.951Z</time></trkpt><trkpt lat="42.43647972195168" lon="11.591605018857187"><ele>81.2</ele><time>2026-04-30T09:46:11.951Z</time></trkpt><trkpt lat="42.43655518067961" lon="11.591523887600799"><ele>80.6</ele><time>2026-04-30T09:46:12.951Z</time></trkpt><trkpt lat="42.43662354535341" lon="11.591448493503924"><ele>80.0</ele><time>2026-04-30T09:46:13.951Z</time></trkpt><trkpt lat="42.43668259755786" lon="11.591383077283899"><ele>80.0</ele><time>2026-04-30T09:46:14.951Z</time></trkpt><trkpt lat="42.43674479208829" lon="11.59132258939606"><ele>80.0</ele><time>2026-04-30T09:46:15.951Z</time></trkpt><trkpt lat="42.43679718506454" lon="11.591254948132297"><ele>80.0</ele><time>2026-04-30T09:46:16.951Z</time></trkpt><trkpt lat="42.436850509071334" lon="11.591195574530998"><ele>80.0</ele><time>2026-04-30T09:46:17.951Z</time></trkpt><trkpt lat="42.436900442950126" lon="11.591129622139432"><ele>80.0</ele><time>2026-04-30T09:46:18.951Z</time></trkpt><trkpt lat="42.436950514686664" lon="11.591061071568253"><ele>80.0</ele><time>2026-04-30T09:46:19.951Z</time></trkpt><trkpt lat="42.43704149990362" lon="11.591006899467798"><ele>80.0</ele><time>2026-04-30T09:46:21.951Z</time></trkpt><trkpt lat="42.43712848344496" lon="11.59104645553869"><ele>80.0</ele><time>2026-04-30T09:46:23.951Z</time></trkpt><trkpt lat="42.437156806411565" lon="11.591126273086818"><ele>80.0</ele><time>2026-04-30T09:46:25.951Z</time></trkpt><trkpt lat="42.4371291791934" lon="11.591287876581966"><ele>80.0</ele><time>2026-04-30T09:46:27.951Z</time></trkpt><trkpt lat="42.43711428346126" lon="11.591408478282762"><ele>80.0</ele><time>2026-04-30T09:46:28.951Z</time></trkpt><trkpt lat="42.43710061843575" lon="11.591524710094847"><ele>80.0</ele><time>2026-04-30T09:46:29.952Z</time></trkpt><trkpt lat="42.43706440425662" lon="11.591649603450035"><ele>80.0</ele><time>2026-04-30T09:46:30.952Z</time></trkpt><trkpt lat="42.43702950895021" lon="11.591770174623774"><ele>80.0</ele><time>2026-04-30T09:46:31.952Z</time></trkpt><trkpt lat="42.43700019131384" lon="11.591910643157112"><ele>80.0</ele><time>2026-04-30T09:46:32.952Z</time></trkpt><trkpt lat="42.43697874198325" lon="11.592051228705982"><ele>80.0</ele><time>2026-04-30T09:46:33.952Z</time></trkpt><trkpt lat="42.436964752602925" lon="11.592177586204192"><ele>80.16666666666667</ele><time>2026-04-30T09:46:34.952Z</time></trkpt><trkpt lat="42.436952772063556" lon="11.592286043074713"><ele>80.33333333333334</ele><time>2026-04-30T09:46:35.952Z</time></trkpt><trkpt lat="42.4369353625755" lon="11.592372177019762"><ele>80.5</ele><time>2026-04-30T09:46:36.952Z</time></trkpt><trkpt lat="42.43690921976831" lon="11.592467606054937"><ele>80.66666666666667</ele><time>2026-04-30T09:46:37.952Z</time></trkpt><trkpt lat="42.43687112643439" lon="11.592584973863406"><ele>80.83333333333333</ele><time>2026-04-30T09:46:38.952Z</time></trkpt><trkpt lat="42.43684205334938" lon="11.592715973446854"><ele>81.0</ele><time>2026-04-30T09:46:39.949Z</time></trkpt><trkpt lat="42.436816208414974" lon="11.592849360195013"><ele>81.8</ele><time>2026-04-30T09:46:40.949Z</time></trkpt><trkpt lat="42.43677241356193" lon="11.592967320828778"><ele>82.6</ele><time>2026-04-30T09:46:41.949Z</time></trkpt><trkpt lat="42.436736756138124" lon="11.59311710635366"><ele>83.4</ele><time>2026-04-30T09:46:42.949Z</time></trkpt><trkpt lat="42.43671349245316" lon="11.593277266363987"><ele>84.2</ele><time>2026-04-30T09:46:43.949Z</time></trkpt><trkpt lat="42.43666071337462" lon="11.59340559506442"><ele>85.0</ele><time>2026-04-30T09:46:44.949Z</time></trkpt><trkpt lat="42.43662943110184" lon="11.593538655178085"><ele>85.6</ele><time>2026-04-30T09:46:45.949Z</time></trkpt><trkpt lat="42.43659747603031" lon="11.593674577108754"><ele>86.2</ele><time>2026-04-30T09:46:46.949Z</time></trkpt><trkpt lat="42.43656381111145" lon="11.593817771915672"><ele>86.80000000000001</ele><time>2026-04-30T09:46:47.949Z</time></trkpt><trkpt lat="42.436530338641795" lon="11.593960319508188"><ele>87.4</ele><time>2026-04-30T09:46:48.949Z</time></trkpt><trkpt lat="42.4364957228273" lon="11.594108311532331"><ele>88.0</ele><time>2026-04-30T09:46:49.949Z</time></trkpt><trkpt lat="42.4364645798038" lon="11.594244752524359"><ele>88.0</ele><time>2026-04-30T09:46:50.949Z</time></trkpt><trkpt lat="42.43642642228064" lon="11.594394161489578"><ele>88.0</ele><time>2026-04-30T09:46:51.949Z</time></trkpt><trkpt lat="42.436390177602945" lon="11.594546644396939"><ele>88.0</ele><time>2026-04-30T09:46:52.949Z</time></trkpt><trkpt lat="42.43635561239053" lon="11.594695703396606"><ele>88.0</ele><time>2026-04-30T09:46:53.949Z</time></trkpt><trkpt lat="42.43632898945543" lon="11.59484366551586"><ele>88.2</ele><time>2026-04-30T09:46:54.949Z</time></trkpt><trkpt lat="42.436310455538646" lon="11.59497430644996"><ele>88.4</ele><time>2026-04-30T09:46:55.949Z</time></trkpt><trkpt lat="42.43629742453209" lon="11.595115568846753"><ele>88.60000000000001</ele><time>2026-04-30T09:46:56.949Z</time></trkpt><trkpt lat="42.436295566324056" lon="11.595255190112367"><ele>88.80000000000001</ele><time>2026-04-30T09:46:57.949Z</time></trkpt><trkpt lat="42.4362965344534" lon="11.59540614492085"><ele>89.0</ele><time>2026-04-30T09:46:58.949Z</time></trkpt><trkpt lat="42.43630018252116" lon="11.595567676747827"><ele>89.0</ele><time>2026-04-30T09:46:59.949Z</time></trkpt><trkpt lat="42.43630482205881" lon="11.595724499835661"><ele>89.0</ele><time>2026-04-30T09:47:00.949Z</time></trkpt><trkpt lat="42.4363087414205" lon="11.59587951938343"><ele>89.0</ele><time>2026-04-30T09:47:01.949Z</time></trkpt><trkpt lat="42.43631414606697" lon="11.596035085847591"><ele>89.0</ele><time>2026-04-30T09:47:02.949Z</time></trkpt><trkpt lat="42.43631001105352" lon="11.596182710155178"><ele>88.80000000000001</ele><time>2026-04-30T09:47:03.949Z</time></trkpt><trkpt lat="42.43630432145068" lon="11.596324821371427"><ele>88.60000000000001</ele><time>2026-04-30T09:47:04.949Z</time></trkpt><trkpt lat="42.43628823353817" lon="11.596467875513422"><ele>88.4</ele><time>2026-04-30T09:47:05.949Z</time></trkpt><trkpt lat="42.43627777167859" lon="11.596610389105551"><ele>88.2</ele><time>2026-04-30T09:47:06.949Z</time></trkpt><trkpt lat="42.436270579590094" lon="11.596755053131611"><ele>88.0</ele><time>2026-04-30T09:47:07.949Z</time></trkpt><trkpt lat="42.436269552706506" lon="11.596897231170004"><ele>87.16666666666666</ele><time>2026-04-30T09:47:08.949Z</time></trkpt><trkpt lat="42.43627083056203" lon="11.59702651304497"><ele>86.33333333333333</ele><time>2026-04-30T09:47:09.949Z</time></trkpt><trkpt lat="42.43627196747099" lon="11.597151203823644"><ele>85.5</ele><time>2026-04-30T09:47:10.949Z</time></trkpt><trkpt lat="42.4362758143959" lon="11.597270177880512"><ele>84.66666666666667</ele><time>2026-04-30T09:47:11.949Z</time></trkpt><trkpt lat="42.43627857090376" lon="11.597378992220746"><ele>83.83333333333334</ele><time>2026-04-30T09:47:12.949Z</time></trkpt><trkpt lat="42.436275439118134" lon="11.59749322869129"><ele>83.0</ele><time>2026-04-30T09:47:13.949Z</time></trkpt><trkpt lat="42.436273600165414" lon="11.597602062301274"><ele>83.0</ele><time>2026-04-30T09:47:14.949Z</time></trkpt><trkpt lat="42.43625523434923" lon="11.597707479573387"><ele>83.0</ele><time>2026-04-30T09:47:15.949Z</time></trkpt><trkpt lat="42.43625319506466" lon="11.597815555775373"><ele>83.0</ele><time>2026-04-30T09:47:16.949Z</time></trkpt><trkpt lat="42.43626686748937" lon="11.597920753799713"><ele>83.0</ele><time>2026-04-30T09:47:17.949Z</time></trkpt><trkpt lat="42.43625278078" lon="11.598054326148604"><ele>83.0</ele><time>2026-04-30T09:47:18.949Z</time></trkpt><trkpt lat="42.43626085625072" lon="11.598178820045504"><ele>83.0</ele><time>2026-04-30T09:47:19.949Z</time></trkpt><trkpt lat="42.436269612333824" lon="11.598305242229396"><ele>82.80000000000001</ele><time>2026-04-30T09:47:20.949Z</time></trkpt><trkpt lat="42.43627707497388" lon="11.59843405928104"><ele>82.6</ele><time>2026-04-30T09:47:21.949Z</time></trkpt><trkpt lat="42.436283915596285" lon="11.598572476353988"><ele>82.4</ele><time>2026-04-30T09:47:22.949Z</time></trkpt><trkpt lat="42.436290930361395" lon="11.598713487659527"><ele>82.19999999999999</ele><time>2026-04-30T09:47:23.949Z</time></trkpt><trkpt lat="42.43629373559014" lon="11.59883464521455"><ele>82.0</ele><time>2026-04-30T09:47:24.949Z</time></trkpt><trkpt lat="42.43629564202265" lon="11.598939965945696"><ele>82.0</ele><time>2026-04-30T09:47:25.949Z</time></trkpt><trkpt lat="42.43629469463824" lon="11.599074794274893"><ele>82.0</ele><time>2026-04-30T09:47:27.949Z</time></trkpt><trkpt lat="42.436291943017984" lon="11.599164374918436"><ele>82.0</ele><time>2026-04-30T09:47:30.949Z</time></trkpt><trkpt lat="42.43631451764483" lon="11.599296213309932"><ele>82.0</ele><time>2026-04-30T09:47:32.949Z</time></trkpt><trkpt lat="42.43629439454369" lon="11.599388110297673"><ele>82.0</ele><time>2026-04-30T09:47:34.949Z</time></trkpt><trkpt lat="42.43629881823499" lon="11.599506005381647"><ele>82.0</ele><time>2026-04-30T09:47:36.949Z</time></trkpt><trkpt lat="42.43630434483509" lon="11.599598151964603"><ele>81.66666666666666</ele><time>2026-04-30T09:47:37.949Z</time></trkpt><trkpt lat="42.43631402300985" lon="11.599711629903638"><ele>81.33333333333333</ele><time>2026-04-30T09:47:38.949Z</time></trkpt><trkpt lat="42.43632177578829" lon="11.599818405209964"><ele>81.0</ele><time>2026-04-30T09:47:39.949Z</time></trkpt><trkpt lat="42.43633459241792" lon="11.59993502638125"><ele>80.66666666666667</ele><time>2026-04-30T09:47:40.949Z</time></trkpt><trkpt lat="42.43633652059728" lon="11.600049728332628"><ele>80.33333333333334</ele><time>2026-04-30T09:47:41.949Z</time></trkpt><trkpt lat="42.43634005580489" lon="11.600170651179775"><ele>80.0</ele><time>2026-04-30T09:47:42.949Z</time></trkpt><trkpt lat="42.43634173966365" lon="11.600305474763083"><ele>80.6</ele><time>2026-04-30T09:47:43.949Z</time></trkpt><trkpt lat="42.436339249002266" lon="11.600434372665474"><ele>81.2</ele><time>2026-04-30T09:47:44.949Z</time></trkpt><trkpt lat="42.43633869389153" lon="11.600570421794107"><ele>81.80000000000001</ele><time>2026-04-30T09:47:45.949Z</time></trkpt><trkpt lat="42.43633562279472" lon="11.600711229211413"><ele>82.4</ele><time>2026-04-30T09:47:46.949Z</time></trkpt><trkpt lat="42.43633737353228" lon="11.600847561985915"><ele>83.0</ele><time>2026-04-30T09:47:47.949Z</time></trkpt><trkpt lat="42.436343354706516" lon="11.600965875684002"><ele>83.0</ele><time>2026-04-30T09:47:48.949Z</time></trkpt><trkpt lat="42.43634785022759" lon="11.601058429337726"><ele>83.0</ele><time>2026-04-30T09:47:49.949Z</time></trkpt><trkpt lat="42.43635164758828" lon="11.60115546769298"><ele>83.0</ele><time>2026-04-30T09:47:50.949Z</time></trkpt><trkpt lat="42.436343654443405" lon="11.601273435538962"><ele>83.0</ele><time>2026-04-30T09:47:51.949Z</time></trkpt><trkpt lat="42.436338495646915" lon="11.60139697128929"><ele>83.0</ele><time>2026-04-30T09:47:52.949Z</time></trkpt><trkpt lat="42.436338241594946" lon="11.601519674586918"><ele>83.0</ele><time>2026-04-30T09:47:53.949Z</time></trkpt><trkpt lat="42.43633466120546" lon="11.601646592362856"><ele>82.80000000000001</ele><time>2026-04-30T09:47:54.949Z</time></trkpt><trkpt lat="42.43633241123744" lon="11.60176965782475"><ele>82.6</ele><time>2026-04-30T09:47:55.949Z</time></trkpt><trkpt lat="42.43632352564938" lon="11.601904703206095"><ele>82.4</ele><time>2026-04-30T09:47:56.949Z</time></trkpt><trkpt lat="42.436317279789165" lon="11.602027304882657"><ele>82.19999999999999</ele><time>2026-04-30T09:47:57.949Z</time></trkpt><trkpt lat="42.43630586788923" lon="11.602157556777229"><ele>82.0</ele><time>2026-04-30T09:47:58.949Z</time></trkpt><trkpt lat="42.436296810913724" lon="11.602310232118088"><ele>80.5</ele><time>2026-04-30T09:47:59.949Z</time></trkpt><trkpt lat="42.436285868831995" lon="11.60247458366918"><ele>79.0</ele><time>2026-04-30T09:48:00.885Z</time></trkpt><trkpt lat="42.4362753281282" lon="11.60264639190864"><ele>77.5</ele><time>2026-04-30T09:48:01.885Z</time></trkpt><trkpt lat="42.4362635036913" lon="11.602812632297217"><ele>76.0</ele><time>2026-04-30T09:48:02.885Z</time></trkpt><trkpt lat="42.436254765366066" lon="11.602983698179033"><ele>75.25</ele><time>2026-04-30T09:48:03.885Z</time></trkpt><trkpt lat="42.43625376175441" lon="11.60315067830842"><ele>74.5</ele><time>2026-04-30T09:48:04.885Z</time></trkpt><trkpt lat="42.436252983538395" lon="11.603318110834937"><ele>73.75</ele><time>2026-04-30T09:48:05.885Z</time></trkpt><trkpt lat="42.436253740163174" lon="11.603487259226457"><ele>73.0</ele><time>2026-04-30T09:48:06.885Z</time></trkpt><trkpt lat="42.43625245497517" lon="11.603669508732684"><ele>72.0</ele><time>2026-04-30T09:48:07.885Z</time></trkpt><trkpt lat="42.436252901395505" lon="11.603835922377563"><ele>71.0</ele><time>2026-04-30T09:48:08.885Z</time></trkpt><trkpt lat="42.43625230704829" lon="11.603992244290357"><ele>70.0</ele><time>2026-04-30T09:48:09.885Z</time></trkpt><trkpt lat="42.43625471613191" lon="11.604142792491173"><ele>69.0</ele><time>2026-04-30T09:48:10.885Z</time></trkpt><trkpt lat="42.436259823666724" lon="11.604296643781748"><ele>69.0</ele><time>2026-04-30T09:48:11.885Z</time></trkpt><trkpt lat="42.436269508356055" lon="11.604463906855454"><ele>69.0</ele><time>2026-04-30T09:48:12.885Z</time></trkpt><trkpt lat="42.436286816522326" lon="11.604611465310468"><ele>69.0</ele><time>2026-04-30T09:48:13.885Z</time></trkpt><trkpt lat="42.43630426774171" lon="11.604743595897961"><ele>69.0</ele><time>2026-04-30T09:48:14.885Z</time></trkpt><trkpt lat="42.436300917080715" lon="11.604859151101417"><ele>69.0</ele><time>2026-04-30T09:48:15.885Z</time></trkpt><trkpt lat="42.43630528610291" lon="11.604999127909476"><ele>69.0</ele><time>2026-04-30T09:48:16.885Z</time></trkpt><trkpt lat="42.43630572852831" lon="11.605160974279803"><ele>69.0</ele><time>2026-04-30T09:48:17.885Z</time></trkpt><trkpt lat="42.43630107444861" lon="11.605353882837033"><ele>69.0</ele><time>2026-04-30T09:48:18.885Z</time></trkpt><trkpt lat="42.43630114012502" lon="11.605539312728258"><ele>69.0</ele><time>2026-04-30T09:48:19.885Z</time></trkpt><trkpt lat="42.436300588835024" lon="11.605703036323025"><ele>69.33333333333333</ele><time>2026-04-30T09:48:20.885Z</time></trkpt><trkpt lat="42.43629795365503" lon="11.605828698402798"><ele>69.66666666666667</ele><time>2026-04-30T09:48:21.885Z</time></trkpt><trkpt lat="42.43630557556811" lon="11.605937591079371"><ele>70.0</ele><time>2026-04-30T09:48:22.885Z</time></trkpt><trkpt lat="42.43631089490402" lon="11.606040244596452"><ele>70.33333333333334</ele><time>2026-04-30T09:48:23.885Z</time></trkpt><trkpt lat="42.436313047996585" lon="11.606148647095633"><ele>70.66666666666667</ele><time>2026-04-30T09:48:24.885Z</time></trkpt><trkpt lat="42.43630822448926" lon="11.606262235505023"><ele>71.0</ele><time>2026-04-30T09:48:25.885Z</time></trkpt><trkpt lat="42.43629515537147" lon="11.606373118516697"><ele>71.39999999999999</ele><time>2026-04-30T09:48:26.885Z</time></trkpt><trkpt lat="42.436282555213545" lon="11.606506293811949"><ele>71.8</ele><time>2026-04-30T09:48:27.885Z</time></trkpt><trkpt lat="42.436297091622386" lon="11.606617169110983"><ele>72.19999999999999</ele><time>2026-04-30T09:48:28.885Z</time></trkpt><trkpt lat="42.43630066666" lon="11.6067153449479"><ele>72.6</ele><time>2026-04-30T09:48:29.885Z</time></trkpt><trkpt lat="42.4363063506896" lon="11.606803503395415"><ele>73.0</ele><time>2026-04-30T09:48:30.885Z</time></trkpt><trkpt lat="42.43631245957593" lon="11.606985598377875"><ele>74.25</ele><time>2026-04-30T09:48:32.885Z</time></trkpt><trkpt lat="42.436311503147785" lon="11.607112611964846"><ele>75.5</ele><time>2026-04-30T09:48:33.885Z</time></trkpt><trkpt lat="42.436311071568674" lon="11.607258699414164"><ele>76.75</ele><time>2026-04-30T09:48:34.885Z</time></trkpt><trkpt lat="42.43631309307717" lon="11.607428805915498"><ele>78.0</ele><time>2026-04-30T09:48:35.885Z</time></trkpt><trkpt lat="42.436315562201536" lon="11.607594910686263"><ele>78.0</ele><time>2026-04-30T09:48:36.885Z</time></trkpt><trkpt lat="42.436316657637164" lon="11.607751823284026"><ele>78.0</ele><time>2026-04-30T09:48:37.885Z</time></trkpt><trkpt lat="42.4363227670442" lon="11.607924824097912"><ele>78.0</ele><time>2026-04-30T09:48:38.885Z</time></trkpt><trkpt lat="42.43633353822442" lon="11.608106009617556"><ele>78.0</ele><time>2026-04-30T09:48:39.885Z</time></trkpt><trkpt lat="42.43633076266315" lon="11.608253765916658"><ele>78.16666666666667</ele><time>2026-04-30T09:48:40.885Z</time></trkpt><trkpt lat="42.43631996672595" lon="11.608359074567474"><ele>78.33333333333333</ele><time>2026-04-30T09:48:41.885Z</time></trkpt><trkpt lat="42.436319871330646" lon="11.608470821463635"><ele>78.5</ele><time>2026-04-30T09:48:42.885Z</time></trkpt><trkpt lat="42.43632605491785" lon="11.608587189101522"><ele>78.66666666666666</ele><time>2026-04-30T09:48:43.885Z</time></trkpt><trkpt lat="42.436347338407806" lon="11.608701684230676"><ele>78.83333333333333</ele><time>2026-04-30T09:48:44.885Z</time></trkpt><trkpt lat="42.43636357991199" lon="11.608817127262578"><ele>79.0</ele><time>2026-04-30T09:48:45.881Z</time></trkpt><trkpt lat="42.43635583468391" lon="11.608931282984955"><ele>79.00000000000001</ele><time>2026-04-30T09:48:46.881Z</time></trkpt><trkpt lat="42.43635881006727" lon="11.609042232785587"><ele>79.0</ele><time>2026-04-30T09:48:47.881Z</time></trkpt><trkpt lat="42.43636136079106" lon="11.609137347565081"><ele>79.0</ele><time>2026-04-30T09:48:48.882Z</time></trkpt><trkpt lat="42.43636375888098" lon="11.609226770727645"><ele>79.0</ele><time>2026-04-30T09:48:49.882Z</time></trkpt><trkpt lat="42.43636631340511" lon="11.60932148944006"><ele>79.0</ele><time>2026-04-30T09:48:50.882Z</time></trkpt><trkpt lat="42.43638449577442" lon="11.609414182898087"><ele>79.00000000000001</ele><time>2026-04-30T09:48:51.882Z</time></trkpt><trkpt lat="42.43637112567437" lon="11.60951630133616"><ele>79.0</ele><time>2026-04-30T09:48:52.882Z</time></trkpt><trkpt lat="42.43637656336395" lon="11.609603799387772"><ele>79.5</ele><time>2026-04-30T09:48:53.882Z</time></trkpt><trkpt lat="42.436383387091816" lon="11.60974766589586"><ele>80.0</ele><time>2026-04-30T09:48:55.882Z</time></trkpt><trkpt lat="42.43638837916522" lon="11.609855713037739"><ele>80.5</ele><time>2026-04-30T09:48:57.881Z</time></trkpt><trkpt lat="42.43638952556597" lon="11.609941973779323"><ele>81.0</ele><time>2026-04-30T09:49:09.881Z</time></trkpt><trkpt lat="42.43640826036605" lon="11.610028054468618"><ele>81.5</ele><time>2026-04-30T09:49:36.881Z</time></trkpt><trkpt lat="42.43641148664066" lon="11.610115860703388"><ele>82.0</ele><time>2026-04-30T09:49:38.881Z</time></trkpt><trkpt lat="42.436414662085134" lon="11.61023855026971"><ele>83.0</ele><time>2026-04-30T09:49:40.881Z</time></trkpt><trkpt lat="42.43641921651209" lon="11.610396027162336"><ele>84.0</ele><time>2026-04-30T09:49:42.881Z</time></trkpt><trkpt lat="42.43642185109429" lon="11.610496824599391"><ele>85.0</ele><time>2026-04-30T09:49:43.881Z</time></trkpt><trkpt lat="42.436403093176764" lon="11.61061471431021"><ele>86.0</ele><time>2026-04-30T09:49:44.881Z</time></trkpt><trkpt lat="42.43643264068885" lon="11.610715641928318"><ele>87.0</ele><time>2026-04-30T09:49:45.881Z</time></trkpt><trkpt lat="42.43643243640838" lon="11.610841109615345"><ele>87.0</ele><time>2026-04-30T09:49:46.881Z</time></trkpt><trkpt lat="42.43642822337268" lon="11.610976087317336"><ele>87.0</ele><time>2026-04-30T09:49:47.881Z</time></trkpt><trkpt lat="42.436410090512894" lon="11.61110113801032"><ele>87.0</ele><time>2026-04-30T09:49:48.881Z</time></trkpt><trkpt lat="42.43640457845348" lon="11.611213954072443"><ele>87.0</ele><time>2026-04-30T09:49:49.881Z</time></trkpt><trkpt lat="42.43640596406805" lon="11.61130764262582"><ele>87.0</ele><time>2026-04-30T09:49:50.881Z</time></trkpt><trkpt lat="42.436401196231785" lon="11.611487595250233"><ele>87.16666666666667</ele><time>2026-04-30T09:49:52.881Z</time></trkpt><trkpt lat="42.43640840148684" lon="11.611601088092645"><ele>87.33333333333333</ele><time>2026-04-30T09:49:53.881Z</time></trkpt><trkpt lat="42.43640777212935" lon="11.611718561449901"><ele>87.5</ele><time>2026-04-30T09:49:54.881Z</time></trkpt><trkpt lat="42.4363968673272" lon="11.611841831087895"><ele>87.66666666666666</ele><time>2026-04-30T09:49:55.881Z</time></trkpt><trkpt lat="42.4363894139602" lon="11.61194688122318"><ele>87.83333333333333</ele><time>2026-04-30T09:49:56.881Z</time></trkpt><trkpt lat="42.43638565789164" lon="11.612034509011222"><ele>88.0</ele><time>2026-04-30T09:49:57.881Z</time></trkpt><trkpt lat="42.43638333635845" lon="11.612187577469975"><ele>88.0</ele><time>2026-04-30T09:49:59.881Z</time></trkpt><trkpt lat="42.43638323397822" lon="11.612354923338097"><ele>88.0</ele><time>2026-04-30T09:50:01.881Z</time></trkpt><trkpt lat="42.43637209513926" lon="11.612523460419629"><ele>88.0</ele><time>2026-04-30T09:50:03.881Z</time></trkpt><trkpt lat="42.436343737648585" lon="11.612636166691995"><ele>88.0</ele><time>2026-04-30T09:50:05.881Z</time></trkpt><trkpt lat="42.43637149219085" lon="11.612719968574556"><ele>88.0</ele><time>2026-04-30T09:50:15.881Z</time></trkpt><trkpt lat="42.436446385489525" lon="11.61269390361873"><ele>88.0</ele><time>2026-04-30T09:50:17.881Z</time></trkpt><trkpt lat="42.43651197988989" lon="11.612632763498901"><ele>88.0</ele><time>2026-04-30T09:50:18.881Z</time></trkpt><trkpt lat="42.43660570401928" lon="11.612547611304935"><ele>88.0</ele><time>2026-04-30T09:50:19.881Z</time></trkpt><trkpt lat="42.43670761741292" lon="11.612475707338465"><ele>88.0</ele><time>2026-04-30T09:50:20.881Z</time></trkpt><trkpt lat="42.43680669391327" lon="11.612409480172463"><ele>88.0</ele><time>2026-04-30T09:50:21.881Z</time></trkpt><trkpt lat="42.43691024768816" lon="11.612330421797607"><ele>88.0</ele><time>2026-04-30T09:50:22.881Z</time></trkpt><trkpt lat="42.4370111647272" lon="11.612252234960334"><ele>88.0</ele><time>2026-04-30T09:50:23.881Z</time></trkpt><trkpt lat="42.43711268768558" lon="11.612167276940193"><ele>88.0</ele><time>2026-04-30T09:50:24.881Z</time></trkpt><trkpt lat="42.43720875868766" lon="11.61208317813318"><ele>88.0</ele><time>2026-04-30T09:50:25.881Z</time></trkpt><trkpt lat="42.43730686759976" lon="11.612005436713616"><ele>88.60000000000001</ele><time>2026-04-30T09:50:26.881Z</time></trkpt><trkpt lat="42.437403985481126" lon="11.611931656031958"><ele>89.2</ele><time>2026-04-30T09:50:27.881Z</time></trkpt><trkpt lat="42.4374966306309" lon="11.611861486833968"><ele>89.8</ele><time>2026-04-30T09:50:28.881Z</time></trkpt><trkpt lat="42.43758981367124" lon="11.611789731172728"><ele>90.4</ele><time>2026-04-30T09:50:29.881Z</time></trkpt><trkpt lat="42.437684504665896" lon="11.611718939519909"><ele>91.0</ele><time>2026-04-30T09:50:30.881Z</time></trkpt><trkpt lat="42.43778586214092" lon="11.611644600889777"><ele>91.0</ele><time>2026-04-30T09:50:31.881Z</time></trkpt><trkpt lat="42.437883663404975" lon="11.611563772608163"><ele>91.0</ele><time>2026-04-30T09:50:32.881Z</time></trkpt><trkpt lat="42.43799010101233" lon="11.611479137618051"><ele>91.0</ele><time>2026-04-30T09:50:33.881Z</time></trkpt><trkpt lat="42.4381041428845" lon="11.611389238147895"><ele>91.0</ele><time>2026-04-30T09:50:34.881Z</time></trkpt><trkpt lat="42.43822635340616" lon="11.611295811295028"><ele>91.0</ele><time>2026-04-30T09:50:35.881Z</time></trkpt><trkpt lat="42.43833976158088" lon="11.611210717684873"><ele>91.0</ele><time>2026-04-30T09:50:36.881Z</time></trkpt><trkpt lat="42.43844769098146" lon="11.611118896350133"><ele>91.0</ele><time>2026-04-30T09:50:37.88Z</time></trkpt><trkpt lat="42.4385586848797" lon="11.6110296497709"><ele>91.0</ele><time>2026-04-30T09:50:38.88Z</time></trkpt><trkpt lat="42.4386674885341" lon="11.610936246220781"><ele>91.0</ele><time>2026-04-30T09:50:39.88Z</time></trkpt><trkpt lat="42.43877825292239" lon="11.610838028411338"><ele>91.0</ele><time>2026-04-30T09:50:40.88Z</time></trkpt><trkpt lat="42.43889127408699" lon="11.610735598406992"><ele>91.0</ele><time>2026-04-30T09:50:41.88Z</time></trkpt><trkpt lat="42.43900816854719" lon="11.610626177019205"><ele>91.0</ele><time>2026-04-30T09:50:42.88Z</time></trkpt><trkpt lat="42.43912605407981" lon="11.610513940060379"><ele>90.5</ele><time>2026-04-30T09:50:43.88Z</time></trkpt><trkpt lat="42.43924849615594" lon="11.610397243950604"><ele>90.0</ele><time>2026-04-30T09:50:44.88Z</time></trkpt><trkpt lat="42.439365078774635" lon="11.610285295342146"><ele>89.5</ele><time>2026-04-30T09:50:45.88Z</time></trkpt><trkpt lat="42.439487144263964" lon="11.610170432984772"><ele>89.0</ele><time>2026-04-30T09:50:46.88Z</time></trkpt><trkpt lat="42.43960565581035" lon="11.610054106725284"><ele>89.5</ele><time>2026-04-30T09:50:47.88Z</time></trkpt><trkpt lat="42.43972472503392" lon="11.609941220735223"><ele>90.0</ele><time>2026-04-30T09:50:48.88Z</time></trkpt><trkpt lat="42.43984362915308" lon="11.609831316297633"><ele>90.5</ele><time>2026-04-30T09:50:49.88Z</time></trkpt><trkpt lat="42.43995988624863" lon="11.609724558020428"><ele>91.0</ele><time>2026-04-30T09:50:50.88Z</time></trkpt><trkpt lat="42.440080153612" lon="11.60961622399529"><ele>91.0</ele><time>2026-04-30T09:50:51.877Z</time></trkpt><trkpt lat="42.440197215114885" lon="11.609508018991313"><ele>91.0</ele><time>2026-04-30T09:50:52.877Z</time></trkpt><trkpt lat="42.440318574694395" lon="11.60939712101508"><ele>91.0</ele><time>2026-04-30T09:50:53.877Z</time></trkpt><trkpt lat="42.440433876362775" lon="11.609287061337277"><ele>91.0</ele><time>2026-04-30T09:50:54.877Z</time></trkpt><trkpt lat="42.440547742036685" lon="11.609178203480173"><ele>90.0</ele><time>2026-04-30T09:50:55.877Z</time></trkpt><trkpt lat="42.44066269180146" lon="11.609064221533451"><ele>89.0</ele><time>2026-04-30T09:50:56.877Z</time></trkpt><trkpt lat="42.44078104104061" lon="11.608952323983369"><ele>88.0</ele><time>2026-04-30T09:50:57.877Z</time></trkpt><trkpt lat="42.44088816071066" lon="11.608846905807194"><ele>87.0</ele><time>2026-04-30T09:50:58.877Z</time></trkpt><trkpt lat="42.44098830413029" lon="11.608756465673402"><ele>87.0</ele><time>2026-04-30T09:50:59.877Z</time></trkpt><trkpt lat="42.44108976276167" lon="11.608663639380568"><ele>87.0</ele><time>2026-04-30T09:51:00.876Z</time></trkpt><trkpt lat="42.44119727428924" lon="11.60856313232014"><ele>87.0</ele><time>2026-04-30T09:51:01.876Z</time></trkpt><trkpt lat="42.44130803832685" lon="11.608460236528762"><ele>87.0</ele><time>2026-04-30T09:51:02.876Z</time></trkpt><trkpt lat="42.44142514114774" lon="11.608356701029292"><ele>86.33333333333333</ele><time>2026-04-30T09:51:03.876Z</time></trkpt><trkpt lat="42.44154435171087" lon="11.608249016611751"><ele>85.66666666666666</ele><time>2026-04-30T09:51:04.877Z</time></trkpt><trkpt lat="42.44167124973775" lon="11.608133070923204"><ele>85.0</ele><time>2026-04-30T09:51:05.877Z</time></trkpt><trkpt lat="42.4417996011858" lon="11.60801175389645"><ele>85.0</ele><time>2026-04-30T09:51:06.877Z</time></trkpt><trkpt lat="42.44192135613737" lon="11.607892943014532"><ele>85.0</ele><time>2026-04-30T09:51:07.877Z</time></trkpt><trkpt lat="42.44203180363062" lon="11.607775052635125"><ele>85.0</ele><time>2026-04-30T09:51:08.877Z</time></trkpt><trkpt lat="42.44214256587577" lon="11.60766455092888"><ele>85.0</ele><time>2026-04-30T09:51:09.877Z</time></trkpt><trkpt lat="42.44225410137834" lon="11.607562731054738"><ele>85.25</ele><time>2026-04-30T09:51:10.877Z</time></trkpt><trkpt lat="42.442371944876314" lon="11.607475089688295"><ele>85.5</ele><time>2026-04-30T09:51:11.877Z</time></trkpt><trkpt lat="42.44249443281145" lon="11.607383929566133"><ele>85.75</ele><time>2026-04-30T09:51:12.877Z</time></trkpt><trkpt lat="42.44262745480383" lon="11.607293294244085"><ele>86.0</ele><time>2026-04-30T09:51:13.877Z</time></trkpt><trkpt lat="42.442764304677475" lon="11.607200657978131"><ele>86.0</ele><time>2026-04-30T09:51:14.877Z</time></trkpt><trkpt lat="42.44290922064803" lon="11.607111057796104"><ele>86.0</ele><time>2026-04-30T09:51:15.877Z</time></trkpt><trkpt lat="42.44304995563672" lon="11.607015014614019"><ele>86.0</ele><time>2026-04-30T09:51:16.877Z</time></trkpt><trkpt lat="42.443190897198285" lon="11.606919436974312"><ele>85.66666666666667</ele><time>2026-04-30T09:51:17.877Z</time></trkpt><trkpt lat="42.443337492990075" lon="11.606825465262103"><ele>85.33333333333333</ele><time>2026-04-30T09:51:18.877Z</time></trkpt><trkpt lat="42.44347933624042" lon="11.60673051237962"><ele>85.0</ele><time>2026-04-30T09:51:19.877Z</time></trkpt><trkpt lat="42.44361958471034" lon="11.60663222077712"><ele>85.0</ele><time>2026-04-30T09:51:20.877Z</time></trkpt><trkpt lat="42.443753791173506" lon="11.6065442360617"><ele>85.0</ele><time>2026-04-30T09:51:21.877Z</time></trkpt><trkpt lat="42.443886341703376" lon="11.606454239402149"><ele>85.0</ele><time>2026-04-30T09:51:22.877Z</time></trkpt><trkpt lat="42.44401615545637" lon="11.606369243305963"><ele>85.0</ele><time>2026-04-30T09:51:23.877Z</time></trkpt><trkpt lat="42.44414671580471" lon="11.606278863792049"><ele>86.0</ele><time>2026-04-30T09:51:24.877Z</time></trkpt><trkpt lat="42.444271770907456" lon="11.606194105455543"><ele>87.0</ele><time>2026-04-30T09:51:25.877Z</time></trkpt><trkpt lat="42.444403924108514" lon="11.606106736696722"><ele>88.0</ele><time>2026-04-30T09:51:26.877Z</time></trkpt><trkpt lat="42.44455251106136" lon="11.606009377770881"><ele>89.33333333333333</ele><time>2026-04-30T09:51:27.877Z</time></trkpt><trkpt lat="42.44469708868949" lon="11.605912228510118"><ele>90.66666666666667</ele><time>2026-04-30T09:51:28.877Z</time></trkpt><trkpt lat="42.44485226547977" lon="11.605808283683164"><ele>92.0</ele><time>2026-04-30T09:51:29.877Z</time></trkpt><trkpt lat="42.44501863092895" lon="11.605694254139477"><ele>92.0</ele><time>2026-04-30T09:51:30.877Z</time></trkpt><trkpt lat="42.44518051822319" lon="11.605573124221086"><ele>92.0</ele><time>2026-04-30T09:51:31.877Z</time></trkpt><trkpt lat="42.44533416642649" lon="11.605469562032766"><ele>92.0</ele><time>2026-04-30T09:51:32.877Z</time></trkpt><trkpt lat="42.44548118159932" lon="11.60536746540952"><ele>92.66666666666667</ele><time>2026-04-30T09:51:33.877Z</time></trkpt><trkpt lat="42.44562392455517" lon="11.60526986643435"><ele>93.33333333333333</ele><time>2026-04-30T09:51:34.877Z</time></trkpt><trkpt lat="42.44576353638771" lon="11.60518276339079"><ele>94.0</ele><time>2026-04-30T09:51:35.877Z</time></trkpt><trkpt lat="42.44590108963499" lon="11.605095431758174"><ele>94.0</ele><time>2026-04-30T09:51:36.876Z</time></trkpt><trkpt lat="42.44602912028656" lon="11.605012837617881"><ele>94.0</ele><time>2026-04-30T09:51:37.876Z</time></trkpt><trkpt lat="42.446131717271435" lon="11.604946475795117"><ele>94.0</ele><time>2026-04-30T09:51:38.876Z</time></trkpt><trkpt lat="42.44622821322679" lon="11.604883880148652"><ele>94.0</ele><time>2026-04-30T09:51:39.876Z</time></trkpt><trkpt lat="42.44630934816061" lon="11.604828895403083"><ele>94.83333333333333</ele><time>2026-04-30T09:51:40.876Z</time></trkpt><trkpt lat="42.44638314383671" lon="11.604777194051307"><ele>95.66666666666666</ele><time>2026-04-30T09:51:41.876Z</time></trkpt><trkpt lat="42.4464552858441" lon="11.6047277584784"><ele>96.5</ele><time>2026-04-30T09:51:42.876Z</time></trkpt><trkpt lat="42.44652674438796" lon="11.604691337149097"><ele>97.33333333333333</ele><time>2026-04-30T09:51:43.876Z</time></trkpt><trkpt lat="42.44660846488672" lon="11.60466790657608"><ele>98.16666666666667</ele><time>2026-04-30T09:51:44.876Z</time></trkpt><trkpt lat="42.44670269099597" lon="11.604644811961526"><ele>99.0</ele><time>2026-04-30T09:51:45.876Z</time></trkpt><trkpt lat="42.4468203652387" lon="11.60461474766359"><ele>99.0</ele><time>2026-04-30T09:51:46.876Z</time></trkpt><trkpt lat="42.44693133747128" lon="11.60456736918503"><ele>99.0</ele><time>2026-04-30T09:51:47.876Z</time></trkpt><trkpt lat="42.4470491313938" lon="11.604527186509456"><ele>99.0</ele><time>2026-04-30T09:51:48.876Z</time></trkpt><trkpt lat="42.447170100159695" lon="11.604492342542512"><ele>99.0</ele><time>2026-04-30T09:51:49.876Z</time></trkpt><trkpt lat="42.447286371408794" lon="11.604451707192675"><ele>97.75</ele><time>2026-04-30T09:51:50.876Z</time></trkpt><trkpt lat="42.44739909556535" lon="11.604407422106673"><ele>96.5</ele><time>2026-04-30T09:51:51.876Z</time></trkpt><trkpt lat="42.447519213386514" lon="11.604370150607725"><ele>95.25</ele><time>2026-04-30T09:51:52.876Z</time></trkpt><trkpt lat="42.447635570742726" lon="11.604325457828208"><ele>94.0</ele><time>2026-04-30T09:51:53.876Z</time></trkpt><trkpt lat="42.44774582762522" lon="11.604273276177937"><ele>94.0</ele><time>2026-04-30T09:51:54.876Z</time></trkpt><trkpt lat="42.447861079482486" lon="11.60423314540883"><ele>94.0</ele><time>2026-04-30T09:51:55.876Z</time></trkpt><trkpt lat="42.44798706644827" lon="11.604192772248767"><ele>94.0</ele><time>2026-04-30T09:51:56.876Z</time></trkpt><trkpt lat="42.44812008324752" lon="11.604155278343818"><ele>94.0</ele><time>2026-04-30T09:51:57.876Z</time></trkpt><trkpt lat="42.44824837278739" lon="11.604110169603137"><ele>93.0</ele><time>2026-04-30T09:51:58.876Z</time></trkpt><trkpt lat="42.44837315076045" lon="11.604059196310988"><ele>92.0</ele><time>2026-04-30T09:51:59.876Z</time></trkpt><trkpt lat="42.44848637765237" lon="11.604006604773026"><ele>91.0</ele><time>2026-04-30T09:52:00.876Z</time></trkpt><trkpt lat="42.448621149855875" lon="11.603974790945562"><ele>90.0</ele><time>2026-04-30T09:52:01.876Z</time></trkpt><trkpt lat="42.448749880980735" lon="11.603927354221033"><ele>89.2</ele><time>2026-04-30T09:52:02.876Z</time></trkpt><trkpt lat="42.44886876179015" lon="11.60388628488035"><ele>88.4</ele><time>2026-04-30T09:52:03.876Z</time></trkpt><trkpt lat="42.44897470248859" lon="11.603846071008457"><ele>87.6</ele><time>2026-04-30T09:52:04.876Z</time></trkpt><trkpt lat="42.44906766147856" lon="11.60380810349767"><ele>86.8</ele><time>2026-04-30T09:52:05.876Z</time></trkpt><trkpt lat="42.44915371193329" lon="11.603811487681098"><ele>86.0</ele><time>2026-04-30T09:52:06.876Z</time></trkpt><trkpt lat="42.44922987350882" lon="11.603825111089584"><ele>86.0</ele><time>2026-04-30T09:52:07.876Z</time></trkpt><trkpt lat="42.449299098397226" lon="11.60388159522449"><ele>86.0</ele><time>2026-04-30T09:52:08.876Z</time></trkpt><trkpt lat="42.44936014648093" lon="11.603953358806203"><ele>86.0</ele><time>2026-04-30T09:52:09.876Z</time></trkpt><trkpt lat="42.44942792368246" lon="11.604038706228815"><ele>86.0</ele><time>2026-04-30T09:52:10.876Z</time></trkpt><trkpt lat="42.44952369547412" lon="11.604124395362074"><ele>86.0</ele><time>2026-04-30T09:52:11.876Z</time></trkpt><trkpt lat="42.449617751621986" lon="11.604266211633629"><ele>86.33333333333334</ele><time>2026-04-30T09:52:12.876Z</time></trkpt><trkpt lat="42.44973580495921" lon="11.604392917429465"><ele>86.66666666666667</ele><time>2026-04-30T09:52:13.876Z</time></trkpt><trkpt lat="42.449864623572715" lon="11.604516708574234"><ele>87.0</ele><time>2026-04-30T09:52:14.876Z</time></trkpt><trkpt lat="42.44998247215858" lon="11.604625719817367"><ele>86.25</ele><time>2026-04-30T09:52:15.876Z</time></trkpt><trkpt lat="42.450088060626385" lon="11.604744954009881"><ele>85.5</ele><time>2026-04-30T09:52:16.876Z</time></trkpt><trkpt lat="42.45018752914144" lon="11.604842457962556"><ele>84.75</ele><time>2026-04-30T09:52:17.876Z</time></trkpt><trkpt lat="42.45026015825803" lon="11.604958186787306"><ele>84.0</ele><time>2026-04-30T09:52:18.876Z</time></trkpt><trkpt lat="42.450317114707296" lon="11.605078648407785"><ele>84.0</ele><time>2026-04-30T09:52:19.876Z</time></trkpt><trkpt lat="42.45036548776596" lon="11.605216715062351"><ele>84.0</ele><time>2026-04-30T09:52:20.876Z</time></trkpt><trkpt lat="42.450411598331314" lon="11.605354970523928"><ele>84.0</ele><time>2026-04-30T09:52:21.876Z</time></trkpt><trkpt lat="42.45046577836616" lon="11.605530561615794"><ele>84.0</ele><time>2026-04-30T09:52:22.876Z</time></trkpt><trkpt lat="42.45052263482024" lon="11.605718371308951"><ele>84.0</ele><time>2026-04-30T09:52:23.876Z</time></trkpt><trkpt lat="42.45059607003024" lon="11.605914681871651"><ele>84.0</ele><time>2026-04-30T09:52:24.876Z</time></trkpt><trkpt lat="42.45063209771172" lon="11.60611653874328"><ele>84.0</ele><time>2026-04-30T09:52:25.876Z</time></trkpt><trkpt lat="42.4506902889132" lon="11.606306358820142"><ele>83.5</ele><time>2026-04-30T09:52:26.876Z</time></trkpt><trkpt lat="42.45074353671557" lon="11.606482963883364"><ele>83.0</ele><time>2026-04-30T09:52:27.876Z</time></trkpt><trkpt lat="42.450798358813735" lon="11.606678372466153"><ele>82.5</ele><time>2026-04-30T09:52:28.876Z</time></trkpt><trkpt lat="42.450851660493925" lon="11.60687401511821"><ele>82.0</ele><time>2026-04-30T09:52:29.876Z</time></trkpt><trkpt lat="42.450903151833664" lon="11.607062597982702"><ele>81.5</ele><time>2026-04-30T09:52:30.876Z</time></trkpt><trkpt lat="42.450952031643965" lon="11.607247161506354"><ele>81.0</ele><time>2026-04-30T09:52:31.876Z</time></trkpt><trkpt lat="42.45099619038493" lon="11.607409507220547"><ele>80.5</ele><time>2026-04-30T09:52:32.876Z</time></trkpt><trkpt lat="42.45101708942496" lon="11.60757104229203"><ele>80.0</ele><time>2026-04-30T09:52:33.876Z</time></trkpt><trkpt lat="42.45105156898377" lon="11.607727059291362"><ele>80.2</ele><time>2026-04-30T09:52:34.876Z</time></trkpt><trkpt lat="42.45109159441845" lon="11.607881347482952"><ele>80.4</ele><time>2026-04-30T09:52:35.876Z</time></trkpt><trkpt lat="42.451136783618246" lon="11.608006164800324"><ele>80.6</ele><time>2026-04-30T09:52:36.876Z</time></trkpt><trkpt lat="42.45117911672598" lon="11.608138312566158"><ele>80.8</ele><time>2026-04-30T09:52:37.876Z</time></trkpt><trkpt lat="42.451244103652876" lon="11.608257512034482"><ele>81.0</ele><time>2026-04-30T09:52:38.876Z</time></trkpt><trkpt lat="42.45131357017113" lon="11.608377861011078"><ele>81.0</ele><time>2026-04-30T09:52:39.876Z</time></trkpt><trkpt lat="42.4513849124621" lon="11.608517480420685"><ele>81.0</ele><time>2026-04-30T09:52:40.876Z</time></trkpt><trkpt lat="42.451467812574755" lon="11.60866473840834"><ele>81.0</ele><time>2026-04-30T09:52:41.876Z</time></trkpt><trkpt lat="42.45153497408935" lon="11.608835555434922"><ele>81.0</ele><time>2026-04-30T09:52:42.876Z</time></trkpt><trkpt lat="42.451613054429146" lon="11.609005704224215"><ele>79.33333333333333</ele><time>2026-04-30T09:52:43.876Z</time></trkpt><trkpt lat="42.45171390440652" lon="11.60917527651977"><ele>77.66666666666666</ele><time>2026-04-30T09:52:44.876Z</time></trkpt><trkpt lat="42.45179541541691" lon="11.609349375191224"><ele>76.0</ele><time>2026-04-30T09:52:45.876Z</time></trkpt><trkpt lat="42.45187953664371" lon="11.609502976072275"><ele>75.5</ele><time>2026-04-30T09:52:46.876Z</time></trkpt><trkpt lat="42.45197027544935" lon="11.609626686556384"><ele>75.0</ele><time>2026-04-30T09:52:47.876Z</time></trkpt><trkpt lat="42.452062040539765" lon="11.609723238122248"><ele>74.5</ele><time>2026-04-30T09:52:48.876Z</time></trkpt><trkpt lat="42.45216726119427" lon="11.609777656411959"><ele>74.0</ele><time>2026-04-30T09:52:49.876Z</time></trkpt><trkpt lat="42.45227200565756" lon="11.60983925475506"><ele>73.8</ele><time>2026-04-30T09:52:50.876Z</time></trkpt><trkpt lat="42.452387744089144" lon="11.609875005861337"><ele>73.60000000000001</ele><time>2026-04-30T09:52:51.876Z</time></trkpt><trkpt lat="42.45249873043702" lon="11.609902058203"><ele>73.4</ele><time>2026-04-30T09:52:52.876Z</time></trkpt><trkpt lat="42.45259778981069" lon="11.609909021231829"><ele>73.2</ele><time>2026-04-30T09:52:53.876Z</time></trkpt><trkpt lat="42.4526927422091" lon="11.609920067396917"><ele>73.0</ele><time>2026-04-30T09:52:54.876Z</time></trkpt><trkpt lat="42.45279313445365" lon="11.609946184136112"><ele>73.0</ele><time>2026-04-30T09:52:55.876Z</time></trkpt><trkpt lat="42.45290445098525" lon="11.609984084559944"><ele>73.0</ele><time>2026-04-30T09:52:56.876Z</time></trkpt><trkpt lat="42.4530239997848" lon="11.610022948636036"><ele>73.0</ele><time>2026-04-30T09:52:57.873Z</time></trkpt><trkpt lat="42.45313171275272" lon="11.610071877410967"><ele>73.0</ele><time>2026-04-30T09:52:58.873Z</time></trkpt><trkpt lat="42.45322692339792" lon="11.610141298887278"><ele>72.75</ele><time>2026-04-30T09:52:59.873Z</time></trkpt><trkpt lat="42.45331904943504" lon="11.610230206978537"><ele>72.5</ele><time>2026-04-30T09:53:00.872Z</time></trkpt><trkpt lat="42.45342984436606" lon="11.610326845106194"><ele>72.25</ele><time>2026-04-30T09:53:01.873Z</time></trkpt><trkpt lat="42.45355132565903" lon="11.610437095470385"><ele>72.0</ele><time>2026-04-30T09:53:02.873Z</time></trkpt><trkpt lat="42.453661732304994" lon="11.610559779203033"><ele>71.75</ele><time>2026-04-30T09:53:03.873Z</time></trkpt><trkpt lat="42.45376936698188" lon="11.610660679052698"><ele>71.5</ele><time>2026-04-30T09:53:04.872Z</time></trkpt><trkpt lat="42.453870068769795" lon="11.610755843977435"><ele>71.25</ele><time>2026-04-30T09:53:05.872Z</time></trkpt><trkpt lat="42.45398340758152" lon="11.610836951485044"><ele>71.0</ele><time>2026-04-30T09:53:06.873Z</time></trkpt><trkpt lat="42.45407330738942" lon="11.610953974355905"><ele>71.25</ele><time>2026-04-30T09:53:07.873Z</time></trkpt><trkpt lat="42.454176568314594" lon="11.611061276594032"><ele>71.5</ele><time>2026-04-30T09:53:08.873Z</time></trkpt><trkpt lat="42.45427203893447" lon="11.611161833212158"><ele>71.75</ele><time>2026-04-30T09:53:09.872Z</time></trkpt><trkpt lat="42.45436653824308" lon="11.611260667413806"><ele>72.0</ele><time>2026-04-30T09:53:10.872Z</time></trkpt><trkpt lat="42.454475665153815" lon="11.611356524548219"><ele>72.0</ele><time>2026-04-30T09:53:11.872Z</time></trkpt><trkpt lat="42.454584093702444" lon="11.611449318482089"><ele>72.0</ele><time>2026-04-30T09:53:12.872Z</time></trkpt><trkpt lat="42.45470009909962" lon="11.611547426349986"><ele>72.0</ele><time>2026-04-30T09:53:13.872Z</time></trkpt><trkpt lat="42.4548027596416" lon="11.61163738304648"><ele>72.0</ele><time>2026-04-30T09:53:14.872Z</time></trkpt><trkpt lat="42.45491189794492" lon="11.611721679567104"><ele>72.0</ele><time>2026-04-30T09:53:15.872Z</time></trkpt><trkpt lat="42.455024041485345" lon="11.611783335840437"><ele>72.0</ele><time>2026-04-30T09:53:16.872Z</time></trkpt><trkpt lat="42.45513667124271" lon="11.611843101329297"><ele>72.0</ele><time>2026-04-30T09:53:17.872Z</time></trkpt><trkpt lat="42.455245318521385" lon="11.611913628028832"><ele>72.0</ele><time>2026-04-30T09:53:18.872Z</time></trkpt><trkpt lat="42.45536432013848" lon="11.611985218627584"><ele>72.0</ele><time>2026-04-30T09:53:19.872Z</time></trkpt><trkpt lat="42.45548263324651" lon="11.612058969179866"><ele>72.0</ele><time>2026-04-30T09:53:20.872Z</time></trkpt><trkpt lat="42.455580147852956" lon="11.612152616962527"><ele>72.0</ele><time>2026-04-30T09:53:21.872Z</time></trkpt><trkpt lat="42.45568868205944" lon="11.612227119281165"><ele>72.0</ele><time>2026-04-30T09:53:22.872Z</time></trkpt><trkpt lat="42.45579351609939" lon="11.612295301571933"><ele>72.0</ele><time>2026-04-30T09:53:23.872Z</time></trkpt><trkpt lat="42.455901902068234" lon="11.612349742192851"><ele>72.0</ele><time>2026-04-30T09:53:24.872Z</time></trkpt><trkpt lat="42.456001560515936" lon="11.612400129842058"><ele>72.0</ele><time>2026-04-30T09:53:25.872Z</time></trkpt><trkpt lat="42.45610861376974" lon="11.612460017238824"><ele>72.0</ele><time>2026-04-30T09:53:26.872Z</time></trkpt><trkpt lat="42.45621917069355" lon="11.612518436578693"><ele>72.75</ele><time>2026-04-30T09:53:27.872Z</time></trkpt><trkpt lat="42.45633409445696" lon="11.612584199007276"><ele>73.5</ele><time>2026-04-30T09:53:28.872Z</time></trkpt><trkpt lat="42.45643936901495" lon="11.612680026787059"><ele>74.25</ele><time>2026-04-30T09:53:29.872Z</time></trkpt><trkpt lat="42.456555479734895" lon="11.612746883537811"><ele>75.0</ele><time>2026-04-30T09:53:30.872Z</time></trkpt><trkpt lat="42.45666280872934" lon="11.612803700058723"><ele>75.0</ele><time>2026-04-30T09:53:31.872Z</time></trkpt><trkpt lat="42.456814830528174" lon="11.612750615506503"><ele>75.0</ele><time>2026-04-30T09:53:32.872Z</time></trkpt><trkpt lat="42.45693999606957" lon="11.6127694957216"><ele>75.0</ele><time>2026-04-30T09:53:33.872Z</time></trkpt><trkpt lat="42.457063758918665" lon="11.612770681937365"><ele>75.0</ele><time>2026-04-30T09:53:34.872Z</time></trkpt><trkpt lat="42.45718682204314" lon="11.612756549112188"><ele>75.0</ele><time>2026-04-30T09:53:35.872Z</time></trkpt><trkpt lat="42.457303965716825" lon="11.612730290557423"><ele>75.0</ele><time>2026-04-30T09:53:36.872Z</time></trkpt><trkpt lat="42.45742668302842" lon="11.612692861546893"><ele>75.0</ele><time>2026-04-30T09:53:37.872Z</time></trkpt><trkpt lat="42.457533896502845" lon="11.612658354082685"><ele>75.0</ele><time>2026-04-30T09:53:38.872Z</time></trkpt><trkpt lat="42.457635125955264" lon="11.612646128102435"><ele>75.0</ele><time>2026-04-30T09:53:39.872Z</time></trkpt><trkpt lat="42.457731933944636" lon="11.612638364000388"><ele>75.0</ele><time>2026-04-30T09:53:40.872Z</time></trkpt><trkpt lat="42.45785582790697" lon="11.6126154022897"><ele>75.0</ele><time>2026-04-30T09:53:41.872Z</time></trkpt><trkpt lat="42.457986244170485" lon="11.612594434887653"><ele>75.0</ele><time>2026-04-30T09:53:42.872Z</time></trkpt><trkpt lat="42.45810828256707" lon="11.612571934645763"><ele>75.0</ele><time>2026-04-30T09:53:43.872Z</time></trkpt><trkpt lat="42.45822088633243" lon="11.61255642580403"><ele>75.0</ele><time>2026-04-30T09:53:44.872Z</time></trkpt><trkpt lat="42.45832435491077" lon="11.61253262687206"><ele>75.0</ele><time>2026-04-30T09:53:45.872Z</time></trkpt><trkpt lat="42.45844356860343" lon="11.612513400912892"><ele>75.0</ele><time>2026-04-30T09:53:46.872Z</time></trkpt><trkpt lat="42.458570995398816" lon="11.612502837694652"><ele>75.0</ele><time>2026-04-30T09:53:47.872Z</time></trkpt><trkpt lat="42.458688715809025" lon="11.61248643810464"><ele>75.0</ele><time>2026-04-30T09:53:48.871Z</time></trkpt><trkpt lat="42.45880832526412" lon="11.61246963203308"><ele>75.0</ele><time>2026-04-30T09:53:49.871Z</time></trkpt><trkpt lat="42.45892855029918" lon="11.61246404443457"><ele>75.0</ele><time>2026-04-30T09:53:50.871Z</time></trkpt><trkpt lat="42.4590552690318" lon="11.612473353637771"><ele>75.0</ele><time>2026-04-30T09:53:51.871Z</time></trkpt><trkpt lat="42.45915351995481" lon="11.612489856229667"><ele>75.0</ele><time>2026-04-30T09:53:52.871Z</time></trkpt><trkpt lat="42.459240310883544" lon="11.61249958194861"><ele>75.0</ele><time>2026-04-30T09:53:53.871Z</time></trkpt><trkpt lat="42.45931716077853" lon="11.612505661461634"><ele>75.0</ele><time>2026-04-30T09:53:54.871Z</time></trkpt><trkpt lat="42.459423961294036" lon="11.612508198407694"><ele>75.0</ele><time>2026-04-30T09:53:56.871Z</time></trkpt><trkpt lat="42.45952218317147" lon="11.612513749959245"><ele>75.2</ele><time>2026-04-30T09:53:58.871Z</time></trkpt><trkpt lat="42.45964713136422" lon="11.612517703225409"><ele>75.4</ele><time>2026-04-30T09:54:00.871Z</time></trkpt><trkpt lat="42.45971899760885" lon="11.612521360076272"><ele>75.6</ele><time>2026-04-30T09:54:01.871Z</time></trkpt><trkpt lat="42.459804287792004" lon="11.612528255821463"><ele>75.8</ele><time>2026-04-30T09:54:02.871Z</time></trkpt><trkpt lat="42.459890631272394" lon="11.612531266732065"><ele>76.0</ele><time>2026-04-30T09:54:03.871Z</time></trkpt><trkpt lat="42.45997660607267" lon="11.612534063485363"><ele>76.0</ele><time>2026-04-30T09:54:04.871Z</time></trkpt><trkpt lat="42.46006602131846" lon="11.612540594940036"><ele>76.0</ele><time>2026-04-30T09:54:05.871Z</time></trkpt><trkpt lat="42.46015460100043" lon="11.61255069124198"><ele>76.0</ele><time>2026-04-30T09:54:06.871Z</time></trkpt><trkpt lat="42.46023347679679" lon="11.61256287842401"><ele>76.0</ele><time>2026-04-30T09:54:07.871Z</time></trkpt><trkpt lat="42.46030874315427" lon="11.61257004523908"><ele>76.0</ele><time>2026-04-30T09:54:08.871Z</time></trkpt><trkpt lat="42.46037569159482" lon="11.612582359863357"><ele>76.0</ele><time>2026-04-30T09:54:09.871Z</time></trkpt><trkpt lat="42.46046998150087" lon="11.612608299197099"><ele>76.2</ele><time>2026-04-30T09:54:11.871Z</time></trkpt><trkpt lat="42.4605463828825" lon="11.612648729454982"><ele>76.39999999999999</ele><time>2026-04-30T09:54:13.871Z</time></trkpt><trkpt lat="42.46068645818883" lon="11.612698393239778"><ele>76.6</ele><time>2026-04-30T09:54:15.871Z</time></trkpt><trkpt lat="42.46076378486564" lon="11.612729167100873"><ele>76.8</ele><time>2026-04-30T09:54:16.871Z</time></trkpt><trkpt lat="42.46084386963858" lon="11.612753542119856"><ele>77.0</ele><time>2026-04-30T09:54:17.871Z</time></trkpt><trkpt lat="42.46094563034306" lon="11.612774958574773"><ele>77.0</ele><time>2026-04-30T09:54:18.871Z</time></trkpt><trkpt lat="42.46104943068878" lon="11.612793714880299"><ele>77.0</ele><time>2026-04-30T09:54:19.871Z</time></trkpt><trkpt lat="42.461165446081125" lon="11.612810484150732"><ele>77.0</ele><time>2026-04-30T09:54:20.871Z</time></trkpt><trkpt lat="42.46127952756861" lon="11.612807732584677"><ele>77.0</ele><time>2026-04-30T09:54:21.871Z</time></trkpt><trkpt lat="42.46138966012167" lon="11.61278237203792"><ele>77.0</ele><time>2026-04-30T09:54:22.871Z</time></trkpt><trkpt lat="42.46148766943503" lon="11.612757517340901"><ele>77.2</ele><time>2026-04-30T09:54:23.871Z</time></trkpt><trkpt lat="42.46158237397042" lon="11.612740702083208"><ele>77.4</ele><time>2026-04-30T09:54:24.871Z</time></trkpt><trkpt lat="42.461653315463536" lon="11.612741361579344"><ele>77.6</ele><time>2026-04-30T09:54:25.871Z</time></trkpt><trkpt lat="42.46174608599041" lon="11.612783674525218"><ele>77.8</ele><time>2026-04-30T09:54:27.871Z</time></trkpt><trkpt lat="42.461833940908534" lon="11.612839252556656"><ele>78.0</ele><time>2026-04-30T09:54:30.871Z</time></trkpt><trkpt lat="42.46195241783132" lon="11.612915081618874"><ele>77.25</ele><time>2026-04-30T09:54:32.871Z</time></trkpt><trkpt lat="42.46209611548549" lon="11.612964122632954"><ele>76.5</ele><time>2026-04-30T09:54:34.871Z</time></trkpt><trkpt lat="42.462195314440834" lon="11.612988371048884"><ele>75.75</ele><time>2026-04-30T09:54:35.871Z</time></trkpt><trkpt lat="42.46230409600976" lon="11.612976488000408"><ele>75.0</ele><time>2026-04-30T09:54:36.871Z</time></trkpt><trkpt lat="42.46240201980694" lon="11.612952675177604"><ele>75.0</ele><time>2026-04-30T09:54:37.871Z</time></trkpt><trkpt lat="42.46249459553761" lon="11.612938744821"><ele>75.0</ele><time>2026-04-30T09:54:38.871Z</time></trkpt><trkpt lat="42.462581370814135" lon="11.612924338377018"><ele>75.0</ele><time>2026-04-30T09:54:39.871Z</time></trkpt><trkpt lat="42.46266041886445" lon="11.61292097056043"><ele>75.0</ele><time>2026-04-30T09:54:40.871Z</time></trkpt><trkpt lat="42.462736738148855" lon="11.612936104707558"><ele>75.0</ele><time>2026-04-30T09:54:41.871Z</time></trkpt><trkpt lat="42.46282024351529" lon="11.61295595236528"><ele>75.0</ele><time>2026-04-30T09:54:42.871Z</time></trkpt><trkpt lat="42.46289589621224" lon="11.612961636373488"><ele>75.0</ele><time>2026-04-30T09:54:43.871Z</time></trkpt><trkpt lat="42.46296116913704" lon="11.612971470140945"><ele>77.0</ele><time>2026-04-30T09:54:44.871Z</time></trkpt><trkpt lat="42.46305635517208" lon="11.612941157063503"><ele>77.0</ele><time>2026-04-30T09:54:46.871Z</time></trkpt><trkpt lat="42.46313383461625" lon="11.61291568474647"><ele>77.0</ele><time>2026-04-30T09:54:48.871Z</time></trkpt><trkpt lat="42.463204789358564" lon="11.612930683251346"><ele>77.0</ele><time>2026-04-30T09:54:50.871Z</time></trkpt><trkpt lat="42.463271995985515" lon="11.612964661379468"><ele>77.0</ele><time>2026-04-30T09:54:53.871Z</time></trkpt></trkseg><trkseg><trkpt lat="42.54162275677041" lon="11.56592768824216"><ele>175.0</ele><time>2026-04-30T11:03:19.003Z</time></trkpt><trkpt lat="42.54166206812858" lon="11.565769483230062"><ele>175.0</ele><time>2026-04-30T11:03:20.003Z</time></trkpt><trkpt lat="42.541709764088175" lon="11.565605697570122"><ele>175.0</ele><time>2026-04-30T11:03:21.003Z</time></trkpt><trkpt lat="42.54175501126442" lon="11.565443335694136"><ele>175.0</ele><time>2026-04-30T11:03:22.003Z</time></trkpt><trkpt lat="42.54179425571709" lon="11.565277040948134"><ele>174.5</ele><time>2026-04-30T11:03:23.003Z</time></trkpt><trkpt lat="42.54180163431688" lon="11.565092080231413"><ele>174.0</ele><time>2026-04-30T11:03:24.003Z</time></trkpt><trkpt lat="42.54180301876284" lon="11.564914450208734"><ele>173.5</ele><time>2026-04-30T11:03:25.003Z</time></trkpt><trkpt lat="42.54176873229118" lon="11.564745581808568"><ele>173.0</ele><time>2026-04-30T11:03:26.003Z</time></trkpt><trkpt lat="42.541726266170414" lon="11.564579301707473"><ele>172.5</ele><time>2026-04-30T11:03:27.003Z</time></trkpt><trkpt lat="42.541722469469434" lon="11.564416848589923"><ele>172.0</ele><time>2026-04-30T11:03:28.003Z</time></trkpt><trkpt lat="42.541743464930484" lon="11.564254390082045"><ele>171.5</ele><time>2026-04-30T11:03:29.003Z</time></trkpt><trkpt lat="42.541798441243465" lon="11.564111947661827"><ele>171.0</ele><time>2026-04-30T11:03:30.003Z</time></trkpt><trkpt lat="42.54186901310811" lon="11.563972471671839"><ele>171.0</ele><time>2026-04-30T11:03:31.003Z</time></trkpt><trkpt lat="42.541943825597464" lon="11.563823248140682"><ele>171.0</ele><time>2026-04-30T11:03:32.003Z</time></trkpt><trkpt lat="42.54202084199267" lon="11.563669628637413"><ele>171.0</ele><time>2026-04-30T11:03:33.003Z</time></trkpt><trkpt lat="42.54210412851684" lon="11.563503091547593"><ele>171.0</ele><time>2026-04-30T11:03:34.003Z</time></trkpt><trkpt lat="42.54218037120722" lon="11.563347849642108"><ele>174.66666666666666</ele><time>2026-04-30T11:03:35.003Z</time></trkpt><trkpt lat="42.54226359441535" lon="11.563173602823456"><ele>178.33333333333331</ele><time>2026-04-30T11:03:36.003Z</time></trkpt><trkpt lat="42.542342146983" lon="11.563000746289106"><ele>182.0</ele><time>2026-04-30T11:03:37.003Z</time></trkpt><trkpt lat="42.54241206438984" lon="11.562806748348462"><ele>182.0</ele><time>2026-04-30T11:03:38.003Z</time></trkpt><trkpt lat="42.542518742596776" lon="11.562634081532968"><ele>182.0</ele><time>2026-04-30T11:03:39.003Z</time></trkpt><trkpt lat="42.54260132537069" lon="11.562448243366626"><ele>182.0</ele><time>2026-04-30T11:03:40.003Z</time></trkpt><trkpt lat="42.54268044769233" lon="11.562254956357124"><ele>182.0</ele><time>2026-04-30T11:03:41.003Z</time></trkpt><trkpt lat="42.5427465349567" lon="11.562070483241774"><ele>182.0</ele><time>2026-04-30T11:03:42.003Z</time></trkpt><trkpt lat="42.542787814621605" lon="11.561890046947736"><ele>182.0</ele><time>2026-04-30T11:03:43.003Z</time></trkpt><trkpt lat="42.5427721361819" lon="11.56170801444783"><ele>182.0</ele><time>2026-04-30T11:03:44.003Z</time></trkpt><trkpt lat="42.54274096979858" lon="11.561536952975553"><ele>181.5</ele><time>2026-04-30T11:03:45.003Z</time></trkpt><trkpt lat="42.54270839376976" lon="11.561372269751669"><ele>181.0</ele><time>2026-04-30T11:03:46.003Z</time></trkpt><trkpt lat="42.54265725183925" lon="11.561204977653171"><ele>180.5</ele><time>2026-04-30T11:03:47.004Z</time></trkpt><trkpt lat="42.5426142638185" lon="11.561047635869349"><ele>180.0</ele><time>2026-04-30T11:03:48.004Z</time></trkpt><trkpt lat="42.54258777907519" lon="11.560886032309343"><ele>181.25</ele><time>2026-04-30T11:03:49.004Z</time></trkpt><trkpt lat="42.54260205010598" lon="11.5607259435118"><ele>182.5</ele><time>2026-04-30T11:03:50.004Z</time></trkpt><trkpt lat="42.542653636472295" lon="11.560580904199442"><ele>183.75</ele><time>2026-04-30T11:03:51.004Z</time></trkpt><trkpt lat="42.54275659238189" lon="11.560500819473393"><ele>185.0</ele><time>2026-04-30T11:03:52.004Z</time></trkpt><trkpt lat="42.5428539702161" lon="11.56043328739122"><ele>189.0</ele><time>2026-04-30T11:03:53.004Z</time></trkpt><trkpt lat="42.54296540442933" lon="11.560406188832367"><ele>193.0</ele><time>2026-04-30T11:03:54.004Z</time></trkpt><trkpt lat="42.54308931365771" lon="11.560355023139227"><ele>197.0</ele><time>2026-04-30T11:03:55.004Z</time></trkpt><trkpt lat="42.54321247415621" lon="11.560299289753466"><ele>201.0</ele><time>2026-04-30T11:03:56.004Z</time></trkpt><trkpt lat="42.54334553006827" lon="11.560209967259407"><ele>201.0</ele><time>2026-04-30T11:03:57.004Z</time></trkpt><trkpt lat="42.54346478701158" lon="11.560075675464123"><ele>201.0</ele><time>2026-04-30T11:03:58.004Z</time></trkpt><trkpt lat="42.543575615909596" lon="11.559935794669283"><ele>201.0</ele><time>2026-04-30T11:03:59.004Z</time></trkpt><trkpt lat="42.54367053350433" lon="11.559785726444842"><ele>202.5</ele><time>2026-04-30T11:04:00.004Z</time></trkpt><trkpt lat="42.54376193596183" lon="11.559626473685794"><ele>204.0</ele><time>2026-04-30T11:04:01.004Z</time></trkpt><trkpt lat="42.543858466223455" lon="11.55948800090569"><ele>205.5</ele><time>2026-04-30T11:04:02.004Z</time></trkpt><trkpt lat="42.54397582852768" lon="11.559407990049271"><ele>207.0</ele><time>2026-04-30T11:04:03.004Z</time></trkpt><trkpt lat="42.544094266077174" lon="11.559324614624632"><ele>207.0</ele><time>2026-04-30T11:04:04.004Z</time></trkpt><trkpt lat="42.54420471909704" lon="11.559221501517978"><ele>207.0</ele><time>2026-04-30T11:04:05.004Z</time></trkpt><trkpt lat="42.54434971439367" lon="11.559166756511885"><ele>207.0</ele><time>2026-04-30T11:04:06.004Z</time></trkpt><trkpt lat="42.54447383879393" lon="11.559088559937628"><ele>207.0</ele><time>2026-04-30T11:04:07.004Z</time></trkpt><trkpt lat="42.54460002747855" lon="11.559031961979477"><ele>210.25</ele><time>2026-04-30T11:04:08.004Z</time></trkpt><trkpt lat="42.54473020673939" lon="11.559023729067967"><ele>213.5</ele><time>2026-04-30T11:04:09.004Z</time></trkpt><trkpt lat="42.54485001540445" lon="11.55905525398906"><ele>216.75</ele><time>2026-04-30T11:04:10.004Z</time></trkpt><trkpt lat="42.54497896575649" lon="11.559110148953545"><ele>220.0</ele><time>2026-04-30T11:04:11.004Z</time></trkpt><trkpt lat="42.54511530835774" lon="11.5591813633684"><ele>220.0</ele><time>2026-04-30T11:04:12.004Z</time></trkpt><trkpt lat="42.54524995047969" lon="11.55922020722121"><ele>220.0</ele><time>2026-04-30T11:04:13.004Z</time></trkpt><trkpt lat="42.54539079099984" lon="11.55924414009191"><ele>220.0</ele><time>2026-04-30T11:04:14.004Z</time></trkpt><trkpt lat="42.545514377479854" lon="11.55922240705835"><ele>220.0</ele><time>2026-04-30T11:04:15.004Z</time></trkpt><trkpt lat="42.54562056773493" lon="11.559144710133475"><ele>218.75</ele><time>2026-04-30T11:04:16.004Z</time></trkpt><trkpt lat="42.54571675063832" lon="11.559042269518164"><ele>217.5</ele><time>2026-04-30T11:04:17.004Z</time></trkpt><trkpt lat="42.54578208016898" lon="11.558895897550055"><ele>216.25</ele><time>2026-04-30T11:04:18.004Z</time></trkpt><trkpt lat="42.54583243125825" lon="11.558734720620297"><ele>215.0</ele><time>2026-04-30T11:04:19.004Z</time></trkpt><trkpt lat="42.54587468725057" lon="11.558589075066084"><ele>215.0</ele><time>2026-04-30T11:04:20.004Z</time></trkpt><trkpt lat="42.54592945779795" lon="11.558443925682958"><ele>215.0</ele><time>2026-04-30T11:04:21.004Z</time></trkpt><trkpt lat="42.545991609745094" lon="11.55829861477965"><ele>215.0</ele><time>2026-04-30T11:04:22.004Z</time></trkpt><trkpt lat="42.54606221321996" lon="11.55817079856325"><ele>215.0</ele><time>2026-04-30T11:04:23.004Z</time></trkpt><trkpt lat="42.546151175518965" lon="11.55806359831753"><ele>216.75</ele><time>2026-04-30T11:04:24.004Z</time></trkpt><trkpt lat="42.54626520640792" lon="11.558036707245684"><ele>218.5</ele><time>2026-04-30T11:04:25.004Z</time></trkpt><trkpt lat="42.546385387260315" lon="11.557993107304055"><ele>220.25</ele><time>2026-04-30T11:04:26.004Z</time></trkpt><trkpt lat="42.546508099445816" lon="11.557931810156186"><ele>222.0</ele><time>2026-04-30T11:04:27.004Z</time></trkpt><trkpt lat="42.54662089947159" lon="11.557846451030336"><ele>222.0</ele><time>2026-04-30T11:04:28.004Z</time></trkpt><trkpt lat="42.54670474885207" lon="11.557731298892406"><ele>222.0</ele><time>2026-04-30T11:04:29.004Z</time></trkpt><trkpt lat="42.546759583433044" lon="11.557586430046975"><ele>222.0</ele><time>2026-04-30T11:04:30.004Z</time></trkpt><trkpt lat="42.5467858588625" lon="11.557414030948586"><ele>222.0</ele><time>2026-04-30T11:04:31.004Z</time></trkpt><trkpt lat="42.546800368500236" lon="11.557239348179762"><ele>222.0</ele><time>2026-04-30T11:04:32.004Z</time></trkpt><trkpt lat="42.54682327895207" lon="11.557070397570508"><ele>222.0</ele><time>2026-04-30T11:04:33.004Z</time></trkpt><trkpt lat="42.54684415589634" lon="11.556881887410492"><ele>222.0</ele><time>2026-04-30T11:04:34.004Z</time></trkpt><trkpt lat="42.546866676346" lon="11.556698892277849"><ele>222.0</ele><time>2026-04-30T11:04:35.004Z</time></trkpt><trkpt lat="42.54690535729426" lon="11.556534874217723"><ele>221.5</ele><time>2026-04-30T11:04:36.004Z</time></trkpt><trkpt lat="42.54696432371233" lon="11.556402106148663"><ele>221.0</ele><time>2026-04-30T11:04:37.004Z</time></trkpt><trkpt lat="42.54706611568346" lon="11.556347743216174"><ele>220.5</ele><time>2026-04-30T11:04:38.004Z</time></trkpt><trkpt lat="42.54717277120764" lon="11.556289397345669"><ele>220.0</ele><time>2026-04-30T11:04:39.004Z</time></trkpt><trkpt lat="42.547294485294145" lon="11.55635239332668"><ele>223.25</ele><time>2026-04-30T11:04:40.004Z</time></trkpt><trkpt lat="42.54742683751148" lon="11.55637394310434"><ele>226.5</ele><time>2026-04-30T11:04:41.004Z</time></trkpt><trkpt lat="42.547563867256144" lon="11.556387138510583"><ele>229.75</ele><time>2026-04-30T11:04:42.004Z</time></trkpt><trkpt lat="42.54770787729084" lon="11.556424352494613"><ele>233.0</ele><time>2026-04-30T11:04:43.004Z</time></trkpt><trkpt lat="42.547852001906655" lon="11.556449837758532"><ele>233.0</ele><time>2026-04-30T11:04:44.004Z</time></trkpt><trkpt lat="42.54800739424373" lon="11.55648495830179"><ele>233.0</ele><time>2026-04-30T11:04:45.004Z</time></trkpt><trkpt lat="42.54815575688308" lon="11.556512007733943"><ele>233.0</ele><time>2026-04-30T11:04:46.004Z</time></trkpt><trkpt lat="42.54831054637766" lon="11.556546294168694"><ele>233.0</ele><time>2026-04-30T11:04:47.004Z</time></trkpt><trkpt lat="42.54846942667567" lon="11.556577114598229"><ele>233.0</ele><time>2026-04-30T11:04:48.004Z</time></trkpt><trkpt lat="42.548605359858875" lon="11.556598761421263"><ele>233.0</ele><time>2026-04-30T11:04:49.004Z</time></trkpt><trkpt lat="42.54872080173485" lon="11.556607286069513"><ele>233.0</ele><time>2026-04-30T11:04:50.004Z</time></trkpt><trkpt lat="42.54885306990531" lon="11.556631367807032"><ele>234.75</ele><time>2026-04-30T11:04:51.004Z</time></trkpt><trkpt lat="42.54898359720754" lon="11.55665690198489"><ele>236.5</ele><time>2026-04-30T11:04:52.004Z</time></trkpt><trkpt lat="42.54912561382699" lon="11.556659867427879"><ele>238.25</ele><time>2026-04-30T11:04:53.004Z</time></trkpt><trkpt lat="42.54926253173608" lon="11.556639561062228"><ele>240.0</ele><time>2026-04-30T11:04:54.004Z</time></trkpt><trkpt lat="42.549404938295076" lon="11.556602341509556"><ele>242.0</ele><time>2026-04-30T11:04:55.004Z</time></trkpt><trkpt lat="42.549545564124855" lon="11.556550353002647"><ele>244.0</ele><time>2026-04-30T11:04:56.004Z</time></trkpt><trkpt lat="42.54968778488231" lon="11.556499896678979"><ele>246.0</ele><time>2026-04-30T11:04:57.004Z</time></trkpt><trkpt lat="42.549831101402084" lon="11.556456430243788"><ele>248.0</ele><time>2026-04-30T11:04:58.004Z</time></trkpt><trkpt lat="42.54998493310041" lon="11.556412717074952"><ele>248.0</ele><time>2026-04-30T11:04:59.005Z</time></trkpt><trkpt lat="42.55012966739865" lon="11.556378211664653"><ele>248.0</ele><time>2026-04-30T11:05:00.005Z</time></trkpt><trkpt lat="42.55026337524547" lon="11.55633575380914"><ele>248.0</ele><time>2026-04-30T11:05:01.005Z</time></trkpt><trkpt lat="42.55038636758762" lon="11.556287566658456"><ele>248.0</ele><time>2026-04-30T11:05:02.005Z</time></trkpt><trkpt lat="42.5505061649063" lon="11.556225013413556"><ele>248.25</ele><time>2026-04-30T11:05:03.005Z</time></trkpt><trkpt lat="42.55062689622562" lon="11.556128422380779"><ele>248.5</ele><time>2026-04-30T11:05:04.005Z</time></trkpt><trkpt lat="42.55074578290842" lon="11.556016914385596"><ele>248.75</ele><time>2026-04-30T11:05:05.005Z</time></trkpt><trkpt lat="42.550859436828695" lon="11.555897755215629"><ele>249.0</ele><time>2026-04-30T11:05:06.005Z</time></trkpt><trkpt lat="42.55096562109329" lon="11.555770354341528"><ele>249.0</ele><time>2026-04-30T11:05:07.005Z</time></trkpt><trkpt lat="42.55107582653064" lon="11.55564372580253"><ele>249.0</ele><time>2026-04-30T11:05:08.005Z</time></trkpt><trkpt lat="42.551202655256944" lon="11.555535985108687"><ele>249.0</ele><time>2026-04-30T11:05:09.005Z</time></trkpt><trkpt lat="42.55132373681585" lon="11.55540803653731"><ele>249.0</ele><time>2026-04-30T11:05:10.005Z</time></trkpt><trkpt lat="42.55143392257157" lon="11.555263421262694"><ele>251.5</ele><time>2026-04-30T11:05:11.005Z</time></trkpt><trkpt lat="42.551567322223754" lon="11.555157689409933"><ele>254.0</ele><time>2026-04-30T11:05:12.005Z</time></trkpt><trkpt lat="42.55169126374198" lon="11.555043794275926"><ele>256.5</ele><time>2026-04-30T11:05:13.005Z</time></trkpt><trkpt lat="42.55178467760859" lon="11.55494515595526"><ele>259.0</ele><time>2026-04-30T11:05:14.005Z</time></trkpt><trkpt lat="42.55186879682142" lon="11.554859334077495"><ele>259.0</ele><time>2026-04-30T11:05:15.005Z</time></trkpt><trkpt lat="42.55194090550351" lon="11.554782663216502"><ele>259.0</ele><time>2026-04-30T11:05:16.005Z</time></trkpt><trkpt lat="42.55201090908161" lon="11.5547147421137"><ele>259.0</ele><time>2026-04-30T11:05:17.005Z</time></trkpt><trkpt lat="42.55206230935242" lon="11.554653882194971"><ele>259.0</ele><time>2026-04-30T11:05:18.005Z</time></trkpt><trkpt lat="42.551999660822126" lon="11.554695371171597"><ele>259.0</ele><time>2026-04-30T11:05:25.005Z</time></trkpt><trkpt lat="42.55192695553345" lon="11.554762120036415"><ele>259.0</ele><time>2026-04-30T11:05:26.005Z</time></trkpt><trkpt lat="42.5518783899124" lon="11.55482319016417"><ele>259.0</ele><time>2026-04-30T11:05:27.005Z</time></trkpt><trkpt lat="42.55180168276031" lon="11.554880724786852"><ele>259.0</ele><time>2026-04-30T11:05:28.005Z</time></trkpt><trkpt lat="42.55175104550048" lon="11.554957411658503"><ele>259.0</ele><time>2026-04-30T11:05:29.005Z</time></trkpt><trkpt lat="42.55169796460011" lon="11.555013357659258"><ele>259.0</ele><time>2026-04-30T11:05:30.005Z</time></trkpt><trkpt lat="42.55164025592217" lon="11.555048901339143"><ele>259.0</ele><time>2026-04-30T11:05:31.005Z</time></trkpt><trkpt lat="42.55145725020324" lon="11.554876990862292"><ele>259.0</ele><time>2026-04-30T11:05:32.005Z</time></trkpt><trkpt lat="42.55129969285452" lon="11.554774177389751"><ele>259.0</ele><time>2026-04-30T11:05:33.005Z</time></trkpt><trkpt lat="42.5511799494453" lon="11.554641316002767"><ele>259.0</ele><time>2026-04-30T11:05:34.005Z</time></trkpt><trkpt lat="42.55107020838873" lon="11.554539786887116"><ele>257.75</ele><time>2026-04-30T11:05:35.005Z</time></trkpt><trkpt lat="42.55096687323442" lon="11.554423136908948"><ele>256.5</ele><time>2026-04-30T11:05:36.005Z</time></trkpt><trkpt lat="42.550874287546534" lon="11.554286615270982"><ele>255.25</ele><time>2026-04-30T11:05:37.005Z</time></trkpt><trkpt lat="42.55079535458594" lon="11.55413705600222"><ele>254.0</ele><time>2026-04-30T11:05:38.005Z</time></trkpt><trkpt lat="42.550715764681364" lon="11.553967550339529"><ele>254.0</ele><time>2026-04-30T11:05:39.005Z</time></trkpt><trkpt lat="42.55062794578387" lon="11.55378040652304"><ele>254.0</ele><time>2026-04-30T11:05:40.005Z</time></trkpt><trkpt lat="42.55053467426074" lon="11.553607657073657"><ele>254.0</ele><time>2026-04-30T11:05:41.005Z</time></trkpt><trkpt lat="42.55045606396116" lon="11.553441213638017"><ele>253.5</ele><time>2026-04-30T11:05:42.005Z</time></trkpt><trkpt lat="42.55039861667168" lon="11.553270566844834"><ele>253.0</ele><time>2026-04-30T11:05:43.005Z</time></trkpt><trkpt lat="42.550352150909994" lon="11.553085677996648"><ele>252.5</ele><time>2026-04-30T11:05:44.005Z</time></trkpt><trkpt lat="42.550308158117964" lon="11.552895837003087"><ele>252.0</ele><time>2026-04-30T11:05:45.005Z</time></trkpt><trkpt lat="42.55026067821702" lon="11.552719544754677"><ele>251.25</ele><time>2026-04-30T11:05:46.005Z</time></trkpt><trkpt lat="42.550182588320276" lon="11.552565763130557"><ele>250.5</ele><time>2026-04-30T11:05:47.005Z</time></trkpt><trkpt lat="42.55008745751381" lon="11.55247991862666"><ele>249.75</ele><time>2026-04-30T11:05:48.005Z</time></trkpt><trkpt lat="42.54997245475097" lon="11.552376714314574"><ele>249.0</ele><time>2026-04-30T11:05:49.005Z</time></trkpt><trkpt lat="42.54985443455174" lon="11.552214587604682"><ele>249.0</ele><time>2026-04-30T11:05:50.005Z</time></trkpt><trkpt lat="42.54971977601427" lon="11.552043928947493"><ele>249.0</ele><time>2026-04-30T11:05:51.005Z</time></trkpt><trkpt lat="42.549602759484195" lon="11.551878121299703"><ele>249.0</ele><time>2026-04-30T11:05:52.005Z</time></trkpt><trkpt lat="42.549466331093754" lon="11.5517120408211"><ele>249.0</ele><time>2026-04-30T11:05:53.005Z</time></trkpt><trkpt lat="42.54931767841203" lon="11.551561317114912"><ele>249.0</ele><time>2026-04-30T11:05:54.005Z</time></trkpt><trkpt lat="42.54916358351896" lon="11.55141349641763"><ele>249.0</ele><time>2026-04-30T11:05:55.005Z</time></trkpt><trkpt lat="42.549022411034784" lon="11.551268800614588"><ele>249.33333333333331</ele><time>2026-04-30T11:05:56.005Z</time></trkpt><trkpt lat="42.54889656615535" lon="11.551118661297934"><ele>249.66666666666666</ele><time>2026-04-30T11:05:57.005Z</time></trkpt><trkpt lat="42.548795163597035" lon="11.550961993673726"><ele>250.0</ele><time>2026-04-30T11:05:58.005Z</time></trkpt><trkpt lat="42.54869957971112" lon="11.550786792793637"><ele>250.0</ele><time>2026-04-30T11:05:59.005Z</time></trkpt><trkpt lat="42.54859021268175" lon="11.550584823855834"><ele>250.0</ele><time>2026-04-30T11:06:00.005Z</time></trkpt><trkpt lat="42.548485484957816" lon="11.550373333704403"><ele>250.0</ele><time>2026-04-30T11:06:01.005Z</time></trkpt><trkpt lat="42.548391163750146" lon="11.550158223385859"><ele>250.33333333333331</ele><time>2026-04-30T11:06:02.005Z</time></trkpt><trkpt lat="42.54830436370167" lon="11.549928386251583"><ele>250.66666666666669</ele><time>2026-04-30T11:06:03.005Z</time></trkpt><trkpt lat="42.54820476039488" lon="11.549666805326172"><ele>251.0</ele><time>2026-04-30T11:06:04.005Z</time></trkpt><trkpt lat="42.54809744950271" lon="11.549403802443985"><ele>251.0</ele><time>2026-04-30T11:06:05.005Z</time></trkpt><trkpt lat="42.547995886836425" lon="11.549153210643178"><ele>251.0</ele><time>2026-04-30T11:06:06.005Z</time></trkpt><trkpt lat="42.54789343358261" lon="11.548915927787741"><ele>251.0</ele><time>2026-04-30T11:06:07.005Z</time></trkpt><trkpt lat="42.54779428898739" lon="11.548681286832391"><ele>250.33333333333334</ele><time>2026-04-30T11:06:08.005Z</time></trkpt><trkpt lat="42.5476969301693" lon="11.548446653641792"><ele>249.66666666666669</ele><time>2026-04-30T11:06:09.005Z</time></trkpt><trkpt lat="42.547603511315856" lon="11.54822987503511"><ele>249.0</ele><time>2026-04-30T11:06:10.005Z</time></trkpt><trkpt lat="42.547501113924056" lon="11.548000687627386"><ele>248.33333333333331</ele><time>2026-04-30T11:06:11.006Z</time></trkpt><trkpt lat="42.5473984164611" lon="11.547763355257977"><ele>247.66666666666666</ele><time>2026-04-30T11:06:12.006Z</time></trkpt><trkpt lat="42.5472984798491" lon="11.547561647959064"><ele>247.0</ele><time>2026-04-30T11:06:13.006Z</time></trkpt><trkpt lat="42.547198791416534" lon="11.54736483677917"><ele>247.0</ele><time>2026-04-30T11:06:14.006Z</time></trkpt><trkpt lat="42.547118433963554" lon="11.547194755824899"><ele>247.0</ele><time>2026-04-30T11:06:15.006Z</time></trkpt><trkpt lat="42.5470602823013" lon="11.547045434851375"><ele>247.0</ele><time>2026-04-30T11:06:16.006Z</time></trkpt><trkpt lat="42.54703357577369" lon="11.54688736533582"><ele>247.0</ele><time>2026-04-30T11:06:17.006Z</time></trkpt><trkpt lat="42.54699992956818" lon="11.54673343081649"><ele>247.5</ele><time>2026-04-30T11:06:18.006Z</time></trkpt><trkpt lat="42.54698446516797" lon="11.546559823271823"><ele>248.0</ele><time>2026-04-30T11:06:19.006Z</time></trkpt><trkpt lat="42.54697101135773" lon="11.546365911743806"><ele>248.5</ele><time>2026-04-30T11:06:20.006Z</time></trkpt><trkpt lat="42.54694300801404" lon="11.54619815229732"><ele>249.0</ele><time>2026-04-30T11:06:21.006Z</time></trkpt><trkpt lat="42.546890535678955" lon="11.546040025411175"><ele>249.5</ele><time>2026-04-30T11:06:22.006Z</time></trkpt><trkpt lat="42.54681691754754" lon="11.545887380100917"><ele>250.0</ele><time>2026-04-30T11:06:23.006Z</time></trkpt><trkpt lat="42.546725067071506" lon="11.545722228588303"><ele>250.5</ele><time>2026-04-30T11:06:24.006Z</time></trkpt><trkpt lat="42.54663113618859" lon="11.545583737972668"><ele>251.0</ele><time>2026-04-30T11:06:25.006Z</time></trkpt><trkpt lat="42.54652917336298" lon="11.54545008794997"><ele>251.66666666666669</ele><time>2026-04-30T11:06:26.006Z</time></trkpt><trkpt lat="42.54640827966465" lon="11.545306637493885"><ele>252.33333333333331</ele><time>2026-04-30T11:06:27.006Z</time></trkpt><trkpt lat="42.54628943697809" lon="11.545158359036952"><ele>253.0</ele><time>2026-04-30T11:06:28.006Z</time></trkpt><trkpt lat="42.54617497541302" lon="11.545004121359664"><ele>253.0</ele><time>2026-04-30T11:06:29.006Z</time></trkpt><trkpt lat="42.54605683905525" lon="11.544855714717245"><ele>253.0</ele><time>2026-04-30T11:06:30.006Z</time></trkpt><trkpt lat="42.545934236331405" lon="11.54470569936199"><ele>253.0</ele><time>2026-04-30T11:06:31.006Z</time></trkpt><trkpt lat="42.545811573645764" lon="11.544568864862336"><ele>254.0</ele><time>2026-04-30T11:06:32.006Z</time></trkpt><trkpt lat="42.545697664488" lon="11.5444269530993"><ele>255.0</ele><time>2026-04-30T11:06:33.006Z</time></trkpt><trkpt lat="42.54558858911649" lon="11.54426701207845"><ele>256.0</ele><time>2026-04-30T11:06:34.006Z</time></trkpt><trkpt lat="42.54548368794381" lon="11.544093497670493"><ele>256.0</ele><time>2026-04-30T11:06:35.006Z</time></trkpt><trkpt lat="42.545379344866895" lon="11.543912326460669"><ele>256.0</ele><time>2026-04-30T11:06:36.006Z</time></trkpt><trkpt lat="42.5452787231543" lon="11.543728163670188"><ele>256.0</ele><time>2026-04-30T11:06:37.006Z</time></trkpt><trkpt lat="42.54518161013794" lon="11.543543622067288"><ele>256.75</ele><time>2026-04-30T11:06:38.006Z</time></trkpt><trkpt lat="42.54510674413505" lon="11.54337596004852"><ele>257.5</ele><time>2026-04-30T11:06:39.006Z</time></trkpt><trkpt lat="42.54502655960853" lon="11.543225473699815"><ele>258.25</ele><time>2026-04-30T11:06:40.006Z</time></trkpt><trkpt lat="42.544964914998914" lon="11.543077625609474"><ele>259.0</ele><time>2026-04-30T11:06:41.006Z</time></trkpt><trkpt lat="42.54491327543673" lon="11.542899226187046"><ele>259.25</ele><time>2026-04-30T11:06:42.006Z</time></trkpt><trkpt lat="42.54485112854486" lon="11.542721841086044"><ele>259.5</ele><time>2026-04-30T11:06:43.006Z</time></trkpt><trkpt lat="42.54479569515718" lon="11.542541880142403"><ele>259.75</ele><time>2026-04-30T11:06:44.006Z</time></trkpt><trkpt lat="42.54474583737386" lon="11.542369766513593"><ele>260.0</ele><time>2026-04-30T11:06:45.006Z</time></trkpt><trkpt lat="42.544696398404845" lon="11.542220486155479"><ele>260.0</ele><time>2026-04-30T11:06:46.006Z</time></trkpt><trkpt lat="42.54464370629371" lon="11.542091542669779"><ele>260.0</ele><time>2026-04-30T11:06:47.006Z</time></trkpt><trkpt lat="42.54458788931479" lon="11.541968737861351"><ele>260.0</ele><time>2026-04-30T11:06:48.006Z</time></trkpt><trkpt lat="42.544540570372206" lon="11.54190783444955"><ele>260.0</ele><time>2026-04-30T11:06:49.006Z</time></trkpt><trkpt lat="42.54449028131847" lon="11.541800092546454"><ele>260.0</ele><time>2026-04-30T11:06:51.006Z</time></trkpt><trkpt lat="42.544439887614324" lon="11.541709619884871"><ele>259.75</ele><time>2026-04-30T11:07:17.006Z</time></trkpt><trkpt lat="42.544392763534916" lon="11.541647226355586"><ele>259.5</ele><time>2026-04-30T11:07:19.006Z</time></trkpt><trkpt lat="42.544350907750896" lon="11.541576346423232"><ele>259.25</ele><time>2026-04-30T11:07:21.006Z</time></trkpt><trkpt lat="42.54430473046699" lon="11.541493027563497"><ele>259.0</ele><time>2026-04-30T11:07:24.007Z</time></trkpt><trkpt lat="42.54552184290923" lon="11.54088433586734"><ele>253.5</ele><time>2026-04-30T11:07:31.007Z</time></trkpt><trkpt lat="42.545791226739944" lon="11.54074526100035"><ele>248.0</ele><time>2026-04-30T11:07:32.007Z</time></trkpt><trkpt lat="42.54612424071012" lon="11.54058878532045"><ele>248.5</ele><time>2026-04-30T11:07:33.007Z</time></trkpt><trkpt lat="42.54651045318158" lon="11.540423008288672"><ele>249.0</ele><time>2026-04-30T11:07:34.007Z</time></trkpt><trkpt lat="42.54686087364257" lon="11.540325749676892"><ele>249.66666666666669</ele><time>2026-04-30T11:07:35.007Z</time></trkpt><trkpt lat="42.54699192273369" lon="11.54030041528917"><ele>250.33333333333334</ele><time>2026-04-30T11:07:36.007Z</time></trkpt><trkpt lat="42.54728598852312" lon="11.54027529513204"><ele>251.0</ele><time>2026-04-30T11:07:37.007Z</time></trkpt><trkpt lat="42.54744486154196" lon="11.540245438682307"><ele>251.0</ele><time>2026-04-30T11:07:38.007Z</time></trkpt><trkpt lat="42.547627193285706" lon="11.540174263845488"><ele>251.0</ele><time>2026-04-30T11:07:39.007Z</time></trkpt><trkpt lat="42.547842326288475" lon="11.540082189469599"><ele>251.0</ele><time>2026-04-30T11:07:40.007Z</time></trkpt><trkpt lat="42.54803807410689" lon="11.539985966018795"><ele>246.5</ele><time>2026-04-30T11:07:41.007Z</time></trkpt><trkpt lat="42.548312349096086" lon="11.539863648628332"><ele>242.0</ele><time>2026-04-30T11:07:42.007Z</time></trkpt><trkpt lat="42.54849037758909" lon="11.539772078661708"><ele>242.0</ele><time>2026-04-30T11:07:43.007Z</time></trkpt><trkpt lat="42.548682403458294" lon="11.53967174082516"><ele>242.0</ele><time>2026-04-30T11:07:44.007Z</time></trkpt><trkpt lat="42.54886614573516" lon="11.539567679495791"><ele>242.0</ele><time>2026-04-30T11:07:45.007Z</time></trkpt><trkpt lat="42.54905569885261" lon="11.53945517160737"><ele>241.33333333333334</ele><time>2026-04-30T11:07:46.007Z</time></trkpt><trkpt lat="42.54922527441052" lon="11.539342949612944"><ele>240.66666666666669</ele><time>2026-04-30T11:07:47.007Z</time></trkpt><trkpt lat="42.54935838527836" lon="11.539250717877744"><ele>240.0</ele><time>2026-04-30T11:07:48.007Z</time></trkpt><trkpt lat="42.54949361115171" lon="11.539177409034926"><ele>251.0</ele><time>2026-04-30T11:07:49.007Z</time></trkpt><trkpt lat="42.547757738089054" lon="11.539987816056536"><ele>246.5</ele><time>2026-04-30T11:07:50.007Z</time></trkpt><trkpt lat="42.54806727049669" lon="11.539853039834425"><ele>242.0</ele><time>2026-04-30T11:07:51.007Z</time></trkpt><trkpt lat="42.548311836190116" lon="11.539743237114187"><ele>242.0</ele><time>2026-04-30T11:07:52.007Z</time></trkpt><trkpt lat="42.548655124095944" lon="11.539577766824804"><ele>242.0</ele><time>2026-04-30T11:07:53.007Z</time></trkpt><trkpt lat="42.54895179571922" lon="11.539449927701673"><ele>241.0</ele><time>2026-04-30T11:07:54.007Z</time></trkpt><trkpt lat="42.549293845202996" lon="11.539364902278432"><ele>240.0</ele><time>2026-04-30T11:07:55.007Z</time></trkpt><trkpt lat="42.54955510141612" lon="11.539308296172683"><ele>242.33333333333331</ele><time>2026-04-30T11:07:56.007Z</time></trkpt><trkpt lat="42.5497766260572" lon="11.539285005660075"><ele>244.66666666666666</ele><time>2026-04-30T11:07:57.007Z</time></trkpt><trkpt lat="42.54998987222084" lon="11.539255531538833"><ele>247.0</ele><time>2026-04-30T11:07:58.007Z</time></trkpt><trkpt lat="42.550210398615306" lon="11.539226360642282"><ele>247.0</ele><time>2026-04-30T11:07:59.007Z</time></trkpt><trkpt lat="42.55045513553689" lon="11.539198108230153"><ele>247.0</ele><time>2026-04-30T11:08:00.007Z</time></trkpt><trkpt lat="42.55061329304339" lon="11.539181007018916"><ele>247.0</ele><time>2026-04-30T11:08:01.007Z</time></trkpt><trkpt lat="42.55078546754585" lon="11.539156255936872"><ele>247.0</ele><time>2026-04-30T11:08:02.007Z</time></trkpt><trkpt lat="42.55094304821712" lon="11.53914394127383"><ele>247.0</ele><time>2026-04-30T11:08:03.007Z</time></trkpt><trkpt lat="42.55110842342952" lon="11.539116744056138"><ele>247.0</ele><time>2026-04-30T11:08:04.007Z</time></trkpt><trkpt lat="42.55127367973588" lon="11.539076305371564"><ele>246.33333333333331</ele><time>2026-04-30T11:08:05.007Z</time></trkpt><trkpt lat="42.5514359813269" lon="11.539037627168835"><ele>245.66666666666669</ele><time>2026-04-30T11:08:06.007Z</time></trkpt><trkpt lat="42.5516221130456" lon="11.538992437335136"><ele>245.0</ele><time>2026-04-30T11:08:07.007Z</time></trkpt><trkpt lat="42.55178702766549" lon="11.538944238282339"><ele>245.0</ele><time>2026-04-30T11:08:08.007Z</time></trkpt><trkpt lat="42.551938022448596" lon="11.538922608791662"><ele>245.0</ele><time>2026-04-30T11:08:09.007Z</time></trkpt><trkpt lat="42.55206714908782" lon="11.538871267243579"><ele>245.0</ele><time>2026-04-30T11:08:10.007Z</time></trkpt><trkpt lat="42.55219981431043" lon="11.538841010505093"><ele>245.0</ele><time>2026-04-30T11:08:11.007Z</time></trkpt><trkpt lat="42.55226147270555" lon="11.538807727188976"><ele>243.75</ele><time>2026-04-30T11:08:12.007Z</time></trkpt><trkpt lat="42.55240255672503" lon="11.538792766611186"><ele>242.5</ele><time>2026-04-30T11:08:13.007Z</time></trkpt><trkpt lat="42.552543792485245" lon="11.538739766492002"><ele>241.25</ele><time>2026-04-30T11:08:14.007Z</time></trkpt><trkpt lat="42.55267271406895" lon="11.53871406306576"><ele>240.0</ele><time>2026-04-30T11:08:15.007Z</time></trkpt><trkpt lat="42.55280981370454" lon="11.538684511566387"><ele>238.75</ele><time>2026-04-30T11:08:16.007Z</time></trkpt><trkpt lat="42.55294792734225" lon="11.538650564610894"><ele>237.5</ele><time>2026-04-30T11:08:17.007Z</time></trkpt><trkpt lat="42.55308492128047" lon="11.53861814606084"><ele>236.25</ele><time>2026-04-30T11:08:18.007Z</time></trkpt><trkpt lat="42.553228339027875" lon="11.538607547270823"><ele>235.0</ele><time>2026-04-30T11:08:19.007Z</time></trkpt><trkpt lat="42.553356405800564" lon="11.538586349366662"><ele>235.0</ele><time>2026-04-30T11:08:20.007Z</time></trkpt><trkpt lat="42.55346625043391" lon="11.538553805982987"><ele>235.0</ele><time>2026-04-30T11:08:21.007Z</time></trkpt><trkpt lat="42.55358403982721" lon="11.538567127779523"><ele>235.0</ele><time>2026-04-30T11:08:22.007Z</time></trkpt><trkpt lat="42.55368234070333" lon="11.53856143041661"><ele>235.0</ele><time>2026-04-30T11:08:23.007Z</time></trkpt><trkpt lat="42.55379019074923" lon="11.538585454089093"><ele>235.0</ele><time>2026-04-30T11:08:24.007Z</time></trkpt><trkpt lat="42.55388473196275" lon="11.538609507675753"><ele>235.0</ele><time>2026-04-30T11:08:25.007Z</time></trkpt><trkpt lat="42.55401723038209" lon="11.538650610328517"><ele>235.0</ele><time>2026-04-30T11:08:26.007Z</time></trkpt><trkpt lat="42.554162291776336" lon="11.538698768361632"><ele>235.0</ele><time>2026-04-30T11:08:27.007Z</time></trkpt><trkpt lat="42.55431710386499" lon="11.538731307428801"><ele>235.0</ele><time>2026-04-30T11:08:28.007Z</time></trkpt><trkpt lat="42.554443482096616" lon="11.538773190667538"><ele>234.6</ele><time>2026-04-30T11:08:29.007Z</time></trkpt><trkpt lat="42.554545018771364" lon="11.538802715871064"><ele>234.2</ele><time>2026-04-30T11:08:30.007Z</time></trkpt><trkpt lat="42.55464185816078" lon="11.538827398448305"><ele>233.8</ele><time>2026-04-30T11:08:31.007Z</time></trkpt><trkpt lat="42.554742860639806" lon="11.538852267960726"><ele>233.4</ele><time>2026-04-30T11:08:32.007Z</time></trkpt><trkpt lat="42.55486004580982" lon="11.538878413850984"><ele>233.0</ele><time>2026-04-30T11:08:33.007Z</time></trkpt><trkpt lat="42.55496545676897" lon="11.5388955255769"><ele>233.0</ele><time>2026-04-30T11:08:34.007Z</time></trkpt><trkpt lat="42.55506130354022" lon="11.538930753740413"><ele>233.0</ele><time>2026-04-30T11:08:35.008Z</time></trkpt><trkpt lat="42.55513904340412" lon="11.53894311448788"><ele>233.0</ele><time>2026-04-30T11:08:36.008Z</time></trkpt><trkpt lat="42.55520376764363" lon="11.538963171659177"><ele>233.0</ele><time>2026-04-30T11:08:38.008Z</time></trkpt><trkpt lat="42.5554360535972" lon="11.53863606068644"><ele>232.2</ele><time>2026-04-30T11:08:41.008Z</time></trkpt><trkpt lat="42.55549904491924" lon="11.538532466897243"><ele>231.4</ele><time>2026-04-30T11:08:42.008Z</time></trkpt><trkpt lat="42.55556883290036" lon="11.538433821979721"><ele>230.59999999999997</ele><time>2026-04-30T11:08:43.008Z</time></trkpt><trkpt lat="42.555648754059554" lon="11.538346132870792"><ele>229.79999999999998</ele><time>2026-04-30T11:08:44.008Z</time></trkpt><trkpt lat="42.555719325328454" lon="11.538276700200035"><ele>229.0</ele><time>2026-04-30T11:08:45.008Z</time></trkpt><trkpt lat="42.55577038150574" lon="11.538157344383698"><ele>229.0</ele><time>2026-04-30T11:08:46.008Z</time></trkpt><trkpt lat="42.55582730981428" lon="11.538055366790081"><ele>228.99999999999997</ele><time>2026-04-30T11:08:47.008Z</time></trkpt><trkpt lat="42.555888777524416" lon="11.537997470699414"><ele>228.99999999999997</ele><time>2026-04-30T11:08:48.008Z</time></trkpt><trkpt lat="42.555959363345856" lon="11.537985441605697"><ele>229.0</ele><time>2026-04-30T11:08:49.008Z</time></trkpt><trkpt lat="42.556068836525455" lon="11.537953659867028"><ele>229.0</ele><time>2026-04-30T11:08:50.008Z</time></trkpt><trkpt lat="42.55619332629591" lon="11.53792573898705"><ele>229.75</ele><time>2026-04-30T11:08:51.008Z</time></trkpt><trkpt lat="42.55635335129491" lon="11.537892023555724"><ele>230.5</ele><time>2026-04-30T11:08:52.008Z</time></trkpt><trkpt lat="42.556499657300314" lon="11.537866987051366"><ele>231.25</ele><time>2026-04-30T11:08:53.008Z</time></trkpt><trkpt lat="42.55662562410984" lon="11.537799944588597"><ele>232.0</ele><time>2026-04-30T11:08:54.008Z</time></trkpt><trkpt lat="42.55673623864116" lon="11.537740524369482"><ele>232.0</ele><time>2026-04-30T11:08:55.008Z</time></trkpt><trkpt lat="42.5568498535305" lon="11.537692834602888"><ele>232.0</ele><time>2026-04-30T11:08:56.008Z</time></trkpt><trkpt lat="42.556960555478824" lon="11.53764356361629"><ele>232.0</ele><time>2026-04-30T11:08:57.008Z</time></trkpt><trkpt lat="42.557087209228875" lon="11.537583139368932"><ele>232.0</ele><time>2026-04-30T11:08:58.008Z</time></trkpt><trkpt lat="42.55723114204959" lon="11.537540159291462"><ele>233.0</ele><time>2026-04-30T11:08:59.008Z</time></trkpt><trkpt lat="42.557368228935005" lon="11.537489884100017"><ele>234.0</ele><time>2026-04-30T11:09:00.008Z</time></trkpt><trkpt lat="42.55750359515327" lon="11.53742208838186"><ele>235.0</ele><time>2026-04-30T11:09:01.008Z</time></trkpt><trkpt lat="42.55762572525628" lon="11.537373168233383"><ele>236.0</ele><time>2026-04-30T11:09:02.008Z</time></trkpt><trkpt lat="42.55772841012858" lon="11.537305690527187"><ele>236.0</ele><time>2026-04-30T11:09:03.008Z</time></trkpt><trkpt lat="42.55781710979796" lon="11.53724561009159"><ele>236.00000000000003</ele><time>2026-04-30T11:09:04.008Z</time></trkpt><trkpt lat="42.557935259658954" lon="11.537199010976735"><ele>236.00000000000003</ele><time>2026-04-30T11:09:05.008Z</time></trkpt><trkpt lat="42.558042429082214" lon="11.537147198163874"><ele>236.0</ele><time>2026-04-30T11:09:06.008Z</time></trkpt><trkpt lat="42.55814225447626" lon="11.537103360613017"><ele>236.0</ele><time>2026-04-30T11:09:07.008Z</time></trkpt><trkpt lat="42.55825160057531" lon="11.537066467662171"><ele>235.5</ele><time>2026-04-30T11:09:08.008Z</time></trkpt><trkpt lat="42.558343615018" lon="11.537038804806933"><ele>235.0</ele><time>2026-04-30T11:09:09.008Z</time></trkpt><trkpt lat="42.55846060550804" lon="11.537018404499097"><ele>234.5</ele><time>2026-04-30T11:09:10.008Z</time></trkpt><trkpt lat="42.55858735320056" lon="11.536999344977602"><ele>234.0</ele><time>2026-04-30T11:09:11.008Z</time></trkpt><trkpt lat="42.558711638530255" lon="11.53698301538608"><ele>233.79999999999998</ele><time>2026-04-30T11:09:12.008Z</time></trkpt><trkpt lat="42.558827634133905" lon="11.536944873908414"><ele>233.59999999999997</ele><time>2026-04-30T11:09:13.008Z</time></trkpt><trkpt lat="42.558931198647564" lon="11.536920568073016"><ele>233.4</ele><time>2026-04-30T11:09:14.008Z</time></trkpt><trkpt lat="42.559024046647444" lon="11.536887602159304"><ele>233.2</ele><time>2026-04-30T11:09:15.008Z</time></trkpt><trkpt lat="42.55912669515004" lon="11.536844896596188"><ele>233.0</ele><time>2026-04-30T11:09:16.008Z</time></trkpt><trkpt lat="42.55924221987419" lon="11.536796080127656"><ele>233.0</ele><time>2026-04-30T11:09:17.008Z</time></trkpt><trkpt lat="42.55934082761825" lon="11.53674333078716"><ele>233.0</ele><time>2026-04-30T11:09:18.008Z</time></trkpt><trkpt lat="42.55944903484221" lon="11.53669897634958"><ele>233.0</ele><time>2026-04-30T11:09:19.008Z</time></trkpt><trkpt lat="42.559539803285745" lon="11.536662608024537"><ele>233.0</ele><time>2026-04-30T11:09:20.008Z</time></trkpt><trkpt lat="42.55961384995325" lon="11.536621527593633"><ele>233.0</ele><time>2026-04-30T11:09:21.008Z</time></trkpt><trkpt lat="42.559694536245274" lon="11.536595155196883"><ele>233.0</ele><time>2026-04-30T11:09:22.008Z</time></trkpt><trkpt lat="42.559790556703156" lon="11.536574014341806"><ele>233.0</ele><time>2026-04-30T11:09:23.008Z</time></trkpt><trkpt lat="42.55986860867189" lon="11.536538991632677"><ele>233.0</ele><time>2026-04-30T11:09:24.008Z</time></trkpt><trkpt lat="42.55994140207538" lon="11.536478297590547"><ele>233.0</ele><time>2026-04-30T11:09:25.008Z</time></trkpt><trkpt lat="42.56002131990327" lon="11.536407816382747"><ele>233.0</ele><time>2026-04-30T11:09:26.008Z</time></trkpt><trkpt lat="42.56009879573895" lon="11.536332036240806"><ele>233.0</ele><time>2026-04-30T11:09:27.008Z</time></trkpt><trkpt lat="42.56017676302968" lon="11.53626520076142"><ele>233.0</ele><time>2026-04-30T11:09:28.008Z</time></trkpt><trkpt lat="42.5602394744924" lon="11.53621633384838"><ele>233.0</ele><time>2026-04-30T11:09:29.008Z</time></trkpt><trkpt lat="42.56034332459674" lon="11.536153777407078"><ele>233.0</ele><time>2026-04-30T11:09:31.008Z</time></trkpt><trkpt lat="42.56045163876898" lon="11.536104629135753"><ele>233.0</ele><time>2026-04-30T11:09:33.008Z</time></trkpt><trkpt lat="42.56052146890178" lon="11.536084141177032"><ele>233.4</ele><time>2026-04-30T11:09:34.008Z</time></trkpt><trkpt lat="42.560640039505294" lon="11.536112758681266"><ele>233.8</ele><time>2026-04-30T11:09:36.008Z</time></trkpt><trkpt lat="42.56075805229277" lon="11.536136712050958"><ele>234.2</ele><time>2026-04-30T11:09:38.008Z</time></trkpt><trkpt lat="42.56083536252138" lon="11.536123578272637"><ele>234.6</ele><time>2026-04-30T11:09:39.008Z</time></trkpt><trkpt lat="42.56090859024832" lon="11.536104490364075"><ele>235.0</ele><time>2026-04-30T11:09:40.008Z</time></trkpt><trkpt lat="42.56100601606127" lon="11.536088101082056"><ele>234.99999999999997</ele><time>2026-04-30T11:09:42.008Z</time></trkpt><trkpt lat="42.561082248154094" lon="11.536101550983503"><ele>235.0</ele><time>2026-04-30T11:09:44.008Z</time></trkpt><trkpt lat="42.561187742984224" lon="11.536117488378904"><ele>235.0</ele><time>2026-04-30T11:09:46.008Z</time></trkpt><trkpt lat="42.56127985134376" lon="11.536135390301006"><ele>235.0</ele><time>2026-04-30T11:09:48.009Z</time></trkpt><trkpt lat="42.56135335906392" lon="11.536168574574873"><ele>234.99999999999997</ele><time>2026-04-30T11:09:50.009Z</time></trkpt><trkpt lat="42.5614183000489" lon="11.536186702909152"><ele>235.0</ele><time>2026-04-30T11:09:52.009Z</time></trkpt><trkpt lat="42.561530518155266" lon="11.536179598913652"><ele>236.0</ele><time>2026-04-30T11:09:54.009Z</time></trkpt><trkpt lat="42.561592719728154" lon="11.536155539518113"><ele>237.0</ele><time>2026-04-30T11:09:55.009Z</time></trkpt><trkpt lat="42.56171769458753" lon="11.536163141171627"><ele>238.0</ele><time>2026-04-30T11:09:57.009Z</time></trkpt><trkpt lat="42.56183084188141" lon="11.53612271256425"><ele>239.0</ele><time>2026-04-30T11:09:59.009Z</time></trkpt><trkpt lat="42.56194501356664" lon="11.536104088586491"><ele>240.0</ele><time>2026-04-30T11:10:01.009Z</time></trkpt><trkpt lat="42.56201160314982" lon="11.536090441246827"><ele>240.5</ele><time>2026-04-30T11:10:02.009Z</time></trkpt><trkpt lat="42.56208098160403" lon="11.536098438452429"><ele>241.0</ele><time>2026-04-30T11:10:03.009Z</time></trkpt><trkpt lat="42.562152155915165" lon="11.536098532411861"><ele>241.5</ele><time>2026-04-30T11:10:04.009Z</time></trkpt><trkpt lat="42.562253452815305" lon="11.536087986062997"><ele>242.0</ele><time>2026-04-30T11:10:05.009Z</time></trkpt><trkpt lat="42.56232652938939" lon="11.536078725963952"><ele>242.5</ele><time>2026-04-30T11:10:06.009Z</time></trkpt><trkpt lat="42.56244801598557" lon="11.5360507268521"><ele>243.0</ele><time>2026-04-30T11:10:08.009Z</time></trkpt><trkpt lat="42.56252142507026" lon="11.536039150012655"><ele>243.0</ele><time>2026-04-30T11:10:09.009Z</time></trkpt><trkpt lat="42.562601181272626" lon="11.536030973002246"><ele>243.0</ele><time>2026-04-30T11:10:10.009Z</time></trkpt><trkpt lat="42.56268542625614" lon="11.536057894172894"><ele>243.0</ele><time>2026-04-30T11:10:11.009Z</time></trkpt><trkpt lat="42.562791488835884" lon="11.536050454192685"><ele>243.0</ele><time>2026-04-30T11:10:12.009Z</time></trkpt><trkpt lat="42.562914023712395" lon="11.536026854422504"><ele>243.0</ele><time>2026-04-30T11:10:13.009Z</time></trkpt><trkpt lat="42.56302767366326" lon="11.535987559060361"><ele>244.25</ele><time>2026-04-30T11:10:14.009Z</time></trkpt><trkpt lat="42.5631619107998" lon="11.535956441906155"><ele>245.5</ele><time>2026-04-30T11:10:15.009Z</time></trkpt><trkpt lat="42.56327724896062" lon="11.53594942749836"><ele>246.75</ele><time>2026-04-30T11:10:16.009Z</time></trkpt><trkpt lat="42.56339849529593" lon="11.535926080027316"><ele>248.0</ele><time>2026-04-30T11:10:17.009Z</time></trkpt><trkpt lat="42.56350512628194" lon="11.53590702909628"><ele>248.0</ele><time>2026-04-30T11:10:18.009Z</time></trkpt><trkpt lat="42.56361743741815" lon="11.535891842372024"><ele>248.0</ele><time>2026-04-30T11:10:19.009Z</time></trkpt><trkpt lat="42.56372948009815" lon="11.535879432270026"><ele>248.0</ele><time>2026-04-30T11:10:20.009Z</time></trkpt><trkpt lat="42.563840245057605" lon="11.535869293039484"><ele>248.0</ele><time>2026-04-30T11:10:21.009Z</time></trkpt><trkpt lat="42.563936303183525" lon="11.535840364884917"><ele>248.0</ele><time>2026-04-30T11:10:22.009Z</time></trkpt><trkpt lat="42.564044560935244" lon="11.535838775749635"><ele>249.25</ele><time>2026-04-30T11:10:23.009Z</time></trkpt><trkpt lat="42.564163835662505" lon="11.535834587502277"><ele>250.5</ele><time>2026-04-30T11:10:24.009Z</time></trkpt><trkpt lat="42.56429751165342" lon="11.535828015513191"><ele>251.75</ele><time>2026-04-30T11:10:25.009Z</time></trkpt><trkpt lat="42.56444246659749" lon="11.53582338668178"><ele>253.0</ele><time>2026-04-30T11:10:26.009Z</time></trkpt><trkpt lat="42.5645707078302" lon="11.535849560002749"><ele>254.0</ele><time>2026-04-30T11:10:27.009Z</time></trkpt><trkpt lat="42.56468540889273" lon="11.535858553554586"><ele>255.0</ele><time>2026-04-30T11:10:28.009Z</time></trkpt><trkpt lat="42.56478976806653" lon="11.5358756566924"><ele>256.0</ele><time>2026-04-30T11:10:29.009Z</time></trkpt><trkpt lat="42.56487860813553" lon="11.535901978012463"><ele>257.0</ele><time>2026-04-30T11:10:30.009Z</time></trkpt><trkpt lat="42.56497296534951" lon="11.535939975864785"><ele>258.0</ele><time>2026-04-30T11:10:31.009Z</time></trkpt><trkpt lat="42.56507842077427" lon="11.535983187980472"><ele>258.0</ele><time>2026-04-30T11:10:32.009Z</time></trkpt><trkpt lat="42.565188249662896" lon="11.536017903521493"><ele>258.0</ele><time>2026-04-30T11:10:33.009Z</time></trkpt><trkpt lat="42.565305116652105" lon="11.536032449687736"><ele>258.0</ele><time>2026-04-30T11:10:34.009Z</time></trkpt><trkpt lat="42.565446774405146" lon="11.536031178509658"><ele>258.0</ele><time>2026-04-30T11:10:35.009Z</time></trkpt><trkpt lat="42.56558756245699" lon="11.5360155577886"><ele>260.0</ele><time>2026-04-30T11:10:36.009Z</time></trkpt><trkpt lat="42.56575082819431" lon="11.535996065825492"><ele>262.0</ele><time>2026-04-30T11:10:37.009Z</time></trkpt><trkpt lat="42.56586779000769" lon="11.535993764808076"><ele>264.0</ele><time>2026-04-30T11:10:38.009Z</time></trkpt><trkpt lat="42.5659793191472" lon="11.536012195946528"><ele>266.0</ele><time>2026-04-30T11:10:39.009Z</time></trkpt><trkpt lat="42.56608633977809" lon="11.536009919786517"><ele>266.0</ele><time>2026-04-30T11:10:40.009Z</time></trkpt><trkpt lat="42.5661890480869" lon="11.536004856504581"><ele>266.0</ele><time>2026-04-30T11:10:41.009Z</time></trkpt><trkpt lat="42.56628640341808" lon="11.535982983436087"><ele>266.0</ele><time>2026-04-30T11:10:42.009Z</time></trkpt><trkpt lat="42.56641340510463" lon="11.535935379897834"><ele>266.0</ele><time>2026-04-30T11:10:43.009Z</time></trkpt><trkpt lat="42.566531485098594" lon="11.535868263034688"><ele>267.0</ele><time>2026-04-30T11:10:44.009Z</time></trkpt><trkpt lat="42.56662686008544" lon="11.53581697564285"><ele>268.0</ele><time>2026-04-30T11:10:45.009Z</time></trkpt><trkpt lat="42.566704066517985" lon="11.535753213514917"><ele>269.0</ele><time>2026-04-30T11:10:46.009Z</time></trkpt><trkpt lat="42.5667980448985" lon="11.535670356218061"><ele>270.0</ele><time>2026-04-30T11:10:47.009Z</time></trkpt><trkpt lat="42.56690991165294" lon="11.535572311676098"><ele>271.0</ele><time>2026-04-30T11:10:48.009Z</time></trkpt><trkpt lat="42.56702598541807" lon="11.53546377837878"><ele>272.5</ele><time>2026-04-30T11:10:49.009Z</time></trkpt><trkpt lat="42.567148964691995" lon="11.535366033883058"><ele>274.0</ele><time>2026-04-30T11:10:50.009Z</time></trkpt><trkpt lat="42.56726932357703" lon="11.53527331083385"><ele>275.5</ele><time>2026-04-30T11:10:51.009Z</time></trkpt><trkpt lat="42.567392792634045" lon="11.535204192012358"><ele>277.0</ele><time>2026-04-30T11:10:52.009Z</time></trkpt><trkpt lat="42.56749012898314" lon="11.535105656696482"><ele>277.0</ele><time>2026-04-30T11:10:53.009Z</time></trkpt><trkpt lat="42.56756761393479" lon="11.53505718521484"><ele>277.0</ele><time>2026-04-30T11:10:54.009Z</time></trkpt><trkpt lat="42.56762596689798" lon="11.535015983294407"><ele>277.0</ele><time>2026-04-30T11:10:55.009Z</time></trkpt><trkpt lat="42.56767950398627" lon="11.534960964232766"><ele>277.0</ele><time>2026-04-30T11:10:56.009Z</time></trkpt><trkpt lat="42.567797558445164" lon="11.53487407507321"><ele>277.0</ele><time>2026-04-30T11:10:58.009Z</time></trkpt><trkpt lat="42.5678598552795" lon="11.534798694938592"><ele>277.0</ele><time>2026-04-30T11:10:59.01Z</time></trkpt><trkpt lat="42.567929297175006" lon="11.53474191320454"><ele>278.16666666666663</ele><time>2026-04-30T11:11:00.01Z</time></trkpt><trkpt lat="42.56801038887189" lon="11.534708586656054"><ele>279.3333333333333</ele><time>2026-04-30T11:11:01.01Z</time></trkpt><trkpt lat="42.56808388980678" lon="11.534671729679545"><ele>280.5</ele><time>2026-04-30T11:11:02.01Z</time></trkpt><trkpt lat="42.568158731888325" lon="11.534652021096175"><ele>281.6666666666667</ele><time>2026-04-30T11:11:03.01Z</time></trkpt><trkpt lat="42.56823054598784" lon="11.534641454032087"><ele>282.83333333333337</ele><time>2026-04-30T11:11:04.01Z</time></trkpt><trkpt lat="42.5683069260321" lon="11.534638315588168"><ele>284.0</ele><time>2026-04-30T11:11:05.01Z</time></trkpt><trkpt lat="42.56838348394842" lon="11.534641082066955"><ele>284.0</ele><time>2026-04-30T11:11:06.01Z</time></trkpt><trkpt lat="42.568448919429386" lon="11.534661479082457"><ele>284.0</ele><time>2026-04-30T11:11:07.01Z</time></trkpt><trkpt lat="42.568559073355694" lon="11.534716566006686"><ele>284.0</ele><time>2026-04-30T11:11:09.01Z</time></trkpt><trkpt lat="42.568617321083536" lon="11.534766096548708"><ele>284.0</ele><time>2026-04-30T11:11:10.01Z</time></trkpt><trkpt lat="42.56868762549899" lon="11.534827934154281"><ele>284.0</ele><time>2026-04-30T11:11:11.01Z</time></trkpt><trkpt lat="42.56876503687702" lon="11.534896586577862"><ele>284.0</ele><time>2026-04-30T11:11:12.01Z</time></trkpt><trkpt lat="42.5688210524322" lon="11.534938359600762"><ele>283.33333333333337</ele><time>2026-04-30T11:11:13.01Z</time></trkpt><trkpt lat="42.56889140790719" lon="11.534992593968594"><ele>282.6666666666667</ele><time>2026-04-30T11:11:15.01Z</time></trkpt><trkpt lat="42.568994577113834" lon="11.535064378980252"><ele>282.0</ele><time>2026-04-30T11:11:17.01Z</time></trkpt><trkpt lat="42.56905773784029" lon="11.535096253281845"><ele>281.3333333333333</ele><time>2026-04-30T11:11:18.01Z</time></trkpt><trkpt lat="42.56912806745671" lon="11.535114795094902"><ele>280.66666666666663</ele><time>2026-04-30T11:11:19.01Z</time></trkpt><trkpt lat="42.56919206863085" lon="11.535130544058875"><ele>280.0</ele><time>2026-04-30T11:11:20.01Z</time></trkpt><trkpt lat="42.56931482157416" lon="11.535142526021225"><ele>280.0</ele><time>2026-04-30T11:11:22.01Z</time></trkpt><trkpt lat="42.569380282045195" lon="11.5351621030527"><ele>280.0</ele><time>2026-04-30T11:11:23.01Z</time></trkpt><trkpt lat="42.5694524323698" lon="11.535178379960431"><ele>280.0</ele><time>2026-04-30T11:11:24.01Z</time></trkpt><trkpt lat="42.56953088151078" lon="11.535195445071686"><ele>280.0</ele><time>2026-04-30T11:11:25.01Z</time></trkpt><trkpt lat="42.569620538718745" lon="11.535206501227663"><ele>280.0</ele><time>2026-04-30T11:11:26.01Z</time></trkpt><trkpt lat="42.5697082006821" lon="11.535218029724607"><ele>280.0</ele><time>2026-04-30T11:11:27.01Z</time></trkpt><trkpt lat="42.56978050102679" lon="11.535219315663833"><ele>280.66666666666663</ele><time>2026-04-30T11:11:28.01Z</time></trkpt><trkpt lat="42.56985606196478" lon="11.535235897797765"><ele>281.3333333333333</ele><time>2026-04-30T11:11:29.01Z</time></trkpt><trkpt lat="42.56993643581894" lon="11.53523300433558"><ele>282.0</ele><time>2026-04-30T11:11:30.01Z</time></trkpt><trkpt lat="42.57000618192839" lon="11.535203181891072"><ele>282.6666666666667</ele><time>2026-04-30T11:11:31.01Z</time></trkpt><trkpt lat="42.570124714434826" lon="11.535166750237412"><ele>283.33333333333337</ele><time>2026-04-30T11:11:33.01Z</time></trkpt><trkpt lat="42.57020028884261" lon="11.535097762231914"><ele>284.0</ele><time>2026-04-30T11:11:35.01Z</time></trkpt><trkpt lat="42.57025721635392" lon="11.535027704967543"><ele>284.0</ele><time>2026-04-30T11:11:38.01Z</time></trkpt><trkpt lat="42.570309861982395" lon="11.534957796461761"><ele>284.0</ele><time>2026-04-30T11:11:58.01Z</time></trkpt><trkpt lat="42.570247208099765" lon="11.53478414098456"><ele>284.0</ele><time>2026-04-30T11:12:01.01Z</time></trkpt><trkpt lat="42.570187373046515" lon="11.534718849269838"><ele>284.0</ele><time>2026-04-30T11:12:02.01Z</time></trkpt><trkpt lat="42.570117543818846" lon="11.53465946502446"><ele>284.0</ele><time>2026-04-30T11:12:03.01Z</time></trkpt><trkpt lat="42.570046652456696" lon="11.534595659717422"><ele>284.25</ele><time>2026-04-30T11:12:04.01Z</time></trkpt><trkpt lat="42.5699592295556" lon="11.534514656080246"><ele>284.5</ele><time>2026-04-30T11:12:05.01Z</time></trkpt><trkpt lat="42.56987551750301" lon="11.53441472066839"><ele>284.75</ele><time>2026-04-30T11:12:06.01Z</time></trkpt><trkpt lat="42.56979417993661" lon="11.534285877728587"><ele>285.0</ele><time>2026-04-30T11:12:07.01Z</time></trkpt><trkpt lat="42.569717696035845" lon="11.534131999894294"><ele>285.0</ele><time>2026-04-30T11:12:08.01Z</time></trkpt><trkpt lat="42.56966240299626" lon="11.533961827169293"><ele>285.0</ele><time>2026-04-30T11:12:09.01Z</time></trkpt><trkpt lat="42.56959577940006" lon="11.533798527887631"><ele>285.0</ele><time>2026-04-30T11:12:10.01Z</time></trkpt><trkpt lat="42.56954134919319" lon="11.53362012933232"><ele>285.0</ele><time>2026-04-30T11:12:11.011Z</time></trkpt><trkpt lat="42.56948042010816" lon="11.533411299249018"><ele>280.6666666666667</ele><time>2026-04-30T11:12:12.011Z</time></trkpt><trkpt lat="42.56940878257916" lon="11.53319811863494"><ele>276.33333333333337</ele><time>2026-04-30T11:12:13.011Z</time></trkpt><trkpt lat="42.569339866092484" lon="11.532995259282686"><ele>272.0</ele><time>2026-04-30T11:12:14.011Z</time></trkpt><trkpt lat="42.56927435061906" lon="11.532804653963069"><ele>272.0</ele><time>2026-04-30T11:12:15.011Z</time></trkpt><trkpt lat="42.569206913476364" lon="11.532622656238402"><ele>272.0</ele><time>2026-04-30T11:12:16.011Z</time></trkpt><trkpt lat="42.56913462030497" lon="11.532449931877604"><ele>272.0</ele><time>2026-04-30T11:12:17.011Z</time></trkpt><trkpt lat="42.56904931914682" lon="11.532294348876942"><ele>272.0</ele><time>2026-04-30T11:12:18.011Z</time></trkpt><trkpt lat="42.56894182265879" lon="11.532153557003047"><ele>271.75</ele><time>2026-04-30T11:12:19.011Z</time></trkpt><trkpt lat="42.56882588025196" lon="11.532053679062061"><ele>271.5</ele><time>2026-04-30T11:12:20.011Z</time></trkpt><trkpt lat="42.56868751229472" lon="11.531994216801232"><ele>271.25</ele><time>2026-04-30T11:12:21.011Z</time></trkpt><trkpt lat="42.56853135296986" lon="11.531964811996984"><ele>271.0</ele><time>2026-04-30T11:12:22.011Z</time></trkpt><trkpt lat="42.56837696119817" lon="11.531950183903898"><ele>271.0</ele><time>2026-04-30T11:12:23.011Z</time></trkpt><trkpt lat="42.56821066370158" lon="11.531949835046976"><ele>271.0</ele><time>2026-04-30T11:12:24.011Z</time></trkpt><trkpt lat="42.56804388178457" lon="11.531918224847999"><ele>271.0</ele><time>2026-04-30T11:12:25.011Z</time></trkpt><trkpt lat="42.5678749154028" lon="11.53188427722845"><ele>269.0</ele><time>2026-04-30T11:12:26.011Z</time></trkpt><trkpt lat="42.56770605751624" lon="11.531846754017396"><ele>267.0</ele><time>2026-04-30T11:12:27.011Z</time></trkpt><trkpt lat="42.56753216525953" lon="11.531806081074766"><ele>265.0</ele><time>2026-04-30T11:12:28.011Z</time></trkpt><trkpt lat="42.567360218229425" lon="11.531770316621731"><ele>265.0</ele><time>2026-04-30T11:12:29.011Z</time></trkpt><trkpt lat="42.56718717394689" lon="11.531738874725852"><ele>265.0</ele><time>2026-04-30T11:12:30.011Z</time></trkpt><trkpt lat="42.56701595882029" lon="11.531707680896352"><ele>265.0</ele><time>2026-04-30T11:12:31.011Z</time></trkpt><trkpt lat="42.56683547980337" lon="11.531661042033218"><ele>263.0</ele><time>2026-04-30T11:12:32.011Z</time></trkpt><trkpt lat="42.56666370480036" lon="11.53162059780188"><ele>261.0</ele><time>2026-04-30T11:12:33.011Z</time></trkpt><trkpt lat="42.566499864645195" lon="11.531587895082392"><ele>259.0</ele><time>2026-04-30T11:12:34.011Z</time></trkpt><trkpt lat="42.56634522446037" lon="11.531549650374858"><ele>259.0</ele><time>2026-04-30T11:12:35.011Z</time></trkpt><trkpt lat="42.566199539755665" lon="11.531500944673851"><ele>259.0</ele><time>2026-04-30T11:12:36.011Z</time></trkpt><trkpt lat="42.566076211469486" lon="11.53139758888866"><ele>259.0</ele><time>2026-04-30T11:12:37.011Z</time></trkpt><trkpt lat="42.56596298076697" lon="11.531275069627787"><ele>259.0</ele><time>2026-04-30T11:12:38.011Z</time></trkpt><trkpt lat="42.565867746672055" lon="11.53111273069486"><ele>257.3333333333333</ele><time>2026-04-30T11:12:39.011Z</time></trkpt><trkpt lat="42.565770371264044" lon="11.530946670210556"><ele>255.66666666666669</ele><time>2026-04-30T11:12:40.011Z</time></trkpt><trkpt lat="42.56570354727689" lon="11.530742853107137"><ele>254.0</ele><time>2026-04-30T11:12:41.011Z</time></trkpt><trkpt lat="42.565635212714255" lon="11.530547770847123"><ele>254.0</ele><time>2026-04-30T11:12:42.011Z</time></trkpt><trkpt lat="42.5655532801884" lon="11.530360060559534"><ele>254.0</ele><time>2026-04-30T11:12:43.011Z</time></trkpt><trkpt lat="42.56547498175778" lon="11.530169046145643"><ele>254.0</ele><time>2026-04-30T11:12:44.011Z</time></trkpt><trkpt lat="42.565392487408886" lon="11.529981605011919"><ele>251.33333333333334</ele><time>2026-04-30T11:12:45.011Z</time></trkpt><trkpt lat="42.56531869530547" lon="11.529792872779877"><ele>248.66666666666669</ele><time>2026-04-30T11:12:46.011Z</time></trkpt><trkpt lat="42.565232538047646" lon="11.529595186437197"><ele>246.0</ele><time>2026-04-30T11:12:47.011Z</time></trkpt><trkpt lat="42.565145272444134" lon="11.52939490367223"><ele>246.0</ele><time>2026-04-30T11:12:48.011Z</time></trkpt><trkpt lat="42.56505402874109" lon="11.529194309602355"><ele>246.0</ele><time>2026-04-30T11:12:49.011Z</time></trkpt><trkpt lat="42.564962853105186" lon="11.528989347793212"><ele>246.0</ele><time>2026-04-30T11:12:50.011Z</time></trkpt><trkpt lat="42.5648732628187" lon="11.528779174324077"><ele>245.66666666666669</ele><time>2026-04-30T11:12:51.011Z</time></trkpt><trkpt lat="42.56478876985273" lon="11.528567544385073"><ele>245.33333333333334</ele><time>2026-04-30T11:12:52.011Z</time></trkpt><trkpt lat="42.56470706463533" lon="11.528354150079334"><ele>245.0</ele><time>2026-04-30T11:12:53.011Z</time></trkpt><trkpt lat="42.56462023099852" lon="11.528147107717835"><ele>243.66666666666669</ele><time>2026-04-30T11:12:54.011Z</time></trkpt><trkpt lat="42.564528568603926" lon="11.527937224537302"><ele>242.33333333333331</ele><time>2026-04-30T11:12:55.011Z</time></trkpt><trkpt lat="42.564439199805435" lon="11.527726462831378"><ele>241.0</ele><time>2026-04-30T11:12:56.011Z</time></trkpt><trkpt lat="42.56435588040517" lon="11.527523301851975"><ele>240.33333333333331</ele><time>2026-04-30T11:12:57.011Z</time></trkpt><trkpt lat="42.56426909130695" lon="11.527327882802886"><ele>239.66666666666669</ele><time>2026-04-30T11:12:58.011Z</time></trkpt><trkpt lat="42.56417873164525" lon="11.527125657953034"><ele>239.0</ele><time>2026-04-30T11:12:59.011Z</time></trkpt><trkpt lat="42.564090629478976" lon="11.526927255373664"><ele>239.0</ele><time>2026-04-30T11:13:00.011Z</time></trkpt><trkpt lat="42.56400287269795" lon="11.526734305664915"><ele>239.0</ele><time>2026-04-30T11:13:01.011Z</time></trkpt><trkpt lat="42.56389829340207" lon="11.526548171221672"><ele>239.0</ele><time>2026-04-30T11:13:02.011Z</time></trkpt><trkpt lat="42.56378288580421" lon="11.526389311118745"><ele>239.33333333333334</ele><time>2026-04-30T11:13:03.011Z</time></trkpt><trkpt lat="42.56365017931438" lon="11.526258263643612"><ele>239.66666666666669</ele><time>2026-04-30T11:13:04.011Z</time></trkpt><trkpt lat="42.56350163227712" lon="11.526147345573593"><ele>240.0</ele><time>2026-04-30T11:13:05.011Z</time></trkpt><trkpt lat="42.56334027021221" lon="11.526065227148324"><ele>242.33333333333331</ele><time>2026-04-30T11:13:06.011Z</time></trkpt><trkpt lat="42.56316207953228" lon="11.526022001105561"><ele>244.66666666666666</ele><time>2026-04-30T11:13:07.011Z</time></trkpt><trkpt lat="42.56298582154327" lon="11.525986546460086"><ele>247.0</ele><time>2026-04-30T11:13:08.011Z</time></trkpt><trkpt lat="42.562810459348846" lon="11.525964870714137"><ele>247.33333333333331</ele><time>2026-04-30T11:13:09.011Z</time></trkpt><trkpt lat="42.562634768411336" lon="11.525929762751892"><ele>247.66666666666669</ele><time>2026-04-30T11:13:10.011Z</time></trkpt><trkpt lat="42.562461748876686" lon="11.525891268971451"><ele>248.0</ele><time>2026-04-30T11:13:11.011Z</time></trkpt><trkpt lat="42.56229110982639" lon="11.525847284247815"><ele>248.0</ele><time>2026-04-30T11:13:12.011Z</time></trkpt><trkpt lat="42.5621241124242" lon="11.525796379947087"><ele>248.0</ele><time>2026-04-30T11:13:13.011Z</time></trkpt><trkpt lat="42.561952727214056" lon="11.52573992306815"><ele>248.0</ele><time>2026-04-30T11:13:14.011Z</time></trkpt><trkpt lat="42.56178579086614" lon="11.52567427928343"><ele>247.66666666666669</ele><time>2026-04-30T11:13:15.011Z</time></trkpt><trkpt lat="42.561630046116235" lon="11.525592602121268"><ele>247.33333333333331</ele><time>2026-04-30T11:13:16.011Z</time></trkpt><trkpt lat="42.56147308536546" lon="11.525501231241078"><ele>247.0</ele><time>2026-04-30T11:13:17.011Z</time></trkpt><trkpt lat="42.561323401090974" lon="11.525393912672042"><ele>246.33333333333331</ele><time>2026-04-30T11:13:18.011Z</time></trkpt><trkpt lat="42.561173468647496" lon="11.525275334545485"><ele>245.66666666666669</ele><time>2026-04-30T11:13:19.011Z</time></trkpt><trkpt lat="42.561029675234906" lon="11.525138233060954"><ele>245.0</ele><time>2026-04-30T11:13:20.011Z</time></trkpt><trkpt lat="42.56089190664745" lon="11.524993939585414"><ele>245.0</ele><time>2026-04-30T11:13:21.011Z</time></trkpt><trkpt lat="42.56075636306592" lon="11.524840196066613"><ele>245.0</ele><time>2026-04-30T11:13:22.011Z</time></trkpt><trkpt lat="42.56062546558149" lon="11.524689823232032"><ele>245.0</ele><time>2026-04-30T11:13:23.012Z</time></trkpt><trkpt lat="42.560483516443135" lon="11.524555834105318"><ele>244.33333333333334</ele><time>2026-04-30T11:13:24.012Z</time></trkpt><trkpt lat="42.56034328563641" lon="11.524431112535563"><ele>243.66666666666669</ele><time>2026-04-30T11:13:25.012Z</time></trkpt><trkpt lat="42.560196575263" lon="11.524312611889755"><ele>243.0</ele><time>2026-04-30T11:13:26.012Z</time></trkpt><trkpt lat="42.56003195928069" lon="11.524201473909184"><ele>243.0</ele><time>2026-04-30T11:13:27.012Z</time></trkpt><trkpt lat="42.559875983778355" lon="11.52410600512625"><ele>243.0</ele><time>2026-04-30T11:13:28.012Z</time></trkpt><trkpt lat="42.559712382195265" lon="11.524013491957607"><ele>243.0</ele><time>2026-04-30T11:13:29.012Z</time></trkpt><trkpt lat="42.55954548278753" lon="11.523918255064311"><ele>241.33333333333331</ele><time>2026-04-30T11:13:30.012Z</time></trkpt><trkpt lat="42.55939244837153" lon="11.523830890740912"><ele>239.66666666666666</ele><time>2026-04-30T11:13:31.012Z</time></trkpt><trkpt lat="42.5592423308724" lon="11.523735142978794"><ele>238.0</ele><time>2026-04-30T11:13:32.012Z</time></trkpt><trkpt lat="42.55908767017982" lon="11.52363132999413"><ele>238.0</ele><time>2026-04-30T11:13:33.012Z</time></trkpt><trkpt lat="42.55892228985657" lon="11.523530376986484"><ele>238.0</ele><time>2026-04-30T11:13:34.012Z</time></trkpt><trkpt lat="42.558754188537264" lon="11.52343708598341"><ele>238.0</ele><time>2026-04-30T11:13:35.012Z</time></trkpt><trkpt lat="42.558588080599776" lon="11.523342182735702"><ele>236.66666666666666</ele><time>2026-04-30T11:13:36.012Z</time></trkpt><trkpt lat="42.558430390861695" lon="11.523243613764357"><ele>235.33333333333331</ele><time>2026-04-30T11:13:37.012Z</time></trkpt><trkpt lat="42.55827440273913" lon="11.52314967819605"><ele>234.0</ele><time>2026-04-30T11:13:38.012Z</time></trkpt><trkpt lat="42.55812633554489" lon="11.523061205889123"><ele>234.0</ele><time>2026-04-30T11:13:39.012Z</time></trkpt><trkpt lat="42.55799284389724" lon="11.522972729710217"><ele>234.0</ele><time>2026-04-30T11:13:40.012Z</time></trkpt><trkpt lat="42.55786924330405" lon="11.522894355369143"><ele>234.0</ele><time>2026-04-30T11:13:41.012Z</time></trkpt><trkpt lat="42.5577689640272" lon="11.522799141549257"><ele>234.0</ele><time>2026-04-30T11:13:42.012Z</time></trkpt><trkpt lat="42.55768034481072" lon="11.522677895817054"><ele>233.75</ele><time>2026-04-30T11:13:43.012Z</time></trkpt><trkpt lat="42.55759449904834" lon="11.522545836628193"><ele>233.5</ele><time>2026-04-30T11:13:44.012Z</time></trkpt><trkpt lat="42.557507441437885" lon="11.522412352628528"><ele>233.25</ele><time>2026-04-30T11:13:45.012Z</time></trkpt><trkpt lat="42.55741589361129" lon="11.522280434226525"><ele>233.0</ele><time>2026-04-30T11:13:46.012Z</time></trkpt><trkpt lat="42.557315184486455" lon="11.522153420838702"><ele>233.75</ele><time>2026-04-30T11:13:47.012Z</time></trkpt><trkpt lat="42.5572202533465" lon="11.522020049251479"><ele>234.5</ele><time>2026-04-30T11:13:48.012Z</time></trkpt><trkpt lat="42.55711315782623" lon="11.521875603647224"><ele>235.25</ele><time>2026-04-30T11:13:49.012Z</time></trkpt><trkpt lat="42.55702567386469" lon="11.521735284883292"><ele>236.0</ele><time>2026-04-30T11:13:50.012Z</time></trkpt><trkpt lat="42.556940002070625" lon="11.521606226659937"><ele>236.0</ele><time>2026-04-30T11:13:51.012Z</time></trkpt><trkpt lat="42.556846579970056" lon="11.521483514905675"><ele>236.0</ele><time>2026-04-30T11:13:52.012Z</time></trkpt><trkpt lat="42.55675715678446" lon="11.521372383922062"><ele>236.0</ele><time>2026-04-30T11:13:53.012Z</time></trkpt><trkpt lat="42.55666402272674" lon="11.52124830677691"><ele>236.0</ele><time>2026-04-30T11:13:54.012Z</time></trkpt><trkpt lat="42.55656563301664" lon="11.5211012245769"><ele>236.33333333333334</ele><time>2026-04-30T11:13:55.012Z</time></trkpt><trkpt lat="42.55645365639392" lon="11.520940428063753"><ele>236.66666666666669</ele><time>2026-04-30T11:13:56.012Z</time></trkpt><trkpt lat="42.556324208357445" lon="11.52077466147972"><ele>237.0</ele><time>2026-04-30T11:13:57.012Z</time></trkpt><trkpt lat="42.55620244227888" lon="11.520600257758943"><ele>236.0</ele><time>2026-04-30T11:13:58.012Z</time></trkpt><trkpt lat="42.55607275118072" lon="11.520416308356628"><ele>235.0</ele><time>2026-04-30T11:13:59.012Z</time></trkpt><trkpt lat="42.555941993294404" lon="11.520241130536332"><ele>234.0</ele><time>2026-04-30T11:14:00.012Z</time></trkpt><trkpt lat="42.55580819217109" lon="11.520066580336136"><ele>233.33333333333331</ele><time>2026-04-30T11:14:01.012Z</time></trkpt><trkpt lat="42.55567061204741" lon="11.519887223264533"><ele>232.66666666666666</ele><time>2026-04-30T11:14:02.012Z</time></trkpt><trkpt lat="42.55554605969626" lon="11.519714922966012"><ele>232.0</ele><time>2026-04-30T11:14:03.012Z</time></trkpt><trkpt lat="42.555416411287844" lon="11.51954937317518"><ele>232.33333333333331</ele><time>2026-04-30T11:14:04.012Z</time></trkpt><trkpt lat="42.555278895494986" lon="11.519376687078044"><ele>232.66666666666669</ele><time>2026-04-30T11:14:05.012Z</time></trkpt><trkpt lat="42.55514948501209" lon="11.519200658354578"><ele>233.0</ele><time>2026-04-30T11:14:06.012Z</time></trkpt><trkpt lat="42.55503584386416" lon="11.519014339682212"><ele>233.0</ele><time>2026-04-30T11:14:07.012Z</time></trkpt><trkpt lat="42.5549574851311" lon="11.518819999083004"><ele>233.0</ele><time>2026-04-30T11:14:08.012Z</time></trkpt><trkpt lat="42.55486770582146" lon="11.518647842795879"><ele>233.0</ele><time>2026-04-30T11:14:09.012Z</time></trkpt><trkpt lat="42.55481599303965" lon="11.518454626191684"><ele>233.5</ele><time>2026-04-30T11:14:10.012Z</time></trkpt><trkpt lat="42.55475474905854" lon="11.518264106680691"><ele>234.0</ele><time>2026-04-30T11:14:11.012Z</time></trkpt><trkpt lat="42.554695117281945" lon="11.51808622144002"><ele>234.5</ele><time>2026-04-30T11:14:12.012Z</time></trkpt><trkpt lat="42.55465562881774" lon="11.517928395467505"><ele>235.0</ele><time>2026-04-30T11:14:13.012Z</time></trkpt><trkpt lat="42.5546571874937" lon="11.517779971907835"><ele>235.5</ele><time>2026-04-30T11:14:14.012Z</time></trkpt><trkpt lat="42.554648553591754" lon="11.517603294354993"><ele>236.0</ele><time>2026-04-30T11:14:15.012Z</time></trkpt><trkpt lat="42.55464515342087" lon="11.517410717845856"><ele>236.5</ele><time>2026-04-30T11:14:16.012Z</time></trkpt><trkpt lat="42.554637019613075" lon="11.517203677999996"><ele>237.0</ele><time>2026-04-30T11:14:17.012Z</time></trkpt><trkpt lat="42.55464035735073" lon="11.516997328053225"><ele>237.0</ele><time>2026-04-30T11:14:18.012Z</time></trkpt><trkpt lat="42.55464090562625" lon="11.516795875643707"><ele>237.0</ele><time>2026-04-30T11:14:19.012Z</time></trkpt><trkpt lat="42.55464228956735" lon="11.516582681343019"><ele>237.0</ele><time>2026-04-30T11:14:20.012Z</time></trkpt><trkpt lat="42.554651278338625" lon="11.51639075920657"><ele>237.0</ele><time>2026-04-30T11:14:21.012Z</time></trkpt><trkpt lat="42.554645774016194" lon="11.51619110966194"><ele>236.75</ele><time>2026-04-30T11:14:22.012Z</time></trkpt><trkpt lat="42.55463678427419" lon="11.515999388434242"><ele>236.5</ele><time>2026-04-30T11:14:23.012Z</time></trkpt><trkpt lat="42.55463346251418" lon="11.515810316447093"><ele>236.25</ele><time>2026-04-30T11:14:24.012Z</time></trkpt><trkpt lat="42.554620068864494" lon="11.515619952611539"><ele>236.0</ele><time>2026-04-30T11:14:25.012Z</time></trkpt><trkpt lat="42.5546143623993" lon="11.51542491603931"><ele>236.0</ele><time>2026-04-30T11:14:26.012Z</time></trkpt><trkpt lat="42.55462243962182" lon="11.515230772862084"><ele>236.0</ele><time>2026-04-30T11:14:27.012Z</time></trkpt><trkpt lat="42.554641663110985" lon="11.515034207137935"><ele>236.0</ele><time>2026-04-30T11:14:28.012Z</time></trkpt><trkpt lat="42.55464729615334" lon="11.514844165682973"><ele>236.0</ele><time>2026-04-30T11:14:29.012Z</time></trkpt><trkpt lat="42.55466224386241" lon="11.514657256829025"><ele>236.75</ele><time>2026-04-30T11:14:30.012Z</time></trkpt><trkpt lat="42.55468932650962" lon="11.514465349080043"><ele>237.5</ele><time>2026-04-30T11:14:31.012Z</time></trkpt><trkpt lat="42.554711022489116" lon="11.514270176822137"><ele>238.25</ele><time>2026-04-30T11:14:32.012Z</time></trkpt><trkpt lat="42.55473029552736" lon="11.514061185990943"><ele>239.0</ele><time>2026-04-30T11:14:33.012Z</time></trkpt><trkpt lat="42.55474611657513" lon="11.513837475721184"><ele>239.5</ele><time>2026-04-30T11:14:34.012Z</time></trkpt><trkpt lat="42.55476633589456" lon="11.513630287838584"><ele>240.0</ele><time>2026-04-30T11:14:35.013Z</time></trkpt><trkpt lat="42.55478099910878" lon="11.513427269224188"><ele>240.5</ele><time>2026-04-30T11:14:36.013Z</time></trkpt><trkpt lat="42.554787439666896" lon="11.513235749112198"><ele>241.0</ele><time>2026-04-30T11:14:37.013Z</time></trkpt><trkpt lat="42.55476979645716" lon="11.513088399066287"><ele>241.0</ele><time>2026-04-30T11:14:38.013Z</time></trkpt><trkpt lat="42.55472634778165" lon="11.512940618971887"><ele>241.0</ele><time>2026-04-30T11:14:39.013Z</time></trkpt><trkpt lat="42.554672192707436" lon="11.512803945777351"><ele>241.0</ele><time>2026-04-30T11:14:40.013Z</time></trkpt><trkpt lat="42.55462067471156" lon="11.512667248884993"><ele>241.0</ele><time>2026-04-30T11:14:41.013Z</time></trkpt><trkpt lat="42.55458526528455" lon="11.512518695532055"><ele>241.66666666666666</ele><time>2026-04-30T11:14:42.013Z</time></trkpt><trkpt lat="42.55452365428313" lon="11.512355048163295"><ele>242.33333333333331</ele><time>2026-04-30T11:14:43.013Z</time></trkpt><trkpt lat="42.554451856419945" lon="11.512151058592169"><ele>243.0</ele><time>2026-04-30T11:14:44.013Z</time></trkpt><trkpt lat="42.55437821323811" lon="11.511929340721338"><ele>243.0</ele><time>2026-04-30T11:14:45.013Z</time></trkpt><trkpt lat="42.55430490036491" lon="11.511708020995847"><ele>243.0</ele><time>2026-04-30T11:14:46.013Z</time></trkpt><trkpt lat="42.554231985732855" lon="11.511506035712735"><ele>243.0</ele><time>2026-04-30T11:14:47.013Z</time></trkpt><trkpt lat="42.55414342203453" lon="11.511311832113224"><ele>243.25</ele><time>2026-04-30T11:14:48.013Z</time></trkpt><trkpt lat="42.55404610732247" lon="11.511135740535051"><ele>243.5</ele><time>2026-04-30T11:14:49.013Z</time></trkpt><trkpt lat="42.5539306276744" lon="11.511038989502893"><ele>243.75</ele><time>2026-04-30T11:14:50.013Z</time></trkpt><trkpt lat="42.553816839296104" lon="11.510915790229932"><ele>244.0</ele><time>2026-04-30T11:14:51.013Z</time></trkpt><trkpt lat="42.55366637821739" lon="11.510823307315627"><ele>244.0</ele><time>2026-04-30T11:14:52.013Z</time></trkpt><trkpt lat="42.55349744727361" lon="11.510732920306502"><ele>244.0</ele><time>2026-04-30T11:14:53.013Z</time></trkpt><trkpt lat="42.55333823917477" lon="11.510633378010235"><ele>244.0</ele><time>2026-04-30T11:14:54.013Z</time></trkpt><trkpt lat="42.55315723495209" lon="11.510500393840434"><ele>242.66666666666666</ele><time>2026-04-30T11:14:55.013Z</time></trkpt><trkpt lat="42.552955569511546" lon="11.510368002866834"><ele>241.33333333333331</ele><time>2026-04-30T11:14:56.013Z</time></trkpt><trkpt lat="42.55275197683756" lon="11.51025382152926"><ele>240.0</ele><time>2026-04-30T11:14:57.013Z</time></trkpt><trkpt lat="42.55255638584021" lon="11.510112930158595"><ele>238.0</ele><time>2026-04-30T11:14:58.013Z</time></trkpt><trkpt lat="42.552352006862236" lon="11.509968847681705"><ele>236.0</ele><time>2026-04-30T11:14:59.013Z</time></trkpt><trkpt lat="42.5521431806916" lon="11.509829987382483"><ele>235.0</ele><time>2026-04-30T11:15:00.013Z</time></trkpt><trkpt lat="42.55193606013076" lon="11.509682705663087"><ele>234.0</ele><time>2026-04-30T11:15:01.013Z</time></trkpt><trkpt lat="42.551728428909925" lon="11.509533472019267"><ele>233.66666666666669</ele><time>2026-04-30T11:15:02.013Z</time></trkpt><trkpt lat="42.55151500804006" lon="11.50939995025414"><ele>233.33333333333334</ele><time>2026-04-30T11:15:03.013Z</time></trkpt><trkpt lat="42.5513219210752" lon="11.5092738184469"><ele>233.0</ele><time>2026-04-30T11:15:04.013Z</time></trkpt><trkpt lat="42.55114334602642" lon="11.509152469260615"><ele>233.0</ele><time>2026-04-30T11:15:05.013Z</time></trkpt><trkpt lat="42.55096675422437" lon="11.509042911751546"><ele>233.0</ele><time>2026-04-30T11:15:06.013Z</time></trkpt><trkpt lat="42.55080169999069" lon="11.508938761736847"><ele>233.0</ele><time>2026-04-30T11:15:07.013Z</time></trkpt><trkpt lat="42.55064169763843" lon="11.50883344296122"><ele>232.0</ele><time>2026-04-30T11:15:08.013Z</time></trkpt><trkpt lat="42.55047558910081" lon="11.50872709570243"><ele>231.0</ele><time>2026-04-30T11:15:09.013Z</time></trkpt><trkpt lat="42.55029403801516" lon="11.50861091264252"><ele>230.0</ele><time>2026-04-30T11:15:10.013Z</time></trkpt><trkpt lat="42.55011592631345" lon="11.508503153730958"><ele>229.33333333333334</ele><time>2026-04-30T11:15:11.013Z</time></trkpt><trkpt lat="42.54994228294709" lon="11.50840926762313"><ele>228.66666666666669</ele><time>2026-04-30T11:15:12.013Z</time></trkpt><trkpt lat="42.54978558426862" lon="11.508325281293521"><ele>228.0</ele><time>2026-04-30T11:15:13.013Z</time></trkpt><trkpt lat="42.54965554231009" lon="11.508262411076064"><ele>228.66666666666669</ele><time>2026-04-30T11:15:14.013Z</time></trkpt><trkpt lat="42.54952591505188" lon="11.508194328674854"><ele>229.33333333333334</ele><time>2026-04-30T11:15:15.013Z</time></trkpt><trkpt lat="42.54938089745618" lon="11.508123939396162"><ele>230.0</ele><time>2026-04-30T11:15:16.013Z</time></trkpt><trkpt lat="42.549234696840905" lon="11.508042764613181"><ele>230.0</ele><time>2026-04-30T11:15:17.013Z</time></trkpt><trkpt lat="42.54909917952572" lon="11.507932279241354"><ele>230.0</ele><time>2026-04-30T11:15:18.013Z</time></trkpt><trkpt lat="42.548956394492734" lon="11.50781297484355"><ele>230.0</ele><time>2026-04-30T11:15:19.013Z</time></trkpt><trkpt lat="42.54881492590731" lon="11.507680498126568"><ele>229.33333333333334</ele><time>2026-04-30T11:15:20.013Z</time></trkpt><trkpt lat="42.548681712296144" lon="11.507537965919411"><ele>228.66666666666669</ele><time>2026-04-30T11:15:21.013Z</time></trkpt><trkpt lat="42.54854327029673" lon="11.507387480152977"><ele>228.0</ele><time>2026-04-30T11:15:22.013Z</time></trkpt><trkpt lat="42.54839790902008" lon="11.50725327314823"><ele>228.0</ele><time>2026-04-30T11:15:23.013Z</time></trkpt><trkpt lat="42.548252391647296" lon="11.50709472167315"><ele>228.0</ele><time>2026-04-30T11:15:24.013Z</time></trkpt><trkpt lat="42.54810154735694" lon="11.506940260060299"><ele>228.0</ele><time>2026-04-30T11:15:25.013Z</time></trkpt><trkpt lat="42.54793640826523" lon="11.506784396536624"><ele>225.33333333333331</ele><time>2026-04-30T11:15:26.013Z</time></trkpt><trkpt lat="42.547774019677455" lon="11.506629585413512"><ele>222.66666666666666</ele><time>2026-04-30T11:15:27.013Z</time></trkpt><trkpt lat="42.54761498741015" lon="11.5064684384149"><ele>220.0</ele><time>2026-04-30T11:15:28.013Z</time></trkpt><trkpt lat="42.54747082661022" lon="11.506318302203857"><ele>219.33333333333331</ele><time>2026-04-30T11:15:29.013Z</time></trkpt><trkpt lat="42.547318616223016" lon="11.506156029740144"><ele>218.66666666666669</ele><time>2026-04-30T11:15:30.013Z</time></trkpt><trkpt lat="42.54717175443701" lon="11.505976097304742"><ele>218.0</ele><time>2026-04-30T11:15:31.013Z</time></trkpt><trkpt lat="42.54703183068205" lon="11.505813355686831"><ele>217.66666666666669</ele><time>2026-04-30T11:15:32.013Z</time></trkpt><trkpt lat="42.54689174380419" lon="11.505628790553436"><ele>217.33333333333331</ele><time>2026-04-30T11:15:33.013Z</time></trkpt><trkpt lat="42.54674944664335" lon="11.50542038958252"><ele>217.0</ele><time>2026-04-30T11:15:34.013Z</time></trkpt><trkpt lat="42.546609317172525" lon="11.505214132942328"><ele>216.33333333333331</ele><time>2026-04-30T11:15:35.013Z</time></trkpt><trkpt lat="42.54645597090889" lon="11.505010641195172"><ele>215.66666666666669</ele><time>2026-04-30T11:15:36.013Z</time></trkpt><trkpt lat="42.54631548749894" lon="11.504797494089763"><ele>215.0</ele><time>2026-04-30T11:15:37.013Z</time></trkpt><trkpt lat="42.54617444050592" lon="11.504589317016395"><ele>214.0</ele><time>2026-04-30T11:15:38.013Z</time></trkpt><trkpt lat="42.54602837975559" lon="11.50438048784058"><ele>213.0</ele><time>2026-04-30T11:15:39.013Z</time></trkpt><trkpt lat="42.54588057505634" lon="11.504164580058777"><ele>212.0</ele><time>2026-04-30T11:15:40.013Z</time></trkpt><trkpt lat="42.545727977079714" lon="11.50394428243439"><ele>211.33333333333334</ele><time>2026-04-30T11:15:41.013Z</time></trkpt><trkpt lat="42.545577583002604" lon="11.503715860952408"><ele>210.66666666666669</ele><time>2026-04-30T11:15:42.013Z</time></trkpt><trkpt lat="42.545440642076706" lon="11.503511123464166"><ele>210.0</ele><time>2026-04-30T11:15:43.013Z</time></trkpt><trkpt lat="42.54530114897514" lon="11.503300557932763"><ele>210.0</ele><time>2026-04-30T11:15:44.013Z</time></trkpt><trkpt lat="42.545174388341586" lon="11.503074808120152"><ele>210.0</ele><time>2026-04-30T11:15:45.013Z</time></trkpt><trkpt lat="42.54502717456121" lon="11.502881701711411"><ele>210.0</ele><time>2026-04-30T11:15:46.013Z</time></trkpt><trkpt lat="42.54489856430435" lon="11.502646870717353"><ele>210.0</ele><time>2026-04-30T11:15:47.014Z</time></trkpt><trkpt lat="42.54475994177563" lon="11.5024285578738"><ele>210.0</ele><time>2026-04-30T11:15:48.014Z</time></trkpt><trkpt lat="42.544606978309" lon="11.502200479435643"><ele>210.0</ele><time>2026-04-30T11:15:49.014Z</time></trkpt><trkpt lat="42.54446209107032" lon="11.501984872491882"><ele>209.66666666666669</ele><time>2026-04-30T11:15:50.014Z</time></trkpt><trkpt lat="42.54431984635229" lon="11.501771827560328"><ele>209.33333333333334</ele><time>2026-04-30T11:15:51.014Z</time></trkpt><trkpt lat="42.54418653400778" lon="11.501561366435064"><ele>209.0</ele><time>2026-04-30T11:15:52.014Z</time></trkpt><trkpt lat="42.54406224406774" lon="11.501362495070437"><ele>208.0</ele><time>2026-04-30T11:15:53.014Z</time></trkpt><trkpt lat="42.543940164476055" lon="11.50119890237855"><ele>207.0</ele><time>2026-04-30T11:15:54.014Z</time></trkpt><trkpt lat="42.543818479578775" lon="11.501043572955654"><ele>206.0</ele><time>2026-04-30T11:15:55.014Z</time></trkpt><trkpt lat="42.543696726017714" lon="11.500933215309498"><ele>206.0</ele><time>2026-04-30T11:15:56.014Z</time></trkpt><trkpt lat="42.543566990919544" lon="11.500833572770068"><ele>206.0</ele><time>2026-04-30T11:15:57.014Z</time></trkpt><trkpt lat="42.543405901238934" lon="11.500741250737864"><ele>206.0</ele><time>2026-04-30T11:15:58.014Z</time></trkpt><trkpt lat="42.54321199712199" lon="11.500598090311591"><ele>206.0</ele><time>2026-04-30T11:15:59.014Z</time></trkpt><trkpt lat="42.54300517551918" lon="11.500445478178234"><ele>206.0</ele><time>2026-04-30T11:16:00.014Z</time></trkpt><trkpt lat="42.54283826052447" lon="11.500299411757801"><ele>206.0</ele><time>2026-04-30T11:16:01.014Z</time></trkpt><trkpt lat="42.5426886442797" lon="11.500152568308645"><ele>205.33333333333334</ele><time>2026-04-30T11:16:02.014Z</time></trkpt><trkpt lat="42.54254824431445" lon="11.500014058360735"><ele>204.66666666666669</ele><time>2026-04-30T11:16:03.014Z</time></trkpt><trkpt lat="42.542431302510586" lon="11.499887723061715"><ele>204.0</ele><time>2026-04-30T11:16:04.014Z</time></trkpt><trkpt lat="42.542317343905204" lon="11.499803801106749"><ele>204.0</ele><time>2026-04-30T11:16:05.014Z</time></trkpt><trkpt lat="42.542198915073584" lon="11.499750786239046"><ele>204.0</ele><time>2026-04-30T11:16:06.014Z</time></trkpt><trkpt lat="42.54208636028343" lon="11.499708578492386"><ele>204.0</ele><time>2026-04-30T11:16:07.014Z</time></trkpt><trkpt lat="42.541968419729244" lon="11.499668117033083"><ele>204.0</ele><time>2026-04-30T11:16:08.014Z</time></trkpt><trkpt lat="42.541864975218914" lon="11.499586895534401"><ele>202.75</ele><time>2026-04-30T11:16:09.014Z</time></trkpt><trkpt lat="42.54178011985436" lon="11.499480820165303"><ele>201.5</ele><time>2026-04-30T11:16:10.014Z</time></trkpt><trkpt lat="42.5416772977135" lon="11.499355873768577"><ele>200.25</ele><time>2026-04-30T11:16:11.014Z</time></trkpt><trkpt lat="42.54157552651631" lon="11.499239217687887"><ele>199.0</ele><time>2026-04-30T11:16:12.014Z</time></trkpt><trkpt lat="42.54146833579044" lon="11.49911634934572"><ele>199.0</ele><time>2026-04-30T11:16:13.014Z</time></trkpt><trkpt lat="42.541375265390826" lon="11.499004349145462"><ele>199.0</ele><time>2026-04-30T11:16:14.014Z</time></trkpt><trkpt lat="42.541296675172546" lon="11.49889524774907"><ele>199.0</ele><time>2026-04-30T11:16:15.014Z</time></trkpt><trkpt lat="42.54124484099028" lon="11.498799212331502"><ele>199.0</ele><time>2026-04-30T11:16:16.014Z</time></trkpt><trkpt lat="42.541225419435364" lon="11.49870166692373"><ele>199.0</ele><time>2026-04-30T11:16:17.014Z</time></trkpt><trkpt lat="42.54120867114555" lon="11.498598788122672"><ele>195.79999999999998</ele><time>2026-04-30T11:16:18.014Z</time></trkpt><trkpt lat="42.54121437796679" lon="11.498451834603408"><ele>192.6</ele><time>2026-04-30T11:16:19.014Z</time></trkpt><trkpt lat="42.541180218936645" lon="11.49830928962414"><ele>189.4</ele><time>2026-04-30T11:16:20.014Z</time></trkpt><trkpt lat="42.541152927489776" lon="11.498160547138404"><ele>186.2</ele><time>2026-04-30T11:16:21.014Z</time></trkpt><trkpt lat="42.54109469011987" lon="11.498036392579845"><ele>183.0</ele><time>2026-04-30T11:16:22.014Z</time></trkpt><trkpt lat="42.54102901973451" lon="11.497940527852876"><ele>183.0</ele><time>2026-04-30T11:16:23.014Z</time></trkpt><trkpt lat="42.540948822124996" lon="11.497829874605475"><ele>183.0</ele><time>2026-04-30T11:16:24.014Z</time></trkpt><trkpt lat="42.540852727813856" lon="11.497725749868644"><ele>183.0</ele><time>2026-04-30T11:16:25.014Z</time></trkpt><trkpt lat="42.54074977117117" lon="11.497606494936985"><ele>183.0</ele><time>2026-04-30T11:16:26.014Z</time></trkpt><trkpt lat="42.54064577614997" lon="11.497487071411285"><ele>183.0</ele><time>2026-04-30T11:16:27.014Z</time></trkpt><trkpt lat="42.54055009610837" lon="11.49739891923536"><ele>183.0</ele><time>2026-04-30T11:16:28.014Z</time></trkpt><trkpt lat="42.54047050333712" lon="11.49737337642593"><ele>183.0</ele><time>2026-04-30T11:16:29.014Z</time></trkpt><trkpt lat="42.54038748460803" lon="11.497359678359333"><ele>183.0</ele><time>2026-04-30T11:16:30.014Z</time></trkpt><trkpt lat="42.54030334990675" lon="11.497426097159636"><ele>183.0</ele><time>2026-04-30T11:16:31.014Z</time></trkpt><trkpt lat="42.54021393186812" lon="11.497503625585638"><ele>186.5</ele><time>2026-04-30T11:16:32.014Z</time></trkpt><trkpt lat="42.54011700313769" lon="11.497575560431184"><ele>190.0</ele><time>2026-04-30T11:16:33.014Z</time></trkpt><trkpt lat="42.540007372378085" lon="11.497652488870749"><ele>193.5</ele><time>2026-04-30T11:16:34.014Z</time></trkpt><trkpt lat="42.53988711374533" lon="11.49770814826444"><ele>197.0</ele><time>2026-04-30T11:16:35.014Z</time></trkpt><trkpt lat="42.53977805325628" lon="11.49772969873715"><ele>197.0</ele><time>2026-04-30T11:16:36.014Z</time></trkpt><trkpt lat="42.53967631637954" lon="11.497729878380989"><ele>197.0</ele><time>2026-04-30T11:16:37.014Z</time></trkpt><trkpt lat="42.5395931690055" lon="11.497674404701424"><ele>197.0</ele><time>2026-04-30T11:16:38.014Z</time></trkpt><trkpt lat="42.53952289441553" lon="11.497604787401343"><ele>197.0</ele><time>2026-04-30T11:16:39.014Z</time></trkpt><trkpt lat="42.53945208454857" lon="11.497515538951538"><ele>197.0</ele><time>2026-04-30T11:16:40.014Z</time></trkpt><trkpt lat="42.53939153493645" lon="11.497415407305933"><ele>198.75</ele><time>2026-04-30T11:16:41.014Z</time></trkpt><trkpt lat="42.5393366543723" lon="11.497286409275208"><ele>200.5</ele><time>2026-04-30T11:16:42.014Z</time></trkpt><trkpt lat="42.539265499620875" lon="11.497127033357355"><ele>202.25</ele><time>2026-04-30T11:16:43.014Z</time></trkpt><trkpt lat="42.53918211207793" lon="11.49697862911504"><ele>204.0</ele><time>2026-04-30T11:16:44.014Z</time></trkpt><trkpt lat="42.53910995611604" lon="11.496836394753876"><ele>204.79999999999998</ele><time>2026-04-30T11:16:45.014Z</time></trkpt><trkpt lat="42.5390443371179" lon="11.496702143302477"><ele>205.6</ele><time>2026-04-30T11:16:46.014Z</time></trkpt><trkpt lat="42.53896832717454" lon="11.496576107394173"><ele>206.4</ele><time>2026-04-30T11:16:47.014Z</time></trkpt><trkpt lat="42.538919194960386" lon="11.496479931730375"><ele>207.2</ele><time>2026-04-30T11:16:48.014Z</time></trkpt><trkpt lat="42.53886768379329" lon="11.496396278106166"><ele>208.0</ele><time>2026-04-30T11:16:50.014Z</time></trkpt><trkpt lat="42.5388446751984" lon="11.4963148476442"><ele>208.0</ele><time>2026-04-30T11:17:00.015Z</time></trkpt><trkpt lat="42.538803091898174" lon="11.49624427647799"><ele>208.0</ele><time>2026-04-30T11:17:13.015Z</time></trkpt><trkpt lat="42.538791698613515" lon="11.496155248323186"><ele>208.0</ele><time>2026-04-30T11:17:14.015Z</time></trkpt><trkpt lat="42.53877199228087" lon="11.496016791225639"><ele>208.0</ele><time>2026-04-30T11:17:15.015Z</time></trkpt><trkpt lat="42.53873571692751" lon="11.495872362324157"><ele>208.0</ele><time>2026-04-30T11:17:16.015Z</time></trkpt><trkpt lat="42.53867239091753" lon="11.49574843829547"><ele>206.8</ele><time>2026-04-30T11:17:17.015Z</time></trkpt><trkpt lat="42.538617369768396" lon="11.495628810156202"><ele>205.60000000000002</ele><time>2026-04-30T11:17:18.015Z</time></trkpt><trkpt lat="42.538538915276725" lon="11.495525673072033"><ele>204.39999999999998</ele><time>2026-04-30T11:17:19.015Z</time></trkpt><trkpt lat="42.53847810085489" lon="11.49541056069194"><ele>203.2</ele><time>2026-04-30T11:17:20.015Z</time></trkpt><trkpt lat="42.5384071143412" lon="11.495343504757747"><ele>202.0</ele><time>2026-04-30T11:17:21.015Z</time></trkpt><trkpt lat="42.53834754792015" lon="11.495302556740212"><ele>202.0</ele><time>2026-04-30T11:17:22.015Z</time></trkpt><trkpt lat="42.53824164745208" lon="11.495347430955556"><ele>202.0</ele><time>2026-04-30T11:17:24.015Z</time></trkpt><trkpt lat="42.53818129150156" lon="11.495419391206003"><ele>202.0</ele><time>2026-04-30T11:17:25.015Z</time></trkpt><trkpt lat="42.53810644760723" lon="11.495491218457948"><ele>202.0</ele><time>2026-04-30T11:17:26.015Z</time></trkpt><trkpt lat="42.538009966412375" lon="11.495597493829596"><ele>202.0</ele><time>2026-04-30T11:17:27.015Z</time></trkpt><trkpt lat="42.53793647602942" lon="11.495707590067752"><ele>200.6</ele><time>2026-04-30T11:17:28.015Z</time></trkpt><trkpt lat="42.53787672801009" lon="11.495819492218903"><ele>199.2</ele><time>2026-04-30T11:17:29.015Z</time></trkpt><trkpt lat="42.53781934768102" lon="11.495890012516368"><ele>197.8</ele><time>2026-04-30T11:17:30.015Z</time></trkpt><trkpt lat="42.537724163556156" lon="11.495931750256046"><ele>196.4</ele><time>2026-04-30T11:17:32.015Z</time></trkpt><trkpt lat="42.537635769856074" lon="11.495955707613104"><ele>195.0</ele><time>2026-04-30T11:17:33.015Z</time></trkpt><trkpt lat="42.5375145887261" lon="11.495955380166102"><ele>195.0</ele><time>2026-04-30T11:17:34.015Z</time></trkpt><trkpt lat="42.537402966746605" lon="11.495955645013478"><ele>195.0</ele><time>2026-04-30T11:17:35.015Z</time></trkpt><trkpt lat="42.53728804382629" lon="11.495923125162768"><ele>195.0</ele><time>2026-04-30T11:17:36.015Z</time></trkpt><trkpt lat="42.53718419705088" lon="11.495893752304102"><ele>195.0</ele><time>2026-04-30T11:17:37.015Z</time></trkpt><trkpt lat="42.5370929540433" lon="11.495842500206109"><ele>195.0</ele><time>2026-04-30T11:17:38.015Z</time></trkpt><trkpt lat="42.537002993675884" lon="11.495767745225042"><ele>194.5</ele><time>2026-04-30T11:17:39.015Z</time></trkpt><trkpt lat="42.53689287156868" lon="11.495680998736086"><ele>194.0</ele><time>2026-04-30T11:17:40.015Z</time></trkpt><trkpt lat="42.53677199976074" lon="11.495561134185904"><ele>193.5</ele><time>2026-04-30T11:17:41.015Z</time></trkpt><trkpt lat="42.53661908774618" lon="11.495484660572837"><ele>193.0</ele><time>2026-04-30T11:17:42.015Z</time></trkpt><trkpt lat="42.536489796229176" lon="11.495402293622695"><ele>193.0</ele><time>2026-04-30T11:17:43.015Z</time></trkpt><trkpt lat="42.53638881864421" lon="11.495291084582298"><ele>193.0</ele><time>2026-04-30T11:17:44.015Z</time></trkpt><trkpt lat="42.536296584104136" lon="11.495203049789964"><ele>193.0</ele><time>2026-04-30T11:17:45.015Z</time></trkpt><trkpt lat="42.53618178117881" lon="11.495083344564346"><ele>193.0</ele><time>2026-04-30T11:17:46.015Z</time></trkpt><trkpt lat="42.53606883512842" lon="11.494956302677425"><ele>192.25</ele><time>2026-04-30T11:17:47.015Z</time></trkpt><trkpt lat="42.535967741735206" lon="11.494849410111465"><ele>191.5</ele><time>2026-04-30T11:17:48.015Z</time></trkpt><trkpt lat="42.53587474389838" lon="11.49476076901752"><ele>190.75</ele><time>2026-04-30T11:17:49.015Z</time></trkpt><trkpt lat="42.5357791967001" lon="11.49470380519478"><ele>190.0</ele><time>2026-04-30T11:17:50.015Z</time></trkpt><trkpt lat="42.53565522852276" lon="11.494661015491166"><ele>190.0</ele><time>2026-04-30T11:17:51.015Z</time></trkpt><trkpt lat="42.53551001546688" lon="11.49459995478546"><ele>190.0</ele><time>2026-04-30T11:17:52.015Z</time></trkpt><trkpt lat="42.53536515774994" lon="11.494520651685267"><ele>190.0</ele><time>2026-04-30T11:17:53.015Z</time></trkpt><trkpt lat="42.53521474337648" lon="11.494443073494692"><ele>188.5</ele><time>2026-04-30T11:17:54.015Z</time></trkpt><trkpt lat="42.53507630019235" lon="11.494336300513245"><ele>187.0</ele><time>2026-04-30T11:17:55.015Z</time></trkpt><trkpt lat="42.534959781274964" lon="11.494291435082607"><ele>185.5</ele><time>2026-04-30T11:17:56.015Z</time></trkpt><trkpt lat="42.53484225169652" lon="11.494210560259843"><ele>184.0</ele><time>2026-04-30T11:17:57.015Z</time></trkpt><trkpt lat="42.53469479244834" lon="11.494162783431234"><ele>183.0</ele><time>2026-04-30T11:17:58.015Z</time></trkpt><trkpt lat="42.53453890742923" lon="11.49414186310093"><ele>182.0</ele><time>2026-04-30T11:17:59.015Z</time></trkpt><trkpt lat="42.53440621105212" lon="11.494153770367715"><ele>181.0</ele><time>2026-04-30T11:18:00.015Z</time></trkpt><trkpt lat="42.534285488536185" lon="11.494140536220828"><ele>180.0</ele><time>2026-04-30T11:18:01.015Z</time></trkpt><trkpt lat="42.53416586112631" lon="11.494114956836937"><ele>180.0</ele><time>2026-04-30T11:18:02.015Z</time></trkpt><trkpt lat="42.534050822374034" lon="11.494072118766674"><ele>180.0</ele><time>2026-04-30T11:18:03.015Z</time></trkpt><trkpt lat="42.53394568466639" lon="11.49400047810968"><ele>180.0</ele><time>2026-04-30T11:18:04.015Z</time></trkpt><trkpt lat="42.53384051570577" lon="11.493940563714647"><ele>180.0</ele><time>2026-04-30T11:18:05.015Z</time></trkpt><trkpt lat="42.5337429280888" lon="11.493880563308219"><ele>180.25</ele><time>2026-04-30T11:18:06.015Z</time></trkpt><trkpt lat="42.53362313185574" lon="11.493792220607148"><ele>180.5</ele><time>2026-04-30T11:18:07.015Z</time></trkpt><trkpt lat="42.533480900347065" lon="11.493704955519219"><ele>180.75</ele><time>2026-04-30T11:18:08.015Z</time></trkpt><trkpt lat="42.53333104030816" lon="11.493649076010666"><ele>181.0</ele><time>2026-04-30T11:18:09.015Z</time></trkpt><trkpt lat="42.53318930956454" lon="11.493612909207386"><ele>180.75</ele><time>2026-04-30T11:18:10.015Z</time></trkpt><trkpt lat="42.533066483617056" lon="11.49357801941245"><ele>180.5</ele><time>2026-04-30T11:18:11.016Z</time></trkpt><trkpt lat="42.53296534785836" lon="11.493515829860884"><ele>180.25</ele><time>2026-04-30T11:18:12.016Z</time></trkpt><trkpt lat="42.532869492604554" lon="11.493427667283042"><ele>180.0</ele><time>2026-04-30T11:18:13.016Z</time></trkpt><trkpt lat="42.532730629990894" lon="11.493335502472272"><ele>180.0</ele><time>2026-04-30T11:18:14.016Z</time></trkpt><trkpt lat="42.53259482497692" lon="11.493217916119674"><ele>180.0</ele><time>2026-04-30T11:18:15.016Z</time></trkpt><trkpt lat="42.5324605271261" lon="11.493103019664808"><ele>180.0</ele><time>2026-04-30T11:18:16.016Z</time></trkpt><trkpt lat="42.53233957242447" lon="11.492987907369066"><ele>178.5</ele><time>2026-04-30T11:18:17.016Z</time></trkpt><trkpt lat="42.53221808772348" lon="11.492889190159477"><ele>177.0</ele><time>2026-04-30T11:18:18.016Z</time></trkpt><trkpt lat="42.532113990244156" lon="11.492789581159391"><ele>175.5</ele><time>2026-04-30T11:18:19.016Z</time></trkpt><trkpt lat="42.53201703805519" lon="11.492705205166052"><ele>174.0</ele><time>2026-04-30T11:18:20.016Z</time></trkpt><trkpt lat="42.53191779981545" lon="11.492614513449778"><ele>174.0</ele><time>2026-04-30T11:18:21.016Z</time></trkpt><trkpt lat="42.53182676488183" lon="11.492512456070903"><ele>174.0</ele><time>2026-04-30T11:18:22.016Z</time></trkpt><trkpt lat="42.53176022537324" lon="11.492407662364311"><ele>174.0</ele><time>2026-04-30T11:18:23.016Z</time></trkpt><trkpt lat="42.53168174778046" lon="11.492277325908637"><ele>174.0</ele><time>2026-04-30T11:18:24.016Z</time></trkpt><trkpt lat="42.53159491061793" lon="11.49218200040101"><ele>174.0</ele><time>2026-04-30T11:18:25.016Z</time></trkpt><trkpt lat="42.531497690446145" lon="11.492097903927782"><ele>174.0</ele><time>2026-04-30T11:18:26.016Z</time></trkpt><trkpt lat="42.53138893279148" lon="11.492019242322359"><ele>174.0</ele><time>2026-04-30T11:18:27.016Z</time></trkpt><trkpt lat="42.531263884557546" lon="11.491907059840527"><ele>174.0</ele><time>2026-04-30T11:18:28.016Z</time></trkpt><trkpt lat="42.53115004258589" lon="11.491806510085615"><ele>172.0</ele><time>2026-04-30T11:18:29.016Z</time></trkpt><trkpt lat="42.531074351277624" lon="11.491692227088052"><ele>170.0</ele><time>2026-04-30T11:18:30.016Z</time></trkpt><trkpt lat="42.53100618696725" lon="11.491589654408056"><ele>168.0</ele><time>2026-04-30T11:18:31.016Z</time></trkpt><trkpt lat="42.530943048318896" lon="11.491483204966935"><ele>166.0</ele><time>2026-04-30T11:18:32.016Z</time></trkpt><trkpt lat="42.530888681172705" lon="11.491333287081547"><ele>164.0</ele><time>2026-04-30T11:18:33.016Z</time></trkpt><trkpt lat="42.530848810548086" lon="11.49117061671809"><ele>163.33333333333331</ele><time>2026-04-30T11:18:34.016Z</time></trkpt><trkpt lat="42.53079771711681" lon="11.491000851928368"><ele>162.66666666666666</ele><time>2026-04-30T11:18:35.016Z</time></trkpt><trkpt lat="42.530732330677196" lon="11.49079477840679"><ele>162.0</ele><time>2026-04-30T11:18:36.016Z</time></trkpt><trkpt lat="42.530671770734344" lon="11.490569657858728"><ele>161.0</ele><time>2026-04-30T11:18:37.016Z</time></trkpt><trkpt lat="42.53061453655281" lon="11.490377423840908"><ele>160.0</ele><time>2026-04-30T11:18:38.016Z</time></trkpt><trkpt lat="42.530555728043424" lon="11.490198893838988"><ele>159.0</ele><time>2026-04-30T11:18:39.016Z</time></trkpt><trkpt lat="42.53048532100641" lon="11.490023363529431"><ele>158.0</ele><time>2026-04-30T11:18:40.016Z</time></trkpt><trkpt lat="42.53042165665817" lon="11.489880121478556"><ele>157.0</ele><time>2026-04-30T11:18:41.016Z</time></trkpt><trkpt lat="42.53035887807991" lon="11.489752138562013"><ele>156.0</ele><time>2026-04-30T11:18:42.016Z</time></trkpt><trkpt lat="42.530294299376784" lon="11.489612245146597"><ele>155.0</ele><time>2026-04-30T11:18:43.016Z</time></trkpt><trkpt lat="42.53020332204897" lon="11.489504689238347"><ele>154.0</ele><time>2026-04-30T11:18:44.016Z</time></trkpt><trkpt lat="42.530131063264605" lon="11.489393482056458"><ele>154.0</ele><time>2026-04-30T11:18:45.016Z</time></trkpt><trkpt lat="42.5300803312195" lon="11.489279469043604"><ele>154.0</ele><time>2026-04-30T11:18:46.016Z</time></trkpt><trkpt lat="42.5300406665932" lon="11.489185196895091"><ele>154.0</ele><time>2026-04-30T11:18:47.016Z</time></trkpt><trkpt lat="42.53001834851835" lon="11.489093355568654"><ele>154.0</ele><time>2026-04-30T11:18:48.016Z</time></trkpt><trkpt lat="42.530000391344615" lon="11.488960661489548"><ele>154.0</ele><time>2026-04-30T11:18:49.016Z</time></trkpt><trkpt lat="42.52999580277568" lon="11.488840208628432"><ele>154.0</ele><time>2026-04-30T11:18:50.016Z</time></trkpt><trkpt lat="42.530011673586564" lon="11.48872048296783"><ele>153.6</ele><time>2026-04-30T11:18:51.016Z</time></trkpt><trkpt lat="42.530052310644805" lon="11.488598107194573"><ele>153.2</ele><time>2026-04-30T11:18:52.016Z</time></trkpt><trkpt lat="42.5300867911361" lon="11.488424979696"><ele>152.79999999999998</ele><time>2026-04-30T11:18:53.016Z</time></trkpt><trkpt lat="42.53008257485236" lon="11.488272594300124"><ele>152.4</ele><time>2026-04-30T11:18:54.016Z</time></trkpt><trkpt lat="42.530063942553035" lon="11.488166174373765"><ele>152.0</ele><time>2026-04-30T11:18:55.016Z</time></trkpt><trkpt lat="42.52999955045968" lon="11.488116374762784"><ele>152.0</ele><time>2026-04-30T11:18:56.016Z</time></trkpt><trkpt lat="42.52994625748346" lon="11.488031425321827"><ele>152.0</ele><time>2026-04-30T11:18:57.016Z</time></trkpt><trkpt lat="42.529886039262415" lon="11.487943829253517"><ele>152.0</ele><time>2026-04-30T11:18:58.016Z</time></trkpt><trkpt lat="42.52982818248349" lon="11.487831039501424"><ele>152.0</ele><time>2026-04-30T11:18:59.016Z</time></trkpt><trkpt lat="42.529779927773184" lon="11.487715210407083"><ele>152.0</ele><time>2026-04-30T11:19:00.016Z</time></trkpt><trkpt lat="42.529754329964554" lon="11.487597110385503"><ele>152.0</ele><time>2026-04-30T11:19:01.016Z</time></trkpt><trkpt lat="42.52975146134765" lon="11.487461250630481"><ele>152.0</ele><time>2026-04-30T11:19:02.016Z</time></trkpt><trkpt lat="42.5297404186993" lon="11.487268929108987"><ele>152.0</ele><time>2026-04-30T11:19:03.016Z</time></trkpt><trkpt lat="42.529700900262796" lon="11.487062908655929"><ele>152.0</ele><time>2026-04-30T11:19:04.016Z</time></trkpt><trkpt lat="42.52965782419324" lon="11.486857975562447"><ele>151.75</ele><time>2026-04-30T11:19:05.016Z</time></trkpt><trkpt lat="42.52962864877693" lon="11.486653106724358"><ele>151.5</ele><time>2026-04-30T11:19:06.016Z</time></trkpt><trkpt lat="42.52961334677303" lon="11.486477206429026"><ele>151.25</ele><time>2026-04-30T11:19:07.016Z</time></trkpt><trkpt lat="42.529603480145816" lon="11.486306906191434"><ele>151.0</ele><time>2026-04-30T11:19:08.016Z</time></trkpt><trkpt lat="42.529601753733346" lon="11.486168570192941"><ele>150.2</ele><time>2026-04-30T11:19:09.016Z</time></trkpt><trkpt lat="42.529605399669265" lon="11.486044811273787"><ele>149.39999999999998</ele><time>2026-04-30T11:19:10.016Z</time></trkpt><trkpt lat="42.52961671289573" lon="11.485904738243539"><ele>148.6</ele><time>2026-04-30T11:19:11.016Z</time></trkpt><trkpt lat="42.52963387019455" lon="11.485742501249684"><ele>147.79999999999998</ele><time>2026-04-30T11:19:12.016Z</time></trkpt><trkpt lat="42.529692364362624" lon="11.485604450965125"><ele>147.0</ele><time>2026-04-30T11:19:12.989Z</time></trkpt><trkpt lat="42.529732206584065" lon="11.485463525598462"><ele>147.2</ele><time>2026-04-30T11:19:13.989Z</time></trkpt><trkpt lat="42.52976251558708" lon="11.485358185478036"><ele>147.39999999999998</ele><time>2026-04-30T11:19:14.989Z</time></trkpt><trkpt lat="42.52977925572999" lon="11.485238921179409"><ele>147.60000000000002</ele><time>2026-04-30T11:19:15.989Z</time></trkpt><trkpt lat="42.52978255374679" lon="11.48510402186944"><ele>147.8</ele><time>2026-04-30T11:19:16.989Z</time></trkpt><trkpt lat="42.52975535900943" lon="11.484984272361633"><ele>148.0</ele><time>2026-04-30T11:19:17.989Z</time></trkpt><trkpt lat="42.52968996882695" lon="11.484849870317227"><ele>148.0</ele><time>2026-04-30T11:19:18.989Z</time></trkpt><trkpt lat="42.5296195744714" lon="11.484742365576627"><ele>148.0</ele><time>2026-04-30T11:19:19.989Z</time></trkpt><trkpt lat="42.52956397600541" lon="11.48460561466381"><ele>148.0</ele><time>2026-04-30T11:19:20.989Z</time></trkpt><trkpt lat="42.529496167831645" lon="11.484470985003759"><ele>148.0</ele><time>2026-04-30T11:19:21.99Z</time></trkpt><trkpt lat="42.529428657762864" lon="11.484341366279962"><ele>148.25</ele><time>2026-04-30T11:19:22.99Z</time></trkpt><trkpt lat="42.52936998968978" lon="11.484175373547806"><ele>148.5</ele><time>2026-04-30T11:19:23.99Z</time></trkpt><trkpt lat="42.529287402427386" lon="11.484017712549356"><ele>148.75</ele><time>2026-04-30T11:19:24.99Z</time></trkpt><trkpt lat="42.529209353439775" lon="11.483859338125923"><ele>149.0</ele><time>2026-04-30T11:19:25.99Z</time></trkpt><trkpt lat="42.52915062663099" lon="11.483707508170356"><ele>149.6</ele><time>2026-04-30T11:19:26.99Z</time></trkpt><trkpt lat="42.529057227773116" lon="11.483632826454706"><ele>150.2</ele><time>2026-04-30T11:19:27.99Z</time></trkpt><trkpt lat="42.52897248789706" lon="11.483569675871125"><ele>150.79999999999998</ele><time>2026-04-30T11:19:28.99Z</time></trkpt><trkpt lat="42.52888065251804" lon="11.483501018669141"><ele>151.4</ele><time>2026-04-30T11:19:29.99Z</time></trkpt><trkpt lat="42.528760481204074" lon="11.483465517134771"><ele>152.0</ele><time>2026-04-30T11:19:30.99Z</time></trkpt><trkpt lat="42.52862910656153" lon="11.483426809401069"><ele>156.66666666666666</ele><time>2026-04-30T11:19:31.99Z</time></trkpt><trkpt lat="42.528493244460506" lon="11.483379008372419"><ele>161.33333333333334</ele><time>2026-04-30T11:19:32.99Z</time></trkpt><trkpt lat="42.52834667090857" lon="11.483326137425623"><ele>166.0</ele><time>2026-04-30T11:19:33.99Z</time></trkpt><trkpt lat="42.5281914120033" lon="11.483271400917685"><ele>166.0</ele><time>2026-04-30T11:19:34.99Z</time></trkpt><trkpt lat="42.528037873504324" lon="11.48322076418719"><ele>166.0</ele><time>2026-04-30T11:19:35.99Z</time></trkpt><trkpt lat="42.52790815429599" lon="11.483181161813695"><ele>166.0</ele><time>2026-04-30T11:19:36.99Z</time></trkpt><trkpt lat="42.52779466952298" lon="11.483132901090057"><ele>166.0</ele><time>2026-04-30T11:19:37.99Z</time></trkpt><trkpt lat="42.52769068424252" lon="11.48307227165412"><ele>168.75</ele><time>2026-04-30T11:19:38.99Z</time></trkpt><trkpt lat="42.52758980996086" lon="11.483000771169847"><ele>171.5</ele><time>2026-04-30T11:19:39.99Z</time></trkpt><trkpt lat="42.527483590672325" lon="11.48292200925166"><ele>174.25</ele><time>2026-04-30T11:19:40.99Z</time></trkpt><trkpt lat="42.52739333515924" lon="11.48284140179588"><ele>177.0</ele><time>2026-04-30T11:19:41.99Z</time></trkpt><trkpt lat="42.52730103322742" lon="11.482741701575252"><ele>178.2</ele><time>2026-04-30T11:19:42.99Z</time></trkpt><trkpt lat="42.52721305916073" lon="11.48262975129173"><ele>179.39999999999998</ele><time>2026-04-30T11:19:43.99Z</time></trkpt><trkpt lat="42.5271388343055" lon="11.482509482843204"><ele>180.60000000000002</ele><time>2026-04-30T11:19:44.99Z</time></trkpt><trkpt lat="42.527078918515414" lon="11.482390160807327"><ele>181.8</ele><time>2026-04-30T11:19:45.99Z</time></trkpt><trkpt lat="42.527029039026715" lon="11.482271548570893"><ele>183.0</ele><time>2026-04-30T11:19:46.99Z</time></trkpt><trkpt lat="42.526973106426695" lon="11.482128637182372"><ele>188.25</ele><time>2026-04-30T11:19:47.99Z</time></trkpt><trkpt lat="42.526909248989895" lon="11.48197607908431"><ele>193.5</ele><time>2026-04-30T11:19:48.99Z</time></trkpt><trkpt lat="42.52684444881892" lon="11.481829807770577"><ele>198.75</ele><time>2026-04-30T11:19:49.99Z</time></trkpt><trkpt lat="42.52678345992383" lon="11.481661572077483"><ele>204.0</ele><time>2026-04-30T11:19:50.99Z</time></trkpt><trkpt lat="42.52672901998088" lon="11.48147041074664"><ele>204.0</ele><time>2026-04-30T11:19:51.99Z</time></trkpt><trkpt lat="42.52669897355813" lon="11.481268701398681"><ele>204.0</ele><time>2026-04-30T11:19:52.99Z</time></trkpt><trkpt lat="42.52665704937869" lon="11.4810622423786"><ele>204.0</ele><time>2026-04-30T11:19:53.99Z</time></trkpt><trkpt lat="42.526612042764015" lon="11.480873211787836"><ele>205.75</ele><time>2026-04-30T11:19:54.99Z</time></trkpt><trkpt lat="42.526539118573844" lon="11.480716513127803"><ele>207.5</ele><time>2026-04-30T11:19:55.99Z</time></trkpt><trkpt lat="42.52648392462023" lon="11.480545279907167"><ele>209.25</ele><time>2026-04-30T11:19:56.99Z</time></trkpt><trkpt lat="42.526419972814786" lon="11.480392406259172"><ele>211.0</ele><time>2026-04-30T11:19:57.99Z</time></trkpt><trkpt lat="42.526379984591294" lon="11.480228945613922"><ele>210.75</ele><time>2026-04-30T11:19:58.99Z</time></trkpt><trkpt lat="42.52633985698794" lon="11.480066720279902"><ele>210.5</ele><time>2026-04-30T11:19:59.987Z</time></trkpt><trkpt lat="42.526294637906034" lon="11.479912600006688"><ele>210.25</ele><time>2026-04-30T11:20:00.987Z</time></trkpt><trkpt lat="42.526254266231135" lon="11.479763029176581"><ele>210.0</ele><time>2026-04-30T11:20:01.987Z</time></trkpt><trkpt lat="42.526195239041996" lon="11.47963726444577"><ele>211.75</ele><time>2026-04-30T11:20:02.986Z</time></trkpt><trkpt lat="42.52613219932457" lon="11.479535415423879"><ele>213.5</ele><time>2026-04-30T11:20:03.986Z</time></trkpt><trkpt lat="42.52606552337877" lon="11.479425790130819"><ele>215.25</ele><time>2026-04-30T11:20:04.986Z</time></trkpt><trkpt lat="42.526016586859974" lon="11.479311942731167"><ele>217.0</ele><time>2026-04-30T11:20:05.986Z</time></trkpt><trkpt lat="42.52601142774592" lon="11.479093414667842"><ele>217.0</ele><time>2026-04-30T11:20:06.986Z</time></trkpt><trkpt lat="42.52601165354584" lon="11.478955452856573"><ele>217.0</ele><time>2026-04-30T11:20:07.986Z</time></trkpt><trkpt lat="42.526018721110525" lon="11.478824617953133"><ele>217.0</ele><time>2026-04-30T11:20:08.986Z</time></trkpt><trkpt lat="42.52602404804776" lon="11.478693922075141"><ele>217.0</ele><time>2026-04-30T11:20:09.986Z</time></trkpt><trkpt lat="42.52601241531705" lon="11.47856794668019"><ele>217.0</ele><time>2026-04-30T11:20:10.986Z</time></trkpt><trkpt lat="42.5260086526903" lon="11.47844996595864"><ele>219.2</ele><time>2026-04-30T11:20:11.986Z</time></trkpt><trkpt lat="42.52597053345202" lon="11.478372215822322"><ele>221.39999999999998</ele><time>2026-04-30T11:20:12.987Z</time></trkpt><trkpt lat="42.52590776459779" lon="11.478330644735701"><ele>223.60000000000002</ele><time>2026-04-30T11:20:13.987Z</time></trkpt><trkpt lat="42.525824955860315" lon="11.478281386132258"><ele>225.8</ele><time>2026-04-30T11:20:14.987Z</time></trkpt><trkpt lat="42.52572571519215" lon="11.478218535358598"><ele>228.0</ele><time>2026-04-30T11:20:15.987Z</time></trkpt><trkpt lat="42.52561708050429" lon="11.47814636872062"><ele>228.0</ele><time>2026-04-30T11:20:16.987Z</time></trkpt><trkpt lat="42.525532381364584" lon="11.47807058403965"><ele>228.0</ele><time>2026-04-30T11:20:17.987Z</time></trkpt><trkpt lat="42.525471031402844" lon="11.477996920017452"><ele>228.0</ele><time>2026-04-30T11:20:18.987Z</time></trkpt><trkpt lat="42.52543496339335" lon="11.477909663689687"><ele>228.0</ele><time>2026-04-30T11:20:19.987Z</time></trkpt><trkpt lat="42.52546346916896" lon="11.477821908605682"><ele>228.0</ele><time>2026-04-30T11:20:20.987Z</time></trkpt><trkpt lat="42.52547240925333" lon="11.477725459421443"><ele>228.0</ele><time>2026-04-30T11:20:21.987Z</time></trkpt><trkpt lat="42.52548629093836" lon="11.477581361219846"><ele>228.25</ele><time>2026-04-30T11:20:22.987Z</time></trkpt><trkpt lat="42.52549930351498" lon="11.477414345247599"><ele>228.5</ele><time>2026-04-30T11:20:23.987Z</time></trkpt><trkpt lat="42.525511001701084" lon="11.477238818261037"><ele>228.75</ele><time>2026-04-30T11:20:24.987Z</time></trkpt><trkpt lat="42.52552236091007" lon="11.477060461100239"><ele>229.0</ele><time>2026-04-30T11:20:25.987Z</time></trkpt><trkpt lat="42.52553341040562" lon="11.476877810291267"><ele>229.0</ele><time>2026-04-30T11:20:26.987Z</time></trkpt><trkpt lat="42.52553649907466" lon="11.476704134427083"><ele>228.99999999999997</ele><time>2026-04-30T11:20:27.987Z</time></trkpt><trkpt lat="42.52554553339769" lon="11.476557649428292"><ele>228.99999999999997</ele><time>2026-04-30T11:20:28.987Z</time></trkpt><trkpt lat="42.52553172768591" lon="11.47642175362772"><ele>229.0</ele><time>2026-04-30T11:20:29.987Z</time></trkpt><trkpt lat="42.525476453172224" lon="11.476300042022029"><ele>229.0</ele><time>2026-04-30T11:20:30.987Z</time></trkpt><trkpt lat="42.52540830389281" lon="11.476152089431308"><ele>226.75</ele><time>2026-04-30T11:20:31.987Z</time></trkpt><trkpt lat="42.52532839931807" lon="11.475992598267958"><ele>224.5</ele><time>2026-04-30T11:20:32.987Z</time></trkpt><trkpt lat="42.525252032028895" lon="11.475838674020553"><ele>222.25</ele><time>2026-04-30T11:20:33.987Z</time></trkpt><trkpt lat="42.525161087201745" lon="11.475704009510574"><ele>220.0</ele><time>2026-04-30T11:20:34.987Z</time></trkpt><trkpt lat="42.52505246421659" lon="11.475581593054352"><ele>220.0</ele><time>2026-04-30T11:20:35.987Z</time></trkpt><trkpt lat="42.524942645922536" lon="11.475449845728134"><ele>220.0</ele><time>2026-04-30T11:20:36.987Z</time></trkpt><trkpt lat="42.524838166343066" lon="11.475302983213826"><ele>220.0</ele><time>2026-04-30T11:20:37.987Z</time></trkpt><trkpt lat="42.524714108109464" lon="11.475184593850136"><ele>220.0</ele><time>2026-04-30T11:20:38.987Z</time></trkpt><trkpt lat="42.5246092805676" lon="11.47505552820646"><ele>222.5</ele><time>2026-04-30T11:20:39.987Z</time></trkpt><trkpt lat="42.52451268888735" lon="11.474939556406992"><ele>225.0</ele><time>2026-04-30T11:20:40.987Z</time></trkpt><trkpt lat="42.52441122661009" lon="11.474845644891293"><ele>227.5</ele><time>2026-04-30T11:20:41.987Z</time></trkpt><trkpt lat="42.52431279931914" lon="11.474790737748654"><ele>230.0</ele><time>2026-04-30T11:20:42.987Z</time></trkpt><trkpt lat="42.52420609991903" lon="11.474758052565386"><ele>230.0</ele><time>2026-04-30T11:20:43.987Z</time></trkpt><trkpt lat="42.52408362438165" lon="11.474733109453016"><ele>230.0</ele><time>2026-04-30T11:20:44.987Z</time></trkpt><trkpt lat="42.52396648623061" lon="11.474725802426843"><ele>230.0</ele><time>2026-04-30T11:20:45.987Z</time></trkpt><trkpt lat="42.523880904363864" lon="11.474699277501582"><ele>230.0</ele><time>2026-04-30T11:20:46.987Z</time></trkpt><trkpt lat="42.52380011451392" lon="11.474670966998017"><ele>230.0</ele><time>2026-04-30T11:20:48.987Z</time></trkpt><trkpt lat="42.52373570171295" lon="11.47479145404738"><ele>229.4</ele><time>2026-04-30T11:37:20.987Z</time></trkpt><trkpt lat="42.5236214882025" lon="11.47485722761405"><ele>228.8</ele><time>2026-04-30T11:37:22.987Z</time></trkpt><trkpt lat="42.52354772509174" lon="11.474869792339081"><ele>228.2</ele><time>2026-04-30T11:37:23.987Z</time></trkpt><trkpt lat="42.52346437041585" lon="11.474879343172052"><ele>227.6</ele><time>2026-04-30T11:37:24.987Z</time></trkpt><trkpt lat="42.52337195391797" lon="11.474864822879846"><ele>227.0</ele><time>2026-04-30T11:37:25.988Z</time></trkpt><trkpt lat="42.52329266127285" lon="11.474840914744776"><ele>227.00000000000003</ele><time>2026-04-30T11:37:26.988Z</time></trkpt><trkpt lat="42.52320119826031" lon="11.474797158058678"><ele>227.0</ele><time>2026-04-30T11:37:28.988Z</time></trkpt><trkpt lat="42.52312959381658" lon="11.474782311768937"><ele>227.0</ele><time>2026-04-30T11:37:31.988Z</time></trkpt><trkpt lat="42.523051726961185" lon="11.474791945895008"><ele>227.0</ele><time>2026-04-30T11:37:33.988Z</time></trkpt><trkpt lat="42.52298180413885" lon="11.474798254951889"><ele>227.00000000000003</ele><time>2026-04-30T11:37:35.988Z</time></trkpt><trkpt lat="42.52290762297463" lon="11.47477300098146"><ele>227.0</ele><time>2026-04-30T11:37:37.988Z</time></trkpt><trkpt lat="42.52280761617308" lon="11.474732257910661"><ele>225.39999999999998</ele><time>2026-04-30T11:37:39.988Z</time></trkpt><trkpt lat="42.522714151014085" lon="11.474671834030138"><ele>223.79999999999998</ele><time>2026-04-30T11:37:41.988Z</time></trkpt><trkpt lat="42.522650622998775" lon="11.47464085276246"><ele>222.2</ele><time>2026-04-30T11:37:42.988Z</time></trkpt><trkpt lat="42.522565458973745" lon="11.474623718017105"><ele>220.6</ele><time>2026-04-30T11:37:43.988Z</time></trkpt><trkpt lat="42.52247452023676" lon="11.47462502466244"><ele>219.0</ele><time>2026-04-30T11:37:44.988Z</time></trkpt><trkpt lat="42.52236814175214" lon="11.474647222991525"><ele>219.0</ele><time>2026-04-30T11:37:45.988Z</time></trkpt><trkpt lat="42.52224729533011" lon="11.474663923416852"><ele>219.0</ele><time>2026-04-30T11:37:46.988Z</time></trkpt><trkpt lat="42.52212324258651" lon="11.474671243241872"><ele>219.0</ele><time>2026-04-30T11:37:47.988Z</time></trkpt><trkpt lat="42.52200155301693" lon="11.474665907613417"><ele>219.0</ele><time>2026-04-30T11:37:48.988Z</time></trkpt><trkpt lat="42.52187496958808" lon="11.474662922496488"><ele>217.25</ele><time>2026-04-30T11:37:49.988Z</time></trkpt><trkpt lat="42.52174172078641" lon="11.474664914851235"><ele>215.5</ele><time>2026-04-30T11:37:50.988Z</time></trkpt><trkpt lat="42.52160209195913" lon="11.474664004887522"><ele>213.75</ele><time>2026-04-30T11:37:51.988Z</time></trkpt><trkpt lat="42.521462846930824" lon="11.474654866912577"><ele>212.0</ele><time>2026-04-30T11:37:52.988Z</time></trkpt><trkpt lat="42.52132106041656" lon="11.474633183683558"><ele>210.39999999999998</ele><time>2026-04-30T11:37:53.988Z</time></trkpt><trkpt lat="42.52119268507987" lon="11.47460671886335"><ele>208.79999999999998</ele><time>2026-04-30T11:37:54.988Z</time></trkpt><trkpt lat="42.52107592679681" lon="11.474576980010353"><ele>207.2</ele><time>2026-04-30T11:37:55.988Z</time></trkpt><trkpt lat="42.52098304074725" lon="11.474515029145495"><ele>205.6</ele><time>2026-04-30T11:37:56.988Z</time></trkpt><trkpt lat="42.52089572473642" lon="11.474487865785884"><ele>204.0</ele><time>2026-04-30T11:37:57.988Z</time></trkpt><trkpt lat="42.52083433280366" lon="11.474455401781688"><ele>201.79999999999998</ele><time>2026-04-30T11:37:58.988Z</time></trkpt><trkpt lat="42.52077413752945" lon="11.474354661309851"><ele>199.6</ele><time>2026-04-30T11:38:00.988Z</time></trkpt><trkpt lat="42.5207316925268" lon="11.47419540896908"><ele>197.4</ele><time>2026-04-30T11:38:02.988Z</time></trkpt><trkpt lat="42.520678357643625" lon="11.474093565685813"><ele>195.2</ele><time>2026-04-30T11:38:03.988Z</time></trkpt><trkpt lat="42.5206174834786" lon="11.473995240256631"><ele>193.0</ele><time>2026-04-30T11:38:04.988Z</time></trkpt><trkpt lat="42.52054646075911" lon="11.473910740558964"><ele>192.99999999999997</ele><time>2026-04-30T11:38:05.988Z</time></trkpt><trkpt lat="42.52048112294944" lon="11.473857543184797"><ele>193.0</ele><time>2026-04-30T11:38:06.988Z</time></trkpt><trkpt lat="42.52039887557375" lon="11.473818490463804"><ele>193.0</ele><time>2026-04-30T11:38:07.988Z</time></trkpt><trkpt lat="42.52032081790725" lon="11.473807670314466"><ele>193.0</ele><time>2026-04-30T11:38:08.988Z</time></trkpt><trkpt lat="42.52024303501253" lon="11.473788519398722"><ele>192.99999999999997</ele><time>2026-04-30T11:38:09.988Z</time></trkpt><trkpt lat="42.5201748140747" lon="11.47379394954391"><ele>193.0</ele><time>2026-04-30T11:38:10.988Z</time></trkpt><trkpt lat="42.520091765125514" lon="11.473828327333745"><ele>191.0</ele><time>2026-04-30T11:38:11.988Z</time></trkpt><trkpt lat="42.519983801333076" lon="11.47383840872672"><ele>189.0</ele><time>2026-04-30T11:38:12.988Z</time></trkpt><trkpt lat="42.51987350018522" lon="11.473891513600366"><ele>187.0</ele><time>2026-04-30T11:38:13.988Z</time></trkpt><trkpt lat="42.519747642429344" lon="11.473905151480972"><ele>185.0</ele><time>2026-04-30T11:38:14.988Z</time></trkpt><trkpt lat="42.519629122701765" lon="11.47394829900382"><ele>183.5</ele><time>2026-04-30T11:38:15.988Z</time></trkpt><trkpt lat="42.519512019311314" lon="11.47400218462712"><ele>182.0</ele><time>2026-04-30T11:38:16.988Z</time></trkpt><trkpt lat="42.51939161620327" lon="11.47406399779372"><ele>180.5</ele><time>2026-04-30T11:38:17.988Z</time></trkpt><trkpt lat="42.5192919904027" lon="11.474126122025513"><ele>179.0</ele><time>2026-04-30T11:38:18.988Z</time></trkpt><trkpt lat="42.51921085623508" lon="11.47417446473352"><ele>179.0</ele><time>2026-04-30T11:38:19.988Z</time></trkpt><trkpt lat="42.51912569360523" lon="11.474179190777246"><ele>179.0</ele><time>2026-04-30T11:38:21.988Z</time></trkpt><trkpt lat="42.518987138398735" lon="11.474107985085798"><ele>179.0</ele><time>2026-04-30T11:38:23.988Z</time></trkpt><trkpt lat="42.51888075451529" lon="11.474055563009102"><ele>179.0</ele><time>2026-04-30T11:38:24.988Z</time></trkpt><trkpt lat="42.51878465205201" lon="11.474024500746083"><ele>179.0</ele><time>2026-04-30T11:38:25.988Z</time></trkpt><trkpt lat="42.51870007130773" lon="11.473993169187262"><ele>178.79999999999998</ele><time>2026-04-30T11:38:26.988Z</time></trkpt><trkpt lat="42.518615956641845" lon="11.473937774277514"><ele>178.6</ele><time>2026-04-30T11:38:27.988Z</time></trkpt><trkpt lat="42.51852144128483" lon="11.473905451296593"><ele>178.4</ele><time>2026-04-30T11:38:28.988Z</time></trkpt><trkpt lat="42.51843411148225" lon="11.473874253083975"><ele>178.2</ele><time>2026-04-30T11:38:29.988Z</time></trkpt><trkpt lat="42.5183514210206" lon="11.47385123560733"><ele>178.0</ele><time>2026-04-30T11:38:30.988Z</time></trkpt><trkpt lat="42.518262555979526" lon="11.473836546189695"><ele>178.0</ele><time>2026-04-30T11:38:31.988Z</time></trkpt><trkpt lat="42.518168916679585" lon="11.47381546772706"><ele>178.0</ele><time>2026-04-30T11:38:32.988Z</time></trkpt><trkpt lat="42.51808669255343" lon="11.47379832340627"><ele>178.0</ele><time>2026-04-30T11:38:33.988Z</time></trkpt><trkpt lat="42.517963812333974" lon="11.47381554217476"><ele>178.0</ele><time>2026-04-30T11:38:35.988Z</time></trkpt><trkpt lat="42.517895255859095" lon="11.473868921558124"><ele>178.0</ele><time>2026-04-30T11:38:36.988Z</time></trkpt><trkpt lat="42.51781788944292" lon="11.473929363514852"><ele>175.4</ele><time>2026-04-30T11:38:37.989Z</time></trkpt><trkpt lat="42.51773042480038" lon="11.473996021660163"><ele>172.8</ele><time>2026-04-30T11:38:38.989Z</time></trkpt><trkpt lat="42.51766054963582" lon="11.474060397103067"><ele>170.2</ele><time>2026-04-30T11:38:39.989Z</time></trkpt><trkpt lat="42.51762376917003" lon="11.474164023413751"><ele>167.6</ele><time>2026-04-30T11:38:41.989Z</time></trkpt><trkpt lat="42.51761135022389" lon="11.474305693950512"><ele>165.0</ele><time>2026-04-30T11:38:43.989Z</time></trkpt><trkpt lat="42.51754960140668" lon="11.474442049043084"><ele>165.0</ele><time>2026-04-30T11:38:45.989Z</time></trkpt><trkpt lat="42.51749089766072" lon="11.474537261019274"><ele>165.0</ele><time>2026-04-30T11:38:46.989Z</time></trkpt><trkpt lat="42.51741368213364" lon="11.47468383755605"><ele>165.0</ele><time>2026-04-30T11:38:47.989Z</time></trkpt><trkpt lat="42.51732824097101" lon="11.474813198756282"><ele>165.0</ele><time>2026-04-30T11:38:48.989Z</time></trkpt><trkpt lat="42.5172508003956" lon="11.474936749906849"><ele>165.0</ele><time>2026-04-30T11:38:49.989Z</time></trkpt><trkpt lat="42.5171789369949" lon="11.475047587192567"><ele>165.0</ele><time>2026-04-30T11:38:50.989Z</time></trkpt><trkpt lat="42.51710638530874" lon="11.475123689636689"><ele>165.0</ele><time>2026-04-30T11:38:51.989Z</time></trkpt><trkpt lat="42.51704417691486" lon="11.475172164368828"><ele>165.0</ele><time>2026-04-30T11:38:52.989Z</time></trkpt><trkpt lat="42.516937423945095" lon="11.47517973112105"><ele>165.0</ele><time>2026-04-30T11:38:54.987Z</time></trkpt><trkpt lat="42.51686398155103" lon="11.475094712798704"><ele>161.75</ele><time>2026-04-30T11:38:56.987Z</time></trkpt><trkpt lat="42.51678414968736" lon="11.475024335346445"><ele>158.5</ele><time>2026-04-30T11:38:57.987Z</time></trkpt><trkpt lat="42.51668287240633" lon="11.474920223700154"><ele>155.25</ele><time>2026-04-30T11:38:58.987Z</time></trkpt><trkpt lat="42.51657262276468" lon="11.474845587380626"><ele>152.0</ele><time>2026-04-30T11:38:59.987Z</time></trkpt><trkpt lat="42.516469378726484" lon="11.474795460065131"><ele>152.0</ele><time>2026-04-30T11:39:00.987Z</time></trkpt><trkpt lat="42.516363746800295" lon="11.47475393550089"><ele>152.0</ele><time>2026-04-30T11:39:01.987Z</time></trkpt><trkpt lat="42.516249085751355" lon="11.474722180475238"><ele>152.0</ele><time>2026-04-30T11:39:02.987Z</time></trkpt><trkpt lat="42.51613724228954" lon="11.474701471498399"><ele>152.0</ele><time>2026-04-30T11:39:03.987Z</time></trkpt><trkpt lat="42.51600164823071" lon="11.474698249218745"><ele>148.75</ele><time>2026-04-30T11:39:04.987Z</time></trkpt><trkpt lat="42.5158586716907" lon="11.474697859720235"><ele>145.5</ele><time>2026-04-30T11:39:05.987Z</time></trkpt><trkpt lat="42.51571635838424" lon="11.474704236545785"><ele>142.25</ele><time>2026-04-30T11:39:06.987Z</time></trkpt><trkpt lat="42.51559062127554" lon="11.474709214175899"><ele>139.0</ele><time>2026-04-30T11:39:07.987Z</time></trkpt><trkpt lat="42.515476057957244" lon="11.474700346134588"><ele>138.8</ele><time>2026-04-30T11:39:08.987Z</time></trkpt><trkpt lat="42.51536574062923" lon="11.47468670879375"><ele>138.60000000000002</ele><time>2026-04-30T11:39:09.987Z</time></trkpt><trkpt lat="42.51526781128871" lon="11.474664083476126"><ele>138.4</ele><time>2026-04-30T11:39:10.987Z</time></trkpt><trkpt lat="42.515183334614896" lon="11.474632374163344"><ele>138.20000000000002</ele><time>2026-04-30T11:39:11.987Z</time></trkpt><trkpt lat="42.51510019572882" lon="11.474581722786281"><ele>138.0</ele><time>2026-04-30T11:39:12.987Z</time></trkpt><trkpt lat="42.51501550082997" lon="11.474517899858267"><ele>138.0</ele><time>2026-04-30T11:39:13.987Z</time></trkpt><trkpt lat="42.514922885314064" lon="11.474442132546143"><ele>138.0</ele><time>2026-04-30T11:39:14.987Z</time></trkpt><trkpt lat="42.51484760839314" lon="11.474345615967446"><ele>138.0</ele><time>2026-04-30T11:39:15.987Z</time></trkpt><trkpt lat="42.51477199967805" lon="11.474260057460018"><ele>138.0</ele><time>2026-04-30T11:39:16.987Z</time></trkpt><trkpt lat="42.514704836675655" lon="11.474170988759651"><ele>138.0</ele><time>2026-04-30T11:39:17.988Z</time></trkpt><trkpt lat="42.51463987978267" lon="11.47406681760152"><ele>138.0</ele><time>2026-04-30T11:39:18.988Z</time></trkpt><trkpt lat="42.514574614035446" lon="11.473929646152117"><ele>138.0</ele><time>2026-04-30T11:39:19.988Z</time></trkpt><trkpt lat="42.51450225345539" lon="11.47377116157604"><ele>138.0</ele><time>2026-04-30T11:39:20.988Z</time></trkpt><trkpt lat="42.514416399559856" lon="11.473621539106002"><ele>138.0</ele><time>2026-04-30T11:39:21.988Z</time></trkpt><trkpt lat="42.51433181020849" lon="11.473491455165794"><ele>134.8</ele><time>2026-04-30T11:39:22.988Z</time></trkpt><trkpt lat="42.514248763213644" lon="11.473390492271264"><ele>131.60000000000002</ele><time>2026-04-30T11:39:23.988Z</time></trkpt><trkpt lat="42.51418303015453" lon="11.473291764750975"><ele>128.39999999999998</ele><time>2026-04-30T11:39:24.988Z</time></trkpt><trkpt lat="42.51410446771567" lon="11.473181594055273"><ele>125.19999999999999</ele><time>2026-04-30T11:39:25.988Z</time></trkpt><trkpt lat="42.51401253329243" lon="11.473089806476978"><ele>122.0</ele><time>2026-04-30T11:39:26.988Z</time></trkpt><trkpt lat="42.51391654130942" lon="11.472995521519136"><ele>121.39999999999999</ele><time>2026-04-30T11:39:27.988Z</time></trkpt><trkpt lat="42.513834141321574" lon="11.472881074261085"><ele>120.79999999999998</ele><time>2026-04-30T11:39:28.988Z</time></trkpt><trkpt lat="42.513749985131994" lon="11.472794894412324"><ele>120.2</ele><time>2026-04-30T11:39:29.988Z</time></trkpt><trkpt lat="42.51369092350879" lon="11.472727510180015"><ele>119.6</ele><time>2026-04-30T11:39:30.988Z</time></trkpt><trkpt lat="42.51363302699811" lon="11.47267635785735"><ele>119.0</ele><time>2026-04-30T11:39:31.988Z</time></trkpt><trkpt lat="42.51354535909748" lon="11.47262590656917"><ele>116.66666666666666</ele><time>2026-04-30T11:39:33.988Z</time></trkpt><trkpt lat="42.513420674089076" lon="11.472649166233888"><ele>114.33333333333333</ele><time>2026-04-30T11:39:35.988Z</time></trkpt><trkpt lat="42.51334821013734" lon="11.472637632375825"><ele>112.0</ele><time>2026-04-30T11:39:36.988Z</time></trkpt><trkpt lat="42.513270035339374" lon="11.47257066732531"><ele>109.66666666666666</ele><time>2026-04-30T11:39:38.988Z</time></trkpt><trkpt lat="42.51326923611825" lon="11.472473151530675"><ele>107.33333333333333</ele><time>2026-04-30T11:39:40.988Z</time></trkpt><trkpt lat="42.51330798724524" lon="11.47239312224463"><ele>105.0</ele><time>2026-04-30T11:39:41.988Z</time></trkpt><trkpt lat="42.51333774530723" lon="11.472289564201901"><ele>105.0</ele><time>2026-04-30T11:39:42.988Z</time></trkpt><trkpt lat="42.51339971402664" lon="11.472143175882563"><ele>105.0</ele><time>2026-04-30T11:39:43.988Z</time></trkpt><trkpt lat="42.51343890456727" lon="11.472002804914968"><ele>105.0</ele><time>2026-04-30T11:39:44.988Z</time></trkpt><trkpt lat="42.51344879296322" lon="11.471865258158392"><ele>105.0</ele><time>2026-04-30T11:39:45.988Z</time></trkpt><trkpt lat="42.513401638491615" lon="11.471731828729478"><ele>105.0</ele><time>2026-04-30T11:39:46.988Z</time></trkpt><trkpt lat="42.51332917446584" lon="11.47161624481604"><ele>104.2</ele><time>2026-04-30T11:39:47.988Z</time></trkpt><trkpt lat="42.513253571298534" lon="11.471490749676162"><ele>103.4</ele><time>2026-04-30T11:39:48.988Z</time></trkpt><trkpt lat="42.51321338912836" lon="11.471343587913125"><ele>102.6</ele><time>2026-04-30T11:39:49.988Z</time></trkpt><trkpt lat="42.5132051996761" lon="11.471228856456815"><ele>101.8</ele><time>2026-04-30T11:39:50.988Z</time></trkpt><trkpt lat="42.513199081694644" lon="11.471120063005419"><ele>101.0</ele><time>2026-04-30T11:39:51.988Z</time></trkpt><trkpt lat="42.513190740315665" lon="11.470991171812894"><ele>100.8</ele><time>2026-04-30T11:39:52.988Z</time></trkpt><trkpt lat="42.51317420587153" lon="11.470864109561237"><ele>100.6</ele><time>2026-04-30T11:39:53.988Z</time></trkpt><trkpt lat="42.51314325124796" lon="11.470756899355479"><ele>100.4</ele><time>2026-04-30T11:39:54.988Z</time></trkpt><trkpt lat="42.51308637709413" lon="11.470642617479308"><ele>100.2</ele><time>2026-04-30T11:39:55.988Z</time></trkpt><trkpt lat="42.513012375670385" lon="11.470510256100441"><ele>100.0</ele><time>2026-04-30T11:39:56.988Z</time></trkpt><trkpt lat="42.512925695770235" lon="11.470352920541325"><ele>102.5</ele><time>2026-04-30T11:39:57.988Z</time></trkpt><trkpt lat="42.512870844032335" lon="11.470167904569562"><ele>105.0</ele><time>2026-04-30T11:39:58.988Z</time></trkpt><trkpt lat="42.51280343895739" lon="11.469989882169553"><ele>107.5</ele><time>2026-04-30T11:39:59.988Z</time></trkpt><trkpt lat="42.51275005126285" lon="11.469830889159297"><ele>110.0</ele><time>2026-04-30T11:40:00.988Z</time></trkpt><trkpt lat="42.512694015416926" lon="11.469684322661067"><ele>109.8</ele><time>2026-04-30T11:40:01.988Z</time></trkpt><trkpt lat="42.51263187656941" lon="11.469579915154975"><ele>109.6</ele><time>2026-04-30T11:40:02.988Z</time></trkpt><trkpt lat="42.5125814548633" lon="11.469505559445855"><ele>109.4</ele><time>2026-04-30T11:40:03.988Z</time></trkpt><trkpt lat="42.51255054408852" lon="11.469332535987169"><ele>109.2</ele><time>2026-04-30T11:40:05.988Z</time></trkpt><trkpt lat="42.51257104152976" lon="11.469235424483584"><ele>109.0</ele><time>2026-04-30T11:40:06.988Z</time></trkpt><trkpt lat="42.51258269768897" lon="11.469112397760576"><ele>109.0</ele><time>2026-04-30T11:40:07.988Z</time></trkpt><trkpt lat="42.51259267791127" lon="11.468972651217392"><ele>109.0</ele><time>2026-04-30T11:40:08.988Z</time></trkpt><trkpt lat="42.512590348107324" lon="11.468835799874194"><ele>109.0</ele><time>2026-04-30T11:40:09.988Z</time></trkpt><trkpt lat="42.512581502340524" lon="11.46868445392034"><ele>109.0</ele><time>2026-04-30T11:40:10.988Z</time></trkpt><trkpt lat="42.51259380008597" lon="11.468528551485546"><ele>109.0</ele><time>2026-04-30T11:40:11.988Z</time></trkpt><trkpt lat="42.5125704126017" lon="11.468355917318299"><ele>110.0</ele><time>2026-04-30T11:40:12.988Z</time></trkpt><trkpt lat="42.51255108553551" lon="11.468168992552366"><ele>111.0</ele><time>2026-04-30T11:40:13.988Z</time></trkpt><trkpt lat="42.51252789854586" lon="11.467989360645454"><ele>112.0</ele><time>2026-04-30T11:40:14.988Z</time></trkpt><trkpt lat="42.51250772975846" lon="11.467824137000813"><ele>113.0</ele><time>2026-04-30T11:40:15.988Z</time></trkpt><trkpt lat="42.512473288600916" lon="11.467681262044863"><ele>113.0</ele><time>2026-04-30T11:40:16.988Z</time></trkpt><trkpt lat="42.51240370150396" lon="11.467558513422583"><ele>113.0</ele><time>2026-04-30T11:40:17.988Z</time></trkpt><trkpt lat="42.512348424992105" lon="11.467419903307402"><ele>113.0</ele><time>2026-04-30T11:40:18.988Z</time></trkpt><trkpt lat="42.51226327009802" lon="11.467291950217085"><ele>113.0</ele><time>2026-04-30T11:40:19.988Z</time></trkpt><trkpt lat="42.51217960497519" lon="11.467160925059808"><ele>112.75</ele><time>2026-04-30T11:40:20.988Z</time></trkpt><trkpt lat="42.512104815113965" lon="11.46701480087756"><ele>112.5</ele><time>2026-04-30T11:40:21.988Z</time></trkpt><trkpt lat="42.5120488363979" lon="11.466855605588846"><ele>112.25</ele><time>2026-04-30T11:40:22.988Z</time></trkpt><trkpt lat="42.51199295779837" lon="11.466692814382288"><ele>112.0</ele><time>2026-04-30T11:40:23.988Z</time></trkpt><trkpt lat="42.51193660925506" lon="11.466550510998147"><ele>113.66666666666667</ele><time>2026-04-30T11:40:24.988Z</time></trkpt><trkpt lat="42.51186993339598" lon="11.466444473240859"><ele>115.33333333333334</ele><time>2026-04-30T11:40:25.988Z</time></trkpt><trkpt lat="42.51179843492004" lon="11.466354822662923"><ele>117.0</ele><time>2026-04-30T11:40:26.988Z</time></trkpt><trkpt lat="42.51172167519885" lon="11.466314003777649"><ele>118.66666666666666</ele><time>2026-04-30T11:40:27.988Z</time></trkpt><trkpt lat="42.51164192544713" lon="11.466308246396517"><ele>120.33333333333333</ele><time>2026-04-30T11:40:28.988Z</time></trkpt><trkpt lat="42.511556296678144" lon="11.466310218831852"><ele>122.0</ele><time>2026-04-30T11:40:29.988Z</time></trkpt><trkpt lat="42.5114830387434" lon="11.466333541477743"><ele>122.0</ele><time>2026-04-30T11:40:30.988Z</time></trkpt><trkpt lat="42.51139214416825" lon="11.466347953649066"><ele>121.99999999999999</ele><time>2026-04-30T11:40:31.988Z</time></trkpt><trkpt lat="42.51128067517327" lon="11.466384133683404"><ele>121.99999999999999</ele><time>2026-04-30T11:40:32.988Z</time></trkpt><trkpt lat="42.51116172150241" lon="11.466425646690583"><ele>122.0</ele><time>2026-04-30T11:40:33.988Z</time></trkpt><trkpt lat="42.51105950295775" lon="11.466438528529853"><ele>122.0</ele><time>2026-04-30T11:40:34.988Z</time></trkpt><trkpt lat="42.51096738149241" lon="11.466436218642091"><ele>122.39999999999999</ele><time>2026-04-30T11:40:35.988Z</time></trkpt><trkpt lat="42.51088399021075" lon="11.46641897576701"><ele>122.79999999999998</ele><time>2026-04-30T11:40:36.988Z</time></trkpt><trkpt lat="42.510807108466466" lon="11.466346718699949"><ele>123.2</ele><time>2026-04-30T11:40:37.988Z</time></trkpt><trkpt lat="42.5107671246219" lon="11.466217644944187"><ele>123.6</ele><time>2026-04-30T11:40:38.988Z</time></trkpt><trkpt lat="42.51070162103756" lon="11.466072702688312"><ele>124.0</ele><time>2026-04-30T11:40:39.988Z</time></trkpt><trkpt lat="42.510622790247815" lon="11.465912915896931"><ele>124.0</ele><time>2026-04-30T11:40:40.988Z</time></trkpt><trkpt lat="42.510536823058416" lon="11.465719683870915"><ele>124.0</ele><time>2026-04-30T11:40:41.988Z</time></trkpt><trkpt lat="42.51043574218111" lon="11.465525372616325"><ele>124.0</ele><time>2026-04-30T11:40:42.988Z</time></trkpt><trkpt lat="42.51033330900105" lon="11.465368440762647"><ele>128.0</ele><time>2026-04-30T11:40:43.988Z</time></trkpt><trkpt lat="42.51022110165465" lon="11.46521639185695"><ele>132.0</ele><time>2026-04-30T11:40:44.988Z</time></trkpt><trkpt lat="42.51011316147266" lon="11.465053338763752"><ele>136.0</ele><time>2026-04-30T11:40:45.988Z</time></trkpt><trkpt lat="42.51003621106325" lon="11.464884235950953"><ele>136.0</ele><time>2026-04-30T11:40:46.988Z</time></trkpt><trkpt lat="42.50997317157905" lon="11.46471589496116"><ele>136.0</ele><time>2026-04-30T11:40:47.988Z</time></trkpt><trkpt lat="42.50991627079033" lon="11.464542562115152"><ele>136.0</ele><time>2026-04-30T11:40:48.988Z</time></trkpt><trkpt lat="42.5098630079416" lon="11.464388537156204"><ele>136.0</ele><time>2026-04-30T11:40:49.988Z</time></trkpt><trkpt lat="42.50980042243988" lon="11.46429976145084"><ele>135.6</ele><time>2026-04-30T11:40:50.988Z</time></trkpt><trkpt lat="42.50973981210832" lon="11.464200169386931"><ele>135.2</ele><time>2026-04-30T11:40:51.988Z</time></trkpt><trkpt lat="42.50964370769835" lon="11.464148774086818"><ele>134.8</ele><time>2026-04-30T11:40:52.988Z</time></trkpt><trkpt lat="42.50957439297508" lon="11.464068615627392"><ele>134.4</ele><time>2026-04-30T11:40:53.988Z</time></trkpt><trkpt lat="42.50949478860409" lon="11.46394987076616"><ele>134.0</ele><time>2026-04-30T11:40:54.988Z</time></trkpt><trkpt lat="42.509414704371" lon="11.463804641010126"><ele>133.33333333333331</ele><time>2026-04-30T11:40:55.988Z</time></trkpt><trkpt lat="42.509320860533606" lon="11.463644837864393"><ele>132.66666666666666</ele><time>2026-04-30T11:40:56.988Z</time></trkpt><trkpt lat="42.50922004616081" lon="11.463468383479281"><ele>132.0</ele><time>2026-04-30T11:40:57.988Z</time></trkpt><trkpt lat="42.509114240875924" lon="11.463288215929245"><ele>132.0</ele><time>2026-04-30T11:40:58.988Z</time></trkpt><trkpt lat="42.509019960638724" lon="11.463129298880085"><ele>132.0</ele><time>2026-04-30T11:40:59.986Z</time></trkpt><trkpt lat="42.50895227716864" lon="11.462966184625309"><ele>132.0</ele><time>2026-04-30T11:41:00.986Z</time></trkpt><trkpt lat="42.50888171138297" lon="11.462834666629899"><ele>132.0</ele><time>2026-04-30T11:41:01.986Z</time></trkpt><trkpt lat="42.50885645799105" lon="11.462691836581504"><ele>132.25</ele><time>2026-04-30T11:41:02.986Z</time></trkpt><trkpt lat="42.50881642349137" lon="11.462555189417733"><ele>132.5</ele><time>2026-04-30T11:41:03.987Z</time></trkpt><trkpt lat="42.508769155752276" lon="11.462406177869584"><ele>132.75</ele><time>2026-04-30T11:41:04.987Z</time></trkpt><trkpt lat="42.50871103960355" lon="11.462235838231312"><ele>133.0</ele><time>2026-04-30T11:41:05.986Z</time></trkpt><trkpt lat="42.50864194563429" lon="11.462099749116856"><ele>133.0</ele><time>2026-04-30T11:41:06.986Z</time></trkpt><trkpt lat="42.508557265766896" lon="11.461927637088841"><ele>133.0</ele><time>2026-04-30T11:41:07.986Z</time></trkpt><trkpt lat="42.508451706365896" lon="11.461737749559783"><ele>133.0</ele><time>2026-04-30T11:41:08.986Z</time></trkpt><trkpt lat="42.50840165464158" lon="11.461547726502365"><ele>133.0</ele><time>2026-04-30T11:41:09.986Z</time></trkpt><trkpt lat="42.50834678302993" lon="11.461390877895914"><ele>133.0</ele><time>2026-04-30T11:41:10.986Z</time></trkpt><trkpt lat="42.50829186926331" lon="11.461241698963056"><ele>133.0</ele><time>2026-04-30T11:41:11.986Z</time></trkpt><trkpt lat="42.508242668477436" lon="11.461110968152102"><ele>133.0</ele><time>2026-04-30T11:41:12.986Z</time></trkpt><trkpt lat="42.50818520923001" lon="11.460976486005837"><ele>133.75</ele><time>2026-04-30T11:41:13.986Z</time></trkpt><trkpt lat="42.5081077641333" lon="11.460846649612781"><ele>134.5</ele><time>2026-04-30T11:41:14.986Z</time></trkpt><trkpt lat="42.50798472936559" lon="11.460718002882274"><ele>135.25</ele><time>2026-04-30T11:41:15.986Z</time></trkpt><trkpt lat="42.50787969709784" lon="11.460588964742609"><ele>136.0</ele><time>2026-04-30T11:41:16.986Z</time></trkpt><trkpt lat="42.50778312409032" lon="11.46044822851364"><ele>133.0</ele><time>2026-04-30T11:41:17.986Z</time></trkpt><trkpt lat="42.50768783234005" lon="11.460334833088694"><ele>130.0</ele><time>2026-04-30T11:41:18.986Z</time></trkpt><trkpt lat="42.507611638232675" lon="11.460228669259147"><ele>127.0</ele><time>2026-04-30T11:41:19.986Z</time></trkpt><trkpt lat="42.50754981481322" lon="11.460127540121107"><ele>124.0</ele><time>2026-04-30T11:41:20.986Z</time></trkpt><trkpt lat="42.507491788324884" lon="11.460018715346006"><ele>121.0</ele><time>2026-04-30T11:41:21.986Z</time></trkpt><trkpt lat="42.5074450237409" lon="11.459892470899574"><ele>121.0</ele><time>2026-04-30T11:41:22.986Z</time></trkpt><trkpt lat="42.507403622854206" lon="11.459752065943357"><ele>121.0</ele><time>2026-04-30T11:41:23.986Z</time></trkpt><trkpt lat="42.507375701106824" lon="11.459604161966558"><ele>121.0</ele><time>2026-04-30T11:41:24.986Z</time></trkpt><trkpt lat="42.507347022028256" lon="11.459447347884812"><ele>121.0</ele><time>2026-04-30T11:41:25.986Z</time></trkpt><trkpt lat="42.5073191819657" lon="11.45929510067126"><ele>120.66666666666667</ele><time>2026-04-30T11:41:26.986Z</time></trkpt><trkpt lat="42.50730058765657" lon="11.459148088721074"><ele>120.33333333333334</ele><time>2026-04-30T11:41:27.986Z</time></trkpt><trkpt lat="42.50730096338151" lon="11.459007796734593"><ele>120.0</ele><time>2026-04-30T11:41:28.986Z</time></trkpt><trkpt lat="42.507323741366875" lon="11.458901901636187"><ele>119.66666666666666</ele><time>2026-04-30T11:41:29.986Z</time></trkpt><trkpt lat="42.50734990572091" lon="11.45881409904878"><ele>119.33333333333333</ele><time>2026-04-30T11:41:30.986Z</time></trkpt><trkpt lat="42.50738172944456" lon="11.458715546808897"><ele>119.0</ele><time>2026-04-30T11:41:31.986Z</time></trkpt><trkpt lat="42.50743664841177" lon="11.458604094370587"><ele>118.0</ele><time>2026-04-30T11:41:32.986Z</time></trkpt><trkpt lat="42.50751994960024" lon="11.458431367904351"><ele>117.0</ele><time>2026-04-30T11:41:33.986Z</time></trkpt><trkpt lat="42.5075709563157" lon="11.458261809072877"><ele>116.0</ele><time>2026-04-30T11:41:34.986Z</time></trkpt><trkpt lat="42.507588787354614" lon="11.458131220437984"><ele>115.0</ele><time>2026-04-30T11:41:35.986Z</time></trkpt><trkpt lat="42.507587362715846" lon="11.4580214167904"><ele>114.5</ele><time>2026-04-30T11:41:36.986Z</time></trkpt><trkpt lat="42.50759945052168" lon="11.45790351789284"><ele>114.0</ele><time>2026-04-30T11:41:37.986Z</time></trkpt><trkpt lat="42.50761041093277" lon="11.457749496145182"><ele>113.5</ele><time>2026-04-30T11:41:38.986Z</time></trkpt><trkpt lat="42.50761639712361" lon="11.457537221001617"><ele>113.0</ele><time>2026-04-30T11:41:39.986Z</time></trkpt><trkpt lat="42.50762446738272" lon="11.457301576573723"><ele>112.0</ele><time>2026-04-30T11:41:40.986Z</time></trkpt><trkpt lat="42.507631445052255" lon="11.457081164258865"><ele>111.0</ele><time>2026-04-30T11:41:41.986Z</time></trkpt><trkpt lat="42.507646210712814" lon="11.456873475501991"><ele>110.0</ele><time>2026-04-30T11:41:42.986Z</time></trkpt><trkpt lat="42.50765845989067" lon="11.456687113429657"><ele>110.0</ele><time>2026-04-30T11:41:43.986Z</time></trkpt><trkpt lat="42.50766018139" lon="11.456507902536366"><ele>110.0</ele><time>2026-04-30T11:41:44.986Z</time></trkpt><trkpt lat="42.50765312201836" lon="11.45630816571491"><ele>110.0</ele><time>2026-04-30T11:41:45.986Z</time></trkpt><trkpt lat="42.50764903299624" lon="11.456119010488033"><ele>110.0</ele><time>2026-04-30T11:41:46.986Z</time></trkpt><trkpt lat="42.50764700174527" lon="11.455947931196318"><ele>110.0</ele><time>2026-04-30T11:41:47.986Z</time></trkpt><trkpt lat="42.507650969690346" lon="11.455790757165724"><ele>110.0</ele><time>2026-04-30T11:41:48.986Z</time></trkpt><trkpt lat="42.50766922217647" lon="11.455646168934585"><ele>110.0</ele><time>2026-04-30T11:41:49.986Z</time></trkpt><trkpt lat="42.5076872693749" lon="11.455536110526554"><ele>110.0</ele><time>2026-04-30T11:41:50.986Z</time></trkpt><trkpt lat="42.50771088497851" lon="11.455441130081041"><ele>110.0</ele><time>2026-04-30T11:41:51.986Z</time></trkpt><trkpt lat="42.507770733859154" lon="11.455337513760922"><ele>109.75</ele><time>2026-04-30T11:41:53.986Z</time></trkpt><trkpt lat="42.50788000075859" lon="11.455240144661778"><ele>109.5</ele><time>2026-04-30T11:42:14.987Z</time></trkpt><trkpt lat="42.507948424186054" lon="11.455200280989727"><ele>109.25</ele><time>2026-04-30T11:42:15.987Z</time></trkpt><trkpt lat="42.50805378775543" lon="11.455147346101532"><ele>109.0</ele><time>2026-04-30T11:42:16.987Z</time></trkpt><trkpt lat="42.508183549714474" lon="11.455062035447106"><ele>108.66666666666667</ele><time>2026-04-30T11:42:17.987Z</time></trkpt><trkpt lat="42.50831755658506" lon="11.454977772222996"><ele>108.33333333333334</ele><time>2026-04-30T11:42:18.987Z</time></trkpt><trkpt lat="42.5084662922337" lon="11.45487768692756"><ele>108.0</ele><time>2026-04-30T11:42:19.987Z</time></trkpt><trkpt lat="42.50861238711605" lon="11.454783723723606"><ele>107.0</ele><time>2026-04-30T11:42:20.987Z</time></trkpt><trkpt lat="42.50876903680488" lon="11.454681173438473"><ele>106.0</ele><time>2026-04-30T11:42:21.987Z</time></trkpt><trkpt lat="42.508935077234796" lon="11.454569036383193"><ele>105.0</ele><time>2026-04-30T11:42:22.987Z</time></trkpt><trkpt lat="42.50909506643746" lon="11.454463835228308"><ele>105.0</ele><time>2026-04-30T11:42:23.987Z</time></trkpt><trkpt lat="42.50923740479304" lon="11.454365108987506"><ele>105.0</ele><time>2026-04-30T11:42:24.987Z</time></trkpt><trkpt lat="42.50936409575833" lon="11.454284090459351"><ele>105.0</ele><time>2026-04-30T11:42:25.987Z</time></trkpt><trkpt lat="42.50948210278041" lon="11.45420587087333"><ele>105.0</ele><time>2026-04-30T11:42:26.987Z</time></trkpt><trkpt lat="42.50959115188685" lon="11.454129429289102"><ele>104.25</ele><time>2026-04-30T11:42:27.987Z</time></trkpt><trkpt lat="42.509685032559815" lon="11.454050814415796"><ele>103.5</ele><time>2026-04-30T11:42:28.987Z</time></trkpt><trkpt lat="42.50980377193921" lon="11.453969236893503"><ele>102.75</ele><time>2026-04-30T11:42:29.987Z</time></trkpt><trkpt lat="42.50991823985146" lon="11.45389312059165"><ele>102.0</ele><time>2026-04-30T11:42:30.987Z</time></trkpt><trkpt lat="42.51002046502028" lon="11.453820994524134"><ele>102.25</ele><time>2026-04-30T11:42:31.987Z</time></trkpt><trkpt lat="42.51013207272364" lon="11.453746654260984"><ele>102.5</ele><time>2026-04-30T11:42:32.987Z</time></trkpt><trkpt lat="42.510278349476664" lon="11.453690786795502"><ele>102.75</ele><time>2026-04-30T11:42:33.987Z</time></trkpt><trkpt lat="42.510403076775766" lon="11.45360967682302"><ele>103.0</ele><time>2026-04-30T11:42:34.987Z</time></trkpt><trkpt lat="42.51051760815601" lon="11.453528034301671"><ele>103.0</ele><time>2026-04-30T11:42:35.987Z</time></trkpt><trkpt lat="42.51063246775554" lon="11.453443283317693"><ele>103.0</ele><time>2026-04-30T11:42:36.987Z</time></trkpt><trkpt lat="42.51075173934636" lon="11.453349616471442"><ele>103.0</ele><time>2026-04-30T11:42:37.987Z</time></trkpt><trkpt lat="42.51086834549019" lon="11.453235742398494"><ele>103.0</ele><time>2026-04-30T11:42:38.987Z</time></trkpt><trkpt lat="42.510979702418574" lon="11.453082868496267"><ele>102.66666666666667</ele><time>2026-04-30T11:42:39.987Z</time></trkpt><trkpt lat="42.51108614279733" lon="11.452908612146565"><ele>102.33333333333334</ele><time>2026-04-30T11:42:40.987Z</time></trkpt><trkpt lat="42.51120196292008" lon="11.452711572952317"><ele>102.0</ele><time>2026-04-30T11:42:41.987Z</time></trkpt><trkpt lat="42.51132183278189" lon="11.452514765011879"><ele>101.33333333333334</ele><time>2026-04-30T11:42:42.987Z</time></trkpt><trkpt lat="42.51144509475469" lon="11.45231992453767"><ele>100.66666666666667</ele><time>2026-04-30T11:42:43.987Z</time></trkpt><trkpt lat="42.51157242295743" lon="11.452105281622831"><ele>100.0</ele><time>2026-04-30T11:42:44.987Z</time></trkpt><trkpt lat="42.51168674834254" lon="11.451910219022663"><ele>100.0</ele><time>2026-04-30T11:42:45.987Z</time></trkpt><trkpt lat="42.511800245154056" lon="11.45171787602943"><ele>100.0</ele><time>2026-04-30T11:42:46.987Z</time></trkpt><trkpt lat="42.51190890652178" lon="11.451530578245784"><ele>100.0</ele><time>2026-04-30T11:42:47.987Z</time></trkpt><trkpt lat="42.51201066874377" lon="11.451349144647207"><ele>99.33333333333334</ele><time>2026-04-30T11:42:48.987Z</time></trkpt><trkpt lat="42.512106674079256" lon="11.451171055741293"><ele>98.66666666666666</ele><time>2026-04-30T11:42:49.987Z</time></trkpt><trkpt lat="42.51220739948141" lon="11.450999698006324"><ele>98.0</ele><time>2026-04-30T11:42:50.987Z</time></trkpt><trkpt lat="42.512310627987105" lon="11.450829165297192"><ele>98.0</ele><time>2026-04-30T11:42:51.987Z</time></trkpt><trkpt lat="42.512429858910615" lon="11.450645049826685"><ele>98.0</ele><time>2026-04-30T11:42:52.987Z</time></trkpt><trkpt lat="42.51254291960396" lon="11.450452941978753"><ele>98.0</ele><time>2026-04-30T11:42:53.987Z</time></trkpt><trkpt lat="42.512662858447264" lon="11.45025767244116"><ele>98.33333333333333</ele><time>2026-04-30T11:42:54.987Z</time></trkpt><trkpt lat="42.5127810085149" lon="11.450052915561306"><ele>98.66666666666666</ele><time>2026-04-30T11:42:55.987Z</time></trkpt><trkpt lat="42.512907114013196" lon="11.449835576464668"><ele>99.0</ele><time>2026-04-30T11:42:56.987Z</time></trkpt><trkpt lat="42.51302342473268" lon="11.449624967281599"><ele>98.0</ele><time>2026-04-30T11:42:57.987Z</time></trkpt><trkpt lat="42.513128278081474" lon="11.449428452325042"><ele>97.0</ele><time>2026-04-30T11:42:58.987Z</time></trkpt><trkpt lat="42.51323119553711" lon="11.449247700136198"><ele>96.0</ele><time>2026-04-30T11:42:59.987Z</time></trkpt><trkpt lat="42.513339049452114" lon="11.449067202674264"><ele>96.0</ele><time>2026-04-30T11:43:00.987Z</time></trkpt><trkpt lat="42.51344763987367" lon="11.448886356176297"><ele>96.0</ele><time>2026-04-30T11:43:01.987Z</time></trkpt><trkpt lat="42.51355125821115" lon="11.448714646748435"><ele>96.0</ele><time>2026-04-30T11:43:02.987Z</time></trkpt><trkpt lat="42.51366038832782" lon="11.448539718064868"><ele>94.33333333333333</ele><time>2026-04-30T11:43:03.987Z</time></trkpt><trkpt lat="42.51376599666469" lon="11.44836422169356"><ele>92.66666666666666</ele><time>2026-04-30T11:43:04.987Z</time></trkpt><trkpt lat="42.513880120643265" lon="11.448182351850072"><ele>91.0</ele><time>2026-04-30T11:43:05.986Z</time></trkpt><trkpt lat="42.51398922143179" lon="11.447996194641917"><ele>91.66666666666666</ele><time>2026-04-30T11:43:06.985Z</time></trkpt><trkpt lat="42.514092881540655" lon="11.44781184150559"><ele>92.33333333333333</ele><time>2026-04-30T11:43:07.985Z</time></trkpt><trkpt lat="42.5141997958616" lon="11.447634376878742"><ele>93.0</ele><time>2026-04-30T11:43:08.986Z</time></trkpt><trkpt lat="42.51430807889789" lon="11.447458809474307"><ele>93.0</ele><time>2026-04-30T11:43:09.985Z</time></trkpt><trkpt lat="42.51441296960255" lon="11.447285413441456"><ele>93.0</ele><time>2026-04-30T11:43:10.985Z</time></trkpt><trkpt lat="42.51450963079026" lon="11.447108053796939"><ele>93.0</ele><time>2026-04-30T11:43:11.985Z</time></trkpt><trkpt lat="42.51460179624469" lon="11.446927964528944"><ele>91.66666666666667</ele><time>2026-04-30T11:43:12.985Z</time></trkpt><trkpt lat="42.51469329927664" lon="11.446744024326573"><ele>90.33333333333334</ele><time>2026-04-30T11:43:13.985Z</time></trkpt><trkpt lat="42.51478237899671" lon="11.446562211021808"><ele>89.0</ele><time>2026-04-30T11:43:14.985Z</time></trkpt><trkpt lat="42.514861547757526" lon="11.446370172816271"><ele>90.66666666666667</ele><time>2026-04-30T11:43:15.985Z</time></trkpt><trkpt lat="42.514941230523775" lon="11.446177335543219"><ele>92.33333333333333</ele><time>2026-04-30T11:43:16.985Z</time></trkpt><trkpt lat="42.51502125117171" lon="11.445985643991813"><ele>94.0</ele><time>2026-04-30T11:43:17.986Z</time></trkpt><trkpt lat="42.515098717960164" lon="11.445785517557109"><ele>94.0</ele><time>2026-04-30T11:43:18.986Z</time></trkpt><trkpt lat="42.51517685713234" lon="11.445580642642925"><ele>94.0</ele><time>2026-04-30T11:43:19.986Z</time></trkpt><trkpt lat="42.5152514658397" lon="11.445383017191915"><ele>94.0</ele><time>2026-04-30T11:43:20.986Z</time></trkpt><trkpt lat="42.51532136225751" lon="11.44519909959435"><ele>94.66666666666666</ele><time>2026-04-30T11:43:21.986Z</time></trkpt><trkpt lat="42.51539011560266" lon="11.445014012639433"><ele>95.33333333333333</ele><time>2026-04-30T11:43:22.986Z</time></trkpt><trkpt lat="42.515465449996455" lon="11.444823941949352"><ele>96.0</ele><time>2026-04-30T11:43:23.986Z</time></trkpt><trkpt lat="42.51553885111628" lon="11.444628356427046"><ele>94.66666666666667</ele><time>2026-04-30T11:43:24.986Z</time></trkpt><trkpt lat="42.51561081196534" lon="11.444431898842044"><ele>93.33333333333334</ele><time>2026-04-30T11:43:25.986Z</time></trkpt><trkpt lat="42.51570374976788" lon="11.444242000377907"><ele>92.0</ele><time>2026-04-30T11:43:26.986Z</time></trkpt><trkpt lat="42.51578044374631" lon="11.444046945623992"><ele>92.0</ele><time>2026-04-30T11:43:27.986Z</time></trkpt><trkpt lat="42.515856206614174" lon="11.443857226986967"><ele>92.0</ele><time>2026-04-30T11:43:28.986Z</time></trkpt><trkpt lat="42.51593345414838" lon="11.443661667227687"><ele>92.0</ele><time>2026-04-30T11:43:29.986Z</time></trkpt><trkpt lat="42.5160098355474" lon="11.44346580738919"><ele>93.0</ele><time>2026-04-30T11:43:30.986Z</time></trkpt><trkpt lat="42.51608734311924" lon="11.443264642990194"><ele>94.0</ele><time>2026-04-30T11:43:31.986Z</time></trkpt><trkpt lat="42.51616394268711" lon="11.443062555174757"><ele>95.0</ele><time>2026-04-30T11:43:32.986Z</time></trkpt><trkpt lat="42.5162340943954" lon="11.442855609086667"><ele>95.0</ele><time>2026-04-30T11:43:33.986Z</time></trkpt><trkpt lat="42.51628257323571" lon="11.442638095474475"><ele>95.0</ele><time>2026-04-30T11:43:34.986Z</time></trkpt><trkpt lat="42.51634794003641" lon="11.442420110768193"><ele>95.0</ele><time>2026-04-30T11:43:35.986Z</time></trkpt><trkpt lat="42.5164084194115" lon="11.442194283068227"><ele>94.33333333333334</ele><time>2026-04-30T11:43:36.986Z</time></trkpt><trkpt lat="42.51646285081943" lon="11.441966276705873"><ele>93.66666666666667</ele><time>2026-04-30T11:43:37.986Z</time></trkpt><trkpt lat="42.51654025188662" lon="11.441739310665719"><ele>93.0</ele><time>2026-04-30T11:43:38.986Z</time></trkpt><trkpt lat="42.51661396582833" lon="11.441514454143546"><ele>93.0</ele><time>2026-04-30T11:43:39.986Z</time></trkpt><trkpt lat="42.51666583452954" lon="11.441299627176102"><ele>93.0</ele><time>2026-04-30T11:43:40.986Z</time></trkpt><trkpt lat="42.51671534495863" lon="11.441091738565403"><ele>93.0</ele><time>2026-04-30T11:43:41.986Z</time></trkpt><trkpt lat="42.51677437455552" lon="11.440893482001497"><ele>93.0</ele><time>2026-04-30T11:43:42.986Z</time></trkpt><trkpt lat="42.51683478686057" lon="11.440682702095772"><ele>93.0</ele><time>2026-04-30T11:43:43.986Z</time></trkpt><trkpt lat="42.51689379965736" lon="11.440459056832612"><ele>93.0</ele><time>2026-04-30T11:43:44.986Z</time></trkpt><trkpt lat="42.51694707768591" lon="11.440228052554886"><ele>92.66666666666667</ele><time>2026-04-30T11:43:45.986Z</time></trkpt><trkpt lat="42.51699731678637" lon="11.440008866363975"><ele>92.33333333333334</ele><time>2026-04-30T11:43:46.986Z</time></trkpt><trkpt lat="42.51705167307222" lon="11.439802811879543"><ele>92.0</ele><time>2026-04-30T11:43:47.986Z</time></trkpt><trkpt lat="42.51710977631134" lon="11.43959176247415"><ele>92.66666666666667</ele><time>2026-04-30T11:43:48.986Z</time></trkpt><trkpt lat="42.51716765595653" lon="11.439383932768648"><ele>93.33333333333333</ele><time>2026-04-30T11:43:49.986Z</time></trkpt><trkpt lat="42.517223548128314" lon="11.439166884946408"><ele>94.0</ele><time>2026-04-30T11:43:50.986Z</time></trkpt><trkpt lat="42.517279762459886" lon="11.438952539495284"><ele>93.66666666666666</ele><time>2026-04-30T11:43:51.986Z</time></trkpt><trkpt lat="42.517332369556875" lon="11.438743237915055"><ele>93.33333333333333</ele><time>2026-04-30T11:43:52.986Z</time></trkpt><trkpt lat="42.51738947843796" lon="11.438536638511328"><ele>93.0</ele><time>2026-04-30T11:43:53.986Z</time></trkpt><trkpt lat="42.517458297081724" lon="11.438332057003722"><ele>93.0</ele><time>2026-04-30T11:43:54.986Z</time></trkpt><trkpt lat="42.51754641429868" lon="11.438126808311377"><ele>93.0</ele><time>2026-04-30T11:43:55.986Z</time></trkpt><trkpt lat="42.51766354143374" lon="11.437917464967308"><ele>93.0</ele><time>2026-04-30T11:43:56.986Z</time></trkpt><trkpt lat="42.51780380124164" lon="11.43772384856194"><ele>92.66666666666667</ele><time>2026-04-30T11:43:57.986Z</time></trkpt><trkpt lat="42.51791952115011" lon="11.437513432959467"><ele>92.33333333333334</ele><time>2026-04-30T11:43:58.986Z</time></trkpt><trkpt lat="42.518022384113635" lon="11.437350231987994"><ele>92.0</ele><time>2026-04-30T11:43:59.986Z</time></trkpt><trkpt lat="42.518099655669175" lon="11.437203045052252"><ele>91.75</ele><time>2026-04-30T11:44:00.986Z</time></trkpt><trkpt lat="42.518143751643784" lon="11.437060106448145"><ele>91.5</ele><time>2026-04-30T11:44:01.986Z</time></trkpt><trkpt lat="42.5181471509783" lon="11.436911268471064"><ele>91.25</ele><time>2026-04-30T11:44:02.986Z</time></trkpt><trkpt lat="42.51810938281415" lon="11.436769957496944"><ele>91.0</ele><time>2026-04-30T11:44:03.986Z</time></trkpt><trkpt lat="42.518054660169334" lon="11.436606060598134"><ele>91.0</ele><time>2026-04-30T11:44:04.986Z</time></trkpt><trkpt lat="42.51799172913733" lon="11.436426633838773"><ele>91.0</ele><time>2026-04-30T11:44:05.986Z</time></trkpt><trkpt lat="42.51792676985723" lon="11.436227413109822"><ele>91.0</ele><time>2026-04-30T11:44:06.986Z</time></trkpt><trkpt lat="42.51790141813898" lon="11.436022167245794"><ele>90.5</ele><time>2026-04-30T11:44:07.986Z</time></trkpt><trkpt lat="42.51785307086005" lon="11.435835080343393"><ele>90.0</ele><time>2026-04-30T11:44:08.986Z</time></trkpt><trkpt lat="42.517814495591175" lon="11.435663049712174"><ele>89.5</ele><time>2026-04-30T11:44:09.986Z</time></trkpt><trkpt lat="42.517780618254825" lon="11.43550372666309"><ele>89.0</ele><time>2026-04-30T11:44:10.986Z</time></trkpt><trkpt lat="42.51774992092372" lon="11.435359487081817"><ele>88.4</ele><time>2026-04-30T11:44:11.986Z</time></trkpt><trkpt lat="42.51772610865637" lon="11.435223324918182"><ele>87.80000000000001</ele><time>2026-04-30T11:44:12.986Z</time></trkpt><trkpt lat="42.51770295134811" lon="11.435097491529142"><ele>87.19999999999999</ele><time>2026-04-30T11:44:13.986Z</time></trkpt><trkpt lat="42.5176974995769" lon="11.434988570401414"><ele>86.6</ele><time>2026-04-30T11:44:14.986Z</time></trkpt><trkpt lat="42.517704819321914" lon="11.434898078159636"><ele>86.0</ele><time>2026-04-30T11:44:15.986Z</time></trkpt><trkpt lat="42.517692639957794" lon="11.434751211284478"><ele>86.0</ele><time>2026-04-30T11:44:17.986Z</time></trkpt><trkpt lat="42.51773438521859" lon="11.43466980051466"><ele>86.0</ele><time>2026-04-30T11:44:18.987Z</time></trkpt><trkpt lat="42.51767724955671" lon="11.434445558670976"><ele>86.0</ele><time>2026-04-30T11:44:20.987Z</time></trkpt><trkpt lat="42.51738255930241" lon="11.434640072698883"><ele>86.0</ele><time>2026-04-30T11:44:21.987Z</time></trkpt><trkpt lat="42.51722657517332" lon="11.434637099850768"><ele>86.0</ele><time>2026-04-30T11:44:22.987Z</time></trkpt><trkpt lat="42.51706867688545" lon="11.434610164498539"><ele>86.0</ele><time>2026-04-30T11:44:23.987Z</time></trkpt><trkpt lat="42.51692052689746" lon="11.43458939190681"><ele>84.25</ele><time>2026-04-30T11:44:24.987Z</time></trkpt><trkpt lat="42.51677446476748" lon="11.434563562163799"><ele>82.5</ele><time>2026-04-30T11:44:25.987Z</time></trkpt><trkpt lat="42.516642299798356" lon="11.434529867714765"><ele>80.75</ele><time>2026-04-30T11:44:26.987Z</time></trkpt><trkpt lat="42.51651010025654" lon="11.434505142518324"><ele>79.0</ele><time>2026-04-30T11:44:27.987Z</time></trkpt><trkpt lat="42.516359664192976" lon="11.43446197661019"><ele>77.33333333333333</ele><time>2026-04-30T11:44:28.987Z</time></trkpt><trkpt lat="42.516198239864934" lon="11.434427738121565"><ele>75.66666666666667</ele><time>2026-04-30T11:44:29.987Z</time></trkpt><trkpt lat="42.51601827570396" lon="11.434394576808657"><ele>74.0</ele><time>2026-04-30T11:44:30.987Z</time></trkpt><trkpt lat="42.51583733154289" lon="11.434353490990746"><ele>74.0</ele><time>2026-04-30T11:44:31.987Z</time></trkpt><trkpt lat="42.51566412533477" lon="11.434316355323377"><ele>74.0</ele><time>2026-04-30T11:44:32.987Z</time></trkpt><trkpt lat="42.515491320964195" lon="11.434283581841404"><ele>74.0</ele><time>2026-04-30T11:44:33.987Z</time></trkpt><trkpt lat="42.515321100842115" lon="11.434247569277726"><ele>75.33333333333334</ele><time>2026-04-30T11:44:34.987Z</time></trkpt><trkpt lat="42.515152904870405" lon="11.434207046604268"><ele>76.66666666666667</ele><time>2026-04-30T11:44:35.987Z</time></trkpt><trkpt lat="42.51500194481278" lon="11.434174258641928"><ele>78.0</ele><time>2026-04-30T11:44:36.987Z</time></trkpt><trkpt lat="42.51486451517947" lon="11.434142924898744"><ele>78.0</ele><time>2026-04-30T11:44:37.987Z</time></trkpt><trkpt lat="42.514729337775414" lon="11.434104749579324"><ele>78.0</ele><time>2026-04-30T11:44:38.987Z</time></trkpt><trkpt lat="42.51458871630635" lon="11.434063502372602"><ele>78.0</ele><time>2026-04-30T11:44:39.987Z</time></trkpt><trkpt lat="42.51444470686752" lon="11.434033936516398"><ele>78.0</ele><time>2026-04-30T11:44:40.987Z</time></trkpt><trkpt lat="42.51430807019052" lon="11.434020181753546"><ele>78.25</ele><time>2026-04-30T11:44:41.987Z</time></trkpt><trkpt lat="42.51416920021478" lon="11.43402499001881"><ele>78.5</ele><time>2026-04-30T11:44:42.987Z</time></trkpt><trkpt lat="42.514017001782264" lon="11.434045085893944"><ele>78.75</ele><time>2026-04-30T11:44:43.987Z</time></trkpt><trkpt lat="42.513867819506935" lon="11.434088067078495"><ele>79.0</ele><time>2026-04-30T11:44:44.987Z</time></trkpt><trkpt lat="42.513715463872806" lon="11.43416415975347"><ele>79.33333333333333</ele><time>2026-04-30T11:44:45.987Z</time></trkpt><trkpt lat="42.513558198189166" lon="11.434262203361879"><ele>79.66666666666667</ele><time>2026-04-30T11:44:46.987Z</time></trkpt><trkpt lat="42.513378803280624" lon="11.434352935598595"><ele>80.0</ele><time>2026-04-30T11:44:47.987Z</time></trkpt><trkpt lat="42.513188306507104" lon="11.434465057389632"><ele>80.0</ele><time>2026-04-30T11:44:48.987Z</time></trkpt><trkpt lat="42.51300848128526" lon="11.43457709546737"><ele>80.0</ele><time>2026-04-30T11:44:49.987Z</time></trkpt><trkpt lat="42.512828390379724" lon="11.434684526543023"><ele>80.0</ele><time>2026-04-30T11:44:50.987Z</time></trkpt><trkpt lat="42.51266201671891" lon="11.434785334762044"><ele>80.0</ele><time>2026-04-30T11:44:51.987Z</time></trkpt><trkpt lat="42.51249873482238" lon="11.434883878680782"><ele>80.0</ele><time>2026-04-30T11:44:52.987Z</time></trkpt><trkpt lat="42.51233698001046" lon="11.434981549108377"><ele>80.0</ele><time>2026-04-30T11:44:53.987Z</time></trkpt><trkpt lat="42.51218035733419" lon="11.435102850330875"><ele>79.33333333333334</ele><time>2026-04-30T11:44:54.987Z</time></trkpt><trkpt lat="42.512011012823706" lon="11.43520203182811"><ele>78.66666666666667</ele><time>2026-04-30T11:44:55.987Z</time></trkpt><trkpt lat="42.511843449948785" lon="11.435304358542155"><ele>78.0</ele><time>2026-04-30T11:44:56.987Z</time></trkpt><trkpt lat="42.511678867821004" lon="11.4354045099448"><ele>77.66666666666667</ele><time>2026-04-30T11:44:57.987Z</time></trkpt><trkpt lat="42.511511790330715" lon="11.435505448582822"><ele>77.33333333333334</ele><time>2026-04-30T11:44:58.987Z</time></trkpt><trkpt lat="42.51135105463161" lon="11.435604643234132"><ele>77.0</ele><time>2026-04-30T11:44:59.987Z</time></trkpt><trkpt lat="42.51119931184185" lon="11.435699773906054"><ele>77.75</ele><time>2026-04-30T11:45:00.987Z</time></trkpt><trkpt lat="42.51105976091958" lon="11.435796843347568"><ele>78.5</ele><time>2026-04-30T11:45:01.987Z</time></trkpt><trkpt lat="42.51092546272149" lon="11.435893038916916"><ele>79.25</ele><time>2026-04-30T11:45:02.987Z</time></trkpt><trkpt lat="42.510820600000194" lon="11.435960062977696"><ele>80.0</ele><time>2026-04-30T11:45:03.987Z</time></trkpt><trkpt lat="42.510739147057905" lon="11.435987613174758"><ele>80.0</ele><time>2026-04-30T11:45:04.987Z</time></trkpt><trkpt lat="42.510678562687986" lon="11.435915994884049"><ele>80.0</ele><time>2026-04-30T11:45:06.987Z</time></trkpt><trkpt lat="42.51070861451498" lon="11.435834175422402"><ele>80.0</ele><time>2026-04-30T11:45:07.987Z</time></trkpt><trkpt lat="42.51075785119678" lon="11.435761667080923"><ele>80.0</ele><time>2026-04-30T11:45:08.987Z</time></trkpt><trkpt lat="42.51081531488535" lon="11.435631726862262"><ele>80.0</ele><time>2026-04-30T11:45:09.987Z</time></trkpt><trkpt lat="42.51089695937883" lon="11.43543064823895"><ele>78.66666666666667</ele><time>2026-04-30T11:45:10.987Z</time></trkpt><trkpt lat="42.510976471301056" lon="11.43522670486167"><ele>77.33333333333333</ele><time>2026-04-30T11:45:11.985Z</time></trkpt><trkpt lat="42.511060684900805" lon="11.435010220857652"><ele>76.0</ele><time>2026-04-30T11:45:12.985Z</time></trkpt><trkpt lat="42.511133914027454" lon="11.434777349516683"><ele>75.0</ele><time>2026-04-30T11:45:13.985Z</time></trkpt><trkpt lat="42.51121616170694" lon="11.434559957380497"><ele>74.0</ele><time>2026-04-30T11:45:14.985Z</time></trkpt><trkpt lat="42.51129644571299" lon="11.434351464245808"><ele>73.0</ele><time>2026-04-30T11:45:15.984Z</time></trkpt><trkpt lat="42.5113748231838" lon="11.434143186824098"><ele>75.0</ele><time>2026-04-30T11:45:16.984Z</time></trkpt><trkpt lat="42.51145783266989" lon="11.433933560165396"><ele>77.0</ele><time>2026-04-30T11:45:17.984Z</time></trkpt><trkpt lat="42.51153114377242" lon="11.433718748429683"><ele>79.0</ele><time>2026-04-30T11:45:18.984Z</time></trkpt><trkpt lat="42.51160091812359" lon="11.433502994542007"><ele>79.0</ele><time>2026-04-30T11:45:19.984Z</time></trkpt><trkpt lat="42.51166728702414" lon="11.433289306174565"><ele>79.0</ele><time>2026-04-30T11:45:20.985Z</time></trkpt><trkpt lat="42.51173844650215" lon="11.433104866253734"><ele>79.0</ele><time>2026-04-30T11:45:21.985Z</time></trkpt><trkpt lat="42.51180082429505" lon="11.432930456620149"><ele>78.75</ele><time>2026-04-30T11:45:22.985Z</time></trkpt><trkpt lat="42.51186309696499" lon="11.432761317172487"><ele>78.5</ele><time>2026-04-30T11:45:23.985Z</time></trkpt><trkpt lat="42.511919423866345" lon="11.432581351739953"><ele>78.25</ele><time>2026-04-30T11:45:24.985Z</time></trkpt><trkpt lat="42.51196621099873" lon="11.432396590933841"><ele>78.0</ele><time>2026-04-30T11:45:25.985Z</time></trkpt><trkpt lat="42.5120027724693" lon="11.432213422260933"><ele>78.5</ele><time>2026-04-30T11:45:26.985Z</time></trkpt><trkpt lat="42.512033296113536" lon="11.432035999408885"><ele>79.0</ele><time>2026-04-30T11:45:27.985Z</time></trkpt><trkpt lat="42.512063200763784" lon="11.431860103125"><ele>79.5</ele><time>2026-04-30T11:45:28.985Z</time></trkpt><trkpt lat="42.51209464496695" lon="11.431683990426441"><ele>80.0</ele><time>2026-04-30T11:45:29.985Z</time></trkpt><trkpt lat="42.51213154933798" lon="11.431511117209533"><ele>78.5</ele><time>2026-04-30T11:45:30.985Z</time></trkpt><trkpt lat="42.51216850389789" lon="11.431332566551738"><ele>77.0</ele><time>2026-04-30T11:45:31.985Z</time></trkpt><trkpt lat="42.512228248576776" lon="11.431158001523952"><ele>75.5</ele><time>2026-04-30T11:45:32.985Z</time></trkpt><trkpt lat="42.512270418593715" lon="11.430976580075932"><ele>74.0</ele><time>2026-04-30T11:45:33.985Z</time></trkpt><trkpt lat="42.51229847715355" lon="11.430786166085543"><ele>73.0</ele><time>2026-04-30T11:45:34.985Z</time></trkpt><trkpt lat="42.51234905196751" lon="11.430588979310393"><ele>72.0</ele><time>2026-04-30T11:45:35.985Z</time></trkpt><trkpt lat="42.51239451706798" lon="11.4303715341174"><ele>71.0</ele><time>2026-04-30T11:45:36.985Z</time></trkpt><trkpt lat="42.512428288389465" lon="11.430141265638593"><ele>70.0</ele><time>2026-04-30T11:45:37.985Z</time></trkpt><trkpt lat="42.512478271900186" lon="11.429900905672376"><ele>69.0</ele><time>2026-04-30T11:45:38.985Z</time></trkpt><trkpt lat="42.51252622509978" lon="11.429662431401832"><ele>68.0</ele><time>2026-04-30T11:45:39.985Z</time></trkpt><trkpt lat="42.51257556919198" lon="11.429421959663303"><ele>67.0</ele><time>2026-04-30T11:45:40.985Z</time></trkpt><trkpt lat="42.512623173782" lon="11.42920448749799"><ele>66.0</ele><time>2026-04-30T11:45:41.985Z</time></trkpt><trkpt lat="42.51267028300296" lon="11.42900724975144"><ele>65.0</ele><time>2026-04-30T11:45:42.985Z</time></trkpt><trkpt lat="42.512718287690035" lon="11.42883043736283"><ele>65.0</ele><time>2026-04-30T11:45:43.985Z</time></trkpt><trkpt lat="42.51274343775677" lon="11.428678362547412"><ele>65.0</ele><time>2026-04-30T11:45:44.985Z</time></trkpt><trkpt lat="42.51274436176172" lon="11.428549483911128"><ele>65.0</ele><time>2026-04-30T11:45:45.985Z</time></trkpt><trkpt lat="42.51268427812487" lon="11.428423389697018"><ele>65.0</ele><time>2026-04-30T11:45:46.985Z</time></trkpt><trkpt lat="42.51262053391019" lon="11.428301457055879"><ele>65.0</ele><time>2026-04-30T11:45:47.985Z</time></trkpt><trkpt lat="42.51251407089724" lon="11.428173686822648"><ele>65.0</ele><time>2026-04-30T11:45:48.985Z</time></trkpt><trkpt lat="42.51239362668329" lon="11.428043342455327"><ele>65.0</ele><time>2026-04-30T11:45:49.985Z</time></trkpt><trkpt lat="42.512290254149555" lon="11.42791403437216"><ele>65.0</ele><time>2026-04-30T11:45:50.985Z</time></trkpt><trkpt lat="42.51222154188571" lon="11.42780578753813"><ele>65.0</ele><time>2026-04-30T11:45:51.985Z</time></trkpt><trkpt lat="42.51218367627546" lon="11.427690068426058"><ele>65.0</ele><time>2026-04-30T11:45:52.985Z</time></trkpt><trkpt lat="42.51222095401025" lon="11.427558475463204"><ele>65.0</ele><time>2026-04-30T11:45:53.985Z</time></trkpt><trkpt lat="42.5122585266709" lon="11.427457037850369"><ele>65.0</ele><time>2026-04-30T11:45:54.985Z</time></trkpt><trkpt lat="42.51231385213562" lon="11.427369352203394"><ele>65.0</ele><time>2026-04-30T11:45:55.985Z</time></trkpt><trkpt lat="42.51239063002266" lon="11.427310703266818"><ele>65.0</ele><time>2026-04-30T11:45:56.985Z</time></trkpt><trkpt lat="42.51251243465653" lon="11.42720462361792"><ele>64.75</ele><time>2026-04-30T11:45:57.985Z</time></trkpt><trkpt lat="42.51264436091056" lon="11.427094402251724"><ele>64.5</ele><time>2026-04-30T11:45:58.985Z</time></trkpt><trkpt lat="42.512749003465785" lon="11.426957049951657"><ele>64.25</ele><time>2026-04-30T11:45:59.985Z</time></trkpt><trkpt lat="42.5128444267674" lon="11.426812951055853"><ele>64.0</ele><time>2026-04-30T11:46:00.985Z</time></trkpt><trkpt lat="42.51293534971484" lon="11.426654394846365"><ele>64.0</ele><time>2026-04-30T11:46:01.985Z</time></trkpt><trkpt lat="42.51302276433103" lon="11.426449747200275"><ele>64.0</ele><time>2026-04-30T11:46:02.985Z</time></trkpt><trkpt lat="42.51310804949509" lon="11.426236156289272"><ele>64.0</ele><time>2026-04-30T11:46:03.985Z</time></trkpt><trkpt lat="42.513190485225095" lon="11.426015894078233"><ele>63.666666666666664</ele><time>2026-04-30T11:46:04.985Z</time></trkpt><trkpt lat="42.5132965386636" lon="11.425841018097552"><ele>63.33333333333333</ele><time>2026-04-30T11:46:05.985Z</time></trkpt><trkpt lat="42.51339797884072" lon="11.425661419897127"><ele>63.0</ele><time>2026-04-30T11:46:06.985Z</time></trkpt><trkpt lat="42.513505690396876" lon="11.425486367037522"><ele>63.0</ele><time>2026-04-30T11:46:07.985Z</time></trkpt><trkpt lat="42.51361888685203" lon="11.425303642689023"><ele>63.0</ele><time>2026-04-30T11:46:08.985Z</time></trkpt><trkpt lat="42.51373576368204" lon="11.425122682322403"><ele>63.0</ele><time>2026-04-30T11:46:09.985Z</time></trkpt><trkpt lat="42.51384987387098" lon="11.42495884423149"><ele>63.0</ele><time>2026-04-30T11:46:10.985Z</time></trkpt><trkpt lat="42.513971353061116" lon="11.42481339291424"><ele>63.0</ele><time>2026-04-30T11:46:11.985Z</time></trkpt><trkpt lat="42.5141009447196" lon="11.424679321431851"><ele>63.0</ele><time>2026-04-30T11:46:12.985Z</time></trkpt><trkpt lat="42.5142237159361" lon="11.424575400970438"><ele>63.5</ele><time>2026-04-30T11:46:13.985Z</time></trkpt><trkpt lat="42.51434182431381" lon="11.424474937306538"><ele>64.0</ele><time>2026-04-30T11:46:14.985Z</time></trkpt><trkpt lat="42.51443819066403" lon="11.424353378243106"><ele>64.5</ele><time>2026-04-30T11:46:15.985Z</time></trkpt><trkpt lat="42.51452584338656" lon="11.42423314285307"><ele>65.0</ele><time>2026-04-30T11:46:16.985Z</time></trkpt><trkpt lat="42.51461326378542" lon="11.424089388844795"><ele>67.33333333333334</ele><time>2026-04-30T11:46:17.986Z</time></trkpt><trkpt lat="42.51469181397182" lon="11.423919632875384"><ele>69.66666666666667</ele><time>2026-04-30T11:46:18.986Z</time></trkpt><trkpt lat="42.51477193730164" lon="11.423737570419421"><ele>72.0</ele><time>2026-04-30T11:46:19.986Z</time></trkpt><trkpt lat="42.51485035459983" lon="11.423565505429828"><ele>72.0</ele><time>2026-04-30T11:46:20.986Z</time></trkpt><trkpt lat="42.51491526583554" lon="11.423401075311602"><ele>72.0</ele><time>2026-04-30T11:46:21.986Z</time></trkpt><trkpt lat="42.514966178702956" lon="11.423235590288828"><ele>72.0</ele><time>2026-04-30T11:46:22.986Z</time></trkpt><trkpt lat="42.51500626068285" lon="11.423062025645285"><ele>72.0</ele><time>2026-04-30T11:46:23.986Z</time></trkpt><trkpt lat="42.5150617753143" lon="11.422876997580698"><ele>71.66666666666667</ele><time>2026-04-30T11:46:24.986Z</time></trkpt><trkpt lat="42.51512938880508" lon="11.42268776524394"><ele>71.33333333333334</ele><time>2026-04-30T11:46:25.986Z</time></trkpt><trkpt lat="42.51520793644461" lon="11.422498690799713"><ele>71.0</ele><time>2026-04-30T11:46:26.986Z</time></trkpt><trkpt lat="42.515305459435794" lon="11.42233981358605"><ele>72.25</ele><time>2026-04-30T11:46:27.986Z</time></trkpt><trkpt lat="42.51540623195425" lon="11.422179727150008"><ele>73.5</ele><time>2026-04-30T11:46:28.986Z</time></trkpt><trkpt lat="42.51550443014615" lon="11.422037908974033"><ele>74.75</ele><time>2026-04-30T11:46:29.986Z</time></trkpt><trkpt lat="42.5155910155566" lon="11.421915341088367"><ele>76.0</ele><time>2026-04-30T11:46:30.986Z</time></trkpt><trkpt lat="42.515659789926886" lon="11.42179511911342"><ele>76.0</ele><time>2026-04-30T11:46:31.986Z</time></trkpt><trkpt lat="42.51572967597892" lon="11.42169121384824"><ele>76.0</ele><time>2026-04-30T11:46:32.986Z</time></trkpt><trkpt lat="42.51580166496209" lon="11.421586753232969"><ele>76.0</ele><time>2026-04-30T11:46:33.986Z</time></trkpt><trkpt lat="42.51587233116858" lon="11.421480287000593"><ele>76.0</ele><time>2026-04-30T11:46:34.986Z</time></trkpt><trkpt lat="42.51594353562312" lon="11.42138593268098"><ele>76.0</ele><time>2026-04-30T11:46:35.986Z</time></trkpt><trkpt lat="42.51600436215021" lon="11.421293954744122"><ele>76.0</ele><time>2026-04-30T11:46:36.986Z</time></trkpt><trkpt lat="42.51606295231462" lon="11.42120999511228"><ele>76.0</ele><time>2026-04-30T11:46:37.986Z</time></trkpt><trkpt lat="42.51613026687531" lon="11.421159420704349"><ele>76.0</ele><time>2026-04-30T11:46:38.986Z</time></trkpt><trkpt lat="42.5161859791908" lon="11.421097352469188"><ele>76.0</ele><time>2026-04-30T11:46:39.986Z</time></trkpt><trkpt lat="42.516136153573626" lon="11.42086370697409"><ele>76.0</ele><time>2026-04-30T11:46:40.986Z</time></trkpt><trkpt lat="42.51615862674184" lon="11.42069690237705"><ele>76.0</ele><time>2026-04-30T11:46:41.986Z</time></trkpt><trkpt lat="42.51619456279512" lon="11.420488979582526"><ele>76.0</ele><time>2026-04-30T11:46:42.986Z</time></trkpt><trkpt lat="42.516223770269704" lon="11.420303036208713"><ele>76.0</ele><time>2026-04-30T11:46:43.986Z</time></trkpt><trkpt lat="42.516260359581494" lon="11.420132111369874"><ele>76.0</ele><time>2026-04-30T11:46:44.986Z</time></trkpt><trkpt lat="42.51630210081818" lon="11.419947519214341"><ele>77.4</ele><time>2026-04-30T11:46:45.986Z</time></trkpt><trkpt lat="42.51634409182686" lon="11.419764957103085"><ele>78.8</ele><time>2026-04-30T11:46:46.986Z</time></trkpt><trkpt lat="42.51637309382331" lon="11.419617164128924"><ele>80.2</ele><time>2026-04-30T11:46:47.986Z</time></trkpt><trkpt lat="42.51638424026589" lon="11.419497295322309"><ele>81.60000000000001</ele><time>2026-04-30T11:46:48.986Z</time></trkpt><trkpt lat="42.51635997464403" lon="11.419396080928653"><ele>83.0</ele><time>2026-04-30T11:46:49.986Z</time></trkpt><trkpt lat="42.516371376720926" lon="11.419294127997894"><ele>83.25</ele><time>2026-04-30T11:46:51.986Z</time></trkpt><trkpt lat="42.51640925155326" lon="11.419117650779823"><ele>83.5</ele><time>2026-04-30T11:47:05.986Z</time></trkpt><trkpt lat="42.516424700774415" lon="11.418976214398183"><ele>83.75</ele><time>2026-04-30T11:47:06.986Z</time></trkpt><trkpt lat="42.51645838901347" lon="11.418840302019847"><ele>84.0</ele><time>2026-04-30T11:47:07.986Z</time></trkpt><trkpt lat="42.5164993037662" lon="11.418698242462714"><ele>84.0</ele><time>2026-04-30T11:47:08.986Z</time></trkpt><trkpt lat="42.516555126406175" lon="11.418581066209185"><ele>84.0</ele><time>2026-04-30T11:47:09.986Z</time></trkpt><trkpt lat="42.516599808503216" lon="11.418487179386576"><ele>84.0</ele><time>2026-04-30T11:47:10.986Z</time></trkpt><trkpt lat="42.51665465012208" lon="11.418353310447422"><ele>84.0</ele><time>2026-04-30T11:47:11.986Z</time></trkpt><trkpt lat="42.51670409482115" lon="11.418203099843085"><ele>84.0</ele><time>2026-04-30T11:47:12.986Z</time></trkpt><trkpt lat="42.51675180470479" lon="11.418073031289302"><ele>83.0</ele><time>2026-04-30T11:47:13.986Z</time></trkpt><trkpt lat="42.5168168235023" lon="11.417956524725861"><ele>82.0</ele><time>2026-04-30T11:47:14.986Z</time></trkpt><trkpt lat="42.51687310087437" lon="11.417834466609946"><ele>81.0</ele><time>2026-04-30T11:47:15.986Z</time></trkpt><trkpt lat="42.5169369753522" lon="11.417719125607942"><ele>80.0</ele><time>2026-04-30T11:47:16.986Z</time></trkpt><trkpt lat="42.51701415728129" lon="11.41760983576792"><ele>79.0</ele><time>2026-04-30T11:47:17.985Z</time></trkpt><trkpt lat="42.51709659290451" lon="11.417510532892608"><ele>78.75</ele><time>2026-04-30T11:47:18.985Z</time></trkpt><trkpt lat="42.51720401379025" lon="11.417399419590115"><ele>78.5</ele><time>2026-04-30T11:47:19.985Z</time></trkpt><trkpt lat="42.51732536757306" lon="11.417274280913972"><ele>78.25</ele><time>2026-04-30T11:47:20.985Z</time></trkpt><trkpt lat="42.517438735650344" lon="11.417129196922998"><ele>78.0</ele><time>2026-04-30T11:47:21.985Z</time></trkpt><trkpt lat="42.51755224163136" lon="11.417020287496728"><ele>77.33333333333333</ele><time>2026-04-30T11:47:22.985Z</time></trkpt><trkpt lat="42.51765698116204" lon="11.416902351154942"><ele>76.66666666666666</ele><time>2026-04-30T11:47:23.984Z</time></trkpt><trkpt lat="42.51777439556705" lon="11.416782049861116"><ele>76.0</ele><time>2026-04-30T11:47:24.985Z</time></trkpt><trkpt lat="42.51790971465108" lon="11.416636699205862"><ele>75.0</ele><time>2026-04-30T11:47:25.985Z</time></trkpt><trkpt lat="42.518047761858796" lon="11.41647632503653"><ele>74.0</ele><time>2026-04-30T11:47:26.985Z</time></trkpt><trkpt lat="42.51816856637623" lon="11.41633403467891"><ele>73.0</ele><time>2026-04-30T11:47:27.985Z</time></trkpt><trkpt lat="42.518271493096336" lon="11.416212180327836"><ele>73.0</ele><time>2026-04-30T11:47:28.985Z</time></trkpt><trkpt lat="42.51837271005686" lon="11.416097194255459"><ele>73.0</ele><time>2026-04-30T11:47:29.985Z</time></trkpt><trkpt lat="42.5184619043663" lon="11.415990526377875"><ele>73.0</ele><time>2026-04-30T11:47:30.985Z</time></trkpt><trkpt lat="42.51855847920005" lon="11.415898786532548"><ele>73.0</ele><time>2026-04-30T11:47:31.985Z</time></trkpt><trkpt lat="42.51863804244466" lon="11.415779989088508"><ele>73.0</ele><time>2026-04-30T11:47:32.985Z</time></trkpt><trkpt lat="42.51872285914344" lon="11.41569266875392"><ele>73.0</ele><time>2026-04-30T11:47:33.985Z</time></trkpt><trkpt lat="42.518789628553925" lon="11.415604640294534"><ele>73.0</ele><time>2026-04-30T11:47:34.985Z</time></trkpt><trkpt lat="42.518864342053604" lon="11.415513254908616"><ele>73.0</ele><time>2026-04-30T11:47:35.985Z</time></trkpt><trkpt lat="42.518938442012654" lon="11.415412275218186"><ele>73.0</ele><time>2026-04-30T11:47:36.985Z</time></trkpt><trkpt lat="42.51904171616832" lon="11.415299676844388"><ele>73.33333333333333</ele><time>2026-04-30T11:47:37.985Z</time></trkpt><trkpt lat="42.519157471404576" lon="11.415147673662648"><ele>73.66666666666667</ele><time>2026-04-30T11:47:38.985Z</time></trkpt><trkpt lat="42.51927769053363" lon="11.414991648010538"><ele>74.0</ele><time>2026-04-30T11:47:39.985Z</time></trkpt><trkpt lat="42.51939850851125" lon="11.414836252669595"><ele>74.0</ele><time>2026-04-30T11:47:40.985Z</time></trkpt><trkpt lat="42.5195164267596" lon="11.414685414896882"><ele>74.0</ele><time>2026-04-30T11:47:41.985Z</time></trkpt><trkpt lat="42.519630197551145" lon="11.41454003996788"><ele>74.0</ele><time>2026-04-30T11:47:42.985Z</time></trkpt><trkpt lat="42.51974041141621" lon="11.41439921012995"><ele>74.33333333333334</ele><time>2026-04-30T11:47:43.985Z</time></trkpt><trkpt lat="42.51985348135643" lon="11.414254730889917"><ele>74.66666666666667</ele><time>2026-04-30T11:47:44.985Z</time></trkpt><trkpt lat="42.51997105735306" lon="11.414104493869448"><ele>75.0</ele><time>2026-04-30T11:47:45.985Z</time></trkpt><trkpt lat="42.520090637582946" lon="11.413951060435448"><ele>74.75</ele><time>2026-04-30T11:47:46.985Z</time></trkpt><trkpt lat="42.52019657637375" lon="11.413814601488525"><ele>74.5</ele><time>2026-04-30T11:47:47.985Z</time></trkpt><trkpt lat="42.52029421135561" lon="11.413688261123257"><ele>74.25</ele><time>2026-04-30T11:47:48.985Z</time></trkpt><trkpt lat="42.520386465039614" lon="11.413567710697642"><ele>74.0</ele><time>2026-04-30T11:47:49.985Z</time></trkpt><trkpt lat="42.52047464288593" lon="11.413423977753963"><ele>73.5</ele><time>2026-04-30T11:47:50.985Z</time></trkpt><trkpt lat="42.520574955832544" lon="11.413297680432086"><ele>73.0</ele><time>2026-04-30T11:47:51.985Z</time></trkpt><trkpt lat="42.520670077036826" lon="11.413172155645222"><ele>72.5</ele><time>2026-04-30T11:47:52.985Z</time></trkpt><trkpt lat="42.520770729209524" lon="11.413067841836675"><ele>72.0</ele><time>2026-04-30T11:47:53.985Z</time></trkpt><trkpt lat="42.520859187218434" lon="11.412917901129951"><ele>71.25</ele><time>2026-04-30T11:47:54.985Z</time></trkpt><trkpt lat="42.5209509444414" lon="11.412791407065598"><ele>70.5</ele><time>2026-04-30T11:47:55.985Z</time></trkpt><trkpt lat="42.52103908091511" lon="11.41266855805675"><ele>69.75</ele><time>2026-04-30T11:47:56.985Z</time></trkpt><trkpt lat="42.52112393538913" lon="11.412551170877505"><ele>69.0</ele><time>2026-04-30T11:47:57.985Z</time></trkpt><trkpt lat="42.52122276672227" lon="11.412443394449472"><ele>69.0</ele><time>2026-04-30T11:47:58.985Z</time></trkpt><trkpt lat="42.52131225811074" lon="11.41232213844367"><ele>69.0</ele><time>2026-04-30T11:47:59.985Z</time></trkpt><trkpt lat="42.5213938478235" lon="11.412182021553715"><ele>69.0</ele><time>2026-04-30T11:48:00.985Z</time></trkpt><trkpt lat="42.521487761354074" lon="11.412067765972274"><ele>69.0</ele><time>2026-04-30T11:48:01.985Z</time></trkpt><trkpt lat="42.521593775306364" lon="11.4119808069503"><ele>69.0</ele><time>2026-04-30T11:48:02.985Z</time></trkpt><trkpt lat="42.52169805200612" lon="11.41187931950066"><ele>69.0</ele><time>2026-04-30T11:48:03.985Z</time></trkpt><trkpt lat="42.52180793066166" lon="11.411777939607934"><ele>69.0</ele><time>2026-04-30T11:48:04.985Z</time></trkpt><trkpt lat="42.52192166447928" lon="11.411678476545108"><ele>69.0</ele><time>2026-04-30T11:48:05.985Z</time></trkpt><trkpt lat="42.52201301430309" lon="11.411600249209114"><ele>69.0</ele><time>2026-04-30T11:48:06.985Z</time></trkpt><trkpt lat="42.52209552808826" lon="11.411532460674708"><ele>69.0</ele><time>2026-04-30T11:48:07.985Z</time></trkpt><trkpt lat="42.52216064941485" lon="11.411485130141644"><ele>69.0</ele><time>2026-04-30T11:48:08.985Z</time></trkpt><trkpt lat="42.52224698908712" lon="11.411409252861013"><ele>69.0</ele><time>2026-04-30T11:48:10.986Z</time></trkpt><trkpt lat="42.52233300748785" lon="11.411323814158163"><ele>69.0</ele><time>2026-04-30T11:48:12.986Z</time></trkpt><trkpt lat="42.52239910991225" lon="11.411288970421136"><ele>69.0</ele><time>2026-04-30T11:48:13.986Z</time></trkpt><trkpt lat="42.52249216767681" lon="11.41124180694647"><ele>69.0</ele><time>2026-04-30T11:48:15.986Z</time></trkpt><trkpt lat="42.52256146274348" lon="11.411150959708518"><ele>69.0</ele><time>2026-04-30T11:48:17.986Z</time></trkpt><trkpt lat="42.52259779738956" lon="11.411066034155485"><ele>69.0</ele><time>2026-04-30T11:48:18.986Z</time></trkpt><trkpt lat="42.5226227803218" lon="11.410982604583726"><ele>69.0</ele><time>2026-04-30T11:48:19.986Z</time></trkpt><trkpt lat="42.522655356720975" lon="11.410896678988715"><ele>69.0</ele><time>2026-04-30T11:48:22.986Z</time></trkpt><trkpt lat="42.522692706757205" lon="11.410821768807386"><ele>69.0</ele><time>2026-04-30T11:48:24.986Z</time></trkpt><trkpt lat="42.52276288674527" lon="11.4106916511257"><ele>69.0</ele><time>2026-04-30T11:48:27.986Z</time></trkpt><trkpt lat="42.52281359682492" lon="11.410619448098899"><ele>69.0</ele><time>2026-04-30T11:48:28.986Z</time></trkpt><trkpt lat="42.52286122637412" lon="11.410546250795933"><ele>69.0</ele><time>2026-04-30T11:48:29.986Z</time></trkpt><trkpt lat="42.52291131972146" lon="11.410488666139548"><ele>69.0</ele><time>2026-04-30T11:48:30.986Z</time></trkpt><trkpt lat="42.52298669016296" lon="11.410387725603147"><ele>69.0</ele><time>2026-04-30T11:48:32.986Z</time></trkpt><trkpt lat="42.5230295422199" lon="11.410320233192415"><ele>68.60000000000001</ele><time>2026-04-30T11:48:33.986Z</time></trkpt><trkpt lat="42.52308856138347" lon="11.410236275129787"><ele>68.2</ele><time>2026-04-30T11:48:35.986Z</time></trkpt><trkpt lat="42.5231591962788" lon="11.410164485546622"><ele>67.80000000000001</ele><time>2026-04-30T11:48:37.986Z</time></trkpt><trkpt lat="42.52325098886664" lon="11.410047429109433"><ele>67.4</ele><time>2026-04-30T11:48:39.986Z</time></trkpt><trkpt lat="42.52332576283476" lon="11.409964022248094"><ele>67.0</ele><time>2026-04-30T11:48:41.986Z</time></trkpt><trkpt lat="42.523384719587796" lon="11.40990123851543"><ele>67.0</ele><time>2026-04-30T11:48:43.986Z</time></trkpt><trkpt lat="42.52345704663953" lon="11.409879836391594"><ele>67.0</ele><time>2026-04-30T11:52:50.985Z</time></trkpt><trkpt lat="42.52351954880702" lon="11.409844009650342"><ele>67.0</ele><time>2026-04-30T11:52:55.985Z</time></trkpt><trkpt lat="42.52359191858601" lon="11.409860669206713"><ele>67.0</ele><time>2026-04-30T11:52:57.985Z</time></trkpt><trkpt lat="42.52367937981851" lon="11.409861604199321"><ele>67.0</ele><time>2026-04-30T11:53:00.985Z</time></trkpt><trkpt lat="42.52375414661776" lon="11.409880457826143"><ele>67.0</ele><time>2026-04-30T11:53:09.985Z</time></trkpt><trkpt lat="42.52384090144118" lon="11.409912516263185"><ele>66.33333333333333</ele><time>2026-04-30T11:53:12.985Z</time></trkpt><trkpt lat="42.52393663232214" lon="11.409923605197983"><ele>65.66666666666666</ele><time>2026-04-30T11:53:15.985Z</time></trkpt><trkpt lat="42.52402289277392" lon="11.409932702802953"><ele>65.0</ele><time>2026-04-30T11:53:25.985Z</time></trkpt><trkpt lat="42.52409004549312" lon="11.409940381682858"><ele>64.33333333333333</ele><time>2026-04-30T11:53:28.985Z</time></trkpt><trkpt lat="42.5241499636767" lon="11.409970044973127"><ele>63.666666666666664</ele><time>2026-04-30T11:53:30.985Z</time></trkpt><trkpt lat="42.524218435380355" lon="11.410018738863572"><ele>63.0</ele><time>2026-04-30T11:53:32.986Z</time></trkpt><trkpt lat="42.524310732759076" lon="11.410053611597984"><ele>63.0</ele><time>2026-04-30T11:53:34.986Z</time></trkpt><trkpt lat="42.52437867442582" lon="11.410049276710998"><ele>63.0</ele><time>2026-04-30T11:53:36.983Z</time></trkpt><trkpt lat="42.52444296832259" lon="11.410037076982364"><ele>63.0</ele><time>2026-04-30T11:53:39.984Z</time></trkpt><trkpt lat="42.524518250504485" lon="11.409964773012062"><ele>63.0</ele><time>2026-04-30T11:53:42.983Z</time></trkpt><trkpt lat="42.52455853038913" lon="11.409892668054487"><ele>63.0</ele><time>2026-04-30T11:53:44.983Z</time></trkpt><trkpt lat="42.5246127987705" lon="11.409765216757048"><ele>63.0</ele><time>2026-04-30T11:53:46.983Z</time></trkpt><trkpt lat="42.52468116983006" lon="11.409666172394715"><ele>64.0</ele><time>2026-04-30T11:53:48.983Z</time></trkpt><trkpt lat="42.52473567821992" lon="11.409615090855585"><ele>65.0</ele><time>2026-04-30T11:53:49.983Z</time></trkpt><trkpt lat="42.52478432572292" lon="11.409545683836072"><ele>66.0</ele><time>2026-04-30T11:53:50.983Z</time></trkpt><trkpt lat="42.52487069127172" lon="11.40945746283023"><ele>67.0</ele><time>2026-04-30T11:53:52.983Z</time></trkpt><trkpt lat="42.52493110589321" lon="11.409412849218864"><ele>68.0</ele><time>2026-04-30T11:53:55.983Z</time></trkpt><trkpt lat="42.52501437006317" lon="11.409342128349147"><ele>69.0</ele><time>2026-04-30T11:54:00.984Z</time></trkpt><trkpt lat="42.525103537245144" lon="11.409275251624518"><ele>69.0</ele><time>2026-04-30T11:54:02.984Z</time></trkpt><trkpt lat="42.525197252690454" lon="11.409243076252354"><ele>69.0</ele><time>2026-04-30T11:54:04.984Z</time></trkpt><trkpt lat="42.525327638508244" lon="11.40925723370302"><ele>69.0</ele><time>2026-04-30T11:54:06.984Z</time></trkpt><trkpt lat="42.52540178761028" lon="11.409253045574578"><ele>69.0</ele><time>2026-04-30T11:54:07.984Z</time></trkpt><trkpt lat="42.52548801900321" lon="11.409244884543496"><ele>69.0</ele><time>2026-04-30T11:54:08.984Z</time></trkpt><trkpt lat="42.525586744516836" lon="11.409227793682883"><ele>70.2</ele><time>2026-04-30T11:54:09.984Z</time></trkpt><trkpt lat="42.525683713502424" lon="11.409215610868175"><ele>71.4</ele><time>2026-04-30T11:54:10.984Z</time></trkpt><trkpt lat="42.52577231585713" lon="11.409190110287977"><ele>72.6</ele><time>2026-04-30T11:54:11.984Z</time></trkpt><trkpt lat="42.52585820223456" lon="11.40914401497806"><ele>73.8</ele><time>2026-04-30T11:54:12.984Z</time></trkpt><trkpt lat="42.52595245544593" lon="11.409077835928144"><ele>75.0</ele><time>2026-04-30T11:54:13.984Z</time></trkpt><trkpt lat="42.52603610782995" lon="11.40901668184373"><ele>75.0</ele><time>2026-04-30T11:54:14.984Z</time></trkpt><trkpt lat="42.52609249314057" lon="11.408946334975699"><ele>75.0</ele><time>2026-04-30T11:54:15.984Z</time></trkpt><trkpt lat="42.52613846437568" lon="11.408868992911492"><ele>75.0</ele><time>2026-04-30T11:54:16.984Z</time></trkpt><trkpt lat="42.526225863194995" lon="11.408723092668197"><ele>75.0</ele><time>2026-04-30T11:54:18.984Z</time></trkpt><trkpt lat="42.52628529061023" lon="11.408640208796735"><ele>75.0</ele><time>2026-04-30T11:54:19.984Z</time></trkpt><trkpt lat="42.5263441375035" lon="11.408569566649053"><ele>75.0</ele><time>2026-04-30T11:54:20.984Z</time></trkpt><trkpt lat="42.526399713773024" lon="11.408490190627331"><ele>75.0</ele><time>2026-04-30T11:54:21.984Z</time></trkpt><trkpt lat="42.52644525561488" lon="11.408409579265056"><ele>75.0</ele><time>2026-04-30T11:54:22.984Z</time></trkpt><trkpt lat="42.52649454324631" lon="11.408317898486832"><ele>75.0</ele><time>2026-04-30T11:54:23.984Z</time></trkpt><trkpt lat="42.52653966236933" lon="11.408242725047257"><ele>75.0</ele><time>2026-04-30T11:54:24.984Z</time></trkpt><trkpt lat="42.526581888344104" lon="11.408163883254096"><ele>75.0</ele><time>2026-04-30T11:54:25.984Z</time></trkpt><trkpt lat="42.52662806756473" lon="11.408096114921445"><ele>75.0</ele><time>2026-04-30T11:54:26.984Z</time></trkpt><trkpt lat="42.5266724860759" lon="11.408035149795117"><ele>75.0</ele><time>2026-04-30T11:54:27.984Z</time></trkpt><trkpt lat="42.52675804009811" lon="11.407926749203536"><ele>75.0</ele><time>2026-04-30T11:54:29.984Z</time></trkpt><trkpt lat="42.52683122679266" lon="11.407867057121583"><ele>75.0</ele><time>2026-04-30T11:54:31.984Z</time></trkpt><trkpt lat="42.5268868560305" lon="11.407810505876075"><ele>75.0</ele><time>2026-04-30T11:54:33.984Z</time></trkpt><trkpt lat="42.52688646026148" lon="11.407703762398931"><ele>75.0</ele><time>2026-04-30T11:54:38.984Z</time></trkpt><trkpt lat="42.52681568534069" lon="11.407577045796065"><ele>74.2</ele><time>2026-04-30T11:54:40.984Z</time></trkpt><trkpt lat="42.52675708540573" lon="11.407517396069746"><ele>73.4</ele><time>2026-04-30T11:54:41.984Z</time></trkpt><trkpt lat="42.526697814464924" lon="11.407446500060917"><ele>72.6</ele><time>2026-04-30T11:54:42.984Z</time></trkpt><trkpt lat="42.526615941956926" lon="11.407364734346537"><ele>71.8</ele><time>2026-04-30T11:54:43.984Z</time></trkpt><trkpt lat="42.5265329258024" lon="11.40728253207948"><ele>71.0</ele><time>2026-04-30T11:54:44.984Z</time></trkpt><trkpt lat="42.52645267787693" lon="11.407207020928384"><ele>70.6</ele><time>2026-04-30T11:54:45.984Z</time></trkpt><trkpt lat="42.526374172884154" lon="11.407132006898776"><ele>70.19999999999999</ele><time>2026-04-30T11:54:46.984Z</time></trkpt><trkpt lat="42.52630175504042" lon="11.407048023423705"><ele>69.80000000000001</ele><time>2026-04-30T11:54:47.984Z</time></trkpt><trkpt lat="42.52622231416244" lon="11.40697194817953"><ele>69.4</ele><time>2026-04-30T11:54:48.984Z</time></trkpt><trkpt lat="42.52615291569121" lon="11.406905833194203"><ele>69.0</ele><time>2026-04-30T11:54:49.984Z</time></trkpt><trkpt lat="42.526089937798425" lon="11.406839349373852"><ele>70.33333333333333</ele><time>2026-04-30T11:54:50.984Z</time></trkpt><trkpt lat="42.5260322836467" lon="11.406771103148845"><ele>71.66666666666667</ele><time>2026-04-30T11:54:51.984Z</time></trkpt><trkpt lat="42.52595849616239" lon="11.40670178879734"><ele>73.0</ele><time>2026-04-30T11:54:52.984Z</time></trkpt><trkpt lat="42.52589006241512" lon="11.406637748553653"><ele>74.33333333333334</ele><time>2026-04-30T11:54:53.984Z</time></trkpt><trkpt lat="42.52581753496092" lon="11.406576998063205"><ele>75.66666666666667</ele><time>2026-04-30T11:54:54.984Z</time></trkpt><trkpt lat="42.52574598594758" lon="11.406515575354248"><ele>77.0</ele><time>2026-04-30T11:54:55.984Z</time></trkpt><trkpt lat="42.52567252499035" lon="11.406443365076456"><ele>77.0</ele><time>2026-04-30T11:54:56.984Z</time></trkpt><trkpt lat="42.525598700316635" lon="11.406378931963443"><ele>77.0</ele><time>2026-04-30T11:54:57.984Z</time></trkpt><trkpt lat="42.525523927069614" lon="11.406307096602816"><ele>77.0</ele><time>2026-04-30T11:54:58.984Z</time></trkpt><trkpt lat="42.525437364384345" lon="11.406226544445529"><ele>77.0</ele><time>2026-04-30T11:54:59.984Z</time></trkpt><trkpt lat="42.5253499718253" lon="11.406155223569957"><ele>77.0</ele><time>2026-04-30T11:55:00.984Z</time></trkpt><trkpt lat="42.525276495587185" lon="11.406078988468101"><ele>78.0</ele><time>2026-04-30T11:55:01.984Z</time></trkpt><trkpt lat="42.5252174020232" lon="11.406016747981976"><ele>79.0</ele><time>2026-04-30T11:55:02.984Z</time></trkpt><trkpt lat="42.52515548259855" lon="11.405970709895485"><ele>80.0</ele><time>2026-04-30T11:55:03.984Z</time></trkpt><trkpt lat="42.525082653243466" lon="11.405921207567513"><ele>81.0</ele><time>2026-04-30T11:55:04.984Z</time></trkpt><trkpt lat="42.5250162707193" lon="11.40587471228321"><ele>82.0</ele><time>2026-04-30T11:55:05.984Z</time></trkpt><trkpt lat="42.524967210743114" lon="11.405818510369864"><ele>83.0</ele><time>2026-04-30T11:55:06.984Z</time></trkpt><trkpt lat="42.5248852773705" lon="11.405681697346957"><ele>83.0</ele><time>2026-04-30T11:55:08.984Z</time></trkpt><trkpt lat="42.524843407513465" lon="11.405608117226466"><ele>83.0</ele><time>2026-04-30T11:55:09.984Z</time></trkpt><trkpt lat="42.52479210978102" lon="11.405519942290203"><ele>83.0</ele><time>2026-04-30T11:55:10.985Z</time></trkpt><trkpt lat="42.524743175247735" lon="11.405430690295542"><ele>83.0</ele><time>2026-04-30T11:55:11.985Z</time></trkpt><trkpt lat="42.52469384800813" lon="11.405346155502242"><ele>83.0</ele><time>2026-04-30T11:55:12.985Z</time></trkpt><trkpt lat="42.52465499031522" lon="11.405255206953468"><ele>83.0</ele><time>2026-04-30T11:55:13.985Z</time></trkpt><trkpt lat="42.52460137271147" lon="11.40516155880134"><ele>84.16666666666667</ele><time>2026-04-30T11:55:14.985Z</time></trkpt><trkpt lat="42.52455572463271" lon="11.405099375776174"><ele>85.33333333333334</ele><time>2026-04-30T11:55:15.985Z</time></trkpt><trkpt lat="42.52445368464331" lon="11.405023723865927"><ele>86.5</ele><time>2026-04-30T11:55:17.985Z</time></trkpt><trkpt lat="42.524368954179685" lon="11.405007370368308"><ele>87.66666666666667</ele><time>2026-04-30T11:55:18.985Z</time></trkpt><trkpt lat="42.52428842883565" lon="11.404980910959425"><ele>88.83333333333333</ele><time>2026-04-30T11:55:19.985Z</time></trkpt><trkpt lat="42.524219070578724" lon="11.404956453047014"><ele>90.0</ele><time>2026-04-30T11:55:20.985Z</time></trkpt><trkpt lat="42.524131171741" lon="11.404957543790838"><ele>90.0</ele><time>2026-04-30T11:55:22.985Z</time></trkpt><trkpt lat="42.52407093981786" lon="11.404988736037131"><ele>90.0</ele><time>2026-04-30T11:55:24.985Z</time></trkpt><trkpt lat="42.523975697699" lon="11.4050020511687"><ele>90.0</ele><time>2026-04-30T11:55:26.985Z</time></trkpt><trkpt lat="42.523882850270226" lon="11.405009530561715"><ele>90.0</ele><time>2026-04-30T11:55:28.985Z</time></trkpt><trkpt lat="42.523787299352136" lon="11.405085226587389"><ele>90.0</ele><time>2026-04-30T11:55:30.985Z</time></trkpt><trkpt lat="42.52373201362745" lon="11.405140725779775"><ele>90.0</ele><time>2026-04-30T11:55:31.985Z</time></trkpt><trkpt lat="42.52364496813926" lon="11.405268978704997"><ele>91.5</ele><time>2026-04-30T11:55:33.985Z</time></trkpt><trkpt lat="42.523588775324335" lon="11.405336766408471"><ele>93.0</ele><time>2026-04-30T11:55:34.985Z</time></trkpt><trkpt lat="42.523531998378836" lon="11.405402698575948"><ele>94.5</ele><time>2026-04-30T11:55:35.985Z</time></trkpt><trkpt lat="42.523461399566685" lon="11.405436594446277"><ele>96.0</ele><time>2026-04-30T11:55:36.985Z</time></trkpt><trkpt lat="42.52339565571437" lon="11.405442618739235"><ele>97.5</ele><time>2026-04-30T11:55:37.985Z</time></trkpt><trkpt lat="42.52331141789385" lon="11.4054168528388"><ele>99.0</ele><time>2026-04-30T11:55:38.985Z</time></trkpt><trkpt lat="42.52321770517289" lon="11.405374772570864"><ele>99.0</ele><time>2026-04-30T11:55:39.985Z</time></trkpt><trkpt lat="42.52311014351216" lon="11.40533516006883"><ele>99.0</ele><time>2026-04-30T11:55:40.985Z</time></trkpt><trkpt lat="42.52301534168894" lon="11.405292702454352"><ele>99.0</ele><time>2026-04-30T11:55:41.982Z</time></trkpt><trkpt lat="42.5229484356916" lon="11.405241768852887"><ele>99.0</ele><time>2026-04-30T11:55:42.982Z</time></trkpt><trkpt lat="42.522875989645115" lon="11.405159046603817"><ele>99.0</ele><time>2026-04-30T11:55:43.982Z</time></trkpt><trkpt lat="42.52279599849141" lon="11.405061246141045"><ele>98.66666666666667</ele><time>2026-04-30T11:55:44.981Z</time></trkpt><trkpt lat="42.52272144379111" lon="11.4049536190909"><ele>98.33333333333334</ele><time>2026-04-30T11:55:45.981Z</time></trkpt><trkpt lat="42.5226495019606" lon="11.404874165343243"><ele>98.0</ele><time>2026-04-30T11:55:46.981Z</time></trkpt><trkpt lat="42.52258415023035" lon="11.404823062371007"><ele>97.66666666666667</ele><time>2026-04-30T11:55:47.982Z</time></trkpt><trkpt lat="42.52252170768194" lon="11.404773775932876"><ele>97.33333333333334</ele><time>2026-04-30T11:55:48.981Z</time></trkpt><trkpt lat="42.52244656373326" lon="11.404734505827454"><ele>97.0</ele><time>2026-04-30T11:55:49.981Z</time></trkpt><trkpt lat="42.52237637086073" lon="11.404694634354392"><ele>98.0</ele><time>2026-04-30T11:55:50.981Z</time></trkpt><trkpt lat="42.522313870096546" lon="11.404636360682746"><ele>99.0</ele><time>2026-04-30T11:55:52.981Z</time></trkpt><trkpt lat="42.52224387024186" lon="11.4045084769044"><ele>100.0</ele><time>2026-04-30T11:55:54.981Z</time></trkpt><trkpt lat="42.52218288451306" lon="11.404452794637159"><ele>101.0</ele><time>2026-04-30T11:55:55.981Z</time></trkpt><trkpt lat="42.52210565465066" lon="11.404366058157745"><ele>102.0</ele><time>2026-04-30T11:55:57.981Z</time></trkpt><trkpt lat="42.52202751475832" lon="11.404294205594114"><ele>101.16666666666667</ele><time>2026-04-30T11:55:59.981Z</time></trkpt><trkpt lat="42.52209406469253" lon="11.404364037192954"><ele>100.33333333333334</ele><time>2026-04-30T11:57:12.982Z</time></trkpt><trkpt lat="42.52214785451344" lon="11.404425409420423"><ele>99.5</ele><time>2026-04-30T11:57:13.982Z</time></trkpt><trkpt lat="42.52224524881173" lon="11.404556477635294"><ele>98.66666666666667</ele><time>2026-04-30T11:57:15.982Z</time></trkpt><trkpt lat="42.5222893047966" lon="11.404622420521214"><ele>97.83333333333334</ele><time>2026-04-30T11:57:16.982Z</time></trkpt><trkpt lat="42.52236406664119" lon="11.40468481817901"><ele>97.0</ele><time>2026-04-30T11:57:18.982Z</time></trkpt><trkpt lat="42.52243017922094" lon="11.404743007574838"><ele>97.0</ele><time>2026-04-30T11:57:20.982Z</time></trkpt><trkpt lat="42.52251676562705" lon="11.404781015298866"><ele>97.0</ele><time>2026-04-30T11:57:22.982Z</time></trkpt><trkpt lat="42.5226215299536" lon="11.404881414365066"><ele>97.0</ele><time>2026-04-30T11:57:24.982Z</time></trkpt><trkpt lat="42.52266742028605" lon="11.404949537513836"><ele>97.0</ele><time>2026-04-30T11:57:25.982Z</time></trkpt><trkpt lat="42.52271847315717" lon="11.405031873673437"><ele>97.0</ele><time>2026-04-30T11:57:26.982Z</time></trkpt><trkpt lat="42.52278048562579" lon="11.405128578361087"><ele>97.00000000000001</ele><time>2026-04-30T11:57:27.982Z</time></trkpt><trkpt lat="42.52284831051416" lon="11.405201463051974"><ele>97.0</ele><time>2026-04-30T11:57:28.982Z</time></trkpt><trkpt lat="42.52290893562179" lon="11.405263860606333"><ele>97.0</ele><time>2026-04-30T11:57:29.982Z</time></trkpt><trkpt lat="42.52297046471353" lon="11.405299687292136"><ele>97.0</ele><time>2026-04-30T11:57:30.982Z</time></trkpt><trkpt lat="42.52304084884107" lon="11.405329242609088"><ele>97.00000000000001</ele><time>2026-04-30T11:57:31.982Z</time></trkpt><trkpt lat="42.523140741035675" lon="11.405359107127676"><ele>97.0</ele><time>2026-04-30T11:57:32.982Z</time></trkpt><trkpt lat="42.52322304661272" lon="11.405388821685008"><ele>97.5</ele><time>2026-04-30T11:57:33.982Z</time></trkpt><trkpt lat="42.52334686405924" lon="11.405415055004276"><ele>98.0</ele><time>2026-04-30T11:57:35.982Z</time></trkpt><trkpt lat="42.52345426317537" lon="11.405384133552417"><ele>98.5</ele><time>2026-04-30T11:57:37.982Z</time></trkpt><trkpt lat="42.52356420886026" lon="11.40527402433001"><ele>99.0</ele><time>2026-04-30T11:57:39.982Z</time></trkpt><trkpt lat="42.523641381767256" lon="11.405178420442995"><ele>99.0</ele><time>2026-04-30T11:57:41.982Z</time></trkpt><trkpt lat="42.5237018834495" lon="11.405108404585295"><ele>99.0</ele><time>2026-04-30T11:57:43.982Z</time></trkpt><trkpt lat="42.523772591628216" lon="11.40504663557365"><ele>99.0</ele><time>2026-04-30T11:57:45.982Z</time></trkpt><trkpt lat="42.52384457415648" lon="11.405011624829855"><ele>99.0</ele><time>2026-04-30T11:57:47.979Z</time></trkpt><trkpt lat="42.523927967475565" lon="11.404990158469698"><ele>99.0</ele><time>2026-04-30T11:57:49.98Z</time></trkpt><trkpt lat="42.52412387032301" lon="11.404975691251687"><ele>97.5</ele><time>2026-04-30T11:57:54.98Z</time></trkpt><trkpt lat="42.52421739204951" lon="11.4050014897378"><ele>96.0</ele><time>2026-04-30T11:57:57.979Z</time></trkpt><trkpt lat="42.52428861795362" lon="11.40505416527783"><ele>94.5</ele><time>2026-04-30T11:57:59.979Z</time></trkpt><trkpt lat="42.52438073196929" lon="11.405039881570621"><ele>93.0</ele><time>2026-04-30T11:58:12.98Z</time></trkpt><trkpt lat="42.524309634637426" lon="11.405036523752665"><ele>91.5</ele><time>2026-04-30T11:58:13.98Z</time></trkpt><trkpt lat="42.524247734585536" lon="11.405002998066621"><ele>90.0</ele><time>2026-04-30T11:58:14.98Z</time></trkpt><trkpt lat="42.52418864993544" lon="11.40496412741133"><ele>90.0</ele><time>2026-04-30T11:58:15.98Z</time></trkpt><trkpt lat="42.52409626105344" lon="11.40495647532258"><ele>90.0</ele><time>2026-04-30T11:58:17.98Z</time></trkpt><trkpt lat="42.5240190871369" lon="11.405003445918686"><ele>90.0</ele><time>2026-04-30T11:58:19.98Z</time></trkpt><trkpt lat="42.523906913614425" lon="11.405018559209871"><ele>90.0</ele><time>2026-04-30T11:58:21.98Z</time></trkpt><trkpt lat="42.52378537045035" lon="11.405059782858107"><ele>90.0</ele><time>2026-04-30T11:58:23.98Z</time></trkpt><trkpt lat="42.52373319196891" lon="11.405110515536492"><ele>91.5</ele><time>2026-04-30T11:58:24.98Z</time></trkpt><trkpt lat="42.52367325052009" lon="11.405186459849672"><ele>93.0</ele><time>2026-04-30T11:58:25.98Z</time></trkpt><trkpt lat="42.52362048978794" lon="11.405254958795362"><ele>94.5</ele><time>2026-04-30T11:58:26.98Z</time></trkpt><trkpt lat="42.523563719920624" lon="11.40531820127886"><ele>96.0</ele><time>2026-04-30T11:58:27.98Z</time></trkpt><trkpt lat="42.523507778232094" lon="11.405386331161319"><ele>97.5</ele><time>2026-04-30T11:58:28.98Z</time></trkpt><trkpt lat="42.52344137739927" lon="11.405438930029604"><ele>99.0</ele><time>2026-04-30T11:58:29.98Z</time></trkpt><trkpt lat="42.52336294264933" lon="11.40546433440025"><ele>99.0</ele><time>2026-04-30T11:58:30.98Z</time></trkpt><trkpt lat="42.52328747166293" lon="11.40543954294215"><ele>99.0</ele><time>2026-04-30T11:58:31.98Z</time></trkpt><trkpt lat="42.52319903412592" lon="11.405400648644804"><ele>99.0</ele><time>2026-04-30T11:58:32.98Z</time></trkpt><trkpt lat="42.5230940322909" lon="11.405361310518673"><ele>99.0</ele><time>2026-04-30T11:58:33.98Z</time></trkpt><trkpt lat="42.52300374372342" lon="11.405325577428288"><ele>99.0</ele><time>2026-04-30T11:58:34.98Z</time></trkpt><trkpt lat="42.52293205833733" lon="11.405272585139071"><ele>98.6</ele><time>2026-04-30T11:58:35.98Z</time></trkpt><trkpt lat="42.52285187571495" lon="11.405180731540241"><ele>98.2</ele><time>2026-04-30T11:58:36.98Z</time></trkpt><trkpt lat="42.52277192664761" lon="11.405076979875497"><ele>97.8</ele><time>2026-04-30T11:58:37.98Z</time></trkpt><trkpt lat="42.522702812482784" lon="11.404975993320296"><ele>97.39999999999999</ele><time>2026-04-30T11:58:38.98Z</time></trkpt><trkpt lat="42.522633069987045" lon="11.404892819881132"><ele>97.0</ele><time>2026-04-30T11:58:39.98Z</time></trkpt><trkpt lat="42.522552259229485" lon="11.404821421406687"><ele>97.0</ele><time>2026-04-30T11:58:40.98Z</time></trkpt><trkpt lat="42.52246892204198" lon="11.404769012479731"><ele>97.0</ele><time>2026-04-30T11:58:41.98Z</time></trkpt><trkpt lat="42.5223863360832" lon="11.404729382520475"><ele>97.0</ele><time>2026-04-30T11:58:42.98Z</time></trkpt><trkpt lat="42.522285879907145" lon="11.40465627074999"><ele>97.0</ele><time>2026-04-30T11:58:44.98Z</time></trkpt><trkpt lat="42.52216626189544" lon="11.40444899550778"><ele>98.25</ele><time>2026-04-30T11:58:46.98Z</time></trkpt><trkpt lat="42.52206142720082" lon="11.404349271404412"><ele>99.5</ele><time>2026-04-30T11:58:47.98Z</time></trkpt><trkpt lat="42.52195995162539" lon="11.40426608013623"><ele>100.75</ele><time>2026-04-30T11:58:48.98Z</time></trkpt><trkpt lat="42.5218649886546" lon="11.404202948284906"><ele>102.0</ele><time>2026-04-30T11:58:49.98Z</time></trkpt><trkpt lat="42.52176926434653" lon="11.404165131867627"><ele>102.0</ele><time>2026-04-30T11:58:50.98Z</time></trkpt><trkpt lat="42.5216887211034" lon="11.404140391721308"><ele>102.0</ele><time>2026-04-30T11:58:51.98Z</time></trkpt><trkpt lat="42.521617487487724" lon="11.40411051467256"><ele>102.0</ele><time>2026-04-30T11:58:52.98Z</time></trkpt><trkpt lat="42.52153081711824" lon="11.404070913427944"><ele>102.0</ele><time>2026-04-30T11:58:54.98Z</time></trkpt><trkpt lat="42.52143034011488" lon="11.4040325499923"><ele>102.0</ele><time>2026-04-30T11:58:56.98Z</time></trkpt><trkpt lat="42.52132248801525" lon="11.404039991294345"><ele>102.0</ele><time>2026-04-30T11:58:58.98Z</time></trkpt><trkpt lat="42.52122098428257" lon="11.4040463820298"><ele>102.0</ele><time>2026-04-30T11:59:00.98Z</time></trkpt><trkpt lat="42.521103465006526" lon="11.404026318681344"><ele>102.0</ele><time>2026-04-30T11:59:02.98Z</time></trkpt><trkpt lat="42.521043140938005" lon="11.40399382677193"><ele>102.0</ele><time>2026-04-30T11:59:03.98Z</time></trkpt><trkpt lat="42.52099046869805" lon="11.403944966686687"><ele>102.0</ele><time>2026-04-30T11:59:05.98Z</time></trkpt><trkpt lat="42.520927696096614" lon="11.403918205775915"><ele>102.0</ele><time>2026-04-30T11:59:07.981Z</time></trkpt><trkpt lat="42.5208635659754" lon="11.403880860839084"><ele>102.0</ele><time>2026-04-30T11:59:08.981Z</time></trkpt><trkpt lat="42.520786540328075" lon="11.403877117235876"><ele>102.0</ele><time>2026-04-30T11:59:09.981Z</time></trkpt><trkpt lat="42.52071498835169" lon="11.403895365759622"><ele>102.0</ele><time>2026-04-30T11:59:10.981Z</time></trkpt><trkpt lat="42.52063714290549" lon="11.403908555706504"><ele>102.0</ele><time>2026-04-30T11:59:11.981Z</time></trkpt><trkpt lat="42.520568582538104" lon="11.403907075335566"><ele>102.0</ele><time>2026-04-30T11:59:12.981Z</time></trkpt><trkpt lat="42.52050080962738" lon="11.403890544588592"><ele>102.0</ele><time>2026-04-30T11:59:13.981Z</time></trkpt><trkpt lat="42.5204341591807" lon="11.403860499752163"><ele>102.0</ele><time>2026-04-30T11:59:14.981Z</time></trkpt><trkpt lat="42.52037107177595" lon="11.403823595201322"><ele>101.5</ele><time>2026-04-30T11:59:15.981Z</time></trkpt><trkpt lat="42.52029613862059" lon="11.403769181288613"><ele>101.0</ele><time>2026-04-30T11:59:17.981Z</time></trkpt><trkpt lat="42.52021644096715" lon="11.403708944928344"><ele>100.5</ele><time>2026-04-30T11:59:22.981Z</time></trkpt><trkpt lat="42.520151643083764" lon="11.40367768926357"><ele>100.0</ele><time>2026-04-30T11:59:30.981Z</time></trkpt><trkpt lat="42.5200739695915" lon="11.403657937015229"><ele>99.5</ele><time>2026-04-30T11:59:33.981Z</time></trkpt><trkpt lat="42.51997006330597" lon="11.403703773686125"><ele>99.0</ele><time>2026-04-30T11:59:36.981Z</time></trkpt><trkpt lat="42.519848534783954" lon="11.403734969057693"><ele>99.0</ele><time>2026-04-30T11:59:38.981Z</time></trkpt><trkpt lat="42.519783114679555" lon="11.40376214716736"><ele>99.0</ele><time>2026-04-30T11:59:39.981Z</time></trkpt><trkpt lat="42.51969364828986" lon="11.403785042314627"><ele>99.0</ele><time>2026-04-30T11:59:40.981Z</time></trkpt><trkpt lat="42.519585148207405" lon="11.403805657999765"><ele>99.0</ele><time>2026-04-30T11:59:41.981Z</time></trkpt><trkpt lat="42.519476951113425" lon="11.40382813234468"><ele>99.0</ele><time>2026-04-30T11:59:42.981Z</time></trkpt><trkpt lat="42.519371914821676" lon="11.403859186102771"><ele>100.6</ele><time>2026-04-30T11:59:43.981Z</time></trkpt><trkpt lat="42.51924082364747" lon="11.403904973112283"><ele>102.2</ele><time>2026-04-30T11:59:44.981Z</time></trkpt><trkpt lat="42.51912923387845" lon="11.403934871472249"><ele>103.79999999999998</ele><time>2026-04-30T11:59:45.981Z</time></trkpt><trkpt lat="42.51903681007444" lon="11.403962638088796"><ele>105.39999999999999</ele><time>2026-04-30T11:59:46.981Z</time></trkpt><trkpt lat="42.51895162274513" lon="11.403986395098512"><ele>107.0</ele><time>2026-04-30T11:59:47.981Z</time></trkpt><trkpt lat="42.51887260804106" lon="11.404004765000938"><ele>107.0</ele><time>2026-04-30T11:59:48.981Z</time></trkpt><trkpt lat="42.51880237458442" lon="11.404014486725542"><ele>106.99999999999999</ele><time>2026-04-30T11:59:49.981Z</time></trkpt><trkpt lat="42.51869734301122" lon="11.404043342004165"><ele>106.99999999999999</ele><time>2026-04-30T11:59:51.981Z</time></trkpt><trkpt lat="42.51857496381406" lon="11.404076074897917"><ele>107.0</ele><time>2026-04-30T11:59:53.978Z</time></trkpt><trkpt lat="42.51847806043908" lon="11.404082317491522"><ele>107.0</ele><time>2026-04-30T11:59:54.977Z</time></trkpt><trkpt lat="42.51838943774513" lon="11.404075489192762"><ele>107.33333333333333</ele><time>2026-04-30T11:59:55.977Z</time></trkpt><trkpt lat="42.51830904917854" lon="11.404064577713159"><ele>107.66666666666666</ele><time>2026-04-30T11:59:56.978Z</time></trkpt><trkpt lat="42.518246020723275" lon="11.404060691711656"><ele>108.0</ele><time>2026-04-30T11:59:57.978Z</time></trkpt><trkpt lat="42.51813259403608" lon="11.4040401913226"><ele>108.33333333333334</ele><time>2026-04-30T11:59:59.978Z</time></trkpt><trkpt lat="42.51805317395165" lon="11.40401707151237"><ele>108.66666666666667</ele><time>2026-04-30T12:00:00.977Z</time></trkpt><trkpt lat="42.51795306309752" lon="11.403982179908091"><ele>109.0</ele><time>2026-04-30T12:00:01.977Z</time></trkpt><trkpt lat="42.51786711332189" lon="11.403951320740175"><ele>109.0</ele><time>2026-04-30T12:00:02.978Z</time></trkpt><trkpt lat="42.51779192447965" lon="11.403912790469901"><ele>109.0</ele><time>2026-04-30T12:00:03.977Z</time></trkpt><trkpt lat="42.51772170842541" lon="11.403898637720756"><ele>109.0</ele><time>2026-04-30T12:00:04.977Z</time></trkpt><trkpt lat="42.517623083469374" lon="11.403929225558727"><ele>109.0</ele><time>2026-04-30T12:00:06.977Z</time></trkpt><trkpt lat="42.51750701305656" lon="11.403922622403819"><ele>109.0</ele><time>2026-04-30T12:00:08.977Z</time></trkpt><trkpt lat="42.51738513861289" lon="11.403898252500747"><ele>109.0</ele><time>2026-04-30T12:00:10.977Z</time></trkpt><trkpt lat="42.51731517649577" lon="11.403886333332785"><ele>109.0</ele><time>2026-04-30T12:00:11.977Z</time></trkpt><trkpt lat="42.517239079562906" lon="11.403881030384328"><ele>109.0</ele><time>2026-04-30T12:00:12.977Z</time></trkpt><trkpt lat="42.51716556941287" lon="11.40388712590973"><ele>109.0</ele><time>2026-04-30T12:00:13.977Z</time></trkpt><trkpt lat="42.51709571611971" lon="11.403883838339937"><ele>109.0</ele><time>2026-04-30T12:00:14.977Z</time></trkpt><trkpt lat="42.51702609238276" lon="11.403882070010315"><ele>109.0</ele><time>2026-04-30T12:00:15.977Z</time></trkpt><trkpt lat="42.51694421336804" lon="11.403894386090702"><ele>109.0</ele><time>2026-04-30T12:00:16.977Z</time></trkpt><trkpt lat="42.516866424017955" lon="11.403902811908019"><ele>108.80000000000001</ele><time>2026-04-30T12:00:17.977Z</time></trkpt><trkpt lat="42.516775861593324" lon="11.403848267944523"><ele>108.60000000000001</ele><time>2026-04-30T12:00:19.977Z</time></trkpt><trkpt lat="42.5166928315999" lon="11.40384407334918"><ele>108.4</ele><time>2026-04-30T12:00:23.977Z</time></trkpt><trkpt lat="42.51657027838516" lon="11.403819297109502"><ele>108.2</ele><time>2026-04-30T12:00:25.977Z</time></trkpt><trkpt lat="42.51648762829738" lon="11.403785754422836"><ele>108.0</ele><time>2026-04-30T12:00:26.977Z</time></trkpt><trkpt lat="42.516377160684044" lon="11.403744680354272"><ele>108.0</ele><time>2026-04-30T12:00:27.977Z</time></trkpt><trkpt lat="42.51625400342502" lon="11.403711873829902"><ele>108.0</ele><time>2026-04-30T12:00:28.977Z</time></trkpt><trkpt lat="42.51614605968718" lon="11.403684081521721"><ele>108.0</ele><time>2026-04-30T12:00:29.977Z</time></trkpt><trkpt lat="42.516035549324506" lon="11.403662262209792"><ele>108.0</ele><time>2026-04-30T12:00:30.977Z</time></trkpt><trkpt lat="42.51592435248115" lon="11.403646694919109"><ele>109.0</ele><time>2026-04-30T12:00:31.978Z</time></trkpt><trkpt lat="42.515821287009736" lon="11.403632590924007"><ele>110.00000000000001</ele><time>2026-04-30T12:00:32.978Z</time></trkpt><trkpt lat="42.51573419032365" lon="11.403623648293783"><ele>111.00000000000001</ele><time>2026-04-30T12:00:33.978Z</time></trkpt><trkpt lat="42.515648661949314" lon="11.403615529779488"><ele>112.0</ele><time>2026-04-30T12:00:34.978Z</time></trkpt><trkpt lat="42.515557855931" lon="11.40361261392404"><ele>113.0</ele><time>2026-04-30T12:00:35.978Z</time></trkpt><trkpt lat="42.515473384670294" lon="11.403613366014435"><ele>112.99999999999999</ele><time>2026-04-30T12:00:36.978Z</time></trkpt><trkpt lat="42.515405456496396" lon="11.403613588394466"><ele>113.0</ele><time>2026-04-30T12:00:37.978Z</time></trkpt><trkpt lat="42.5153308576132" lon="11.40360032050674"><ele>113.0</ele><time>2026-04-30T12:00:38.978Z</time></trkpt><trkpt lat="42.51525090137872" lon="11.403581941021121"><ele>113.0</ele><time>2026-04-30T12:00:39.978Z</time></trkpt><trkpt lat="42.515190582641864" lon="11.403555426001546"><ele>112.99999999999999</ele><time>2026-04-30T12:00:40.978Z</time></trkpt><trkpt lat="42.515077398974135" lon="11.403541991446598"><ele>113.0</ele><time>2026-04-30T12:00:42.978Z</time></trkpt><trkpt lat="42.51500268745653" lon="11.403529350629078"><ele>113.49999999999999</ele><time>2026-04-30T12:00:43.978Z</time></trkpt><trkpt lat="42.51492061342796" lon="11.403508587591961"><ele>114.0</ele><time>2026-04-30T12:00:45.978Z</time></trkpt><trkpt lat="42.51485483677413" lon="11.40349927396416"><ele>114.5</ele><time>2026-04-30T12:00:50.978Z</time></trkpt><trkpt lat="42.51479101098717" lon="11.403401762213829"><ele>115.0</ele><time>2026-04-30T12:00:53.978Z</time></trkpt><trkpt lat="42.51477013886079" lon="11.403300424105124"><ele>115.49999999999999</ele><time>2026-04-30T12:00:55.978Z</time></trkpt><trkpt lat="42.514738533511604" lon="11.403166039368486"><ele>116.0</ele><time>2026-04-30T12:00:57.978Z</time></trkpt><trkpt lat="42.514741202435786" lon="11.403077186924232"><ele>115.4</ele><time>2026-04-30T12:00:58.978Z</time></trkpt><trkpt lat="42.51474802691281" lon="11.402963191039344"><ele>114.8</ele><time>2026-04-30T12:00:59.978Z</time></trkpt><trkpt lat="42.514752891063985" lon="11.402826176507752"><ele>114.20000000000002</ele><time>2026-04-30T12:01:00.978Z</time></trkpt><trkpt lat="42.51473903801162" lon="11.402712862327341"><ele>113.60000000000001</ele><time>2026-04-30T12:01:01.978Z</time></trkpt><trkpt lat="42.51471682754651" lon="11.402607371712076"><ele>113.0</ele><time>2026-04-30T12:01:02.978Z</time></trkpt><trkpt lat="42.5146767223103" lon="11.40246549787233"><ele>113.0</ele><time>2026-04-30T12:01:04.978Z</time></trkpt><trkpt lat="42.514610801109335" lon="11.402310518942777"><ele>113.00000000000001</ele><time>2026-04-30T12:01:06.978Z</time></trkpt><trkpt lat="42.51459298360275" lon="11.402218166308355"><ele>113.00000000000001</ele><time>2026-04-30T12:01:07.978Z</time></trkpt><trkpt lat="42.51457795878128" lon="11.402121995318828"><ele>113.0</ele><time>2026-04-30T12:01:08.978Z</time></trkpt><trkpt lat="42.51455183254007" lon="11.40202484169718"><ele>113.0</ele><time>2026-04-30T12:01:09.978Z</time></trkpt><trkpt lat="42.51448627161399" lon="11.401874428568254"><ele>115.80000000000001</ele><time>2026-04-30T12:01:11.978Z</time></trkpt><trkpt lat="42.51444614537437" lon="11.401804727184379"><ele>118.60000000000001</ele><time>2026-04-30T12:01:12.978Z</time></trkpt><trkpt lat="42.514352525179" lon="11.401730554805297"><ele>121.39999999999999</ele><time>2026-04-30T12:01:14.978Z</time></trkpt><trkpt lat="42.51421819409338" lon="11.401686542745448"><ele>124.19999999999999</ele><time>2026-04-30T12:01:16.978Z</time></trkpt><trkpt lat="42.51414875922608" lon="11.401649699228496"><ele>127.0</ele><time>2026-04-30T12:01:17.978Z</time></trkpt><trkpt lat="42.514065130346914" lon="11.40162335220872"><ele>127.0</ele><time>2026-04-30T12:01:18.978Z</time></trkpt><trkpt lat="42.513954395041885" lon="11.401617007355524"><ele>126.99999999999999</ele><time>2026-04-30T12:01:20.978Z</time></trkpt><trkpt lat="42.51383446475845" lon="11.401575176475294"><ele>126.99999999999999</ele><time>2026-04-30T12:01:22.978Z</time></trkpt><trkpt lat="42.513743361202934" lon="11.401548782257427"><ele>127.0</ele><time>2026-04-30T12:01:23.978Z</time></trkpt><trkpt lat="42.51366341461632" lon="11.401525455890695"><ele>127.0</ele><time>2026-04-30T12:01:24.978Z</time></trkpt><trkpt lat="42.51358435976385" lon="11.40148934812125"><ele>127.19999999999999</ele><time>2026-04-30T12:01:25.978Z</time></trkpt><trkpt lat="42.51351656199733" lon="11.401454928137577"><ele>127.39999999999999</ele><time>2026-04-30T12:01:26.978Z</time></trkpt><trkpt lat="42.51344945933022" lon="11.401420644584029"><ele>127.60000000000001</ele><time>2026-04-30T12:01:27.978Z</time></trkpt><trkpt lat="42.5133859765315" lon="11.401381763779012"><ele>127.80000000000001</ele><time>2026-04-30T12:01:28.978Z</time></trkpt><trkpt lat="42.513297863685345" lon="11.401280593449028"><ele>128.0</ele><time>2026-04-30T12:01:30.978Z</time></trkpt><trkpt lat="42.513212941159395" lon="11.401161415424491"><ele>128.0</ele><time>2026-04-30T12:01:32.978Z</time></trkpt><trkpt lat="42.51312263410481" lon="11.40110047861691"><ele>128.0</ele><time>2026-04-30T12:01:34.978Z</time></trkpt><trkpt lat="42.51300240094365" lon="11.401094890550866"><ele>128.0</ele><time>2026-04-30T12:01:36.978Z</time></trkpt><trkpt lat="42.512925210779635" lon="11.401128307954423"><ele>128.0</ele><time>2026-04-30T12:01:37.978Z</time></trkpt><trkpt lat="42.51284038606872" lon="11.401149099896001"><ele>128.0</ele><time>2026-04-30T12:01:38.978Z</time></trkpt><trkpt lat="42.512758983592484" lon="11.401164242728116"><ele>129.6</ele><time>2026-04-30T12:01:39.978Z</time></trkpt><trkpt lat="42.51268756522362" lon="11.40117575134845"><ele>131.20000000000002</ele><time>2026-04-30T12:01:40.978Z</time></trkpt><trkpt lat="42.512596577626645" lon="11.401190642412088"><ele>132.8</ele><time>2026-04-30T12:01:41.978Z</time></trkpt><trkpt lat="42.51250353918366" lon="11.401197742141541"><ele>134.4</ele><time>2026-04-30T12:01:42.978Z</time></trkpt><trkpt lat="42.512390303332" lon="11.401178281732689"><ele>136.0</ele><time>2026-04-30T12:01:43.978Z</time></trkpt><trkpt lat="42.512269624096724" lon="11.401134213891195"><ele>136.0</ele><time>2026-04-30T12:01:44.978Z</time></trkpt><trkpt lat="42.512146956254455" lon="11.401087248184195"><ele>136.0</ele><time>2026-04-30T12:01:45.979Z</time></trkpt><trkpt lat="42.51204206196825" lon="11.401019366303382"><ele>136.0</ele><time>2026-04-30T12:01:46.979Z</time></trkpt><trkpt lat="42.51194513964555" lon="11.400955374148618"><ele>136.0</ele><time>2026-04-30T12:01:47.979Z</time></trkpt><trkpt lat="42.51185747981797" lon="11.400914692690924"><ele>136.0</ele><time>2026-04-30T12:01:48.979Z</time></trkpt><trkpt lat="42.51177882637614" lon="11.400894495998216"><ele>136.8</ele><time>2026-04-30T12:01:49.979Z</time></trkpt><trkpt lat="42.51171424799363" lon="11.400889125807712"><ele>137.6</ele><time>2026-04-30T12:01:50.979Z</time></trkpt><trkpt lat="42.511628331276235" lon="11.4008733783461"><ele>138.4</ele><time>2026-04-30T12:01:51.979Z</time></trkpt><trkpt lat="42.511520014317995" lon="11.400832141831353"><ele>139.2</ele><time>2026-04-30T12:01:52.979Z</time></trkpt><trkpt lat="42.51143056863594" lon="11.400753640463984"><ele>140.0</ele><time>2026-04-30T12:01:53.979Z</time></trkpt><trkpt lat="42.51134809937509" lon="11.400667016333756"><ele>140.0</ele><time>2026-04-30T12:01:54.979Z</time></trkpt><trkpt lat="42.51127628202632" lon="11.400573759588735"><ele>140.0</ele><time>2026-04-30T12:01:55.979Z</time></trkpt><trkpt lat="42.51120261204433" lon="11.400469590598524"><ele>140.0</ele><time>2026-04-30T12:01:56.979Z</time></trkpt><trkpt lat="42.51115697720537" lon="11.400368163610649"><ele>140.0</ele><time>2026-04-30T12:01:57.979Z</time></trkpt><trkpt lat="42.51112546489405" lon="11.400274358047982"><ele>140.0</ele><time>2026-04-30T12:01:58.979Z</time></trkpt><trkpt lat="42.51108168109551" lon="11.400178153905173"><ele>141.5</ele><time>2026-04-30T12:01:59.975Z</time></trkpt><trkpt lat="42.5110475482424" lon="11.400096961983314"><ele>143.0</ele><time>2026-04-30T12:02:00.975Z</time></trkpt><trkpt lat="42.51100794201681" lon="11.400009871308376"><ele>144.5</ele><time>2026-04-30T12:02:01.975Z</time></trkpt><trkpt lat="42.510954046316066" lon="11.399907450214688"><ele>146.0</ele><time>2026-04-30T12:02:02.975Z</time></trkpt><trkpt lat="42.51091820503112" lon="11.399812225721305"><ele>147.5</ele><time>2026-04-30T12:02:03.976Z</time></trkpt><trkpt lat="42.51089957910956" lon="11.399702152131663"><ele>149.0</ele><time>2026-04-30T12:02:04.976Z</time></trkpt><trkpt lat="42.51089563548887" lon="11.399574326637527"><ele>150.2</ele><time>2026-04-30T12:02:05.975Z</time></trkpt><trkpt lat="42.51088752482512" lon="11.399443270252707"><ele>151.4</ele><time>2026-04-30T12:02:06.976Z</time></trkpt><trkpt lat="42.51085682040836" lon="11.399320605750656"><ele>152.6</ele><time>2026-04-30T12:02:07.976Z</time></trkpt><trkpt lat="42.51080934701695" lon="11.399181047811176"><ele>153.8</ele><time>2026-04-30T12:02:08.975Z</time></trkpt><trkpt lat="42.51074885643632" lon="11.39902030318016"><ele>155.0</ele><time>2026-04-30T12:02:09.976Z</time></trkpt><trkpt lat="42.51068856744542" lon="11.398852883681839"><ele>155.2</ele><time>2026-04-30T12:02:10.976Z</time></trkpt><trkpt lat="42.51064710837177" lon="11.398697035443869"><ele>155.4</ele><time>2026-04-30T12:02:11.976Z</time></trkpt><trkpt lat="42.51062168865993" lon="11.398548130967951"><ele>155.6</ele><time>2026-04-30T12:02:12.975Z</time></trkpt><trkpt lat="42.51060331723078" lon="11.398403459967325"><ele>155.8</ele><time>2026-04-30T12:02:13.975Z</time></trkpt><trkpt lat="42.51058585036494" lon="11.398269254574068"><ele>156.0</ele><time>2026-04-30T12:02:14.975Z</time></trkpt><trkpt lat="42.51058756363402" lon="11.398168278177536"><ele>156.0</ele><time>2026-04-30T12:02:15.975Z</time></trkpt><trkpt lat="42.510585634516374" lon="11.398040506291434"><ele>156.0</ele><time>2026-04-30T12:02:16.975Z</time></trkpt><trkpt lat="42.51058553656802" lon="11.397893739729152"><ele>156.0</ele><time>2026-04-30T12:02:17.975Z</time></trkpt><trkpt lat="42.510583356977946" lon="11.397760439408849"><ele>156.0</ele><time>2026-04-30T12:02:18.975Z</time></trkpt><trkpt lat="42.510583393120115" lon="11.397655576085894"><ele>156.0</ele><time>2026-04-30T12:02:19.975Z</time></trkpt><trkpt lat="42.51058412382626" lon="11.397570145612097"><ele>156.0</ele><time>2026-04-30T12:02:20.975Z</time></trkpt><trkpt lat="42.51058655106709" lon="11.397464590887125"><ele>156.4</ele><time>2026-04-30T12:02:21.975Z</time></trkpt><trkpt lat="42.51058507199359" lon="11.397355480448558"><ele>156.8</ele><time>2026-04-30T12:02:22.975Z</time></trkpt><trkpt lat="42.51058292963258" lon="11.397228718655416"><ele>157.20000000000002</ele><time>2026-04-30T12:02:23.975Z</time></trkpt><trkpt lat="42.510569721761584" lon="11.397098900401248"><ele>157.6</ele><time>2026-04-30T12:02:24.975Z</time></trkpt><trkpt lat="42.51056169339271" lon="11.396960941581863"><ele>158.0</ele><time>2026-04-30T12:02:25.975Z</time></trkpt><trkpt lat="42.51056042717908" lon="11.39680460401513"><ele>158.25</ele><time>2026-04-30T12:02:26.975Z</time></trkpt><trkpt lat="42.5105660884116" lon="11.396624025592315"><ele>158.5</ele><time>2026-04-30T12:02:27.975Z</time></trkpt><trkpt lat="42.51056578814635" lon="11.396435946282834"><ele>158.75</ele><time>2026-04-30T12:02:28.975Z</time></trkpt><trkpt lat="42.51055924725637" lon="11.39628582500918"><ele>159.0</ele><time>2026-04-30T12:02:29.975Z</time></trkpt><trkpt lat="42.510535177093175" lon="11.396157234526358"><ele>158.6</ele><time>2026-04-30T12:02:30.975Z</time></trkpt><trkpt lat="42.51051719452704" lon="11.396039811777934"><ele>158.2</ele><time>2026-04-30T12:02:31.975Z</time></trkpt><trkpt lat="42.5104829737912" lon="11.39593011014183"><ele>157.79999999999998</ele><time>2026-04-30T12:02:32.975Z</time></trkpt><trkpt lat="42.51043880697768" lon="11.395827726476764"><ele>157.4</ele><time>2026-04-30T12:02:33.975Z</time></trkpt><trkpt lat="42.51038279991492" lon="11.395693213257443"><ele>157.0</ele><time>2026-04-30T12:02:35.975Z</time></trkpt><trkpt lat="42.51033473094493" lon="11.395575293440368"><ele>158.39999999999998</ele><time>2026-04-30T12:02:37.975Z</time></trkpt><trkpt lat="42.51029355192139" lon="11.395425639030366"><ele>159.79999999999998</ele><time>2026-04-30T12:02:39.975Z</time></trkpt><trkpt lat="42.51028013174255" lon="11.39531522720702"><ele>161.2</ele><time>2026-04-30T12:02:40.975Z</time></trkpt><trkpt lat="42.51028174960069" lon="11.39516885863776"><ele>162.6</ele><time>2026-04-30T12:02:41.975Z</time></trkpt><trkpt lat="42.5102591308507" lon="11.395021519878156"><ele>164.0</ele><time>2026-04-30T12:02:42.975Z</time></trkpt><trkpt lat="42.5102262690602" lon="11.394887381208195"><ele>164.0</ele><time>2026-04-30T12:02:43.975Z</time></trkpt><trkpt lat="42.51019639976722" lon="11.39473501244987"><ele>164.0</ele><time>2026-04-30T12:02:44.975Z</time></trkpt><trkpt lat="42.51017459142731" lon="11.394575184545735"><ele>164.0</ele><time>2026-04-30T12:02:45.975Z</time></trkpt><trkpt lat="42.51015313809902" lon="11.394398832580826"><ele>164.0</ele><time>2026-04-30T12:02:46.975Z</time></trkpt><trkpt lat="42.51014762056649" lon="11.394245662317754"><ele>163.79999999999998</ele><time>2026-04-30T12:02:47.976Z</time></trkpt><trkpt lat="42.5101570814566" lon="11.394121842005815"><ele>163.6</ele><time>2026-04-30T12:02:48.976Z</time></trkpt><trkpt lat="42.51018400584298" lon="11.39402331790238"><ele>163.4</ele><time>2026-04-30T12:02:49.976Z</time></trkpt><trkpt lat="42.51020621244669" lon="11.393900329976477"><ele>163.2</ele><time>2026-04-30T12:02:50.976Z</time></trkpt><trkpt lat="42.510237517851095" lon="11.393768276032837"><ele>163.0</ele><time>2026-04-30T12:02:51.976Z</time></trkpt><trkpt lat="42.51027097226282" lon="11.393633056501079"><ele>162.75</ele><time>2026-04-30T12:02:52.976Z</time></trkpt><trkpt lat="42.51031277671001" lon="11.39350391780363"><ele>162.5</ele><time>2026-04-30T12:02:53.976Z</time></trkpt><trkpt lat="42.510363765541705" lon="11.393363114319946"><ele>162.25</ele><time>2026-04-30T12:02:54.976Z</time></trkpt><trkpt lat="42.51040363593212" lon="11.39319926305594"><ele>162.0</ele><time>2026-04-30T12:02:55.976Z</time></trkpt><trkpt lat="42.51042947231578" lon="11.393042730783947"><ele>162.83333333333334</ele><time>2026-04-30T12:02:56.976Z</time></trkpt><trkpt lat="42.51043926397669" lon="11.392902271993695"><ele>163.66666666666666</ele><time>2026-04-30T12:02:57.976Z</time></trkpt><trkpt lat="42.510445471770105" lon="11.392791248045217"><ele>164.5</ele><time>2026-04-30T12:02:58.976Z</time></trkpt><trkpt lat="42.51044016888604" lon="11.392686004162629"><ele>165.33333333333331</ele><time>2026-04-30T12:02:59.976Z</time></trkpt><trkpt lat="42.510416442580656" lon="11.392569363573665"><ele>166.16666666666666</ele><time>2026-04-30T12:03:00.976Z</time></trkpt><trkpt lat="42.51038808089493" lon="11.392462567619134"><ele>167.0</ele><time>2026-04-30T12:03:01.976Z</time></trkpt><trkpt lat="42.510347694037854" lon="11.392364495213451"><ele>167.0</ele><time>2026-04-30T12:03:02.976Z</time></trkpt><trkpt lat="42.51029570895136" lon="11.392293690625644"><ele>167.0</ele><time>2026-04-30T12:03:03.976Z</time></trkpt><trkpt lat="42.51022966246112" lon="11.392245288117504"><ele>167.0</ele><time>2026-04-30T12:03:04.976Z</time></trkpt><trkpt lat="42.5101578415004" lon="11.39222584293284"><ele>167.0</ele><time>2026-04-30T12:03:05.976Z</time></trkpt><trkpt lat="42.51007847614206" lon="11.392230123438244"><ele>167.0</ele><time>2026-04-30T12:03:06.976Z</time></trkpt><trkpt lat="42.50999819922794" lon="11.392258946381672"><ele>167.0</ele><time>2026-04-30T12:03:07.976Z</time></trkpt><trkpt lat="42.509906711607805" lon="11.392312899378823"><ele>167.0</ele><time>2026-04-30T12:03:08.976Z</time></trkpt><trkpt lat="42.50978959852117" lon="11.39239357232691"><ele>167.0</ele><time>2026-04-30T12:03:09.976Z</time></trkpt><trkpt lat="42.509691022665535" lon="11.392451664034239"><ele>167.0</ele><time>2026-04-30T12:03:10.976Z</time></trkpt><trkpt lat="42.50961304667238" lon="11.392505004855158"><ele>167.0</ele><time>2026-04-30T12:03:11.976Z</time></trkpt><trkpt lat="42.509543834985784" lon="11.392524252812395"><ele>167.0</ele><time>2026-04-30T12:03:12.976Z</time></trkpt><trkpt lat="42.509418037033065" lon="11.3924912405085"><ele>166.39999999999998</ele><time>2026-04-30T12:03:14.976Z</time></trkpt><trkpt lat="42.5093307953995" lon="11.392444993794618"><ele>165.79999999999998</ele><time>2026-04-30T12:03:15.976Z</time></trkpt><trkpt lat="42.50922909663649" lon="11.39239527571649"><ele>165.2</ele><time>2026-04-30T12:03:16.976Z</time></trkpt><trkpt lat="42.50911958206007" lon="11.392338871505242"><ele>164.6</ele><time>2026-04-30T12:03:17.976Z</time></trkpt><trkpt lat="42.509004756462055" lon="11.392291593379689"><ele>164.0</ele><time>2026-04-30T12:03:18.976Z</time></trkpt><trkpt lat="42.508893289630315" lon="11.392246400597072"><ele>164.0</ele><time>2026-04-30T12:03:19.976Z</time></trkpt><trkpt lat="42.508803631044124" lon="11.39218820618981"><ele>164.0</ele><time>2026-04-30T12:03:20.976Z</time></trkpt><trkpt lat="42.508720792165896" lon="11.39211180545587"><ele>164.0</ele><time>2026-04-30T12:03:21.976Z</time></trkpt><trkpt lat="42.50863921808745" lon="11.392036609955955"><ele>164.0</ele><time>2026-04-30T12:03:22.976Z</time></trkpt><trkpt lat="42.508542516443484" lon="11.391965696027095"><ele>164.0</ele><time>2026-04-30T12:03:23.976Z</time></trkpt><trkpt lat="42.508446617423274" lon="11.391917263610065"><ele>164.79999999999998</ele><time>2026-04-30T12:03:24.976Z</time></trkpt><trkpt lat="42.50834667209655" lon="11.391901382529039"><ele>165.6</ele><time>2026-04-30T12:03:25.976Z</time></trkpt><trkpt lat="42.50826244966869" lon="11.391872745254098"><ele>166.4</ele><time>2026-04-30T12:03:26.976Z</time></trkpt><trkpt lat="42.50816451999319" lon="11.391794410663643"><ele>167.2</ele><time>2026-04-30T12:03:28.976Z</time></trkpt><trkpt lat="42.50811266483967" lon="11.391715240063625"><ele>168.0</ele><time>2026-04-30T12:03:29.976Z</time></trkpt><trkpt lat="42.50805173297221" lon="11.391612718120586"><ele>168.0</ele><time>2026-04-30T12:03:30.976Z</time></trkpt><trkpt lat="42.50795638891892" lon="11.391464735886341"><ele>168.0</ele><time>2026-04-30T12:03:31.976Z</time></trkpt><trkpt lat="42.50780082741185" lon="11.39134033714623"><ele>168.0</ele><time>2026-04-30T12:03:32.976Z</time></trkpt><trkpt lat="42.50767373778753" lon="11.391247053003385"><ele>169.0</ele><time>2026-04-30T12:03:33.976Z</time></trkpt><trkpt lat="42.50755692988973" lon="11.3911356004624"><ele>170.0</ele><time>2026-04-30T12:03:34.976Z</time></trkpt><trkpt lat="42.50745110567129" lon="11.391021654839543"><ele>171.0</ele><time>2026-04-30T12:03:35.976Z</time></trkpt><trkpt lat="42.50736030870142" lon="11.390948768257136"><ele>172.0</ele><time>2026-04-30T12:03:36.976Z</time></trkpt><trkpt lat="42.507291123516815" lon="11.390916552877796"><ele>172.0</ele><time>2026-04-30T12:03:37.976Z</time></trkpt><trkpt lat="42.507206193589354" lon="11.390862091302754"><ele>172.0</ele><time>2026-04-30T12:03:38.976Z</time></trkpt><trkpt lat="42.5070855670816" lon="11.390748081479089"><ele>172.0</ele><time>2026-04-30T12:03:40.976Z</time></trkpt><trkpt lat="42.50701062330296" lon="11.39067651980732"><ele>172.0</ele><time>2026-04-30T12:03:41.976Z</time></trkpt><trkpt lat="42.50693434966947" lon="11.390589363316876"><ele>172.0</ele><time>2026-04-30T12:03:42.976Z</time></trkpt><trkpt lat="42.506863162577844" lon="11.390502869347909"><ele>170.39999999999998</ele><time>2026-04-30T12:03:43.976Z</time></trkpt><trkpt lat="42.50678742363136" lon="11.390401276923862"><ele>168.79999999999998</ele><time>2026-04-30T12:03:44.976Z</time></trkpt><trkpt lat="42.50670915239991" lon="11.390311291020183"><ele>167.2</ele><time>2026-04-30T12:03:45.976Z</time></trkpt><trkpt lat="42.50663042757242" lon="11.390241247156005"><ele>165.6</ele><time>2026-04-30T12:03:46.976Z</time></trkpt><trkpt lat="42.50654233142141" lon="11.390183191733946"><ele>164.0</ele><time>2026-04-30T12:03:47.976Z</time></trkpt><trkpt lat="42.50645084759954" lon="11.39011146590306"><ele>164.0</ele><time>2026-04-30T12:03:48.976Z</time></trkpt><trkpt lat="42.50637177172431" lon="11.390034770570642"><ele>164.0</ele><time>2026-04-30T12:03:49.976Z</time></trkpt><trkpt lat="42.506275456754615" lon="11.389952572499247"><ele>164.0</ele><time>2026-04-30T12:03:50.976Z</time></trkpt><trkpt lat="42.50618061096336" lon="11.389899663594878"><ele>164.0</ele><time>2026-04-30T12:03:51.976Z</time></trkpt><trkpt lat="42.506086772992056" lon="11.389848510888532"><ele>164.0</ele><time>2026-04-30T12:03:52.976Z</time></trkpt><trkpt lat="42.50600769483451" lon="11.389773614840056"><ele>162.0</ele><time>2026-04-30T12:03:53.976Z</time></trkpt><trkpt lat="42.50593084909586" lon="11.389681803156394"><ele>160.0</ele><time>2026-04-30T12:03:54.976Z</time></trkpt><trkpt lat="42.505852895837606" lon="11.389571057100765"><ele>158.0</ele><time>2026-04-30T12:03:55.976Z</time></trkpt><trkpt lat="42.505782582805864" lon="11.389462272608204"><ele>156.0</ele><time>2026-04-30T12:03:56.976Z</time></trkpt><trkpt lat="42.50571014799765" lon="11.389378142943864"><ele>154.0</ele><time>2026-04-30T12:03:57.976Z</time></trkpt><trkpt lat="42.50564689127068" lon="11.389320252122426"><ele>154.0</ele><time>2026-04-30T12:03:58.976Z</time></trkpt><trkpt lat="42.50559870001219" lon="11.38924860316324"><ele>154.0</ele><time>2026-04-30T12:03:59.976Z</time></trkpt><trkpt lat="42.50555876038393" lon="11.389173999934249"><ele>154.0</ele><time>2026-04-30T12:04:00.976Z</time></trkpt><trkpt lat="42.50553256815494" lon="11.38906672674974"><ele>154.0</ele><time>2026-04-30T12:04:01.977Z</time></trkpt><trkpt lat="42.5055241291156" lon="11.388972213914084"><ele>154.0</ele><time>2026-04-30T12:04:02.977Z</time></trkpt><trkpt lat="42.505530247988816" lon="11.388884365903245"><ele>154.0</ele><time>2026-04-30T12:04:03.977Z</time></trkpt><trkpt lat="42.50553857988362" lon="11.388775394636605"><ele>154.0</ele><time>2026-04-30T12:04:04.977Z</time></trkpt><trkpt lat="42.50556279121646" lon="11.388647850572019"><ele>153.0</ele><time>2026-04-30T12:04:05.975Z</time></trkpt><trkpt lat="42.5056120733757" lon="11.388503294981016"><ele>152.0</ele><time>2026-04-30T12:04:06.975Z</time></trkpt><trkpt lat="42.505661073984555" lon="11.388367134784726"><ele>151.0</ele><time>2026-04-30T12:04:07.975Z</time></trkpt><trkpt lat="42.50569884103216" lon="11.388277340873374"><ele>150.0</ele><time>2026-04-30T12:04:08.975Z</time></trkpt><trkpt lat="42.505742251032345" lon="11.388212703606456"><ele>149.0</ele><time>2026-04-30T12:04:09.975Z</time></trkpt><trkpt lat="42.50586003484374" lon="11.38813676233812"><ele>149.0</ele><time>2026-04-30T12:04:11.974Z</time></trkpt><trkpt lat="42.5059314560643" lon="11.388093484036137"><ele>149.0</ele><time>2026-04-30T12:04:12.974Z</time></trkpt><trkpt lat="42.506006691448306" lon="11.388031453838883"><ele>149.0</ele><time>2026-04-30T12:04:13.974Z</time></trkpt><trkpt lat="42.50605873417745" lon="11.387949130304836"><ele>149.0</ele><time>2026-04-30T12:04:14.974Z</time></trkpt><trkpt lat="42.506101726743445" lon="11.387813351121151"><ele>149.0</ele><time>2026-04-30T12:04:15.974Z</time></trkpt><trkpt lat="42.50613458324386" lon="11.387701298000096"><ele>149.0</ele><time>2026-04-30T12:04:16.974Z</time></trkpt><trkpt lat="42.50616598162065" lon="11.387591174101676"><ele>147.2</ele><time>2026-04-30T12:04:17.975Z</time></trkpt><trkpt lat="42.50618289635853" lon="11.387451412207453"><ele>145.4</ele><time>2026-04-30T12:04:18.974Z</time></trkpt><trkpt lat="42.50618481072961" lon="11.387295923030107"><ele>143.6</ele><time>2026-04-30T12:04:19.974Z</time></trkpt><trkpt lat="42.50618758557715" lon="11.387155219357659"><ele>141.8</ele><time>2026-04-30T12:04:20.974Z</time></trkpt><trkpt lat="42.50619388604442" lon="11.387032967353347"><ele>140.0</ele><time>2026-04-30T12:04:21.975Z</time></trkpt><trkpt lat="42.50620345777562" lon="11.386946951227861"><ele>139.2</ele><time>2026-04-30T12:04:22.975Z</time></trkpt><trkpt lat="42.50616146226073" lon="11.386843359906852"><ele>138.4</ele><time>2026-04-30T12:04:24.975Z</time></trkpt><trkpt lat="42.50604222581124" lon="11.386745083893693"><ele>137.6</ele><time>2026-04-30T12:04:26.975Z</time></trkpt><trkpt lat="42.50597049912797" lon="11.386682135274176"><ele>136.8</ele><time>2026-04-30T12:04:27.975Z</time></trkpt><trkpt lat="42.50590155810748" lon="11.386626029534838"><ele>136.0</ele><time>2026-04-30T12:04:28.975Z</time></trkpt><trkpt lat="42.505839251640026" lon="11.386531265869303"><ele>136.0</ele><time>2026-04-30T12:04:29.975Z</time></trkpt><trkpt lat="42.50579385070874" lon="11.386424657803346"><ele>136.0</ele><time>2026-04-30T12:04:30.975Z</time></trkpt><trkpt lat="42.50576633434719" lon="11.386313669227698"><ele>136.0</ele><time>2026-04-30T12:04:31.975Z</time></trkpt><trkpt lat="42.50574645124549" lon="11.386182711113296"><ele>136.0</ele><time>2026-04-30T12:04:32.975Z</time></trkpt><trkpt lat="42.50573589538645" lon="11.386058320651857"><ele>136.0</ele><time>2026-04-30T12:04:33.975Z</time></trkpt><trkpt lat="42.505733270784226" lon="11.385908569204327"><ele>135.6</ele><time>2026-04-30T12:04:34.975Z</time></trkpt><trkpt lat="42.505728265837334" lon="11.385743410437282"><ele>135.2</ele><time>2026-04-30T12:04:35.975Z</time></trkpt><trkpt lat="42.50572168117604" lon="11.38558668922892"><ele>134.8</ele><time>2026-04-30T12:04:36.975Z</time></trkpt><trkpt lat="42.50572402999461" lon="11.38545373193171"><ele>134.4</ele><time>2026-04-30T12:04:37.975Z</time></trkpt><trkpt lat="42.50572398593779" lon="11.38532824950537"><ele>134.0</ele><time>2026-04-30T12:04:38.975Z</time></trkpt><trkpt lat="42.50571582540094" lon="11.385166981382984"><ele>132.8</ele><time>2026-04-30T12:04:39.975Z</time></trkpt><trkpt lat="42.50570989639934" lon="11.38499792932795"><ele>131.60000000000002</ele><time>2026-04-30T12:04:40.975Z</time></trkpt><trkpt lat="42.50571384348998" lon="11.384853336234615"><ele>130.4</ele><time>2026-04-30T12:04:41.975Z</time></trkpt><trkpt lat="42.505706687772815" lon="11.38472227494989"><ele>129.20000000000002</ele><time>2026-04-30T12:04:42.975Z</time></trkpt><trkpt lat="42.50571191169036" lon="11.384612395996898"><ele>128.0</ele><time>2026-04-30T12:04:43.975Z</time></trkpt><trkpt lat="42.50572259708325" lon="11.384510894924464"><ele>127.2</ele><time>2026-04-30T12:04:44.975Z</time></trkpt><trkpt lat="42.50572470867373" lon="11.384413338433916"><ele>126.4</ele><time>2026-04-30T12:04:45.975Z</time></trkpt><trkpt lat="42.50563380257162" lon="11.384245764417356"><ele>125.60000000000001</ele><time>2026-04-30T12:04:47.975Z</time></trkpt><trkpt lat="42.50557955314812" lon="11.384131761681346"><ele>124.80000000000001</ele><time>2026-04-30T12:04:48.975Z</time></trkpt><trkpt lat="42.50552640298276" lon="11.384007319140892"><ele>124.0</ele><time>2026-04-30T12:04:49.975Z</time></trkpt><trkpt lat="42.50546013283873" lon="11.383888406974686"><ele>122.6</ele><time>2026-04-30T12:04:50.975Z</time></trkpt><trkpt lat="42.50539234781683" lon="11.383772778362898"><ele>121.2</ele><time>2026-04-30T12:04:51.975Z</time></trkpt><trkpt lat="42.50533028492583" lon="11.383669746540496"><ele>119.79999999999998</ele><time>2026-04-30T12:04:52.975Z</time></trkpt><trkpt lat="42.505274392736986" lon="11.383576375863969"><ele>118.39999999999999</ele><time>2026-04-30T12:04:53.975Z</time></trkpt><trkpt lat="42.50522644826599" lon="11.38348993398759"><ele>117.0</ele><time>2026-04-30T12:04:54.975Z</time></trkpt><trkpt lat="42.50518742213452" lon="11.383398848683424"><ele>117.0</ele><time>2026-04-30T12:04:55.975Z</time></trkpt><trkpt lat="42.505147489987486" lon="11.383321316100023"><ele>117.0</ele><time>2026-04-30T12:04:56.975Z</time></trkpt><trkpt lat="42.50511065002761" lon="11.383234966249734"><ele>117.0</ele><time>2026-04-30T12:04:57.975Z</time></trkpt><trkpt lat="42.50502423158919" lon="11.383095805781318"><ele>117.0</ele><time>2026-04-30T12:04:59.975Z</time></trkpt><trkpt lat="42.504965507132155" lon="11.383025228867073"><ele>117.0</ele><time>2026-04-30T12:05:00.975Z</time></trkpt><trkpt lat="42.50489005545142" lon="11.38296598793618"><ele>117.0</ele><time>2026-04-30T12:05:01.975Z</time></trkpt><trkpt lat="42.50480527522325" lon="11.38292312480508"><ele>115.0</ele><time>2026-04-30T12:05:02.975Z</time></trkpt><trkpt lat="42.504728109189934" lon="11.382893801920076"><ele>112.99999999999999</ele><time>2026-04-30T12:05:03.975Z</time></trkpt><trkpt lat="42.50463432417135" lon="11.382856551103403"><ele>110.99999999999999</ele><time>2026-04-30T12:05:04.975Z</time></trkpt><trkpt lat="42.504512987342494" lon="11.38280238567916"><ele>109.0</ele><time>2026-04-30T12:05:05.975Z</time></trkpt><trkpt lat="42.50440884699869" lon="11.382747429414742"><ele>107.0</ele><time>2026-04-30T12:05:06.975Z</time></trkpt><trkpt lat="42.50432273714196" lon="11.382707615135672"><ele>106.19999999999999</ele><time>2026-04-30T12:05:07.975Z</time></trkpt><trkpt lat="42.504221047009885" lon="11.382655657125715"><ele>105.39999999999999</ele><time>2026-04-30T12:05:08.975Z</time></trkpt><trkpt lat="42.50411644525771" lon="11.382596382862825"><ele>104.6</ele><time>2026-04-30T12:05:09.975Z</time></trkpt><trkpt lat="42.50400852699141" lon="11.38253103818104"><ele>103.80000000000001</ele><time>2026-04-30T12:05:10.975Z</time></trkpt><trkpt lat="42.503924561134355" lon="11.382471326987197"><ele>103.0</ele><time>2026-04-30T12:05:11.975Z</time></trkpt><trkpt lat="42.50385578337305" lon="11.382423147758242"><ele>103.0</ele><time>2026-04-30T12:05:12.975Z</time></trkpt><trkpt lat="42.50379535946644" lon="11.382383617585134"><ele>103.0</ele><time>2026-04-30T12:05:13.975Z</time></trkpt><trkpt lat="42.50371787033426" lon="11.382333767912765"><ele>103.0</ele><time>2026-04-30T12:05:14.975Z</time></trkpt><trkpt lat="42.50362476233655" lon="11.382262709723511"><ele>103.0</ele><time>2026-04-30T12:05:15.975Z</time></trkpt><trkpt lat="42.503526182679785" lon="11.38218603277626"><ele>103.0</ele><time>2026-04-30T12:05:16.975Z</time></trkpt><trkpt lat="42.50342753752962" lon="11.382102746669627"><ele>101.33333333333334</ele><time>2026-04-30T12:05:17.975Z</time></trkpt><trkpt lat="42.50334334675681" lon="11.38202042869604"><ele>99.66666666666667</ele><time>2026-04-30T12:05:18.975Z</time></trkpt><trkpt lat="42.50325823869203" lon="11.381951160127784"><ele>98.0</ele><time>2026-04-30T12:05:19.975Z</time></trkpt><trkpt lat="42.503194537629476" lon="11.381897239170645"><ele>96.33333333333334</ele><time>2026-04-30T12:05:20.975Z</time></trkpt><trkpt lat="42.50313025858317" lon="11.381861777796747"><ele>94.66666666666667</ele><time>2026-04-30T12:05:21.975Z</time></trkpt><trkpt lat="42.5030536177293" lon="11.381839309528024"><ele>93.0</ele><time>2026-04-30T12:05:22.975Z</time></trkpt><trkpt lat="42.50297664421761" lon="11.381833721861348"><ele>92.2</ele><time>2026-04-30T12:05:23.975Z</time></trkpt><trkpt lat="42.502876255511644" lon="11.381852427205736"><ele>91.4</ele><time>2026-04-30T12:05:24.975Z</time></trkpt><trkpt lat="42.50277905634993" lon="11.381878244983673"><ele>90.60000000000001</ele><time>2026-04-30T12:05:25.975Z</time></trkpt><trkpt lat="42.50268755676435" lon="11.381899420645496"><ele>89.80000000000001</ele><time>2026-04-30T12:05:26.975Z</time></trkpt><trkpt lat="42.502584683475924" lon="11.381908210701397"><ele>89.0</ele><time>2026-04-30T12:05:27.975Z</time></trkpt><trkpt lat="42.502467967511144" lon="11.381906299902576"><ele>89.0</ele><time>2026-04-30T12:05:28.975Z</time></trkpt><trkpt lat="42.50235343995813" lon="11.38190295337578"><ele>89.0</ele><time>2026-04-30T12:05:29.975Z</time></trkpt><trkpt lat="42.50222258653114" lon="11.38189717729929"><ele>89.0</ele><time>2026-04-30T12:05:30.975Z</time></trkpt><trkpt lat="42.50209262910431" lon="11.38187613487006"><ele>89.0</ele><time>2026-04-30T12:05:31.975Z</time></trkpt><trkpt lat="42.501955431557235" lon="11.381844608946013"><ele>89.0</ele><time>2026-04-30T12:05:32.975Z</time></trkpt><trkpt lat="42.5018227392735" lon="11.38179784284432"><ele>89.0</ele><time>2026-04-30T12:05:33.975Z</time></trkpt><trkpt lat="42.50168731021796" lon="11.38176903552534"><ele>89.0</ele><time>2026-04-30T12:05:34.975Z</time></trkpt><trkpt lat="42.501557488240174" lon="11.38176478425618"><ele>89.0</ele><time>2026-04-30T12:05:35.976Z</time></trkpt><trkpt lat="42.50145954700722" lon="11.38177551714854"><ele>89.0</ele><time>2026-04-30T12:05:36.976Z</time></trkpt><trkpt lat="42.501374821571055" lon="11.38179230596599"><ele>89.0</ele><time>2026-04-30T12:05:37.976Z</time></trkpt><trkpt lat="42.50131194578816" lon="11.38177966028715"><ele>89.0</ele><time>2026-04-30T12:05:38.976Z</time></trkpt><trkpt lat="42.50120994706175" lon="11.381746932744173"><ele>89.0</ele><time>2026-04-30T12:05:39.976Z</time></trkpt><trkpt lat="42.50110020580179" lon="11.381720085102483"><ele>89.0</ele><time>2026-04-30T12:05:40.976Z</time></trkpt><trkpt lat="42.500976166980976" lon="11.381697459343632"><ele>87.75</ele><time>2026-04-30T12:05:41.976Z</time></trkpt><trkpt lat="42.50084103491083" lon="11.381663179552495"><ele>86.5</ele><time>2026-04-30T12:05:42.976Z</time></trkpt><trkpt lat="42.50072048251955" lon="11.381619893186059"><ele>85.25</ele><time>2026-04-30T12:05:43.976Z</time></trkpt><trkpt lat="42.500607402041396" lon="11.381598640894834"><ele>84.0</ele><time>2026-04-30T12:05:44.976Z</time></trkpt><trkpt lat="42.500515464882206" lon="11.38157668386819"><ele>84.0</ele><time>2026-04-30T12:05:45.976Z</time></trkpt><trkpt lat="42.500429044085074" lon="11.381543112123458"><ele>84.0</ele><time>2026-04-30T12:05:46.976Z</time></trkpt><trkpt lat="42.50032806607752" lon="11.381497268365933"><ele>84.0</ele><time>2026-04-30T12:05:47.976Z</time></trkpt><trkpt lat="42.50022545046812" lon="11.381440682888634"><ele>84.0</ele><time>2026-04-30T12:05:48.976Z</time></trkpt><trkpt lat="42.50011859804644" lon="11.38140547067564"><ele>84.0</ele><time>2026-04-30T12:05:49.976Z</time></trkpt><trkpt lat="42.49999932861588" lon="11.381371003547326"><ele>83.2</ele><time>2026-04-30T12:05:50.976Z</time></trkpt><trkpt lat="42.499880678636856" lon="11.381334514504841"><ele>82.4</ele><time>2026-04-30T12:05:51.976Z</time></trkpt><trkpt lat="42.49977896714008" lon="11.381280633564748"><ele>81.6</ele><time>2026-04-30T12:05:52.976Z</time></trkpt><trkpt lat="42.49969396318945" lon="11.381217239278747"><ele>80.8</ele><time>2026-04-30T12:05:53.976Z</time></trkpt><trkpt lat="42.49961639210281" lon="11.38114363185973"><ele>80.0</ele><time>2026-04-30T12:05:54.976Z</time></trkpt><trkpt lat="42.499534859098674" lon="11.381070435217902"><ele>79.0</ele><time>2026-04-30T12:05:55.976Z</time></trkpt><trkpt lat="42.499456644505464" lon="11.381020612289415"><ele>78.0</ele><time>2026-04-30T12:05:56.976Z</time></trkpt><trkpt lat="42.49937995772025" lon="11.380976941162881"><ele>77.0</ele><time>2026-04-30T12:05:57.976Z</time></trkpt><trkpt lat="42.499293968156344" lon="11.38092999693306"><ele>76.0</ele><time>2026-04-30T12:05:58.976Z</time></trkpt><trkpt lat="42.499225020880985" lon="11.380891822607936"><ele>75.0</ele><time>2026-04-30T12:05:59.976Z</time></trkpt><trkpt lat="42.49914384624375" lon="11.380827685155458"><ele>74.0</ele><time>2026-04-30T12:06:01.976Z</time></trkpt><trkpt lat="42.499122417131424" lon="11.380691395749569"><ele>74.0</ele><time>2026-04-30T12:06:03.976Z</time></trkpt><trkpt lat="42.499101528448755" lon="11.380575712963836"><ele>74.0</ele><time>2026-04-30T12:06:04.976Z</time></trkpt><trkpt lat="42.49908171353443" lon="11.380433254202027"><ele>74.0</ele><time>2026-04-30T12:06:05.976Z</time></trkpt><trkpt lat="42.49907548793551" lon="11.380277621269174"><ele>74.0</ele><time>2026-04-30T12:06:06.976Z</time></trkpt><trkpt lat="42.49907023527577" lon="11.380147366911507"><ele>74.0</ele><time>2026-04-30T12:06:07.976Z</time></trkpt><trkpt lat="42.49904752387632" lon="11.380025272810814"><ele>73.5</ele><time>2026-04-30T12:06:08.976Z</time></trkpt><trkpt lat="42.499024714454926" lon="11.379906173197364"><ele>73.0</ele><time>2026-04-30T12:06:09.976Z</time></trkpt><trkpt lat="42.49898202942113" lon="11.379761015588597"><ele>72.5</ele><time>2026-04-30T12:06:10.976Z</time></trkpt><trkpt lat="42.49892343517636" lon="11.379593525283214"><ele>72.0</ele><time>2026-04-30T12:06:11.974Z</time></trkpt><trkpt lat="42.49886786234595" lon="11.379413700173828"><ele>70.0</ele><time>2026-04-30T12:06:12.974Z</time></trkpt><trkpt lat="42.498815488159934" lon="11.379251957708751"><ele>68.0</ele><time>2026-04-30T12:06:13.974Z</time></trkpt><trkpt lat="42.49877569729957" lon="11.379081630918469"><ele>66.0</ele><time>2026-04-30T12:06:14.974Z</time></trkpt><trkpt lat="42.49871441878297" lon="11.378941840449531"><ele>64.0</ele><time>2026-04-30T12:06:15.974Z</time></trkpt><trkpt lat="42.49866271379068" lon="11.378813150887574"><ele>63.25</ele><time>2026-04-30T12:06:16.974Z</time></trkpt><trkpt lat="42.49858872447505" lon="11.378689423479432"><ele>62.5</ele><time>2026-04-30T12:06:17.974Z</time></trkpt><trkpt lat="42.498498169482815" lon="11.378572629429716"><ele>61.75</ele><time>2026-04-30T12:06:18.974Z</time></trkpt><trkpt lat="42.49838565715734" lon="11.378434177564385"><ele>61.0</ele><time>2026-04-30T12:06:19.974Z</time></trkpt><trkpt lat="42.498287922390816" lon="11.37830418906936"><ele>61.0</ele><time>2026-04-30T12:06:20.974Z</time></trkpt><trkpt lat="42.49818245251981" lon="11.378167799350821"><ele>61.0</ele><time>2026-04-30T12:06:21.974Z</time></trkpt><trkpt lat="42.49808151958219" lon="11.378033881665678"><ele>61.0</ele><time>2026-04-30T12:06:22.974Z</time></trkpt><trkpt lat="42.4979836017939" lon="11.377900335024663"><ele>61.0</ele><time>2026-04-30T12:06:23.974Z</time></trkpt><trkpt lat="42.49788372276863" lon="11.377757801526212"><ele>60.0</ele><time>2026-04-30T12:06:24.974Z</time></trkpt><trkpt lat="42.497781534386114" lon="11.377629760820012"><ele>58.99999999999999</ele><time>2026-04-30T12:06:25.974Z</time></trkpt><trkpt lat="42.497700854301826" lon="11.37752094377616"><ele>57.99999999999999</ele><time>2026-04-30T12:06:26.974Z</time></trkpt><trkpt lat="42.49763183963776" lon="11.377479215684112"><ele>57.0</ele><time>2026-04-30T12:06:27.974Z</time></trkpt><trkpt lat="42.497552698347306" lon="11.377372588209111"><ele>56.0</ele><time>2026-04-30T12:06:28.974Z</time></trkpt><trkpt lat="42.49746109263475" lon="11.377274374046076"><ele>55.0</ele><time>2026-04-30T12:06:29.974Z</time></trkpt><trkpt lat="42.49736314099162" lon="11.377169257875552"><ele>54.0</ele><time>2026-04-30T12:06:30.974Z</time></trkpt><trkpt lat="42.49725965565554" lon="11.377053534110669"><ele>53.0</ele><time>2026-04-30T12:06:31.974Z</time></trkpt><trkpt lat="42.49713651479784" lon="11.376938458423918"><ele>52.0</ele><time>2026-04-30T12:06:32.974Z</time></trkpt><trkpt lat="42.497037661519805" lon="11.376780410568207"><ele>51.25</ele><time>2026-04-30T12:06:33.974Z</time></trkpt><trkpt lat="42.4969266488679" lon="11.376665762052962"><ele>50.5</ele><time>2026-04-30T12:06:34.974Z</time></trkpt><trkpt lat="42.49683025353377" lon="11.376526660296244"><ele>49.75</ele><time>2026-04-30T12:06:35.974Z</time></trkpt><trkpt lat="42.49672811821756" lon="11.376388932373999"><ele>49.0</ele><time>2026-04-30T12:06:36.974Z</time></trkpt><trkpt lat="42.49661852868997" lon="11.376245848935698"><ele>48.75</ele><time>2026-04-30T12:06:37.974Z</time></trkpt><trkpt lat="42.49649472049869" lon="11.37611827345555"><ele>48.5</ele><time>2026-04-30T12:06:38.974Z</time></trkpt><trkpt lat="42.49637864087964" lon="11.376007570257821"><ele>48.25</ele><time>2026-04-30T12:06:39.974Z</time></trkpt><trkpt lat="42.49628292353439" lon="11.375907659033581"><ele>48.0</ele><time>2026-04-30T12:06:40.974Z</time></trkpt><trkpt lat="42.496217174628235" lon="11.375821813416811"><ele>48.0</ele><time>2026-04-30T12:06:41.974Z</time></trkpt><trkpt lat="42.49617526939001" lon="11.375718484832845"><ele>48.0</ele><time>2026-04-30T12:06:42.974Z</time></trkpt><trkpt lat="42.496129605230706" lon="11.37557161167406"><ele>48.0</ele><time>2026-04-30T12:06:43.974Z</time></trkpt><trkpt lat="42.496080198025915" lon="11.375423781975238"><ele>48.0</ele><time>2026-04-30T12:06:44.974Z</time></trkpt><trkpt lat="42.496024713383434" lon="11.375300749156471"><ele>48.0</ele><time>2026-04-30T12:06:45.974Z</time></trkpt><trkpt lat="42.49599511152118" lon="11.375127066619235"><ele>47.0</ele><time>2026-04-30T12:06:46.974Z</time></trkpt><trkpt lat="42.49597692860624" lon="11.37493300546839"><ele>46.0</ele><time>2026-04-30T12:06:47.974Z</time></trkpt><trkpt lat="42.495963912531295" lon="11.37470964688602"><ele>45.0</ele><time>2026-04-30T12:06:48.974Z</time></trkpt><trkpt lat="42.49595646970282" lon="11.374498247312024"><ele>45.0</ele><time>2026-04-30T12:06:49.974Z</time></trkpt><trkpt lat="42.49594261820628" lon="11.374296292755972"><ele>45.0</ele><time>2026-04-30T12:06:50.974Z</time></trkpt><trkpt lat="42.49591067158285" lon="11.374107632792724"><ele>45.0</ele><time>2026-04-30T12:06:51.974Z</time></trkpt><trkpt lat="42.4958673835902" lon="11.373926142405958"><ele>45.0</ele><time>2026-04-30T12:06:52.974Z</time></trkpt><trkpt lat="42.49581484882008" lon="11.373737989979913"><ele>45.0</ele><time>2026-04-30T12:06:53.974Z</time></trkpt><trkpt lat="42.495754216327455" lon="11.37352799302173"><ele>45.0</ele><time>2026-04-30T12:06:54.974Z</time></trkpt><trkpt lat="42.495709786093194" lon="11.373302114680376"><ele>45.0</ele><time>2026-04-30T12:06:55.975Z</time></trkpt><trkpt lat="42.49565055309714" lon="11.373086797337324"><ele>45.25</ele><time>2026-04-30T12:06:56.975Z</time></trkpt><trkpt lat="42.49560044142075" lon="11.37288602929253"><ele>45.5</ele><time>2026-04-30T12:06:57.975Z</time></trkpt><trkpt lat="42.49555707356621" lon="11.372693534129473"><ele>45.75</ele><time>2026-04-30T12:06:58.975Z</time></trkpt><trkpt lat="42.495516206797575" lon="11.37250634491179"><ele>46.0</ele><time>2026-04-30T12:06:59.975Z</time></trkpt><trkpt lat="42.49547558221804" lon="11.372314514065303"><ele>46.333333333333336</ele><time>2026-04-30T12:07:00.975Z</time></trkpt><trkpt lat="42.49542160830503" lon="11.372116746697015"><ele>46.666666666666664</ele><time>2026-04-30T12:07:01.975Z</time></trkpt><trkpt lat="42.49534052773847" lon="11.371934850864069"><ele>47.0</ele><time>2026-04-30T12:07:02.975Z</time></trkpt><trkpt lat="42.49525933996252" lon="11.371746651382951"><ele>45.0</ele><time>2026-04-30T12:07:03.975Z</time></trkpt><trkpt lat="42.4951754503552" lon="11.371551539320786"><ele>43.0</ele><time>2026-04-30T12:07:04.975Z</time></trkpt><trkpt lat="42.49508944146321" lon="11.371344569791544"><ele>41.0</ele><time>2026-04-30T12:07:05.975Z</time></trkpt><trkpt lat="42.49501051753106" lon="11.37111229853216"><ele>41.0</ele><time>2026-04-30T12:07:06.975Z</time></trkpt><trkpt lat="42.49491340345701" lon="11.370890508374254"><ele>41.0</ele><time>2026-04-30T12:07:07.975Z</time></trkpt><trkpt lat="42.49480998783852" lon="11.370695063458225"><ele>41.0</ele><time>2026-04-30T12:07:08.975Z</time></trkpt><trkpt lat="42.49474150391861" lon="11.370477329130118"><ele>40.33333333333333</ele><time>2026-04-30T12:07:09.975Z</time></trkpt><trkpt lat="42.49465613887538" lon="11.370273938985648"><ele>39.666666666666664</ele><time>2026-04-30T12:07:10.975Z</time></trkpt><trkpt lat="42.494575621299084" lon="11.370057494836912"><ele>39.0</ele><time>2026-04-30T12:07:11.975Z</time></trkpt><trkpt lat="42.49449134533868" lon="11.369840477936064"><ele>38.0</ele><time>2026-04-30T12:07:12.975Z</time></trkpt><trkpt lat="42.49440786812846" lon="11.369616249593488"><ele>37.0</ele><time>2026-04-30T12:07:13.975Z</time></trkpt><trkpt lat="42.49432823713125" lon="11.36940746737466"><ele>36.0</ele><time>2026-04-30T12:07:14.975Z</time></trkpt><trkpt lat="42.49425289333251" lon="11.3692044405103"><ele>36.0</ele><time>2026-04-30T12:07:15.975Z</time></trkpt><trkpt lat="42.49417482969448" lon="11.369017902974832"><ele>36.0</ele><time>2026-04-30T12:07:16.975Z</time></trkpt><trkpt lat="42.494109102048625" lon="11.368848088770251"><ele>36.0</ele><time>2026-04-30T12:07:17.975Z</time></trkpt><trkpt lat="42.494054817022125" lon="11.368689106771303"><ele>36.0</ele><time>2026-04-30T12:07:18.975Z</time></trkpt><trkpt lat="42.49400104275757" lon="11.368521409662684"><ele>36.5</ele><time>2026-04-30T12:07:19.975Z</time></trkpt><trkpt lat="42.493960726883046" lon="11.368342685792213"><ele>37.0</ele><time>2026-04-30T12:07:20.975Z</time></trkpt><trkpt lat="42.49395013779768" lon="11.368151887866974"><ele>37.5</ele><time>2026-04-30T12:07:21.975Z</time></trkpt><trkpt lat="42.49390512011651" lon="11.367956345710903"><ele>38.0</ele><time>2026-04-30T12:07:22.975Z</time></trkpt><trkpt lat="42.49386889796384" lon="11.367736506214984"><ele>38.666666666666664</ele><time>2026-04-30T12:07:23.975Z</time></trkpt><trkpt lat="42.49382842220441" lon="11.367496307829454"><ele>39.333333333333336</ele><time>2026-04-30T12:07:24.975Z</time></trkpt><trkpt lat="42.4937823596973" lon="11.367263528429179"><ele>40.0</ele><time>2026-04-30T12:07:25.975Z</time></trkpt><trkpt lat="42.493725550048055" lon="11.367021741395906"><ele>38.333333333333336</ele><time>2026-04-30T12:07:26.975Z</time></trkpt><trkpt lat="42.493672166758095" lon="11.366792482598672"><ele>36.666666666666664</ele><time>2026-04-30T12:07:27.975Z</time></trkpt><trkpt lat="42.49362097033034" lon="11.366568565297156"><ele>35.0</ele><time>2026-04-30T12:07:28.975Z</time></trkpt><trkpt lat="42.4935831426253" lon="11.36636652026229"><ele>35.25</ele><time>2026-04-30T12:07:29.975Z</time></trkpt><trkpt lat="42.49354623130873" lon="11.366169572111817"><ele>35.5</ele><time>2026-04-30T12:07:30.975Z</time></trkpt><trkpt lat="42.493495497495424" lon="11.365985971563214"><ele>35.75</ele><time>2026-04-30T12:07:31.975Z</time></trkpt><trkpt lat="42.49342783340457" lon="11.365820992120316"><ele>36.0</ele><time>2026-04-30T12:07:32.975Z</time></trkpt><trkpt lat="42.493341963118006" lon="11.365658460602509"><ele>36.25</ele><time>2026-04-30T12:07:33.975Z</time></trkpt><trkpt lat="42.49325239736375" lon="11.365502428453269"><ele>36.5</ele><time>2026-04-30T12:07:34.975Z</time></trkpt><trkpt lat="42.49316843971231" lon="11.365335111815439"><ele>36.75</ele><time>2026-04-30T12:07:35.975Z</time></trkpt><trkpt lat="42.49310084141334" lon="11.365176982249682"><ele>37.0</ele><time>2026-04-30T12:07:36.975Z</time></trkpt><trkpt lat="42.49307378102817" lon="11.365008819857954"><ele>37.0</ele><time>2026-04-30T12:07:37.975Z</time></trkpt><trkpt lat="42.493056702753975" lon="11.364837441439304"><ele>37.0</ele><time>2026-04-30T12:07:38.975Z</time></trkpt><trkpt lat="42.49302920128973" lon="11.364662256016699"><ele>37.0</ele><time>2026-04-30T12:07:39.975Z</time></trkpt><trkpt lat="42.49301406113371" lon="11.364486555647769"><ele>37.0</ele><time>2026-04-30T12:07:40.975Z</time></trkpt><trkpt lat="42.492988029681314" lon="11.364296548897451"><ele>37.0</ele><time>2026-04-30T12:07:41.975Z</time></trkpt><trkpt lat="42.492946102181456" lon="11.36414020582001"><ele>37.0</ele><time>2026-04-30T12:07:42.975Z</time></trkpt><trkpt lat="42.492883981526255" lon="11.36400297734075"><ele>37.0</ele><time>2026-04-30T12:07:43.975Z</time></trkpt><trkpt lat="42.49282574761135" lon="11.363839722790674"><ele>37.0</ele><time>2026-04-30T12:07:44.975Z</time></trkpt><trkpt lat="42.4927662723631" lon="11.363654265556944"><ele>35.0</ele><time>2026-04-30T12:07:45.975Z</time></trkpt><trkpt lat="42.492707496760865" lon="11.36349077405632"><ele>33.0</ele><time>2026-04-30T12:07:46.975Z</time></trkpt><trkpt lat="42.492653430264475" lon="11.363320680446853"><ele>31.0</ele><time>2026-04-30T12:07:47.975Z</time></trkpt><trkpt lat="42.49260669091931" lon="11.36316304701554"><ele>29.0</ele><time>2026-04-30T12:07:48.975Z</time></trkpt><trkpt lat="42.49258238898486" lon="11.363002645708145"><ele>28.2</ele><time>2026-04-30T12:07:49.975Z</time></trkpt><trkpt lat="42.49255685393114" lon="11.362851099217831"><ele>27.4</ele><time>2026-04-30T12:07:50.975Z</time></trkpt><trkpt lat="42.49253515572513" lon="11.362698585091508"><ele>26.6</ele><time>2026-04-30T12:07:51.975Z</time></trkpt><trkpt lat="42.492515251756636" lon="11.362552625136757"><ele>25.8</ele><time>2026-04-30T12:07:52.975Z</time></trkpt><trkpt lat="42.49245936134173" lon="11.362434379717532"><ele>25.0</ele><time>2026-04-30T12:07:53.975Z</time></trkpt><trkpt lat="42.49240255825124" lon="11.362328319619715"><ele>25.0</ele><time>2026-04-30T12:07:54.975Z</time></trkpt><trkpt lat="42.49233514199192" lon="11.36222337890496"><ele>25.0</ele><time>2026-04-30T12:07:55.975Z</time></trkpt><trkpt lat="42.49229948876533" lon="11.362110795415221"><ele>25.0</ele><time>2026-04-30T12:07:56.975Z</time></trkpt><trkpt lat="42.49232801738194" lon="11.361981446332708"><ele>25.0</ele><time>2026-04-30T12:07:57.975Z</time></trkpt><trkpt lat="42.49234780030144" lon="11.361837657664944"><ele>25.0</ele><time>2026-04-30T12:07:58.975Z</time></trkpt><trkpt lat="42.49237262860132" lon="11.361686388970897"><ele>24.5</ele><time>2026-04-30T12:07:59.975Z</time></trkpt><trkpt lat="42.49237538365496" lon="11.36152281571722"><ele>24.0</ele><time>2026-04-30T12:08:00.975Z</time></trkpt><trkpt lat="42.49237797797493" lon="11.361349595064446"><ele>23.5</ele><time>2026-04-30T12:08:01.975Z</time></trkpt><trkpt lat="42.49234910397213" lon="11.361169160830928"><ele>23.0</ele><time>2026-04-30T12:08:02.975Z</time></trkpt><trkpt lat="42.492302592655655" lon="11.360953814456565"><ele>22.666666666666668</ele><time>2026-04-30T12:08:03.975Z</time></trkpt><trkpt lat="42.49225619419813" lon="11.36071518299676"><ele>22.333333333333332</ele><time>2026-04-30T12:08:04.975Z</time></trkpt><trkpt lat="42.49220298860187" lon="11.360479472819646"><ele>22.0</ele><time>2026-04-30T12:08:05.975Z</time></trkpt><trkpt lat="42.49215332331802" lon="11.360247485030555"><ele>22.666666666666664</ele><time>2026-04-30T12:08:06.975Z</time></trkpt><trkpt lat="42.49211905722196" lon="11.360023907754968"><ele>23.333333333333332</ele><time>2026-04-30T12:08:07.975Z</time></trkpt><trkpt lat="42.49208809056929" lon="11.359788789483487"><ele>24.0</ele><time>2026-04-30T12:08:08.975Z</time></trkpt><trkpt lat="42.49205527508275" lon="11.359549021163224"><ele>24.333333333333336</ele><time>2026-04-30T12:08:09.976Z</time></trkpt><trkpt lat="42.49201162548727" lon="11.359307478775095"><ele>24.666666666666668</ele><time>2026-04-30T12:08:10.976Z</time></trkpt><trkpt lat="42.491966109641375" lon="11.359076565166212"><ele>25.0</ele><time>2026-04-30T12:08:11.976Z</time></trkpt><trkpt lat="42.491923289005726" lon="11.35886035921858"><ele>25.0</ele><time>2026-04-30T12:08:12.976Z</time></trkpt><trkpt lat="42.49187997556821" lon="11.358642020264337"><ele>25.0</ele><time>2026-04-30T12:08:13.976Z</time></trkpt><trkpt lat="42.49184061008641" lon="11.358422503017856"><ele>25.0</ele><time>2026-04-30T12:08:14.976Z</time></trkpt><trkpt lat="42.49180143179766" lon="11.35820091495707"><ele>24.333333333333336</ele><time>2026-04-30T12:08:15.976Z</time></trkpt><trkpt lat="42.49176535933454" lon="11.357977589277906"><ele>23.666666666666668</ele><time>2026-04-30T12:08:16.976Z</time></trkpt><trkpt lat="42.49173484010341" lon="11.357764961914498"><ele>23.0</ele><time>2026-04-30T12:08:17.974Z</time></trkpt><trkpt lat="42.49170745561147" lon="11.357565436176944"><ele>23.0</ele><time>2026-04-30T12:08:18.974Z</time></trkpt><trkpt lat="42.49167418467962" lon="11.357395470893852"><ele>23.0</ele><time>2026-04-30T12:08:19.974Z</time></trkpt><trkpt lat="42.491638232598255" lon="11.357241495964228"><ele>23.0</ele><time>2026-04-30T12:08:20.974Z</time></trkpt><trkpt lat="42.49159585455649" lon="11.357097992320263"><ele>23.0</ele><time>2026-04-30T12:08:21.974Z</time></trkpt><trkpt lat="42.4915843948296" lon="11.356955001187972"><ele>23.0</ele><time>2026-04-30T12:08:22.974Z</time></trkpt><trkpt lat="42.49154706953234" lon="11.356815082629367"><ele>23.0</ele><time>2026-04-30T12:08:23.974Z</time></trkpt><trkpt lat="42.49151777020936" lon="11.356679453936742"><ele>23.0</ele><time>2026-04-30T12:08:24.974Z</time></trkpt><trkpt lat="42.491504209859706" lon="11.356524706350735"><ele>23.0</ele><time>2026-04-30T12:08:25.974Z</time></trkpt><trkpt lat="42.49147578154065" lon="11.356352790215098"><ele>23.25</ele><time>2026-04-30T12:08:26.973Z</time></trkpt><trkpt lat="42.491448491369596" lon="11.356179381416192"><ele>23.5</ele><time>2026-04-30T12:08:27.973Z</time></trkpt><trkpt lat="42.491404940745575" lon="11.356003479476204"><ele>23.75</ele><time>2026-04-30T12:08:28.973Z</time></trkpt><trkpt lat="42.49137728871925" lon="11.355820497731944"><ele>24.0</ele><time>2026-04-30T12:08:29.973Z</time></trkpt><trkpt lat="42.491349530565955" lon="11.355654599147394"><ele>24.0</ele><time>2026-04-30T12:08:30.973Z</time></trkpt><trkpt lat="42.49132727869105" lon="11.355502440809284"><ele>24.0</ele><time>2026-04-30T12:08:31.973Z</time></trkpt><trkpt lat="42.49130428229265" lon="11.355365473082008"><ele>24.0</ele><time>2026-04-30T12:08:32.973Z</time></trkpt><trkpt lat="42.49128224351722" lon="11.355234471696166"><ele>24.0</ele><time>2026-04-30T12:08:33.973Z</time></trkpt><trkpt lat="42.491258303429696" lon="11.355101872570197"><ele>24.0</ele><time>2026-04-30T12:08:34.973Z</time></trkpt><trkpt lat="42.491249647649084" lon="11.354967369408731"><ele>24.0</ele><time>2026-04-30T12:08:35.973Z</time></trkpt><trkpt lat="42.49122870536873" lon="11.35485176367929"><ele>24.0</ele><time>2026-04-30T12:08:36.973Z</time></trkpt><trkpt lat="42.491198237026545" lon="11.354750947912995"><ele>24.0</ele><time>2026-04-30T12:08:37.973Z</time></trkpt><trkpt lat="42.491182625567205" lon="11.354664827224916"><ele>24.0</ele><time>2026-04-30T12:08:38.973Z</time></trkpt><trkpt lat="42.49115825933896" lon="11.354529360100313"><ele>24.0</ele><time>2026-04-30T12:08:40.973Z</time></trkpt><trkpt lat="42.49114424008774" lon="11.354404638951776"><ele>24.0</ele><time>2026-04-30T12:08:42.973Z</time></trkpt><trkpt lat="42.49112008656426" lon="11.354313065798404"><ele>24.2</ele><time>2026-04-30T12:08:43.973Z</time></trkpt><trkpt lat="42.49108307928252" lon="11.35418962775896"><ele>24.4</ele><time>2026-04-30T12:08:44.973Z</time></trkpt><trkpt lat="42.49107175694371" lon="11.354035907538757"><ele>24.6</ele><time>2026-04-30T12:08:45.973Z</time></trkpt><trkpt lat="42.49104839257956" lon="11.353888472966426"><ele>24.8</ele><time>2026-04-30T12:08:46.973Z</time></trkpt><trkpt lat="42.491007095663875" lon="11.353734634333321"><ele>25.0</ele><time>2026-04-30T12:08:47.973Z</time></trkpt><trkpt lat="42.4909861528479" lon="11.353569899144405"><ele>25.0</ele><time>2026-04-30T12:08:48.973Z</time></trkpt><trkpt lat="42.490952307061214" lon="11.353402758901646"><ele>25.0</ele><time>2026-04-30T12:08:49.973Z</time></trkpt><trkpt lat="42.4909331637833" lon="11.353214536306758"><ele>25.0</ele><time>2026-04-30T12:08:50.973Z</time></trkpt><trkpt lat="42.490895088119075" lon="11.353016680518698"><ele>25.0</ele><time>2026-04-30T12:08:51.973Z</time></trkpt><trkpt lat="42.49085879714227" lon="11.352835472403536"><ele>25.0</ele><time>2026-04-30T12:08:52.973Z</time></trkpt><trkpt lat="42.49081736549007" lon="11.352659707202394"><ele>25.0</ele><time>2026-04-30T12:08:53.973Z</time></trkpt><trkpt lat="42.490764166425954" lon="11.352483731185417"><ele>25.0</ele><time>2026-04-30T12:08:54.973Z</time></trkpt><trkpt lat="42.49070576195662" lon="11.352316863891755"><ele>25.0</ele><time>2026-04-30T12:08:55.973Z</time></trkpt><trkpt lat="42.490655707940135" lon="11.352161905753762"><ele>25.0</ele><time>2026-04-30T12:08:56.973Z</time></trkpt><trkpt lat="42.49060203946635" lon="11.352035562244929"><ele>25.0</ele><time>2026-04-30T12:08:57.973Z</time></trkpt><trkpt lat="42.49053973387276" lon="11.351922821122422"><ele>25.0</ele><time>2026-04-30T12:08:58.973Z</time></trkpt><trkpt lat="42.490468591735436" lon="11.351818721374718"><ele>25.0</ele><time>2026-04-30T12:08:59.973Z</time></trkpt><trkpt lat="42.49039000448097" lon="11.351718577010198"><ele>25.0</ele><time>2026-04-30T12:09:00.973Z</time></trkpt><trkpt lat="42.490305190249984" lon="11.351618535500508"><ele>25.6</ele><time>2026-04-30T12:09:01.973Z</time></trkpt><trkpt lat="42.49022897917647" lon="11.351519252331846"><ele>26.2</ele><time>2026-04-30T12:09:02.973Z</time></trkpt><trkpt lat="42.49015382317549" lon="11.351411500480946"><ele>26.799999999999997</ele><time>2026-04-30T12:09:03.973Z</time></trkpt><trkpt lat="42.490073776760816" lon="11.351302017572111"><ele>27.4</ele><time>2026-04-30T12:09:04.973Z</time></trkpt><trkpt lat="42.489999443772334" lon="11.351179860748571"><ele>28.0</ele><time>2026-04-30T12:09:05.973Z</time></trkpt><trkpt lat="42.48992160828091" lon="11.351043345222664"><ele>28.0</ele><time>2026-04-30T12:09:06.973Z</time></trkpt><trkpt lat="42.48984316972245" lon="11.350900814271562"><ele>27.999999999999996</ele><time>2026-04-30T12:09:07.973Z</time></trkpt><trkpt lat="42.489770482934" lon="11.350799997429155"><ele>27.999999999999996</ele><time>2026-04-30T12:09:08.973Z</time></trkpt><trkpt lat="42.48968982854732" lon="11.35072651667886"><ele>28.0</ele><time>2026-04-30T12:09:09.973Z</time></trkpt><trkpt lat="42.489590088030646" lon="11.35066241301703"><ele>28.0</ele><time>2026-04-30T12:09:10.974Z</time></trkpt><trkpt lat="42.489486565856346" lon="11.350616164796694"><ele>28.25</ele><time>2026-04-30T12:09:11.974Z</time></trkpt><trkpt lat="42.489382783842466" lon="11.35056569903407"><ele>28.5</ele><time>2026-04-30T12:09:12.974Z</time></trkpt><trkpt lat="42.489291541917694" lon="11.350481070590623"><ele>28.75</ele><time>2026-04-30T12:09:13.974Z</time></trkpt><trkpt lat="42.48918399233465" lon="11.35043238417066"><ele>29.0</ele><time>2026-04-30T12:09:14.974Z</time></trkpt><trkpt lat="42.48907784740675" lon="11.35035903010856"><ele>29.2</ele><time>2026-04-30T12:09:15.974Z</time></trkpt><trkpt lat="42.488973667108446" lon="11.350287996547387"><ele>29.4</ele><time>2026-04-30T12:09:16.974Z</time></trkpt><trkpt lat="42.488894609069206" lon="11.350205935614454"><ele>29.6</ele><time>2026-04-30T12:09:17.974Z</time></trkpt><trkpt lat="42.48881393308616" lon="11.350166758117327"><ele>29.8</ele><time>2026-04-30T12:09:18.974Z</time></trkpt><trkpt lat="42.488732371346586" lon="11.350105522813044"><ele>30.0</ele><time>2026-04-30T12:09:19.974Z</time></trkpt><trkpt lat="42.488658399674264" lon="11.350021475496508"><ele>30.2</ele><time>2026-04-30T12:09:20.974Z</time></trkpt><trkpt lat="42.48857182319533" lon="11.34994726380914"><ele>30.4</ele><time>2026-04-30T12:09:21.974Z</time></trkpt><trkpt lat="42.48849036966051" lon="11.349875226328113"><ele>30.6</ele><time>2026-04-30T12:09:22.974Z</time></trkpt><trkpt lat="42.488396409095444" lon="11.349809915043307"><ele>30.8</ele><time>2026-04-30T12:09:23.974Z</time></trkpt><trkpt lat="42.48830761014566" lon="11.34973100963504"><ele>31.0</ele><time>2026-04-30T12:09:24.974Z</time></trkpt><trkpt lat="42.4882260475606" lon="11.34963963892206"><ele>31.500000000000004</ele><time>2026-04-30T12:09:25.974Z</time></trkpt><trkpt lat="42.488175264653485" lon="11.349543691600857"><ele>32.0</ele><time>2026-04-30T12:09:26.974Z</time></trkpt><trkpt lat="42.48819015564442" lon="11.349449715908825"><ele>32.5</ele><time>2026-04-30T12:09:27.974Z</time></trkpt><trkpt lat="42.488189681201575" lon="11.3493525110808"><ele>33.0</ele><time>2026-04-30T12:09:28.974Z</time></trkpt><trkpt lat="42.4881624558408" lon="11.349242403711497"><ele>33.5</ele><time>2026-04-30T12:09:29.974Z</time></trkpt><trkpt lat="42.48813685939239" lon="11.349136334425006"><ele>34.0</ele><time>2026-04-30T12:09:30.974Z</time></trkpt><trkpt lat="42.488092946928894" lon="11.349024249745518"><ele>34.0</ele><time>2026-04-30T12:09:31.974Z</time></trkpt><trkpt lat="42.48804856525841" lon="11.348916243323304"><ele>34.0</ele><time>2026-04-30T12:09:32.974Z</time></trkpt><trkpt lat="42.48800661676714" lon="11.348812600202045"><ele>34.0</ele><time>2026-04-30T12:09:33.974Z</time></trkpt><trkpt lat="42.48799967227566" lon="11.348696094264964"><ele>34.0</ele><time>2026-04-30T12:09:34.974Z</time></trkpt><trkpt lat="42.48799325221497" lon="11.348579553239691"><ele>34.0</ele><time>2026-04-30T12:09:35.974Z</time></trkpt><trkpt lat="42.487987986898546" lon="11.348459072387945"><ele>34.0</ele><time>2026-04-30T12:09:36.974Z</time></trkpt><trkpt lat="42.48798229327582" lon="11.348328528824442"><ele>34.0</ele><time>2026-04-30T12:09:37.974Z</time></trkpt><trkpt lat="42.48799978017967" lon="11.348198715947861"><ele>34.0</ele><time>2026-04-30T12:09:38.974Z</time></trkpt><trkpt lat="42.48791886732612" lon="11.348074539853142"><ele>34.0</ele><time>2026-04-30T12:09:39.974Z</time></trkpt><trkpt lat="42.48789342620782" lon="11.34797479361655"><ele>34.0</ele><time>2026-04-30T12:09:40.974Z</time></trkpt><trkpt lat="42.487886998960306" lon="11.347853392127147"><ele>34.0</ele><time>2026-04-30T12:09:41.974Z</time></trkpt><trkpt lat="42.4878868564711" lon="11.347725939615401"><ele>33.8</ele><time>2026-04-30T12:09:42.974Z</time></trkpt><trkpt lat="42.487892581384955" lon="11.34760204966571"><ele>33.599999999999994</ele><time>2026-04-30T12:09:43.974Z</time></trkpt><trkpt lat="42.48791123021394" lon="11.347461999732165"><ele>33.4</ele><time>2026-04-30T12:09:44.974Z</time></trkpt><trkpt lat="42.48791738465994" lon="11.347317660908889"><ele>33.199999999999996</ele><time>2026-04-30T12:09:45.974Z</time></trkpt><trkpt lat="42.48791427783197" lon="11.347160634550345"><ele>33.0</ele><time>2026-04-30T12:09:46.974Z</time></trkpt><trkpt lat="42.48788958178605" lon="11.347014647149663"><ele>32.6</ele><time>2026-04-30T12:09:47.974Z</time></trkpt><trkpt lat="42.4878520489516" lon="11.346864762882303"><ele>32.199999999999996</ele><time>2026-04-30T12:09:48.974Z</time></trkpt><trkpt lat="42.487830073851775" lon="11.346735924546685"><ele>31.8</ele><time>2026-04-30T12:09:49.974Z</time></trkpt><trkpt lat="42.487829010411964" lon="11.346598888870743"><ele>31.4</ele><time>2026-04-30T12:09:50.974Z</time></trkpt><trkpt lat="42.48783332938853" lon="11.346448448504994"><ele>31.0</ele><time>2026-04-30T12:09:51.974Z</time></trkpt><trkpt lat="42.48784888670282" lon="11.346288068368047"><ele>30.25</ele><time>2026-04-30T12:09:52.974Z</time></trkpt><trkpt lat="42.48787025971816" lon="11.346122117333566"><ele>29.5</ele><time>2026-04-30T12:09:53.974Z</time></trkpt><trkpt lat="42.48789718706996" lon="11.345931877068853"><ele>28.75</ele><time>2026-04-30T12:09:54.974Z</time></trkpt><trkpt lat="42.48790560983732" lon="11.345746336048176"><ele>28.0</ele><time>2026-04-30T12:09:55.974Z</time></trkpt><trkpt lat="42.48789335565861" lon="11.345546528910026"><ele>27.25</ele><time>2026-04-30T12:09:56.974Z</time></trkpt><trkpt lat="42.48787715810789" lon="11.345354861709987"><ele>26.5</ele><time>2026-04-30T12:09:57.974Z</time></trkpt><trkpt lat="42.487858444725006" lon="11.345167490944757"><ele>25.75</ele><time>2026-04-30T12:09:58.974Z</time></trkpt><trkpt lat="42.487843133761636" lon="11.344989022236856"><ele>25.0</ele><time>2026-04-30T12:09:59.974Z</time></trkpt><trkpt lat="42.48784271946932" lon="11.344803303622339"><ele>24.5</ele><time>2026-04-30T12:10:00.974Z</time></trkpt><trkpt lat="42.48786067343317" lon="11.344613389002724"><ele>24.0</ele><time>2026-04-30T12:10:01.974Z</time></trkpt><trkpt lat="42.48788704340364" lon="11.344420555032963"><ele>23.5</ele><time>2026-04-30T12:10:02.974Z</time></trkpt><trkpt lat="42.48792051669032" lon="11.344255309637873"><ele>23.0</ele><time>2026-04-30T12:10:03.974Z</time></trkpt><trkpt lat="42.48794668449554" lon="11.344094914882877"><ele>23.0</ele><time>2026-04-30T12:10:04.974Z</time></trkpt><trkpt lat="42.48796419927696" lon="11.343946525128576"><ele>23.0</ele><time>2026-04-30T12:10:05.974Z</time></trkpt><trkpt lat="42.4879860374148" lon="11.343811006912624"><ele>23.0</ele><time>2026-04-30T12:10:06.974Z</time></trkpt><trkpt lat="42.488019074769056" lon="11.343692572829465"><ele>23.0</ele><time>2026-04-30T12:10:07.974Z</time></trkpt><trkpt lat="42.488079789183075" lon="11.343591101525515"><ele>23.0</ele><time>2026-04-30T12:10:08.974Z</time></trkpt><trkpt lat="42.48815172862617" lon="11.343492584893303"><ele>22.75</ele><time>2026-04-30T12:10:09.974Z</time></trkpt><trkpt lat="42.48823153650342" lon="11.343393243879504"><ele>22.5</ele><time>2026-04-30T12:10:10.974Z</time></trkpt><trkpt lat="42.48833058242361" lon="11.343278305434747"><ele>22.25</ele><time>2026-04-30T12:10:11.974Z</time></trkpt><trkpt lat="42.48843772671124" lon="11.343155640883426"><ele>22.0</ele><time>2026-04-30T12:10:12.974Z</time></trkpt><trkpt lat="42.48854751753069" lon="11.343021422073601"><ele>22.0</ele><time>2026-04-30T12:10:13.974Z</time></trkpt><trkpt lat="42.48865456688771" lon="11.342887102760514"><ele>22.0</ele><time>2026-04-30T12:10:14.974Z</time></trkpt><trkpt lat="42.488753175256406" lon="11.34276431775521"><ele>22.0</ele><time>2026-04-30T12:10:15.974Z</time></trkpt><trkpt lat="42.48885191091881" lon="11.342640623011878"><ele>22.0</ele><time>2026-04-30T12:10:16.974Z</time></trkpt><trkpt lat="42.488956863796304" lon="11.34250742453576"><ele>22.0</ele><time>2026-04-30T12:10:17.974Z</time></trkpt><trkpt lat="42.48905660776945" lon="11.342371861887049"><ele>22.0</ele><time>2026-04-30T12:10:18.974Z</time></trkpt><trkpt lat="42.48916352248008" lon="11.342239925463533"><ele>22.0</ele><time>2026-04-30T12:10:19.974Z</time></trkpt><trkpt lat="42.489272628282755" lon="11.342122852708291"><ele>22.0</ele><time>2026-04-30T12:10:20.974Z</time></trkpt><trkpt lat="42.48937626734903" lon="11.342001957389432"><ele>22.0</ele><time>2026-04-30T12:10:21.974Z</time></trkpt><trkpt lat="42.48947175254566" lon="11.341870227358916"><ele>22.0</ele><time>2026-04-30T12:10:22.974Z</time></trkpt><trkpt lat="42.48956085730853" lon="11.341733221737657"><ele>22.0</ele><time>2026-04-30T12:10:23.973Z</time></trkpt><trkpt lat="42.48964593110754" lon="11.341605720972385"><ele>22.0</ele><time>2026-04-30T12:10:24.973Z</time></trkpt><trkpt lat="42.48972510467794" lon="11.341496863828162"><ele>21.5</ele><time>2026-04-30T12:10:25.973Z</time></trkpt><trkpt lat="42.489812154896086" lon="11.341397389219527"><ele>21.0</ele><time>2026-04-30T12:10:26.973Z</time></trkpt><trkpt lat="42.48990900698756" lon="11.341315258951909"><ele>20.5</ele><time>2026-04-30T12:10:27.973Z</time></trkpt><trkpt lat="42.49001472533938" lon="11.341242284284466"><ele>20.0</ele><time>2026-04-30T12:10:28.973Z</time></trkpt><trkpt lat="42.49011544888448" lon="11.341188677066734"><ele>19.8</ele><time>2026-04-30T12:10:29.973Z</time></trkpt><trkpt lat="42.49020394993053" lon="11.341151605554751"><ele>19.6</ele><time>2026-04-30T12:10:30.973Z</time></trkpt><trkpt lat="42.490278010601116" lon="11.341095514798068"><ele>19.4</ele><time>2026-04-30T12:10:31.973Z</time></trkpt><trkpt lat="42.49035648736407" lon="11.34099448703556"><ele>19.2</ele><time>2026-04-30T12:10:32.973Z</time></trkpt><trkpt lat="42.49043990599161" lon="11.3408681096584"><ele>19.0</ele><time>2026-04-30T12:10:33.973Z</time></trkpt><trkpt lat="42.49052938345862" lon="11.340746596422118"><ele>18.75</ele><time>2026-04-30T12:10:34.973Z</time></trkpt><trkpt lat="42.49063241912971" lon="11.340612882889666"><ele>18.5</ele><time>2026-04-30T12:10:35.973Z</time></trkpt><trkpt lat="42.49073877360409" lon="11.340488956163794"><ele>18.25</ele><time>2026-04-30T12:10:36.973Z</time></trkpt><trkpt lat="42.49084298078594" lon="11.34036797880453"><ele>18.0</ele><time>2026-04-30T12:10:37.973Z</time></trkpt><trkpt lat="42.49093509862063" lon="11.340261609350971"><ele>18.0</ele><time>2026-04-30T12:10:38.973Z</time></trkpt><trkpt lat="42.49102404083038" lon="11.340167477924078"><ele>18.0</ele><time>2026-04-30T12:10:39.973Z</time></trkpt><trkpt lat="42.49109262326646" lon="11.340082064277471"><ele>18.0</ele><time>2026-04-30T12:10:40.973Z</time></trkpt><trkpt lat="42.49114518028059" lon="11.33999642023338"><ele>18.0</ele><time>2026-04-30T12:10:41.973Z</time></trkpt><trkpt lat="42.49117123854919" lon="11.339894177063488"><ele>18.0</ele><time>2026-04-30T12:10:42.973Z</time></trkpt><trkpt lat="42.49118776011223" lon="11.339767398860532"><ele>18.25</ele><time>2026-04-30T12:10:43.973Z</time></trkpt><trkpt lat="42.491187029011854" lon="11.339624746943214"><ele>18.5</ele><time>2026-04-30T12:10:44.973Z</time></trkpt><trkpt lat="42.491169599453684" lon="11.339464267964699"><ele>18.75</ele><time>2026-04-30T12:10:45.973Z</time></trkpt><trkpt lat="42.49114705920683" lon="11.33929887199062"><ele>19.0</ele><time>2026-04-30T12:10:46.973Z</time></trkpt><trkpt lat="42.4911265980646" lon="11.339109781962623"><ele>19.0</ele><time>2026-04-30T12:10:47.973Z</time></trkpt><trkpt lat="42.49111226921614" lon="11.338909439242427"><ele>19.0</ele><time>2026-04-30T12:10:48.973Z</time></trkpt><trkpt lat="42.491091976831726" lon="11.338704584321356"><ele>19.0</ele><time>2026-04-30T12:10:49.973Z</time></trkpt><trkpt lat="42.491067294029854" lon="11.338490481410815"><ele>19.666666666666664</ele><time>2026-04-30T12:10:50.973Z</time></trkpt><trkpt lat="42.491034020826426" lon="11.338273599668408"><ele>20.333333333333332</ele><time>2026-04-30T12:10:51.973Z</time></trkpt><trkpt lat="42.49100402061672" lon="11.338049099529998"><ele>21.0</ele><time>2026-04-30T12:10:52.973Z</time></trkpt><trkpt lat="42.490970803692" lon="11.337817437930807"><ele>21.0</ele><time>2026-04-30T12:10:53.973Z</time></trkpt><trkpt lat="42.49094291067251" lon="11.337609942746866"><ele>21.0</ele><time>2026-04-30T12:10:54.973Z</time></trkpt><trkpt lat="42.49091279734622" lon="11.337392320559985"><ele>21.0</ele><time>2026-04-30T12:10:55.973Z</time></trkpt><trkpt lat="42.4908816853181" lon="11.337162345575223"><ele>20.333333333333332</ele><time>2026-04-30T12:10:56.973Z</time></trkpt><trkpt lat="42.49084872181745" lon="11.336927060352687"><ele>19.666666666666664</ele><time>2026-04-30T12:10:57.973Z</time></trkpt><trkpt lat="42.490815394490134" lon="11.336698795967896"><ele>19.0</ele><time>2026-04-30T12:10:58.973Z</time></trkpt><trkpt lat="42.4907833287113" lon="11.336471283518799"><ele>19.0</ele><time>2026-04-30T12:10:59.973Z</time></trkpt><trkpt lat="42.49075655007697" lon="11.336265848528067"><ele>19.0</ele><time>2026-04-30T12:11:00.973Z</time></trkpt><trkpt lat="42.49072237723873" lon="11.336070024261323"><ele>19.0</ele><time>2026-04-30T12:11:01.973Z</time></trkpt><trkpt lat="42.49068240920167" lon="11.33588105121576"><ele>19.0</ele><time>2026-04-30T12:11:02.973Z</time></trkpt><trkpt lat="42.490639015153945" lon="11.335689057783439"><ele>18.333333333333332</ele><time>2026-04-30T12:11:03.973Z</time></trkpt><trkpt lat="42.49058848346403" lon="11.335490399143303"><ele>17.666666666666668</ele><time>2026-04-30T12:11:04.973Z</time></trkpt><trkpt lat="42.490535189842205" lon="11.335289662732746"><ele>17.0</ele><time>2026-04-30T12:11:05.973Z</time></trkpt><trkpt lat="42.49050167220273" lon="11.335086402319803"><ele>17.0</ele><time>2026-04-30T12:11:06.973Z</time></trkpt><trkpt lat="42.490473946085785" lon="11.334876975984296"><ele>17.0</ele><time>2026-04-30T12:11:07.973Z</time></trkpt><trkpt lat="42.49043533060914" lon="11.334652621962864"><ele>17.0</ele><time>2026-04-30T12:11:08.973Z</time></trkpt><trkpt lat="42.490402500570426" lon="11.334409936141801"><ele>18.333333333333336</ele><time>2026-04-30T12:11:09.973Z</time></trkpt><trkpt lat="42.49037693929089" lon="11.334165570090752"><ele>19.666666666666668</ele><time>2026-04-30T12:11:10.973Z</time></trkpt><trkpt lat="42.49034825548812" lon="11.333911567741442"><ele>21.0</ele><time>2026-04-30T12:11:11.973Z</time></trkpt><trkpt lat="42.490318598560826" lon="11.333671001019285"><ele>21.333333333333332</ele><time>2026-04-30T12:11:12.973Z</time></trkpt><trkpt lat="42.49028633104536" lon="11.33343485924664"><ele>21.666666666666664</ele><time>2026-04-30T12:11:13.973Z</time></trkpt><trkpt lat="42.49025061805842" lon="11.333198222710893"><ele>22.0</ele><time>2026-04-30T12:11:14.973Z</time></trkpt><trkpt lat="42.49021564062589" lon="11.332958170291988"><ele>23.0</ele><time>2026-04-30T12:11:15.973Z</time></trkpt><trkpt lat="42.490179294262504" lon="11.332708208642437"><ele>24.0</ele><time>2026-04-30T12:11:16.973Z</time></trkpt><trkpt lat="42.49014128972755" lon="11.332470801926345"><ele>25.0</ele><time>2026-04-30T12:11:17.973Z</time></trkpt><trkpt lat="42.49010601698101" lon="11.332237272356709"><ele>24.5</ele><time>2026-04-30T12:11:18.973Z</time></trkpt><trkpt lat="42.49007226585906" lon="11.332025587431126"><ele>24.0</ele><time>2026-04-30T12:11:19.973Z</time></trkpt><trkpt lat="42.490045921538666" lon="11.331842890751624"><ele>23.5</ele><time>2026-04-30T12:11:20.973Z</time></trkpt><trkpt lat="42.49002438307857" lon="11.33167818280863"><ele>23.0</ele><time>2026-04-30T12:11:21.973Z</time></trkpt><trkpt lat="42.49000453627077" lon="11.331527925968272"><ele>23.4</ele><time>2026-04-30T12:11:22.973Z</time></trkpt><trkpt lat="42.48997937965144" lon="11.33137008808579"><ele>23.799999999999997</ele><time>2026-04-30T12:11:23.973Z</time></trkpt><trkpt lat="42.48995016634548" lon="11.331224807360856"><ele>24.2</ele><time>2026-04-30T12:11:24.973Z</time></trkpt><trkpt lat="42.489918413960616" lon="11.331094225966414"><ele>24.6</ele><time>2026-04-30T12:11:25.973Z</time></trkpt><trkpt lat="42.489893970250805" lon="11.330966796558268"><ele>25.0</ele><time>2026-04-30T12:11:26.973Z</time></trkpt><trkpt lat="42.48988517226223" lon="11.330851139451836"><ele>25.000000000000004</ele><time>2026-04-30T12:11:27.973Z</time></trkpt><trkpt lat="42.4898954157838" lon="11.330750871282198"><ele>25.0</ele><time>2026-04-30T12:11:28.973Z</time></trkpt><trkpt lat="42.489926364771485" lon="11.33066982808348"><ele>25.0</ele><time>2026-04-30T12:11:29.973Z</time></trkpt><trkpt lat="42.489983553216476" lon="11.330609964810092"><ele>25.0</ele><time>2026-04-30T12:11:30.973Z</time></trkpt><trkpt lat="42.490048558941496" lon="11.330573706095404"><ele>25.000000000000004</ele><time>2026-04-30T12:11:31.973Z</time></trkpt><trkpt lat="42.490125980039785" lon="11.33050701246682"><ele>25.0</ele><time>2026-04-30T12:11:32.973Z</time></trkpt><trkpt lat="42.49023882957626" lon="11.330457179987858"><ele>24.5</ele><time>2026-04-30T12:11:33.973Z</time></trkpt><trkpt lat="42.49036070313742" lon="11.33040275105943"><ele>24.0</ele><time>2026-04-30T12:11:34.973Z</time></trkpt><trkpt lat="42.49048516027419" lon="11.330343948264387"><ele>23.5</ele><time>2026-04-30T12:11:35.973Z</time></trkpt><trkpt lat="42.490609362080995" lon="11.330278032813188"><ele>23.0</ele><time>2026-04-30T12:11:36.973Z</time></trkpt><trkpt lat="42.49072328533735" lon="11.33021466834879"><ele>23.0</ele><time>2026-04-30T12:11:37.973Z</time></trkpt><trkpt lat="42.490818365122465" lon="11.33016205260031"><ele>23.0</ele><time>2026-04-30T12:11:38.973Z</time></trkpt><trkpt lat="42.49089210663323" lon="11.330112598992358"><ele>23.0</ele><time>2026-04-30T12:11:39.973Z</time></trkpt><trkpt lat="42.49095941567877" lon="11.330095408229306"><ele>23.0</ele><time>2026-04-30T12:11:40.973Z</time></trkpt><trkpt lat="42.49104026857173" lon="11.33004986449515"><ele>23.0</ele><time>2026-04-30T12:11:41.973Z</time></trkpt><trkpt lat="42.49113889516232" lon="11.330004992453983"><ele>23.0</ele><time>2026-04-30T12:11:42.973Z</time></trkpt><trkpt lat="42.49125727995788" lon="11.329950218409444"><ele>23.25</ele><time>2026-04-30T12:11:43.973Z</time></trkpt><trkpt lat="42.49138798432243" lon="11.329891165429524"><ele>23.5</ele><time>2026-04-30T12:11:44.973Z</time></trkpt><trkpt lat="42.49150833761289" lon="11.329833846953864"><ele>23.75</ele><time>2026-04-30T12:11:45.973Z</time></trkpt><trkpt lat="42.491632901970476" lon="11.329772766644865"><ele>24.0</ele><time>2026-04-30T12:11:46.973Z</time></trkpt><trkpt lat="42.4917621816383" lon="11.329705807377824"><ele>23.5</ele><time>2026-04-30T12:11:47.973Z</time></trkpt><trkpt lat="42.491880881866905" lon="11.329645822732607"><ele>23.0</ele><time>2026-04-30T12:11:48.973Z</time></trkpt><trkpt lat="42.49199273379381" lon="11.329586186112396"><ele>22.5</ele><time>2026-04-30T12:11:49.973Z</time></trkpt><trkpt lat="42.49209158916111" lon="11.329527455084301"><ele>22.0</ele><time>2026-04-30T12:11:50.973Z</time></trkpt><trkpt lat="42.49219637374669" lon="11.329475089410424"><ele>22.0</ele><time>2026-04-30T12:11:51.973Z</time></trkpt><trkpt lat="42.492306664556814" lon="11.329437634859179"><ele>22.0</ele><time>2026-04-30T12:11:52.973Z</time></trkpt><trkpt lat="42.49242487669779" lon="11.32941036319534"><ele>22.0</ele><time>2026-04-30T12:11:53.973Z</time></trkpt><trkpt lat="42.49254157263385" lon="11.329375377574083"><ele>22.0</ele><time>2026-04-30T12:11:54.973Z</time></trkpt><trkpt lat="42.492646305647945" lon="11.329330443423837"><ele>22.0</ele><time>2026-04-30T12:11:55.973Z</time></trkpt><trkpt lat="42.49275858933998" lon="11.329279864597574"><ele>22.0</ele><time>2026-04-30T12:11:56.973Z</time></trkpt><trkpt lat="42.49288597119578" lon="11.329222323681176"><ele>22.0</ele><time>2026-04-30T12:11:57.973Z</time></trkpt><trkpt lat="42.49301813337846" lon="11.329160358299903"><ele>22.0</ele><time>2026-04-30T12:11:58.973Z</time></trkpt><trkpt lat="42.49315201879558" lon="11.329104828206383"><ele>22.0</ele><time>2026-04-30T12:11:59.973Z</time></trkpt><trkpt lat="42.493290996792325" lon="11.329040493295043"><ele>22.0</ele><time>2026-04-30T12:12:00.973Z</time></trkpt><trkpt lat="42.4934188204324" lon="11.328981252048106"><ele>22.0</ele><time>2026-04-30T12:12:01.973Z</time></trkpt><trkpt lat="42.49354152977081" lon="11.32892496580643"><ele>22.0</ele><time>2026-04-30T12:12:02.973Z</time></trkpt><trkpt lat="42.49365593707184" lon="11.328870159084731"><ele>21.8</ele><time>2026-04-30T12:12:03.973Z</time></trkpt><trkpt lat="42.49375950426884" lon="11.328824017757412"><ele>21.6</ele><time>2026-04-30T12:12:04.973Z</time></trkpt><trkpt lat="42.493854887523376" lon="11.328780783857923"><ele>21.400000000000002</ele><time>2026-04-30T12:12:05.973Z</time></trkpt><trkpt lat="42.4939348430585" lon="11.328731868771857"><ele>21.200000000000003</ele><time>2026-04-30T12:12:06.973Z</time></trkpt><trkpt lat="42.49400694356819" lon="11.328672803836636"><ele>21.0</ele><time>2026-04-30T12:12:07.973Z</time></trkpt><trkpt lat="42.494080021393756" lon="11.32863630238254"><ele>21.0</ele><time>2026-04-30T12:12:08.973Z</time></trkpt><trkpt lat="42.49415006182647" lon="11.328604435136711"><ele>21.0</ele><time>2026-04-30T12:12:09.973Z</time></trkpt><trkpt lat="42.49423254433572" lon="11.32857611968802"><ele>21.0</ele><time>2026-04-30T12:12:10.973Z</time></trkpt><trkpt lat="42.49432546509504" lon="11.328530301565849"><ele>21.0</ele><time>2026-04-30T12:12:11.973Z</time></trkpt><trkpt lat="42.49442361680921" lon="11.328508826021215"><ele>21.0</ele><time>2026-04-30T12:12:12.974Z</time></trkpt><trkpt lat="42.49453180989848" lon="11.328485026424723"><ele>20.0</ele><time>2026-04-30T12:12:13.974Z</time></trkpt><trkpt lat="42.49464499352516" lon="11.328456359201244"><ele>19.0</ele><time>2026-04-30T12:12:14.974Z</time></trkpt><trkpt lat="42.4947505574165" lon="11.328437610392038"><ele>18.0</ele><time>2026-04-30T12:12:15.974Z</time></trkpt><trkpt lat="42.49485171180837" lon="11.328409408326511"><ele>17.0</ele><time>2026-04-30T12:12:16.974Z</time></trkpt><trkpt lat="42.494925264405154" lon="11.328382888052714"><ele>16.0</ele><time>2026-04-30T12:12:17.974Z</time></trkpt><trkpt lat="42.495028119605074" lon="11.328367410132161"><ele>16.0</ele><time>2026-04-30T12:12:19.974Z</time></trkpt><trkpt lat="42.49509349432454" lon="11.328349294128573"><ele>16.0</ele><time>2026-04-30T12:12:20.974Z</time></trkpt><trkpt lat="42.49522590934164" lon="11.328312600670783"><ele>16.0</ele><time>2026-04-30T12:12:22.974Z</time></trkpt><trkpt lat="42.495322538588994" lon="11.3282858237547"><ele>16.0</ele><time>2026-04-30T12:12:23.974Z</time></trkpt><trkpt lat="42.495427359145566" lon="11.328256777016561"><ele>16.0</ele><time>2026-04-30T12:12:24.974Z</time></trkpt><trkpt lat="42.495530963579284" lon="11.328228067175706"><ele>16.2</ele><time>2026-04-30T12:12:25.974Z</time></trkpt><trkpt lat="42.495616002487836" lon="11.328205267051255"><ele>16.400000000000002</ele><time>2026-04-30T12:12:26.974Z</time></trkpt><trkpt lat="42.4957151434434" lon="11.328178775194221"><ele>16.6</ele><time>2026-04-30T12:12:28.974Z</time></trkpt><trkpt lat="42.49582026749723" lon="11.328154362278426"><ele>16.8</ele><time>2026-04-30T12:12:30.972Z</time></trkpt><trkpt lat="42.495899399012245" lon="11.328136905940084"><ele>17.0</ele><time>2026-04-30T12:12:31.972Z</time></trkpt><trkpt lat="42.49599550415263" lon="11.328108791482066"><ele>17.0</ele><time>2026-04-30T12:12:32.972Z</time></trkpt><trkpt lat="42.496104307629516" lon="11.32807633960601"><ele>17.0</ele><time>2026-04-30T12:12:33.971Z</time></trkpt><trkpt lat="42.496206553020876" lon="11.328052621092393"><ele>17.0</ele><time>2026-04-30T12:12:34.971Z</time></trkpt><trkpt lat="42.49629148444039" lon="11.328029341360715"><ele>17.0</ele><time>2026-04-30T12:12:35.972Z</time></trkpt><trkpt lat="42.496370751898816" lon="11.328003646488026"><ele>17.0</ele><time>2026-04-30T12:12:36.972Z</time></trkpt><trkpt lat="42.49643791198872" lon="11.327982975865437"><ele>16.833333333333336</ele><time>2026-04-30T12:12:37.972Z</time></trkpt><trkpt lat="42.4965121148069" lon="11.327968284555725"><ele>16.666666666666668</ele><time>2026-04-30T12:12:38.972Z</time></trkpt><trkpt lat="42.49658901447777" lon="11.327950068309052"><ele>16.5</ele><time>2026-04-30T12:12:39.972Z</time></trkpt><trkpt lat="42.49667140118003" lon="11.327925275318892"><ele>16.333333333333332</ele><time>2026-04-30T12:12:40.972Z</time></trkpt><trkpt lat="42.49674626699755" lon="11.327905117264297"><ele>16.166666666666664</ele><time>2026-04-30T12:12:41.972Z</time></trkpt><trkpt lat="42.496818080596974" lon="11.327893318344612"><ele>16.0</ele><time>2026-04-30T12:12:42.971Z</time></trkpt><trkpt lat="42.49688650315406" lon="11.327877544993951"><ele>16.0</ele><time>2026-04-30T12:12:43.971Z</time></trkpt><trkpt lat="42.49695705437987" lon="11.327852726003817"><ele>16.0</ele><time>2026-04-30T12:12:44.971Z</time></trkpt><trkpt lat="42.497030216163104" lon="11.327830824440857"><ele>16.0</ele><time>2026-04-30T12:12:45.971Z</time></trkpt><trkpt lat="42.49712932084462" lon="11.327805473175836"><ele>16.0</ele><time>2026-04-30T12:12:46.971Z</time></trkpt><trkpt lat="42.497245832393624" lon="11.327773611678412"><ele>16.0</ele><time>2026-04-30T12:12:47.971Z</time></trkpt><trkpt lat="42.497363136646214" lon="11.327743943383258"><ele>16.0</ele><time>2026-04-30T12:12:48.971Z</time></trkpt><trkpt lat="42.49748826004466" lon="11.32771162775421"><ele>16.0</ele><time>2026-04-30T12:12:49.971Z</time></trkpt><trkpt lat="42.497613505652716" lon="11.327678756333247"><ele>16.0</ele><time>2026-04-30T12:12:50.971Z</time></trkpt><trkpt lat="42.497738550890816" lon="11.327649567375923"><ele>16.0</ele><time>2026-04-30T12:12:51.971Z</time></trkpt><trkpt lat="42.497853189444044" lon="11.32762192602282"><ele>16.2</ele><time>2026-04-30T12:12:52.971Z</time></trkpt><trkpt lat="42.49794964084398" lon="11.327595523007888"><ele>16.400000000000002</ele><time>2026-04-30T12:12:53.971Z</time></trkpt><trkpt lat="42.49803427025851" lon="11.327570338235823"><ele>16.6</ele><time>2026-04-30T12:12:54.971Z</time></trkpt><trkpt lat="42.49810722646703" lon="11.327579146890836"><ele>16.8</ele><time>2026-04-30T12:12:55.971Z</time></trkpt><trkpt lat="42.49817854801417" lon="11.327558795078408"><ele>17.0</ele><time>2026-04-30T12:12:56.971Z</time></trkpt><trkpt lat="42.49830006296241" lon="11.327516326793015"><ele>17.0</ele><time>2026-04-30T12:12:58.972Z</time></trkpt><trkpt lat="42.49838396984313" lon="11.327490019752437"><ele>17.0</ele><time>2026-04-30T12:12:59.972Z</time></trkpt><trkpt lat="42.49849022937594" lon="11.3274358985538"><ele>17.0</ele><time>2026-04-30T12:13:00.972Z</time></trkpt><trkpt lat="42.49862510534793" lon="11.327413883913623"><ele>17.0</ele><time>2026-04-30T12:13:01.972Z</time></trkpt><trkpt lat="42.49875748946454" lon="11.327369987421974"><ele>16.75</ele><time>2026-04-30T12:13:02.972Z</time></trkpt><trkpt lat="42.49888679380085" lon="11.327341242979706"><ele>16.5</ele><time>2026-04-30T12:13:03.972Z</time></trkpt><trkpt lat="42.49902078016819" lon="11.327309155126823"><ele>16.25</ele><time>2026-04-30T12:13:04.972Z</time></trkpt><trkpt lat="42.499151797310546" lon="11.327279009854525"><ele>16.0</ele><time>2026-04-30T12:13:05.972Z</time></trkpt><trkpt lat="42.49928157023193" lon="11.32725238785607"><ele>16.0</ele><time>2026-04-30T12:13:06.972Z</time></trkpt><trkpt lat="42.49941429425688" lon="11.327226229129966"><ele>16.0</ele><time>2026-04-30T12:13:07.972Z</time></trkpt><trkpt lat="42.49954182630178" lon="11.327195280283599"><ele>16.0</ele><time>2026-04-30T12:13:08.972Z</time></trkpt><trkpt lat="42.49965066170135" lon="11.327170974761962"><ele>16.0</ele><time>2026-04-30T12:13:09.972Z</time></trkpt><trkpt lat="42.49974952883408" lon="11.327151953422703"><ele>15.0</ele><time>2026-04-30T12:13:10.972Z</time></trkpt><trkpt lat="42.499854277883266" lon="11.327132669451965"><ele>14.000000000000002</ele><time>2026-04-30T12:13:11.972Z</time></trkpt><trkpt lat="42.49996262248367" lon="11.32710416791067"><ele>13.0</ele><time>2026-04-30T12:13:12.972Z</time></trkpt><trkpt lat="42.50006596350153" lon="11.327070119622489"><ele>12.0</ele><time>2026-04-30T12:13:13.972Z</time></trkpt><trkpt lat="42.50017807272878" lon="11.327034761858293"><ele>11.0</ele><time>2026-04-30T12:13:14.972Z</time></trkpt><trkpt lat="42.50027697302358" lon="11.326997629199749"><ele>11.0</ele><time>2026-04-30T12:13:15.972Z</time></trkpt><trkpt lat="42.50038169780358" lon="11.326971963872813"><ele>11.0</ele><time>2026-04-30T12:13:16.972Z</time></trkpt><trkpt lat="42.50049292612607" lon="11.32694903203882"><ele>11.0</ele><time>2026-04-30T12:13:17.972Z</time></trkpt><trkpt lat="42.50060605688097" lon="11.326921304753492"><ele>11.0</ele><time>2026-04-30T12:13:18.972Z</time></trkpt><trkpt lat="42.500718303410075" lon="11.326889492185664"><ele>11.0</ele><time>2026-04-30T12:13:19.972Z</time></trkpt><trkpt lat="42.50083159146125" lon="11.326862049986545"><ele>11.166666666666666</ele><time>2026-04-30T12:13:20.972Z</time></trkpt><trkpt lat="42.50093706226217" lon="11.326831576107043"><ele>11.333333333333332</ele><time>2026-04-30T12:13:21.972Z</time></trkpt><trkpt lat="42.50102958723009" lon="11.326807025525884"><ele>11.5</ele><time>2026-04-30T12:13:22.972Z</time></trkpt><trkpt lat="42.501113158499734" lon="11.32679235875494"><ele>11.666666666666666</ele><time>2026-04-30T12:13:23.972Z</time></trkpt><trkpt lat="42.50119360607832" lon="11.326777438267191"><ele>11.833333333333334</ele><time>2026-04-30T12:13:24.972Z</time></trkpt><trkpt lat="42.501273669288345" lon="11.326754178190232"><ele>12.0</ele><time>2026-04-30T12:13:25.972Z</time></trkpt><trkpt lat="42.5013414866602" lon="11.326712071858452"><ele>12.0</ele><time>2026-04-30T12:13:26.972Z</time></trkpt><trkpt lat="42.50139933043559" lon="11.326648270225913"><ele>12.0</ele><time>2026-04-30T12:13:27.972Z</time></trkpt><trkpt lat="42.501451554996486" lon="11.326554616777367"><ele>12.0</ele><time>2026-04-30T12:13:28.972Z</time></trkpt><trkpt lat="42.50151110218977" lon="11.326451657092083"><ele>12.0</ele><time>2026-04-30T12:13:29.972Z</time></trkpt><trkpt lat="42.50156276358335" lon="11.32634508762719"><ele>12.0</ele><time>2026-04-30T12:13:30.972Z</time></trkpt><trkpt lat="42.50163512992499" lon="11.326222352198274"><ele>12.25</ele><time>2026-04-30T12:13:31.972Z</time></trkpt><trkpt lat="42.50171382116374" lon="11.326093990301851"><ele>12.5</ele><time>2026-04-30T12:13:32.972Z</time></trkpt><trkpt lat="42.501799185020545" lon="11.32596301827559"><ele>12.75</ele><time>2026-04-30T12:13:33.972Z</time></trkpt><trkpt lat="42.5018841313662" lon="11.325838014571382"><ele>13.0</ele><time>2026-04-30T12:13:34.972Z</time></trkpt><trkpt lat="42.50197325077971" lon="11.325722652003636"><ele>13.0</ele><time>2026-04-30T12:13:35.972Z</time></trkpt><trkpt lat="42.50205699337681" lon="11.325609714662543"><ele>13.0</ele><time>2026-04-30T12:13:36.972Z</time></trkpt><trkpt lat="42.50213949957371" lon="11.325492743387297"><ele>13.0</ele><time>2026-04-30T12:13:37.972Z</time></trkpt><trkpt lat="42.50221248173452" lon="11.325381335670222"><ele>13.0</ele><time>2026-04-30T12:13:38.972Z</time></trkpt><trkpt lat="42.50228894222427" lon="11.325263846156984"><ele>12.5</ele><time>2026-04-30T12:13:39.972Z</time></trkpt><trkpt lat="42.50237564546608" lon="11.325151744002042"><ele>12.0</ele><time>2026-04-30T12:13:40.972Z</time></trkpt><trkpt lat="42.502487389711696" lon="11.325060339158934"><ele>11.5</ele><time>2026-04-30T12:13:41.972Z</time></trkpt><trkpt lat="42.50260606479358" lon="11.324950015013862"><ele>11.0</ele><time>2026-04-30T12:13:42.972Z</time></trkpt><trkpt lat="42.50272602176412" lon="11.324839203326707"><ele>11.0</ele><time>2026-04-30T12:13:43.972Z</time></trkpt><trkpt lat="42.50283704359697" lon="11.324732793025762"><ele>11.0</ele><time>2026-04-30T12:13:44.972Z</time></trkpt><trkpt lat="42.502931211846594" lon="11.324637254845797"><ele>11.0</ele><time>2026-04-30T12:13:45.972Z</time></trkpt><trkpt lat="42.50301747027886" lon="11.324546024054344"><ele>11.0</ele><time>2026-04-30T12:13:46.972Z</time></trkpt><trkpt lat="42.50309309008886" lon="11.324457098694216"><ele>11.0</ele><time>2026-04-30T12:13:47.972Z</time></trkpt><trkpt lat="42.50311566352612" lon="11.324358564710682"><ele>11.0</ele><time>2026-04-30T12:13:48.972Z</time></trkpt><trkpt lat="42.50315411005598" lon="11.32426664167096"><ele>11.0</ele><time>2026-04-30T12:13:49.972Z</time></trkpt><trkpt lat="42.5031856740263" lon="11.324137531085212"><ele>11.0</ele><time>2026-04-30T12:13:51.972Z</time></trkpt><trkpt lat="42.503253030442416" lon="11.324119858051134"><ele>11.0</ele><time>2026-04-30T12:13:53.972Z</time></trkpt><trkpt lat="42.503325769645286" lon="11.324215626699575"><ele>11.0</ele><time>2026-04-30T12:13:56.972Z</time></trkpt><trkpt lat="42.503415817271126" lon="11.32430129027057"><ele>11.0</ele><time>2026-04-30T12:13:58.972Z</time></trkpt><trkpt lat="42.503512967519576" lon="11.324330085499463"><ele>11.0</ele><time>2026-04-30T12:14:00.972Z</time></trkpt><trkpt lat="42.50357267972363" lon="11.324271780705189"><ele>11.0</ele><time>2026-04-30T12:14:01.972Z</time></trkpt><trkpt lat="42.503638283026774" lon="11.324178957167899"><ele>11.0</ele><time>2026-04-30T12:14:02.972Z</time></trkpt><trkpt lat="42.50371259887689" lon="11.324082271786276"><ele>11.0</ele><time>2026-04-30T12:14:03.972Z</time></trkpt><trkpt lat="42.50380233369774" lon="11.324003933980666"><ele>11.25</ele><time>2026-04-30T12:14:04.972Z</time></trkpt><trkpt lat="42.50390868046826" lon="11.32394877380709"><ele>11.5</ele><time>2026-04-30T12:14:05.972Z</time></trkpt><trkpt lat="42.504023103012486" lon="11.323943704015516"><ele>11.75</ele><time>2026-04-30T12:14:06.972Z</time></trkpt><trkpt lat="42.50413485464333" lon="11.323939905437113"><ele>12.0</ele><time>2026-04-30T12:14:07.972Z</time></trkpt><trkpt lat="42.504269969126554" lon="11.323936076267998"><ele>12.0</ele><time>2026-04-30T12:14:08.972Z</time></trkpt><trkpt lat="42.50440572909105" lon="11.323927079168223"><ele>12.0</ele><time>2026-04-30T12:14:09.972Z</time></trkpt><trkpt lat="42.50453913752344" lon="11.323915034005175"><ele>12.0</ele><time>2026-04-30T12:14:10.972Z</time></trkpt><trkpt lat="42.504660051277945" lon="11.323906834113323"><ele>12.0</ele><time>2026-04-30T12:14:11.972Z</time></trkpt><trkpt lat="42.50477720458282" lon="11.323886566488822"><ele>12.0</ele><time>2026-04-30T12:14:12.973Z</time></trkpt><trkpt lat="42.50488268799783" lon="11.323837910753445"><ele>12.0</ele><time>2026-04-30T12:14:13.973Z</time></trkpt><trkpt lat="42.5049882874557" lon="11.323748330024651"><ele>12.0</ele><time>2026-04-30T12:14:14.973Z</time></trkpt><trkpt lat="42.50509701257666" lon="11.323639355721541"><ele>12.0</ele><time>2026-04-30T12:14:15.973Z</time></trkpt><trkpt lat="42.505220553096635" lon="11.32352108315967"><ele>12.0</ele><time>2026-04-30T12:14:16.973Z</time></trkpt><trkpt lat="42.50535910316035" lon="11.32340762131242"><ele>12.0</ele><time>2026-04-30T12:14:17.973Z</time></trkpt><trkpt lat="42.505477237465996" lon="11.3232949501917"><ele>12.0</ele><time>2026-04-30T12:14:18.973Z</time></trkpt><trkpt lat="42.505597585727664" lon="11.32317311238925"><ele>11.333333333333334</ele><time>2026-04-30T12:14:19.973Z</time></trkpt><trkpt lat="42.50570983406947" lon="11.323051396468218"><ele>10.666666666666668</ele><time>2026-04-30T12:14:20.973Z</time></trkpt><trkpt lat="42.50583246957045" lon="11.322927273306314"><ele>10.0</ele><time>2026-04-30T12:14:21.973Z</time></trkpt><trkpt lat="42.50596731420276" lon="11.322802934491117"><ele>10.0</ele><time>2026-04-30T12:14:22.973Z</time></trkpt><trkpt lat="42.50610247883109" lon="11.322675322923718"><ele>10.0</ele><time>2026-04-30T12:14:23.973Z</time></trkpt><trkpt lat="42.50623211817217" lon="11.322547464108885"><ele>10.0</ele><time>2026-04-30T12:14:24.973Z</time></trkpt><trkpt lat="42.5063519223065" lon="11.322419875542831"><ele>10.0</ele><time>2026-04-30T12:14:25.973Z</time></trkpt><trkpt lat="42.50646769470258" lon="11.322280070086315"><ele>10.0</ele><time>2026-04-30T12:14:26.973Z</time></trkpt><trkpt lat="42.50656525251706" lon="11.32213852219557"><ele>10.0</ele><time>2026-04-30T12:14:27.973Z</time></trkpt><trkpt lat="42.50667489254335" lon="11.321995031952042"><ele>10.25</ele><time>2026-04-30T12:14:28.973Z</time></trkpt><trkpt lat="42.50677469681639" lon="11.321864097681486"><ele>10.5</ele><time>2026-04-30T12:14:29.973Z</time></trkpt><trkpt lat="42.50687322501096" lon="11.321718365122765"><ele>10.75</ele><time>2026-04-30T12:14:30.973Z</time></trkpt><trkpt lat="42.50695903163344" lon="11.32155786795296"><ele>11.0</ele><time>2026-04-30T12:14:31.973Z</time></trkpt><trkpt lat="42.507042058109704" lon="11.321380725956969"><ele>11.333333333333332</ele><time>2026-04-30T12:14:32.973Z</time></trkpt><trkpt lat="42.507115517689705" lon="11.321199564600203"><ele>11.666666666666666</ele><time>2026-04-30T12:14:33.973Z</time></trkpt><trkpt lat="42.50719062179376" lon="11.321017244519044"><ele>12.0</ele><time>2026-04-30T12:14:34.973Z</time></trkpt><trkpt lat="42.50727302722826" lon="11.320849924617294"><ele>12.0</ele><time>2026-04-30T12:14:35.972Z</time></trkpt><trkpt lat="42.50735948812245" lon="11.320712156167858"><ele>12.0</ele><time>2026-04-30T12:14:36.971Z</time></trkpt><trkpt lat="42.507464018069705" lon="11.320579722163403"><ele>12.0</ele><time>2026-04-30T12:14:37.971Z</time></trkpt><trkpt lat="42.5075945734972" lon="11.320469589328345"><ele>12.0</ele><time>2026-04-30T12:14:38.971Z</time></trkpt><trkpt lat="42.507710283063155" lon="11.320327902691474"><ele>11.666666666666666</ele><time>2026-04-30T12:14:39.971Z</time></trkpt><trkpt lat="42.50785009850877" lon="11.320199250956726"><ele>11.333333333333332</ele><time>2026-04-30T12:14:40.971Z</time></trkpt><trkpt lat="42.50799501749746" lon="11.320062979257669"><ele>11.0</ele><time>2026-04-30T12:14:41.971Z</time></trkpt><trkpt lat="42.508130742363115" lon="11.319919045098125"><ele>11.0</ele><time>2026-04-30T12:14:42.971Z</time></trkpt><trkpt lat="42.508250509405926" lon="11.319788692631567"><ele>11.0</ele><time>2026-04-30T12:14:43.971Z</time></trkpt><trkpt lat="42.50837178195969" lon="11.319661995417443"><ele>11.0</ele><time>2026-04-30T12:14:44.971Z</time></trkpt><trkpt lat="42.5084936004531" lon="11.319540042209086"><ele>11.0</ele><time>2026-04-30T12:14:45.971Z</time></trkpt><trkpt lat="42.50861043100291" lon="11.319422327374015"><ele>11.0</ele><time>2026-04-30T12:14:46.971Z</time></trkpt><trkpt lat="42.50872165168931" lon="11.319303490773546"><ele>11.0</ele><time>2026-04-30T12:14:47.971Z</time></trkpt><trkpt lat="42.5088358681645" lon="11.319185373694648"><ele>11.0</ele><time>2026-04-30T12:14:48.971Z</time></trkpt><trkpt lat="42.50892925409211" lon="11.319085606130166"><ele>11.0</ele><time>2026-04-30T12:14:49.971Z</time></trkpt><trkpt lat="42.509022760728236" lon="11.319010840200482"><ele>11.0</ele><time>2026-04-30T12:14:50.971Z</time></trkpt><trkpt lat="42.509110006898055" lon="11.318913579412047"><ele>11.0</ele><time>2026-04-30T12:14:51.971Z</time></trkpt><trkpt lat="42.50919458111919" lon="11.31882386507444"><ele>11.0</ele><time>2026-04-30T12:14:52.971Z</time></trkpt><trkpt lat="42.50928471534613" lon="11.318723020112305"><ele>11.0</ele><time>2026-04-30T12:14:53.971Z</time></trkpt><trkpt lat="42.50939816355342" lon="11.318624368701911"><ele>10.75</ele><time>2026-04-30T12:14:54.971Z</time></trkpt><trkpt lat="42.50949917777545" lon="11.318498895689611"><ele>10.5</ele><time>2026-04-30T12:14:55.971Z</time></trkpt><trkpt lat="42.50958328447119" lon="11.31836838982925"><ele>10.25</ele><time>2026-04-30T12:14:56.971Z</time></trkpt><trkpt lat="42.50966681639539" lon="11.318222804825995"><ele>10.0</ele><time>2026-04-30T12:14:57.971Z</time></trkpt><trkpt lat="42.509751337842054" lon="11.318073442838331"><ele>9.75</ele><time>2026-04-30T12:14:58.971Z</time></trkpt><trkpt lat="42.509838147457884" lon="11.317922715055941"><ele>9.5</ele><time>2026-04-30T12:14:59.971Z</time></trkpt><trkpt lat="42.50992196836042" lon="11.317772302462354"><ele>9.25</ele><time>2026-04-30T12:15:00.971Z</time></trkpt><trkpt lat="42.5100082683311" lon="11.317626206691086"><ele>9.0</ele><time>2026-04-30T12:15:01.971Z</time></trkpt><trkpt lat="42.51009984256839" lon="11.317468057824003"><ele>9.0</ele><time>2026-04-30T12:15:02.971Z</time></trkpt><trkpt lat="42.51019852828292" lon="11.317302058565636"><ele>9.0</ele><time>2026-04-30T12:15:03.971Z</time></trkpt><trkpt lat="42.51030635671382" lon="11.317139127964738"><ele>9.0</ele><time>2026-04-30T12:15:04.972Z</time></trkpt><trkpt lat="42.51042337161342" lon="11.316968416395591"><ele>9.333333333333334</ele><time>2026-04-30T12:15:05.972Z</time></trkpt><trkpt lat="42.51053135604779" lon="11.316798218179441"><ele>9.666666666666668</ele><time>2026-04-30T12:15:06.972Z</time></trkpt><trkpt lat="42.51064137356117" lon="11.316604191610917"><ele>10.0</ele><time>2026-04-30T12:15:07.972Z</time></trkpt><trkpt lat="42.51074971716844" lon="11.316386925803961"><ele>10.0</ele><time>2026-04-30T12:15:08.972Z</time></trkpt><trkpt lat="42.51083381908211" lon="11.316165739581372"><ele>10.0</ele><time>2026-04-30T12:15:09.972Z</time></trkpt><trkpt lat="42.510915617466104" lon="11.315943990928528"><ele>10.0</ele><time>2026-04-30T12:15:10.972Z</time></trkpt><trkpt lat="42.51098913253994" lon="11.315705680262306"><ele>10.333333333333334</ele><time>2026-04-30T12:15:11.972Z</time></trkpt><trkpt lat="42.51106800714395" lon="11.315462843470973"><ele>10.666666666666666</ele><time>2026-04-30T12:15:12.972Z</time></trkpt><trkpt lat="42.51114319003596" lon="11.315243277039551"><ele>11.0</ele><time>2026-04-30T12:15:13.972Z</time></trkpt><trkpt lat="42.51121724313338" lon="11.315037354494928"><ele>11.0</ele><time>2026-04-30T12:15:14.972Z</time></trkpt><trkpt lat="42.51129165528733" lon="11.31483388497819"><ele>11.0</ele><time>2026-04-30T12:15:15.972Z</time></trkpt><trkpt lat="42.511361542014825" lon="11.314631947526651"><ele>11.0</ele><time>2026-04-30T12:15:16.972Z</time></trkpt><trkpt lat="42.511427536991164" lon="11.314445987302504"><ele>11.0</ele><time>2026-04-30T12:15:17.972Z</time></trkpt><trkpt lat="42.51149511245353" lon="11.314271149857937"><ele>11.0</ele><time>2026-04-30T12:15:18.972Z</time></trkpt><trkpt lat="42.51156058757126" lon="11.31409333256011"><ele>11.0</ele><time>2026-04-30T12:15:19.972Z</time></trkpt><trkpt lat="42.51162558624227" lon="11.313909206278211"><ele>11.0</ele><time>2026-04-30T12:15:20.972Z</time></trkpt><trkpt lat="42.51168103615397" lon="11.313718689106539"><ele>11.0</ele><time>2026-04-30T12:15:21.972Z</time></trkpt><trkpt lat="42.5117305733245" lon="11.313534132949856"><ele>11.0</ele><time>2026-04-30T12:15:22.972Z</time></trkpt><trkpt lat="42.511765606856926" lon="11.313329909489756"><ele>11.0</ele><time>2026-04-30T12:15:23.972Z</time></trkpt><trkpt lat="42.51182325806176" lon="11.313165765581036"><ele>11.0</ele><time>2026-04-30T12:15:24.972Z</time></trkpt><trkpt lat="42.51183401134723" lon="11.312981017687344"><ele>11.0</ele><time>2026-04-30T12:15:25.972Z</time></trkpt><trkpt lat="42.51186586870126" lon="11.312801787883277"><ele>11.0</ele><time>2026-04-30T12:15:26.972Z</time></trkpt><trkpt lat="42.51190556457434" lon="11.312611929274777"><ele>11.0</ele><time>2026-04-30T12:15:27.972Z</time></trkpt><trkpt lat="42.51193442990336" lon="11.312425093574424"><ele>11.0</ele><time>2026-04-30T12:15:28.972Z</time></trkpt><trkpt lat="42.5119693293492" lon="11.312234490805608"><ele>11.0</ele><time>2026-04-30T12:15:29.972Z</time></trkpt><trkpt lat="42.51200543792227" lon="11.312045431703622"><ele>11.0</ele><time>2026-04-30T12:15:30.972Z</time></trkpt><trkpt lat="42.512038825059506" lon="11.311855930240627"><ele>11.0</ele><time>2026-04-30T12:15:31.972Z</time></trkpt><trkpt lat="42.51207786226433" lon="11.311668387290958"><ele>11.0</ele><time>2026-04-30T12:15:32.972Z</time></trkpt><trkpt lat="42.51211542011217" lon="11.311490755397788"><ele>10.0</ele><time>2026-04-30T12:15:33.972Z</time></trkpt><trkpt lat="42.512156117429555" lon="11.311308468965306"><ele>9.0</ele><time>2026-04-30T12:15:34.972Z</time></trkpt><trkpt lat="42.51219595874524" lon="11.311123102741488"><ele>8.0</ele><time>2026-04-30T12:15:35.972Z</time></trkpt><trkpt lat="42.51222299651947" lon="11.310931885280135"><ele>7.0</ele><time>2026-04-30T12:15:36.972Z</time></trkpt><trkpt lat="42.51224589020531" lon="11.310741714349524"><ele>7.0</ele><time>2026-04-30T12:15:37.972Z</time></trkpt><trkpt lat="42.51228936184979" lon="11.310535413044802"><ele>7.0</ele><time>2026-04-30T12:15:38.972Z</time></trkpt><trkpt lat="42.51234053293831" lon="11.310302351403031"><ele>7.0</ele><time>2026-04-30T12:15:39.972Z</time></trkpt><trkpt lat="42.51239862845743" lon="11.310087565254513"><ele>7.0</ele><time>2026-04-30T12:15:40.972Z</time></trkpt><trkpt lat="42.51247895270539" lon="11.309900544784389"><ele>7.0</ele><time>2026-04-30T12:15:41.972Z</time></trkpt><trkpt lat="42.5125789101965" lon="11.309740493413916"><ele>7.0</ele><time>2026-04-30T12:15:42.972Z</time></trkpt><trkpt lat="42.51269137171273" lon="11.309589921027639"><ele>7.0</ele><time>2026-04-30T12:15:43.972Z</time></trkpt><trkpt lat="42.512812089092755" lon="11.309417726751164"><ele>7.0</ele><time>2026-04-30T12:15:44.972Z</time></trkpt><trkpt lat="42.512944335148035" lon="11.30923182546152"><ele>7.0</ele><time>2026-04-30T12:15:45.972Z</time></trkpt><trkpt lat="42.51308530774277" lon="11.30903325822006"><ele>7.333333333333334</ele><time>2026-04-30T12:15:46.972Z</time></trkpt><trkpt lat="42.513224370842906" lon="11.30881891877397"><ele>7.666666666666666</ele><time>2026-04-30T12:15:47.972Z</time></trkpt><trkpt lat="42.51336100869021" lon="11.308612969495565"><ele>8.0</ele><time>2026-04-30T12:15:48.972Z</time></trkpt><trkpt lat="42.51348706595801" lon="11.30841748561938"><ele>8.0</ele><time>2026-04-30T12:15:49.972Z</time></trkpt><trkpt lat="42.51360807886699" lon="11.308228673655325"><ele>8.0</ele><time>2026-04-30T12:15:50.972Z</time></trkpt><trkpt lat="42.51373718624535" lon="11.308042695196656"><ele>8.0</ele><time>2026-04-30T12:15:51.972Z</time></trkpt><trkpt lat="42.51384732611198" lon="11.307870166121246"><ele>8.0</ele><time>2026-04-30T12:15:52.972Z</time></trkpt><trkpt lat="42.51395690155896" lon="11.307708622252429"><ele>8.0</ele><time>2026-04-30T12:15:53.972Z</time></trkpt><trkpt lat="42.51406221136973" lon="11.307548464808132"><ele>8.0</ele><time>2026-04-30T12:15:54.972Z</time></trkpt><trkpt lat="42.51417041973494" lon="11.307395970161583"><ele>8.0</ele><time>2026-04-30T12:15:55.972Z</time></trkpt><trkpt lat="42.514271516083376" lon="11.307245840271113"><ele>8.0</ele><time>2026-04-30T12:15:56.972Z</time></trkpt><trkpt lat="42.51437140433427" lon="11.307097353465927"><ele>8.0</ele><time>2026-04-30T12:15:57.972Z</time></trkpt><trkpt lat="42.514472112018986" lon="11.306934022514188"><ele>8.333333333333332</ele><time>2026-04-30T12:15:58.972Z</time></trkpt><trkpt lat="42.51457654984577" lon="11.306769320102417"><ele>8.666666666666666</ele><time>2026-04-30T12:15:59.972Z</time></trkpt><trkpt lat="42.514683545156025" lon="11.306607735128482"><ele>9.0</ele><time>2026-04-30T12:16:00.972Z</time></trkpt><trkpt lat="42.514793205987125" lon="11.306456293528168"><ele>9.0</ele><time>2026-04-30T12:16:01.972Z</time></trkpt><trkpt lat="42.51488676767972" lon="11.306317733648662"><ele>9.0</ele><time>2026-04-30T12:16:02.972Z</time></trkpt><trkpt lat="42.51499295456959" lon="11.306202306458628"><ele>9.0</ele><time>2026-04-30T12:16:03.972Z</time></trkpt><trkpt lat="42.51508930502284" lon="11.306072135747721"><ele>9.0</ele><time>2026-04-30T12:16:04.972Z</time></trkpt><trkpt lat="42.51518308486815" lon="11.305945437948832"><ele>9.0</ele><time>2026-04-30T12:16:05.972Z</time></trkpt><trkpt lat="42.515270735868526" lon="11.305827020310192"><ele>9.0</ele><time>2026-04-30T12:16:06.972Z</time></trkpt><trkpt lat="42.5153638945249" lon="11.305703931024773"><ele>9.0</ele><time>2026-04-30T12:16:07.972Z</time></trkpt><trkpt lat="42.515455250572536" lon="11.305581948120798"><ele>9.0</ele><time>2026-04-30T12:16:08.972Z</time></trkpt><trkpt lat="42.515544843728385" lon="11.305450150037649"><ele>10.0</ele><time>2026-04-30T12:16:09.972Z</time></trkpt><trkpt lat="42.51563702077624" lon="11.30531540578701"><ele>11.0</ele><time>2026-04-30T12:16:10.972Z</time></trkpt><trkpt lat="42.51573700352842" lon="11.305183977401658"><ele>12.0</ele><time>2026-04-30T12:16:11.972Z</time></trkpt><trkpt lat="42.5158367912395" lon="11.305052081125048"><ele>13.0</ele><time>2026-04-30T12:16:12.972Z</time></trkpt><trkpt lat="42.51593330113271" lon="11.304916783173361"><ele>13.0</ele><time>2026-04-30T12:16:13.972Z</time></trkpt><trkpt lat="42.51602578057227" lon="11.304782263152164"><ele>13.0</ele><time>2026-04-30T12:16:14.972Z</time></trkpt><trkpt lat="42.51611646070305" lon="11.304654312916448"><ele>13.0</ele><time>2026-04-30T12:16:15.972Z</time></trkpt><trkpt lat="42.51620076263752" lon="11.304534574128859"><ele>13.0</ele><time>2026-04-30T12:16:16.972Z</time></trkpt><trkpt lat="42.51628160574999" lon="11.304413598669969"><ele>14.0</ele><time>2026-04-30T12:16:17.972Z</time></trkpt><trkpt lat="42.516357304871036" lon="11.304288854042953"><ele>15.0</ele><time>2026-04-30T12:16:18.972Z</time></trkpt><trkpt lat="42.51643620064112" lon="11.30415744269202"><ele>16.0</ele><time>2026-04-30T12:16:19.973Z</time></trkpt><trkpt lat="42.51651636235335" lon="11.30402845760362"><ele>17.0</ele><time>2026-04-30T12:16:20.973Z</time></trkpt><trkpt lat="42.516607809381135" lon="11.303906640162618"><ele>17.0</ele><time>2026-04-30T12:16:21.973Z</time></trkpt><trkpt lat="42.51669306177579" lon="11.303774211503532"><ele>17.0</ele><time>2026-04-30T12:16:22.973Z</time></trkpt><trkpt lat="42.516782772211585" lon="11.303627082158542"><ele>17.0</ele><time>2026-04-30T12:16:23.973Z</time></trkpt><trkpt lat="42.51687623451646" lon="11.303484327311114"><ele>17.0</ele><time>2026-04-30T12:16:24.973Z</time></trkpt><trkpt lat="42.51696623642878" lon="11.30334359736529"><ele>17.0</ele><time>2026-04-30T12:16:25.973Z</time></trkpt><trkpt lat="42.51705640165583" lon="11.303200237864031"><ele>17.0</ele><time>2026-04-30T12:16:26.973Z</time></trkpt><trkpt lat="42.517154801443425" lon="11.303045718410125"><ele>17.0</ele><time>2026-04-30T12:16:27.973Z</time></trkpt><trkpt lat="42.51726828038272" lon="11.302890581233132"><ele>16.333333333333336</ele><time>2026-04-30T12:16:28.973Z</time></trkpt><trkpt lat="42.51737206689384" lon="11.30273054997393"><ele>15.666666666666668</ele><time>2026-04-30T12:16:29.973Z</time></trkpt><trkpt lat="42.5174657272036" lon="11.30256840605157"><ele>15.0</ele><time>2026-04-30T12:16:30.973Z</time></trkpt><trkpt lat="42.51755988846671" lon="11.302412018932156"><ele>15.0</ele><time>2026-04-30T12:16:31.973Z</time></trkpt><trkpt lat="42.517653305031466" lon="11.302260376103312"><ele>15.0</ele><time>2026-04-30T12:16:32.973Z</time></trkpt><trkpt lat="42.51775018870239" lon="11.302108301306902"><ele>15.0</ele><time>2026-04-30T12:16:33.973Z</time></trkpt><trkpt lat="42.51784702853941" lon="11.30195649966874"><ele>15.0</ele><time>2026-04-30T12:16:34.973Z</time></trkpt><trkpt lat="42.51794700603879" lon="11.301797631936884"><ele>15.666666666666668</ele><time>2026-04-30T12:16:35.973Z</time></trkpt><trkpt lat="42.51804737197975" lon="11.301638650417306"><ele>16.333333333333336</ele><time>2026-04-30T12:16:36.973Z</time></trkpt><trkpt lat="42.51815361732316" lon="11.301473767035676"><ele>17.0</ele><time>2026-04-30T12:16:37.973Z</time></trkpt><trkpt lat="42.51825875830917" lon="11.301311064272952"><ele>17.333333333333336</ele><time>2026-04-30T12:16:38.973Z</time></trkpt><trkpt lat="42.518364712430404" lon="11.301142943812287"><ele>17.666666666666668</ele><time>2026-04-30T12:16:39.973Z</time></trkpt><trkpt lat="42.51847871723885" lon="11.300966825698413"><ele>18.0</ele><time>2026-04-30T12:16:40.973Z</time></trkpt><trkpt lat="42.518603141425544" lon="11.300799292354696"><ele>18.0</ele><time>2026-04-30T12:16:41.968Z</time></trkpt><trkpt lat="42.518728302539756" lon="11.300635686713886"><ele>18.0</ele><time>2026-04-30T12:16:42.968Z</time></trkpt><trkpt lat="42.51885470981905" lon="11.30047986854908"><ele>18.0</ele><time>2026-04-30T12:16:43.968Z</time></trkpt><trkpt lat="42.51897813105265" lon="11.300333816782452"><ele>17.666666666666668</ele><time>2026-04-30T12:16:44.968Z</time></trkpt><trkpt lat="42.51910357832824" lon="11.300196305295932"><ele>17.333333333333336</ele><time>2026-04-30T12:16:45.968Z</time></trkpt><trkpt lat="42.51922074740947" lon="11.300069261159749"><ele>17.0</ele><time>2026-04-30T12:16:46.968Z</time></trkpt><trkpt lat="42.51934254158475" lon="11.299944266203502"><ele>17.0</ele><time>2026-04-30T12:16:47.968Z</time></trkpt><trkpt lat="42.519472938922846" lon="11.299817937077295"><ele>17.0</ele><time>2026-04-30T12:16:48.968Z</time></trkpt><trkpt lat="42.51960029356441" lon="11.299686721646738"><ele>17.0</ele><time>2026-04-30T12:16:49.968Z</time></trkpt><trkpt lat="42.51973000762222" lon="11.299553934083711"><ele>17.0</ele><time>2026-04-30T12:16:50.968Z</time></trkpt><trkpt lat="42.51985909605824" lon="11.299424993998077"><ele>17.0</ele><time>2026-04-30T12:16:51.968Z</time></trkpt><trkpt lat="42.51999300034895" lon="11.299292256615928"><ele>17.0</ele><time>2026-04-30T12:16:52.968Z</time></trkpt><trkpt lat="42.520129776345485" lon="11.299156770935973"><ele>17.0</ele><time>2026-04-30T12:16:53.968Z</time></trkpt><trkpt lat="42.520257744465816" lon="11.299022149159613"><ele>17.0</ele><time>2026-04-30T12:16:54.967Z</time></trkpt><trkpt lat="42.520378645799404" lon="11.298896074899268"><ele>17.0</ele><time>2026-04-30T12:16:55.967Z</time></trkpt><trkpt lat="42.52050602457069" lon="11.298771262046694"><ele>16.5</ele><time>2026-04-30T12:16:56.967Z</time></trkpt><trkpt lat="42.52062048788063" lon="11.298650723325402"><ele>16.0</ele><time>2026-04-30T12:16:57.967Z</time></trkpt><trkpt lat="42.52073551862313" lon="11.298528832088179"><ele>15.5</ele><time>2026-04-30T12:16:58.967Z</time></trkpt><trkpt lat="42.52086391163679" lon="11.298413365881045"><ele>15.0</ele><time>2026-04-30T12:16:59.967Z</time></trkpt><trkpt lat="42.52098727190244" lon="11.298296600748026"><ele>15.0</ele><time>2026-04-30T12:17:00.967Z</time></trkpt><trkpt lat="42.52110739769686" lon="11.298169135291397"><ele>15.0</ele><time>2026-04-30T12:17:01.967Z</time></trkpt><trkpt lat="42.52123172779175" lon="11.298031332725934"><ele>15.0</ele><time>2026-04-30T12:17:02.967Z</time></trkpt><trkpt lat="42.52134676469282" lon="11.29787460452287"><ele>15.666666666666668</ele><time>2026-04-30T12:17:03.967Z</time></trkpt><trkpt lat="42.52145832964686" lon="11.297699035563339"><ele>16.333333333333336</ele><time>2026-04-30T12:17:04.967Z</time></trkpt><trkpt lat="42.521565558753835" lon="11.29751022476772"><ele>17.0</ele><time>2026-04-30T12:17:05.968Z</time></trkpt><trkpt lat="42.5216699243116" lon="11.297328566953617"><ele>17.0</ele><time>2026-04-30T12:17:06.968Z</time></trkpt><trkpt lat="42.521771663517214" lon="11.297142289187232"><ele>17.0</ele><time>2026-04-30T12:17:07.968Z</time></trkpt><trkpt lat="42.52190316705682" lon="11.296974095016841"><ele>17.0</ele><time>2026-04-30T12:17:08.968Z</time></trkpt><trkpt lat="42.522008430919755" lon="11.29679480133702"><ele>17.333333333333336</ele><time>2026-04-30T12:17:09.968Z</time></trkpt><trkpt lat="42.522106828853154" lon="11.296631217398895"><ele>17.666666666666668</ele><time>2026-04-30T12:17:10.968Z</time></trkpt><trkpt lat="42.52220506600752" lon="11.296462392116768"><ele>18.0</ele><time>2026-04-30T12:17:11.968Z</time></trkpt><trkpt lat="42.52230990623854" lon="11.296288590486455"><ele>18.0</ele><time>2026-04-30T12:17:12.968Z</time></trkpt><trkpt lat="42.52240571477947" lon="11.296118333918727"><ele>18.0</ele><time>2026-04-30T12:17:13.968Z</time></trkpt><trkpt lat="42.52250765321926" lon="11.295955574134032"><ele>18.0</ele><time>2026-04-30T12:17:14.968Z</time></trkpt><trkpt lat="42.522606751017776" lon="11.295793341049048"><ele>18.0</ele><time>2026-04-30T12:17:15.968Z</time></trkpt><trkpt lat="42.52270998845894" lon="11.29563279332475"><ele>18.0</ele><time>2026-04-30T12:17:16.968Z</time></trkpt><trkpt lat="42.52281097393905" lon="11.295472842964362"><ele>18.0</ele><time>2026-04-30T12:17:17.968Z</time></trkpt><trkpt lat="42.52291847321114" lon="11.295316345385897"><ele>17.75</ele><time>2026-04-30T12:17:18.968Z</time></trkpt><trkpt lat="42.52302654086301" lon="11.295183441997027"><ele>17.5</ele><time>2026-04-30T12:17:19.968Z</time></trkpt><trkpt lat="42.52315048248067" lon="11.295075271870312"><ele>17.25</ele><time>2026-04-30T12:17:20.968Z</time></trkpt><trkpt lat="42.523282883332925" lon="11.294976850511024"><ele>17.0</ele><time>2026-04-30T12:17:21.968Z</time></trkpt><trkpt lat="42.52342916877569" lon="11.294863320219687"><ele>17.0</ele><time>2026-04-30T12:17:22.968Z</time></trkpt><trkpt lat="42.523572159593726" lon="11.294768254449073"><ele>17.0</ele><time>2026-04-30T12:17:23.968Z</time></trkpt><trkpt lat="42.523694610049404" lon="11.294681402746068"><ele>17.0</ele><time>2026-04-30T12:17:24.968Z</time></trkpt><trkpt lat="42.5238118894564" lon="11.29460077174882"><ele>17.0</ele><time>2026-04-30T12:17:25.968Z</time></trkpt><trkpt lat="42.52391701984017" lon="11.294532180423897"><ele>17.0</ele><time>2026-04-30T12:17:26.968Z</time></trkpt><trkpt lat="42.524020149773015" lon="11.29445690377206"><ele>17.0</ele><time>2026-04-30T12:17:27.968Z</time></trkpt><trkpt lat="42.524115807292155" lon="11.294387003691742"><ele>17.0</ele><time>2026-04-30T12:17:28.968Z</time></trkpt><trkpt lat="42.52419760085122" lon="11.294328775707303"><ele>17.0</ele><time>2026-04-30T12:17:29.968Z</time></trkpt><trkpt lat="42.52426880716546" lon="11.294274879991521"><ele>17.0</ele><time>2026-04-30T12:17:30.968Z</time></trkpt><trkpt lat="42.524331818968506" lon="11.294232897205875"><ele>17.0</ele><time>2026-04-30T12:17:31.968Z</time></trkpt><trkpt lat="42.52443383317148" lon="11.294170430728006"><ele>17.0</ele><time>2026-04-30T12:17:33.968Z</time></trkpt><trkpt lat="42.52449518586689" lon="11.294108560301531"><ele>17.0</ele><time>2026-04-30T12:17:37.968Z</time></trkpt><trkpt lat="42.52448258031013" lon="11.293913775121533"><ele>17.0</ele><time>2026-04-30T12:17:40.968Z</time></trkpt><trkpt lat="42.52444296870186" lon="11.293809872187937"><ele>17.0</ele><time>2026-04-30T12:17:41.968Z</time></trkpt><trkpt lat="42.524391559651534" lon="11.293626034065973"><ele>17.0</ele><time>2026-04-30T12:17:42.968Z</time></trkpt><trkpt lat="42.524340592085636" lon="11.293424765198795"><ele>17.0</ele><time>2026-04-30T12:17:43.968Z</time></trkpt><trkpt lat="42.52431577006986" lon="11.293192590624113"><ele>17.0</ele><time>2026-04-30T12:17:44.968Z</time></trkpt><trkpt lat="42.52425028766404" lon="11.292956276898394"><ele>17.0</ele><time>2026-04-30T12:17:45.968Z</time></trkpt><trkpt lat="42.52418619102933" lon="11.292713889462286"><ele>17.0</ele><time>2026-04-30T12:17:46.968Z</time></trkpt><trkpt lat="42.52412758890614" lon="11.292462644514332"><ele>17.0</ele><time>2026-04-30T12:17:47.968Z</time></trkpt><trkpt lat="42.52405607948256" lon="11.292190566085763"><ele>16.666666666666668</ele><time>2026-04-30T12:17:48.968Z</time></trkpt><trkpt lat="42.523978779540855" lon="11.291904018505155"><ele>16.333333333333332</ele><time>2026-04-30T12:17:49.968Z</time></trkpt><trkpt lat="42.52391569999219" lon="11.291641643324473"><ele>16.0</ele><time>2026-04-30T12:17:50.968Z</time></trkpt><trkpt lat="42.52385201291395" lon="11.291388650593355"><ele>16.0</ele><time>2026-04-30T12:17:51.968Z</time></trkpt><trkpt lat="42.52378974785053" lon="11.291138432251016"><ele>16.0</ele><time>2026-04-30T12:17:52.968Z</time></trkpt><trkpt lat="42.523735674744636" lon="11.29089177967606"><ele>16.0</ele><time>2026-04-30T12:17:53.968Z</time></trkpt><trkpt lat="42.52369153769349" lon="11.290690289464779"><ele>15.333333333333332</ele><time>2026-04-30T12:17:54.968Z</time></trkpt><trkpt lat="42.52363861938534" lon="11.290457993627198"><ele>14.666666666666668</ele><time>2026-04-30T12:17:55.968Z</time></trkpt><trkpt lat="42.523575942017224" lon="11.290223638579933"><ele>14.0</ele><time>2026-04-30T12:17:56.968Z</time></trkpt><trkpt lat="42.52351918585534" lon="11.290000434953603"><ele>14.0</ele><time>2026-04-30T12:17:57.968Z</time></trkpt><trkpt lat="42.52346075771105" lon="11.289764129912811"><ele>14.0</ele><time>2026-04-30T12:17:58.968Z</time></trkpt><trkpt lat="42.523399289228664" lon="11.289532968919955"><ele>14.0</ele><time>2026-04-30T12:17:59.968Z</time></trkpt><trkpt lat="42.523337102589146" lon="11.289289351602806"><ele>13.333333333333334</ele><time>2026-04-30T12:18:00.968Z</time></trkpt><trkpt lat="42.523281861420884" lon="11.289038804017853"><ele>12.666666666666668</ele><time>2026-04-30T12:18:01.968Z</time></trkpt><trkpt lat="42.52322780216712" lon="11.288794094080675"><ele>12.0</ele><time>2026-04-30T12:18:02.968Z</time></trkpt><trkpt lat="42.52317318983973" lon="11.288578646060252"><ele>12.0</ele><time>2026-04-30T12:18:03.968Z</time></trkpt><trkpt lat="42.523130614474866" lon="11.28840499289578"><ele>12.0</ele><time>2026-04-30T12:18:04.968Z</time></trkpt><trkpt lat="42.52307735707707" lon="11.288197762454876"><ele>12.0</ele><time>2026-04-30T12:18:05.968Z</time></trkpt><trkpt lat="42.52302844098382" lon="11.287994539690217"><ele>12.0</ele><time>2026-04-30T12:18:06.968Z</time></trkpt><trkpt lat="42.522977180762936" lon="11.287783908995305"><ele>12.0</ele><time>2026-04-30T12:18:07.968Z</time></trkpt><trkpt lat="42.52292335770617" lon="11.287582244129142"><ele>12.0</ele><time>2026-04-30T12:18:08.968Z</time></trkpt><trkpt lat="42.522867330768335" lon="11.287373222100847"><ele>11.0</ele><time>2026-04-30T12:18:09.968Z</time></trkpt><trkpt lat="42.52281807511904" lon="11.287163113500444"><ele>10.0</ele><time>2026-04-30T12:18:10.968Z</time></trkpt><trkpt lat="42.522773600832885" lon="11.286961996991357"><ele>9.0</ele><time>2026-04-30T12:18:11.968Z</time></trkpt><trkpt lat="42.522729826507344" lon="11.286774854788492"><ele>9.0</ele><time>2026-04-30T12:18:12.968Z</time></trkpt><trkpt lat="42.52268179861338" lon="11.286581143609645"><ele>9.0</ele><time>2026-04-30T12:18:13.968Z</time></trkpt><trkpt lat="42.52263751495538" lon="11.286378323663225"><ele>9.0</ele><time>2026-04-30T12:18:14.968Z</time></trkpt><trkpt lat="42.522584678516196" lon="11.286180166408542"><ele>10.0</ele><time>2026-04-30T12:18:15.968Z</time></trkpt><trkpt lat="42.52252927911019" lon="11.285975943464063"><ele>11.0</ele><time>2026-04-30T12:18:16.968Z</time></trkpt><trkpt lat="42.5224804702643" lon="11.285761977242277"><ele>12.0</ele><time>2026-04-30T12:18:17.968Z</time></trkpt><trkpt lat="42.52243300886864" lon="11.285538819983644"><ele>12.0</ele><time>2026-04-30T12:18:18.968Z</time></trkpt><trkpt lat="42.522378005547594" lon="11.285305420203043"><ele>12.0</ele><time>2026-04-30T12:18:19.968Z</time></trkpt><trkpt lat="42.52231456305334" lon="11.2850578895249"><ele>12.0</ele><time>2026-04-30T12:18:20.969Z</time></trkpt><trkpt lat="42.522245964844316" lon="11.284786092139287"><ele>11.333333333333334</ele><time>2026-04-30T12:18:21.969Z</time></trkpt><trkpt lat="42.522182171555194" lon="11.28451331776127"><ele>10.666666666666668</ele><time>2026-04-30T12:18:22.969Z</time></trkpt><trkpt lat="42.522116154349376" lon="11.284246286186523"><ele>10.0</ele><time>2026-04-30T12:18:23.969Z</time></trkpt><trkpt lat="42.52205405753879" lon="11.28398580680098"><ele>10.0</ele><time>2026-04-30T12:18:24.969Z</time></trkpt><trkpt lat="42.52199700223527" lon="11.283742628003584"><ele>10.0</ele><time>2026-04-30T12:18:25.969Z</time></trkpt><trkpt lat="42.52194396510769" lon="11.283516527993797"><ele>10.0</ele><time>2026-04-30T12:18:26.969Z</time></trkpt><trkpt lat="42.52189689003182" lon="11.283304500354749"><ele>10.0</ele><time>2026-04-30T12:18:27.969Z</time></trkpt><trkpt lat="42.52184747880178" lon="11.283087297225139"><ele>10.0</ele><time>2026-04-30T12:18:28.969Z</time></trkpt><trkpt lat="42.52179074022348" lon="11.282868308330938"><ele>10.0</ele><time>2026-04-30T12:18:29.969Z</time></trkpt><trkpt lat="42.521736650616" lon="11.282651333698974"><ele>10.0</ele><time>2026-04-30T12:18:30.969Z</time></trkpt><trkpt lat="42.521684828631265" lon="11.282427869638834"><ele>10.0</ele><time>2026-04-30T12:18:31.969Z</time></trkpt><trkpt lat="42.52162933461479" lon="11.282209600304148"><ele>10.0</ele><time>2026-04-30T12:18:32.969Z</time></trkpt><trkpt lat="42.521584064738406" lon="11.282000290295231"><ele>9.5</ele><time>2026-04-30T12:18:33.969Z</time></trkpt><trkpt lat="42.52152955767857" lon="11.28179833777044"><ele>9.0</ele><time>2026-04-30T12:18:34.969Z</time></trkpt><trkpt lat="42.52148303435563" lon="11.281610506932422"><ele>8.5</ele><time>2026-04-30T12:18:35.969Z</time></trkpt><trkpt lat="42.52144278223248" lon="11.281422514512117"><ele>8.0</ele><time>2026-04-30T12:18:36.969Z</time></trkpt><trkpt lat="42.52139972174376" lon="11.281237824622545"><ele>8.0</ele><time>2026-04-30T12:18:37.969Z</time></trkpt><trkpt lat="42.521353583716504" lon="11.281062426305567"><ele>8.0</ele><time>2026-04-30T12:18:38.969Z</time></trkpt><trkpt lat="42.521308570535226" lon="11.280889509835431"><ele>8.0</ele><time>2026-04-30T12:18:39.969Z</time></trkpt><trkpt lat="42.52126925971628" lon="11.280731488757793"><ele>8.0</ele><time>2026-04-30T12:18:40.969Z</time></trkpt><trkpt lat="42.52123504250538" lon="11.280598492593867"><ele>8.0</ele><time>2026-04-30T12:18:41.969Z</time></trkpt><trkpt lat="42.5212158554365" lon="11.280495215301181"><ele>8.0</ele><time>2026-04-30T12:18:42.969Z</time></trkpt><trkpt lat="42.52124567584868" lon="11.28037719320502"><ele>8.0</ele><time>2026-04-30T12:18:44.969Z</time></trkpt><trkpt lat="42.52135317352001" lon="11.28031756360061"><ele>8.0</ele><time>2026-04-30T12:18:46.969Z</time></trkpt><trkpt lat="42.52143791243215" lon="11.280288838844703"><ele>8.0</ele><time>2026-04-30T12:18:48.966Z</time></trkpt><trkpt lat="42.52138683062093" lon="11.280129885624401"><ele>8.0</ele><time>2026-04-30T12:18:50.966Z</time></trkpt><trkpt lat="42.52134570521155" lon="11.2800563084551"><ele>8.0</ele><time>2026-04-30T12:18:56.965Z</time></trkpt><trkpt lat="42.521329176114214" lon="11.279972045504396"><ele>8.0</ele><time>2026-04-30T12:20:39.967Z</time></trkpt><trkpt lat="42.52138393074589" lon="11.280022289885723"><ele>8.0</ele><time>2026-04-30T12:34:04.962Z</time></trkpt><trkpt lat="42.52144404789759" lon="11.280068041655637"><ele>8.0</ele><time>2026-04-30T12:34:11.962Z</time></trkpt><trkpt lat="42.52138054853741" lon="11.280128942330654"><ele>8.0</ele><time>2026-04-30T12:35:33.463Z</time></trkpt></trkseg></trk></gpx>